<?xml version="1.0" encoding="UTF-8"?>
<gpx xmlns="http://www.topografix.com/GPX/1/1"
     creator="GpsDumpMac 0.29"
     version="1.1"
     xmlns:xsi="http://www.w3.org/2001/XMLSchema-instance"
     xsi:schemaLocation="http://www.topografix.com/GPX/1/1 http://www.topografix.com/GPX/1/1/gpx.xsd">
  <metadata>
    <link href="http://www.gethome.no/stein.sorensen/">
      <text>GPS dump for www.flightlog.org</text>
    </link>
    <time>2018-09-04T07:43:11Z</time>
    <bounds minlat="40.418617" minlon="-5.322617" maxlat="40.600500" maxlon="-4.763367"/>
  </metadata>
  <trk>
    <name>Track 001</name>
    <trkseg>
      <trkpt lat="40.421783" lon="-5.301817">
        <ele>1926.0</ele>
        <time>2018-07-29T11:24:29Z</time>
      </trkpt>
      <trkpt lat="40.421817" lon="-5.301833">
        <ele>1927.0</ele>
        <time>2018-07-29T11:24:30Z</time>
      </trkpt>
      <trkpt lat="40.421850" lon="-5.301867">
        <ele>1927.0</ele>
        <time>2018-07-29T11:24:31Z</time>
      </trkpt>
      <trkpt lat="40.421883" lon="-5.301917">
        <ele>1928.0</ele>
        <time>2018-07-29T11:24:32Z</time>
      </trkpt>
      <trkpt lat="40.421900" lon="-5.301950">
        <ele>1928.0</ele>
        <time>2018-07-29T11:24:33Z</time>
      </trkpt>
      <trkpt lat="40.421917" lon="-5.302000">
        <ele>1928.0</ele>
        <time>2018-07-29T11:24:34Z</time>
      </trkpt>
      <trkpt lat="40.421933" lon="-5.302050">
        <ele>1928.0</ele>
        <time>2018-07-29T11:24:35Z</time>
      </trkpt>
      <trkpt lat="40.421933" lon="-5.302100">
        <ele>1927.0</ele>
        <time>2018-07-29T11:24:36Z</time>
      </trkpt>
      <trkpt lat="40.421950" lon="-5.302150">
        <ele>1927.0</ele>
        <time>2018-07-29T11:24:37Z</time>
      </trkpt>
      <trkpt lat="40.421967" lon="-5.302200">
        <ele>1927.0</ele>
        <time>2018-07-29T11:24:38Z</time>
      </trkpt>
      <trkpt lat="40.421967" lon="-5.302267">
        <ele>1929.0</ele>
        <time>2018-07-29T11:24:39Z</time>
      </trkpt>
      <trkpt lat="40.421967" lon="-5.302317">
        <ele>1930.0</ele>
        <time>2018-07-29T11:24:40Z</time>
      </trkpt>
      <trkpt lat="40.421967" lon="-5.302367">
        <ele>1930.0</ele>
        <time>2018-07-29T11:24:41Z</time>
      </trkpt>
      <trkpt lat="40.421967" lon="-5.302433">
        <ele>1929.0</ele>
        <time>2018-07-29T11:24:42Z</time>
      </trkpt>
      <trkpt lat="40.421983" lon="-5.302500">
        <ele>1928.0</ele>
        <time>2018-07-29T11:24:43Z</time>
      </trkpt>
      <trkpt lat="40.421983" lon="-5.302600">
        <ele>1927.0</ele>
        <time>2018-07-29T11:24:44Z</time>
      </trkpt>
      <trkpt lat="40.421983" lon="-5.302683">
        <ele>1927.0</ele>
        <time>2018-07-29T11:24:45Z</time>
      </trkpt>
      <trkpt lat="40.421950" lon="-5.302767">
        <ele>1928.0</ele>
        <time>2018-07-29T11:24:46Z</time>
      </trkpt>
      <trkpt lat="40.421950" lon="-5.302833">
        <ele>1929.0</ele>
        <time>2018-07-29T11:24:47Z</time>
      </trkpt>
      <trkpt lat="40.421950" lon="-5.302917">
        <ele>1929.0</ele>
        <time>2018-07-29T11:24:48Z</time>
      </trkpt>
      <trkpt lat="40.421950" lon="-5.302983">
        <ele>1929.0</ele>
        <time>2018-07-29T11:24:49Z</time>
      </trkpt>
      <trkpt lat="40.421950" lon="-5.303050">
        <ele>1929.0</ele>
        <time>2018-07-29T11:24:50Z</time>
      </trkpt>
      <trkpt lat="40.421967" lon="-5.303117">
        <ele>1929.0</ele>
        <time>2018-07-29T11:24:51Z</time>
      </trkpt>
      <trkpt lat="40.421967" lon="-5.303200">
        <ele>1928.0</ele>
        <time>2018-07-29T11:24:52Z</time>
      </trkpt>
      <trkpt lat="40.421967" lon="-5.303283">
        <ele>1928.0</ele>
        <time>2018-07-29T11:24:53Z</time>
      </trkpt>
      <trkpt lat="40.422000" lon="-5.303350">
        <ele>1928.0</ele>
        <time>2018-07-29T11:24:54Z</time>
      </trkpt>
      <trkpt lat="40.422017" lon="-5.303417">
        <ele>1928.0</ele>
        <time>2018-07-29T11:24:55Z</time>
      </trkpt>
      <trkpt lat="40.422033" lon="-5.303467">
        <ele>1929.0</ele>
        <time>2018-07-29T11:24:56Z</time>
      </trkpt>
      <trkpt lat="40.422050" lon="-5.303533">
        <ele>1929.0</ele>
        <time>2018-07-29T11:24:57Z</time>
      </trkpt>
      <trkpt lat="40.422067" lon="-5.303600">
        <ele>1929.0</ele>
        <time>2018-07-29T11:24:58Z</time>
      </trkpt>
      <trkpt lat="40.422083" lon="-5.303667">
        <ele>1928.0</ele>
        <time>2018-07-29T11:24:59Z</time>
      </trkpt>
      <trkpt lat="40.422117" lon="-5.303717">
        <ele>1927.0</ele>
        <time>2018-07-29T11:25:00Z</time>
      </trkpt>
      <trkpt lat="40.422150" lon="-5.303800">
        <ele>1926.0</ele>
        <time>2018-07-29T11:25:01Z</time>
      </trkpt>
      <trkpt lat="40.422183" lon="-5.303883">
        <ele>1926.0</ele>
        <time>2018-07-29T11:25:02Z</time>
      </trkpt>
      <trkpt lat="40.422217" lon="-5.303967">
        <ele>1927.0</ele>
        <time>2018-07-29T11:25:03Z</time>
      </trkpt>
      <trkpt lat="40.422233" lon="-5.304050">
        <ele>1929.0</ele>
        <time>2018-07-29T11:25:04Z</time>
      </trkpt>
      <trkpt lat="40.422267" lon="-5.304117">
        <ele>1930.0</ele>
        <time>2018-07-29T11:25:05Z</time>
      </trkpt>
      <trkpt lat="40.422267" lon="-5.304167">
        <ele>1931.0</ele>
        <time>2018-07-29T11:25:06Z</time>
      </trkpt>
      <trkpt lat="40.422283" lon="-5.304233">
        <ele>1930.0</ele>
        <time>2018-07-29T11:25:07Z</time>
      </trkpt>
      <trkpt lat="40.422300" lon="-5.304317">
        <ele>1929.0</ele>
        <time>2018-07-29T11:25:08Z</time>
      </trkpt>
      <trkpt lat="40.422317" lon="-5.304400">
        <ele>1928.0</ele>
        <time>2018-07-29T11:25:09Z</time>
      </trkpt>
      <trkpt lat="40.422333" lon="-5.304500">
        <ele>1928.0</ele>
        <time>2018-07-29T11:25:10Z</time>
      </trkpt>
      <trkpt lat="40.422367" lon="-5.304600">
        <ele>1928.0</ele>
        <time>2018-07-29T11:25:11Z</time>
      </trkpt>
      <trkpt lat="40.422400" lon="-5.304683">
        <ele>1928.0</ele>
        <time>2018-07-29T11:25:12Z</time>
      </trkpt>
      <trkpt lat="40.422417" lon="-5.304783">
        <ele>1929.0</ele>
        <time>2018-07-29T11:25:13Z</time>
      </trkpt>
      <trkpt lat="40.422433" lon="-5.304883">
        <ele>1930.0</ele>
        <time>2018-07-29T11:25:14Z</time>
      </trkpt>
      <trkpt lat="40.422450" lon="-5.304967">
        <ele>1930.0</ele>
        <time>2018-07-29T11:25:15Z</time>
      </trkpt>
      <trkpt lat="40.422467" lon="-5.305067">
        <ele>1929.0</ele>
        <time>2018-07-29T11:25:16Z</time>
      </trkpt>
      <trkpt lat="40.422500" lon="-5.305150">
        <ele>1928.0</ele>
        <time>2018-07-29T11:25:17Z</time>
      </trkpt>
      <trkpt lat="40.422533" lon="-5.305217">
        <ele>1928.0</ele>
        <time>2018-07-29T11:25:18Z</time>
      </trkpt>
      <trkpt lat="40.422583" lon="-5.305300">
        <ele>1928.0</ele>
        <time>2018-07-29T11:25:19Z</time>
      </trkpt>
      <trkpt lat="40.422617" lon="-5.305367">
        <ele>1928.0</ele>
        <time>2018-07-29T11:25:20Z</time>
      </trkpt>
      <trkpt lat="40.422633" lon="-5.305450">
        <ele>1928.0</ele>
        <time>2018-07-29T11:25:21Z</time>
      </trkpt>
      <trkpt lat="40.422650" lon="-5.305533">
        <ele>1928.0</ele>
        <time>2018-07-29T11:25:22Z</time>
      </trkpt>
      <trkpt lat="40.422683" lon="-5.305617">
        <ele>1928.0</ele>
        <time>2018-07-29T11:25:23Z</time>
      </trkpt>
      <trkpt lat="40.422717" lon="-5.305700">
        <ele>1928.0</ele>
        <time>2018-07-29T11:25:24Z</time>
      </trkpt>
      <trkpt lat="40.422750" lon="-5.305783">
        <ele>1928.0</ele>
        <time>2018-07-29T11:25:25Z</time>
      </trkpt>
      <trkpt lat="40.422800" lon="-5.305867">
        <ele>1927.0</ele>
        <time>2018-07-29T11:25:26Z</time>
      </trkpt>
      <trkpt lat="40.422833" lon="-5.305950">
        <ele>1927.0</ele>
        <time>2018-07-29T11:25:27Z</time>
      </trkpt>
      <trkpt lat="40.422867" lon="-5.306033">
        <ele>1928.0</ele>
        <time>2018-07-29T11:25:28Z</time>
      </trkpt>
      <trkpt lat="40.422900" lon="-5.306117">
        <ele>1929.0</ele>
        <time>2018-07-29T11:25:29Z</time>
      </trkpt>
      <trkpt lat="40.422900" lon="-5.306200">
        <ele>1930.0</ele>
        <time>2018-07-29T11:25:30Z</time>
      </trkpt>
      <trkpt lat="40.422900" lon="-5.306283">
        <ele>1930.0</ele>
        <time>2018-07-29T11:25:31Z</time>
      </trkpt>
      <trkpt lat="40.422900" lon="-5.306383">
        <ele>1929.0</ele>
        <time>2018-07-29T11:25:32Z</time>
      </trkpt>
      <trkpt lat="40.422900" lon="-5.306483">
        <ele>1928.0</ele>
        <time>2018-07-29T11:25:33Z</time>
      </trkpt>
      <trkpt lat="40.422900" lon="-5.306583">
        <ele>1927.0</ele>
        <time>2018-07-29T11:25:34Z</time>
      </trkpt>
      <trkpt lat="40.422917" lon="-5.306700">
        <ele>1928.0</ele>
        <time>2018-07-29T11:25:35Z</time>
      </trkpt>
      <trkpt lat="40.422917" lon="-5.306800">
        <ele>1929.0</ele>
        <time>2018-07-29T11:25:36Z</time>
      </trkpt>
      <trkpt lat="40.422900" lon="-5.306900">
        <ele>1929.0</ele>
        <time>2018-07-29T11:25:37Z</time>
      </trkpt>
      <trkpt lat="40.422883" lon="-5.306983">
        <ele>1930.0</ele>
        <time>2018-07-29T11:25:38Z</time>
      </trkpt>
      <trkpt lat="40.422833" lon="-5.307083">
        <ele>1929.0</ele>
        <time>2018-07-29T11:25:39Z</time>
      </trkpt>
      <trkpt lat="40.422783" lon="-5.307183">
        <ele>1928.0</ele>
        <time>2018-07-29T11:25:40Z</time>
      </trkpt>
      <trkpt lat="40.422750" lon="-5.307300">
        <ele>1927.0</ele>
        <time>2018-07-29T11:25:41Z</time>
      </trkpt>
      <trkpt lat="40.422700" lon="-5.307433">
        <ele>1926.0</ele>
        <time>2018-07-29T11:25:42Z</time>
      </trkpt>
      <trkpt lat="40.422683" lon="-5.307567">
        <ele>1927.0</ele>
        <time>2018-07-29T11:25:43Z</time>
      </trkpt>
      <trkpt lat="40.422650" lon="-5.307700">
        <ele>1929.0</ele>
        <time>2018-07-29T11:25:44Z</time>
      </trkpt>
      <trkpt lat="40.422617" lon="-5.307817">
        <ele>1931.0</ele>
        <time>2018-07-29T11:25:45Z</time>
      </trkpt>
      <trkpt lat="40.422600" lon="-5.307933">
        <ele>1933.0</ele>
        <time>2018-07-29T11:25:46Z</time>
      </trkpt>
      <trkpt lat="40.422583" lon="-5.308033">
        <ele>1934.0</ele>
        <time>2018-07-29T11:25:47Z</time>
      </trkpt>
      <trkpt lat="40.422567" lon="-5.308133">
        <ele>1935.0</ele>
        <time>2018-07-29T11:25:48Z</time>
      </trkpt>
      <trkpt lat="40.422550" lon="-5.308233">
        <ele>1935.0</ele>
        <time>2018-07-29T11:25:49Z</time>
      </trkpt>
      <trkpt lat="40.422550" lon="-5.308333">
        <ele>1935.0</ele>
        <time>2018-07-29T11:25:50Z</time>
      </trkpt>
      <trkpt lat="40.422550" lon="-5.308433">
        <ele>1936.0</ele>
        <time>2018-07-29T11:25:51Z</time>
      </trkpt>
      <trkpt lat="40.422550" lon="-5.308533">
        <ele>1936.0</ele>
        <time>2018-07-29T11:25:52Z</time>
      </trkpt>
      <trkpt lat="40.422550" lon="-5.308617">
        <ele>1937.0</ele>
        <time>2018-07-29T11:25:53Z</time>
      </trkpt>
      <trkpt lat="40.422567" lon="-5.308717">
        <ele>1938.0</ele>
        <time>2018-07-29T11:25:54Z</time>
      </trkpt>
      <trkpt lat="40.422600" lon="-5.308783">
        <ele>1939.0</ele>
        <time>2018-07-29T11:25:55Z</time>
      </trkpt>
      <trkpt lat="40.422617" lon="-5.308850">
        <ele>1940.0</ele>
        <time>2018-07-29T11:25:56Z</time>
      </trkpt>
      <trkpt lat="40.422633" lon="-5.308900">
        <ele>1940.0</ele>
        <time>2018-07-29T11:25:57Z</time>
      </trkpt>
      <trkpt lat="40.422650" lon="-5.308967">
        <ele>1939.0</ele>
        <time>2018-07-29T11:25:58Z</time>
      </trkpt>
      <trkpt lat="40.422650" lon="-5.309050">
        <ele>1939.0</ele>
        <time>2018-07-29T11:25:59Z</time>
      </trkpt>
      <trkpt lat="40.422667" lon="-5.309117">
        <ele>1938.0</ele>
        <time>2018-07-29T11:26:00Z</time>
      </trkpt>
      <trkpt lat="40.422700" lon="-5.309183">
        <ele>1938.0</ele>
        <time>2018-07-29T11:26:01Z</time>
      </trkpt>
      <trkpt lat="40.422733" lon="-5.309250">
        <ele>1937.0</ele>
        <time>2018-07-29T11:26:02Z</time>
      </trkpt>
      <trkpt lat="40.422750" lon="-5.309350">
        <ele>1937.0</ele>
        <time>2018-07-29T11:26:03Z</time>
      </trkpt>
      <trkpt lat="40.422767" lon="-5.309450">
        <ele>1939.0</ele>
        <time>2018-07-29T11:26:04Z</time>
      </trkpt>
      <trkpt lat="40.422783" lon="-5.309550">
        <ele>1941.0</ele>
        <time>2018-07-29T11:26:05Z</time>
      </trkpt>
      <trkpt lat="40.422767" lon="-5.309633">
        <ele>1944.0</ele>
        <time>2018-07-29T11:26:06Z</time>
      </trkpt>
      <trkpt lat="40.422750" lon="-5.309717">
        <ele>1946.0</ele>
        <time>2018-07-29T11:26:07Z</time>
      </trkpt>
      <trkpt lat="40.422700" lon="-5.309817">
        <ele>1947.0</ele>
        <time>2018-07-29T11:26:08Z</time>
      </trkpt>
      <trkpt lat="40.422633" lon="-5.309900">
        <ele>1947.0</ele>
        <time>2018-07-29T11:26:09Z</time>
      </trkpt>
      <trkpt lat="40.422517" lon="-5.309983">
        <ele>1947.0</ele>
        <time>2018-07-29T11:26:10Z</time>
      </trkpt>
      <trkpt lat="40.422383" lon="-5.310033">
        <ele>1949.0</ele>
        <time>2018-07-29T11:26:11Z</time>
      </trkpt>
      <trkpt lat="40.422250" lon="-5.310050">
        <ele>1951.0</ele>
        <time>2018-07-29T11:26:12Z</time>
      </trkpt>
      <trkpt lat="40.422117" lon="-5.310017">
        <ele>1953.0</ele>
        <time>2018-07-29T11:26:13Z</time>
      </trkpt>
      <trkpt lat="40.421983" lon="-5.309933">
        <ele>1954.0</ele>
        <time>2018-07-29T11:26:14Z</time>
      </trkpt>
      <trkpt lat="40.421883" lon="-5.309833">
        <ele>1954.0</ele>
        <time>2018-07-29T11:26:15Z</time>
      </trkpt>
      <trkpt lat="40.421783" lon="-5.309717">
        <ele>1954.0</ele>
        <time>2018-07-29T11:26:16Z</time>
      </trkpt>
      <trkpt lat="40.421733" lon="-5.309583">
        <ele>1955.0</ele>
        <time>2018-07-29T11:26:17Z</time>
      </trkpt>
      <trkpt lat="40.421700" lon="-5.309450">
        <ele>1955.0</ele>
        <time>2018-07-29T11:26:18Z</time>
      </trkpt>
      <trkpt lat="40.421700" lon="-5.309333">
        <ele>1955.0</ele>
        <time>2018-07-29T11:26:19Z</time>
      </trkpt>
      <trkpt lat="40.421717" lon="-5.309233">
        <ele>1957.0</ele>
        <time>2018-07-29T11:26:20Z</time>
      </trkpt>
      <trkpt lat="40.421733" lon="-5.309133">
        <ele>1958.0</ele>
        <time>2018-07-29T11:26:21Z</time>
      </trkpt>
      <trkpt lat="40.421750" lon="-5.309067">
        <ele>1958.0</ele>
        <time>2018-07-29T11:26:22Z</time>
      </trkpt>
      <trkpt lat="40.421800" lon="-5.309017">
        <ele>1959.0</ele>
        <time>2018-07-29T11:26:23Z</time>
      </trkpt>
      <trkpt lat="40.421833" lon="-5.308983">
        <ele>1960.0</ele>
        <time>2018-07-29T11:26:24Z</time>
      </trkpt>
      <trkpt lat="40.421883" lon="-5.308983">
        <ele>1960.0</ele>
        <time>2018-07-29T11:26:25Z</time>
      </trkpt>
      <trkpt lat="40.421917" lon="-5.308983">
        <ele>1961.0</ele>
        <time>2018-07-29T11:26:26Z</time>
      </trkpt>
      <trkpt lat="40.421950" lon="-5.309000">
        <ele>1962.0</ele>
        <time>2018-07-29T11:26:27Z</time>
      </trkpt>
      <trkpt lat="40.422000" lon="-5.309033">
        <ele>1963.0</ele>
        <time>2018-07-29T11:26:28Z</time>
      </trkpt>
      <trkpt lat="40.422033" lon="-5.309067">
        <ele>1963.0</ele>
        <time>2018-07-29T11:26:29Z</time>
      </trkpt>
      <trkpt lat="40.422067" lon="-5.309117">
        <ele>1965.0</ele>
        <time>2018-07-29T11:26:30Z</time>
      </trkpt>
      <trkpt lat="40.422083" lon="-5.309183">
        <ele>1966.0</ele>
        <time>2018-07-29T11:26:31Z</time>
      </trkpt>
      <trkpt lat="40.422083" lon="-5.309267">
        <ele>1966.0</ele>
        <time>2018-07-29T11:26:32Z</time>
      </trkpt>
      <trkpt lat="40.422083" lon="-5.309350">
        <ele>1967.0</ele>
        <time>2018-07-29T11:26:33Z</time>
      </trkpt>
      <trkpt lat="40.422067" lon="-5.309433">
        <ele>1969.0</ele>
        <time>2018-07-29T11:26:34Z</time>
      </trkpt>
      <trkpt lat="40.422033" lon="-5.309533">
        <ele>1970.0</ele>
        <time>2018-07-29T11:26:35Z</time>
      </trkpt>
      <trkpt lat="40.422000" lon="-5.309650">
        <ele>1970.0</ele>
        <time>2018-07-29T11:26:36Z</time>
      </trkpt>
      <trkpt lat="40.421933" lon="-5.309750">
        <ele>1970.0</ele>
        <time>2018-07-29T11:26:37Z</time>
      </trkpt>
      <trkpt lat="40.421867" lon="-5.309833">
        <ele>1971.0</ele>
        <time>2018-07-29T11:26:38Z</time>
      </trkpt>
      <trkpt lat="40.421783" lon="-5.309917">
        <ele>1973.0</ele>
        <time>2018-07-29T11:26:39Z</time>
      </trkpt>
      <trkpt lat="40.421683" lon="-5.309967">
        <ele>1974.0</ele>
        <time>2018-07-29T11:26:40Z</time>
      </trkpt>
      <trkpt lat="40.421583" lon="-5.310017">
        <ele>1976.0</ele>
        <time>2018-07-29T11:26:41Z</time>
      </trkpt>
      <trkpt lat="40.421450" lon="-5.310050">
        <ele>1977.0</ele>
        <time>2018-07-29T11:26:42Z</time>
      </trkpt>
      <trkpt lat="40.421317" lon="-5.310050">
        <ele>1980.0</ele>
        <time>2018-07-29T11:26:43Z</time>
      </trkpt>
      <trkpt lat="40.421183" lon="-5.310017">
        <ele>1982.0</ele>
        <time>2018-07-29T11:26:44Z</time>
      </trkpt>
      <trkpt lat="40.421067" lon="-5.309933">
        <ele>1984.0</ele>
        <time>2018-07-29T11:26:45Z</time>
      </trkpt>
      <trkpt lat="40.420950" lon="-5.309817">
        <ele>1986.0</ele>
        <time>2018-07-29T11:26:46Z</time>
      </trkpt>
      <trkpt lat="40.420867" lon="-5.309683">
        <ele>1988.0</ele>
        <time>2018-07-29T11:26:47Z</time>
      </trkpt>
      <trkpt lat="40.420800" lon="-5.309533">
        <ele>1990.0</ele>
        <time>2018-07-29T11:26:48Z</time>
      </trkpt>
      <trkpt lat="40.420750" lon="-5.309400">
        <ele>1992.0</ele>
        <time>2018-07-29T11:26:49Z</time>
      </trkpt>
      <trkpt lat="40.420733" lon="-5.309267">
        <ele>1994.0</ele>
        <time>2018-07-29T11:26:50Z</time>
      </trkpt>
      <trkpt lat="40.420733" lon="-5.309167">
        <ele>1995.0</ele>
        <time>2018-07-29T11:26:51Z</time>
      </trkpt>
      <trkpt lat="40.420750" lon="-5.309083">
        <ele>1997.0</ele>
        <time>2018-07-29T11:26:52Z</time>
      </trkpt>
      <trkpt lat="40.420783" lon="-5.309033">
        <ele>1998.0</ele>
        <time>2018-07-29T11:26:53Z</time>
      </trkpt>
      <trkpt lat="40.420817" lon="-5.308983">
        <ele>1999.0</ele>
        <time>2018-07-29T11:26:54Z</time>
      </trkpt>
      <trkpt lat="40.420850" lon="-5.308983">
        <ele>1999.0</ele>
        <time>2018-07-29T11:26:55Z</time>
      </trkpt>
      <trkpt lat="40.420883" lon="-5.308983">
        <ele>2000.0</ele>
        <time>2018-07-29T11:26:56Z</time>
      </trkpt>
      <trkpt lat="40.420900" lon="-5.309033">
        <ele>2000.0</ele>
        <time>2018-07-29T11:26:57Z</time>
      </trkpt>
      <trkpt lat="40.420917" lon="-5.309100">
        <ele>1999.0</ele>
        <time>2018-07-29T11:26:58Z</time>
      </trkpt>
      <trkpt lat="40.420900" lon="-5.309217">
        <ele>1999.0</ele>
        <time>2018-07-29T11:26:59Z</time>
      </trkpt>
      <trkpt lat="40.420850" lon="-5.309333">
        <ele>1999.0</ele>
        <time>2018-07-29T11:27:00Z</time>
      </trkpt>
      <trkpt lat="40.420767" lon="-5.309433">
        <ele>2000.0</ele>
        <time>2018-07-29T11:27:01Z</time>
      </trkpt>
      <trkpt lat="40.420667" lon="-5.309517">
        <ele>2002.0</ele>
        <time>2018-07-29T11:27:02Z</time>
      </trkpt>
      <trkpt lat="40.420533" lon="-5.309550">
        <ele>2003.0</ele>
        <time>2018-07-29T11:27:03Z</time>
      </trkpt>
      <trkpt lat="40.420400" lon="-5.309517">
        <ele>2004.0</ele>
        <time>2018-07-29T11:27:04Z</time>
      </trkpt>
      <trkpt lat="40.420267" lon="-5.309467">
        <ele>2004.0</ele>
        <time>2018-07-29T11:27:05Z</time>
      </trkpt>
      <trkpt lat="40.420150" lon="-5.309367">
        <ele>2005.0</ele>
        <time>2018-07-29T11:27:06Z</time>
      </trkpt>
      <trkpt lat="40.420067" lon="-5.309267">
        <ele>2006.0</ele>
        <time>2018-07-29T11:27:07Z</time>
      </trkpt>
      <trkpt lat="40.419983" lon="-5.309133">
        <ele>2005.0</ele>
        <time>2018-07-29T11:27:08Z</time>
      </trkpt>
      <trkpt lat="40.419933" lon="-5.308983">
        <ele>2004.0</ele>
        <time>2018-07-29T11:27:09Z</time>
      </trkpt>
      <trkpt lat="40.419917" lon="-5.308833">
        <ele>2004.0</ele>
        <time>2018-07-29T11:27:10Z</time>
      </trkpt>
      <trkpt lat="40.419917" lon="-5.308700">
        <ele>2005.0</ele>
        <time>2018-07-29T11:27:11Z</time>
      </trkpt>
      <trkpt lat="40.419917" lon="-5.308567">
        <ele>2006.0</ele>
        <time>2018-07-29T11:27:12Z</time>
      </trkpt>
      <trkpt lat="40.419933" lon="-5.308467">
        <ele>2007.0</ele>
        <time>2018-07-29T11:27:13Z</time>
      </trkpt>
      <trkpt lat="40.419950" lon="-5.308367">
        <ele>2009.0</ele>
        <time>2018-07-29T11:27:14Z</time>
      </trkpt>
      <trkpt lat="40.419983" lon="-5.308283">
        <ele>2010.0</ele>
        <time>2018-07-29T11:27:15Z</time>
      </trkpt>
      <trkpt lat="40.420000" lon="-5.308183">
        <ele>2012.0</ele>
        <time>2018-07-29T11:27:16Z</time>
      </trkpt>
      <trkpt lat="40.420033" lon="-5.308100">
        <ele>2013.0</ele>
        <time>2018-07-29T11:27:17Z</time>
      </trkpt>
      <trkpt lat="40.420050" lon="-5.308017">
        <ele>2014.0</ele>
        <time>2018-07-29T11:27:18Z</time>
      </trkpt>
      <trkpt lat="40.420067" lon="-5.307933">
        <ele>2015.0</ele>
        <time>2018-07-29T11:27:19Z</time>
      </trkpt>
      <trkpt lat="40.420100" lon="-5.307850">
        <ele>2015.0</ele>
        <time>2018-07-29T11:27:20Z</time>
      </trkpt>
      <trkpt lat="40.420133" lon="-5.307783">
        <ele>2014.0</ele>
        <time>2018-07-29T11:27:21Z</time>
      </trkpt>
      <trkpt lat="40.420167" lon="-5.307733">
        <ele>2013.0</ele>
        <time>2018-07-29T11:27:22Z</time>
      </trkpt>
      <trkpt lat="40.420217" lon="-5.307667">
        <ele>2012.0</ele>
        <time>2018-07-29T11:27:23Z</time>
      </trkpt>
      <trkpt lat="40.420267" lon="-5.307633">
        <ele>2011.0</ele>
        <time>2018-07-29T11:27:24Z</time>
      </trkpt>
      <trkpt lat="40.420300" lon="-5.307583">
        <ele>2011.0</ele>
        <time>2018-07-29T11:27:25Z</time>
      </trkpt>
      <trkpt lat="40.420350" lon="-5.307550">
        <ele>2010.0</ele>
        <time>2018-07-29T11:27:26Z</time>
      </trkpt>
      <trkpt lat="40.420400" lon="-5.307517">
        <ele>2009.0</ele>
        <time>2018-07-29T11:27:27Z</time>
      </trkpt>
      <trkpt lat="40.420450" lon="-5.307500">
        <ele>2008.0</ele>
        <time>2018-07-29T11:27:28Z</time>
      </trkpt>
      <trkpt lat="40.420500" lon="-5.307467">
        <ele>2007.0</ele>
        <time>2018-07-29T11:27:29Z</time>
      </trkpt>
      <trkpt lat="40.420550" lon="-5.307450">
        <ele>2007.0</ele>
        <time>2018-07-29T11:27:30Z</time>
      </trkpt>
      <trkpt lat="40.420583" lon="-5.307433">
        <ele>2007.0</ele>
        <time>2018-07-29T11:27:31Z</time>
      </trkpt>
      <trkpt lat="40.420633" lon="-5.307450">
        <ele>2007.0</ele>
        <time>2018-07-29T11:27:32Z</time>
      </trkpt>
      <trkpt lat="40.420683" lon="-5.307467">
        <ele>2006.0</ele>
        <time>2018-07-29T11:27:33Z</time>
      </trkpt>
      <trkpt lat="40.420733" lon="-5.307500">
        <ele>2006.0</ele>
        <time>2018-07-29T11:27:34Z</time>
      </trkpt>
      <trkpt lat="40.420767" lon="-5.307533">
        <ele>2006.0</ele>
        <time>2018-07-29T11:27:35Z</time>
      </trkpt>
      <trkpt lat="40.420817" lon="-5.307600">
        <ele>2006.0</ele>
        <time>2018-07-29T11:27:36Z</time>
      </trkpt>
      <trkpt lat="40.420867" lon="-5.307650">
        <ele>2007.0</ele>
        <time>2018-07-29T11:27:37Z</time>
      </trkpt>
      <trkpt lat="40.420900" lon="-5.307700">
        <ele>2007.0</ele>
        <time>2018-07-29T11:27:38Z</time>
      </trkpt>
      <trkpt lat="40.420933" lon="-5.307750">
        <ele>2008.0</ele>
        <time>2018-07-29T11:27:39Z</time>
      </trkpt>
      <trkpt lat="40.420983" lon="-5.307800">
        <ele>2008.0</ele>
        <time>2018-07-29T11:27:40Z</time>
      </trkpt>
      <trkpt lat="40.421017" lon="-5.307850">
        <ele>2007.0</ele>
        <time>2018-07-29T11:27:41Z</time>
      </trkpt>
      <trkpt lat="40.421067" lon="-5.307917">
        <ele>2007.0</ele>
        <time>2018-07-29T11:27:42Z</time>
      </trkpt>
      <trkpt lat="40.421100" lon="-5.307967">
        <ele>2007.0</ele>
        <time>2018-07-29T11:27:43Z</time>
      </trkpt>
      <trkpt lat="40.421150" lon="-5.308017">
        <ele>2007.0</ele>
        <time>2018-07-29T11:27:44Z</time>
      </trkpt>
      <trkpt lat="40.421200" lon="-5.308067">
        <ele>2006.0</ele>
        <time>2018-07-29T11:27:45Z</time>
      </trkpt>
      <trkpt lat="40.421250" lon="-5.308100">
        <ele>2006.0</ele>
        <time>2018-07-29T11:27:46Z</time>
      </trkpt>
      <trkpt lat="40.421300" lon="-5.308150">
        <ele>2006.0</ele>
        <time>2018-07-29T11:27:47Z</time>
      </trkpt>
      <trkpt lat="40.421350" lon="-5.308183">
        <ele>2007.0</ele>
        <time>2018-07-29T11:27:48Z</time>
      </trkpt>
      <trkpt lat="40.421400" lon="-5.308183">
        <ele>2008.0</ele>
        <time>2018-07-29T11:27:49Z</time>
      </trkpt>
      <trkpt lat="40.421450" lon="-5.308167">
        <ele>2008.0</ele>
        <time>2018-07-29T11:27:50Z</time>
      </trkpt>
      <trkpt lat="40.421483" lon="-5.308100">
        <ele>2007.0</ele>
        <time>2018-07-29T11:27:51Z</time>
      </trkpt>
      <trkpt lat="40.421517" lon="-5.308017">
        <ele>2007.0</ele>
        <time>2018-07-29T11:27:52Z</time>
      </trkpt>
      <trkpt lat="40.421550" lon="-5.307900">
        <ele>2006.0</ele>
        <time>2018-07-29T11:27:53Z</time>
      </trkpt>
      <trkpt lat="40.421583" lon="-5.307800">
        <ele>2007.0</ele>
        <time>2018-07-29T11:27:54Z</time>
      </trkpt>
      <trkpt lat="40.421617" lon="-5.307717">
        <ele>2008.0</ele>
        <time>2018-07-29T11:27:55Z</time>
      </trkpt>
      <trkpt lat="40.421667" lon="-5.307650">
        <ele>2009.0</ele>
        <time>2018-07-29T11:27:56Z</time>
      </trkpt>
      <trkpt lat="40.421700" lon="-5.307617">
        <ele>2010.0</ele>
        <time>2018-07-29T11:27:57Z</time>
      </trkpt>
      <trkpt lat="40.421717" lon="-5.307583">
        <ele>2011.0</ele>
        <time>2018-07-29T11:27:58Z</time>
      </trkpt>
      <trkpt lat="40.421750" lon="-5.307517">
        <ele>2010.0</ele>
        <time>2018-07-29T11:27:59Z</time>
      </trkpt>
      <trkpt lat="40.421783" lon="-5.307467">
        <ele>2008.0</ele>
        <time>2018-07-29T11:28:00Z</time>
      </trkpt>
      <trkpt lat="40.421833" lon="-5.307433">
        <ele>2007.0</ele>
        <time>2018-07-29T11:28:01Z</time>
      </trkpt>
      <trkpt lat="40.421883" lon="-5.307400">
        <ele>2006.0</ele>
        <time>2018-07-29T11:28:02Z</time>
      </trkpt>
      <trkpt lat="40.421950" lon="-5.307383">
        <ele>2005.0</ele>
        <time>2018-07-29T11:28:03Z</time>
      </trkpt>
      <trkpt lat="40.422000" lon="-5.307383">
        <ele>2006.0</ele>
        <time>2018-07-29T11:28:04Z</time>
      </trkpt>
      <trkpt lat="40.422033" lon="-5.307383">
        <ele>2007.0</ele>
        <time>2018-07-29T11:28:05Z</time>
      </trkpt>
      <trkpt lat="40.422067" lon="-5.307383">
        <ele>2009.0</ele>
        <time>2018-07-29T11:28:06Z</time>
      </trkpt>
      <trkpt lat="40.422083" lon="-5.307400">
        <ele>2010.0</ele>
        <time>2018-07-29T11:28:07Z</time>
      </trkpt>
      <trkpt lat="40.422067" lon="-5.307433">
        <ele>2009.0</ele>
        <time>2018-07-29T11:28:08Z</time>
      </trkpt>
      <trkpt lat="40.422050" lon="-5.307517">
        <ele>2008.0</ele>
        <time>2018-07-29T11:28:09Z</time>
      </trkpt>
      <trkpt lat="40.422033" lon="-5.307617">
        <ele>2008.0</ele>
        <time>2018-07-29T11:28:10Z</time>
      </trkpt>
      <trkpt lat="40.422000" lon="-5.307700">
        <ele>2008.0</ele>
        <time>2018-07-29T11:28:11Z</time>
      </trkpt>
      <trkpt lat="40.421983" lon="-5.307783">
        <ele>2007.0</ele>
        <time>2018-07-29T11:28:12Z</time>
      </trkpt>
      <trkpt lat="40.421950" lon="-5.307850">
        <ele>2006.0</ele>
        <time>2018-07-29T11:28:13Z</time>
      </trkpt>
      <trkpt lat="40.421933" lon="-5.307933">
        <ele>2005.0</ele>
        <time>2018-07-29T11:28:14Z</time>
      </trkpt>
      <trkpt lat="40.421917" lon="-5.308017">
        <ele>2003.0</ele>
        <time>2018-07-29T11:28:15Z</time>
      </trkpt>
      <trkpt lat="40.421900" lon="-5.308100">
        <ele>2003.0</ele>
        <time>2018-07-29T11:28:16Z</time>
      </trkpt>
      <trkpt lat="40.421867" lon="-5.308183">
        <ele>2003.0</ele>
        <time>2018-07-29T11:28:17Z</time>
      </trkpt>
      <trkpt lat="40.421850" lon="-5.308283">
        <ele>2003.0</ele>
        <time>2018-07-29T11:28:18Z</time>
      </trkpt>
      <trkpt lat="40.421850" lon="-5.308383">
        <ele>2005.0</ele>
        <time>2018-07-29T11:28:19Z</time>
      </trkpt>
      <trkpt lat="40.421833" lon="-5.308467">
        <ele>2008.0</ele>
        <time>2018-07-29T11:28:20Z</time>
      </trkpt>
      <trkpt lat="40.421833" lon="-5.308550">
        <ele>2011.0</ele>
        <time>2018-07-29T11:28:21Z</time>
      </trkpt>
      <trkpt lat="40.421817" lon="-5.308600">
        <ele>2012.0</ele>
        <time>2018-07-29T11:28:22Z</time>
      </trkpt>
      <trkpt lat="40.421783" lon="-5.308650">
        <ele>2011.0</ele>
        <time>2018-07-29T11:28:23Z</time>
      </trkpt>
      <trkpt lat="40.421750" lon="-5.308717">
        <ele>2009.0</ele>
        <time>2018-07-29T11:28:24Z</time>
      </trkpt>
      <trkpt lat="40.421733" lon="-5.308800">
        <ele>2006.0</ele>
        <time>2018-07-29T11:28:25Z</time>
      </trkpt>
      <trkpt lat="40.421733" lon="-5.308883">
        <ele>2004.0</ele>
        <time>2018-07-29T11:28:26Z</time>
      </trkpt>
      <trkpt lat="40.421767" lon="-5.308950">
        <ele>2003.0</ele>
        <time>2018-07-29T11:28:27Z</time>
      </trkpt>
      <trkpt lat="40.421800" lon="-5.309000">
        <ele>2003.0</ele>
        <time>2018-07-29T11:28:28Z</time>
      </trkpt>
      <trkpt lat="40.421833" lon="-5.309033">
        <ele>2004.0</ele>
        <time>2018-07-29T11:28:29Z</time>
      </trkpt>
      <trkpt lat="40.421867" lon="-5.309067">
        <ele>2005.0</ele>
        <time>2018-07-29T11:28:30Z</time>
      </trkpt>
      <trkpt lat="40.421883" lon="-5.309083">
        <ele>2005.0</ele>
        <time>2018-07-29T11:28:31Z</time>
      </trkpt>
      <trkpt lat="40.421917" lon="-5.309117">
        <ele>2004.0</ele>
        <time>2018-07-29T11:28:32Z</time>
      </trkpt>
      <trkpt lat="40.421967" lon="-5.309150">
        <ele>2002.0</ele>
        <time>2018-07-29T11:28:33Z</time>
      </trkpt>
      <trkpt lat="40.422017" lon="-5.309183">
        <ele>2000.0</ele>
        <time>2018-07-29T11:28:34Z</time>
      </trkpt>
      <trkpt lat="40.422067" lon="-5.309217">
        <ele>1999.0</ele>
        <time>2018-07-29T11:28:35Z</time>
      </trkpt>
      <trkpt lat="40.422133" lon="-5.309250">
        <ele>2000.0</ele>
        <time>2018-07-29T11:28:36Z</time>
      </trkpt>
      <trkpt lat="40.422183" lon="-5.309283">
        <ele>2000.0</ele>
        <time>2018-07-29T11:28:37Z</time>
      </trkpt>
      <trkpt lat="40.422233" lon="-5.309333">
        <ele>2000.0</ele>
        <time>2018-07-29T11:28:38Z</time>
      </trkpt>
      <trkpt lat="40.422300" lon="-5.309367">
        <ele>2000.0</ele>
        <time>2018-07-29T11:28:39Z</time>
      </trkpt>
      <trkpt lat="40.422367" lon="-5.309417">
        <ele>1999.0</ele>
        <time>2018-07-29T11:28:40Z</time>
      </trkpt>
      <trkpt lat="40.422417" lon="-5.309467">
        <ele>1999.0</ele>
        <time>2018-07-29T11:28:41Z</time>
      </trkpt>
      <trkpt lat="40.422467" lon="-5.309517">
        <ele>1999.0</ele>
        <time>2018-07-29T11:28:42Z</time>
      </trkpt>
      <trkpt lat="40.422517" lon="-5.309583">
        <ele>2000.0</ele>
        <time>2018-07-29T11:28:43Z</time>
      </trkpt>
      <trkpt lat="40.422567" lon="-5.309633">
        <ele>1999.0</ele>
        <time>2018-07-29T11:28:44Z</time>
      </trkpt>
      <trkpt lat="40.422617" lon="-5.309683">
        <ele>1998.0</ele>
        <time>2018-07-29T11:28:45Z</time>
      </trkpt>
      <trkpt lat="40.422667" lon="-5.309750">
        <ele>2000.0</ele>
        <time>2018-07-29T11:28:46Z</time>
      </trkpt>
      <trkpt lat="40.422733" lon="-5.309817">
        <ele>2002.0</ele>
        <time>2018-07-29T11:28:47Z</time>
      </trkpt>
      <trkpt lat="40.422783" lon="-5.309883">
        <ele>2006.0</ele>
        <time>2018-07-29T11:28:48Z</time>
      </trkpt>
      <trkpt lat="40.422833" lon="-5.309900">
        <ele>2010.0</ele>
        <time>2018-07-29T11:28:49Z</time>
      </trkpt>
      <trkpt lat="40.422883" lon="-5.309917">
        <ele>2014.0</ele>
        <time>2018-07-29T11:28:50Z</time>
      </trkpt>
      <trkpt lat="40.422933" lon="-5.309900">
        <ele>2015.0</ele>
        <time>2018-07-29T11:28:51Z</time>
      </trkpt>
      <trkpt lat="40.423017" lon="-5.309867">
        <ele>2016.0</ele>
        <time>2018-07-29T11:28:52Z</time>
      </trkpt>
      <trkpt lat="40.423083" lon="-5.309783">
        <ele>2015.0</ele>
        <time>2018-07-29T11:28:53Z</time>
      </trkpt>
      <trkpt lat="40.423150" lon="-5.309650">
        <ele>2016.0</ele>
        <time>2018-07-29T11:28:54Z</time>
      </trkpt>
      <trkpt lat="40.423183" lon="-5.309500">
        <ele>2017.0</ele>
        <time>2018-07-29T11:28:55Z</time>
      </trkpt>
      <trkpt lat="40.423167" lon="-5.309333">
        <ele>2019.0</ele>
        <time>2018-07-29T11:28:56Z</time>
      </trkpt>
      <trkpt lat="40.423100" lon="-5.309200">
        <ele>2021.0</ele>
        <time>2018-07-29T11:28:57Z</time>
      </trkpt>
      <trkpt lat="40.423017" lon="-5.309083">
        <ele>2023.0</ele>
        <time>2018-07-29T11:28:58Z</time>
      </trkpt>
      <trkpt lat="40.422933" lon="-5.309017">
        <ele>2026.0</ele>
        <time>2018-07-29T11:28:59Z</time>
      </trkpt>
      <trkpt lat="40.422833" lon="-5.308983">
        <ele>2028.0</ele>
        <time>2018-07-29T11:29:00Z</time>
      </trkpt>
      <trkpt lat="40.422750" lon="-5.308983">
        <ele>2029.0</ele>
        <time>2018-07-29T11:29:01Z</time>
      </trkpt>
      <trkpt lat="40.422650" lon="-5.309000">
        <ele>2028.0</ele>
        <time>2018-07-29T11:29:02Z</time>
      </trkpt>
      <trkpt lat="40.422567" lon="-5.309050">
        <ele>2027.0</ele>
        <time>2018-07-29T11:29:03Z</time>
      </trkpt>
      <trkpt lat="40.422483" lon="-5.309133">
        <ele>2027.0</ele>
        <time>2018-07-29T11:29:04Z</time>
      </trkpt>
      <trkpt lat="40.422400" lon="-5.309217">
        <ele>2028.0</ele>
        <time>2018-07-29T11:29:05Z</time>
      </trkpt>
      <trkpt lat="40.422333" lon="-5.309333">
        <ele>2030.0</ele>
        <time>2018-07-29T11:29:06Z</time>
      </trkpt>
      <trkpt lat="40.422250" lon="-5.309417">
        <ele>2034.0</ele>
        <time>2018-07-29T11:29:07Z</time>
      </trkpt>
      <trkpt lat="40.422200" lon="-5.309500">
        <ele>2037.0</ele>
        <time>2018-07-29T11:29:08Z</time>
      </trkpt>
      <trkpt lat="40.422167" lon="-5.309583">
        <ele>2040.0</ele>
        <time>2018-07-29T11:29:09Z</time>
      </trkpt>
      <trkpt lat="40.422133" lon="-5.309667">
        <ele>2043.0</ele>
        <time>2018-07-29T11:29:10Z</time>
      </trkpt>
      <trkpt lat="40.422100" lon="-5.309750">
        <ele>2046.0</ele>
        <time>2018-07-29T11:29:11Z</time>
      </trkpt>
      <trkpt lat="40.422083" lon="-5.309833">
        <ele>2049.0</ele>
        <time>2018-07-29T11:29:12Z</time>
      </trkpt>
      <trkpt lat="40.422100" lon="-5.309900">
        <ele>2052.0</ele>
        <time>2018-07-29T11:29:13Z</time>
      </trkpt>
      <trkpt lat="40.422150" lon="-5.309933">
        <ele>2052.0</ele>
        <time>2018-07-29T11:29:14Z</time>
      </trkpt>
      <trkpt lat="40.422217" lon="-5.309950">
        <ele>2051.0</ele>
        <time>2018-07-29T11:29:15Z</time>
      </trkpt>
      <trkpt lat="40.422333" lon="-5.309917">
        <ele>2050.0</ele>
        <time>2018-07-29T11:29:16Z</time>
      </trkpt>
      <trkpt lat="40.422433" lon="-5.309850">
        <ele>2052.0</ele>
        <time>2018-07-29T11:29:17Z</time>
      </trkpt>
      <trkpt lat="40.422500" lon="-5.309733">
        <ele>2055.0</ele>
        <time>2018-07-29T11:29:18Z</time>
      </trkpt>
      <trkpt lat="40.422550" lon="-5.309617">
        <ele>2059.0</ele>
        <time>2018-07-29T11:29:19Z</time>
      </trkpt>
      <trkpt lat="40.422567" lon="-5.309483">
        <ele>2061.0</ele>
        <time>2018-07-29T11:29:20Z</time>
      </trkpt>
      <trkpt lat="40.422550" lon="-5.309333">
        <ele>2062.0</ele>
        <time>2018-07-29T11:29:21Z</time>
      </trkpt>
      <trkpt lat="40.422500" lon="-5.309183">
        <ele>2062.0</ele>
        <time>2018-07-29T11:29:22Z</time>
      </trkpt>
      <trkpt lat="40.422433" lon="-5.309033">
        <ele>2062.0</ele>
        <time>2018-07-29T11:29:23Z</time>
      </trkpt>
      <trkpt lat="40.422333" lon="-5.308917">
        <ele>2064.0</ele>
        <time>2018-07-29T11:29:24Z</time>
      </trkpt>
      <trkpt lat="40.422233" lon="-5.308833">
        <ele>2065.0</ele>
        <time>2018-07-29T11:29:25Z</time>
      </trkpt>
      <trkpt lat="40.422117" lon="-5.308767">
        <ele>2066.0</ele>
        <time>2018-07-29T11:29:26Z</time>
      </trkpt>
      <trkpt lat="40.422017" lon="-5.308750">
        <ele>2067.0</ele>
        <time>2018-07-29T11:29:27Z</time>
      </trkpt>
      <trkpt lat="40.421900" lon="-5.308733">
        <ele>2068.0</ele>
        <time>2018-07-29T11:29:28Z</time>
      </trkpt>
      <trkpt lat="40.421783" lon="-5.308733">
        <ele>2067.0</ele>
        <time>2018-07-29T11:29:29Z</time>
      </trkpt>
      <trkpt lat="40.421667" lon="-5.308750">
        <ele>2067.0</ele>
        <time>2018-07-29T11:29:30Z</time>
      </trkpt>
      <trkpt lat="40.421550" lon="-5.308800">
        <ele>2067.0</ele>
        <time>2018-07-29T11:29:31Z</time>
      </trkpt>
      <trkpt lat="40.421467" lon="-5.308883">
        <ele>2068.0</ele>
        <time>2018-07-29T11:29:32Z</time>
      </trkpt>
      <trkpt lat="40.421400" lon="-5.308983">
        <ele>2069.0</ele>
        <time>2018-07-29T11:29:33Z</time>
      </trkpt>
      <trkpt lat="40.421350" lon="-5.309100">
        <ele>2071.0</ele>
        <time>2018-07-29T11:29:34Z</time>
      </trkpt>
      <trkpt lat="40.421317" lon="-5.309200">
        <ele>2074.0</ele>
        <time>2018-07-29T11:29:35Z</time>
      </trkpt>
      <trkpt lat="40.421300" lon="-5.309317">
        <ele>2077.0</ele>
        <time>2018-07-29T11:29:36Z</time>
      </trkpt>
      <trkpt lat="40.421283" lon="-5.309400">
        <ele>2080.0</ele>
        <time>2018-07-29T11:29:37Z</time>
      </trkpt>
      <trkpt lat="40.421283" lon="-5.309500">
        <ele>2083.0</ele>
        <time>2018-07-29T11:29:38Z</time>
      </trkpt>
      <trkpt lat="40.421300" lon="-5.309583">
        <ele>2087.0</ele>
        <time>2018-07-29T11:29:39Z</time>
      </trkpt>
      <trkpt lat="40.421317" lon="-5.309667">
        <ele>2090.0</ele>
        <time>2018-07-29T11:29:40Z</time>
      </trkpt>
      <trkpt lat="40.421333" lon="-5.309717">
        <ele>2094.0</ele>
        <time>2018-07-29T11:29:41Z</time>
      </trkpt>
      <trkpt lat="40.421367" lon="-5.309767">
        <ele>2096.0</ele>
        <time>2018-07-29T11:29:42Z</time>
      </trkpt>
      <trkpt lat="40.421433" lon="-5.309767">
        <ele>2096.0</ele>
        <time>2018-07-29T11:29:43Z</time>
      </trkpt>
      <trkpt lat="40.421517" lon="-5.309733">
        <ele>2095.0</ele>
        <time>2018-07-29T11:29:44Z</time>
      </trkpt>
      <trkpt lat="40.421600" lon="-5.309667">
        <ele>2096.0</ele>
        <time>2018-07-29T11:29:45Z</time>
      </trkpt>
      <trkpt lat="40.421683" lon="-5.309567">
        <ele>2098.0</ele>
        <time>2018-07-29T11:29:46Z</time>
      </trkpt>
      <trkpt lat="40.421767" lon="-5.309450">
        <ele>2101.0</ele>
        <time>2018-07-29T11:29:47Z</time>
      </trkpt>
      <trkpt lat="40.421817" lon="-5.309333">
        <ele>2104.0</ele>
        <time>2018-07-29T11:29:48Z</time>
      </trkpt>
      <trkpt lat="40.421833" lon="-5.309200">
        <ele>2105.0</ele>
        <time>2018-07-29T11:29:49Z</time>
      </trkpt>
      <trkpt lat="40.421833" lon="-5.309033">
        <ele>2105.0</ele>
        <time>2018-07-29T11:29:50Z</time>
      </trkpt>
      <trkpt lat="40.421783" lon="-5.308867">
        <ele>2104.0</ele>
        <time>2018-07-29T11:29:51Z</time>
      </trkpt>
      <trkpt lat="40.421733" lon="-5.308700">
        <ele>2104.0</ele>
        <time>2018-07-29T11:29:52Z</time>
      </trkpt>
      <trkpt lat="40.421650" lon="-5.308533">
        <ele>2105.0</ele>
        <time>2018-07-29T11:29:53Z</time>
      </trkpt>
      <trkpt lat="40.421550" lon="-5.308400">
        <ele>2106.0</ele>
        <time>2018-07-29T11:29:54Z</time>
      </trkpt>
      <trkpt lat="40.421417" lon="-5.308300">
        <ele>2107.0</ele>
        <time>2018-07-29T11:29:55Z</time>
      </trkpt>
      <trkpt lat="40.421283" lon="-5.308250">
        <ele>2108.0</ele>
        <time>2018-07-29T11:29:56Z</time>
      </trkpt>
      <trkpt lat="40.421150" lon="-5.308233">
        <ele>2110.0</ele>
        <time>2018-07-29T11:29:57Z</time>
      </trkpt>
      <trkpt lat="40.421033" lon="-5.308250">
        <ele>2112.0</ele>
        <time>2018-07-29T11:29:58Z</time>
      </trkpt>
      <trkpt lat="40.420950" lon="-5.308283">
        <ele>2113.0</ele>
        <time>2018-07-29T11:29:59Z</time>
      </trkpt>
      <trkpt lat="40.420883" lon="-5.308350">
        <ele>2113.0</ele>
        <time>2018-07-29T11:30:00Z</time>
      </trkpt>
      <trkpt lat="40.420833" lon="-5.308450">
        <ele>2113.0</ele>
        <time>2018-07-29T11:30:01Z</time>
      </trkpt>
      <trkpt lat="40.420800" lon="-5.308550">
        <ele>2113.0</ele>
        <time>2018-07-29T11:30:02Z</time>
      </trkpt>
      <trkpt lat="40.420800" lon="-5.308667">
        <ele>2113.0</ele>
        <time>2018-07-29T11:30:03Z</time>
      </trkpt>
      <trkpt lat="40.420783" lon="-5.308767">
        <ele>2115.0</ele>
        <time>2018-07-29T11:30:04Z</time>
      </trkpt>
      <trkpt lat="40.420800" lon="-5.308867">
        <ele>2118.0</ele>
        <time>2018-07-29T11:30:05Z</time>
      </trkpt>
      <trkpt lat="40.420833" lon="-5.308933">
        <ele>2120.0</ele>
        <time>2018-07-29T11:30:06Z</time>
      </trkpt>
      <trkpt lat="40.420867" lon="-5.309000">
        <ele>2121.0</ele>
        <time>2018-07-29T11:30:07Z</time>
      </trkpt>
      <trkpt lat="40.420917" lon="-5.309050">
        <ele>2122.0</ele>
        <time>2018-07-29T11:30:08Z</time>
      </trkpt>
      <trkpt lat="40.420967" lon="-5.309083">
        <ele>2123.0</ele>
        <time>2018-07-29T11:30:09Z</time>
      </trkpt>
      <trkpt lat="40.421050" lon="-5.309100">
        <ele>2124.0</ele>
        <time>2018-07-29T11:30:10Z</time>
      </trkpt>
      <trkpt lat="40.421133" lon="-5.309100">
        <ele>2125.0</ele>
        <time>2018-07-29T11:30:11Z</time>
      </trkpt>
      <trkpt lat="40.421200" lon="-5.309067">
        <ele>2128.0</ele>
        <time>2018-07-29T11:30:12Z</time>
      </trkpt>
      <trkpt lat="40.421250" lon="-5.309000">
        <ele>2132.0</ele>
        <time>2018-07-29T11:30:13Z</time>
      </trkpt>
      <trkpt lat="40.421283" lon="-5.308917">
        <ele>2134.0</ele>
        <time>2018-07-29T11:30:14Z</time>
      </trkpt>
      <trkpt lat="40.421300" lon="-5.308817">
        <ele>2135.0</ele>
        <time>2018-07-29T11:30:15Z</time>
      </trkpt>
      <trkpt lat="40.421317" lon="-5.308683">
        <ele>2135.0</ele>
        <time>2018-07-29T11:30:16Z</time>
      </trkpt>
      <trkpt lat="40.421317" lon="-5.308517">
        <ele>2135.0</ele>
        <time>2018-07-29T11:30:17Z</time>
      </trkpt>
      <trkpt lat="40.421300" lon="-5.308350">
        <ele>2135.0</ele>
        <time>2018-07-29T11:30:18Z</time>
      </trkpt>
      <trkpt lat="40.421233" lon="-5.308183">
        <ele>2136.0</ele>
        <time>2018-07-29T11:30:19Z</time>
      </trkpt>
      <trkpt lat="40.421167" lon="-5.308050">
        <ele>2138.0</ele>
        <time>2018-07-29T11:30:20Z</time>
      </trkpt>
      <trkpt lat="40.421050" lon="-5.307933">
        <ele>2140.0</ele>
        <time>2018-07-29T11:30:21Z</time>
      </trkpt>
      <trkpt lat="40.420933" lon="-5.307867">
        <ele>2141.0</ele>
        <time>2018-07-29T11:30:22Z</time>
      </trkpt>
      <trkpt lat="40.420783" lon="-5.307817">
        <ele>2142.0</ele>
        <time>2018-07-29T11:30:23Z</time>
      </trkpt>
      <trkpt lat="40.420650" lon="-5.307800">
        <ele>2142.0</ele>
        <time>2018-07-29T11:30:24Z</time>
      </trkpt>
      <trkpt lat="40.420517" lon="-5.307833">
        <ele>2142.0</ele>
        <time>2018-07-29T11:30:25Z</time>
      </trkpt>
      <trkpt lat="40.420400" lon="-5.307900">
        <ele>2143.0</ele>
        <time>2018-07-29T11:30:26Z</time>
      </trkpt>
      <trkpt lat="40.420317" lon="-5.307983">
        <ele>2144.0</ele>
        <time>2018-07-29T11:30:27Z</time>
      </trkpt>
      <trkpt lat="40.420233" lon="-5.308067">
        <ele>2145.0</ele>
        <time>2018-07-29T11:30:28Z</time>
      </trkpt>
      <trkpt lat="40.420183" lon="-5.308150">
        <ele>2147.0</ele>
        <time>2018-07-29T11:30:29Z</time>
      </trkpt>
      <trkpt lat="40.420150" lon="-5.308250">
        <ele>2148.0</ele>
        <time>2018-07-29T11:30:30Z</time>
      </trkpt>
      <trkpt lat="40.420133" lon="-5.308333">
        <ele>2148.0</ele>
        <time>2018-07-29T11:30:31Z</time>
      </trkpt>
      <trkpt lat="40.420133" lon="-5.308433">
        <ele>2147.0</ele>
        <time>2018-07-29T11:30:32Z</time>
      </trkpt>
      <trkpt lat="40.420167" lon="-5.308517">
        <ele>2146.0</ele>
        <time>2018-07-29T11:30:33Z</time>
      </trkpt>
      <trkpt lat="40.420217" lon="-5.308600">
        <ele>2146.0</ele>
        <time>2018-07-29T11:30:34Z</time>
      </trkpt>
      <trkpt lat="40.420250" lon="-5.308667">
        <ele>2148.0</ele>
        <time>2018-07-29T11:30:35Z</time>
      </trkpt>
      <trkpt lat="40.420300" lon="-5.308733">
        <ele>2150.0</ele>
        <time>2018-07-29T11:30:36Z</time>
      </trkpt>
      <trkpt lat="40.420333" lon="-5.308783">
        <ele>2152.0</ele>
        <time>2018-07-29T11:30:37Z</time>
      </trkpt>
      <trkpt lat="40.420350" lon="-5.308833">
        <ele>2154.0</ele>
        <time>2018-07-29T11:30:38Z</time>
      </trkpt>
      <trkpt lat="40.420383" lon="-5.308883">
        <ele>2155.0</ele>
        <time>2018-07-29T11:30:39Z</time>
      </trkpt>
      <trkpt lat="40.420417" lon="-5.308933">
        <ele>2155.0</ele>
        <time>2018-07-29T11:30:40Z</time>
      </trkpt>
      <trkpt lat="40.420467" lon="-5.308983">
        <ele>2154.0</ele>
        <time>2018-07-29T11:30:41Z</time>
      </trkpt>
      <trkpt lat="40.420500" lon="-5.309050">
        <ele>2154.0</ele>
        <time>2018-07-29T11:30:42Z</time>
      </trkpt>
      <trkpt lat="40.420550" lon="-5.309117">
        <ele>2155.0</ele>
        <time>2018-07-29T11:30:43Z</time>
      </trkpt>
      <trkpt lat="40.420583" lon="-5.309167">
        <ele>2155.0</ele>
        <time>2018-07-29T11:30:44Z</time>
      </trkpt>
      <trkpt lat="40.420633" lon="-5.309200">
        <ele>2155.0</ele>
        <time>2018-07-29T11:30:45Z</time>
      </trkpt>
      <trkpt lat="40.420667" lon="-5.309267">
        <ele>2155.0</ele>
        <time>2018-07-29T11:30:46Z</time>
      </trkpt>
      <trkpt lat="40.420700" lon="-5.309333">
        <ele>2155.0</ele>
        <time>2018-07-29T11:30:47Z</time>
      </trkpt>
      <trkpt lat="40.420717" lon="-5.309400">
        <ele>2153.0</ele>
        <time>2018-07-29T11:30:48Z</time>
      </trkpt>
      <trkpt lat="40.420750" lon="-5.309467">
        <ele>2153.0</ele>
        <time>2018-07-29T11:30:49Z</time>
      </trkpt>
      <trkpt lat="40.420783" lon="-5.309517">
        <ele>2151.0</ele>
        <time>2018-07-29T11:30:50Z</time>
      </trkpt>
      <trkpt lat="40.420817" lon="-5.309550">
        <ele>2149.0</ele>
        <time>2018-07-29T11:30:51Z</time>
      </trkpt>
      <trkpt lat="40.420867" lon="-5.309583">
        <ele>2147.0</ele>
        <time>2018-07-29T11:30:52Z</time>
      </trkpt>
      <trkpt lat="40.420900" lon="-5.309650">
        <ele>2144.0</ele>
        <time>2018-07-29T11:30:53Z</time>
      </trkpt>
      <trkpt lat="40.420950" lon="-5.309700">
        <ele>2142.0</ele>
        <time>2018-07-29T11:30:54Z</time>
      </trkpt>
      <trkpt lat="40.421000" lon="-5.309767">
        <ele>2141.0</ele>
        <time>2018-07-29T11:30:55Z</time>
      </trkpt>
      <trkpt lat="40.421033" lon="-5.309833">
        <ele>2141.0</ele>
        <time>2018-07-29T11:30:56Z</time>
      </trkpt>
      <trkpt lat="40.421067" lon="-5.309900">
        <ele>2142.0</ele>
        <time>2018-07-29T11:30:57Z</time>
      </trkpt>
      <trkpt lat="40.421100" lon="-5.309967">
        <ele>2141.0</ele>
        <time>2018-07-29T11:30:58Z</time>
      </trkpt>
      <trkpt lat="40.421133" lon="-5.310033">
        <ele>2141.0</ele>
        <time>2018-07-29T11:30:59Z</time>
      </trkpt>
      <trkpt lat="40.421167" lon="-5.310100">
        <ele>2140.0</ele>
        <time>2018-07-29T11:31:00Z</time>
      </trkpt>
      <trkpt lat="40.421200" lon="-5.310167">
        <ele>2140.0</ele>
        <time>2018-07-29T11:31:01Z</time>
      </trkpt>
      <trkpt lat="40.421233" lon="-5.310217">
        <ele>2140.0</ele>
        <time>2018-07-29T11:31:02Z</time>
      </trkpt>
      <trkpt lat="40.421267" lon="-5.310283">
        <ele>2141.0</ele>
        <time>2018-07-29T11:31:03Z</time>
      </trkpt>
      <trkpt lat="40.421283" lon="-5.310350">
        <ele>2141.0</ele>
        <time>2018-07-29T11:31:04Z</time>
      </trkpt>
      <trkpt lat="40.421317" lon="-5.310417">
        <ele>2142.0</ele>
        <time>2018-07-29T11:31:05Z</time>
      </trkpt>
      <trkpt lat="40.421333" lon="-5.310500">
        <ele>2142.0</ele>
        <time>2018-07-29T11:31:06Z</time>
      </trkpt>
      <trkpt lat="40.421333" lon="-5.310567">
        <ele>2142.0</ele>
        <time>2018-07-29T11:31:07Z</time>
      </trkpt>
      <trkpt lat="40.421350" lon="-5.310633">
        <ele>2141.0</ele>
        <time>2018-07-29T11:31:08Z</time>
      </trkpt>
      <trkpt lat="40.421383" lon="-5.310717">
        <ele>2140.0</ele>
        <time>2018-07-29T11:31:09Z</time>
      </trkpt>
      <trkpt lat="40.421400" lon="-5.310783">
        <ele>2140.0</ele>
        <time>2018-07-29T11:31:10Z</time>
      </trkpt>
      <trkpt lat="40.421433" lon="-5.310850">
        <ele>2140.0</ele>
        <time>2018-07-29T11:31:11Z</time>
      </trkpt>
      <trkpt lat="40.421450" lon="-5.310933">
        <ele>2141.0</ele>
        <time>2018-07-29T11:31:12Z</time>
      </trkpt>
      <trkpt lat="40.421450" lon="-5.311000">
        <ele>2142.0</ele>
        <time>2018-07-29T11:31:13Z</time>
      </trkpt>
      <trkpt lat="40.421467" lon="-5.311067">
        <ele>2143.0</ele>
        <time>2018-07-29T11:31:14Z</time>
      </trkpt>
      <trkpt lat="40.421467" lon="-5.311150">
        <ele>2143.0</ele>
        <time>2018-07-29T11:31:15Z</time>
      </trkpt>
      <trkpt lat="40.421467" lon="-5.311217">
        <ele>2144.0</ele>
        <time>2018-07-29T11:31:16Z</time>
      </trkpt>
      <trkpt lat="40.421450" lon="-5.311283">
        <ele>2144.0</ele>
        <time>2018-07-29T11:31:17Z</time>
      </trkpt>
      <trkpt lat="40.421450" lon="-5.311367">
        <ele>2144.0</ele>
        <time>2018-07-29T11:31:18Z</time>
      </trkpt>
      <trkpt lat="40.421450" lon="-5.311450">
        <ele>2144.0</ele>
        <time>2018-07-29T11:31:19Z</time>
      </trkpt>
      <trkpt lat="40.421450" lon="-5.311517">
        <ele>2145.0</ele>
        <time>2018-07-29T11:31:20Z</time>
      </trkpt>
      <trkpt lat="40.421450" lon="-5.311583">
        <ele>2146.0</ele>
        <time>2018-07-29T11:31:21Z</time>
      </trkpt>
      <trkpt lat="40.421450" lon="-5.311667">
        <ele>2146.0</ele>
        <time>2018-07-29T11:31:22Z</time>
      </trkpt>
      <trkpt lat="40.421450" lon="-5.311733">
        <ele>2146.0</ele>
        <time>2018-07-29T11:31:23Z</time>
      </trkpt>
      <trkpt lat="40.421433" lon="-5.311833">
        <ele>2146.0</ele>
        <time>2018-07-29T11:31:24Z</time>
      </trkpt>
      <trkpt lat="40.421400" lon="-5.311917">
        <ele>2146.0</ele>
        <time>2018-07-29T11:31:25Z</time>
      </trkpt>
      <trkpt lat="40.421350" lon="-5.312017">
        <ele>2147.0</ele>
        <time>2018-07-29T11:31:26Z</time>
      </trkpt>
      <trkpt lat="40.421317" lon="-5.312133">
        <ele>2147.0</ele>
        <time>2018-07-29T11:31:27Z</time>
      </trkpt>
      <trkpt lat="40.421267" lon="-5.312233">
        <ele>2147.0</ele>
        <time>2018-07-29T11:31:28Z</time>
      </trkpt>
      <trkpt lat="40.421217" lon="-5.312350">
        <ele>2148.0</ele>
        <time>2018-07-29T11:31:29Z</time>
      </trkpt>
      <trkpt lat="40.421150" lon="-5.312467">
        <ele>2150.0</ele>
        <time>2018-07-29T11:31:30Z</time>
      </trkpt>
      <trkpt lat="40.421100" lon="-5.312567">
        <ele>2154.0</ele>
        <time>2018-07-29T11:31:31Z</time>
      </trkpt>
      <trkpt lat="40.421017" lon="-5.312650">
        <ele>2159.0</ele>
        <time>2018-07-29T11:31:32Z</time>
      </trkpt>
      <trkpt lat="40.420917" lon="-5.312717">
        <ele>2163.0</ele>
        <time>2018-07-29T11:31:33Z</time>
      </trkpt>
      <trkpt lat="40.420817" lon="-5.312750">
        <ele>2167.0</ele>
        <time>2018-07-29T11:31:34Z</time>
      </trkpt>
      <trkpt lat="40.420683" lon="-5.312767">
        <ele>2170.0</ele>
        <time>2018-07-29T11:31:35Z</time>
      </trkpt>
      <trkpt lat="40.420567" lon="-5.312717">
        <ele>2173.0</ele>
        <time>2018-07-29T11:31:36Z</time>
      </trkpt>
      <trkpt lat="40.420450" lon="-5.312650">
        <ele>2175.0</ele>
        <time>2018-07-29T11:31:37Z</time>
      </trkpt>
      <trkpt lat="40.420350" lon="-5.312533">
        <ele>2178.0</ele>
        <time>2018-07-29T11:31:38Z</time>
      </trkpt>
      <trkpt lat="40.420283" lon="-5.312417">
        <ele>2181.0</ele>
        <time>2018-07-29T11:31:39Z</time>
      </trkpt>
      <trkpt lat="40.420250" lon="-5.312283">
        <ele>2183.0</ele>
        <time>2018-07-29T11:31:40Z</time>
      </trkpt>
      <trkpt lat="40.420250" lon="-5.312167">
        <ele>2185.0</ele>
        <time>2018-07-29T11:31:41Z</time>
      </trkpt>
      <trkpt lat="40.420300" lon="-5.312083">
        <ele>2187.0</ele>
        <time>2018-07-29T11:31:42Z</time>
      </trkpt>
      <trkpt lat="40.420350" lon="-5.312017">
        <ele>2190.0</ele>
        <time>2018-07-29T11:31:43Z</time>
      </trkpt>
      <trkpt lat="40.420417" lon="-5.312000">
        <ele>2193.0</ele>
        <time>2018-07-29T11:31:44Z</time>
      </trkpt>
      <trkpt lat="40.420467" lon="-5.312000">
        <ele>2195.0</ele>
        <time>2018-07-29T11:31:45Z</time>
      </trkpt>
      <trkpt lat="40.420517" lon="-5.312033">
        <ele>2197.0</ele>
        <time>2018-07-29T11:31:46Z</time>
      </trkpt>
      <trkpt lat="40.420567" lon="-5.312067">
        <ele>2198.0</ele>
        <time>2018-07-29T11:31:47Z</time>
      </trkpt>
      <trkpt lat="40.420600" lon="-5.312133">
        <ele>2200.0</ele>
        <time>2018-07-29T11:31:48Z</time>
      </trkpt>
      <trkpt lat="40.420617" lon="-5.312217">
        <ele>2203.0</ele>
        <time>2018-07-29T11:31:49Z</time>
      </trkpt>
      <trkpt lat="40.420617" lon="-5.312300">
        <ele>2206.0</ele>
        <time>2018-07-29T11:31:50Z</time>
      </trkpt>
      <trkpt lat="40.420600" lon="-5.312383">
        <ele>2211.0</ele>
        <time>2018-07-29T11:31:51Z</time>
      </trkpt>
      <trkpt lat="40.420567" lon="-5.312450">
        <ele>2214.0</ele>
        <time>2018-07-29T11:31:52Z</time>
      </trkpt>
      <trkpt lat="40.420500" lon="-5.312533">
        <ele>2217.0</ele>
        <time>2018-07-29T11:31:53Z</time>
      </trkpt>
      <trkpt lat="40.420433" lon="-5.312600">
        <ele>2218.0</ele>
        <time>2018-07-29T11:31:54Z</time>
      </trkpt>
      <trkpt lat="40.420350" lon="-5.312650">
        <ele>2218.0</ele>
        <time>2018-07-29T11:31:55Z</time>
      </trkpt>
      <trkpt lat="40.420233" lon="-5.312700">
        <ele>2218.0</ele>
        <time>2018-07-29T11:31:56Z</time>
      </trkpt>
      <trkpt lat="40.420100" lon="-5.312733">
        <ele>2218.0</ele>
        <time>2018-07-29T11:31:57Z</time>
      </trkpt>
      <trkpt lat="40.419950" lon="-5.312750">
        <ele>2218.0</ele>
        <time>2018-07-29T11:31:58Z</time>
      </trkpt>
      <trkpt lat="40.419800" lon="-5.312700">
        <ele>2220.0</ele>
        <time>2018-07-29T11:31:59Z</time>
      </trkpt>
      <trkpt lat="40.419667" lon="-5.312617">
        <ele>2222.0</ele>
        <time>2018-07-29T11:32:00Z</time>
      </trkpt>
      <trkpt lat="40.419550" lon="-5.312500">
        <ele>2225.0</ele>
        <time>2018-07-29T11:32:01Z</time>
      </trkpt>
      <trkpt lat="40.419483" lon="-5.312350">
        <ele>2227.0</ele>
        <time>2018-07-29T11:32:02Z</time>
      </trkpt>
      <trkpt lat="40.419433" lon="-5.312217">
        <ele>2230.0</ele>
        <time>2018-07-29T11:32:03Z</time>
      </trkpt>
      <trkpt lat="40.419417" lon="-5.312083">
        <ele>2232.0</ele>
        <time>2018-07-29T11:32:04Z</time>
      </trkpt>
      <trkpt lat="40.419400" lon="-5.311967">
        <ele>2235.0</ele>
        <time>2018-07-29T11:32:05Z</time>
      </trkpt>
      <trkpt lat="40.419400" lon="-5.311850">
        <ele>2236.0</ele>
        <time>2018-07-29T11:32:06Z</time>
      </trkpt>
      <trkpt lat="40.419433" lon="-5.311733">
        <ele>2238.0</ele>
        <time>2018-07-29T11:32:07Z</time>
      </trkpt>
      <trkpt lat="40.419483" lon="-5.311633">
        <ele>2239.0</ele>
        <time>2018-07-29T11:32:08Z</time>
      </trkpt>
      <trkpt lat="40.419550" lon="-5.311583">
        <ele>2242.0</ele>
        <time>2018-07-29T11:32:09Z</time>
      </trkpt>
      <trkpt lat="40.419617" lon="-5.311550">
        <ele>2245.0</ele>
        <time>2018-07-29T11:32:10Z</time>
      </trkpt>
      <trkpt lat="40.419683" lon="-5.311533">
        <ele>2249.0</ele>
        <time>2018-07-29T11:32:11Z</time>
      </trkpt>
      <trkpt lat="40.419733" lon="-5.311550">
        <ele>2251.0</ele>
        <time>2018-07-29T11:32:12Z</time>
      </trkpt>
      <trkpt lat="40.419783" lon="-5.311567">
        <ele>2253.0</ele>
        <time>2018-07-29T11:32:13Z</time>
      </trkpt>
      <trkpt lat="40.419817" lon="-5.311633">
        <ele>2254.0</ele>
        <time>2018-07-29T11:32:14Z</time>
      </trkpt>
      <trkpt lat="40.419833" lon="-5.311700">
        <ele>2255.0</ele>
        <time>2018-07-29T11:32:15Z</time>
      </trkpt>
      <trkpt lat="40.419850" lon="-5.311783">
        <ele>2256.0</ele>
        <time>2018-07-29T11:32:16Z</time>
      </trkpt>
      <trkpt lat="40.419833" lon="-5.311883">
        <ele>2258.0</ele>
        <time>2018-07-29T11:32:17Z</time>
      </trkpt>
      <trkpt lat="40.419817" lon="-5.311983">
        <ele>2260.0</ele>
        <time>2018-07-29T11:32:18Z</time>
      </trkpt>
      <trkpt lat="40.419783" lon="-5.312083">
        <ele>2262.0</ele>
        <time>2018-07-29T11:32:19Z</time>
      </trkpt>
      <trkpt lat="40.419733" lon="-5.312183">
        <ele>2264.0</ele>
        <time>2018-07-29T11:32:20Z</time>
      </trkpt>
      <trkpt lat="40.419650" lon="-5.312267">
        <ele>2266.0</ele>
        <time>2018-07-29T11:32:21Z</time>
      </trkpt>
      <trkpt lat="40.419533" lon="-5.312333">
        <ele>2267.0</ele>
        <time>2018-07-29T11:32:22Z</time>
      </trkpt>
      <trkpt lat="40.419400" lon="-5.312367">
        <ele>2267.0</ele>
        <time>2018-07-29T11:32:23Z</time>
      </trkpt>
      <trkpt lat="40.419250" lon="-5.312367">
        <ele>2267.0</ele>
        <time>2018-07-29T11:32:24Z</time>
      </trkpt>
      <trkpt lat="40.419100" lon="-5.312333">
        <ele>2267.0</ele>
        <time>2018-07-29T11:32:25Z</time>
      </trkpt>
      <trkpt lat="40.418933" lon="-5.312267">
        <ele>2268.0</ele>
        <time>2018-07-29T11:32:26Z</time>
      </trkpt>
      <trkpt lat="40.418800" lon="-5.312167">
        <ele>2270.0</ele>
        <time>2018-07-29T11:32:27Z</time>
      </trkpt>
      <trkpt lat="40.418700" lon="-5.312033">
        <ele>2274.0</ele>
        <time>2018-07-29T11:32:28Z</time>
      </trkpt>
      <trkpt lat="40.418650" lon="-5.311900">
        <ele>2277.0</ele>
        <time>2018-07-29T11:32:29Z</time>
      </trkpt>
      <trkpt lat="40.418617" lon="-5.311767">
        <ele>2279.0</ele>
        <time>2018-07-29T11:32:30Z</time>
      </trkpt>
      <trkpt lat="40.418617" lon="-5.311650">
        <ele>2281.0</ele>
        <time>2018-07-29T11:32:31Z</time>
      </trkpt>
      <trkpt lat="40.418617" lon="-5.311533">
        <ele>2282.0</ele>
        <time>2018-07-29T11:32:32Z</time>
      </trkpt>
      <trkpt lat="40.418617" lon="-5.311400">
        <ele>2282.0</ele>
        <time>2018-07-29T11:32:33Z</time>
      </trkpt>
      <trkpt lat="40.418650" lon="-5.311283">
        <ele>2283.0</ele>
        <time>2018-07-29T11:32:34Z</time>
      </trkpt>
      <trkpt lat="40.418700" lon="-5.311167">
        <ele>2284.0</ele>
        <time>2018-07-29T11:32:35Z</time>
      </trkpt>
      <trkpt lat="40.418767" lon="-5.311083">
        <ele>2286.0</ele>
        <time>2018-07-29T11:32:36Z</time>
      </trkpt>
      <trkpt lat="40.418817" lon="-5.311017">
        <ele>2289.0</ele>
        <time>2018-07-29T11:32:37Z</time>
      </trkpt>
      <trkpt lat="40.418867" lon="-5.310950">
        <ele>2293.0</ele>
        <time>2018-07-29T11:32:38Z</time>
      </trkpt>
      <trkpt lat="40.418900" lon="-5.310900">
        <ele>2295.0</ele>
        <time>2018-07-29T11:32:39Z</time>
      </trkpt>
      <trkpt lat="40.418950" lon="-5.310867">
        <ele>2296.0</ele>
        <time>2018-07-29T11:32:40Z</time>
      </trkpt>
      <trkpt lat="40.419017" lon="-5.310867">
        <ele>2298.0</ele>
        <time>2018-07-29T11:32:41Z</time>
      </trkpt>
      <trkpt lat="40.419067" lon="-5.310867">
        <ele>2299.0</ele>
        <time>2018-07-29T11:32:42Z</time>
      </trkpt>
      <trkpt lat="40.419117" lon="-5.310900">
        <ele>2300.0</ele>
        <time>2018-07-29T11:32:43Z</time>
      </trkpt>
      <trkpt lat="40.419167" lon="-5.310917">
        <ele>2302.0</ele>
        <time>2018-07-29T11:32:44Z</time>
      </trkpt>
      <trkpt lat="40.419200" lon="-5.310950">
        <ele>2303.0</ele>
        <time>2018-07-29T11:32:45Z</time>
      </trkpt>
      <trkpt lat="40.419250" lon="-5.311000">
        <ele>2305.0</ele>
        <time>2018-07-29T11:32:46Z</time>
      </trkpt>
      <trkpt lat="40.419283" lon="-5.311050">
        <ele>2306.0</ele>
        <time>2018-07-29T11:32:47Z</time>
      </trkpt>
      <trkpt lat="40.419317" lon="-5.311133">
        <ele>2306.0</ele>
        <time>2018-07-29T11:32:48Z</time>
      </trkpt>
      <trkpt lat="40.419333" lon="-5.311233">
        <ele>2308.0</ele>
        <time>2018-07-29T11:32:49Z</time>
      </trkpt>
      <trkpt lat="40.419367" lon="-5.311317">
        <ele>2311.0</ele>
        <time>2018-07-29T11:32:50Z</time>
      </trkpt>
      <trkpt lat="40.419383" lon="-5.311383">
        <ele>2314.0</ele>
        <time>2018-07-29T11:32:51Z</time>
      </trkpt>
      <trkpt lat="40.419417" lon="-5.311433">
        <ele>2317.0</ele>
        <time>2018-07-29T11:32:52Z</time>
      </trkpt>
      <trkpt lat="40.419433" lon="-5.311467">
        <ele>2319.0</ele>
        <time>2018-07-29T11:32:53Z</time>
      </trkpt>
      <trkpt lat="40.419450" lon="-5.311500">
        <ele>2320.0</ele>
        <time>2018-07-29T11:32:54Z</time>
      </trkpt>
      <trkpt lat="40.419450" lon="-5.311567">
        <ele>2320.0</ele>
        <time>2018-07-29T11:32:55Z</time>
      </trkpt>
      <trkpt lat="40.419467" lon="-5.311650">
        <ele>2319.0</ele>
        <time>2018-07-29T11:32:56Z</time>
      </trkpt>
      <trkpt lat="40.419467" lon="-5.311750">
        <ele>2319.0</ele>
        <time>2018-07-29T11:32:57Z</time>
      </trkpt>
      <trkpt lat="40.419500" lon="-5.311833">
        <ele>2320.0</ele>
        <time>2018-07-29T11:32:58Z</time>
      </trkpt>
      <trkpt lat="40.419517" lon="-5.311917">
        <ele>2323.0</ele>
        <time>2018-07-29T11:32:59Z</time>
      </trkpt>
      <trkpt lat="40.419550" lon="-5.311967">
        <ele>2325.0</ele>
        <time>2018-07-29T11:33:00Z</time>
      </trkpt>
      <trkpt lat="40.419567" lon="-5.312017">
        <ele>2326.0</ele>
        <time>2018-07-29T11:33:01Z</time>
      </trkpt>
      <trkpt lat="40.419600" lon="-5.312083">
        <ele>2326.0</ele>
        <time>2018-07-29T11:33:02Z</time>
      </trkpt>
      <trkpt lat="40.419650" lon="-5.312150">
        <ele>2324.0</ele>
        <time>2018-07-29T11:33:03Z</time>
      </trkpt>
      <trkpt lat="40.419700" lon="-5.312217">
        <ele>2323.0</ele>
        <time>2018-07-29T11:33:04Z</time>
      </trkpt>
      <trkpt lat="40.419767" lon="-5.312283">
        <ele>2323.0</ele>
        <time>2018-07-29T11:33:05Z</time>
      </trkpt>
      <trkpt lat="40.419817" lon="-5.312333">
        <ele>2323.0</ele>
        <time>2018-07-29T11:33:06Z</time>
      </trkpt>
      <trkpt lat="40.419867" lon="-5.312383">
        <ele>2323.0</ele>
        <time>2018-07-29T11:33:07Z</time>
      </trkpt>
      <trkpt lat="40.419933" lon="-5.312433">
        <ele>2321.0</ele>
        <time>2018-07-29T11:33:08Z</time>
      </trkpt>
      <trkpt lat="40.419983" lon="-5.312500">
        <ele>2320.0</ele>
        <time>2018-07-29T11:33:09Z</time>
      </trkpt>
      <trkpt lat="40.420050" lon="-5.312567">
        <ele>2318.0</ele>
        <time>2018-07-29T11:33:10Z</time>
      </trkpt>
      <trkpt lat="40.420117" lon="-5.312633">
        <ele>2317.0</ele>
        <time>2018-07-29T11:33:11Z</time>
      </trkpt>
      <trkpt lat="40.420167" lon="-5.312700">
        <ele>2316.0</ele>
        <time>2018-07-29T11:33:12Z</time>
      </trkpt>
      <trkpt lat="40.420233" lon="-5.312783">
        <ele>2317.0</ele>
        <time>2018-07-29T11:33:13Z</time>
      </trkpt>
      <trkpt lat="40.420283" lon="-5.312850">
        <ele>2316.0</ele>
        <time>2018-07-29T11:33:14Z</time>
      </trkpt>
      <trkpt lat="40.420333" lon="-5.312933">
        <ele>2315.0</ele>
        <time>2018-07-29T11:33:15Z</time>
      </trkpt>
      <trkpt lat="40.420400" lon="-5.313017">
        <ele>2313.0</ele>
        <time>2018-07-29T11:33:16Z</time>
      </trkpt>
      <trkpt lat="40.420483" lon="-5.313083">
        <ele>2311.0</ele>
        <time>2018-07-29T11:33:17Z</time>
      </trkpt>
      <trkpt lat="40.420567" lon="-5.313150">
        <ele>2311.0</ele>
        <time>2018-07-29T11:33:18Z</time>
      </trkpt>
      <trkpt lat="40.420667" lon="-5.313200">
        <ele>2311.0</ele>
        <time>2018-07-29T11:33:19Z</time>
      </trkpt>
      <trkpt lat="40.420733" lon="-5.313250">
        <ele>2312.0</ele>
        <time>2018-07-29T11:33:20Z</time>
      </trkpt>
      <trkpt lat="40.420800" lon="-5.313283">
        <ele>2312.0</ele>
        <time>2018-07-29T11:33:21Z</time>
      </trkpt>
      <trkpt lat="40.420867" lon="-5.313333">
        <ele>2310.0</ele>
        <time>2018-07-29T11:33:22Z</time>
      </trkpt>
      <trkpt lat="40.420917" lon="-5.313367">
        <ele>2308.0</ele>
        <time>2018-07-29T11:33:23Z</time>
      </trkpt>
      <trkpt lat="40.420967" lon="-5.313400">
        <ele>2305.0</ele>
        <time>2018-07-29T11:33:24Z</time>
      </trkpt>
      <trkpt lat="40.421033" lon="-5.313450">
        <ele>2302.0</ele>
        <time>2018-07-29T11:33:25Z</time>
      </trkpt>
      <trkpt lat="40.421117" lon="-5.313500">
        <ele>2299.0</ele>
        <time>2018-07-29T11:33:26Z</time>
      </trkpt>
      <trkpt lat="40.421200" lon="-5.313550">
        <ele>2296.0</ele>
        <time>2018-07-29T11:33:27Z</time>
      </trkpt>
      <trkpt lat="40.421283" lon="-5.313617">
        <ele>2295.0</ele>
        <time>2018-07-29T11:33:28Z</time>
      </trkpt>
      <trkpt lat="40.421367" lon="-5.313650">
        <ele>2293.0</ele>
        <time>2018-07-29T11:33:29Z</time>
      </trkpt>
      <trkpt lat="40.421450" lon="-5.313683">
        <ele>2292.0</ele>
        <time>2018-07-29T11:33:30Z</time>
      </trkpt>
      <trkpt lat="40.421533" lon="-5.313700">
        <ele>2291.0</ele>
        <time>2018-07-29T11:33:31Z</time>
      </trkpt>
      <trkpt lat="40.421600" lon="-5.313733">
        <ele>2291.0</ele>
        <time>2018-07-29T11:33:32Z</time>
      </trkpt>
      <trkpt lat="40.421667" lon="-5.313767">
        <ele>2290.0</ele>
        <time>2018-07-29T11:33:33Z</time>
      </trkpt>
      <trkpt lat="40.421733" lon="-5.313800">
        <ele>2289.0</ele>
        <time>2018-07-29T11:33:34Z</time>
      </trkpt>
      <trkpt lat="40.421783" lon="-5.313850">
        <ele>2288.0</ele>
        <time>2018-07-29T11:33:35Z</time>
      </trkpt>
      <trkpt lat="40.421850" lon="-5.313883">
        <ele>2286.0</ele>
        <time>2018-07-29T11:33:36Z</time>
      </trkpt>
      <trkpt lat="40.421917" lon="-5.313933">
        <ele>2284.0</ele>
        <time>2018-07-29T11:33:37Z</time>
      </trkpt>
      <trkpt lat="40.421983" lon="-5.313983">
        <ele>2283.0</ele>
        <time>2018-07-29T11:33:38Z</time>
      </trkpt>
      <trkpt lat="40.422050" lon="-5.314017">
        <ele>2281.0</ele>
        <time>2018-07-29T11:33:39Z</time>
      </trkpt>
      <trkpt lat="40.422100" lon="-5.314067">
        <ele>2280.0</ele>
        <time>2018-07-29T11:33:40Z</time>
      </trkpt>
      <trkpt lat="40.422167" lon="-5.314133">
        <ele>2278.0</ele>
        <time>2018-07-29T11:33:41Z</time>
      </trkpt>
      <trkpt lat="40.422233" lon="-5.314200">
        <ele>2277.0</ele>
        <time>2018-07-29T11:33:42Z</time>
      </trkpt>
      <trkpt lat="40.422283" lon="-5.314250">
        <ele>2276.0</ele>
        <time>2018-07-29T11:33:43Z</time>
      </trkpt>
      <trkpt lat="40.422350" lon="-5.314300">
        <ele>2275.0</ele>
        <time>2018-07-29T11:33:44Z</time>
      </trkpt>
      <trkpt lat="40.422400" lon="-5.314350">
        <ele>2275.0</ele>
        <time>2018-07-29T11:33:45Z</time>
      </trkpt>
      <trkpt lat="40.422467" lon="-5.314400">
        <ele>2274.0</ele>
        <time>2018-07-29T11:33:46Z</time>
      </trkpt>
      <trkpt lat="40.422517" lon="-5.314450">
        <ele>2274.0</ele>
        <time>2018-07-29T11:33:47Z</time>
      </trkpt>
      <trkpt lat="40.422567" lon="-5.314500">
        <ele>2274.0</ele>
        <time>2018-07-29T11:33:48Z</time>
      </trkpt>
      <trkpt lat="40.422617" lon="-5.314550">
        <ele>2274.0</ele>
        <time>2018-07-29T11:33:49Z</time>
      </trkpt>
      <trkpt lat="40.422650" lon="-5.314583">
        <ele>2274.0</ele>
        <time>2018-07-29T11:33:50Z</time>
      </trkpt>
      <trkpt lat="40.422700" lon="-5.314617">
        <ele>2273.0</ele>
        <time>2018-07-29T11:33:51Z</time>
      </trkpt>
      <trkpt lat="40.422750" lon="-5.314650">
        <ele>2271.0</ele>
        <time>2018-07-29T11:33:52Z</time>
      </trkpt>
      <trkpt lat="40.422817" lon="-5.314700">
        <ele>2269.0</ele>
        <time>2018-07-29T11:33:53Z</time>
      </trkpt>
      <trkpt lat="40.422867" lon="-5.314767">
        <ele>2268.0</ele>
        <time>2018-07-29T11:33:54Z</time>
      </trkpt>
      <trkpt lat="40.422917" lon="-5.314833">
        <ele>2266.0</ele>
        <time>2018-07-29T11:33:55Z</time>
      </trkpt>
      <trkpt lat="40.422983" lon="-5.314883">
        <ele>2265.0</ele>
        <time>2018-07-29T11:33:56Z</time>
      </trkpt>
      <trkpt lat="40.423033" lon="-5.314933">
        <ele>2264.0</ele>
        <time>2018-07-29T11:33:57Z</time>
      </trkpt>
      <trkpt lat="40.423083" lon="-5.314983">
        <ele>2263.0</ele>
        <time>2018-07-29T11:33:58Z</time>
      </trkpt>
      <trkpt lat="40.423133" lon="-5.315033">
        <ele>2261.0</ele>
        <time>2018-07-29T11:33:59Z</time>
      </trkpt>
      <trkpt lat="40.423167" lon="-5.315100">
        <ele>2258.0</ele>
        <time>2018-07-29T11:34:00Z</time>
      </trkpt>
      <trkpt lat="40.423217" lon="-5.315183">
        <ele>2256.0</ele>
        <time>2018-07-29T11:34:01Z</time>
      </trkpt>
      <trkpt lat="40.423267" lon="-5.315250">
        <ele>2255.0</ele>
        <time>2018-07-29T11:34:02Z</time>
      </trkpt>
      <trkpt lat="40.423333" lon="-5.315333">
        <ele>2253.0</ele>
        <time>2018-07-29T11:34:03Z</time>
      </trkpt>
      <trkpt lat="40.423400" lon="-5.315383">
        <ele>2252.0</ele>
        <time>2018-07-29T11:34:04Z</time>
      </trkpt>
      <trkpt lat="40.423467" lon="-5.315433">
        <ele>2251.0</ele>
        <time>2018-07-29T11:34:05Z</time>
      </trkpt>
      <trkpt lat="40.423533" lon="-5.315483">
        <ele>2250.0</ele>
        <time>2018-07-29T11:34:06Z</time>
      </trkpt>
      <trkpt lat="40.423583" lon="-5.315533">
        <ele>2249.0</ele>
        <time>2018-07-29T11:34:07Z</time>
      </trkpt>
      <trkpt lat="40.423650" lon="-5.315600">
        <ele>2248.0</ele>
        <time>2018-07-29T11:34:08Z</time>
      </trkpt>
      <trkpt lat="40.423717" lon="-5.315667">
        <ele>2247.0</ele>
        <time>2018-07-29T11:34:09Z</time>
      </trkpt>
      <trkpt lat="40.423767" lon="-5.315733">
        <ele>2247.0</ele>
        <time>2018-07-29T11:34:10Z</time>
      </trkpt>
      <trkpt lat="40.423817" lon="-5.315800">
        <ele>2246.0</ele>
        <time>2018-07-29T11:34:11Z</time>
      </trkpt>
      <trkpt lat="40.423867" lon="-5.315850">
        <ele>2246.0</ele>
        <time>2018-07-29T11:34:12Z</time>
      </trkpt>
      <trkpt lat="40.423900" lon="-5.315917">
        <ele>2244.0</ele>
        <time>2018-07-29T11:34:13Z</time>
      </trkpt>
      <trkpt lat="40.423950" lon="-5.315983">
        <ele>2242.0</ele>
        <time>2018-07-29T11:34:14Z</time>
      </trkpt>
      <trkpt lat="40.424017" lon="-5.316067">
        <ele>2239.0</ele>
        <time>2018-07-29T11:34:15Z</time>
      </trkpt>
      <trkpt lat="40.424067" lon="-5.316150">
        <ele>2238.0</ele>
        <time>2018-07-29T11:34:16Z</time>
      </trkpt>
      <trkpt lat="40.424133" lon="-5.316233">
        <ele>2237.0</ele>
        <time>2018-07-29T11:34:17Z</time>
      </trkpt>
      <trkpt lat="40.424183" lon="-5.316300">
        <ele>2236.0</ele>
        <time>2018-07-29T11:34:18Z</time>
      </trkpt>
      <trkpt lat="40.424233" lon="-5.316383">
        <ele>2235.0</ele>
        <time>2018-07-29T11:34:19Z</time>
      </trkpt>
      <trkpt lat="40.424283" lon="-5.316450">
        <ele>2234.0</ele>
        <time>2018-07-29T11:34:20Z</time>
      </trkpt>
      <trkpt lat="40.424333" lon="-5.316517">
        <ele>2232.0</ele>
        <time>2018-07-29T11:34:21Z</time>
      </trkpt>
      <trkpt lat="40.424400" lon="-5.316583">
        <ele>2228.0</ele>
        <time>2018-07-29T11:34:22Z</time>
      </trkpt>
      <trkpt lat="40.424483" lon="-5.316667">
        <ele>2225.0</ele>
        <time>2018-07-29T11:34:23Z</time>
      </trkpt>
      <trkpt lat="40.424550" lon="-5.316767">
        <ele>2222.0</ele>
        <time>2018-07-29T11:34:24Z</time>
      </trkpt>
      <trkpt lat="40.424617" lon="-5.316883">
        <ele>2221.0</ele>
        <time>2018-07-29T11:34:25Z</time>
      </trkpt>
      <trkpt lat="40.424683" lon="-5.317000">
        <ele>2221.0</ele>
        <time>2018-07-29T11:34:26Z</time>
      </trkpt>
      <trkpt lat="40.424733" lon="-5.317100">
        <ele>2222.0</ele>
        <time>2018-07-29T11:34:27Z</time>
      </trkpt>
      <trkpt lat="40.424800" lon="-5.317183">
        <ele>2224.0</ele>
        <time>2018-07-29T11:34:28Z</time>
      </trkpt>
      <trkpt lat="40.424850" lon="-5.317250">
        <ele>2225.0</ele>
        <time>2018-07-29T11:34:29Z</time>
      </trkpt>
      <trkpt lat="40.424883" lon="-5.317333">
        <ele>2225.0</ele>
        <time>2018-07-29T11:34:30Z</time>
      </trkpt>
      <trkpt lat="40.424933" lon="-5.317433">
        <ele>2224.0</ele>
        <time>2018-07-29T11:34:31Z</time>
      </trkpt>
      <trkpt lat="40.424983" lon="-5.317533">
        <ele>2223.0</ele>
        <time>2018-07-29T11:34:32Z</time>
      </trkpt>
      <trkpt lat="40.425033" lon="-5.317617">
        <ele>2224.0</ele>
        <time>2018-07-29T11:34:33Z</time>
      </trkpt>
      <trkpt lat="40.425067" lon="-5.317717">
        <ele>2225.0</ele>
        <time>2018-07-29T11:34:34Z</time>
      </trkpt>
      <trkpt lat="40.425117" lon="-5.317783">
        <ele>2227.0</ele>
        <time>2018-07-29T11:34:35Z</time>
      </trkpt>
      <trkpt lat="40.425167" lon="-5.317867">
        <ele>2228.0</ele>
        <time>2018-07-29T11:34:36Z</time>
      </trkpt>
      <trkpt lat="40.425200" lon="-5.317933">
        <ele>2229.0</ele>
        <time>2018-07-29T11:34:37Z</time>
      </trkpt>
      <trkpt lat="40.425233" lon="-5.318000">
        <ele>2229.0</ele>
        <time>2018-07-29T11:34:38Z</time>
      </trkpt>
      <trkpt lat="40.425267" lon="-5.318083">
        <ele>2229.0</ele>
        <time>2018-07-29T11:34:39Z</time>
      </trkpt>
      <trkpt lat="40.425300" lon="-5.318183">
        <ele>2229.0</ele>
        <time>2018-07-29T11:34:40Z</time>
      </trkpt>
      <trkpt lat="40.425333" lon="-5.318267">
        <ele>2229.0</ele>
        <time>2018-07-29T11:34:41Z</time>
      </trkpt>
      <trkpt lat="40.425383" lon="-5.318367">
        <ele>2231.0</ele>
        <time>2018-07-29T11:34:42Z</time>
      </trkpt>
      <trkpt lat="40.425400" lon="-5.318467">
        <ele>2232.0</ele>
        <time>2018-07-29T11:34:43Z</time>
      </trkpt>
      <trkpt lat="40.425433" lon="-5.318550">
        <ele>2233.0</ele>
        <time>2018-07-29T11:34:44Z</time>
      </trkpt>
      <trkpt lat="40.425467" lon="-5.318650">
        <ele>2235.0</ele>
        <time>2018-07-29T11:34:45Z</time>
      </trkpt>
      <trkpt lat="40.425500" lon="-5.318750">
        <ele>2238.0</ele>
        <time>2018-07-29T11:34:46Z</time>
      </trkpt>
      <trkpt lat="40.425533" lon="-5.318833">
        <ele>2242.0</ele>
        <time>2018-07-29T11:34:47Z</time>
      </trkpt>
      <trkpt lat="40.425583" lon="-5.318917">
        <ele>2245.0</ele>
        <time>2018-07-29T11:34:48Z</time>
      </trkpt>
      <trkpt lat="40.425617" lon="-5.319017">
        <ele>2248.0</ele>
        <time>2018-07-29T11:34:49Z</time>
      </trkpt>
      <trkpt lat="40.425650" lon="-5.319100">
        <ele>2251.0</ele>
        <time>2018-07-29T11:34:50Z</time>
      </trkpt>
      <trkpt lat="40.425667" lon="-5.319167">
        <ele>2254.0</ele>
        <time>2018-07-29T11:34:51Z</time>
      </trkpt>
      <trkpt lat="40.425717" lon="-5.319217">
        <ele>2255.0</ele>
        <time>2018-07-29T11:34:52Z</time>
      </trkpt>
      <trkpt lat="40.425767" lon="-5.319233">
        <ele>2256.0</ele>
        <time>2018-07-29T11:34:53Z</time>
      </trkpt>
      <trkpt lat="40.425833" lon="-5.319200">
        <ele>2256.0</ele>
        <time>2018-07-29T11:34:54Z</time>
      </trkpt>
      <trkpt lat="40.425883" lon="-5.319117">
        <ele>2256.0</ele>
        <time>2018-07-29T11:34:55Z</time>
      </trkpt>
      <trkpt lat="40.425933" lon="-5.319000">
        <ele>2257.0</ele>
        <time>2018-07-29T11:34:56Z</time>
      </trkpt>
      <trkpt lat="40.425933" lon="-5.318883">
        <ele>2258.0</ele>
        <time>2018-07-29T11:34:57Z</time>
      </trkpt>
      <trkpt lat="40.425900" lon="-5.318733">
        <ele>2260.0</ele>
        <time>2018-07-29T11:34:58Z</time>
      </trkpt>
      <trkpt lat="40.425833" lon="-5.318600">
        <ele>2261.0</ele>
        <time>2018-07-29T11:34:59Z</time>
      </trkpt>
      <trkpt lat="40.425750" lon="-5.318500">
        <ele>2263.0</ele>
        <time>2018-07-29T11:35:00Z</time>
      </trkpt>
      <trkpt lat="40.425633" lon="-5.318417">
        <ele>2264.0</ele>
        <time>2018-07-29T11:35:01Z</time>
      </trkpt>
      <trkpt lat="40.425500" lon="-5.318383">
        <ele>2267.0</ele>
        <time>2018-07-29T11:35:02Z</time>
      </trkpt>
      <trkpt lat="40.425350" lon="-5.318367">
        <ele>2270.0</ele>
        <time>2018-07-29T11:35:03Z</time>
      </trkpt>
      <trkpt lat="40.425233" lon="-5.318383">
        <ele>2274.0</ele>
        <time>2018-07-29T11:35:04Z</time>
      </trkpt>
      <trkpt lat="40.425133" lon="-5.318417">
        <ele>2278.0</ele>
        <time>2018-07-29T11:35:05Z</time>
      </trkpt>
      <trkpt lat="40.425050" lon="-5.318467">
        <ele>2281.0</ele>
        <time>2018-07-29T11:35:06Z</time>
      </trkpt>
      <trkpt lat="40.424967" lon="-5.318533">
        <ele>2283.0</ele>
        <time>2018-07-29T11:35:07Z</time>
      </trkpt>
      <trkpt lat="40.424900" lon="-5.318617">
        <ele>2285.0</ele>
        <time>2018-07-29T11:35:08Z</time>
      </trkpt>
      <trkpt lat="40.424833" lon="-5.318717">
        <ele>2287.0</ele>
        <time>2018-07-29T11:35:09Z</time>
      </trkpt>
      <trkpt lat="40.424800" lon="-5.318817">
        <ele>2291.0</ele>
        <time>2018-07-29T11:35:10Z</time>
      </trkpt>
      <trkpt lat="40.424800" lon="-5.318917">
        <ele>2294.0</ele>
        <time>2018-07-29T11:35:11Z</time>
      </trkpt>
      <trkpt lat="40.424833" lon="-5.319000">
        <ele>2297.0</ele>
        <time>2018-07-29T11:35:12Z</time>
      </trkpt>
      <trkpt lat="40.424867" lon="-5.319067">
        <ele>2300.0</ele>
        <time>2018-07-29T11:35:13Z</time>
      </trkpt>
      <trkpt lat="40.424933" lon="-5.319100">
        <ele>2303.0</ele>
        <time>2018-07-29T11:35:14Z</time>
      </trkpt>
      <trkpt lat="40.425000" lon="-5.319100">
        <ele>2304.0</ele>
        <time>2018-07-29T11:35:15Z</time>
      </trkpt>
      <trkpt lat="40.425067" lon="-5.319067">
        <ele>2305.0</ele>
        <time>2018-07-29T11:35:16Z</time>
      </trkpt>
      <trkpt lat="40.425133" lon="-5.319000">
        <ele>2306.0</ele>
        <time>2018-07-29T11:35:17Z</time>
      </trkpt>
      <trkpt lat="40.425200" lon="-5.318917">
        <ele>2307.0</ele>
        <time>2018-07-29T11:35:18Z</time>
      </trkpt>
      <trkpt lat="40.425250" lon="-5.318800">
        <ele>2309.0</ele>
        <time>2018-07-29T11:35:19Z</time>
      </trkpt>
      <trkpt lat="40.425250" lon="-5.318667">
        <ele>2311.0</ele>
        <time>2018-07-29T11:35:20Z</time>
      </trkpt>
      <trkpt lat="40.425233" lon="-5.318517">
        <ele>2312.0</ele>
        <time>2018-07-29T11:35:21Z</time>
      </trkpt>
      <trkpt lat="40.425183" lon="-5.318383">
        <ele>2313.0</ele>
        <time>2018-07-29T11:35:22Z</time>
      </trkpt>
      <trkpt lat="40.425117" lon="-5.318233">
        <ele>2315.0</ele>
        <time>2018-07-29T11:35:23Z</time>
      </trkpt>
      <trkpt lat="40.425050" lon="-5.318117">
        <ele>2318.0</ele>
        <time>2018-07-29T11:35:24Z</time>
      </trkpt>
      <trkpt lat="40.424950" lon="-5.318000">
        <ele>2321.0</ele>
        <time>2018-07-29T11:35:25Z</time>
      </trkpt>
      <trkpt lat="40.424867" lon="-5.317933">
        <ele>2324.0</ele>
        <time>2018-07-29T11:35:26Z</time>
      </trkpt>
      <trkpt lat="40.424750" lon="-5.317883">
        <ele>2326.0</ele>
        <time>2018-07-29T11:35:27Z</time>
      </trkpt>
      <trkpt lat="40.424633" lon="-5.317867">
        <ele>2328.0</ele>
        <time>2018-07-29T11:35:28Z</time>
      </trkpt>
      <trkpt lat="40.424517" lon="-5.317900">
        <ele>2329.0</ele>
        <time>2018-07-29T11:35:29Z</time>
      </trkpt>
      <trkpt lat="40.424400" lon="-5.317967">
        <ele>2331.0</ele>
        <time>2018-07-29T11:35:30Z</time>
      </trkpt>
      <trkpt lat="40.424300" lon="-5.318050">
        <ele>2334.0</ele>
        <time>2018-07-29T11:35:31Z</time>
      </trkpt>
      <trkpt lat="40.424217" lon="-5.318133">
        <ele>2338.0</ele>
        <time>2018-07-29T11:35:32Z</time>
      </trkpt>
      <trkpt lat="40.424167" lon="-5.318233">
        <ele>2342.0</ele>
        <time>2018-07-29T11:35:33Z</time>
      </trkpt>
      <trkpt lat="40.424133" lon="-5.318317">
        <ele>2344.0</ele>
        <time>2018-07-29T11:35:34Z</time>
      </trkpt>
      <trkpt lat="40.424133" lon="-5.318400">
        <ele>2346.0</ele>
        <time>2018-07-29T11:35:35Z</time>
      </trkpt>
      <trkpt lat="40.424133" lon="-5.318500">
        <ele>2347.0</ele>
        <time>2018-07-29T11:35:36Z</time>
      </trkpt>
      <trkpt lat="40.424167" lon="-5.318583">
        <ele>2349.0</ele>
        <time>2018-07-29T11:35:37Z</time>
      </trkpt>
      <trkpt lat="40.424217" lon="-5.318650">
        <ele>2350.0</ele>
        <time>2018-07-29T11:35:38Z</time>
      </trkpt>
      <trkpt lat="40.424300" lon="-5.318700">
        <ele>2353.0</ele>
        <time>2018-07-29T11:35:39Z</time>
      </trkpt>
      <trkpt lat="40.424367" lon="-5.318717">
        <ele>2356.0</ele>
        <time>2018-07-29T11:35:40Z</time>
      </trkpt>
      <trkpt lat="40.424450" lon="-5.318700">
        <ele>2358.0</ele>
        <time>2018-07-29T11:35:41Z</time>
      </trkpt>
      <trkpt lat="40.424517" lon="-5.318650">
        <ele>2360.0</ele>
        <time>2018-07-29T11:35:42Z</time>
      </trkpt>
      <trkpt lat="40.424567" lon="-5.318567">
        <ele>2361.0</ele>
        <time>2018-07-29T11:35:43Z</time>
      </trkpt>
      <trkpt lat="40.424617" lon="-5.318467">
        <ele>2361.0</ele>
        <time>2018-07-29T11:35:44Z</time>
      </trkpt>
      <trkpt lat="40.424667" lon="-5.318333">
        <ele>2361.0</ele>
        <time>2018-07-29T11:35:45Z</time>
      </trkpt>
      <trkpt lat="40.424683" lon="-5.318200">
        <ele>2362.0</ele>
        <time>2018-07-29T11:35:46Z</time>
      </trkpt>
      <trkpt lat="40.424683" lon="-5.318050">
        <ele>2364.0</ele>
        <time>2018-07-29T11:35:47Z</time>
      </trkpt>
      <trkpt lat="40.424650" lon="-5.317883">
        <ele>2365.0</ele>
        <time>2018-07-29T11:35:48Z</time>
      </trkpt>
      <trkpt lat="40.424600" lon="-5.317733">
        <ele>2367.0</ele>
        <time>2018-07-29T11:35:49Z</time>
      </trkpt>
      <trkpt lat="40.424533" lon="-5.317617">
        <ele>2370.0</ele>
        <time>2018-07-29T11:35:50Z</time>
      </trkpt>
      <trkpt lat="40.424433" lon="-5.317517">
        <ele>2372.0</ele>
        <time>2018-07-29T11:35:51Z</time>
      </trkpt>
      <trkpt lat="40.424317" lon="-5.317450">
        <ele>2375.0</ele>
        <time>2018-07-29T11:35:52Z</time>
      </trkpt>
      <trkpt lat="40.424217" lon="-5.317417">
        <ele>2377.0</ele>
        <time>2018-07-29T11:35:53Z</time>
      </trkpt>
      <trkpt lat="40.424100" lon="-5.317417">
        <ele>2379.0</ele>
        <time>2018-07-29T11:35:54Z</time>
      </trkpt>
      <trkpt lat="40.423983" lon="-5.317467">
        <ele>2381.0</ele>
        <time>2018-07-29T11:35:55Z</time>
      </trkpt>
      <trkpt lat="40.423900" lon="-5.317533">
        <ele>2382.0</ele>
        <time>2018-07-29T11:35:56Z</time>
      </trkpt>
      <trkpt lat="40.423817" lon="-5.317633">
        <ele>2385.0</ele>
        <time>2018-07-29T11:35:57Z</time>
      </trkpt>
      <trkpt lat="40.423783" lon="-5.317733">
        <ele>2387.0</ele>
        <time>2018-07-29T11:35:58Z</time>
      </trkpt>
      <trkpt lat="40.423767" lon="-5.317850">
        <ele>2389.0</ele>
        <time>2018-07-29T11:35:59Z</time>
      </trkpt>
      <trkpt lat="40.423767" lon="-5.317950">
        <ele>2392.0</ele>
        <time>2018-07-29T11:36:00Z</time>
      </trkpt>
      <trkpt lat="40.423767" lon="-5.318033">
        <ele>2394.0</ele>
        <time>2018-07-29T11:36:01Z</time>
      </trkpt>
      <trkpt lat="40.423783" lon="-5.318117">
        <ele>2396.0</ele>
        <time>2018-07-29T11:36:02Z</time>
      </trkpt>
      <trkpt lat="40.423833" lon="-5.318183">
        <ele>2397.0</ele>
        <time>2018-07-29T11:36:03Z</time>
      </trkpt>
      <trkpt lat="40.423900" lon="-5.318250">
        <ele>2397.0</ele>
        <time>2018-07-29T11:36:04Z</time>
      </trkpt>
      <trkpt lat="40.423983" lon="-5.318300">
        <ele>2398.0</ele>
        <time>2018-07-29T11:36:05Z</time>
      </trkpt>
      <trkpt lat="40.424067" lon="-5.318300">
        <ele>2400.0</ele>
        <time>2018-07-29T11:36:06Z</time>
      </trkpt>
      <trkpt lat="40.424150" lon="-5.318283">
        <ele>2402.0</ele>
        <time>2018-07-29T11:36:07Z</time>
      </trkpt>
      <trkpt lat="40.424217" lon="-5.318233">
        <ele>2402.0</ele>
        <time>2018-07-29T11:36:08Z</time>
      </trkpt>
      <trkpt lat="40.424283" lon="-5.318150">
        <ele>2402.0</ele>
        <time>2018-07-29T11:36:09Z</time>
      </trkpt>
      <trkpt lat="40.424333" lon="-5.318050">
        <ele>2402.0</ele>
        <time>2018-07-29T11:36:10Z</time>
      </trkpt>
      <trkpt lat="40.424383" lon="-5.317917">
        <ele>2401.0</ele>
        <time>2018-07-29T11:36:11Z</time>
      </trkpt>
      <trkpt lat="40.424400" lon="-5.317767">
        <ele>2401.0</ele>
        <time>2018-07-29T11:36:12Z</time>
      </trkpt>
      <trkpt lat="40.424383" lon="-5.317600">
        <ele>2402.0</ele>
        <time>2018-07-29T11:36:13Z</time>
      </trkpt>
      <trkpt lat="40.424367" lon="-5.317450">
        <ele>2403.0</ele>
        <time>2018-07-29T11:36:14Z</time>
      </trkpt>
      <trkpt lat="40.424317" lon="-5.317300">
        <ele>2405.0</ele>
        <time>2018-07-29T11:36:15Z</time>
      </trkpt>
      <trkpt lat="40.424267" lon="-5.317167">
        <ele>2406.0</ele>
        <time>2018-07-29T11:36:16Z</time>
      </trkpt>
      <trkpt lat="40.424183" lon="-5.317033">
        <ele>2407.0</ele>
        <time>2018-07-29T11:36:17Z</time>
      </trkpt>
      <trkpt lat="40.424100" lon="-5.316933">
        <ele>2407.0</ele>
        <time>2018-07-29T11:36:18Z</time>
      </trkpt>
      <trkpt lat="40.423983" lon="-5.316850">
        <ele>2408.0</ele>
        <time>2018-07-29T11:36:19Z</time>
      </trkpt>
      <trkpt lat="40.423867" lon="-5.316800">
        <ele>2410.0</ele>
        <time>2018-07-29T11:36:20Z</time>
      </trkpt>
      <trkpt lat="40.423750" lon="-5.316783">
        <ele>2412.0</ele>
        <time>2018-07-29T11:36:21Z</time>
      </trkpt>
      <trkpt lat="40.423650" lon="-5.316800">
        <ele>2414.0</ele>
        <time>2018-07-29T11:36:22Z</time>
      </trkpt>
      <trkpt lat="40.423550" lon="-5.316833">
        <ele>2416.0</ele>
        <time>2018-07-29T11:36:23Z</time>
      </trkpt>
      <trkpt lat="40.423450" lon="-5.316883">
        <ele>2418.0</ele>
        <time>2018-07-29T11:36:24Z</time>
      </trkpt>
      <trkpt lat="40.423367" lon="-5.316950">
        <ele>2420.0</ele>
        <time>2018-07-29T11:36:25Z</time>
      </trkpt>
      <trkpt lat="40.423300" lon="-5.317033">
        <ele>2422.0</ele>
        <time>2018-07-29T11:36:26Z</time>
      </trkpt>
      <trkpt lat="40.423250" lon="-5.317133">
        <ele>2424.0</ele>
        <time>2018-07-29T11:36:27Z</time>
      </trkpt>
      <trkpt lat="40.423217" lon="-5.317250">
        <ele>2425.0</ele>
        <time>2018-07-29T11:36:28Z</time>
      </trkpt>
      <trkpt lat="40.423183" lon="-5.317367">
        <ele>2427.0</ele>
        <time>2018-07-29T11:36:29Z</time>
      </trkpt>
      <trkpt lat="40.423200" lon="-5.317483">
        <ele>2430.0</ele>
        <time>2018-07-29T11:36:30Z</time>
      </trkpt>
      <trkpt lat="40.423217" lon="-5.317567">
        <ele>2432.0</ele>
        <time>2018-07-29T11:36:31Z</time>
      </trkpt>
      <trkpt lat="40.423250" lon="-5.317633">
        <ele>2434.0</ele>
        <time>2018-07-29T11:36:32Z</time>
      </trkpt>
      <trkpt lat="40.423300" lon="-5.317700">
        <ele>2434.0</ele>
        <time>2018-07-29T11:36:33Z</time>
      </trkpt>
      <trkpt lat="40.423367" lon="-5.317750">
        <ele>2434.0</ele>
        <time>2018-07-29T11:36:34Z</time>
      </trkpt>
      <trkpt lat="40.423450" lon="-5.317767">
        <ele>2434.0</ele>
        <time>2018-07-29T11:36:35Z</time>
      </trkpt>
      <trkpt lat="40.423550" lon="-5.317750">
        <ele>2433.0</ele>
        <time>2018-07-29T11:36:36Z</time>
      </trkpt>
      <trkpt lat="40.423633" lon="-5.317700">
        <ele>2433.0</ele>
        <time>2018-07-29T11:36:37Z</time>
      </trkpt>
      <trkpt lat="40.423717" lon="-5.317633">
        <ele>2434.0</ele>
        <time>2018-07-29T11:36:38Z</time>
      </trkpt>
      <trkpt lat="40.423783" lon="-5.317567">
        <ele>2434.0</ele>
        <time>2018-07-29T11:36:39Z</time>
      </trkpt>
      <trkpt lat="40.423833" lon="-5.317483">
        <ele>2435.0</ele>
        <time>2018-07-29T11:36:40Z</time>
      </trkpt>
      <trkpt lat="40.423900" lon="-5.317400">
        <ele>2435.0</ele>
        <time>2018-07-29T11:36:41Z</time>
      </trkpt>
      <trkpt lat="40.423983" lon="-5.317350">
        <ele>2434.0</ele>
        <time>2018-07-29T11:36:42Z</time>
      </trkpt>
      <trkpt lat="40.424067" lon="-5.317317">
        <ele>2433.0</ele>
        <time>2018-07-29T11:36:43Z</time>
      </trkpt>
      <trkpt lat="40.424150" lon="-5.317333">
        <ele>2433.0</ele>
        <time>2018-07-29T11:36:44Z</time>
      </trkpt>
      <trkpt lat="40.424250" lon="-5.317367">
        <ele>2433.0</ele>
        <time>2018-07-29T11:36:45Z</time>
      </trkpt>
      <trkpt lat="40.424317" lon="-5.317417">
        <ele>2434.0</ele>
        <time>2018-07-29T11:36:46Z</time>
      </trkpt>
      <trkpt lat="40.424383" lon="-5.317483">
        <ele>2435.0</ele>
        <time>2018-07-29T11:36:47Z</time>
      </trkpt>
      <trkpt lat="40.424433" lon="-5.317533">
        <ele>2436.0</ele>
        <time>2018-07-29T11:36:48Z</time>
      </trkpt>
      <trkpt lat="40.424483" lon="-5.317600">
        <ele>2435.0</ele>
        <time>2018-07-29T11:36:49Z</time>
      </trkpt>
      <trkpt lat="40.424533" lon="-5.317667">
        <ele>2434.0</ele>
        <time>2018-07-29T11:36:50Z</time>
      </trkpt>
      <trkpt lat="40.424600" lon="-5.317717">
        <ele>2432.0</ele>
        <time>2018-07-29T11:36:51Z</time>
      </trkpt>
      <trkpt lat="40.424667" lon="-5.317800">
        <ele>2430.0</ele>
        <time>2018-07-29T11:36:52Z</time>
      </trkpt>
      <trkpt lat="40.424750" lon="-5.317867">
        <ele>2429.0</ele>
        <time>2018-07-29T11:36:53Z</time>
      </trkpt>
      <trkpt lat="40.424800" lon="-5.317950">
        <ele>2428.0</ele>
        <time>2018-07-29T11:36:54Z</time>
      </trkpt>
      <trkpt lat="40.424850" lon="-5.318033">
        <ele>2428.0</ele>
        <time>2018-07-29T11:36:55Z</time>
      </trkpt>
      <trkpt lat="40.424883" lon="-5.318100">
        <ele>2427.0</ele>
        <time>2018-07-29T11:36:56Z</time>
      </trkpt>
      <trkpt lat="40.424917" lon="-5.318167">
        <ele>2425.0</ele>
        <time>2018-07-29T11:36:57Z</time>
      </trkpt>
      <trkpt lat="40.424967" lon="-5.318233">
        <ele>2423.0</ele>
        <time>2018-07-29T11:36:58Z</time>
      </trkpt>
      <trkpt lat="40.425017" lon="-5.318317">
        <ele>2420.0</ele>
        <time>2018-07-29T11:36:59Z</time>
      </trkpt>
      <trkpt lat="40.425067" lon="-5.318383">
        <ele>2418.0</ele>
        <time>2018-07-29T11:37:00Z</time>
      </trkpt>
      <trkpt lat="40.425133" lon="-5.318467">
        <ele>2417.0</ele>
        <time>2018-07-29T11:37:01Z</time>
      </trkpt>
      <trkpt lat="40.425200" lon="-5.318550">
        <ele>2416.0</ele>
        <time>2018-07-29T11:37:02Z</time>
      </trkpt>
      <trkpt lat="40.425250" lon="-5.318633">
        <ele>2417.0</ele>
        <time>2018-07-29T11:37:03Z</time>
      </trkpt>
      <trkpt lat="40.425300" lon="-5.318700">
        <ele>2417.0</ele>
        <time>2018-07-29T11:37:04Z</time>
      </trkpt>
      <trkpt lat="40.425350" lon="-5.318783">
        <ele>2416.0</ele>
        <time>2018-07-29T11:37:05Z</time>
      </trkpt>
      <trkpt lat="40.425400" lon="-5.318867">
        <ele>2416.0</ele>
        <time>2018-07-29T11:37:06Z</time>
      </trkpt>
      <trkpt lat="40.425450" lon="-5.318933">
        <ele>2415.0</ele>
        <time>2018-07-29T11:37:07Z</time>
      </trkpt>
      <trkpt lat="40.425500" lon="-5.319017">
        <ele>2415.0</ele>
        <time>2018-07-29T11:37:08Z</time>
      </trkpt>
      <trkpt lat="40.425533" lon="-5.319083">
        <ele>2415.0</ele>
        <time>2018-07-29T11:37:09Z</time>
      </trkpt>
      <trkpt lat="40.425583" lon="-5.319150">
        <ele>2414.0</ele>
        <time>2018-07-29T11:37:10Z</time>
      </trkpt>
      <trkpt lat="40.425633" lon="-5.319217">
        <ele>2413.0</ele>
        <time>2018-07-29T11:37:11Z</time>
      </trkpt>
      <trkpt lat="40.425667" lon="-5.319267">
        <ele>2414.0</ele>
        <time>2018-07-29T11:37:12Z</time>
      </trkpt>
      <trkpt lat="40.425717" lon="-5.319317">
        <ele>2414.0</ele>
        <time>2018-07-29T11:37:13Z</time>
      </trkpt>
      <trkpt lat="40.425767" lon="-5.319350">
        <ele>2413.0</ele>
        <time>2018-07-29T11:37:14Z</time>
      </trkpt>
      <trkpt lat="40.425800" lon="-5.319383">
        <ele>2412.0</ele>
        <time>2018-07-29T11:37:15Z</time>
      </trkpt>
      <trkpt lat="40.425850" lon="-5.319400">
        <ele>2410.0</ele>
        <time>2018-07-29T11:37:16Z</time>
      </trkpt>
      <trkpt lat="40.425900" lon="-5.319433">
        <ele>2408.0</ele>
        <time>2018-07-29T11:37:17Z</time>
      </trkpt>
      <trkpt lat="40.425950" lon="-5.319467">
        <ele>2407.0</ele>
        <time>2018-07-29T11:37:18Z</time>
      </trkpt>
      <trkpt lat="40.426017" lon="-5.319500">
        <ele>2407.0</ele>
        <time>2018-07-29T11:37:19Z</time>
      </trkpt>
      <trkpt lat="40.426067" lon="-5.319533">
        <ele>2407.0</ele>
        <time>2018-07-29T11:37:20Z</time>
      </trkpt>
      <trkpt lat="40.426117" lon="-5.319567">
        <ele>2406.0</ele>
        <time>2018-07-29T11:37:21Z</time>
      </trkpt>
      <trkpt lat="40.426150" lon="-5.319600">
        <ele>2405.0</ele>
        <time>2018-07-29T11:37:22Z</time>
      </trkpt>
      <trkpt lat="40.426200" lon="-5.319650">
        <ele>2404.0</ele>
        <time>2018-07-29T11:37:23Z</time>
      </trkpt>
      <trkpt lat="40.426233" lon="-5.319700">
        <ele>2403.0</ele>
        <time>2018-07-29T11:37:24Z</time>
      </trkpt>
      <trkpt lat="40.426283" lon="-5.319750">
        <ele>2402.0</ele>
        <time>2018-07-29T11:37:25Z</time>
      </trkpt>
      <trkpt lat="40.426317" lon="-5.319800">
        <ele>2401.0</ele>
        <time>2018-07-29T11:37:26Z</time>
      </trkpt>
      <trkpt lat="40.426367" lon="-5.319850">
        <ele>2400.0</ele>
        <time>2018-07-29T11:37:27Z</time>
      </trkpt>
      <trkpt lat="40.426417" lon="-5.319900">
        <ele>2399.0</ele>
        <time>2018-07-29T11:37:28Z</time>
      </trkpt>
      <trkpt lat="40.426467" lon="-5.319950">
        <ele>2398.0</ele>
        <time>2018-07-29T11:37:29Z</time>
      </trkpt>
      <trkpt lat="40.426517" lon="-5.319983">
        <ele>2398.0</ele>
        <time>2018-07-29T11:37:30Z</time>
      </trkpt>
      <trkpt lat="40.426567" lon="-5.320000">
        <ele>2397.0</ele>
        <time>2018-07-29T11:37:31Z</time>
      </trkpt>
      <trkpt lat="40.426617" lon="-5.320017">
        <ele>2396.0</ele>
        <time>2018-07-29T11:37:32Z</time>
      </trkpt>
      <trkpt lat="40.426683" lon="-5.320033">
        <ele>2394.0</ele>
        <time>2018-07-29T11:37:33Z</time>
      </trkpt>
      <trkpt lat="40.426733" lon="-5.320067">
        <ele>2393.0</ele>
        <time>2018-07-29T11:37:34Z</time>
      </trkpt>
      <trkpt lat="40.426783" lon="-5.320083">
        <ele>2391.0</ele>
        <time>2018-07-29T11:37:35Z</time>
      </trkpt>
      <trkpt lat="40.426850" lon="-5.320100">
        <ele>2389.0</ele>
        <time>2018-07-29T11:37:36Z</time>
      </trkpt>
      <trkpt lat="40.426900" lon="-5.320117">
        <ele>2388.0</ele>
        <time>2018-07-29T11:37:37Z</time>
      </trkpt>
      <trkpt lat="40.426967" lon="-5.320150">
        <ele>2386.0</ele>
        <time>2018-07-29T11:37:38Z</time>
      </trkpt>
      <trkpt lat="40.427017" lon="-5.320167">
        <ele>2384.0</ele>
        <time>2018-07-29T11:37:39Z</time>
      </trkpt>
      <trkpt lat="40.427050" lon="-5.320217">
        <ele>2382.0</ele>
        <time>2018-07-29T11:37:40Z</time>
      </trkpt>
      <trkpt lat="40.427067" lon="-5.320267">
        <ele>2380.0</ele>
        <time>2018-07-29T11:37:41Z</time>
      </trkpt>
      <trkpt lat="40.427100" lon="-5.320317">
        <ele>2378.0</ele>
        <time>2018-07-29T11:37:42Z</time>
      </trkpt>
      <trkpt lat="40.427117" lon="-5.320383">
        <ele>2376.0</ele>
        <time>2018-07-29T11:37:43Z</time>
      </trkpt>
      <trkpt lat="40.427133" lon="-5.320450">
        <ele>2375.0</ele>
        <time>2018-07-29T11:37:44Z</time>
      </trkpt>
      <trkpt lat="40.427150" lon="-5.320517">
        <ele>2373.0</ele>
        <time>2018-07-29T11:37:45Z</time>
      </trkpt>
      <trkpt lat="40.427183" lon="-5.320567">
        <ele>2372.0</ele>
        <time>2018-07-29T11:37:46Z</time>
      </trkpt>
      <trkpt lat="40.427200" lon="-5.320633">
        <ele>2371.0</ele>
        <time>2018-07-29T11:37:47Z</time>
      </trkpt>
      <trkpt lat="40.427233" lon="-5.320683">
        <ele>2369.0</ele>
        <time>2018-07-29T11:37:48Z</time>
      </trkpt>
      <trkpt lat="40.427267" lon="-5.320733">
        <ele>2366.0</ele>
        <time>2018-07-29T11:37:49Z</time>
      </trkpt>
      <trkpt lat="40.427300" lon="-5.320783">
        <ele>2364.0</ele>
        <time>2018-07-29T11:37:50Z</time>
      </trkpt>
      <trkpt lat="40.427350" lon="-5.320817">
        <ele>2362.0</ele>
        <time>2018-07-29T11:37:51Z</time>
      </trkpt>
      <trkpt lat="40.427400" lon="-5.320867">
        <ele>2361.0</ele>
        <time>2018-07-29T11:37:52Z</time>
      </trkpt>
      <trkpt lat="40.427467" lon="-5.320917">
        <ele>2359.0</ele>
        <time>2018-07-29T11:37:53Z</time>
      </trkpt>
      <trkpt lat="40.427517" lon="-5.320950">
        <ele>2357.0</ele>
        <time>2018-07-29T11:37:54Z</time>
      </trkpt>
      <trkpt lat="40.427583" lon="-5.321000">
        <ele>2355.0</ele>
        <time>2018-07-29T11:37:55Z</time>
      </trkpt>
      <trkpt lat="40.427633" lon="-5.321050">
        <ele>2354.0</ele>
        <time>2018-07-29T11:37:56Z</time>
      </trkpt>
      <trkpt lat="40.427683" lon="-5.321100">
        <ele>2354.0</ele>
        <time>2018-07-29T11:37:57Z</time>
      </trkpt>
      <trkpt lat="40.427717" lon="-5.321150">
        <ele>2355.0</ele>
        <time>2018-07-29T11:37:58Z</time>
      </trkpt>
      <trkpt lat="40.427750" lon="-5.321167">
        <ele>2355.0</ele>
        <time>2018-07-29T11:37:59Z</time>
      </trkpt>
      <trkpt lat="40.427767" lon="-5.321200">
        <ele>2354.0</ele>
        <time>2018-07-29T11:38:00Z</time>
      </trkpt>
      <trkpt lat="40.427783" lon="-5.321233">
        <ele>2353.0</ele>
        <time>2018-07-29T11:38:01Z</time>
      </trkpt>
      <trkpt lat="40.427800" lon="-5.321267">
        <ele>2351.0</ele>
        <time>2018-07-29T11:38:02Z</time>
      </trkpt>
      <trkpt lat="40.427833" lon="-5.321317">
        <ele>2348.0</ele>
        <time>2018-07-29T11:38:03Z</time>
      </trkpt>
      <trkpt lat="40.427850" lon="-5.321367">
        <ele>2346.0</ele>
        <time>2018-07-29T11:38:04Z</time>
      </trkpt>
      <trkpt lat="40.427883" lon="-5.321417">
        <ele>2344.0</ele>
        <time>2018-07-29T11:38:05Z</time>
      </trkpt>
      <trkpt lat="40.427933" lon="-5.321483">
        <ele>2341.0</ele>
        <time>2018-07-29T11:38:06Z</time>
      </trkpt>
      <trkpt lat="40.427967" lon="-5.321550">
        <ele>2340.0</ele>
        <time>2018-07-29T11:38:07Z</time>
      </trkpt>
      <trkpt lat="40.428000" lon="-5.321617">
        <ele>2338.0</ele>
        <time>2018-07-29T11:38:08Z</time>
      </trkpt>
      <trkpt lat="40.428050" lon="-5.321683">
        <ele>2337.0</ele>
        <time>2018-07-29T11:38:09Z</time>
      </trkpt>
      <trkpt lat="40.428083" lon="-5.321733">
        <ele>2336.0</ele>
        <time>2018-07-29T11:38:10Z</time>
      </trkpt>
      <trkpt lat="40.428117" lon="-5.321800">
        <ele>2335.0</ele>
        <time>2018-07-29T11:38:11Z</time>
      </trkpt>
      <trkpt lat="40.428150" lon="-5.321867">
        <ele>2334.0</ele>
        <time>2018-07-29T11:38:12Z</time>
      </trkpt>
      <trkpt lat="40.428200" lon="-5.321917">
        <ele>2333.0</ele>
        <time>2018-07-29T11:38:13Z</time>
      </trkpt>
      <trkpt lat="40.428233" lon="-5.321967">
        <ele>2331.0</ele>
        <time>2018-07-29T11:38:14Z</time>
      </trkpt>
      <trkpt lat="40.428283" lon="-5.322033">
        <ele>2329.0</ele>
        <time>2018-07-29T11:38:15Z</time>
      </trkpt>
      <trkpt lat="40.428333" lon="-5.322100">
        <ele>2327.0</ele>
        <time>2018-07-29T11:38:16Z</time>
      </trkpt>
      <trkpt lat="40.428383" lon="-5.322183">
        <ele>2325.0</ele>
        <time>2018-07-29T11:38:17Z</time>
      </trkpt>
      <trkpt lat="40.428417" lon="-5.322267">
        <ele>2323.0</ele>
        <time>2018-07-29T11:38:18Z</time>
      </trkpt>
      <trkpt lat="40.428467" lon="-5.322333">
        <ele>2323.0</ele>
        <time>2018-07-29T11:38:19Z</time>
      </trkpt>
      <trkpt lat="40.428500" lon="-5.322417">
        <ele>2322.0</ele>
        <time>2018-07-29T11:38:20Z</time>
      </trkpt>
      <trkpt lat="40.428550" lon="-5.322500">
        <ele>2321.0</ele>
        <time>2018-07-29T11:38:21Z</time>
      </trkpt>
      <trkpt lat="40.428583" lon="-5.322567">
        <ele>2321.0</ele>
        <time>2018-07-29T11:38:22Z</time>
      </trkpt>
      <trkpt lat="40.428650" lon="-5.322600">
        <ele>2319.0</ele>
        <time>2018-07-29T11:38:23Z</time>
      </trkpt>
      <trkpt lat="40.428717" lon="-5.322617">
        <ele>2317.0</ele>
        <time>2018-07-29T11:38:24Z</time>
      </trkpt>
      <trkpt lat="40.428800" lon="-5.322617">
        <ele>2315.0</ele>
        <time>2018-07-29T11:38:25Z</time>
      </trkpt>
      <trkpt lat="40.428883" lon="-5.322600">
        <ele>2313.0</ele>
        <time>2018-07-29T11:38:26Z</time>
      </trkpt>
      <trkpt lat="40.428967" lon="-5.322550">
        <ele>2312.0</ele>
        <time>2018-07-29T11:38:27Z</time>
      </trkpt>
      <trkpt lat="40.429050" lon="-5.322500">
        <ele>2311.0</ele>
        <time>2018-07-29T11:38:28Z</time>
      </trkpt>
      <trkpt lat="40.429117" lon="-5.322450">
        <ele>2310.0</ele>
        <time>2018-07-29T11:38:29Z</time>
      </trkpt>
      <trkpt lat="40.429200" lon="-5.322367">
        <ele>2307.0</ele>
        <time>2018-07-29T11:38:30Z</time>
      </trkpt>
      <trkpt lat="40.429283" lon="-5.322300">
        <ele>2306.0</ele>
        <time>2018-07-29T11:38:31Z</time>
      </trkpt>
      <trkpt lat="40.429350" lon="-5.322217">
        <ele>2307.0</ele>
        <time>2018-07-29T11:38:32Z</time>
      </trkpt>
      <trkpt lat="40.429417" lon="-5.322150">
        <ele>2307.0</ele>
        <time>2018-07-29T11:38:33Z</time>
      </trkpt>
      <trkpt lat="40.429467" lon="-5.322050">
        <ele>2307.0</ele>
        <time>2018-07-29T11:38:34Z</time>
      </trkpt>
      <trkpt lat="40.429517" lon="-5.321950">
        <ele>2305.0</ele>
        <time>2018-07-29T11:38:35Z</time>
      </trkpt>
      <trkpt lat="40.429567" lon="-5.321833">
        <ele>2304.0</ele>
        <time>2018-07-29T11:38:36Z</time>
      </trkpt>
      <trkpt lat="40.429617" lon="-5.321700">
        <ele>2303.0</ele>
        <time>2018-07-29T11:38:37Z</time>
      </trkpt>
      <trkpt lat="40.429667" lon="-5.321567">
        <ele>2302.0</ele>
        <time>2018-07-29T11:38:38Z</time>
      </trkpt>
      <trkpt lat="40.429717" lon="-5.321450">
        <ele>2303.0</ele>
        <time>2018-07-29T11:38:39Z</time>
      </trkpt>
      <trkpt lat="40.429767" lon="-5.321333">
        <ele>2303.0</ele>
        <time>2018-07-29T11:38:40Z</time>
      </trkpt>
      <trkpt lat="40.429800" lon="-5.321217">
        <ele>2303.0</ele>
        <time>2018-07-29T11:38:41Z</time>
      </trkpt>
      <trkpt lat="40.429850" lon="-5.321117">
        <ele>2302.0</ele>
        <time>2018-07-29T11:38:42Z</time>
      </trkpt>
      <trkpt lat="40.429883" lon="-5.321000">
        <ele>2301.0</ele>
        <time>2018-07-29T11:38:43Z</time>
      </trkpt>
      <trkpt lat="40.429933" lon="-5.320867">
        <ele>2300.0</ele>
        <time>2018-07-29T11:38:44Z</time>
      </trkpt>
      <trkpt lat="40.429967" lon="-5.320733">
        <ele>2299.0</ele>
        <time>2018-07-29T11:38:45Z</time>
      </trkpt>
      <trkpt lat="40.430017" lon="-5.320600">
        <ele>2298.0</ele>
        <time>2018-07-29T11:38:46Z</time>
      </trkpt>
      <trkpt lat="40.430067" lon="-5.320483">
        <ele>2298.0</ele>
        <time>2018-07-29T11:38:47Z</time>
      </trkpt>
      <trkpt lat="40.430100" lon="-5.320350">
        <ele>2299.0</ele>
        <time>2018-07-29T11:38:48Z</time>
      </trkpt>
      <trkpt lat="40.430133" lon="-5.320250">
        <ele>2300.0</ele>
        <time>2018-07-29T11:38:49Z</time>
      </trkpt>
      <trkpt lat="40.430167" lon="-5.320133">
        <ele>2299.0</ele>
        <time>2018-07-29T11:38:50Z</time>
      </trkpt>
      <trkpt lat="40.430217" lon="-5.320017">
        <ele>2297.0</ele>
        <time>2018-07-29T11:38:51Z</time>
      </trkpt>
      <trkpt lat="40.430250" lon="-5.319900">
        <ele>2296.0</ele>
        <time>2018-07-29T11:38:52Z</time>
      </trkpt>
      <trkpt lat="40.430317" lon="-5.319767">
        <ele>2295.0</ele>
        <time>2018-07-29T11:38:53Z</time>
      </trkpt>
      <trkpt lat="40.430367" lon="-5.319667">
        <ele>2295.0</ele>
        <time>2018-07-29T11:38:54Z</time>
      </trkpt>
      <trkpt lat="40.430417" lon="-5.319550">
        <ele>2295.0</ele>
        <time>2018-07-29T11:38:55Z</time>
      </trkpt>
      <trkpt lat="40.430467" lon="-5.319433">
        <ele>2296.0</ele>
        <time>2018-07-29T11:38:56Z</time>
      </trkpt>
      <trkpt lat="40.430517" lon="-5.319317">
        <ele>2295.0</ele>
        <time>2018-07-29T11:38:57Z</time>
      </trkpt>
      <trkpt lat="40.430550" lon="-5.319200">
        <ele>2294.0</ele>
        <time>2018-07-29T11:38:58Z</time>
      </trkpt>
      <trkpt lat="40.430600" lon="-5.319083">
        <ele>2293.0</ele>
        <time>2018-07-29T11:38:59Z</time>
      </trkpt>
      <trkpt lat="40.430650" lon="-5.318967">
        <ele>2292.0</ele>
        <time>2018-07-29T11:39:00Z</time>
      </trkpt>
      <trkpt lat="40.430683" lon="-5.318833">
        <ele>2291.0</ele>
        <time>2018-07-29T11:39:01Z</time>
      </trkpt>
      <trkpt lat="40.430733" lon="-5.318717">
        <ele>2290.0</ele>
        <time>2018-07-29T11:39:02Z</time>
      </trkpt>
      <trkpt lat="40.430783" lon="-5.318583">
        <ele>2290.0</ele>
        <time>2018-07-29T11:39:03Z</time>
      </trkpt>
      <trkpt lat="40.430817" lon="-5.318467">
        <ele>2289.0</ele>
        <time>2018-07-29T11:39:04Z</time>
      </trkpt>
      <trkpt lat="40.430850" lon="-5.318333">
        <ele>2288.0</ele>
        <time>2018-07-29T11:39:05Z</time>
      </trkpt>
      <trkpt lat="40.430883" lon="-5.318200">
        <ele>2287.0</ele>
        <time>2018-07-29T11:39:06Z</time>
      </trkpt>
      <trkpt lat="40.430900" lon="-5.318050">
        <ele>2286.0</ele>
        <time>2018-07-29T11:39:07Z</time>
      </trkpt>
      <trkpt lat="40.430900" lon="-5.317900">
        <ele>2285.0</ele>
        <time>2018-07-29T11:39:08Z</time>
      </trkpt>
      <trkpt lat="40.430900" lon="-5.317733">
        <ele>2285.0</ele>
        <time>2018-07-29T11:39:09Z</time>
      </trkpt>
      <trkpt lat="40.430883" lon="-5.317583">
        <ele>2284.0</ele>
        <time>2018-07-29T11:39:10Z</time>
      </trkpt>
      <trkpt lat="40.430867" lon="-5.317417">
        <ele>2283.0</ele>
        <time>2018-07-29T11:39:11Z</time>
      </trkpt>
      <trkpt lat="40.430850" lon="-5.317250">
        <ele>2283.0</ele>
        <time>2018-07-29T11:39:12Z</time>
      </trkpt>
      <trkpt lat="40.430817" lon="-5.317100">
        <ele>2283.0</ele>
        <time>2018-07-29T11:39:13Z</time>
      </trkpt>
      <trkpt lat="40.430783" lon="-5.316933">
        <ele>2283.0</ele>
        <time>2018-07-29T11:39:14Z</time>
      </trkpt>
      <trkpt lat="40.430750" lon="-5.316783">
        <ele>2283.0</ele>
        <time>2018-07-29T11:39:15Z</time>
      </trkpt>
      <trkpt lat="40.430717" lon="-5.316633">
        <ele>2283.0</ele>
        <time>2018-07-29T11:39:16Z</time>
      </trkpt>
      <trkpt lat="40.430700" lon="-5.316483">
        <ele>2283.0</ele>
        <time>2018-07-29T11:39:17Z</time>
      </trkpt>
      <trkpt lat="40.430683" lon="-5.316317">
        <ele>2283.0</ele>
        <time>2018-07-29T11:39:18Z</time>
      </trkpt>
      <trkpt lat="40.430667" lon="-5.316150">
        <ele>2283.0</ele>
        <time>2018-07-29T11:39:19Z</time>
      </trkpt>
      <trkpt lat="40.430650" lon="-5.315983">
        <ele>2283.0</ele>
        <time>2018-07-29T11:39:20Z</time>
      </trkpt>
      <trkpt lat="40.430617" lon="-5.315817">
        <ele>2283.0</ele>
        <time>2018-07-29T11:39:21Z</time>
      </trkpt>
      <trkpt lat="40.430583" lon="-5.315650">
        <ele>2284.0</ele>
        <time>2018-07-29T11:39:22Z</time>
      </trkpt>
      <trkpt lat="40.430567" lon="-5.315500">
        <ele>2284.0</ele>
        <time>2018-07-29T11:39:23Z</time>
      </trkpt>
      <trkpt lat="40.430567" lon="-5.315333">
        <ele>2285.0</ele>
        <time>2018-07-29T11:39:24Z</time>
      </trkpt>
      <trkpt lat="40.430550" lon="-5.315183">
        <ele>2285.0</ele>
        <time>2018-07-29T11:39:25Z</time>
      </trkpt>
      <trkpt lat="40.430550" lon="-5.315017">
        <ele>2286.0</ele>
        <time>2018-07-29T11:39:26Z</time>
      </trkpt>
      <trkpt lat="40.430550" lon="-5.314850">
        <ele>2286.0</ele>
        <time>2018-07-29T11:39:27Z</time>
      </trkpt>
      <trkpt lat="40.430550" lon="-5.314700">
        <ele>2287.0</ele>
        <time>2018-07-29T11:39:28Z</time>
      </trkpt>
      <trkpt lat="40.430533" lon="-5.314533">
        <ele>2287.0</ele>
        <time>2018-07-29T11:39:29Z</time>
      </trkpt>
      <trkpt lat="40.430517" lon="-5.314383">
        <ele>2287.0</ele>
        <time>2018-07-29T11:39:30Z</time>
      </trkpt>
      <trkpt lat="40.430500" lon="-5.314217">
        <ele>2287.0</ele>
        <time>2018-07-29T11:39:31Z</time>
      </trkpt>
      <trkpt lat="40.430483" lon="-5.314050">
        <ele>2287.0</ele>
        <time>2018-07-29T11:39:32Z</time>
      </trkpt>
      <trkpt lat="40.430467" lon="-5.313883">
        <ele>2287.0</ele>
        <time>2018-07-29T11:39:33Z</time>
      </trkpt>
      <trkpt lat="40.430467" lon="-5.313717">
        <ele>2287.0</ele>
        <time>2018-07-29T11:39:34Z</time>
      </trkpt>
      <trkpt lat="40.430467" lon="-5.313550">
        <ele>2288.0</ele>
        <time>2018-07-29T11:39:35Z</time>
      </trkpt>
      <trkpt lat="40.430467" lon="-5.313400">
        <ele>2288.0</ele>
        <time>2018-07-29T11:39:36Z</time>
      </trkpt>
      <trkpt lat="40.430483" lon="-5.313250">
        <ele>2288.0</ele>
        <time>2018-07-29T11:39:37Z</time>
      </trkpt>
      <trkpt lat="40.430500" lon="-5.313100">
        <ele>2287.0</ele>
        <time>2018-07-29T11:39:38Z</time>
      </trkpt>
      <trkpt lat="40.430533" lon="-5.312950">
        <ele>2286.0</ele>
        <time>2018-07-29T11:39:39Z</time>
      </trkpt>
      <trkpt lat="40.430550" lon="-5.312783">
        <ele>2284.0</ele>
        <time>2018-07-29T11:39:40Z</time>
      </trkpt>
      <trkpt lat="40.430583" lon="-5.312633">
        <ele>2283.0</ele>
        <time>2018-07-29T11:39:41Z</time>
      </trkpt>
      <trkpt lat="40.430633" lon="-5.312483">
        <ele>2283.0</ele>
        <time>2018-07-29T11:39:42Z</time>
      </trkpt>
      <trkpt lat="40.430683" lon="-5.312333">
        <ele>2282.0</ele>
        <time>2018-07-29T11:39:43Z</time>
      </trkpt>
      <trkpt lat="40.430750" lon="-5.312217">
        <ele>2282.0</ele>
        <time>2018-07-29T11:39:44Z</time>
      </trkpt>
      <trkpt lat="40.430800" lon="-5.312083">
        <ele>2283.0</ele>
        <time>2018-07-29T11:39:45Z</time>
      </trkpt>
      <trkpt lat="40.430850" lon="-5.311967">
        <ele>2282.0</ele>
        <time>2018-07-29T11:39:46Z</time>
      </trkpt>
      <trkpt lat="40.430917" lon="-5.311833">
        <ele>2282.0</ele>
        <time>2018-07-29T11:39:47Z</time>
      </trkpt>
      <trkpt lat="40.430967" lon="-5.311717">
        <ele>2282.0</ele>
        <time>2018-07-29T11:39:48Z</time>
      </trkpt>
      <trkpt lat="40.431017" lon="-5.311583">
        <ele>2283.0</ele>
        <time>2018-07-29T11:39:49Z</time>
      </trkpt>
      <trkpt lat="40.431067" lon="-5.311450">
        <ele>2283.0</ele>
        <time>2018-07-29T11:39:50Z</time>
      </trkpt>
      <trkpt lat="40.431117" lon="-5.311317">
        <ele>2283.0</ele>
        <time>2018-07-29T11:39:51Z</time>
      </trkpt>
      <trkpt lat="40.431150" lon="-5.311200">
        <ele>2283.0</ele>
        <time>2018-07-29T11:39:52Z</time>
      </trkpt>
      <trkpt lat="40.431183" lon="-5.311067">
        <ele>2282.0</ele>
        <time>2018-07-29T11:39:53Z</time>
      </trkpt>
      <trkpt lat="40.431233" lon="-5.310917">
        <ele>2281.0</ele>
        <time>2018-07-29T11:39:54Z</time>
      </trkpt>
      <trkpt lat="40.431267" lon="-5.310767">
        <ele>2280.0</ele>
        <time>2018-07-29T11:39:55Z</time>
      </trkpt>
      <trkpt lat="40.431300" lon="-5.310633">
        <ele>2280.0</ele>
        <time>2018-07-29T11:39:56Z</time>
      </trkpt>
      <trkpt lat="40.431333" lon="-5.310500">
        <ele>2280.0</ele>
        <time>2018-07-29T11:39:57Z</time>
      </trkpt>
      <trkpt lat="40.431383" lon="-5.310383">
        <ele>2280.0</ele>
        <time>2018-07-29T11:39:58Z</time>
      </trkpt>
      <trkpt lat="40.431433" lon="-5.310267">
        <ele>2279.0</ele>
        <time>2018-07-29T11:39:59Z</time>
      </trkpt>
      <trkpt lat="40.431483" lon="-5.310150">
        <ele>2279.0</ele>
        <time>2018-07-29T11:40:00Z</time>
      </trkpt>
      <trkpt lat="40.431517" lon="-5.310050">
        <ele>2279.0</ele>
        <time>2018-07-29T11:40:01Z</time>
      </trkpt>
      <trkpt lat="40.431567" lon="-5.309933">
        <ele>2279.0</ele>
        <time>2018-07-29T11:40:02Z</time>
      </trkpt>
      <trkpt lat="40.431617" lon="-5.309833">
        <ele>2278.0</ele>
        <time>2018-07-29T11:40:03Z</time>
      </trkpt>
      <trkpt lat="40.431667" lon="-5.309733">
        <ele>2277.0</ele>
        <time>2018-07-29T11:40:04Z</time>
      </trkpt>
      <trkpt lat="40.431717" lon="-5.309617">
        <ele>2276.0</ele>
        <time>2018-07-29T11:40:05Z</time>
      </trkpt>
      <trkpt lat="40.431767" lon="-5.309500">
        <ele>2274.0</ele>
        <time>2018-07-29T11:40:06Z</time>
      </trkpt>
      <trkpt lat="40.431817" lon="-5.309367">
        <ele>2273.0</ele>
        <time>2018-07-29T11:40:07Z</time>
      </trkpt>
      <trkpt lat="40.431867" lon="-5.309250">
        <ele>2273.0</ele>
        <time>2018-07-29T11:40:08Z</time>
      </trkpt>
      <trkpt lat="40.431900" lon="-5.309117">
        <ele>2273.0</ele>
        <time>2018-07-29T11:40:09Z</time>
      </trkpt>
      <trkpt lat="40.431933" lon="-5.309000">
        <ele>2272.0</ele>
        <time>2018-07-29T11:40:10Z</time>
      </trkpt>
      <trkpt lat="40.431967" lon="-5.308883">
        <ele>2271.0</ele>
        <time>2018-07-29T11:40:11Z</time>
      </trkpt>
      <trkpt lat="40.432000" lon="-5.308750">
        <ele>2270.0</ele>
        <time>2018-07-29T11:40:12Z</time>
      </trkpt>
      <trkpt lat="40.432033" lon="-5.308617">
        <ele>2269.0</ele>
        <time>2018-07-29T11:40:13Z</time>
      </trkpt>
      <trkpt lat="40.432067" lon="-5.308483">
        <ele>2268.0</ele>
        <time>2018-07-29T11:40:14Z</time>
      </trkpt>
      <trkpt lat="40.432083" lon="-5.308350">
        <ele>2268.0</ele>
        <time>2018-07-29T11:40:15Z</time>
      </trkpt>
      <trkpt lat="40.432117" lon="-5.308233">
        <ele>2267.0</ele>
        <time>2018-07-29T11:40:16Z</time>
      </trkpt>
      <trkpt lat="40.432150" lon="-5.308100">
        <ele>2266.0</ele>
        <time>2018-07-29T11:40:17Z</time>
      </trkpt>
      <trkpt lat="40.432183" lon="-5.307967">
        <ele>2265.0</ele>
        <time>2018-07-29T11:40:18Z</time>
      </trkpt>
      <trkpt lat="40.432217" lon="-5.307850">
        <ele>2264.0</ele>
        <time>2018-07-29T11:40:19Z</time>
      </trkpt>
      <trkpt lat="40.432250" lon="-5.307733">
        <ele>2262.0</ele>
        <time>2018-07-29T11:40:20Z</time>
      </trkpt>
      <trkpt lat="40.432283" lon="-5.307617">
        <ele>2260.0</ele>
        <time>2018-07-29T11:40:21Z</time>
      </trkpt>
      <trkpt lat="40.432317" lon="-5.307517">
        <ele>2257.0</ele>
        <time>2018-07-29T11:40:22Z</time>
      </trkpt>
      <trkpt lat="40.432367" lon="-5.307383">
        <ele>2254.0</ele>
        <time>2018-07-29T11:40:23Z</time>
      </trkpt>
      <trkpt lat="40.432417" lon="-5.307250">
        <ele>2252.0</ele>
        <time>2018-07-29T11:40:24Z</time>
      </trkpt>
      <trkpt lat="40.432450" lon="-5.307117">
        <ele>2249.0</ele>
        <time>2018-07-29T11:40:25Z</time>
      </trkpt>
      <trkpt lat="40.432500" lon="-5.306983">
        <ele>2248.0</ele>
        <time>2018-07-29T11:40:26Z</time>
      </trkpt>
      <trkpt lat="40.432550" lon="-5.306850">
        <ele>2246.0</ele>
        <time>2018-07-29T11:40:27Z</time>
      </trkpt>
      <trkpt lat="40.432567" lon="-5.306717">
        <ele>2246.0</ele>
        <time>2018-07-29T11:40:28Z</time>
      </trkpt>
      <trkpt lat="40.432600" lon="-5.306583">
        <ele>2244.0</ele>
        <time>2018-07-29T11:40:29Z</time>
      </trkpt>
      <trkpt lat="40.432617" lon="-5.306450">
        <ele>2242.0</ele>
        <time>2018-07-29T11:40:30Z</time>
      </trkpt>
      <trkpt lat="40.432617" lon="-5.306300">
        <ele>2239.0</ele>
        <time>2018-07-29T11:40:31Z</time>
      </trkpt>
      <trkpt lat="40.432650" lon="-5.306150">
        <ele>2236.0</ele>
        <time>2018-07-29T11:40:32Z</time>
      </trkpt>
      <trkpt lat="40.432683" lon="-5.306000">
        <ele>2233.0</ele>
        <time>2018-07-29T11:40:33Z</time>
      </trkpt>
      <trkpt lat="40.432717" lon="-5.305833">
        <ele>2231.0</ele>
        <time>2018-07-29T11:40:34Z</time>
      </trkpt>
      <trkpt lat="40.432750" lon="-5.305683">
        <ele>2230.0</ele>
        <time>2018-07-29T11:40:35Z</time>
      </trkpt>
      <trkpt lat="40.432767" lon="-5.305550">
        <ele>2231.0</ele>
        <time>2018-07-29T11:40:36Z</time>
      </trkpt>
      <trkpt lat="40.432767" lon="-5.305417">
        <ele>2231.0</ele>
        <time>2018-07-29T11:40:37Z</time>
      </trkpt>
      <trkpt lat="40.432783" lon="-5.305283">
        <ele>2230.0</ele>
        <time>2018-07-29T11:40:38Z</time>
      </trkpt>
      <trkpt lat="40.432800" lon="-5.305133">
        <ele>2229.0</ele>
        <time>2018-07-29T11:40:39Z</time>
      </trkpt>
      <trkpt lat="40.432817" lon="-5.305000">
        <ele>2228.0</ele>
        <time>2018-07-29T11:40:40Z</time>
      </trkpt>
      <trkpt lat="40.432833" lon="-5.304867">
        <ele>2227.0</ele>
        <time>2018-07-29T11:40:41Z</time>
      </trkpt>
      <trkpt lat="40.432850" lon="-5.304717">
        <ele>2226.0</ele>
        <time>2018-07-29T11:40:42Z</time>
      </trkpt>
      <trkpt lat="40.432883" lon="-5.304583">
        <ele>2225.0</ele>
        <time>2018-07-29T11:40:43Z</time>
      </trkpt>
      <trkpt lat="40.432917" lon="-5.304450">
        <ele>2224.0</ele>
        <time>2018-07-29T11:40:44Z</time>
      </trkpt>
      <trkpt lat="40.432967" lon="-5.304333">
        <ele>2224.0</ele>
        <time>2018-07-29T11:40:45Z</time>
      </trkpt>
      <trkpt lat="40.432983" lon="-5.304183">
        <ele>2224.0</ele>
        <time>2018-07-29T11:40:46Z</time>
      </trkpt>
      <trkpt lat="40.433000" lon="-5.304050">
        <ele>2224.0</ele>
        <time>2018-07-29T11:40:47Z</time>
      </trkpt>
      <trkpt lat="40.432983" lon="-5.303900">
        <ele>2225.0</ele>
        <time>2018-07-29T11:40:48Z</time>
      </trkpt>
      <trkpt lat="40.432983" lon="-5.303767">
        <ele>2225.0</ele>
        <time>2018-07-29T11:40:49Z</time>
      </trkpt>
      <trkpt lat="40.432983" lon="-5.303617">
        <ele>2224.0</ele>
        <time>2018-07-29T11:40:50Z</time>
      </trkpt>
      <trkpt lat="40.432983" lon="-5.303483">
        <ele>2224.0</ele>
        <time>2018-07-29T11:40:51Z</time>
      </trkpt>
      <trkpt lat="40.433000" lon="-5.303333">
        <ele>2223.0</ele>
        <time>2018-07-29T11:40:52Z</time>
      </trkpt>
      <trkpt lat="40.433000" lon="-5.303200">
        <ele>2223.0</ele>
        <time>2018-07-29T11:40:53Z</time>
      </trkpt>
      <trkpt lat="40.433000" lon="-5.303050">
        <ele>2223.0</ele>
        <time>2018-07-29T11:40:54Z</time>
      </trkpt>
      <trkpt lat="40.433000" lon="-5.302883">
        <ele>2222.0</ele>
        <time>2018-07-29T11:40:55Z</time>
      </trkpt>
      <trkpt lat="40.433000" lon="-5.302733">
        <ele>2222.0</ele>
        <time>2018-07-29T11:40:56Z</time>
      </trkpt>
      <trkpt lat="40.433000" lon="-5.302567">
        <ele>2223.0</ele>
        <time>2018-07-29T11:40:57Z</time>
      </trkpt>
      <trkpt lat="40.433000" lon="-5.302417">
        <ele>2224.0</ele>
        <time>2018-07-29T11:40:58Z</time>
      </trkpt>
      <trkpt lat="40.433000" lon="-5.302267">
        <ele>2224.0</ele>
        <time>2018-07-29T11:40:59Z</time>
      </trkpt>
      <trkpt lat="40.433017" lon="-5.302133">
        <ele>2224.0</ele>
        <time>2018-07-29T11:41:00Z</time>
      </trkpt>
      <trkpt lat="40.433017" lon="-5.302000">
        <ele>2225.0</ele>
        <time>2018-07-29T11:41:01Z</time>
      </trkpt>
      <trkpt lat="40.433050" lon="-5.301867">
        <ele>2224.0</ele>
        <time>2018-07-29T11:41:02Z</time>
      </trkpt>
      <trkpt lat="40.433067" lon="-5.301750">
        <ele>2223.0</ele>
        <time>2018-07-29T11:41:03Z</time>
      </trkpt>
      <trkpt lat="40.433083" lon="-5.301617">
        <ele>2222.0</ele>
        <time>2018-07-29T11:41:04Z</time>
      </trkpt>
      <trkpt lat="40.433100" lon="-5.301483">
        <ele>2220.0</ele>
        <time>2018-07-29T11:41:05Z</time>
      </trkpt>
      <trkpt lat="40.433117" lon="-5.301350">
        <ele>2217.0</ele>
        <time>2018-07-29T11:41:06Z</time>
      </trkpt>
      <trkpt lat="40.433150" lon="-5.301217">
        <ele>2215.0</ele>
        <time>2018-07-29T11:41:07Z</time>
      </trkpt>
      <trkpt lat="40.433167" lon="-5.301083">
        <ele>2212.0</ele>
        <time>2018-07-29T11:41:08Z</time>
      </trkpt>
      <trkpt lat="40.433183" lon="-5.300933">
        <ele>2210.0</ele>
        <time>2018-07-29T11:41:09Z</time>
      </trkpt>
      <trkpt lat="40.433183" lon="-5.300800">
        <ele>2208.0</ele>
        <time>2018-07-29T11:41:10Z</time>
      </trkpt>
      <trkpt lat="40.433200" lon="-5.300650">
        <ele>2207.0</ele>
        <time>2018-07-29T11:41:11Z</time>
      </trkpt>
      <trkpt lat="40.433217" lon="-5.300517">
        <ele>2205.0</ele>
        <time>2018-07-29T11:41:12Z</time>
      </trkpt>
      <trkpt lat="40.433233" lon="-5.300383">
        <ele>2203.0</ele>
        <time>2018-07-29T11:41:13Z</time>
      </trkpt>
      <trkpt lat="40.433267" lon="-5.300267">
        <ele>2201.0</ele>
        <time>2018-07-29T11:41:14Z</time>
      </trkpt>
      <trkpt lat="40.433283" lon="-5.300133">
        <ele>2198.0</ele>
        <time>2018-07-29T11:41:15Z</time>
      </trkpt>
      <trkpt lat="40.433317" lon="-5.300000">
        <ele>2195.0</ele>
        <time>2018-07-29T11:41:16Z</time>
      </trkpt>
      <trkpt lat="40.433383" lon="-5.299883">
        <ele>2193.0</ele>
        <time>2018-07-29T11:41:17Z</time>
      </trkpt>
      <trkpt lat="40.433433" lon="-5.299783">
        <ele>2191.0</ele>
        <time>2018-07-29T11:41:18Z</time>
      </trkpt>
      <trkpt lat="40.433500" lon="-5.299683">
        <ele>2190.0</ele>
        <time>2018-07-29T11:41:19Z</time>
      </trkpt>
      <trkpt lat="40.433550" lon="-5.299600">
        <ele>2189.0</ele>
        <time>2018-07-29T11:41:20Z</time>
      </trkpt>
      <trkpt lat="40.433600" lon="-5.299500">
        <ele>2188.0</ele>
        <time>2018-07-29T11:41:21Z</time>
      </trkpt>
      <trkpt lat="40.433667" lon="-5.299400">
        <ele>2187.0</ele>
        <time>2018-07-29T11:41:22Z</time>
      </trkpt>
      <trkpt lat="40.433717" lon="-5.299283">
        <ele>2185.0</ele>
        <time>2018-07-29T11:41:23Z</time>
      </trkpt>
      <trkpt lat="40.433783" lon="-5.299183">
        <ele>2183.0</ele>
        <time>2018-07-29T11:41:24Z</time>
      </trkpt>
      <trkpt lat="40.433850" lon="-5.299067">
        <ele>2182.0</ele>
        <time>2018-07-29T11:41:25Z</time>
      </trkpt>
      <trkpt lat="40.433917" lon="-5.298967">
        <ele>2181.0</ele>
        <time>2018-07-29T11:41:26Z</time>
      </trkpt>
      <trkpt lat="40.433983" lon="-5.298850">
        <ele>2180.0</ele>
        <time>2018-07-29T11:41:27Z</time>
      </trkpt>
      <trkpt lat="40.434050" lon="-5.298750">
        <ele>2181.0</ele>
        <time>2018-07-29T11:41:28Z</time>
      </trkpt>
      <trkpt lat="40.434100" lon="-5.298667">
        <ele>2182.0</ele>
        <time>2018-07-29T11:41:29Z</time>
      </trkpt>
      <trkpt lat="40.434167" lon="-5.298583">
        <ele>2182.0</ele>
        <time>2018-07-29T11:41:30Z</time>
      </trkpt>
      <trkpt lat="40.434217" lon="-5.298500">
        <ele>2182.0</ele>
        <time>2018-07-29T11:41:31Z</time>
      </trkpt>
      <trkpt lat="40.434267" lon="-5.298400">
        <ele>2182.0</ele>
        <time>2018-07-29T11:41:32Z</time>
      </trkpt>
      <trkpt lat="40.434333" lon="-5.298300">
        <ele>2182.0</ele>
        <time>2018-07-29T11:41:33Z</time>
      </trkpt>
      <trkpt lat="40.434383" lon="-5.298200">
        <ele>2183.0</ele>
        <time>2018-07-29T11:41:34Z</time>
      </trkpt>
      <trkpt lat="40.434433" lon="-5.298100">
        <ele>2185.0</ele>
        <time>2018-07-29T11:41:35Z</time>
      </trkpt>
      <trkpt lat="40.434483" lon="-5.298017">
        <ele>2186.0</ele>
        <time>2018-07-29T11:41:36Z</time>
      </trkpt>
      <trkpt lat="40.434517" lon="-5.297900">
        <ele>2186.0</ele>
        <time>2018-07-29T11:41:37Z</time>
      </trkpt>
      <trkpt lat="40.434550" lon="-5.297783">
        <ele>2185.0</ele>
        <time>2018-07-29T11:41:38Z</time>
      </trkpt>
      <trkpt lat="40.434583" lon="-5.297650">
        <ele>2184.0</ele>
        <time>2018-07-29T11:41:39Z</time>
      </trkpt>
      <trkpt lat="40.434617" lon="-5.297550">
        <ele>2183.0</ele>
        <time>2018-07-29T11:41:40Z</time>
      </trkpt>
      <trkpt lat="40.434667" lon="-5.297433">
        <ele>2182.0</ele>
        <time>2018-07-29T11:41:41Z</time>
      </trkpt>
      <trkpt lat="40.434717" lon="-5.297333">
        <ele>2182.0</ele>
        <time>2018-07-29T11:41:42Z</time>
      </trkpt>
      <trkpt lat="40.434767" lon="-5.297233">
        <ele>2182.0</ele>
        <time>2018-07-29T11:41:43Z</time>
      </trkpt>
      <trkpt lat="40.434833" lon="-5.297150">
        <ele>2182.0</ele>
        <time>2018-07-29T11:41:44Z</time>
      </trkpt>
      <trkpt lat="40.434883" lon="-5.297050">
        <ele>2182.0</ele>
        <time>2018-07-29T11:41:45Z</time>
      </trkpt>
      <trkpt lat="40.434933" lon="-5.296967">
        <ele>2183.0</ele>
        <time>2018-07-29T11:41:46Z</time>
      </trkpt>
      <trkpt lat="40.435000" lon="-5.296900">
        <ele>2183.0</ele>
        <time>2018-07-29T11:41:47Z</time>
      </trkpt>
      <trkpt lat="40.435067" lon="-5.296817">
        <ele>2184.0</ele>
        <time>2018-07-29T11:41:48Z</time>
      </trkpt>
      <trkpt lat="40.435150" lon="-5.296750">
        <ele>2184.0</ele>
        <time>2018-07-29T11:41:49Z</time>
      </trkpt>
      <trkpt lat="40.435217" lon="-5.296700">
        <ele>2184.0</ele>
        <time>2018-07-29T11:41:50Z</time>
      </trkpt>
      <trkpt lat="40.435267" lon="-5.296633">
        <ele>2185.0</ele>
        <time>2018-07-29T11:41:51Z</time>
      </trkpt>
      <trkpt lat="40.435333" lon="-5.296583">
        <ele>2185.0</ele>
        <time>2018-07-29T11:41:52Z</time>
      </trkpt>
      <trkpt lat="40.435383" lon="-5.296517">
        <ele>2184.0</ele>
        <time>2018-07-29T11:41:53Z</time>
      </trkpt>
      <trkpt lat="40.435433" lon="-5.296467">
        <ele>2183.0</ele>
        <time>2018-07-29T11:41:54Z</time>
      </trkpt>
      <trkpt lat="40.435500" lon="-5.296433">
        <ele>2181.0</ele>
        <time>2018-07-29T11:41:55Z</time>
      </trkpt>
      <trkpt lat="40.435583" lon="-5.296383">
        <ele>2179.0</ele>
        <time>2018-07-29T11:41:56Z</time>
      </trkpt>
      <trkpt lat="40.435650" lon="-5.296333">
        <ele>2177.0</ele>
        <time>2018-07-29T11:41:57Z</time>
      </trkpt>
      <trkpt lat="40.435733" lon="-5.296283">
        <ele>2177.0</ele>
        <time>2018-07-29T11:41:58Z</time>
      </trkpt>
      <trkpt lat="40.435800" lon="-5.296233">
        <ele>2177.0</ele>
        <time>2018-07-29T11:41:59Z</time>
      </trkpt>
      <trkpt lat="40.435850" lon="-5.296200">
        <ele>2178.0</ele>
        <time>2018-07-29T11:42:00Z</time>
      </trkpt>
      <trkpt lat="40.435917" lon="-5.296150">
        <ele>2177.0</ele>
        <time>2018-07-29T11:42:01Z</time>
      </trkpt>
      <trkpt lat="40.435967" lon="-5.296100">
        <ele>2175.0</ele>
        <time>2018-07-29T11:42:02Z</time>
      </trkpt>
      <trkpt lat="40.436050" lon="-5.296050">
        <ele>2174.0</ele>
        <time>2018-07-29T11:42:03Z</time>
      </trkpt>
      <trkpt lat="40.436117" lon="-5.296017">
        <ele>2172.0</ele>
        <time>2018-07-29T11:42:04Z</time>
      </trkpt>
      <trkpt lat="40.436200" lon="-5.295983">
        <ele>2172.0</ele>
        <time>2018-07-29T11:42:05Z</time>
      </trkpt>
      <trkpt lat="40.436267" lon="-5.295950">
        <ele>2172.0</ele>
        <time>2018-07-29T11:42:06Z</time>
      </trkpt>
      <trkpt lat="40.436333" lon="-5.295900">
        <ele>2171.0</ele>
        <time>2018-07-29T11:42:07Z</time>
      </trkpt>
      <trkpt lat="40.436400" lon="-5.295850">
        <ele>2169.0</ele>
        <time>2018-07-29T11:42:08Z</time>
      </trkpt>
      <trkpt lat="40.436467" lon="-5.295800">
        <ele>2168.0</ele>
        <time>2018-07-29T11:42:09Z</time>
      </trkpt>
      <trkpt lat="40.436533" lon="-5.295750">
        <ele>2167.0</ele>
        <time>2018-07-29T11:42:10Z</time>
      </trkpt>
      <trkpt lat="40.436617" lon="-5.295700">
        <ele>2166.0</ele>
        <time>2018-07-29T11:42:11Z</time>
      </trkpt>
      <trkpt lat="40.436667" lon="-5.295650">
        <ele>2164.0</ele>
        <time>2018-07-29T11:42:12Z</time>
      </trkpt>
      <trkpt lat="40.436733" lon="-5.295600">
        <ele>2162.0</ele>
        <time>2018-07-29T11:42:13Z</time>
      </trkpt>
      <trkpt lat="40.436817" lon="-5.295550">
        <ele>2160.0</ele>
        <time>2018-07-29T11:42:14Z</time>
      </trkpt>
      <trkpt lat="40.436883" lon="-5.295500">
        <ele>2158.0</ele>
        <time>2018-07-29T11:42:15Z</time>
      </trkpt>
      <trkpt lat="40.436950" lon="-5.295467">
        <ele>2157.0</ele>
        <time>2018-07-29T11:42:16Z</time>
      </trkpt>
      <trkpt lat="40.437033" lon="-5.295417">
        <ele>2155.0</ele>
        <time>2018-07-29T11:42:17Z</time>
      </trkpt>
      <trkpt lat="40.437100" lon="-5.295383">
        <ele>2154.0</ele>
        <time>2018-07-29T11:42:18Z</time>
      </trkpt>
      <trkpt lat="40.437150" lon="-5.295350">
        <ele>2153.0</ele>
        <time>2018-07-29T11:42:19Z</time>
      </trkpt>
      <trkpt lat="40.437217" lon="-5.295300">
        <ele>2151.0</ele>
        <time>2018-07-29T11:42:20Z</time>
      </trkpt>
      <trkpt lat="40.437283" lon="-5.295267">
        <ele>2148.0</ele>
        <time>2018-07-29T11:42:21Z</time>
      </trkpt>
      <trkpt lat="40.437350" lon="-5.295217">
        <ele>2145.0</ele>
        <time>2018-07-29T11:42:22Z</time>
      </trkpt>
      <trkpt lat="40.437433" lon="-5.295167">
        <ele>2143.0</ele>
        <time>2018-07-29T11:42:23Z</time>
      </trkpt>
      <trkpt lat="40.437500" lon="-5.295117">
        <ele>2142.0</ele>
        <time>2018-07-29T11:42:24Z</time>
      </trkpt>
      <trkpt lat="40.437567" lon="-5.295083">
        <ele>2140.0</ele>
        <time>2018-07-29T11:42:25Z</time>
      </trkpt>
      <trkpt lat="40.437617" lon="-5.295033">
        <ele>2139.0</ele>
        <time>2018-07-29T11:42:26Z</time>
      </trkpt>
      <trkpt lat="40.437683" lon="-5.295000">
        <ele>2137.0</ele>
        <time>2018-07-29T11:42:27Z</time>
      </trkpt>
      <trkpt lat="40.437750" lon="-5.294950">
        <ele>2134.0</ele>
        <time>2018-07-29T11:42:28Z</time>
      </trkpt>
      <trkpt lat="40.437817" lon="-5.294917">
        <ele>2131.0</ele>
        <time>2018-07-29T11:42:29Z</time>
      </trkpt>
      <trkpt lat="40.437900" lon="-5.294867">
        <ele>2128.0</ele>
        <time>2018-07-29T11:42:30Z</time>
      </trkpt>
      <trkpt lat="40.437967" lon="-5.294833">
        <ele>2126.0</ele>
        <time>2018-07-29T11:42:31Z</time>
      </trkpt>
      <trkpt lat="40.438050" lon="-5.294800">
        <ele>2124.0</ele>
        <time>2018-07-29T11:42:32Z</time>
      </trkpt>
      <trkpt lat="40.438117" lon="-5.294750">
        <ele>2121.0</ele>
        <time>2018-07-29T11:42:33Z</time>
      </trkpt>
      <trkpt lat="40.438200" lon="-5.294717">
        <ele>2119.0</ele>
        <time>2018-07-29T11:42:34Z</time>
      </trkpt>
      <trkpt lat="40.438267" lon="-5.294667">
        <ele>2116.0</ele>
        <time>2018-07-29T11:42:35Z</time>
      </trkpt>
      <trkpt lat="40.438350" lon="-5.294617">
        <ele>2113.0</ele>
        <time>2018-07-29T11:42:36Z</time>
      </trkpt>
      <trkpt lat="40.438433" lon="-5.294533">
        <ele>2111.0</ele>
        <time>2018-07-29T11:42:37Z</time>
      </trkpt>
      <trkpt lat="40.438500" lon="-5.294467">
        <ele>2108.0</ele>
        <time>2018-07-29T11:42:38Z</time>
      </trkpt>
      <trkpt lat="40.438567" lon="-5.294383">
        <ele>2106.0</ele>
        <time>2018-07-29T11:42:39Z</time>
      </trkpt>
      <trkpt lat="40.438650" lon="-5.294317">
        <ele>2104.0</ele>
        <time>2018-07-29T11:42:40Z</time>
      </trkpt>
      <trkpt lat="40.438717" lon="-5.294233">
        <ele>2101.0</ele>
        <time>2018-07-29T11:42:41Z</time>
      </trkpt>
      <trkpt lat="40.438800" lon="-5.294167">
        <ele>2099.0</ele>
        <time>2018-07-29T11:42:42Z</time>
      </trkpt>
      <trkpt lat="40.438883" lon="-5.294100">
        <ele>2097.0</ele>
        <time>2018-07-29T11:42:43Z</time>
      </trkpt>
      <trkpt lat="40.438950" lon="-5.294033">
        <ele>2095.0</ele>
        <time>2018-07-29T11:42:44Z</time>
      </trkpt>
      <trkpt lat="40.439033" lon="-5.293967">
        <ele>2093.0</ele>
        <time>2018-07-29T11:42:45Z</time>
      </trkpt>
      <trkpt lat="40.439117" lon="-5.293917">
        <ele>2091.0</ele>
        <time>2018-07-29T11:42:46Z</time>
      </trkpt>
      <trkpt lat="40.439200" lon="-5.293867">
        <ele>2089.0</ele>
        <time>2018-07-29T11:42:47Z</time>
      </trkpt>
      <trkpt lat="40.439283" lon="-5.293800">
        <ele>2087.0</ele>
        <time>2018-07-29T11:42:48Z</time>
      </trkpt>
      <trkpt lat="40.439367" lon="-5.293750">
        <ele>2085.0</ele>
        <time>2018-07-29T11:42:49Z</time>
      </trkpt>
      <trkpt lat="40.439450" lon="-5.293667">
        <ele>2083.0</ele>
        <time>2018-07-29T11:42:50Z</time>
      </trkpt>
      <trkpt lat="40.439533" lon="-5.293600">
        <ele>2082.0</ele>
        <time>2018-07-29T11:42:51Z</time>
      </trkpt>
      <trkpt lat="40.439600" lon="-5.293533">
        <ele>2080.0</ele>
        <time>2018-07-29T11:42:52Z</time>
      </trkpt>
      <trkpt lat="40.439683" lon="-5.293467">
        <ele>2078.0</ele>
        <time>2018-07-29T11:42:53Z</time>
      </trkpt>
      <trkpt lat="40.439750" lon="-5.293400">
        <ele>2077.0</ele>
        <time>2018-07-29T11:42:54Z</time>
      </trkpt>
      <trkpt lat="40.439833" lon="-5.293333">
        <ele>2076.0</ele>
        <time>2018-07-29T11:42:55Z</time>
      </trkpt>
      <trkpt lat="40.439917" lon="-5.293283">
        <ele>2075.0</ele>
        <time>2018-07-29T11:42:56Z</time>
      </trkpt>
      <trkpt lat="40.439983" lon="-5.293233">
        <ele>2074.0</ele>
        <time>2018-07-29T11:42:57Z</time>
      </trkpt>
      <trkpt lat="40.440067" lon="-5.293183">
        <ele>2073.0</ele>
        <time>2018-07-29T11:42:58Z</time>
      </trkpt>
      <trkpt lat="40.440133" lon="-5.293117">
        <ele>2071.0</ele>
        <time>2018-07-29T11:42:59Z</time>
      </trkpt>
      <trkpt lat="40.440200" lon="-5.293083">
        <ele>2069.0</ele>
        <time>2018-07-29T11:43:00Z</time>
      </trkpt>
      <trkpt lat="40.440283" lon="-5.293050">
        <ele>2068.0</ele>
        <time>2018-07-29T11:43:01Z</time>
      </trkpt>
      <trkpt lat="40.440350" lon="-5.293017">
        <ele>2067.0</ele>
        <time>2018-07-29T11:43:02Z</time>
      </trkpt>
      <trkpt lat="40.440433" lon="-5.292983">
        <ele>2067.0</ele>
        <time>2018-07-29T11:43:03Z</time>
      </trkpt>
      <trkpt lat="40.440500" lon="-5.292950">
        <ele>2067.0</ele>
        <time>2018-07-29T11:43:04Z</time>
      </trkpt>
      <trkpt lat="40.440567" lon="-5.292900">
        <ele>2066.0</ele>
        <time>2018-07-29T11:43:05Z</time>
      </trkpt>
      <trkpt lat="40.440633" lon="-5.292850">
        <ele>2065.0</ele>
        <time>2018-07-29T11:43:06Z</time>
      </trkpt>
      <trkpt lat="40.440717" lon="-5.292817">
        <ele>2062.0</ele>
        <time>2018-07-29T11:43:07Z</time>
      </trkpt>
      <trkpt lat="40.440817" lon="-5.292750">
        <ele>2059.0</ele>
        <time>2018-07-29T11:43:08Z</time>
      </trkpt>
      <trkpt lat="40.440900" lon="-5.292683">
        <ele>2057.0</ele>
        <time>2018-07-29T11:43:09Z</time>
      </trkpt>
      <trkpt lat="40.440983" lon="-5.292600">
        <ele>2057.0</ele>
        <time>2018-07-29T11:43:10Z</time>
      </trkpt>
      <trkpt lat="40.441050" lon="-5.292517">
        <ele>2058.0</ele>
        <time>2018-07-29T11:43:11Z</time>
      </trkpt>
      <trkpt lat="40.441117" lon="-5.292417">
        <ele>2058.0</ele>
        <time>2018-07-29T11:43:12Z</time>
      </trkpt>
      <trkpt lat="40.441167" lon="-5.292350">
        <ele>2058.0</ele>
        <time>2018-07-29T11:43:13Z</time>
      </trkpt>
      <trkpt lat="40.441217" lon="-5.292283">
        <ele>2057.0</ele>
        <time>2018-07-29T11:43:14Z</time>
      </trkpt>
      <trkpt lat="40.441283" lon="-5.292233">
        <ele>2055.0</ele>
        <time>2018-07-29T11:43:15Z</time>
      </trkpt>
      <trkpt lat="40.441367" lon="-5.292167">
        <ele>2053.0</ele>
        <time>2018-07-29T11:43:16Z</time>
      </trkpt>
      <trkpt lat="40.441450" lon="-5.292117">
        <ele>2052.0</ele>
        <time>2018-07-29T11:43:17Z</time>
      </trkpt>
      <trkpt lat="40.441533" lon="-5.292050">
        <ele>2051.0</ele>
        <time>2018-07-29T11:43:18Z</time>
      </trkpt>
      <trkpt lat="40.441633" lon="-5.292000">
        <ele>2051.0</ele>
        <time>2018-07-29T11:43:19Z</time>
      </trkpt>
      <trkpt lat="40.441700" lon="-5.291933">
        <ele>2050.0</ele>
        <time>2018-07-29T11:43:20Z</time>
      </trkpt>
      <trkpt lat="40.441783" lon="-5.291883">
        <ele>2050.0</ele>
        <time>2018-07-29T11:43:21Z</time>
      </trkpt>
      <trkpt lat="40.441867" lon="-5.291850">
        <ele>2049.0</ele>
        <time>2018-07-29T11:43:22Z</time>
      </trkpt>
      <trkpt lat="40.441950" lon="-5.291800">
        <ele>2047.0</ele>
        <time>2018-07-29T11:43:23Z</time>
      </trkpt>
      <trkpt lat="40.442033" lon="-5.291733">
        <ele>2045.0</ele>
        <time>2018-07-29T11:43:24Z</time>
      </trkpt>
      <trkpt lat="40.442133" lon="-5.291667">
        <ele>2044.0</ele>
        <time>2018-07-29T11:43:25Z</time>
      </trkpt>
      <trkpt lat="40.442217" lon="-5.291583">
        <ele>2043.0</ele>
        <time>2018-07-29T11:43:26Z</time>
      </trkpt>
      <trkpt lat="40.442283" lon="-5.291517">
        <ele>2044.0</ele>
        <time>2018-07-29T11:43:27Z</time>
      </trkpt>
      <trkpt lat="40.442350" lon="-5.291450">
        <ele>2043.0</ele>
        <time>2018-07-29T11:43:28Z</time>
      </trkpt>
      <trkpt lat="40.442417" lon="-5.291383">
        <ele>2041.0</ele>
        <time>2018-07-29T11:43:29Z</time>
      </trkpt>
      <trkpt lat="40.442483" lon="-5.291317">
        <ele>2039.0</ele>
        <time>2018-07-29T11:43:30Z</time>
      </trkpt>
      <trkpt lat="40.442567" lon="-5.291267">
        <ele>2036.0</ele>
        <time>2018-07-29T11:43:31Z</time>
      </trkpt>
      <trkpt lat="40.442650" lon="-5.291217">
        <ele>2033.0</ele>
        <time>2018-07-29T11:43:32Z</time>
      </trkpt>
      <trkpt lat="40.442750" lon="-5.291167">
        <ele>2030.0</ele>
        <time>2018-07-29T11:43:33Z</time>
      </trkpt>
      <trkpt lat="40.442833" lon="-5.291100">
        <ele>2028.0</ele>
        <time>2018-07-29T11:43:34Z</time>
      </trkpt>
      <trkpt lat="40.442917" lon="-5.291033">
        <ele>2027.0</ele>
        <time>2018-07-29T11:43:35Z</time>
      </trkpt>
      <trkpt lat="40.443000" lon="-5.290967">
        <ele>2025.0</ele>
        <time>2018-07-29T11:43:36Z</time>
      </trkpt>
      <trkpt lat="40.443083" lon="-5.290900">
        <ele>2023.0</ele>
        <time>2018-07-29T11:43:37Z</time>
      </trkpt>
      <trkpt lat="40.443167" lon="-5.290833">
        <ele>2021.0</ele>
        <time>2018-07-29T11:43:38Z</time>
      </trkpt>
      <trkpt lat="40.443250" lon="-5.290767">
        <ele>2018.0</ele>
        <time>2018-07-29T11:43:39Z</time>
      </trkpt>
      <trkpt lat="40.443350" lon="-5.290700">
        <ele>2016.0</ele>
        <time>2018-07-29T11:43:40Z</time>
      </trkpt>
      <trkpt lat="40.443433" lon="-5.290650">
        <ele>2014.0</ele>
        <time>2018-07-29T11:43:41Z</time>
      </trkpt>
      <trkpt lat="40.443517" lon="-5.290583">
        <ele>2014.0</ele>
        <time>2018-07-29T11:43:42Z</time>
      </trkpt>
      <trkpt lat="40.443600" lon="-5.290500">
        <ele>2014.0</ele>
        <time>2018-07-29T11:43:43Z</time>
      </trkpt>
      <trkpt lat="40.443667" lon="-5.290400">
        <ele>2013.0</ele>
        <time>2018-07-29T11:43:44Z</time>
      </trkpt>
      <trkpt lat="40.443717" lon="-5.290300">
        <ele>2012.0</ele>
        <time>2018-07-29T11:43:45Z</time>
      </trkpt>
      <trkpt lat="40.443767" lon="-5.290200">
        <ele>2009.0</ele>
        <time>2018-07-29T11:43:46Z</time>
      </trkpt>
      <trkpt lat="40.443833" lon="-5.290100">
        <ele>2005.0</ele>
        <time>2018-07-29T11:43:47Z</time>
      </trkpt>
      <trkpt lat="40.443900" lon="-5.290000">
        <ele>2002.0</ele>
        <time>2018-07-29T11:43:48Z</time>
      </trkpt>
      <trkpt lat="40.444000" lon="-5.289933">
        <ele>1999.0</ele>
        <time>2018-07-29T11:43:49Z</time>
      </trkpt>
      <trkpt lat="40.444083" lon="-5.289867">
        <ele>1997.0</ele>
        <time>2018-07-29T11:43:50Z</time>
      </trkpt>
      <trkpt lat="40.444167" lon="-5.289817">
        <ele>1996.0</ele>
        <time>2018-07-29T11:43:51Z</time>
      </trkpt>
      <trkpt lat="40.444233" lon="-5.289767">
        <ele>1996.0</ele>
        <time>2018-07-29T11:43:52Z</time>
      </trkpt>
      <trkpt lat="40.444283" lon="-5.289717">
        <ele>1994.0</ele>
        <time>2018-07-29T11:43:53Z</time>
      </trkpt>
      <trkpt lat="40.444333" lon="-5.289650">
        <ele>1992.0</ele>
        <time>2018-07-29T11:43:54Z</time>
      </trkpt>
      <trkpt lat="40.444400" lon="-5.289583">
        <ele>1988.0</ele>
        <time>2018-07-29T11:43:55Z</time>
      </trkpt>
      <trkpt lat="40.444467" lon="-5.289483">
        <ele>1983.0</ele>
        <time>2018-07-29T11:43:56Z</time>
      </trkpt>
      <trkpt lat="40.444550" lon="-5.289400">
        <ele>1981.0</ele>
        <time>2018-07-29T11:43:57Z</time>
      </trkpt>
      <trkpt lat="40.444633" lon="-5.289333">
        <ele>1980.0</ele>
        <time>2018-07-29T11:43:58Z</time>
      </trkpt>
      <trkpt lat="40.444700" lon="-5.289283">
        <ele>1980.0</ele>
        <time>2018-07-29T11:43:59Z</time>
      </trkpt>
      <trkpt lat="40.444767" lon="-5.289217">
        <ele>1980.0</ele>
        <time>2018-07-29T11:44:00Z</time>
      </trkpt>
      <trkpt lat="40.444817" lon="-5.289167">
        <ele>1978.0</ele>
        <time>2018-07-29T11:44:01Z</time>
      </trkpt>
      <trkpt lat="40.444883" lon="-5.289100">
        <ele>1976.0</ele>
        <time>2018-07-29T11:44:02Z</time>
      </trkpt>
      <trkpt lat="40.444950" lon="-5.289033">
        <ele>1974.0</ele>
        <time>2018-07-29T11:44:03Z</time>
      </trkpt>
      <trkpt lat="40.445033" lon="-5.288967">
        <ele>1973.0</ele>
        <time>2018-07-29T11:44:04Z</time>
      </trkpt>
      <trkpt lat="40.445117" lon="-5.288917">
        <ele>1973.0</ele>
        <time>2018-07-29T11:44:05Z</time>
      </trkpt>
      <trkpt lat="40.445200" lon="-5.288867">
        <ele>1974.0</ele>
        <time>2018-07-29T11:44:06Z</time>
      </trkpt>
      <trkpt lat="40.445267" lon="-5.288800">
        <ele>1975.0</ele>
        <time>2018-07-29T11:44:07Z</time>
      </trkpt>
      <trkpt lat="40.445317" lon="-5.288750">
        <ele>1974.0</ele>
        <time>2018-07-29T11:44:08Z</time>
      </trkpt>
      <trkpt lat="40.445383" lon="-5.288700">
        <ele>1973.0</ele>
        <time>2018-07-29T11:44:09Z</time>
      </trkpt>
      <trkpt lat="40.445450" lon="-5.288667">
        <ele>1970.0</ele>
        <time>2018-07-29T11:44:10Z</time>
      </trkpt>
      <trkpt lat="40.445533" lon="-5.288617">
        <ele>1968.0</ele>
        <time>2018-07-29T11:44:11Z</time>
      </trkpt>
      <trkpt lat="40.445617" lon="-5.288567">
        <ele>1967.0</ele>
        <time>2018-07-29T11:44:12Z</time>
      </trkpt>
      <trkpt lat="40.445700" lon="-5.288500">
        <ele>1966.0</ele>
        <time>2018-07-29T11:44:13Z</time>
      </trkpt>
      <trkpt lat="40.445767" lon="-5.288433">
        <ele>1967.0</ele>
        <time>2018-07-29T11:44:14Z</time>
      </trkpt>
      <trkpt lat="40.445833" lon="-5.288383">
        <ele>1967.0</ele>
        <time>2018-07-29T11:44:15Z</time>
      </trkpt>
      <trkpt lat="40.445900" lon="-5.288350">
        <ele>1966.0</ele>
        <time>2018-07-29T11:44:16Z</time>
      </trkpt>
      <trkpt lat="40.445967" lon="-5.288300">
        <ele>1964.0</ele>
        <time>2018-07-29T11:44:17Z</time>
      </trkpt>
      <trkpt lat="40.446050" lon="-5.288233">
        <ele>1961.0</ele>
        <time>2018-07-29T11:44:18Z</time>
      </trkpt>
      <trkpt lat="40.446133" lon="-5.288183">
        <ele>1959.0</ele>
        <time>2018-07-29T11:44:19Z</time>
      </trkpt>
      <trkpt lat="40.446217" lon="-5.288117">
        <ele>1957.0</ele>
        <time>2018-07-29T11:44:20Z</time>
      </trkpt>
      <trkpt lat="40.446283" lon="-5.288083">
        <ele>1956.0</ele>
        <time>2018-07-29T11:44:21Z</time>
      </trkpt>
      <trkpt lat="40.446367" lon="-5.288050">
        <ele>1954.0</ele>
        <time>2018-07-29T11:44:22Z</time>
      </trkpt>
      <trkpt lat="40.446433" lon="-5.288017">
        <ele>1952.0</ele>
        <time>2018-07-29T11:44:23Z</time>
      </trkpt>
      <trkpt lat="40.446517" lon="-5.287967">
        <ele>1950.0</ele>
        <time>2018-07-29T11:44:24Z</time>
      </trkpt>
      <trkpt lat="40.446600" lon="-5.287933">
        <ele>1949.0</ele>
        <time>2018-07-29T11:44:25Z</time>
      </trkpt>
      <trkpt lat="40.446667" lon="-5.287900">
        <ele>1949.0</ele>
        <time>2018-07-29T11:44:26Z</time>
      </trkpt>
      <trkpt lat="40.446733" lon="-5.287867">
        <ele>1947.0</ele>
        <time>2018-07-29T11:44:27Z</time>
      </trkpt>
      <trkpt lat="40.446800" lon="-5.287833">
        <ele>1945.0</ele>
        <time>2018-07-29T11:44:28Z</time>
      </trkpt>
      <trkpt lat="40.446883" lon="-5.287783">
        <ele>1943.0</ele>
        <time>2018-07-29T11:44:29Z</time>
      </trkpt>
      <trkpt lat="40.446950" lon="-5.287733">
        <ele>1940.0</ele>
        <time>2018-07-29T11:44:30Z</time>
      </trkpt>
      <trkpt lat="40.447033" lon="-5.287667">
        <ele>1938.0</ele>
        <time>2018-07-29T11:44:31Z</time>
      </trkpt>
      <trkpt lat="40.447100" lon="-5.287617">
        <ele>1937.0</ele>
        <time>2018-07-29T11:44:32Z</time>
      </trkpt>
      <trkpt lat="40.447183" lon="-5.287550">
        <ele>1936.0</ele>
        <time>2018-07-29T11:44:33Z</time>
      </trkpt>
      <trkpt lat="40.447250" lon="-5.287483">
        <ele>1935.0</ele>
        <time>2018-07-29T11:44:34Z</time>
      </trkpt>
      <trkpt lat="40.447317" lon="-5.287417">
        <ele>1934.0</ele>
        <time>2018-07-29T11:44:35Z</time>
      </trkpt>
      <trkpt lat="40.447383" lon="-5.287367">
        <ele>1933.0</ele>
        <time>2018-07-29T11:44:36Z</time>
      </trkpt>
      <trkpt lat="40.447450" lon="-5.287300">
        <ele>1931.0</ele>
        <time>2018-07-29T11:44:37Z</time>
      </trkpt>
      <trkpt lat="40.447517" lon="-5.287250">
        <ele>1929.0</ele>
        <time>2018-07-29T11:44:38Z</time>
      </trkpt>
      <trkpt lat="40.447600" lon="-5.287217">
        <ele>1928.0</ele>
        <time>2018-07-29T11:44:39Z</time>
      </trkpt>
      <trkpt lat="40.447683" lon="-5.287167">
        <ele>1926.0</ele>
        <time>2018-07-29T11:44:40Z</time>
      </trkpt>
      <trkpt lat="40.447767" lon="-5.287117">
        <ele>1925.0</ele>
        <time>2018-07-29T11:44:41Z</time>
      </trkpt>
      <trkpt lat="40.447850" lon="-5.287083">
        <ele>1924.0</ele>
        <time>2018-07-29T11:44:42Z</time>
      </trkpt>
      <trkpt lat="40.447917" lon="-5.287050">
        <ele>1923.0</ele>
        <time>2018-07-29T11:44:43Z</time>
      </trkpt>
      <trkpt lat="40.448000" lon="-5.287000">
        <ele>1922.0</ele>
        <time>2018-07-29T11:44:44Z</time>
      </trkpt>
      <trkpt lat="40.448067" lon="-5.286950">
        <ele>1920.0</ele>
        <time>2018-07-29T11:44:45Z</time>
      </trkpt>
      <trkpt lat="40.448133" lon="-5.286867">
        <ele>1919.0</ele>
        <time>2018-07-29T11:44:46Z</time>
      </trkpt>
      <trkpt lat="40.448200" lon="-5.286767">
        <ele>1917.0</ele>
        <time>2018-07-29T11:44:47Z</time>
      </trkpt>
      <trkpt lat="40.448233" lon="-5.286633">
        <ele>1915.0</ele>
        <time>2018-07-29T11:44:48Z</time>
      </trkpt>
      <trkpt lat="40.448267" lon="-5.286500">
        <ele>1914.0</ele>
        <time>2018-07-29T11:44:49Z</time>
      </trkpt>
      <trkpt lat="40.448283" lon="-5.286350">
        <ele>1913.0</ele>
        <time>2018-07-29T11:44:50Z</time>
      </trkpt>
      <trkpt lat="40.448250" lon="-5.286200">
        <ele>1911.0</ele>
        <time>2018-07-29T11:44:51Z</time>
      </trkpt>
      <trkpt lat="40.448217" lon="-5.286050">
        <ele>1910.0</ele>
        <time>2018-07-29T11:44:52Z</time>
      </trkpt>
      <trkpt lat="40.448150" lon="-5.285917">
        <ele>1909.0</ele>
        <time>2018-07-29T11:44:53Z</time>
      </trkpt>
      <trkpt lat="40.448083" lon="-5.285783">
        <ele>1908.0</ele>
        <time>2018-07-29T11:44:54Z</time>
      </trkpt>
      <trkpt lat="40.448000" lon="-5.285650">
        <ele>1908.0</ele>
        <time>2018-07-29T11:44:55Z</time>
      </trkpt>
      <trkpt lat="40.447917" lon="-5.285517">
        <ele>1908.0</ele>
        <time>2018-07-29T11:44:56Z</time>
      </trkpt>
      <trkpt lat="40.447850" lon="-5.285383">
        <ele>1909.0</ele>
        <time>2018-07-29T11:44:57Z</time>
      </trkpt>
      <trkpt lat="40.447783" lon="-5.285250">
        <ele>1908.0</ele>
        <time>2018-07-29T11:44:58Z</time>
      </trkpt>
      <trkpt lat="40.447717" lon="-5.285117">
        <ele>1908.0</ele>
        <time>2018-07-29T11:44:59Z</time>
      </trkpt>
      <trkpt lat="40.447633" lon="-5.284983">
        <ele>1906.0</ele>
        <time>2018-07-29T11:45:00Z</time>
      </trkpt>
      <trkpt lat="40.447533" lon="-5.284850">
        <ele>1904.0</ele>
        <time>2018-07-29T11:45:01Z</time>
      </trkpt>
      <trkpt lat="40.447433" lon="-5.284717">
        <ele>1903.0</ele>
        <time>2018-07-29T11:45:02Z</time>
      </trkpt>
      <trkpt lat="40.447333" lon="-5.284583">
        <ele>1903.0</ele>
        <time>2018-07-29T11:45:03Z</time>
      </trkpt>
      <trkpt lat="40.447233" lon="-5.284450">
        <ele>1903.0</ele>
        <time>2018-07-29T11:45:04Z</time>
      </trkpt>
      <trkpt lat="40.447150" lon="-5.284317">
        <ele>1903.0</ele>
        <time>2018-07-29T11:45:05Z</time>
      </trkpt>
      <trkpt lat="40.447050" lon="-5.284200">
        <ele>1902.0</ele>
        <time>2018-07-29T11:45:06Z</time>
      </trkpt>
      <trkpt lat="40.446967" lon="-5.284067">
        <ele>1902.0</ele>
        <time>2018-07-29T11:45:07Z</time>
      </trkpt>
      <trkpt lat="40.446883" lon="-5.283950">
        <ele>1901.0</ele>
        <time>2018-07-29T11:45:08Z</time>
      </trkpt>
      <trkpt lat="40.446783" lon="-5.283850">
        <ele>1901.0</ele>
        <time>2018-07-29T11:45:09Z</time>
      </trkpt>
      <trkpt lat="40.446683" lon="-5.283750">
        <ele>1900.0</ele>
        <time>2018-07-29T11:45:10Z</time>
      </trkpt>
      <trkpt lat="40.446567" lon="-5.283650">
        <ele>1899.0</ele>
        <time>2018-07-29T11:45:11Z</time>
      </trkpt>
      <trkpt lat="40.446450" lon="-5.283550">
        <ele>1898.0</ele>
        <time>2018-07-29T11:45:12Z</time>
      </trkpt>
      <trkpt lat="40.446350" lon="-5.283433">
        <ele>1898.0</ele>
        <time>2018-07-29T11:45:13Z</time>
      </trkpt>
      <trkpt lat="40.446267" lon="-5.283333">
        <ele>1898.0</ele>
        <time>2018-07-29T11:45:14Z</time>
      </trkpt>
      <trkpt lat="40.446167" lon="-5.283250">
        <ele>1897.0</ele>
        <time>2018-07-29T11:45:15Z</time>
      </trkpt>
      <trkpt lat="40.446067" lon="-5.283167">
        <ele>1895.0</ele>
        <time>2018-07-29T11:45:16Z</time>
      </trkpt>
      <trkpt lat="40.445950" lon="-5.283083">
        <ele>1892.0</ele>
        <time>2018-07-29T11:45:17Z</time>
      </trkpt>
      <trkpt lat="40.445817" lon="-5.283000">
        <ele>1889.0</ele>
        <time>2018-07-29T11:45:18Z</time>
      </trkpt>
      <trkpt lat="40.445683" lon="-5.282917">
        <ele>1888.0</ele>
        <time>2018-07-29T11:45:19Z</time>
      </trkpt>
      <trkpt lat="40.445567" lon="-5.282833">
        <ele>1888.0</ele>
        <time>2018-07-29T11:45:20Z</time>
      </trkpt>
      <trkpt lat="40.445433" lon="-5.282767">
        <ele>1889.0</ele>
        <time>2018-07-29T11:45:21Z</time>
      </trkpt>
      <trkpt lat="40.445333" lon="-5.282683">
        <ele>1890.0</ele>
        <time>2018-07-29T11:45:22Z</time>
      </trkpt>
      <trkpt lat="40.445217" lon="-5.282617">
        <ele>1891.0</ele>
        <time>2018-07-29T11:45:23Z</time>
      </trkpt>
      <trkpt lat="40.445100" lon="-5.282533">
        <ele>1891.0</ele>
        <time>2018-07-29T11:45:24Z</time>
      </trkpt>
      <trkpt lat="40.444983" lon="-5.282450">
        <ele>1891.0</ele>
        <time>2018-07-29T11:45:25Z</time>
      </trkpt>
      <trkpt lat="40.444883" lon="-5.282383">
        <ele>1892.0</ele>
        <time>2018-07-29T11:45:26Z</time>
      </trkpt>
      <trkpt lat="40.444767" lon="-5.282317">
        <ele>1893.0</ele>
        <time>2018-07-29T11:45:27Z</time>
      </trkpt>
      <trkpt lat="40.444650" lon="-5.282267">
        <ele>1894.0</ele>
        <time>2018-07-29T11:45:28Z</time>
      </trkpt>
      <trkpt lat="40.444550" lon="-5.282233">
        <ele>1896.0</ele>
        <time>2018-07-29T11:45:29Z</time>
      </trkpt>
      <trkpt lat="40.444433" lon="-5.282183">
        <ele>1898.0</ele>
        <time>2018-07-29T11:45:30Z</time>
      </trkpt>
      <trkpt lat="40.444333" lon="-5.282150">
        <ele>1900.0</ele>
        <time>2018-07-29T11:45:31Z</time>
      </trkpt>
      <trkpt lat="40.444250" lon="-5.282150">
        <ele>1901.0</ele>
        <time>2018-07-29T11:45:32Z</time>
      </trkpt>
      <trkpt lat="40.444167" lon="-5.282150">
        <ele>1901.0</ele>
        <time>2018-07-29T11:45:33Z</time>
      </trkpt>
      <trkpt lat="40.444083" lon="-5.282150">
        <ele>1901.0</ele>
        <time>2018-07-29T11:45:34Z</time>
      </trkpt>
      <trkpt lat="40.443983" lon="-5.282167">
        <ele>1901.0</ele>
        <time>2018-07-29T11:45:35Z</time>
      </trkpt>
      <trkpt lat="40.443883" lon="-5.282167">
        <ele>1901.0</ele>
        <time>2018-07-29T11:45:36Z</time>
      </trkpt>
      <trkpt lat="40.443800" lon="-5.282167">
        <ele>1901.0</ele>
        <time>2018-07-29T11:45:37Z</time>
      </trkpt>
      <trkpt lat="40.443717" lon="-5.282183">
        <ele>1902.0</ele>
        <time>2018-07-29T11:45:38Z</time>
      </trkpt>
      <trkpt lat="40.443633" lon="-5.282233">
        <ele>1902.0</ele>
        <time>2018-07-29T11:45:39Z</time>
      </trkpt>
      <trkpt lat="40.443567" lon="-5.282267">
        <ele>1902.0</ele>
        <time>2018-07-29T11:45:40Z</time>
      </trkpt>
      <trkpt lat="40.443500" lon="-5.282333">
        <ele>1902.0</ele>
        <time>2018-07-29T11:45:41Z</time>
      </trkpt>
      <trkpt lat="40.443417" lon="-5.282383">
        <ele>1903.0</ele>
        <time>2018-07-29T11:45:42Z</time>
      </trkpt>
      <trkpt lat="40.443350" lon="-5.282433">
        <ele>1904.0</ele>
        <time>2018-07-29T11:45:43Z</time>
      </trkpt>
      <trkpt lat="40.443283" lon="-5.282500">
        <ele>1905.0</ele>
        <time>2018-07-29T11:45:44Z</time>
      </trkpt>
      <trkpt lat="40.443217" lon="-5.282550">
        <ele>1905.0</ele>
        <time>2018-07-29T11:45:45Z</time>
      </trkpt>
      <trkpt lat="40.443133" lon="-5.282600">
        <ele>1906.0</ele>
        <time>2018-07-29T11:45:46Z</time>
      </trkpt>
      <trkpt lat="40.443050" lon="-5.282633">
        <ele>1906.0</ele>
        <time>2018-07-29T11:45:47Z</time>
      </trkpt>
      <trkpt lat="40.442967" lon="-5.282683">
        <ele>1906.0</ele>
        <time>2018-07-29T11:45:48Z</time>
      </trkpt>
      <trkpt lat="40.442883" lon="-5.282733">
        <ele>1906.0</ele>
        <time>2018-07-29T11:45:49Z</time>
      </trkpt>
      <trkpt lat="40.442817" lon="-5.282800">
        <ele>1906.0</ele>
        <time>2018-07-29T11:45:50Z</time>
      </trkpt>
      <trkpt lat="40.442733" lon="-5.282850">
        <ele>1907.0</ele>
        <time>2018-07-29T11:45:51Z</time>
      </trkpt>
      <trkpt lat="40.442667" lon="-5.282900">
        <ele>1906.0</ele>
        <time>2018-07-29T11:45:52Z</time>
      </trkpt>
      <trkpt lat="40.442567" lon="-5.282950">
        <ele>1906.0</ele>
        <time>2018-07-29T11:45:53Z</time>
      </trkpt>
      <trkpt lat="40.442467" lon="-5.282983">
        <ele>1906.0</ele>
        <time>2018-07-29T11:45:54Z</time>
      </trkpt>
      <trkpt lat="40.442383" lon="-5.283033">
        <ele>1906.0</ele>
        <time>2018-07-29T11:45:55Z</time>
      </trkpt>
      <trkpt lat="40.442283" lon="-5.283067">
        <ele>1907.0</ele>
        <time>2018-07-29T11:45:56Z</time>
      </trkpt>
      <trkpt lat="40.442200" lon="-5.283100">
        <ele>1907.0</ele>
        <time>2018-07-29T11:45:57Z</time>
      </trkpt>
      <trkpt lat="40.442117" lon="-5.283133">
        <ele>1906.0</ele>
        <time>2018-07-29T11:45:58Z</time>
      </trkpt>
      <trkpt lat="40.442033" lon="-5.283167">
        <ele>1906.0</ele>
        <time>2018-07-29T11:45:59Z</time>
      </trkpt>
      <trkpt lat="40.441933" lon="-5.283200">
        <ele>1906.0</ele>
        <time>2018-07-29T11:46:00Z</time>
      </trkpt>
      <trkpt lat="40.441850" lon="-5.283250">
        <ele>1906.0</ele>
        <time>2018-07-29T11:46:01Z</time>
      </trkpt>
      <trkpt lat="40.441783" lon="-5.283300">
        <ele>1906.0</ele>
        <time>2018-07-29T11:46:02Z</time>
      </trkpt>
      <trkpt lat="40.441717" lon="-5.283350">
        <ele>1906.0</ele>
        <time>2018-07-29T11:46:03Z</time>
      </trkpt>
      <trkpt lat="40.441650" lon="-5.283417">
        <ele>1905.0</ele>
        <time>2018-07-29T11:46:04Z</time>
      </trkpt>
      <trkpt lat="40.441583" lon="-5.283467">
        <ele>1905.0</ele>
        <time>2018-07-29T11:46:05Z</time>
      </trkpt>
      <trkpt lat="40.441500" lon="-5.283517">
        <ele>1905.0</ele>
        <time>2018-07-29T11:46:06Z</time>
      </trkpt>
      <trkpt lat="40.441417" lon="-5.283550">
        <ele>1905.0</ele>
        <time>2018-07-29T11:46:07Z</time>
      </trkpt>
      <trkpt lat="40.441333" lon="-5.283600">
        <ele>1906.0</ele>
        <time>2018-07-29T11:46:08Z</time>
      </trkpt>
      <trkpt lat="40.441233" lon="-5.283617">
        <ele>1905.0</ele>
        <time>2018-07-29T11:46:09Z</time>
      </trkpt>
      <trkpt lat="40.441117" lon="-5.283633">
        <ele>1905.0</ele>
        <time>2018-07-29T11:46:10Z</time>
      </trkpt>
      <trkpt lat="40.441033" lon="-5.283650">
        <ele>1906.0</ele>
        <time>2018-07-29T11:46:11Z</time>
      </trkpt>
      <trkpt lat="40.440933" lon="-5.283667">
        <ele>1907.0</ele>
        <time>2018-07-29T11:46:12Z</time>
      </trkpt>
      <trkpt lat="40.440850" lon="-5.283700">
        <ele>1908.0</ele>
        <time>2018-07-29T11:46:13Z</time>
      </trkpt>
      <trkpt lat="40.440767" lon="-5.283733">
        <ele>1908.0</ele>
        <time>2018-07-29T11:46:14Z</time>
      </trkpt>
      <trkpt lat="40.440683" lon="-5.283783">
        <ele>1908.0</ele>
        <time>2018-07-29T11:46:15Z</time>
      </trkpt>
      <trkpt lat="40.440617" lon="-5.283833">
        <ele>1907.0</ele>
        <time>2018-07-29T11:46:16Z</time>
      </trkpt>
      <trkpt lat="40.440567" lon="-5.283900">
        <ele>1906.0</ele>
        <time>2018-07-29T11:46:17Z</time>
      </trkpt>
      <trkpt lat="40.440567" lon="-5.283983">
        <ele>1905.0</ele>
        <time>2018-07-29T11:46:18Z</time>
      </trkpt>
      <trkpt lat="40.440600" lon="-5.284067">
        <ele>1904.0</ele>
        <time>2018-07-29T11:46:19Z</time>
      </trkpt>
      <trkpt lat="40.440650" lon="-5.284117">
        <ele>1903.0</ele>
        <time>2018-07-29T11:46:20Z</time>
      </trkpt>
      <trkpt lat="40.440733" lon="-5.284117">
        <ele>1902.0</ele>
        <time>2018-07-29T11:46:21Z</time>
      </trkpt>
      <trkpt lat="40.440817" lon="-5.284067">
        <ele>1902.0</ele>
        <time>2018-07-29T11:46:22Z</time>
      </trkpt>
      <trkpt lat="40.440900" lon="-5.284000">
        <ele>1903.0</ele>
        <time>2018-07-29T11:46:23Z</time>
      </trkpt>
      <trkpt lat="40.440967" lon="-5.283883">
        <ele>1905.0</ele>
        <time>2018-07-29T11:46:24Z</time>
      </trkpt>
      <trkpt lat="40.441017" lon="-5.283783">
        <ele>1907.0</ele>
        <time>2018-07-29T11:46:25Z</time>
      </trkpt>
      <trkpt lat="40.441050" lon="-5.283683">
        <ele>1908.0</ele>
        <time>2018-07-29T11:46:26Z</time>
      </trkpt>
      <trkpt lat="40.441100" lon="-5.283600">
        <ele>1908.0</ele>
        <time>2018-07-29T11:46:27Z</time>
      </trkpt>
      <trkpt lat="40.441150" lon="-5.283533">
        <ele>1906.0</ele>
        <time>2018-07-29T11:46:28Z</time>
      </trkpt>
      <trkpt lat="40.441217" lon="-5.283483">
        <ele>1905.0</ele>
        <time>2018-07-29T11:46:29Z</time>
      </trkpt>
      <trkpt lat="40.441300" lon="-5.283450">
        <ele>1903.0</ele>
        <time>2018-07-29T11:46:30Z</time>
      </trkpt>
      <trkpt lat="40.441383" lon="-5.283433">
        <ele>1902.0</ele>
        <time>2018-07-29T11:46:31Z</time>
      </trkpt>
      <trkpt lat="40.441467" lon="-5.283417">
        <ele>1902.0</ele>
        <time>2018-07-29T11:46:32Z</time>
      </trkpt>
      <trkpt lat="40.441550" lon="-5.283383">
        <ele>1903.0</ele>
        <time>2018-07-29T11:46:33Z</time>
      </trkpt>
      <trkpt lat="40.441633" lon="-5.283367">
        <ele>1904.0</ele>
        <time>2018-07-29T11:46:34Z</time>
      </trkpt>
      <trkpt lat="40.441700" lon="-5.283333">
        <ele>1906.0</ele>
        <time>2018-07-29T11:46:35Z</time>
      </trkpt>
      <trkpt lat="40.441783" lon="-5.283300">
        <ele>1907.0</ele>
        <time>2018-07-29T11:46:36Z</time>
      </trkpt>
      <trkpt lat="40.441833" lon="-5.283267">
        <ele>1908.0</ele>
        <time>2018-07-29T11:46:37Z</time>
      </trkpt>
      <trkpt lat="40.441900" lon="-5.283217">
        <ele>1909.0</ele>
        <time>2018-07-29T11:46:38Z</time>
      </trkpt>
      <trkpt lat="40.441950" lon="-5.283167">
        <ele>1909.0</ele>
        <time>2018-07-29T11:46:39Z</time>
      </trkpt>
      <trkpt lat="40.442017" lon="-5.283117">
        <ele>1909.0</ele>
        <time>2018-07-29T11:46:40Z</time>
      </trkpt>
      <trkpt lat="40.442083" lon="-5.283050">
        <ele>1909.0</ele>
        <time>2018-07-29T11:46:41Z</time>
      </trkpt>
      <trkpt lat="40.442150" lon="-5.283017">
        <ele>1909.0</ele>
        <time>2018-07-29T11:46:42Z</time>
      </trkpt>
      <trkpt lat="40.442217" lon="-5.283000">
        <ele>1908.0</ele>
        <time>2018-07-29T11:46:43Z</time>
      </trkpt>
      <trkpt lat="40.442283" lon="-5.282983">
        <ele>1908.0</ele>
        <time>2018-07-29T11:46:44Z</time>
      </trkpt>
      <trkpt lat="40.442333" lon="-5.282983">
        <ele>1907.0</ele>
        <time>2018-07-29T11:46:45Z</time>
      </trkpt>
      <trkpt lat="40.442383" lon="-5.283033">
        <ele>1907.0</ele>
        <time>2018-07-29T11:46:46Z</time>
      </trkpt>
      <trkpt lat="40.442400" lon="-5.283083">
        <ele>1906.0</ele>
        <time>2018-07-29T11:46:47Z</time>
      </trkpt>
      <trkpt lat="40.442383" lon="-5.283167">
        <ele>1907.0</ele>
        <time>2018-07-29T11:46:48Z</time>
      </trkpt>
      <trkpt lat="40.442350" lon="-5.283233">
        <ele>1907.0</ele>
        <time>2018-07-29T11:46:49Z</time>
      </trkpt>
      <trkpt lat="40.442267" lon="-5.283300">
        <ele>1907.0</ele>
        <time>2018-07-29T11:46:50Z</time>
      </trkpt>
      <trkpt lat="40.442167" lon="-5.283333">
        <ele>1907.0</ele>
        <time>2018-07-29T11:46:51Z</time>
      </trkpt>
      <trkpt lat="40.442050" lon="-5.283333">
        <ele>1908.0</ele>
        <time>2018-07-29T11:46:52Z</time>
      </trkpt>
      <trkpt lat="40.441933" lon="-5.283317">
        <ele>1909.0</ele>
        <time>2018-07-29T11:46:53Z</time>
      </trkpt>
      <trkpt lat="40.441817" lon="-5.283300">
        <ele>1910.0</ele>
        <time>2018-07-29T11:46:54Z</time>
      </trkpt>
      <trkpt lat="40.441717" lon="-5.283283">
        <ele>1911.0</ele>
        <time>2018-07-29T11:46:55Z</time>
      </trkpt>
      <trkpt lat="40.441633" lon="-5.283283">
        <ele>1911.0</ele>
        <time>2018-07-29T11:46:56Z</time>
      </trkpt>
      <trkpt lat="40.441533" lon="-5.283283">
        <ele>1911.0</ele>
        <time>2018-07-29T11:46:57Z</time>
      </trkpt>
      <trkpt lat="40.441450" lon="-5.283300">
        <ele>1911.0</ele>
        <time>2018-07-29T11:46:58Z</time>
      </trkpt>
      <trkpt lat="40.441350" lon="-5.283317">
        <ele>1911.0</ele>
        <time>2018-07-29T11:46:59Z</time>
      </trkpt>
      <trkpt lat="40.441267" lon="-5.283350">
        <ele>1910.0</ele>
        <time>2018-07-29T11:47:00Z</time>
      </trkpt>
      <trkpt lat="40.441200" lon="-5.283417">
        <ele>1910.0</ele>
        <time>2018-07-29T11:47:01Z</time>
      </trkpt>
      <trkpt lat="40.441167" lon="-5.283500">
        <ele>1909.0</ele>
        <time>2018-07-29T11:47:02Z</time>
      </trkpt>
      <trkpt lat="40.441150" lon="-5.283583">
        <ele>1909.0</ele>
        <time>2018-07-29T11:47:03Z</time>
      </trkpt>
      <trkpt lat="40.441183" lon="-5.283650">
        <ele>1908.0</ele>
        <time>2018-07-29T11:47:04Z</time>
      </trkpt>
      <trkpt lat="40.441233" lon="-5.283683">
        <ele>1907.0</ele>
        <time>2018-07-29T11:47:05Z</time>
      </trkpt>
      <trkpt lat="40.441300" lon="-5.283700">
        <ele>1906.0</ele>
        <time>2018-07-29T11:47:06Z</time>
      </trkpt>
      <trkpt lat="40.441367" lon="-5.283667">
        <ele>1906.0</ele>
        <time>2018-07-29T11:47:07Z</time>
      </trkpt>
      <trkpt lat="40.441433" lon="-5.283600">
        <ele>1905.0</ele>
        <time>2018-07-29T11:47:08Z</time>
      </trkpt>
      <trkpt lat="40.441517" lon="-5.283517">
        <ele>1905.0</ele>
        <time>2018-07-29T11:47:09Z</time>
      </trkpt>
      <trkpt lat="40.441583" lon="-5.283433">
        <ele>1906.0</ele>
        <time>2018-07-29T11:47:10Z</time>
      </trkpt>
      <trkpt lat="40.441650" lon="-5.283350">
        <ele>1907.0</ele>
        <time>2018-07-29T11:47:11Z</time>
      </trkpt>
      <trkpt lat="40.441717" lon="-5.283283">
        <ele>1908.0</ele>
        <time>2018-07-29T11:47:12Z</time>
      </trkpt>
      <trkpt lat="40.441783" lon="-5.283233">
        <ele>1910.0</ele>
        <time>2018-07-29T11:47:13Z</time>
      </trkpt>
      <trkpt lat="40.441833" lon="-5.283183">
        <ele>1912.0</ele>
        <time>2018-07-29T11:47:14Z</time>
      </trkpt>
      <trkpt lat="40.441867" lon="-5.283133">
        <ele>1911.0</ele>
        <time>2018-07-29T11:47:15Z</time>
      </trkpt>
      <trkpt lat="40.441917" lon="-5.283067">
        <ele>1910.0</ele>
        <time>2018-07-29T11:47:16Z</time>
      </trkpt>
      <trkpt lat="40.441983" lon="-5.283017">
        <ele>1908.0</ele>
        <time>2018-07-29T11:47:17Z</time>
      </trkpt>
      <trkpt lat="40.442050" lon="-5.282983">
        <ele>1907.0</ele>
        <time>2018-07-29T11:47:18Z</time>
      </trkpt>
      <trkpt lat="40.442133" lon="-5.282967">
        <ele>1906.0</ele>
        <time>2018-07-29T11:47:19Z</time>
      </trkpt>
      <trkpt lat="40.442217" lon="-5.282950">
        <ele>1906.0</ele>
        <time>2018-07-29T11:47:20Z</time>
      </trkpt>
      <trkpt lat="40.442283" lon="-5.282933">
        <ele>1907.0</ele>
        <time>2018-07-29T11:47:21Z</time>
      </trkpt>
      <trkpt lat="40.442350" lon="-5.282883">
        <ele>1908.0</ele>
        <time>2018-07-29T11:47:22Z</time>
      </trkpt>
      <trkpt lat="40.442417" lon="-5.282833">
        <ele>1908.0</ele>
        <time>2018-07-29T11:47:23Z</time>
      </trkpt>
      <trkpt lat="40.442467" lon="-5.282783">
        <ele>1908.0</ele>
        <time>2018-07-29T11:47:24Z</time>
      </trkpt>
      <trkpt lat="40.442550" lon="-5.282700">
        <ele>1908.0</ele>
        <time>2018-07-29T11:47:25Z</time>
      </trkpt>
      <trkpt lat="40.442617" lon="-5.282633">
        <ele>1908.0</ele>
        <time>2018-07-29T11:47:26Z</time>
      </trkpt>
      <trkpt lat="40.442683" lon="-5.282533">
        <ele>1908.0</ele>
        <time>2018-07-29T11:47:27Z</time>
      </trkpt>
      <trkpt lat="40.442750" lon="-5.282450">
        <ele>1909.0</ele>
        <time>2018-07-29T11:47:28Z</time>
      </trkpt>
      <trkpt lat="40.442800" lon="-5.282350">
        <ele>1911.0</ele>
        <time>2018-07-29T11:47:29Z</time>
      </trkpt>
      <trkpt lat="40.442867" lon="-5.282250">
        <ele>1912.0</ele>
        <time>2018-07-29T11:47:30Z</time>
      </trkpt>
      <trkpt lat="40.442917" lon="-5.282167">
        <ele>1913.0</ele>
        <time>2018-07-29T11:47:31Z</time>
      </trkpt>
      <trkpt lat="40.442967" lon="-5.282083">
        <ele>1912.0</ele>
        <time>2018-07-29T11:47:32Z</time>
      </trkpt>
      <trkpt lat="40.443017" lon="-5.282017">
        <ele>1912.0</ele>
        <time>2018-07-29T11:47:33Z</time>
      </trkpt>
      <trkpt lat="40.443083" lon="-5.281950">
        <ele>1912.0</ele>
        <time>2018-07-29T11:47:34Z</time>
      </trkpt>
      <trkpt lat="40.443167" lon="-5.281883">
        <ele>1912.0</ele>
        <time>2018-07-29T11:47:35Z</time>
      </trkpt>
      <trkpt lat="40.443233" lon="-5.281817">
        <ele>1912.0</ele>
        <time>2018-07-29T11:47:36Z</time>
      </trkpt>
      <trkpt lat="40.443300" lon="-5.281767">
        <ele>1913.0</ele>
        <time>2018-07-29T11:47:37Z</time>
      </trkpt>
      <trkpt lat="40.443367" lon="-5.281700">
        <ele>1914.0</ele>
        <time>2018-07-29T11:47:38Z</time>
      </trkpt>
      <trkpt lat="40.443433" lon="-5.281633">
        <ele>1914.0</ele>
        <time>2018-07-29T11:47:39Z</time>
      </trkpt>
      <trkpt lat="40.443500" lon="-5.281583">
        <ele>1914.0</ele>
        <time>2018-07-29T11:47:40Z</time>
      </trkpt>
      <trkpt lat="40.443583" lon="-5.281533">
        <ele>1913.0</ele>
        <time>2018-07-29T11:47:41Z</time>
      </trkpt>
      <trkpt lat="40.443667" lon="-5.281483">
        <ele>1913.0</ele>
        <time>2018-07-29T11:47:42Z</time>
      </trkpt>
      <trkpt lat="40.443750" lon="-5.281450">
        <ele>1914.0</ele>
        <time>2018-07-29T11:47:43Z</time>
      </trkpt>
      <trkpt lat="40.443833" lon="-5.281400">
        <ele>1914.0</ele>
        <time>2018-07-29T11:47:44Z</time>
      </trkpt>
      <trkpt lat="40.443900" lon="-5.281350">
        <ele>1915.0</ele>
        <time>2018-07-29T11:47:45Z</time>
      </trkpt>
      <trkpt lat="40.443983" lon="-5.281317">
        <ele>1916.0</ele>
        <time>2018-07-29T11:47:46Z</time>
      </trkpt>
      <trkpt lat="40.444067" lon="-5.281300">
        <ele>1917.0</ele>
        <time>2018-07-29T11:47:47Z</time>
      </trkpt>
      <trkpt lat="40.444133" lon="-5.281283">
        <ele>1918.0</ele>
        <time>2018-07-29T11:47:48Z</time>
      </trkpt>
      <trkpt lat="40.444200" lon="-5.281283">
        <ele>1918.0</ele>
        <time>2018-07-29T11:47:49Z</time>
      </trkpt>
      <trkpt lat="40.444267" lon="-5.281267">
        <ele>1918.0</ele>
        <time>2018-07-29T11:47:50Z</time>
      </trkpt>
      <trkpt lat="40.444333" lon="-5.281250">
        <ele>1919.0</ele>
        <time>2018-07-29T11:47:51Z</time>
      </trkpt>
      <trkpt lat="40.444383" lon="-5.281250">
        <ele>1918.0</ele>
        <time>2018-07-29T11:47:52Z</time>
      </trkpt>
      <trkpt lat="40.444433" lon="-5.281283">
        <ele>1917.0</ele>
        <time>2018-07-29T11:47:53Z</time>
      </trkpt>
      <trkpt lat="40.444467" lon="-5.281350">
        <ele>1916.0</ele>
        <time>2018-07-29T11:47:54Z</time>
      </trkpt>
      <trkpt lat="40.444450" lon="-5.281433">
        <ele>1915.0</ele>
        <time>2018-07-29T11:47:55Z</time>
      </trkpt>
      <trkpt lat="40.444417" lon="-5.281500">
        <ele>1914.0</ele>
        <time>2018-07-29T11:47:56Z</time>
      </trkpt>
      <trkpt lat="40.444333" lon="-5.281550">
        <ele>1913.0</ele>
        <time>2018-07-29T11:47:57Z</time>
      </trkpt>
      <trkpt lat="40.444250" lon="-5.281583">
        <ele>1914.0</ele>
        <time>2018-07-29T11:47:58Z</time>
      </trkpt>
      <trkpt lat="40.444133" lon="-5.281600">
        <ele>1914.0</ele>
        <time>2018-07-29T11:47:59Z</time>
      </trkpt>
      <trkpt lat="40.444033" lon="-5.281567">
        <ele>1914.0</ele>
        <time>2018-07-29T11:48:00Z</time>
      </trkpt>
      <trkpt lat="40.443950" lon="-5.281550">
        <ele>1913.0</ele>
        <time>2018-07-29T11:48:01Z</time>
      </trkpt>
      <trkpt lat="40.443850" lon="-5.281550">
        <ele>1912.0</ele>
        <time>2018-07-29T11:48:02Z</time>
      </trkpt>
      <trkpt lat="40.443783" lon="-5.281583">
        <ele>1910.0</ele>
        <time>2018-07-29T11:48:03Z</time>
      </trkpt>
      <trkpt lat="40.443717" lon="-5.281650">
        <ele>1908.0</ele>
        <time>2018-07-29T11:48:04Z</time>
      </trkpt>
      <trkpt lat="40.443650" lon="-5.281717">
        <ele>1907.0</ele>
        <time>2018-07-29T11:48:05Z</time>
      </trkpt>
      <trkpt lat="40.443567" lon="-5.281800">
        <ele>1907.0</ele>
        <time>2018-07-29T11:48:06Z</time>
      </trkpt>
      <trkpt lat="40.443500" lon="-5.281867">
        <ele>1907.0</ele>
        <time>2018-07-29T11:48:07Z</time>
      </trkpt>
      <trkpt lat="40.443433" lon="-5.281950">
        <ele>1908.0</ele>
        <time>2018-07-29T11:48:08Z</time>
      </trkpt>
      <trkpt lat="40.443367" lon="-5.282017">
        <ele>1910.0</ele>
        <time>2018-07-29T11:48:09Z</time>
      </trkpt>
      <trkpt lat="40.443300" lon="-5.282050">
        <ele>1912.0</ele>
        <time>2018-07-29T11:48:10Z</time>
      </trkpt>
      <trkpt lat="40.443217" lon="-5.282067">
        <ele>1912.0</ele>
        <time>2018-07-29T11:48:11Z</time>
      </trkpt>
      <trkpt lat="40.443150" lon="-5.282083">
        <ele>1912.0</ele>
        <time>2018-07-29T11:48:12Z</time>
      </trkpt>
      <trkpt lat="40.443083" lon="-5.282133">
        <ele>1911.0</ele>
        <time>2018-07-29T11:48:13Z</time>
      </trkpt>
      <trkpt lat="40.443017" lon="-5.282200">
        <ele>1909.0</ele>
        <time>2018-07-29T11:48:14Z</time>
      </trkpt>
      <trkpt lat="40.442983" lon="-5.282283">
        <ele>1908.0</ele>
        <time>2018-07-29T11:48:15Z</time>
      </trkpt>
      <trkpt lat="40.442933" lon="-5.282367">
        <ele>1909.0</ele>
        <time>2018-07-29T11:48:16Z</time>
      </trkpt>
      <trkpt lat="40.442900" lon="-5.282417">
        <ele>1911.0</ele>
        <time>2018-07-29T11:48:17Z</time>
      </trkpt>
      <trkpt lat="40.442833" lon="-5.282467">
        <ele>1912.0</ele>
        <time>2018-07-29T11:48:18Z</time>
      </trkpt>
      <trkpt lat="40.442783" lon="-5.282500">
        <ele>1911.0</ele>
        <time>2018-07-29T11:48:19Z</time>
      </trkpt>
      <trkpt lat="40.442717" lon="-5.282550">
        <ele>1910.0</ele>
        <time>2018-07-29T11:48:20Z</time>
      </trkpt>
      <trkpt lat="40.442633" lon="-5.282600">
        <ele>1909.0</ele>
        <time>2018-07-29T11:48:21Z</time>
      </trkpt>
      <trkpt lat="40.442567" lon="-5.282667">
        <ele>1909.0</ele>
        <time>2018-07-29T11:48:22Z</time>
      </trkpt>
      <trkpt lat="40.442483" lon="-5.282700">
        <ele>1910.0</ele>
        <time>2018-07-29T11:48:23Z</time>
      </trkpt>
      <trkpt lat="40.442383" lon="-5.282733">
        <ele>1910.0</ele>
        <time>2018-07-29T11:48:24Z</time>
      </trkpt>
      <trkpt lat="40.442300" lon="-5.282767">
        <ele>1909.0</ele>
        <time>2018-07-29T11:48:25Z</time>
      </trkpt>
      <trkpt lat="40.442200" lon="-5.282800">
        <ele>1909.0</ele>
        <time>2018-07-29T11:48:26Z</time>
      </trkpt>
      <trkpt lat="40.442117" lon="-5.282833">
        <ele>1908.0</ele>
        <time>2018-07-29T11:48:27Z</time>
      </trkpt>
      <trkpt lat="40.442017" lon="-5.282867">
        <ele>1908.0</ele>
        <time>2018-07-29T11:48:28Z</time>
      </trkpt>
      <trkpt lat="40.441933" lon="-5.282917">
        <ele>1907.0</ele>
        <time>2018-07-29T11:48:29Z</time>
      </trkpt>
      <trkpt lat="40.441850" lon="-5.282967">
        <ele>1906.0</ele>
        <time>2018-07-29T11:48:30Z</time>
      </trkpt>
      <trkpt lat="40.441767" lon="-5.283033">
        <ele>1905.0</ele>
        <time>2018-07-29T11:48:31Z</time>
      </trkpt>
      <trkpt lat="40.441683" lon="-5.283100">
        <ele>1904.0</ele>
        <time>2018-07-29T11:48:32Z</time>
      </trkpt>
      <trkpt lat="40.441600" lon="-5.283167">
        <ele>1903.0</ele>
        <time>2018-07-29T11:48:33Z</time>
      </trkpt>
      <trkpt lat="40.441500" lon="-5.283250">
        <ele>1902.0</ele>
        <time>2018-07-29T11:48:34Z</time>
      </trkpt>
      <trkpt lat="40.441400" lon="-5.283317">
        <ele>1901.0</ele>
        <time>2018-07-29T11:48:35Z</time>
      </trkpt>
      <trkpt lat="40.441317" lon="-5.283383">
        <ele>1900.0</ele>
        <time>2018-07-29T11:48:36Z</time>
      </trkpt>
      <trkpt lat="40.441200" lon="-5.283450">
        <ele>1900.0</ele>
        <time>2018-07-29T11:48:37Z</time>
      </trkpt>
      <trkpt lat="40.441100" lon="-5.283517">
        <ele>1899.0</ele>
        <time>2018-07-29T11:48:38Z</time>
      </trkpt>
      <trkpt lat="40.441000" lon="-5.283567">
        <ele>1899.0</ele>
        <time>2018-07-29T11:48:39Z</time>
      </trkpt>
      <trkpt lat="40.440900" lon="-5.283633">
        <ele>1899.0</ele>
        <time>2018-07-29T11:48:40Z</time>
      </trkpt>
      <trkpt lat="40.440800" lon="-5.283700">
        <ele>1898.0</ele>
        <time>2018-07-29T11:48:41Z</time>
      </trkpt>
      <trkpt lat="40.440683" lon="-5.283767">
        <ele>1897.0</ele>
        <time>2018-07-29T11:48:42Z</time>
      </trkpt>
      <trkpt lat="40.440583" lon="-5.283833">
        <ele>1897.0</ele>
        <time>2018-07-29T11:48:43Z</time>
      </trkpt>
      <trkpt lat="40.440467" lon="-5.283900">
        <ele>1899.0</ele>
        <time>2018-07-29T11:48:44Z</time>
      </trkpt>
      <trkpt lat="40.440367" lon="-5.283933">
        <ele>1901.0</ele>
        <time>2018-07-29T11:48:45Z</time>
      </trkpt>
      <trkpt lat="40.440267" lon="-5.283983">
        <ele>1904.0</ele>
        <time>2018-07-29T11:48:46Z</time>
      </trkpt>
      <trkpt lat="40.440167" lon="-5.284017">
        <ele>1904.0</ele>
        <time>2018-07-29T11:48:47Z</time>
      </trkpt>
      <trkpt lat="40.440083" lon="-5.284050">
        <ele>1903.0</ele>
        <time>2018-07-29T11:48:48Z</time>
      </trkpt>
      <trkpt lat="40.440000" lon="-5.284100">
        <ele>1902.0</ele>
        <time>2018-07-29T11:48:49Z</time>
      </trkpt>
      <trkpt lat="40.439917" lon="-5.284183">
        <ele>1900.0</ele>
        <time>2018-07-29T11:48:50Z</time>
      </trkpt>
      <trkpt lat="40.439817" lon="-5.284250">
        <ele>1900.0</ele>
        <time>2018-07-29T11:48:51Z</time>
      </trkpt>
      <trkpt lat="40.439700" lon="-5.284333">
        <ele>1902.0</ele>
        <time>2018-07-29T11:48:52Z</time>
      </trkpt>
      <trkpt lat="40.439583" lon="-5.284400">
        <ele>1903.0</ele>
        <time>2018-07-29T11:48:53Z</time>
      </trkpt>
      <trkpt lat="40.439467" lon="-5.284433">
        <ele>1905.0</ele>
        <time>2018-07-29T11:48:54Z</time>
      </trkpt>
      <trkpt lat="40.439350" lon="-5.284467">
        <ele>1908.0</ele>
        <time>2018-07-29T11:48:55Z</time>
      </trkpt>
      <trkpt lat="40.439283" lon="-5.284533">
        <ele>1908.0</ele>
        <time>2018-07-29T11:48:56Z</time>
      </trkpt>
      <trkpt lat="40.439233" lon="-5.284600">
        <ele>1906.0</ele>
        <time>2018-07-29T11:48:57Z</time>
      </trkpt>
      <trkpt lat="40.439233" lon="-5.284683">
        <ele>1903.0</ele>
        <time>2018-07-29T11:48:58Z</time>
      </trkpt>
      <trkpt lat="40.439283" lon="-5.284750">
        <ele>1900.0</ele>
        <time>2018-07-29T11:48:59Z</time>
      </trkpt>
      <trkpt lat="40.439350" lon="-5.284800">
        <ele>1899.0</ele>
        <time>2018-07-29T11:49:00Z</time>
      </trkpt>
      <trkpt lat="40.439433" lon="-5.284767">
        <ele>1898.0</ele>
        <time>2018-07-29T11:49:01Z</time>
      </trkpt>
      <trkpt lat="40.439517" lon="-5.284667">
        <ele>1898.0</ele>
        <time>2018-07-29T11:49:02Z</time>
      </trkpt>
      <trkpt lat="40.439567" lon="-5.284567">
        <ele>1900.0</ele>
        <time>2018-07-29T11:49:03Z</time>
      </trkpt>
      <trkpt lat="40.439600" lon="-5.284450">
        <ele>1903.0</ele>
        <time>2018-07-29T11:49:04Z</time>
      </trkpt>
      <trkpt lat="40.439617" lon="-5.284350">
        <ele>1905.0</ele>
        <time>2018-07-29T11:49:05Z</time>
      </trkpt>
      <trkpt lat="40.439633" lon="-5.284267">
        <ele>1905.0</ele>
        <time>2018-07-29T11:49:06Z</time>
      </trkpt>
      <trkpt lat="40.439667" lon="-5.284183">
        <ele>1905.0</ele>
        <time>2018-07-29T11:49:07Z</time>
      </trkpt>
      <trkpt lat="40.439700" lon="-5.284117">
        <ele>1903.0</ele>
        <time>2018-07-29T11:49:08Z</time>
      </trkpt>
      <trkpt lat="40.439750" lon="-5.284050">
        <ele>1902.0</ele>
        <time>2018-07-29T11:49:09Z</time>
      </trkpt>
      <trkpt lat="40.439800" lon="-5.283983">
        <ele>1902.0</ele>
        <time>2018-07-29T11:49:10Z</time>
      </trkpt>
      <trkpt lat="40.439850" lon="-5.283917">
        <ele>1901.0</ele>
        <time>2018-07-29T11:49:11Z</time>
      </trkpt>
      <trkpt lat="40.439900" lon="-5.283867">
        <ele>1901.0</ele>
        <time>2018-07-29T11:49:12Z</time>
      </trkpt>
      <trkpt lat="40.439967" lon="-5.283850">
        <ele>1901.0</ele>
        <time>2018-07-29T11:49:13Z</time>
      </trkpt>
      <trkpt lat="40.440017" lon="-5.283850">
        <ele>1900.0</ele>
        <time>2018-07-29T11:49:14Z</time>
      </trkpt>
      <trkpt lat="40.440050" lon="-5.283900">
        <ele>1899.0</ele>
        <time>2018-07-29T11:49:15Z</time>
      </trkpt>
      <trkpt lat="40.440067" lon="-5.283983">
        <ele>1898.0</ele>
        <time>2018-07-29T11:49:16Z</time>
      </trkpt>
      <trkpt lat="40.440050" lon="-5.284083">
        <ele>1897.0</ele>
        <time>2018-07-29T11:49:17Z</time>
      </trkpt>
      <trkpt lat="40.440000" lon="-5.284167">
        <ele>1897.0</ele>
        <time>2018-07-29T11:49:18Z</time>
      </trkpt>
      <trkpt lat="40.439917" lon="-5.284250">
        <ele>1896.0</ele>
        <time>2018-07-29T11:49:19Z</time>
      </trkpt>
      <trkpt lat="40.439817" lon="-5.284300">
        <ele>1896.0</ele>
        <time>2018-07-29T11:49:20Z</time>
      </trkpt>
      <trkpt lat="40.439717" lon="-5.284350">
        <ele>1895.0</ele>
        <time>2018-07-29T11:49:21Z</time>
      </trkpt>
      <trkpt lat="40.439600" lon="-5.284383">
        <ele>1895.0</ele>
        <time>2018-07-29T11:49:22Z</time>
      </trkpt>
      <trkpt lat="40.439517" lon="-5.284433">
        <ele>1895.0</ele>
        <time>2018-07-29T11:49:23Z</time>
      </trkpt>
      <trkpt lat="40.439433" lon="-5.284517">
        <ele>1894.0</ele>
        <time>2018-07-29T11:49:24Z</time>
      </trkpt>
      <trkpt lat="40.439367" lon="-5.284600">
        <ele>1892.0</ele>
        <time>2018-07-29T11:49:25Z</time>
      </trkpt>
      <trkpt lat="40.439300" lon="-5.284700">
        <ele>1892.0</ele>
        <time>2018-07-29T11:49:26Z</time>
      </trkpt>
      <trkpt lat="40.439217" lon="-5.284783">
        <ele>1892.0</ele>
        <time>2018-07-29T11:49:27Z</time>
      </trkpt>
      <trkpt lat="40.439150" lon="-5.284867">
        <ele>1893.0</ele>
        <time>2018-07-29T11:49:28Z</time>
      </trkpt>
      <trkpt lat="40.439067" lon="-5.284933">
        <ele>1895.0</ele>
        <time>2018-07-29T11:49:29Z</time>
      </trkpt>
      <trkpt lat="40.438967" lon="-5.284983">
        <ele>1898.0</ele>
        <time>2018-07-29T11:49:30Z</time>
      </trkpt>
      <trkpt lat="40.438883" lon="-5.285017">
        <ele>1900.0</ele>
        <time>2018-07-29T11:49:31Z</time>
      </trkpt>
      <trkpt lat="40.438817" lon="-5.285067">
        <ele>1900.0</ele>
        <time>2018-07-29T11:49:32Z</time>
      </trkpt>
      <trkpt lat="40.438717" lon="-5.285117">
        <ele>1898.0</ele>
        <time>2018-07-29T11:49:33Z</time>
      </trkpt>
      <trkpt lat="40.438633" lon="-5.285183">
        <ele>1897.0</ele>
        <time>2018-07-29T11:49:34Z</time>
      </trkpt>
      <trkpt lat="40.438550" lon="-5.285283">
        <ele>1896.0</ele>
        <time>2018-07-29T11:49:35Z</time>
      </trkpt>
      <trkpt lat="40.438467" lon="-5.285367">
        <ele>1897.0</ele>
        <time>2018-07-29T11:49:36Z</time>
      </trkpt>
      <trkpt lat="40.438383" lon="-5.285450">
        <ele>1899.0</ele>
        <time>2018-07-29T11:49:37Z</time>
      </trkpt>
      <trkpt lat="40.438300" lon="-5.285517">
        <ele>1902.0</ele>
        <time>2018-07-29T11:49:38Z</time>
      </trkpt>
      <trkpt lat="40.438217" lon="-5.285583">
        <ele>1902.0</ele>
        <time>2018-07-29T11:49:39Z</time>
      </trkpt>
      <trkpt lat="40.438117" lon="-5.285633">
        <ele>1902.0</ele>
        <time>2018-07-29T11:49:40Z</time>
      </trkpt>
      <trkpt lat="40.438033" lon="-5.285700">
        <ele>1902.0</ele>
        <time>2018-07-29T11:49:41Z</time>
      </trkpt>
      <trkpt lat="40.437967" lon="-5.285783">
        <ele>1902.0</ele>
        <time>2018-07-29T11:49:42Z</time>
      </trkpt>
      <trkpt lat="40.437917" lon="-5.285867">
        <ele>1902.0</ele>
        <time>2018-07-29T11:49:43Z</time>
      </trkpt>
      <trkpt lat="40.437900" lon="-5.285967">
        <ele>1902.0</ele>
        <time>2018-07-29T11:49:44Z</time>
      </trkpt>
      <trkpt lat="40.437917" lon="-5.286033">
        <ele>1902.0</ele>
        <time>2018-07-29T11:49:45Z</time>
      </trkpt>
      <trkpt lat="40.437967" lon="-5.286050">
        <ele>1902.0</ele>
        <time>2018-07-29T11:49:46Z</time>
      </trkpt>
      <trkpt lat="40.438033" lon="-5.286017">
        <ele>1903.0</ele>
        <time>2018-07-29T11:49:47Z</time>
      </trkpt>
      <trkpt lat="40.438100" lon="-5.285917">
        <ele>1903.0</ele>
        <time>2018-07-29T11:49:48Z</time>
      </trkpt>
      <trkpt lat="40.438133" lon="-5.285817">
        <ele>1904.0</ele>
        <time>2018-07-29T11:49:49Z</time>
      </trkpt>
      <trkpt lat="40.438167" lon="-5.285683">
        <ele>1905.0</ele>
        <time>2018-07-29T11:49:50Z</time>
      </trkpt>
      <trkpt lat="40.438183" lon="-5.285583">
        <ele>1907.0</ele>
        <time>2018-07-29T11:49:51Z</time>
      </trkpt>
      <trkpt lat="40.438217" lon="-5.285483">
        <ele>1909.0</ele>
        <time>2018-07-29T11:49:52Z</time>
      </trkpt>
      <trkpt lat="40.438250" lon="-5.285400">
        <ele>1910.0</ele>
        <time>2018-07-29T11:49:53Z</time>
      </trkpt>
      <trkpt lat="40.438283" lon="-5.285317">
        <ele>1911.0</ele>
        <time>2018-07-29T11:49:54Z</time>
      </trkpt>
      <trkpt lat="40.438333" lon="-5.285200">
        <ele>1912.0</ele>
        <time>2018-07-29T11:49:55Z</time>
      </trkpt>
      <trkpt lat="40.438350" lon="-5.285100">
        <ele>1913.0</ele>
        <time>2018-07-29T11:49:56Z</time>
      </trkpt>
      <trkpt lat="40.438383" lon="-5.285000">
        <ele>1914.0</ele>
        <time>2018-07-29T11:49:57Z</time>
      </trkpt>
      <trkpt lat="40.438383" lon="-5.284917">
        <ele>1915.0</ele>
        <time>2018-07-29T11:49:58Z</time>
      </trkpt>
      <trkpt lat="40.438417" lon="-5.284833">
        <ele>1914.0</ele>
        <time>2018-07-29T11:49:59Z</time>
      </trkpt>
      <trkpt lat="40.438467" lon="-5.284783">
        <ele>1913.0</ele>
        <time>2018-07-29T11:50:00Z</time>
      </trkpt>
      <trkpt lat="40.438517" lon="-5.284750">
        <ele>1912.0</ele>
        <time>2018-07-29T11:50:01Z</time>
      </trkpt>
      <trkpt lat="40.438550" lon="-5.284783">
        <ele>1912.0</ele>
        <time>2018-07-29T11:50:02Z</time>
      </trkpt>
      <trkpt lat="40.438567" lon="-5.284867">
        <ele>1912.0</ele>
        <time>2018-07-29T11:50:03Z</time>
      </trkpt>
      <trkpt lat="40.438517" lon="-5.284967">
        <ele>1912.0</ele>
        <time>2018-07-29T11:50:04Z</time>
      </trkpt>
      <trkpt lat="40.438433" lon="-5.285050">
        <ele>1913.0</ele>
        <time>2018-07-29T11:50:05Z</time>
      </trkpt>
      <trkpt lat="40.438333" lon="-5.285100">
        <ele>1914.0</ele>
        <time>2018-07-29T11:50:06Z</time>
      </trkpt>
      <trkpt lat="40.438217" lon="-5.285117">
        <ele>1915.0</ele>
        <time>2018-07-29T11:50:07Z</time>
      </trkpt>
      <trkpt lat="40.438117" lon="-5.285150">
        <ele>1916.0</ele>
        <time>2018-07-29T11:50:08Z</time>
      </trkpt>
      <trkpt lat="40.438033" lon="-5.285183">
        <ele>1915.0</ele>
        <time>2018-07-29T11:50:09Z</time>
      </trkpt>
      <trkpt lat="40.437950" lon="-5.285250">
        <ele>1914.0</ele>
        <time>2018-07-29T11:50:10Z</time>
      </trkpt>
      <trkpt lat="40.437867" lon="-5.285350">
        <ele>1913.0</ele>
        <time>2018-07-29T11:50:11Z</time>
      </trkpt>
      <trkpt lat="40.437783" lon="-5.285450">
        <ele>1914.0</ele>
        <time>2018-07-29T11:50:12Z</time>
      </trkpt>
      <trkpt lat="40.437683" lon="-5.285550">
        <ele>1916.0</ele>
        <time>2018-07-29T11:50:13Z</time>
      </trkpt>
      <trkpt lat="40.437600" lon="-5.285600">
        <ele>1919.0</ele>
        <time>2018-07-29T11:50:14Z</time>
      </trkpt>
      <trkpt lat="40.437500" lon="-5.285650">
        <ele>1922.0</ele>
        <time>2018-07-29T11:50:15Z</time>
      </trkpt>
      <trkpt lat="40.437417" lon="-5.285683">
        <ele>1924.0</ele>
        <time>2018-07-29T11:50:16Z</time>
      </trkpt>
      <trkpt lat="40.437350" lon="-5.285717">
        <ele>1926.0</ele>
        <time>2018-07-29T11:50:17Z</time>
      </trkpt>
      <trkpt lat="40.437283" lon="-5.285767">
        <ele>1926.0</ele>
        <time>2018-07-29T11:50:18Z</time>
      </trkpt>
      <trkpt lat="40.437250" lon="-5.285833">
        <ele>1926.0</ele>
        <time>2018-07-29T11:50:19Z</time>
      </trkpt>
      <trkpt lat="40.437250" lon="-5.285933">
        <ele>1926.0</ele>
        <time>2018-07-29T11:50:20Z</time>
      </trkpt>
      <trkpt lat="40.437283" lon="-5.286000">
        <ele>1927.0</ele>
        <time>2018-07-29T11:50:21Z</time>
      </trkpt>
      <trkpt lat="40.437333" lon="-5.286050">
        <ele>1928.0</ele>
        <time>2018-07-29T11:50:22Z</time>
      </trkpt>
      <trkpt lat="40.437400" lon="-5.286050">
        <ele>1930.0</ele>
        <time>2018-07-29T11:50:23Z</time>
      </trkpt>
      <trkpt lat="40.437483" lon="-5.286000">
        <ele>1931.0</ele>
        <time>2018-07-29T11:50:24Z</time>
      </trkpt>
      <trkpt lat="40.437550" lon="-5.285917">
        <ele>1933.0</ele>
        <time>2018-07-29T11:50:25Z</time>
      </trkpt>
      <trkpt lat="40.437600" lon="-5.285800">
        <ele>1935.0</ele>
        <time>2018-07-29T11:50:26Z</time>
      </trkpt>
      <trkpt lat="40.437617" lon="-5.285650">
        <ele>1938.0</ele>
        <time>2018-07-29T11:50:27Z</time>
      </trkpt>
      <trkpt lat="40.437617" lon="-5.285500">
        <ele>1940.0</ele>
        <time>2018-07-29T11:50:28Z</time>
      </trkpt>
      <trkpt lat="40.437567" lon="-5.285367">
        <ele>1942.0</ele>
        <time>2018-07-29T11:50:29Z</time>
      </trkpt>
      <trkpt lat="40.437550" lon="-5.285233">
        <ele>1944.0</ele>
        <time>2018-07-29T11:50:30Z</time>
      </trkpt>
      <trkpt lat="40.437550" lon="-5.285117">
        <ele>1945.0</ele>
        <time>2018-07-29T11:50:31Z</time>
      </trkpt>
      <trkpt lat="40.437583" lon="-5.284983">
        <ele>1942.0</ele>
        <time>2018-07-29T11:50:32Z</time>
      </trkpt>
      <trkpt lat="40.437633" lon="-5.284883">
        <ele>1939.0</ele>
        <time>2018-07-29T11:50:33Z</time>
      </trkpt>
      <trkpt lat="40.437700" lon="-5.284800">
        <ele>1939.0</ele>
        <time>2018-07-29T11:50:34Z</time>
      </trkpt>
      <trkpt lat="40.437767" lon="-5.284783">
        <ele>1939.0</ele>
        <time>2018-07-29T11:50:35Z</time>
      </trkpt>
      <trkpt lat="40.437800" lon="-5.284800">
        <ele>1938.0</ele>
        <time>2018-07-29T11:50:36Z</time>
      </trkpt>
      <trkpt lat="40.437817" lon="-5.284883">
        <ele>1936.0</ele>
        <time>2018-07-29T11:50:37Z</time>
      </trkpt>
      <trkpt lat="40.437783" lon="-5.284983">
        <ele>1933.0</ele>
        <time>2018-07-29T11:50:38Z</time>
      </trkpt>
      <trkpt lat="40.437733" lon="-5.285083">
        <ele>1932.0</ele>
        <time>2018-07-29T11:50:39Z</time>
      </trkpt>
      <trkpt lat="40.437650" lon="-5.285167">
        <ele>1932.0</ele>
        <time>2018-07-29T11:50:40Z</time>
      </trkpt>
      <trkpt lat="40.437567" lon="-5.285233">
        <ele>1933.0</ele>
        <time>2018-07-29T11:50:41Z</time>
      </trkpt>
      <trkpt lat="40.437483" lon="-5.285283">
        <ele>1936.0</ele>
        <time>2018-07-29T11:50:42Z</time>
      </trkpt>
      <trkpt lat="40.437417" lon="-5.285333">
        <ele>1939.0</ele>
        <time>2018-07-29T11:50:43Z</time>
      </trkpt>
      <trkpt lat="40.437333" lon="-5.285367">
        <ele>1942.0</ele>
        <time>2018-07-29T11:50:44Z</time>
      </trkpt>
      <trkpt lat="40.437267" lon="-5.285400">
        <ele>1944.0</ele>
        <time>2018-07-29T11:50:45Z</time>
      </trkpt>
      <trkpt lat="40.437183" lon="-5.285417">
        <ele>1945.0</ele>
        <time>2018-07-29T11:50:46Z</time>
      </trkpt>
      <trkpt lat="40.437083" lon="-5.285433">
        <ele>1945.0</ele>
        <time>2018-07-29T11:50:47Z</time>
      </trkpt>
      <trkpt lat="40.436983" lon="-5.285433">
        <ele>1946.0</ele>
        <time>2018-07-29T11:50:48Z</time>
      </trkpt>
      <trkpt lat="40.436883" lon="-5.285450">
        <ele>1947.0</ele>
        <time>2018-07-29T11:50:49Z</time>
      </trkpt>
      <trkpt lat="40.436783" lon="-5.285467">
        <ele>1948.0</ele>
        <time>2018-07-29T11:50:50Z</time>
      </trkpt>
      <trkpt lat="40.436700" lon="-5.285517">
        <ele>1950.0</ele>
        <time>2018-07-29T11:50:51Z</time>
      </trkpt>
      <trkpt lat="40.436633" lon="-5.285550">
        <ele>1951.0</ele>
        <time>2018-07-29T11:50:52Z</time>
      </trkpt>
      <trkpt lat="40.436567" lon="-5.285600">
        <ele>1953.0</ele>
        <time>2018-07-29T11:50:53Z</time>
      </trkpt>
      <trkpt lat="40.436483" lon="-5.285633">
        <ele>1955.0</ele>
        <time>2018-07-29T11:50:54Z</time>
      </trkpt>
      <trkpt lat="40.436433" lon="-5.285683">
        <ele>1956.0</ele>
        <time>2018-07-29T11:50:55Z</time>
      </trkpt>
      <trkpt lat="40.436400" lon="-5.285717">
        <ele>1957.0</ele>
        <time>2018-07-29T11:50:56Z</time>
      </trkpt>
      <trkpt lat="40.436400" lon="-5.285767">
        <ele>1956.0</ele>
        <time>2018-07-29T11:50:57Z</time>
      </trkpt>
      <trkpt lat="40.436417" lon="-5.285800">
        <ele>1955.0</ele>
        <time>2018-07-29T11:50:58Z</time>
      </trkpt>
      <trkpt lat="40.436483" lon="-5.285817">
        <ele>1953.0</ele>
        <time>2018-07-29T11:50:59Z</time>
      </trkpt>
      <trkpt lat="40.436567" lon="-5.285800">
        <ele>1951.0</ele>
        <time>2018-07-29T11:51:00Z</time>
      </trkpt>
      <trkpt lat="40.436633" lon="-5.285750">
        <ele>1951.0</ele>
        <time>2018-07-29T11:51:01Z</time>
      </trkpt>
      <trkpt lat="40.436717" lon="-5.285650">
        <ele>1950.0</ele>
        <time>2018-07-29T11:51:02Z</time>
      </trkpt>
      <trkpt lat="40.436783" lon="-5.285550">
        <ele>1950.0</ele>
        <time>2018-07-29T11:51:03Z</time>
      </trkpt>
      <trkpt lat="40.436867" lon="-5.285433">
        <ele>1951.0</ele>
        <time>2018-07-29T11:51:04Z</time>
      </trkpt>
      <trkpt lat="40.436933" lon="-5.285350">
        <ele>1952.0</ele>
        <time>2018-07-29T11:51:05Z</time>
      </trkpt>
      <trkpt lat="40.437000" lon="-5.285250">
        <ele>1954.0</ele>
        <time>2018-07-29T11:51:06Z</time>
      </trkpt>
      <trkpt lat="40.437067" lon="-5.285167">
        <ele>1956.0</ele>
        <time>2018-07-29T11:51:07Z</time>
      </trkpt>
      <trkpt lat="40.437133" lon="-5.285100">
        <ele>1958.0</ele>
        <time>2018-07-29T11:51:08Z</time>
      </trkpt>
      <trkpt lat="40.437200" lon="-5.285033">
        <ele>1960.0</ele>
        <time>2018-07-29T11:51:09Z</time>
      </trkpt>
      <trkpt lat="40.437267" lon="-5.284967">
        <ele>1961.0</ele>
        <time>2018-07-29T11:51:10Z</time>
      </trkpt>
      <trkpt lat="40.437333" lon="-5.284917">
        <ele>1963.0</ele>
        <time>2018-07-29T11:51:11Z</time>
      </trkpt>
      <trkpt lat="40.437400" lon="-5.284867">
        <ele>1966.0</ele>
        <time>2018-07-29T11:51:12Z</time>
      </trkpt>
      <trkpt lat="40.437450" lon="-5.284833">
        <ele>1968.0</ele>
        <time>2018-07-29T11:51:13Z</time>
      </trkpt>
      <trkpt lat="40.437483" lon="-5.284833">
        <ele>1970.0</ele>
        <time>2018-07-29T11:51:14Z</time>
      </trkpt>
      <trkpt lat="40.437500" lon="-5.284883">
        <ele>1970.0</ele>
        <time>2018-07-29T11:51:15Z</time>
      </trkpt>
      <trkpt lat="40.437500" lon="-5.284950">
        <ele>1970.0</ele>
        <time>2018-07-29T11:51:16Z</time>
      </trkpt>
      <trkpt lat="40.437467" lon="-5.285050">
        <ele>1969.0</ele>
        <time>2018-07-29T11:51:17Z</time>
      </trkpt>
      <trkpt lat="40.437400" lon="-5.285133">
        <ele>1971.0</ele>
        <time>2018-07-29T11:51:18Z</time>
      </trkpt>
      <trkpt lat="40.437317" lon="-5.285200">
        <ele>1973.0</ele>
        <time>2018-07-29T11:51:19Z</time>
      </trkpt>
      <trkpt lat="40.437200" lon="-5.285200">
        <ele>1975.0</ele>
        <time>2018-07-29T11:51:20Z</time>
      </trkpt>
      <trkpt lat="40.437067" lon="-5.285150">
        <ele>1976.0</ele>
        <time>2018-07-29T11:51:21Z</time>
      </trkpt>
      <trkpt lat="40.436950" lon="-5.285033">
        <ele>1977.0</ele>
        <time>2018-07-29T11:51:22Z</time>
      </trkpt>
      <trkpt lat="40.436867" lon="-5.284900">
        <ele>1981.0</ele>
        <time>2018-07-29T11:51:23Z</time>
      </trkpt>
      <trkpt lat="40.436817" lon="-5.284733">
        <ele>1985.0</ele>
        <time>2018-07-29T11:51:24Z</time>
      </trkpt>
      <trkpt lat="40.436800" lon="-5.284583">
        <ele>1987.0</ele>
        <time>2018-07-29T11:51:25Z</time>
      </trkpt>
      <trkpt lat="40.436817" lon="-5.284433">
        <ele>1989.0</ele>
        <time>2018-07-29T11:51:26Z</time>
      </trkpt>
      <trkpt lat="40.436850" lon="-5.284283">
        <ele>1990.0</ele>
        <time>2018-07-29T11:51:27Z</time>
      </trkpt>
      <trkpt lat="40.436900" lon="-5.284167">
        <ele>1991.0</ele>
        <time>2018-07-29T11:51:28Z</time>
      </trkpt>
      <trkpt lat="40.436950" lon="-5.284083">
        <ele>1993.0</ele>
        <time>2018-07-29T11:51:29Z</time>
      </trkpt>
      <trkpt lat="40.436983" lon="-5.284050">
        <ele>1993.0</ele>
        <time>2018-07-29T11:51:30Z</time>
      </trkpt>
      <trkpt lat="40.437033" lon="-5.284050">
        <ele>1992.0</ele>
        <time>2018-07-29T11:51:31Z</time>
      </trkpt>
      <trkpt lat="40.437067" lon="-5.284067">
        <ele>1989.0</ele>
        <time>2018-07-29T11:51:32Z</time>
      </trkpt>
      <trkpt lat="40.437100" lon="-5.284133">
        <ele>1986.0</ele>
        <time>2018-07-29T11:51:33Z</time>
      </trkpt>
      <trkpt lat="40.437117" lon="-5.284233">
        <ele>1985.0</ele>
        <time>2018-07-29T11:51:34Z</time>
      </trkpt>
      <trkpt lat="40.437117" lon="-5.284333">
        <ele>1986.0</ele>
        <time>2018-07-29T11:51:35Z</time>
      </trkpt>
      <trkpt lat="40.437117" lon="-5.284433">
        <ele>1990.0</ele>
        <time>2018-07-29T11:51:36Z</time>
      </trkpt>
      <trkpt lat="40.437133" lon="-5.284483">
        <ele>1993.0</ele>
        <time>2018-07-29T11:51:37Z</time>
      </trkpt>
      <trkpt lat="40.437150" lon="-5.284517">
        <ele>1995.0</ele>
        <time>2018-07-29T11:51:38Z</time>
      </trkpt>
      <trkpt lat="40.437183" lon="-5.284550">
        <ele>1996.0</ele>
        <time>2018-07-29T11:51:39Z</time>
      </trkpt>
      <trkpt lat="40.437200" lon="-5.284617">
        <ele>1996.0</ele>
        <time>2018-07-29T11:51:40Z</time>
      </trkpt>
      <trkpt lat="40.437233" lon="-5.284683">
        <ele>1996.0</ele>
        <time>2018-07-29T11:51:41Z</time>
      </trkpt>
      <trkpt lat="40.437250" lon="-5.284750">
        <ele>1996.0</ele>
        <time>2018-07-29T11:51:42Z</time>
      </trkpt>
      <trkpt lat="40.437283" lon="-5.284833">
        <ele>1997.0</ele>
        <time>2018-07-29T11:51:43Z</time>
      </trkpt>
      <trkpt lat="40.437300" lon="-5.284900">
        <ele>1999.0</ele>
        <time>2018-07-29T11:51:44Z</time>
      </trkpt>
      <trkpt lat="40.437333" lon="-5.284950">
        <ele>2001.0</ele>
        <time>2018-07-29T11:51:45Z</time>
      </trkpt>
      <trkpt lat="40.437350" lon="-5.285000">
        <ele>2002.0</ele>
        <time>2018-07-29T11:51:46Z</time>
      </trkpt>
      <trkpt lat="40.437367" lon="-5.285067">
        <ele>2002.0</ele>
        <time>2018-07-29T11:51:47Z</time>
      </trkpt>
      <trkpt lat="40.437367" lon="-5.285167">
        <ele>2003.0</ele>
        <time>2018-07-29T11:51:48Z</time>
      </trkpt>
      <trkpt lat="40.437350" lon="-5.285267">
        <ele>2005.0</ele>
        <time>2018-07-29T11:51:49Z</time>
      </trkpt>
      <trkpt lat="40.437333" lon="-5.285350">
        <ele>2007.0</ele>
        <time>2018-07-29T11:51:50Z</time>
      </trkpt>
      <trkpt lat="40.437300" lon="-5.285450">
        <ele>2009.0</ele>
        <time>2018-07-29T11:51:51Z</time>
      </trkpt>
      <trkpt lat="40.437233" lon="-5.285533">
        <ele>2012.0</ele>
        <time>2018-07-29T11:51:52Z</time>
      </trkpt>
      <trkpt lat="40.437150" lon="-5.285583">
        <ele>2013.0</ele>
        <time>2018-07-29T11:51:53Z</time>
      </trkpt>
      <trkpt lat="40.437050" lon="-5.285600">
        <ele>2014.0</ele>
        <time>2018-07-29T11:51:54Z</time>
      </trkpt>
      <trkpt lat="40.436917" lon="-5.285583">
        <ele>2013.0</ele>
        <time>2018-07-29T11:51:55Z</time>
      </trkpt>
      <trkpt lat="40.436783" lon="-5.285500">
        <ele>2014.0</ele>
        <time>2018-07-29T11:51:56Z</time>
      </trkpt>
      <trkpt lat="40.436667" lon="-5.285383">
        <ele>2015.0</ele>
        <time>2018-07-29T11:51:57Z</time>
      </trkpt>
      <trkpt lat="40.436567" lon="-5.285233">
        <ele>2016.0</ele>
        <time>2018-07-29T11:51:58Z</time>
      </trkpt>
      <trkpt lat="40.436517" lon="-5.285050">
        <ele>2017.0</ele>
        <time>2018-07-29T11:51:59Z</time>
      </trkpt>
      <trkpt lat="40.436483" lon="-5.284883">
        <ele>2018.0</ele>
        <time>2018-07-29T11:52:00Z</time>
      </trkpt>
      <trkpt lat="40.436467" lon="-5.284717">
        <ele>2019.0</ele>
        <time>2018-07-29T11:52:01Z</time>
      </trkpt>
      <trkpt lat="40.436500" lon="-5.284567">
        <ele>2019.0</ele>
        <time>2018-07-29T11:52:02Z</time>
      </trkpt>
      <trkpt lat="40.436550" lon="-5.284433">
        <ele>2020.0</ele>
        <time>2018-07-29T11:52:03Z</time>
      </trkpt>
      <trkpt lat="40.436617" lon="-5.284317">
        <ele>2021.0</ele>
        <time>2018-07-29T11:52:04Z</time>
      </trkpt>
      <trkpt lat="40.436683" lon="-5.284250">
        <ele>2022.0</ele>
        <time>2018-07-29T11:52:05Z</time>
      </trkpt>
      <trkpt lat="40.436767" lon="-5.284183">
        <ele>2023.0</ele>
        <time>2018-07-29T11:52:06Z</time>
      </trkpt>
      <trkpt lat="40.436833" lon="-5.284150">
        <ele>2025.0</ele>
        <time>2018-07-29T11:52:07Z</time>
      </trkpt>
      <trkpt lat="40.436900" lon="-5.284150">
        <ele>2026.0</ele>
        <time>2018-07-29T11:52:08Z</time>
      </trkpt>
      <trkpt lat="40.436967" lon="-5.284150">
        <ele>2028.0</ele>
        <time>2018-07-29T11:52:09Z</time>
      </trkpt>
      <trkpt lat="40.437000" lon="-5.284200">
        <ele>2028.0</ele>
        <time>2018-07-29T11:52:10Z</time>
      </trkpt>
      <trkpt lat="40.437033" lon="-5.284267">
        <ele>2029.0</ele>
        <time>2018-07-29T11:52:11Z</time>
      </trkpt>
      <trkpt lat="40.437033" lon="-5.284350">
        <ele>2030.0</ele>
        <time>2018-07-29T11:52:12Z</time>
      </trkpt>
      <trkpt lat="40.437017" lon="-5.284433">
        <ele>2030.0</ele>
        <time>2018-07-29T11:52:13Z</time>
      </trkpt>
      <trkpt lat="40.436967" lon="-5.284533">
        <ele>2031.0</ele>
        <time>2018-07-29T11:52:14Z</time>
      </trkpt>
      <trkpt lat="40.436883" lon="-5.284617">
        <ele>2032.0</ele>
        <time>2018-07-29T11:52:15Z</time>
      </trkpt>
      <trkpt lat="40.436767" lon="-5.284667">
        <ele>2033.0</ele>
        <time>2018-07-29T11:52:16Z</time>
      </trkpt>
      <trkpt lat="40.436633" lon="-5.284683">
        <ele>2036.0</ele>
        <time>2018-07-29T11:52:17Z</time>
      </trkpt>
      <trkpt lat="40.436500" lon="-5.284650">
        <ele>2040.0</ele>
        <time>2018-07-29T11:52:18Z</time>
      </trkpt>
      <trkpt lat="40.436383" lon="-5.284583">
        <ele>2043.0</ele>
        <time>2018-07-29T11:52:19Z</time>
      </trkpt>
      <trkpt lat="40.436283" lon="-5.284483">
        <ele>2045.0</ele>
        <time>2018-07-29T11:52:20Z</time>
      </trkpt>
      <trkpt lat="40.436183" lon="-5.284367">
        <ele>2046.0</ele>
        <time>2018-07-29T11:52:21Z</time>
      </trkpt>
      <trkpt lat="40.436117" lon="-5.284217">
        <ele>2047.0</ele>
        <time>2018-07-29T11:52:22Z</time>
      </trkpt>
      <trkpt lat="40.436067" lon="-5.284050">
        <ele>2048.0</ele>
        <time>2018-07-29T11:52:23Z</time>
      </trkpt>
      <trkpt lat="40.436050" lon="-5.283867">
        <ele>2049.0</ele>
        <time>2018-07-29T11:52:24Z</time>
      </trkpt>
      <trkpt lat="40.436067" lon="-5.283700">
        <ele>2050.0</ele>
        <time>2018-07-29T11:52:25Z</time>
      </trkpt>
      <trkpt lat="40.436100" lon="-5.283567">
        <ele>2052.0</ele>
        <time>2018-07-29T11:52:26Z</time>
      </trkpt>
      <trkpt lat="40.436167" lon="-5.283450">
        <ele>2053.0</ele>
        <time>2018-07-29T11:52:27Z</time>
      </trkpt>
      <trkpt lat="40.436217" lon="-5.283367">
        <ele>2055.0</ele>
        <time>2018-07-29T11:52:28Z</time>
      </trkpt>
      <trkpt lat="40.436300" lon="-5.283317">
        <ele>2057.0</ele>
        <time>2018-07-29T11:52:29Z</time>
      </trkpt>
      <trkpt lat="40.436367" lon="-5.283300">
        <ele>2059.0</ele>
        <time>2018-07-29T11:52:30Z</time>
      </trkpt>
      <trkpt lat="40.436433" lon="-5.283317">
        <ele>2061.0</ele>
        <time>2018-07-29T11:52:31Z</time>
      </trkpt>
      <trkpt lat="40.436483" lon="-5.283350">
        <ele>2064.0</ele>
        <time>2018-07-29T11:52:32Z</time>
      </trkpt>
      <trkpt lat="40.436500" lon="-5.283417">
        <ele>2067.0</ele>
        <time>2018-07-29T11:52:33Z</time>
      </trkpt>
      <trkpt lat="40.436483" lon="-5.283483">
        <ele>2068.0</ele>
        <time>2018-07-29T11:52:34Z</time>
      </trkpt>
      <trkpt lat="40.436467" lon="-5.283567">
        <ele>2069.0</ele>
        <time>2018-07-29T11:52:35Z</time>
      </trkpt>
      <trkpt lat="40.436417" lon="-5.283650">
        <ele>2070.0</ele>
        <time>2018-07-29T11:52:36Z</time>
      </trkpt>
      <trkpt lat="40.436333" lon="-5.283717">
        <ele>2072.0</ele>
        <time>2018-07-29T11:52:37Z</time>
      </trkpt>
      <trkpt lat="40.436233" lon="-5.283767">
        <ele>2074.0</ele>
        <time>2018-07-29T11:52:38Z</time>
      </trkpt>
      <trkpt lat="40.436117" lon="-5.283767">
        <ele>2076.0</ele>
        <time>2018-07-29T11:52:39Z</time>
      </trkpt>
      <trkpt lat="40.435983" lon="-5.283700">
        <ele>2077.0</ele>
        <time>2018-07-29T11:52:40Z</time>
      </trkpt>
      <trkpt lat="40.435867" lon="-5.283600">
        <ele>2079.0</ele>
        <time>2018-07-29T11:52:41Z</time>
      </trkpt>
      <trkpt lat="40.435767" lon="-5.283467">
        <ele>2080.0</ele>
        <time>2018-07-29T11:52:42Z</time>
      </trkpt>
      <trkpt lat="40.435700" lon="-5.283317">
        <ele>2082.0</ele>
        <time>2018-07-29T11:52:43Z</time>
      </trkpt>
      <trkpt lat="40.435667" lon="-5.283167">
        <ele>2084.0</ele>
        <time>2018-07-29T11:52:44Z</time>
      </trkpt>
      <trkpt lat="40.435650" lon="-5.283017">
        <ele>2086.0</ele>
        <time>2018-07-29T11:52:45Z</time>
      </trkpt>
      <trkpt lat="40.435667" lon="-5.282867">
        <ele>2087.0</ele>
        <time>2018-07-29T11:52:46Z</time>
      </trkpt>
      <trkpt lat="40.435700" lon="-5.282717">
        <ele>2088.0</ele>
        <time>2018-07-29T11:52:47Z</time>
      </trkpt>
      <trkpt lat="40.435750" lon="-5.282600">
        <ele>2089.0</ele>
        <time>2018-07-29T11:52:48Z</time>
      </trkpt>
      <trkpt lat="40.435800" lon="-5.282500">
        <ele>2091.0</ele>
        <time>2018-07-29T11:52:49Z</time>
      </trkpt>
      <trkpt lat="40.435867" lon="-5.282417">
        <ele>2095.0</ele>
        <time>2018-07-29T11:52:50Z</time>
      </trkpt>
      <trkpt lat="40.435917" lon="-5.282383">
        <ele>2099.0</ele>
        <time>2018-07-29T11:52:51Z</time>
      </trkpt>
      <trkpt lat="40.435983" lon="-5.282383">
        <ele>2101.0</ele>
        <time>2018-07-29T11:52:52Z</time>
      </trkpt>
      <trkpt lat="40.436033" lon="-5.282400">
        <ele>2103.0</ele>
        <time>2018-07-29T11:52:53Z</time>
      </trkpt>
      <trkpt lat="40.436067" lon="-5.282450">
        <ele>2104.0</ele>
        <time>2018-07-29T11:52:54Z</time>
      </trkpt>
      <trkpt lat="40.436117" lon="-5.282483">
        <ele>2106.0</ele>
        <time>2018-07-29T11:52:55Z</time>
      </trkpt>
      <trkpt lat="40.436150" lon="-5.282533">
        <ele>2108.0</ele>
        <time>2018-07-29T11:52:56Z</time>
      </trkpt>
      <trkpt lat="40.436167" lon="-5.282583">
        <ele>2109.0</ele>
        <time>2018-07-29T11:52:57Z</time>
      </trkpt>
      <trkpt lat="40.436167" lon="-5.282667">
        <ele>2109.0</ele>
        <time>2018-07-29T11:52:58Z</time>
      </trkpt>
      <trkpt lat="40.436117" lon="-5.282767">
        <ele>2107.0</ele>
        <time>2018-07-29T11:52:59Z</time>
      </trkpt>
      <trkpt lat="40.436017" lon="-5.282850">
        <ele>2106.0</ele>
        <time>2018-07-29T11:53:00Z</time>
      </trkpt>
      <trkpt lat="40.435900" lon="-5.282883">
        <ele>2106.0</ele>
        <time>2018-07-29T11:53:01Z</time>
      </trkpt>
      <trkpt lat="40.435767" lon="-5.282883">
        <ele>2108.0</ele>
        <time>2018-07-29T11:53:02Z</time>
      </trkpt>
      <trkpt lat="40.435650" lon="-5.282833">
        <ele>2109.0</ele>
        <time>2018-07-29T11:53:03Z</time>
      </trkpt>
      <trkpt lat="40.435533" lon="-5.282717">
        <ele>2111.0</ele>
        <time>2018-07-29T11:53:04Z</time>
      </trkpt>
      <trkpt lat="40.435450" lon="-5.282567">
        <ele>2112.0</ele>
        <time>2018-07-29T11:53:05Z</time>
      </trkpt>
      <trkpt lat="40.435417" lon="-5.282400">
        <ele>2113.0</ele>
        <time>2018-07-29T11:53:06Z</time>
      </trkpt>
      <trkpt lat="40.435400" lon="-5.282233">
        <ele>2116.0</ele>
        <time>2018-07-29T11:53:07Z</time>
      </trkpt>
      <trkpt lat="40.435433" lon="-5.282100">
        <ele>2119.0</ele>
        <time>2018-07-29T11:53:08Z</time>
      </trkpt>
      <trkpt lat="40.435467" lon="-5.281983">
        <ele>2122.0</ele>
        <time>2018-07-29T11:53:09Z</time>
      </trkpt>
      <trkpt lat="40.435517" lon="-5.281900">
        <ele>2124.0</ele>
        <time>2018-07-29T11:53:10Z</time>
      </trkpt>
      <trkpt lat="40.435567" lon="-5.281833">
        <ele>2126.0</ele>
        <time>2018-07-29T11:53:11Z</time>
      </trkpt>
      <trkpt lat="40.435633" lon="-5.281767">
        <ele>2128.0</ele>
        <time>2018-07-29T11:53:12Z</time>
      </trkpt>
      <trkpt lat="40.435700" lon="-5.281700">
        <ele>2130.0</ele>
        <time>2018-07-29T11:53:13Z</time>
      </trkpt>
      <trkpt lat="40.435750" lon="-5.281650">
        <ele>2132.0</ele>
        <time>2018-07-29T11:53:14Z</time>
      </trkpt>
      <trkpt lat="40.435817" lon="-5.281633">
        <ele>2133.0</ele>
        <time>2018-07-29T11:53:15Z</time>
      </trkpt>
      <trkpt lat="40.435867" lon="-5.281617">
        <ele>2133.0</ele>
        <time>2018-07-29T11:53:16Z</time>
      </trkpt>
      <trkpt lat="40.435900" lon="-5.281650">
        <ele>2132.0</ele>
        <time>2018-07-29T11:53:17Z</time>
      </trkpt>
      <trkpt lat="40.435933" lon="-5.281700">
        <ele>2130.0</ele>
        <time>2018-07-29T11:53:18Z</time>
      </trkpt>
      <trkpt lat="40.435967" lon="-5.281767">
        <ele>2129.0</ele>
        <time>2018-07-29T11:53:19Z</time>
      </trkpt>
      <trkpt lat="40.435983" lon="-5.281833">
        <ele>2128.0</ele>
        <time>2018-07-29T11:53:20Z</time>
      </trkpt>
      <trkpt lat="40.435983" lon="-5.281917">
        <ele>2127.0</ele>
        <time>2018-07-29T11:53:21Z</time>
      </trkpt>
      <trkpt lat="40.435983" lon="-5.282000">
        <ele>2126.0</ele>
        <time>2018-07-29T11:53:22Z</time>
      </trkpt>
      <trkpt lat="40.435967" lon="-5.282100">
        <ele>2127.0</ele>
        <time>2018-07-29T11:53:23Z</time>
      </trkpt>
      <trkpt lat="40.435967" lon="-5.282183">
        <ele>2128.0</ele>
        <time>2018-07-29T11:53:24Z</time>
      </trkpt>
      <trkpt lat="40.435983" lon="-5.282267">
        <ele>2131.0</ele>
        <time>2018-07-29T11:53:25Z</time>
      </trkpt>
      <trkpt lat="40.436000" lon="-5.282333">
        <ele>2133.0</ele>
        <time>2018-07-29T11:53:26Z</time>
      </trkpt>
      <trkpt lat="40.436017" lon="-5.282400">
        <ele>2136.0</ele>
        <time>2018-07-29T11:53:27Z</time>
      </trkpt>
      <trkpt lat="40.436017" lon="-5.282467">
        <ele>2137.0</ele>
        <time>2018-07-29T11:53:28Z</time>
      </trkpt>
      <trkpt lat="40.436017" lon="-5.282533">
        <ele>2138.0</ele>
        <time>2018-07-29T11:53:29Z</time>
      </trkpt>
      <trkpt lat="40.436017" lon="-5.282583">
        <ele>2138.0</ele>
        <time>2018-07-29T11:53:30Z</time>
      </trkpt>
      <trkpt lat="40.436033" lon="-5.282650">
        <ele>2138.0</ele>
        <time>2018-07-29T11:53:31Z</time>
      </trkpt>
      <trkpt lat="40.436050" lon="-5.282717">
        <ele>2137.0</ele>
        <time>2018-07-29T11:53:32Z</time>
      </trkpt>
      <trkpt lat="40.436083" lon="-5.282783">
        <ele>2136.0</ele>
        <time>2018-07-29T11:53:33Z</time>
      </trkpt>
      <trkpt lat="40.436100" lon="-5.282850">
        <ele>2136.0</ele>
        <time>2018-07-29T11:53:34Z</time>
      </trkpt>
      <trkpt lat="40.436100" lon="-5.282933">
        <ele>2137.0</ele>
        <time>2018-07-29T11:53:35Z</time>
      </trkpt>
      <trkpt lat="40.436100" lon="-5.283017">
        <ele>2138.0</ele>
        <time>2018-07-29T11:53:36Z</time>
      </trkpt>
      <trkpt lat="40.436100" lon="-5.283083">
        <ele>2139.0</ele>
        <time>2018-07-29T11:53:37Z</time>
      </trkpt>
      <trkpt lat="40.436117" lon="-5.283150">
        <ele>2140.0</ele>
        <time>2018-07-29T11:53:38Z</time>
      </trkpt>
      <trkpt lat="40.436117" lon="-5.283217">
        <ele>2141.0</ele>
        <time>2018-07-29T11:53:39Z</time>
      </trkpt>
      <trkpt lat="40.436117" lon="-5.283283">
        <ele>2142.0</ele>
        <time>2018-07-29T11:53:40Z</time>
      </trkpt>
      <trkpt lat="40.436100" lon="-5.283350">
        <ele>2143.0</ele>
        <time>2018-07-29T11:53:41Z</time>
      </trkpt>
      <trkpt lat="40.436067" lon="-5.283400">
        <ele>2143.0</ele>
        <time>2018-07-29T11:53:42Z</time>
      </trkpt>
      <trkpt lat="40.436017" lon="-5.283467">
        <ele>2143.0</ele>
        <time>2018-07-29T11:53:43Z</time>
      </trkpt>
      <trkpt lat="40.435983" lon="-5.283517">
        <ele>2143.0</ele>
        <time>2018-07-29T11:53:44Z</time>
      </trkpt>
      <trkpt lat="40.435933" lon="-5.283600">
        <ele>2143.0</ele>
        <time>2018-07-29T11:53:45Z</time>
      </trkpt>
      <trkpt lat="40.435883" lon="-5.283667">
        <ele>2142.0</ele>
        <time>2018-07-29T11:53:46Z</time>
      </trkpt>
      <trkpt lat="40.435850" lon="-5.283733">
        <ele>2142.0</ele>
        <time>2018-07-29T11:53:47Z</time>
      </trkpt>
      <trkpt lat="40.435800" lon="-5.283800">
        <ele>2141.0</ele>
        <time>2018-07-29T11:53:48Z</time>
      </trkpt>
      <trkpt lat="40.435767" lon="-5.283883">
        <ele>2140.0</ele>
        <time>2018-07-29T11:53:49Z</time>
      </trkpt>
      <trkpt lat="40.435733" lon="-5.283967">
        <ele>2140.0</ele>
        <time>2018-07-29T11:53:50Z</time>
      </trkpt>
      <trkpt lat="40.435717" lon="-5.284050">
        <ele>2140.0</ele>
        <time>2018-07-29T11:53:51Z</time>
      </trkpt>
      <trkpt lat="40.435700" lon="-5.284133">
        <ele>2139.0</ele>
        <time>2018-07-29T11:53:52Z</time>
      </trkpt>
      <trkpt lat="40.435683" lon="-5.284233">
        <ele>2139.0</ele>
        <time>2018-07-29T11:53:53Z</time>
      </trkpt>
      <trkpt lat="40.435667" lon="-5.284317">
        <ele>2139.0</ele>
        <time>2018-07-29T11:53:54Z</time>
      </trkpt>
      <trkpt lat="40.435633" lon="-5.284400">
        <ele>2140.0</ele>
        <time>2018-07-29T11:53:55Z</time>
      </trkpt>
      <trkpt lat="40.435617" lon="-5.284483">
        <ele>2140.0</ele>
        <time>2018-07-29T11:53:56Z</time>
      </trkpt>
      <trkpt lat="40.435583" lon="-5.284567">
        <ele>2141.0</ele>
        <time>2018-07-29T11:53:57Z</time>
      </trkpt>
      <trkpt lat="40.435567" lon="-5.284633">
        <ele>2141.0</ele>
        <time>2018-07-29T11:53:58Z</time>
      </trkpt>
      <trkpt lat="40.435533" lon="-5.284717">
        <ele>2141.0</ele>
        <time>2018-07-29T11:53:59Z</time>
      </trkpt>
      <trkpt lat="40.435500" lon="-5.284800">
        <ele>2140.0</ele>
        <time>2018-07-29T11:54:00Z</time>
      </trkpt>
      <trkpt lat="40.435467" lon="-5.284883">
        <ele>2139.0</ele>
        <time>2018-07-29T11:54:01Z</time>
      </trkpt>
      <trkpt lat="40.435417" lon="-5.284950">
        <ele>2138.0</ele>
        <time>2018-07-29T11:54:02Z</time>
      </trkpt>
      <trkpt lat="40.435383" lon="-5.285033">
        <ele>2137.0</ele>
        <time>2018-07-29T11:54:03Z</time>
      </trkpt>
      <trkpt lat="40.435333" lon="-5.285117">
        <ele>2135.0</ele>
        <time>2018-07-29T11:54:04Z</time>
      </trkpt>
      <trkpt lat="40.435283" lon="-5.285200">
        <ele>2134.0</ele>
        <time>2018-07-29T11:54:05Z</time>
      </trkpt>
      <trkpt lat="40.435233" lon="-5.285283">
        <ele>2132.0</ele>
        <time>2018-07-29T11:54:06Z</time>
      </trkpt>
      <trkpt lat="40.435183" lon="-5.285367">
        <ele>2130.0</ele>
        <time>2018-07-29T11:54:07Z</time>
      </trkpt>
      <trkpt lat="40.435133" lon="-5.285467">
        <ele>2128.0</ele>
        <time>2018-07-29T11:54:08Z</time>
      </trkpt>
      <trkpt lat="40.435067" lon="-5.285550">
        <ele>2128.0</ele>
        <time>2018-07-29T11:54:09Z</time>
      </trkpt>
      <trkpt lat="40.435017" lon="-5.285633">
        <ele>2128.0</ele>
        <time>2018-07-29T11:54:10Z</time>
      </trkpt>
      <trkpt lat="40.434967" lon="-5.285733">
        <ele>2129.0</ele>
        <time>2018-07-29T11:54:11Z</time>
      </trkpt>
      <trkpt lat="40.434933" lon="-5.285817">
        <ele>2131.0</ele>
        <time>2018-07-29T11:54:12Z</time>
      </trkpt>
      <trkpt lat="40.434900" lon="-5.285883">
        <ele>2133.0</ele>
        <time>2018-07-29T11:54:13Z</time>
      </trkpt>
      <trkpt lat="40.434883" lon="-5.285950">
        <ele>2134.0</ele>
        <time>2018-07-29T11:54:14Z</time>
      </trkpt>
      <trkpt lat="40.434850" lon="-5.286000">
        <ele>2134.0</ele>
        <time>2018-07-29T11:54:15Z</time>
      </trkpt>
      <trkpt lat="40.434800" lon="-5.286067">
        <ele>2133.0</ele>
        <time>2018-07-29T11:54:16Z</time>
      </trkpt>
      <trkpt lat="40.434750" lon="-5.286133">
        <ele>2131.0</ele>
        <time>2018-07-29T11:54:17Z</time>
      </trkpt>
      <trkpt lat="40.434683" lon="-5.286183">
        <ele>2128.0</ele>
        <time>2018-07-29T11:54:18Z</time>
      </trkpt>
      <trkpt lat="40.434600" lon="-5.286250">
        <ele>2127.0</ele>
        <time>2018-07-29T11:54:19Z</time>
      </trkpt>
      <trkpt lat="40.434550" lon="-5.286333">
        <ele>2126.0</ele>
        <time>2018-07-29T11:54:20Z</time>
      </trkpt>
      <trkpt lat="40.434500" lon="-5.286400">
        <ele>2125.0</ele>
        <time>2018-07-29T11:54:21Z</time>
      </trkpt>
      <trkpt lat="40.434450" lon="-5.286450">
        <ele>2125.0</ele>
        <time>2018-07-29T11:54:22Z</time>
      </trkpt>
      <trkpt lat="40.434400" lon="-5.286500">
        <ele>2123.0</ele>
        <time>2018-07-29T11:54:23Z</time>
      </trkpt>
      <trkpt lat="40.434333" lon="-5.286550">
        <ele>2120.0</ele>
        <time>2018-07-29T11:54:24Z</time>
      </trkpt>
      <trkpt lat="40.434283" lon="-5.286600">
        <ele>2117.0</ele>
        <time>2018-07-29T11:54:25Z</time>
      </trkpt>
      <trkpt lat="40.434217" lon="-5.286667">
        <ele>2113.0</ele>
        <time>2018-07-29T11:54:26Z</time>
      </trkpt>
      <trkpt lat="40.434167" lon="-5.286717">
        <ele>2109.0</ele>
        <time>2018-07-29T11:54:27Z</time>
      </trkpt>
      <trkpt lat="40.434100" lon="-5.286783">
        <ele>2106.0</ele>
        <time>2018-07-29T11:54:28Z</time>
      </trkpt>
      <trkpt lat="40.434050" lon="-5.286867">
        <ele>2102.0</ele>
        <time>2018-07-29T11:54:29Z</time>
      </trkpt>
      <trkpt lat="40.434000" lon="-5.286933">
        <ele>2098.0</ele>
        <time>2018-07-29T11:54:30Z</time>
      </trkpt>
      <trkpt lat="40.433950" lon="-5.287017">
        <ele>2094.0</ele>
        <time>2018-07-29T11:54:31Z</time>
      </trkpt>
      <trkpt lat="40.433900" lon="-5.287100">
        <ele>2090.0</ele>
        <time>2018-07-29T11:54:32Z</time>
      </trkpt>
      <trkpt lat="40.433850" lon="-5.287183">
        <ele>2087.0</ele>
        <time>2018-07-29T11:54:33Z</time>
      </trkpt>
      <trkpt lat="40.433800" lon="-5.287267">
        <ele>2084.0</ele>
        <time>2018-07-29T11:54:34Z</time>
      </trkpt>
      <trkpt lat="40.433750" lon="-5.287350">
        <ele>2081.0</ele>
        <time>2018-07-29T11:54:35Z</time>
      </trkpt>
      <trkpt lat="40.433717" lon="-5.287433">
        <ele>2079.0</ele>
        <time>2018-07-29T11:54:36Z</time>
      </trkpt>
      <trkpt lat="40.433667" lon="-5.287500">
        <ele>2076.0</ele>
        <time>2018-07-29T11:54:37Z</time>
      </trkpt>
      <trkpt lat="40.433617" lon="-5.287583">
        <ele>2073.0</ele>
        <time>2018-07-29T11:54:38Z</time>
      </trkpt>
      <trkpt lat="40.433583" lon="-5.287667">
        <ele>2069.0</ele>
        <time>2018-07-29T11:54:39Z</time>
      </trkpt>
      <trkpt lat="40.433533" lon="-5.287767">
        <ele>2068.0</ele>
        <time>2018-07-29T11:54:40Z</time>
      </trkpt>
      <trkpt lat="40.433483" lon="-5.287867">
        <ele>2067.0</ele>
        <time>2018-07-29T11:54:41Z</time>
      </trkpt>
      <trkpt lat="40.433433" lon="-5.287950">
        <ele>2068.0</ele>
        <time>2018-07-29T11:54:42Z</time>
      </trkpt>
      <trkpt lat="40.433383" lon="-5.288033">
        <ele>2070.0</ele>
        <time>2018-07-29T11:54:43Z</time>
      </trkpt>
      <trkpt lat="40.433333" lon="-5.288100">
        <ele>2071.0</ele>
        <time>2018-07-29T11:54:44Z</time>
      </trkpt>
      <trkpt lat="40.433283" lon="-5.288150">
        <ele>2071.0</ele>
        <time>2018-07-29T11:54:45Z</time>
      </trkpt>
      <trkpt lat="40.433233" lon="-5.288200">
        <ele>2070.0</ele>
        <time>2018-07-29T11:54:46Z</time>
      </trkpt>
      <trkpt lat="40.433183" lon="-5.288283">
        <ele>2070.0</ele>
        <time>2018-07-29T11:54:47Z</time>
      </trkpt>
      <trkpt lat="40.433150" lon="-5.288367">
        <ele>2069.0</ele>
        <time>2018-07-29T11:54:48Z</time>
      </trkpt>
      <trkpt lat="40.433100" lon="-5.288433">
        <ele>2070.0</ele>
        <time>2018-07-29T11:54:49Z</time>
      </trkpt>
      <trkpt lat="40.433050" lon="-5.288500">
        <ele>2071.0</ele>
        <time>2018-07-29T11:54:50Z</time>
      </trkpt>
      <trkpt lat="40.433017" lon="-5.288550">
        <ele>2072.0</ele>
        <time>2018-07-29T11:54:51Z</time>
      </trkpt>
      <trkpt lat="40.432967" lon="-5.288617">
        <ele>2071.0</ele>
        <time>2018-07-29T11:54:52Z</time>
      </trkpt>
      <trkpt lat="40.432900" lon="-5.288683">
        <ele>2070.0</ele>
        <time>2018-07-29T11:54:53Z</time>
      </trkpt>
      <trkpt lat="40.432850" lon="-5.288767">
        <ele>2069.0</ele>
        <time>2018-07-29T11:54:54Z</time>
      </trkpt>
      <trkpt lat="40.432817" lon="-5.288833">
        <ele>2069.0</ele>
        <time>2018-07-29T11:54:55Z</time>
      </trkpt>
      <trkpt lat="40.432783" lon="-5.288917">
        <ele>2069.0</ele>
        <time>2018-07-29T11:54:56Z</time>
      </trkpt>
      <trkpt lat="40.432750" lon="-5.289000">
        <ele>2069.0</ele>
        <time>2018-07-29T11:54:57Z</time>
      </trkpt>
      <trkpt lat="40.432717" lon="-5.289117">
        <ele>2069.0</ele>
        <time>2018-07-29T11:54:58Z</time>
      </trkpt>
      <trkpt lat="40.432683" lon="-5.289200">
        <ele>2071.0</ele>
        <time>2018-07-29T11:54:59Z</time>
      </trkpt>
      <trkpt lat="40.432633" lon="-5.289283">
        <ele>2073.0</ele>
        <time>2018-07-29T11:55:00Z</time>
      </trkpt>
      <trkpt lat="40.432600" lon="-5.289367">
        <ele>2075.0</ele>
        <time>2018-07-29T11:55:01Z</time>
      </trkpt>
      <trkpt lat="40.432567" lon="-5.289433">
        <ele>2076.0</ele>
        <time>2018-07-29T11:55:02Z</time>
      </trkpt>
      <trkpt lat="40.432533" lon="-5.289500">
        <ele>2077.0</ele>
        <time>2018-07-29T11:55:03Z</time>
      </trkpt>
      <trkpt lat="40.432500" lon="-5.289567">
        <ele>2077.0</ele>
        <time>2018-07-29T11:55:04Z</time>
      </trkpt>
      <trkpt lat="40.432417" lon="-5.289617">
        <ele>2077.0</ele>
        <time>2018-07-29T11:55:05Z</time>
      </trkpt>
      <trkpt lat="40.432317" lon="-5.289650">
        <ele>2076.0</ele>
        <time>2018-07-29T11:55:06Z</time>
      </trkpt>
      <trkpt lat="40.432200" lon="-5.289633">
        <ele>2076.0</ele>
        <time>2018-07-29T11:55:07Z</time>
      </trkpt>
      <trkpt lat="40.432083" lon="-5.289583">
        <ele>2077.0</ele>
        <time>2018-07-29T11:55:08Z</time>
      </trkpt>
      <trkpt lat="40.431983" lon="-5.289500">
        <ele>2079.0</ele>
        <time>2018-07-29T11:55:09Z</time>
      </trkpt>
      <trkpt lat="40.431900" lon="-5.289367">
        <ele>2080.0</ele>
        <time>2018-07-29T11:55:10Z</time>
      </trkpt>
      <trkpt lat="40.431867" lon="-5.289217">
        <ele>2079.0</ele>
        <time>2018-07-29T11:55:11Z</time>
      </trkpt>
      <trkpt lat="40.431850" lon="-5.289067">
        <ele>2079.0</ele>
        <time>2018-07-29T11:55:12Z</time>
      </trkpt>
      <trkpt lat="40.431850" lon="-5.288900">
        <ele>2078.0</ele>
        <time>2018-07-29T11:55:13Z</time>
      </trkpt>
      <trkpt lat="40.431867" lon="-5.288767">
        <ele>2078.0</ele>
        <time>2018-07-29T11:55:14Z</time>
      </trkpt>
      <trkpt lat="40.431917" lon="-5.288633">
        <ele>2077.0</ele>
        <time>2018-07-29T11:55:15Z</time>
      </trkpt>
      <trkpt lat="40.431967" lon="-5.288533">
        <ele>2075.0</ele>
        <time>2018-07-29T11:55:16Z</time>
      </trkpt>
      <trkpt lat="40.432050" lon="-5.288450">
        <ele>2075.0</ele>
        <time>2018-07-29T11:55:17Z</time>
      </trkpt>
      <trkpt lat="40.432150" lon="-5.288367">
        <ele>2075.0</ele>
        <time>2018-07-29T11:55:18Z</time>
      </trkpt>
      <trkpt lat="40.432233" lon="-5.288317">
        <ele>2075.0</ele>
        <time>2018-07-29T11:55:19Z</time>
      </trkpt>
      <trkpt lat="40.432300" lon="-5.288283">
        <ele>2077.0</ele>
        <time>2018-07-29T11:55:20Z</time>
      </trkpt>
      <trkpt lat="40.432350" lon="-5.288283">
        <ele>2077.0</ele>
        <time>2018-07-29T11:55:21Z</time>
      </trkpt>
      <trkpt lat="40.432400" lon="-5.288300">
        <ele>2076.0</ele>
        <time>2018-07-29T11:55:22Z</time>
      </trkpt>
      <trkpt lat="40.432433" lon="-5.288350">
        <ele>2075.0</ele>
        <time>2018-07-29T11:55:23Z</time>
      </trkpt>
      <trkpt lat="40.432467" lon="-5.288400">
        <ele>2074.0</ele>
        <time>2018-07-29T11:55:24Z</time>
      </trkpt>
      <trkpt lat="40.432500" lon="-5.288450">
        <ele>2073.0</ele>
        <time>2018-07-29T11:55:25Z</time>
      </trkpt>
      <trkpt lat="40.432500" lon="-5.288517">
        <ele>2073.0</ele>
        <time>2018-07-29T11:55:26Z</time>
      </trkpt>
      <trkpt lat="40.432500" lon="-5.288583">
        <ele>2071.0</ele>
        <time>2018-07-29T11:55:27Z</time>
      </trkpt>
      <trkpt lat="40.432483" lon="-5.288650">
        <ele>2070.0</ele>
        <time>2018-07-29T11:55:28Z</time>
      </trkpt>
      <trkpt lat="40.432450" lon="-5.288733">
        <ele>2067.0</ele>
        <time>2018-07-29T11:55:29Z</time>
      </trkpt>
      <trkpt lat="40.432400" lon="-5.288817">
        <ele>2065.0</ele>
        <time>2018-07-29T11:55:30Z</time>
      </trkpt>
      <trkpt lat="40.432333" lon="-5.288900">
        <ele>2063.0</ele>
        <time>2018-07-29T11:55:31Z</time>
      </trkpt>
      <trkpt lat="40.432283" lon="-5.289000">
        <ele>2062.0</ele>
        <time>2018-07-29T11:55:32Z</time>
      </trkpt>
      <trkpt lat="40.432217" lon="-5.289083">
        <ele>2061.0</ele>
        <time>2018-07-29T11:55:33Z</time>
      </trkpt>
      <trkpt lat="40.432167" lon="-5.289167">
        <ele>2059.0</ele>
        <time>2018-07-29T11:55:34Z</time>
      </trkpt>
      <trkpt lat="40.432100" lon="-5.289233">
        <ele>2058.0</ele>
        <time>2018-07-29T11:55:35Z</time>
      </trkpt>
      <trkpt lat="40.432050" lon="-5.289333">
        <ele>2056.0</ele>
        <time>2018-07-29T11:55:36Z</time>
      </trkpt>
      <trkpt lat="40.431983" lon="-5.289400">
        <ele>2054.0</ele>
        <time>2018-07-29T11:55:37Z</time>
      </trkpt>
      <trkpt lat="40.431933" lon="-5.289483">
        <ele>2053.0</ele>
        <time>2018-07-29T11:55:38Z</time>
      </trkpt>
      <trkpt lat="40.431883" lon="-5.289567">
        <ele>2052.0</ele>
        <time>2018-07-29T11:55:39Z</time>
      </trkpt>
      <trkpt lat="40.431850" lon="-5.289633">
        <ele>2050.0</ele>
        <time>2018-07-29T11:55:40Z</time>
      </trkpt>
      <trkpt lat="40.431800" lon="-5.289717">
        <ele>2048.0</ele>
        <time>2018-07-29T11:55:41Z</time>
      </trkpt>
      <trkpt lat="40.431750" lon="-5.289783">
        <ele>2046.0</ele>
        <time>2018-07-29T11:55:42Z</time>
      </trkpt>
      <trkpt lat="40.431683" lon="-5.289867">
        <ele>2043.0</ele>
        <time>2018-07-29T11:55:43Z</time>
      </trkpt>
      <trkpt lat="40.431617" lon="-5.289933">
        <ele>2041.0</ele>
        <time>2018-07-29T11:55:44Z</time>
      </trkpt>
      <trkpt lat="40.431567" lon="-5.290017">
        <ele>2039.0</ele>
        <time>2018-07-29T11:55:45Z</time>
      </trkpt>
      <trkpt lat="40.431500" lon="-5.290083">
        <ele>2037.0</ele>
        <time>2018-07-29T11:55:46Z</time>
      </trkpt>
      <trkpt lat="40.431450" lon="-5.290167">
        <ele>2035.0</ele>
        <time>2018-07-29T11:55:47Z</time>
      </trkpt>
      <trkpt lat="40.431400" lon="-5.290233">
        <ele>2032.0</ele>
        <time>2018-07-29T11:55:48Z</time>
      </trkpt>
      <trkpt lat="40.431333" lon="-5.290317">
        <ele>2030.0</ele>
        <time>2018-07-29T11:55:49Z</time>
      </trkpt>
      <trkpt lat="40.431267" lon="-5.290400">
        <ele>2027.0</ele>
        <time>2018-07-29T11:55:50Z</time>
      </trkpt>
      <trkpt lat="40.431217" lon="-5.290483">
        <ele>2025.0</ele>
        <time>2018-07-29T11:55:51Z</time>
      </trkpt>
      <trkpt lat="40.431150" lon="-5.290567">
        <ele>2024.0</ele>
        <time>2018-07-29T11:55:52Z</time>
      </trkpt>
      <trkpt lat="40.431083" lon="-5.290650">
        <ele>2022.0</ele>
        <time>2018-07-29T11:55:53Z</time>
      </trkpt>
      <trkpt lat="40.431017" lon="-5.290733">
        <ele>2021.0</ele>
        <time>2018-07-29T11:55:54Z</time>
      </trkpt>
      <trkpt lat="40.430950" lon="-5.290800">
        <ele>2019.0</ele>
        <time>2018-07-29T11:55:55Z</time>
      </trkpt>
      <trkpt lat="40.430883" lon="-5.290883">
        <ele>2017.0</ele>
        <time>2018-07-29T11:55:56Z</time>
      </trkpt>
      <trkpt lat="40.430817" lon="-5.290950">
        <ele>2015.0</ele>
        <time>2018-07-29T11:55:57Z</time>
      </trkpt>
      <trkpt lat="40.430733" lon="-5.291033">
        <ele>2013.0</ele>
        <time>2018-07-29T11:55:58Z</time>
      </trkpt>
      <trkpt lat="40.430633" lon="-5.291100">
        <ele>2011.0</ele>
        <time>2018-07-29T11:55:59Z</time>
      </trkpt>
      <trkpt lat="40.430550" lon="-5.291167">
        <ele>2010.0</ele>
        <time>2018-07-29T11:56:00Z</time>
      </trkpt>
      <trkpt lat="40.430467" lon="-5.291233">
        <ele>2008.0</ele>
        <time>2018-07-29T11:56:01Z</time>
      </trkpt>
      <trkpt lat="40.430383" lon="-5.291333">
        <ele>2006.0</ele>
        <time>2018-07-29T11:56:02Z</time>
      </trkpt>
      <trkpt lat="40.430300" lon="-5.291417">
        <ele>2005.0</ele>
        <time>2018-07-29T11:56:03Z</time>
      </trkpt>
      <trkpt lat="40.430217" lon="-5.291500">
        <ele>2004.0</ele>
        <time>2018-07-29T11:56:04Z</time>
      </trkpt>
      <trkpt lat="40.430150" lon="-5.291583">
        <ele>2004.0</ele>
        <time>2018-07-29T11:56:05Z</time>
      </trkpt>
      <trkpt lat="40.430083" lon="-5.291667">
        <ele>2003.0</ele>
        <time>2018-07-29T11:56:06Z</time>
      </trkpt>
      <trkpt lat="40.430017" lon="-5.291750">
        <ele>2002.0</ele>
        <time>2018-07-29T11:56:07Z</time>
      </trkpt>
      <trkpt lat="40.429967" lon="-5.291850">
        <ele>2001.0</ele>
        <time>2018-07-29T11:56:08Z</time>
      </trkpt>
      <trkpt lat="40.429917" lon="-5.291950">
        <ele>2000.0</ele>
        <time>2018-07-29T11:56:09Z</time>
      </trkpt>
      <trkpt lat="40.429850" lon="-5.292050">
        <ele>2000.0</ele>
        <time>2018-07-29T11:56:10Z</time>
      </trkpt>
      <trkpt lat="40.429800" lon="-5.292133">
        <ele>1999.0</ele>
        <time>2018-07-29T11:56:11Z</time>
      </trkpt>
      <trkpt lat="40.429733" lon="-5.292217">
        <ele>1999.0</ele>
        <time>2018-07-29T11:56:12Z</time>
      </trkpt>
      <trkpt lat="40.429667" lon="-5.292317">
        <ele>1999.0</ele>
        <time>2018-07-29T11:56:13Z</time>
      </trkpt>
      <trkpt lat="40.429600" lon="-5.292400">
        <ele>1999.0</ele>
        <time>2018-07-29T11:56:14Z</time>
      </trkpt>
      <trkpt lat="40.429500" lon="-5.292483">
        <ele>1998.0</ele>
        <time>2018-07-29T11:56:15Z</time>
      </trkpt>
      <trkpt lat="40.429417" lon="-5.292583">
        <ele>1998.0</ele>
        <time>2018-07-29T11:56:16Z</time>
      </trkpt>
      <trkpt lat="40.429317" lon="-5.292683">
        <ele>2000.0</ele>
        <time>2018-07-29T11:56:17Z</time>
      </trkpt>
      <trkpt lat="40.429250" lon="-5.292767">
        <ele>2001.0</ele>
        <time>2018-07-29T11:56:18Z</time>
      </trkpt>
      <trkpt lat="40.429167" lon="-5.292850">
        <ele>2002.0</ele>
        <time>2018-07-29T11:56:19Z</time>
      </trkpt>
      <trkpt lat="40.429083" lon="-5.292950">
        <ele>2002.0</ele>
        <time>2018-07-29T11:56:20Z</time>
      </trkpt>
      <trkpt lat="40.429000" lon="-5.293033">
        <ele>2002.0</ele>
        <time>2018-07-29T11:56:21Z</time>
      </trkpt>
      <trkpt lat="40.428917" lon="-5.293133">
        <ele>2003.0</ele>
        <time>2018-07-29T11:56:22Z</time>
      </trkpt>
      <trkpt lat="40.428850" lon="-5.293217">
        <ele>2004.0</ele>
        <time>2018-07-29T11:56:23Z</time>
      </trkpt>
      <trkpt lat="40.428817" lon="-5.293300">
        <ele>2004.0</ele>
        <time>2018-07-29T11:56:24Z</time>
      </trkpt>
      <trkpt lat="40.428783" lon="-5.293367">
        <ele>2004.0</ele>
        <time>2018-07-29T11:56:25Z</time>
      </trkpt>
      <trkpt lat="40.428800" lon="-5.293433">
        <ele>2003.0</ele>
        <time>2018-07-29T11:56:26Z</time>
      </trkpt>
      <trkpt lat="40.428817" lon="-5.293483">
        <ele>2001.0</ele>
        <time>2018-07-29T11:56:27Z</time>
      </trkpt>
      <trkpt lat="40.428867" lon="-5.293500">
        <ele>2000.0</ele>
        <time>2018-07-29T11:56:28Z</time>
      </trkpt>
      <trkpt lat="40.428917" lon="-5.293467">
        <ele>2000.0</ele>
        <time>2018-07-29T11:56:29Z</time>
      </trkpt>
      <trkpt lat="40.428967" lon="-5.293417">
        <ele>2000.0</ele>
        <time>2018-07-29T11:56:30Z</time>
      </trkpt>
      <trkpt lat="40.429000" lon="-5.293333">
        <ele>1999.0</ele>
        <time>2018-07-29T11:56:31Z</time>
      </trkpt>
      <trkpt lat="40.429033" lon="-5.293233">
        <ele>1999.0</ele>
        <time>2018-07-29T11:56:32Z</time>
      </trkpt>
      <trkpt lat="40.429050" lon="-5.293117">
        <ele>1998.0</ele>
        <time>2018-07-29T11:56:33Z</time>
      </trkpt>
      <trkpt lat="40.429050" lon="-5.292967">
        <ele>1997.0</ele>
        <time>2018-07-29T11:56:34Z</time>
      </trkpt>
      <trkpt lat="40.429017" lon="-5.292800">
        <ele>1996.0</ele>
        <time>2018-07-29T11:56:35Z</time>
      </trkpt>
      <trkpt lat="40.428967" lon="-5.292633">
        <ele>1996.0</ele>
        <time>2018-07-29T11:56:36Z</time>
      </trkpt>
      <trkpt lat="40.428883" lon="-5.292483">
        <ele>1996.0</ele>
        <time>2018-07-29T11:56:37Z</time>
      </trkpt>
      <trkpt lat="40.428750" lon="-5.292350">
        <ele>1995.0</ele>
        <time>2018-07-29T11:56:38Z</time>
      </trkpt>
      <trkpt lat="40.428617" lon="-5.292283">
        <ele>1993.0</ele>
        <time>2018-07-29T11:56:39Z</time>
      </trkpt>
      <trkpt lat="40.428450" lon="-5.292250">
        <ele>1991.0</ele>
        <time>2018-07-29T11:56:40Z</time>
      </trkpt>
      <trkpt lat="40.428300" lon="-5.292267">
        <ele>1991.0</ele>
        <time>2018-07-29T11:56:41Z</time>
      </trkpt>
      <trkpt lat="40.428183" lon="-5.292333">
        <ele>1991.0</ele>
        <time>2018-07-29T11:56:42Z</time>
      </trkpt>
      <trkpt lat="40.428083" lon="-5.292400">
        <ele>1991.0</ele>
        <time>2018-07-29T11:56:43Z</time>
      </trkpt>
      <trkpt lat="40.428017" lon="-5.292483">
        <ele>1990.0</ele>
        <time>2018-07-29T11:56:44Z</time>
      </trkpt>
      <trkpt lat="40.427967" lon="-5.292567">
        <ele>1989.0</ele>
        <time>2018-07-29T11:56:45Z</time>
      </trkpt>
      <trkpt lat="40.427933" lon="-5.292633">
        <ele>1987.0</ele>
        <time>2018-07-29T11:56:46Z</time>
      </trkpt>
      <trkpt lat="40.427917" lon="-5.292717">
        <ele>1986.0</ele>
        <time>2018-07-29T11:56:47Z</time>
      </trkpt>
      <trkpt lat="40.427900" lon="-5.292800">
        <ele>1984.0</ele>
        <time>2018-07-29T11:56:48Z</time>
      </trkpt>
      <trkpt lat="40.427883" lon="-5.292883">
        <ele>1983.0</ele>
        <time>2018-07-29T11:56:49Z</time>
      </trkpt>
      <trkpt lat="40.427867" lon="-5.292983">
        <ele>1983.0</ele>
        <time>2018-07-29T11:56:50Z</time>
      </trkpt>
      <trkpt lat="40.427833" lon="-5.293083">
        <ele>1984.0</ele>
        <time>2018-07-29T11:56:51Z</time>
      </trkpt>
      <trkpt lat="40.427800" lon="-5.293167">
        <ele>1984.0</ele>
        <time>2018-07-29T11:56:52Z</time>
      </trkpt>
      <trkpt lat="40.427783" lon="-5.293250">
        <ele>1985.0</ele>
        <time>2018-07-29T11:56:53Z</time>
      </trkpt>
      <trkpt lat="40.427750" lon="-5.293333">
        <ele>1984.0</ele>
        <time>2018-07-29T11:56:54Z</time>
      </trkpt>
      <trkpt lat="40.427733" lon="-5.293417">
        <ele>1983.0</ele>
        <time>2018-07-29T11:56:55Z</time>
      </trkpt>
      <trkpt lat="40.427733" lon="-5.293517">
        <ele>1981.0</ele>
        <time>2018-07-29T11:56:56Z</time>
      </trkpt>
      <trkpt lat="40.427717" lon="-5.293617">
        <ele>1981.0</ele>
        <time>2018-07-29T11:56:57Z</time>
      </trkpt>
      <trkpt lat="40.427717" lon="-5.293717">
        <ele>1981.0</ele>
        <time>2018-07-29T11:56:58Z</time>
      </trkpt>
      <trkpt lat="40.427700" lon="-5.293817">
        <ele>1981.0</ele>
        <time>2018-07-29T11:56:59Z</time>
      </trkpt>
      <trkpt lat="40.427667" lon="-5.293917">
        <ele>1981.0</ele>
        <time>2018-07-29T11:57:00Z</time>
      </trkpt>
      <trkpt lat="40.427650" lon="-5.294000">
        <ele>1981.0</ele>
        <time>2018-07-29T11:57:01Z</time>
      </trkpt>
      <trkpt lat="40.427617" lon="-5.294083">
        <ele>1981.0</ele>
        <time>2018-07-29T11:57:02Z</time>
      </trkpt>
      <trkpt lat="40.427600" lon="-5.294167">
        <ele>1979.0</ele>
        <time>2018-07-29T11:57:03Z</time>
      </trkpt>
      <trkpt lat="40.427567" lon="-5.294250">
        <ele>1977.0</ele>
        <time>2018-07-29T11:57:04Z</time>
      </trkpt>
      <trkpt lat="40.427533" lon="-5.294333">
        <ele>1976.0</ele>
        <time>2018-07-29T11:57:05Z</time>
      </trkpt>
      <trkpt lat="40.427500" lon="-5.294417">
        <ele>1975.0</ele>
        <time>2018-07-29T11:57:06Z</time>
      </trkpt>
      <trkpt lat="40.427483" lon="-5.294500">
        <ele>1974.0</ele>
        <time>2018-07-29T11:57:07Z</time>
      </trkpt>
      <trkpt lat="40.427467" lon="-5.294600">
        <ele>1974.0</ele>
        <time>2018-07-29T11:57:08Z</time>
      </trkpt>
      <trkpt lat="40.427467" lon="-5.294700">
        <ele>1975.0</ele>
        <time>2018-07-29T11:57:09Z</time>
      </trkpt>
      <trkpt lat="40.427450" lon="-5.294800">
        <ele>1976.0</ele>
        <time>2018-07-29T11:57:10Z</time>
      </trkpt>
      <trkpt lat="40.427433" lon="-5.294900">
        <ele>1978.0</ele>
        <time>2018-07-29T11:57:11Z</time>
      </trkpt>
      <trkpt lat="40.427400" lon="-5.294983">
        <ele>1980.0</ele>
        <time>2018-07-29T11:57:12Z</time>
      </trkpt>
      <trkpt lat="40.427367" lon="-5.295083">
        <ele>1982.0</ele>
        <time>2018-07-29T11:57:13Z</time>
      </trkpt>
      <trkpt lat="40.427333" lon="-5.295183">
        <ele>1982.0</ele>
        <time>2018-07-29T11:57:14Z</time>
      </trkpt>
      <trkpt lat="40.427300" lon="-5.295283">
        <ele>1983.0</ele>
        <time>2018-07-29T11:57:15Z</time>
      </trkpt>
      <trkpt lat="40.427283" lon="-5.295383">
        <ele>1985.0</ele>
        <time>2018-07-29T11:57:16Z</time>
      </trkpt>
      <trkpt lat="40.427283" lon="-5.295450">
        <ele>1986.0</ele>
        <time>2018-07-29T11:57:17Z</time>
      </trkpt>
      <trkpt lat="40.427300" lon="-5.295483">
        <ele>1986.0</ele>
        <time>2018-07-29T11:57:18Z</time>
      </trkpt>
      <trkpt lat="40.427317" lon="-5.295483">
        <ele>1986.0</ele>
        <time>2018-07-29T11:57:19Z</time>
      </trkpt>
      <trkpt lat="40.427350" lon="-5.295417">
        <ele>1985.0</ele>
        <time>2018-07-29T11:57:20Z</time>
      </trkpt>
      <trkpt lat="40.427350" lon="-5.295300">
        <ele>1983.0</ele>
        <time>2018-07-29T11:57:21Z</time>
      </trkpt>
      <trkpt lat="40.427350" lon="-5.295150">
        <ele>1981.0</ele>
        <time>2018-07-29T11:57:22Z</time>
      </trkpt>
      <trkpt lat="40.427333" lon="-5.294967">
        <ele>1981.0</ele>
        <time>2018-07-29T11:57:23Z</time>
      </trkpt>
      <trkpt lat="40.427267" lon="-5.294767">
        <ele>1981.0</ele>
        <time>2018-07-29T11:57:24Z</time>
      </trkpt>
      <trkpt lat="40.427167" lon="-5.294583">
        <ele>1983.0</ele>
        <time>2018-07-29T11:57:25Z</time>
      </trkpt>
      <trkpt lat="40.427033" lon="-5.294433">
        <ele>1986.0</ele>
        <time>2018-07-29T11:57:26Z</time>
      </trkpt>
      <trkpt lat="40.426900" lon="-5.294333">
        <ele>1990.0</ele>
        <time>2018-07-29T11:57:27Z</time>
      </trkpt>
      <trkpt lat="40.426767" lon="-5.294250">
        <ele>1994.0</ele>
        <time>2018-07-29T11:57:28Z</time>
      </trkpt>
      <trkpt lat="40.426633" lon="-5.294200">
        <ele>1997.0</ele>
        <time>2018-07-29T11:57:29Z</time>
      </trkpt>
      <trkpt lat="40.426517" lon="-5.294183">
        <ele>1999.0</ele>
        <time>2018-07-29T11:57:30Z</time>
      </trkpt>
      <trkpt lat="40.426383" lon="-5.294183">
        <ele>2000.0</ele>
        <time>2018-07-29T11:57:31Z</time>
      </trkpt>
      <trkpt lat="40.426250" lon="-5.294217">
        <ele>2000.0</ele>
        <time>2018-07-29T11:57:32Z</time>
      </trkpt>
      <trkpt lat="40.426150" lon="-5.294283">
        <ele>2001.0</ele>
        <time>2018-07-29T11:57:33Z</time>
      </trkpt>
      <trkpt lat="40.426067" lon="-5.294367">
        <ele>2001.0</ele>
        <time>2018-07-29T11:57:34Z</time>
      </trkpt>
      <trkpt lat="40.426017" lon="-5.294450">
        <ele>2002.0</ele>
        <time>2018-07-29T11:57:35Z</time>
      </trkpt>
      <trkpt lat="40.425983" lon="-5.294533">
        <ele>2002.0</ele>
        <time>2018-07-29T11:57:36Z</time>
      </trkpt>
      <trkpt lat="40.425967" lon="-5.294600">
        <ele>2002.0</ele>
        <time>2018-07-29T11:57:37Z</time>
      </trkpt>
      <trkpt lat="40.425950" lon="-5.294667">
        <ele>2001.0</ele>
        <time>2018-07-29T11:57:38Z</time>
      </trkpt>
      <trkpt lat="40.425967" lon="-5.294700">
        <ele>1999.0</ele>
        <time>2018-07-29T11:57:39Z</time>
      </trkpt>
      <trkpt lat="40.425983" lon="-5.294750">
        <ele>1997.0</ele>
        <time>2018-07-29T11:57:40Z</time>
      </trkpt>
      <trkpt lat="40.426000" lon="-5.294767">
        <ele>1996.0</ele>
        <time>2018-07-29T11:57:41Z</time>
      </trkpt>
      <trkpt lat="40.426017" lon="-5.294800">
        <ele>1995.0</ele>
        <time>2018-07-29T11:57:42Z</time>
      </trkpt>
      <trkpt lat="40.426017" lon="-5.294850">
        <ele>1993.0</ele>
        <time>2018-07-29T11:57:43Z</time>
      </trkpt>
      <trkpt lat="40.426033" lon="-5.294900">
        <ele>1991.0</ele>
        <time>2018-07-29T11:57:44Z</time>
      </trkpt>
      <trkpt lat="40.426067" lon="-5.294950">
        <ele>1989.0</ele>
        <time>2018-07-29T11:57:45Z</time>
      </trkpt>
      <trkpt lat="40.426083" lon="-5.295017">
        <ele>1989.0</ele>
        <time>2018-07-29T11:57:46Z</time>
      </trkpt>
      <trkpt lat="40.426117" lon="-5.295067">
        <ele>1989.0</ele>
        <time>2018-07-29T11:57:47Z</time>
      </trkpt>
      <trkpt lat="40.426133" lon="-5.295117">
        <ele>1989.0</ele>
        <time>2018-07-29T11:57:48Z</time>
      </trkpt>
      <trkpt lat="40.426133" lon="-5.295150">
        <ele>1989.0</ele>
        <time>2018-07-29T11:57:49Z</time>
      </trkpt>
      <trkpt lat="40.426150" lon="-5.295167">
        <ele>1987.0</ele>
        <time>2018-07-29T11:57:50Z</time>
      </trkpt>
      <trkpt lat="40.426167" lon="-5.295200">
        <ele>1985.0</ele>
        <time>2018-07-29T11:57:51Z</time>
      </trkpt>
      <trkpt lat="40.426200" lon="-5.295217">
        <ele>1983.0</ele>
        <time>2018-07-29T11:57:52Z</time>
      </trkpt>
      <trkpt lat="40.426233" lon="-5.295250">
        <ele>1981.0</ele>
        <time>2018-07-29T11:57:53Z</time>
      </trkpt>
      <trkpt lat="40.426250" lon="-5.295283">
        <ele>1979.0</ele>
        <time>2018-07-29T11:57:54Z</time>
      </trkpt>
      <trkpt lat="40.426283" lon="-5.295317">
        <ele>1977.0</ele>
        <time>2018-07-29T11:57:55Z</time>
      </trkpt>
      <trkpt lat="40.426317" lon="-5.295350">
        <ele>1975.0</ele>
        <time>2018-07-29T11:57:56Z</time>
      </trkpt>
      <trkpt lat="40.426350" lon="-5.295350">
        <ele>1973.0</ele>
        <time>2018-07-29T11:57:57Z</time>
      </trkpt>
      <trkpt lat="40.426383" lon="-5.295350">
        <ele>1971.0</ele>
        <time>2018-07-29T11:57:58Z</time>
      </trkpt>
      <trkpt lat="40.426417" lon="-5.295333">
        <ele>1969.0</ele>
        <time>2018-07-29T11:57:59Z</time>
      </trkpt>
      <trkpt lat="40.426467" lon="-5.295333">
        <ele>1966.0</ele>
        <time>2018-07-29T11:58:00Z</time>
      </trkpt>
      <trkpt lat="40.426500" lon="-5.295350">
        <ele>1964.0</ele>
        <time>2018-07-29T11:58:01Z</time>
      </trkpt>
      <trkpt lat="40.426533" lon="-5.295383">
        <ele>1962.0</ele>
        <time>2018-07-29T11:58:02Z</time>
      </trkpt>
      <trkpt lat="40.426583" lon="-5.295400">
        <ele>1960.0</ele>
        <time>2018-07-29T11:58:03Z</time>
      </trkpt>
      <trkpt lat="40.426617" lon="-5.295433">
        <ele>1959.0</ele>
        <time>2018-07-29T11:58:04Z</time>
      </trkpt>
      <trkpt lat="40.426650" lon="-5.295450">
        <ele>1957.0</ele>
        <time>2018-07-29T11:58:05Z</time>
      </trkpt>
      <trkpt lat="40.426683" lon="-5.295483">
        <ele>1956.0</ele>
        <time>2018-07-29T11:58:06Z</time>
      </trkpt>
      <trkpt lat="40.426700" lon="-5.295517">
        <ele>1954.0</ele>
        <time>2018-07-29T11:58:07Z</time>
      </trkpt>
      <trkpt lat="40.426733" lon="-5.295567">
        <ele>1954.0</ele>
        <time>2018-07-29T11:58:08Z</time>
      </trkpt>
      <trkpt lat="40.426767" lon="-5.295617">
        <ele>1954.0</ele>
        <time>2018-07-29T11:58:09Z</time>
      </trkpt>
      <trkpt lat="40.426800" lon="-5.295650">
        <ele>1954.0</ele>
        <time>2018-07-29T11:58:10Z</time>
      </trkpt>
      <trkpt lat="40.426833" lon="-5.295683">
        <ele>1955.0</ele>
        <time>2018-07-29T11:58:11Z</time>
      </trkpt>
      <trkpt lat="40.426850" lon="-5.295717">
        <ele>1954.0</ele>
        <time>2018-07-29T11:58:12Z</time>
      </trkpt>
      <trkpt lat="40.426867" lon="-5.295767">
        <ele>1953.0</ele>
        <time>2018-07-29T11:58:13Z</time>
      </trkpt>
      <trkpt lat="40.426883" lon="-5.295800">
        <ele>1951.0</ele>
        <time>2018-07-29T11:58:14Z</time>
      </trkpt>
      <trkpt lat="40.426900" lon="-5.295833">
        <ele>1951.0</ele>
        <time>2018-07-29T11:58:15Z</time>
      </trkpt>
      <trkpt lat="40.426933" lon="-5.295883">
        <ele>1950.0</ele>
        <time>2018-07-29T11:58:16Z</time>
      </trkpt>
      <trkpt lat="40.426950" lon="-5.295933">
        <ele>1950.0</ele>
        <time>2018-07-29T11:58:17Z</time>
      </trkpt>
      <trkpt lat="40.426967" lon="-5.296000">
        <ele>1949.0</ele>
        <time>2018-07-29T11:58:18Z</time>
      </trkpt>
      <trkpt lat="40.426983" lon="-5.296067">
        <ele>1949.0</ele>
        <time>2018-07-29T11:58:19Z</time>
      </trkpt>
      <trkpt lat="40.427000" lon="-5.296150">
        <ele>1948.0</ele>
        <time>2018-07-29T11:58:20Z</time>
      </trkpt>
      <trkpt lat="40.427017" lon="-5.296217">
        <ele>1947.0</ele>
        <time>2018-07-29T11:58:21Z</time>
      </trkpt>
      <trkpt lat="40.427033" lon="-5.296300">
        <ele>1948.0</ele>
        <time>2018-07-29T11:58:22Z</time>
      </trkpt>
      <trkpt lat="40.427050" lon="-5.296383">
        <ele>1949.0</ele>
        <time>2018-07-29T11:58:23Z</time>
      </trkpt>
      <trkpt lat="40.427050" lon="-5.296483">
        <ele>1951.0</ele>
        <time>2018-07-29T11:58:24Z</time>
      </trkpt>
      <trkpt lat="40.427050" lon="-5.296567">
        <ele>1953.0</ele>
        <time>2018-07-29T11:58:25Z</time>
      </trkpt>
      <trkpt lat="40.427033" lon="-5.296667">
        <ele>1955.0</ele>
        <time>2018-07-29T11:58:26Z</time>
      </trkpt>
      <trkpt lat="40.427017" lon="-5.296767">
        <ele>1958.0</ele>
        <time>2018-07-29T11:58:27Z</time>
      </trkpt>
      <trkpt lat="40.426983" lon="-5.296850">
        <ele>1960.0</ele>
        <time>2018-07-29T11:58:28Z</time>
      </trkpt>
      <trkpt lat="40.426983" lon="-5.296933">
        <ele>1962.0</ele>
        <time>2018-07-29T11:58:29Z</time>
      </trkpt>
      <trkpt lat="40.426983" lon="-5.297000">
        <ele>1963.0</ele>
        <time>2018-07-29T11:58:30Z</time>
      </trkpt>
      <trkpt lat="40.427017" lon="-5.297033">
        <ele>1963.0</ele>
        <time>2018-07-29T11:58:31Z</time>
      </trkpt>
      <trkpt lat="40.427067" lon="-5.297033">
        <ele>1964.0</ele>
        <time>2018-07-29T11:58:32Z</time>
      </trkpt>
      <trkpt lat="40.427117" lon="-5.296983">
        <ele>1965.0</ele>
        <time>2018-07-29T11:58:33Z</time>
      </trkpt>
      <trkpt lat="40.427150" lon="-5.296883">
        <ele>1967.0</ele>
        <time>2018-07-29T11:58:34Z</time>
      </trkpt>
      <trkpt lat="40.427150" lon="-5.296733">
        <ele>1969.0</ele>
        <time>2018-07-29T11:58:35Z</time>
      </trkpt>
      <trkpt lat="40.427117" lon="-5.296583">
        <ele>1971.0</ele>
        <time>2018-07-29T11:58:36Z</time>
      </trkpt>
      <trkpt lat="40.427033" lon="-5.296450">
        <ele>1972.0</ele>
        <time>2018-07-29T11:58:37Z</time>
      </trkpt>
      <trkpt lat="40.426933" lon="-5.296333">
        <ele>1972.0</ele>
        <time>2018-07-29T11:58:38Z</time>
      </trkpt>
      <trkpt lat="40.426800" lon="-5.296250">
        <ele>1971.0</ele>
        <time>2018-07-29T11:58:39Z</time>
      </trkpt>
      <trkpt lat="40.426650" lon="-5.296217">
        <ele>1971.0</ele>
        <time>2018-07-29T11:58:40Z</time>
      </trkpt>
      <trkpt lat="40.426500" lon="-5.296233">
        <ele>1970.0</ele>
        <time>2018-07-29T11:58:41Z</time>
      </trkpt>
      <trkpt lat="40.426367" lon="-5.296317">
        <ele>1970.0</ele>
        <time>2018-07-29T11:58:42Z</time>
      </trkpt>
      <trkpt lat="40.426267" lon="-5.296417">
        <ele>1970.0</ele>
        <time>2018-07-29T11:58:43Z</time>
      </trkpt>
      <trkpt lat="40.426217" lon="-5.296533">
        <ele>1971.0</ele>
        <time>2018-07-29T11:58:44Z</time>
      </trkpt>
      <trkpt lat="40.426167" lon="-5.296633">
        <ele>1972.0</ele>
        <time>2018-07-29T11:58:45Z</time>
      </trkpt>
      <trkpt lat="40.426150" lon="-5.296717">
        <ele>1973.0</ele>
        <time>2018-07-29T11:58:46Z</time>
      </trkpt>
      <trkpt lat="40.426133" lon="-5.296817">
        <ele>1974.0</ele>
        <time>2018-07-29T11:58:47Z</time>
      </trkpt>
      <trkpt lat="40.426133" lon="-5.296900">
        <ele>1975.0</ele>
        <time>2018-07-29T11:58:48Z</time>
      </trkpt>
      <trkpt lat="40.426133" lon="-5.296983">
        <ele>1978.0</ele>
        <time>2018-07-29T11:58:49Z</time>
      </trkpt>
      <trkpt lat="40.426150" lon="-5.297050">
        <ele>1981.0</ele>
        <time>2018-07-29T11:58:50Z</time>
      </trkpt>
      <trkpt lat="40.426150" lon="-5.297100">
        <ele>1983.0</ele>
        <time>2018-07-29T11:58:51Z</time>
      </trkpt>
      <trkpt lat="40.426150" lon="-5.297133">
        <ele>1985.0</ele>
        <time>2018-07-29T11:58:52Z</time>
      </trkpt>
      <trkpt lat="40.426150" lon="-5.297167">
        <ele>1986.0</ele>
        <time>2018-07-29T11:58:53Z</time>
      </trkpt>
      <trkpt lat="40.426167" lon="-5.297200">
        <ele>1986.0</ele>
        <time>2018-07-29T11:58:54Z</time>
      </trkpt>
      <trkpt lat="40.426200" lon="-5.297250">
        <ele>1986.0</ele>
        <time>2018-07-29T11:58:55Z</time>
      </trkpt>
      <trkpt lat="40.426217" lon="-5.297300">
        <ele>1987.0</ele>
        <time>2018-07-29T11:58:56Z</time>
      </trkpt>
      <trkpt lat="40.426233" lon="-5.297350">
        <ele>1990.0</ele>
        <time>2018-07-29T11:58:57Z</time>
      </trkpt>
      <trkpt lat="40.426250" lon="-5.297383">
        <ele>1994.0</ele>
        <time>2018-07-29T11:58:58Z</time>
      </trkpt>
      <trkpt lat="40.426267" lon="-5.297400">
        <ele>1998.0</ele>
        <time>2018-07-29T11:58:59Z</time>
      </trkpt>
      <trkpt lat="40.426300" lon="-5.297400">
        <ele>2001.0</ele>
        <time>2018-07-29T11:59:00Z</time>
      </trkpt>
      <trkpt lat="40.426350" lon="-5.297383">
        <ele>2004.0</ele>
        <time>2018-07-29T11:59:01Z</time>
      </trkpt>
      <trkpt lat="40.426383" lon="-5.297400">
        <ele>2007.0</ele>
        <time>2018-07-29T11:59:02Z</time>
      </trkpt>
      <trkpt lat="40.426417" lon="-5.297433">
        <ele>2011.0</ele>
        <time>2018-07-29T11:59:03Z</time>
      </trkpt>
      <trkpt lat="40.426417" lon="-5.297483">
        <ele>2014.0</ele>
        <time>2018-07-29T11:59:04Z</time>
      </trkpt>
      <trkpt lat="40.426400" lon="-5.297550">
        <ele>2015.0</ele>
        <time>2018-07-29T11:59:05Z</time>
      </trkpt>
      <trkpt lat="40.426383" lon="-5.297633">
        <ele>2017.0</ele>
        <time>2018-07-29T11:59:06Z</time>
      </trkpt>
      <trkpt lat="40.426350" lon="-5.297750">
        <ele>2019.0</ele>
        <time>2018-07-29T11:59:07Z</time>
      </trkpt>
      <trkpt lat="40.426267" lon="-5.297850">
        <ele>2022.0</ele>
        <time>2018-07-29T11:59:08Z</time>
      </trkpt>
      <trkpt lat="40.426150" lon="-5.297917">
        <ele>2025.0</ele>
        <time>2018-07-29T11:59:09Z</time>
      </trkpt>
      <trkpt lat="40.426000" lon="-5.297933">
        <ele>2026.0</ele>
        <time>2018-07-29T11:59:10Z</time>
      </trkpt>
      <trkpt lat="40.425850" lon="-5.297900">
        <ele>2027.0</ele>
        <time>2018-07-29T11:59:11Z</time>
      </trkpt>
      <trkpt lat="40.425683" lon="-5.297817">
        <ele>2027.0</ele>
        <time>2018-07-29T11:59:12Z</time>
      </trkpt>
      <trkpt lat="40.425550" lon="-5.297683">
        <ele>2029.0</ele>
        <time>2018-07-29T11:59:13Z</time>
      </trkpt>
      <trkpt lat="40.425433" lon="-5.297533">
        <ele>2030.0</ele>
        <time>2018-07-29T11:59:14Z</time>
      </trkpt>
      <trkpt lat="40.425350" lon="-5.297350">
        <ele>2030.0</ele>
        <time>2018-07-29T11:59:15Z</time>
      </trkpt>
      <trkpt lat="40.425317" lon="-5.297150">
        <ele>2030.0</ele>
        <time>2018-07-29T11:59:16Z</time>
      </trkpt>
      <trkpt lat="40.425317" lon="-5.296983">
        <ele>2029.0</ele>
        <time>2018-07-29T11:59:17Z</time>
      </trkpt>
      <trkpt lat="40.425350" lon="-5.296833">
        <ele>2029.0</ele>
        <time>2018-07-29T11:59:18Z</time>
      </trkpt>
      <trkpt lat="40.425400" lon="-5.296733">
        <ele>2030.0</ele>
        <time>2018-07-29T11:59:19Z</time>
      </trkpt>
      <trkpt lat="40.425467" lon="-5.296683">
        <ele>2032.0</ele>
        <time>2018-07-29T11:59:20Z</time>
      </trkpt>
      <trkpt lat="40.425517" lon="-5.296683">
        <ele>2034.0</ele>
        <time>2018-07-29T11:59:21Z</time>
      </trkpt>
      <trkpt lat="40.425550" lon="-5.296700">
        <ele>2038.0</ele>
        <time>2018-07-29T11:59:22Z</time>
      </trkpt>
      <trkpt lat="40.425583" lon="-5.296700">
        <ele>2041.0</ele>
        <time>2018-07-29T11:59:23Z</time>
      </trkpt>
      <trkpt lat="40.425600" lon="-5.296717">
        <ele>2043.0</ele>
        <time>2018-07-29T11:59:24Z</time>
      </trkpt>
      <trkpt lat="40.425617" lon="-5.296717">
        <ele>2044.0</ele>
        <time>2018-07-29T11:59:25Z</time>
      </trkpt>
      <trkpt lat="40.425650" lon="-5.296733">
        <ele>2045.0</ele>
        <time>2018-07-29T11:59:26Z</time>
      </trkpt>
      <trkpt lat="40.425683" lon="-5.296750">
        <ele>2045.0</ele>
        <time>2018-07-29T11:59:27Z</time>
      </trkpt>
      <trkpt lat="40.425733" lon="-5.296800">
        <ele>2046.0</ele>
        <time>2018-07-29T11:59:28Z</time>
      </trkpt>
      <trkpt lat="40.425767" lon="-5.296833">
        <ele>2049.0</ele>
        <time>2018-07-29T11:59:29Z</time>
      </trkpt>
      <trkpt lat="40.425800" lon="-5.296850">
        <ele>2051.0</ele>
        <time>2018-07-29T11:59:30Z</time>
      </trkpt>
      <trkpt lat="40.425817" lon="-5.296867">
        <ele>2053.0</ele>
        <time>2018-07-29T11:59:31Z</time>
      </trkpt>
      <trkpt lat="40.425833" lon="-5.296883">
        <ele>2054.0</ele>
        <time>2018-07-29T11:59:32Z</time>
      </trkpt>
      <trkpt lat="40.425850" lon="-5.296900">
        <ele>2054.0</ele>
        <time>2018-07-29T11:59:33Z</time>
      </trkpt>
      <trkpt lat="40.425850" lon="-5.296950">
        <ele>2053.0</ele>
        <time>2018-07-29T11:59:34Z</time>
      </trkpt>
      <trkpt lat="40.425867" lon="-5.297017">
        <ele>2053.0</ele>
        <time>2018-07-29T11:59:35Z</time>
      </trkpt>
      <trkpt lat="40.425883" lon="-5.297083">
        <ele>2052.0</ele>
        <time>2018-07-29T11:59:36Z</time>
      </trkpt>
      <trkpt lat="40.425900" lon="-5.297133">
        <ele>2053.0</ele>
        <time>2018-07-29T11:59:37Z</time>
      </trkpt>
      <trkpt lat="40.425917" lon="-5.297200">
        <ele>2054.0</ele>
        <time>2018-07-29T11:59:38Z</time>
      </trkpt>
      <trkpt lat="40.425917" lon="-5.297250">
        <ele>2054.0</ele>
        <time>2018-07-29T11:59:39Z</time>
      </trkpt>
      <trkpt lat="40.425933" lon="-5.297300">
        <ele>2054.0</ele>
        <time>2018-07-29T11:59:40Z</time>
      </trkpt>
      <trkpt lat="40.425950" lon="-5.297350">
        <ele>2054.0</ele>
        <time>2018-07-29T11:59:41Z</time>
      </trkpt>
      <trkpt lat="40.425983" lon="-5.297417">
        <ele>2056.0</ele>
        <time>2018-07-29T11:59:42Z</time>
      </trkpt>
      <trkpt lat="40.426017" lon="-5.297450">
        <ele>2057.0</ele>
        <time>2018-07-29T11:59:43Z</time>
      </trkpt>
      <trkpt lat="40.426033" lon="-5.297467">
        <ele>2059.0</ele>
        <time>2018-07-29T11:59:44Z</time>
      </trkpt>
      <trkpt lat="40.426050" lon="-5.297467">
        <ele>2060.0</ele>
        <time>2018-07-29T11:59:45Z</time>
      </trkpt>
      <trkpt lat="40.426083" lon="-5.297483">
        <ele>2059.0</ele>
        <time>2018-07-29T11:59:46Z</time>
      </trkpt>
      <trkpt lat="40.426100" lon="-5.297517">
        <ele>2059.0</ele>
        <time>2018-07-29T11:59:47Z</time>
      </trkpt>
      <trkpt lat="40.426150" lon="-5.297550">
        <ele>2058.0</ele>
        <time>2018-07-29T11:59:48Z</time>
      </trkpt>
      <trkpt lat="40.426183" lon="-5.297583">
        <ele>2058.0</ele>
        <time>2018-07-29T11:59:49Z</time>
      </trkpt>
      <trkpt lat="40.426233" lon="-5.297617">
        <ele>2057.0</ele>
        <time>2018-07-29T11:59:50Z</time>
      </trkpt>
      <trkpt lat="40.426283" lon="-5.297650">
        <ele>2057.0</ele>
        <time>2018-07-29T11:59:51Z</time>
      </trkpt>
      <trkpt lat="40.426333" lon="-5.297667">
        <ele>2057.0</ele>
        <time>2018-07-29T11:59:52Z</time>
      </trkpt>
      <trkpt lat="40.426383" lon="-5.297667">
        <ele>2057.0</ele>
        <time>2018-07-29T11:59:53Z</time>
      </trkpt>
      <trkpt lat="40.426433" lon="-5.297683">
        <ele>2056.0</ele>
        <time>2018-07-29T11:59:54Z</time>
      </trkpt>
      <trkpt lat="40.426483" lon="-5.297683">
        <ele>2056.0</ele>
        <time>2018-07-29T11:59:55Z</time>
      </trkpt>
      <trkpt lat="40.426533" lon="-5.297683">
        <ele>2055.0</ele>
        <time>2018-07-29T11:59:56Z</time>
      </trkpt>
      <trkpt lat="40.426600" lon="-5.297717">
        <ele>2055.0</ele>
        <time>2018-07-29T11:59:57Z</time>
      </trkpt>
      <trkpt lat="40.426650" lon="-5.297733">
        <ele>2056.0</ele>
        <time>2018-07-29T11:59:58Z</time>
      </trkpt>
      <trkpt lat="40.426717" lon="-5.297750">
        <ele>2057.0</ele>
        <time>2018-07-29T11:59:59Z</time>
      </trkpt>
      <trkpt lat="40.426767" lon="-5.297750">
        <ele>2059.0</ele>
        <time>2018-07-29T12:00:00Z</time>
      </trkpt>
      <trkpt lat="40.426817" lon="-5.297750">
        <ele>2060.0</ele>
        <time>2018-07-29T12:00:01Z</time>
      </trkpt>
      <trkpt lat="40.426850" lon="-5.297767">
        <ele>2059.0</ele>
        <time>2018-07-29T12:00:02Z</time>
      </trkpt>
      <trkpt lat="40.426883" lon="-5.297783">
        <ele>2059.0</ele>
        <time>2018-07-29T12:00:03Z</time>
      </trkpt>
      <trkpt lat="40.426933" lon="-5.297833">
        <ele>2058.0</ele>
        <time>2018-07-29T12:00:04Z</time>
      </trkpt>
      <trkpt lat="40.426967" lon="-5.297900">
        <ele>2058.0</ele>
        <time>2018-07-29T12:00:05Z</time>
      </trkpt>
      <trkpt lat="40.427017" lon="-5.297950">
        <ele>2057.0</ele>
        <time>2018-07-29T12:00:06Z</time>
      </trkpt>
      <trkpt lat="40.427067" lon="-5.298000">
        <ele>2056.0</ele>
        <time>2018-07-29T12:00:07Z</time>
      </trkpt>
      <trkpt lat="40.427117" lon="-5.298033">
        <ele>2055.0</ele>
        <time>2018-07-29T12:00:08Z</time>
      </trkpt>
      <trkpt lat="40.427183" lon="-5.298067">
        <ele>2055.0</ele>
        <time>2018-07-29T12:00:09Z</time>
      </trkpt>
      <trkpt lat="40.427250" lon="-5.298083">
        <ele>2054.0</ele>
        <time>2018-07-29T12:00:10Z</time>
      </trkpt>
      <trkpt lat="40.427300" lon="-5.298100">
        <ele>2054.0</ele>
        <time>2018-07-29T12:00:11Z</time>
      </trkpt>
      <trkpt lat="40.427367" lon="-5.298117">
        <ele>2053.0</ele>
        <time>2018-07-29T12:00:12Z</time>
      </trkpt>
      <trkpt lat="40.427433" lon="-5.298150">
        <ele>2052.0</ele>
        <time>2018-07-29T12:00:13Z</time>
      </trkpt>
      <trkpt lat="40.427483" lon="-5.298167">
        <ele>2051.0</ele>
        <time>2018-07-29T12:00:14Z</time>
      </trkpt>
      <trkpt lat="40.427550" lon="-5.298200">
        <ele>2050.0</ele>
        <time>2018-07-29T12:00:15Z</time>
      </trkpt>
      <trkpt lat="40.427600" lon="-5.298217">
        <ele>2051.0</ele>
        <time>2018-07-29T12:00:16Z</time>
      </trkpt>
      <trkpt lat="40.427667" lon="-5.298250">
        <ele>2051.0</ele>
        <time>2018-07-29T12:00:17Z</time>
      </trkpt>
      <trkpt lat="40.427717" lon="-5.298283">
        <ele>2050.0</ele>
        <time>2018-07-29T12:00:18Z</time>
      </trkpt>
      <trkpt lat="40.427767" lon="-5.298317">
        <ele>2049.0</ele>
        <time>2018-07-29T12:00:19Z</time>
      </trkpt>
      <trkpt lat="40.427817" lon="-5.298333">
        <ele>2048.0</ele>
        <time>2018-07-29T12:00:20Z</time>
      </trkpt>
      <trkpt lat="40.427883" lon="-5.298333">
        <ele>2046.0</ele>
        <time>2018-07-29T12:00:21Z</time>
      </trkpt>
      <trkpt lat="40.427950" lon="-5.298350">
        <ele>2045.0</ele>
        <time>2018-07-29T12:00:22Z</time>
      </trkpt>
      <trkpt lat="40.428017" lon="-5.298367">
        <ele>2043.0</ele>
        <time>2018-07-29T12:00:23Z</time>
      </trkpt>
      <trkpt lat="40.428067" lon="-5.298383">
        <ele>2042.0</ele>
        <time>2018-07-29T12:00:24Z</time>
      </trkpt>
      <trkpt lat="40.428133" lon="-5.298400">
        <ele>2041.0</ele>
        <time>2018-07-29T12:00:25Z</time>
      </trkpt>
      <trkpt lat="40.428183" lon="-5.298417">
        <ele>2040.0</ele>
        <time>2018-07-29T12:00:26Z</time>
      </trkpt>
      <trkpt lat="40.428250" lon="-5.298433">
        <ele>2039.0</ele>
        <time>2018-07-29T12:00:27Z</time>
      </trkpt>
      <trkpt lat="40.428300" lon="-5.298450">
        <ele>2038.0</ele>
        <time>2018-07-29T12:00:28Z</time>
      </trkpt>
      <trkpt lat="40.428367" lon="-5.298467">
        <ele>2038.0</ele>
        <time>2018-07-29T12:00:29Z</time>
      </trkpt>
      <trkpt lat="40.428433" lon="-5.298467">
        <ele>2037.0</ele>
        <time>2018-07-29T12:00:30Z</time>
      </trkpt>
      <trkpt lat="40.428500" lon="-5.298483">
        <ele>2037.0</ele>
        <time>2018-07-29T12:00:31Z</time>
      </trkpt>
      <trkpt lat="40.428550" lon="-5.298500">
        <ele>2036.0</ele>
        <time>2018-07-29T12:00:32Z</time>
      </trkpt>
      <trkpt lat="40.428600" lon="-5.298517">
        <ele>2036.0</ele>
        <time>2018-07-29T12:00:33Z</time>
      </trkpt>
      <trkpt lat="40.428667" lon="-5.298550">
        <ele>2035.0</ele>
        <time>2018-07-29T12:00:34Z</time>
      </trkpt>
      <trkpt lat="40.428717" lon="-5.298600">
        <ele>2034.0</ele>
        <time>2018-07-29T12:00:35Z</time>
      </trkpt>
      <trkpt lat="40.428767" lon="-5.298650">
        <ele>2034.0</ele>
        <time>2018-07-29T12:00:36Z</time>
      </trkpt>
      <trkpt lat="40.428800" lon="-5.298700">
        <ele>2033.0</ele>
        <time>2018-07-29T12:00:37Z</time>
      </trkpt>
      <trkpt lat="40.428833" lon="-5.298750">
        <ele>2032.0</ele>
        <time>2018-07-29T12:00:38Z</time>
      </trkpt>
      <trkpt lat="40.428867" lon="-5.298817">
        <ele>2030.0</ele>
        <time>2018-07-29T12:00:39Z</time>
      </trkpt>
      <trkpt lat="40.428900" lon="-5.298900">
        <ele>2029.0</ele>
        <time>2018-07-29T12:00:40Z</time>
      </trkpt>
      <trkpt lat="40.428900" lon="-5.299000">
        <ele>2027.0</ele>
        <time>2018-07-29T12:00:41Z</time>
      </trkpt>
      <trkpt lat="40.428900" lon="-5.299100">
        <ele>2026.0</ele>
        <time>2018-07-29T12:00:42Z</time>
      </trkpt>
      <trkpt lat="40.428867" lon="-5.299200">
        <ele>2027.0</ele>
        <time>2018-07-29T12:00:43Z</time>
      </trkpt>
      <trkpt lat="40.428833" lon="-5.299267">
        <ele>2027.0</ele>
        <time>2018-07-29T12:00:44Z</time>
      </trkpt>
      <trkpt lat="40.428800" lon="-5.299350">
        <ele>2027.0</ele>
        <time>2018-07-29T12:00:45Z</time>
      </trkpt>
      <trkpt lat="40.428733" lon="-5.299417">
        <ele>2026.0</ele>
        <time>2018-07-29T12:00:46Z</time>
      </trkpt>
      <trkpt lat="40.428667" lon="-5.299483">
        <ele>2025.0</ele>
        <time>2018-07-29T12:00:47Z</time>
      </trkpt>
      <trkpt lat="40.428583" lon="-5.299550">
        <ele>2023.0</ele>
        <time>2018-07-29T12:00:48Z</time>
      </trkpt>
      <trkpt lat="40.428483" lon="-5.299600">
        <ele>2022.0</ele>
        <time>2018-07-29T12:00:49Z</time>
      </trkpt>
      <trkpt lat="40.428367" lon="-5.299617">
        <ele>2022.0</ele>
        <time>2018-07-29T12:00:50Z</time>
      </trkpt>
      <trkpt lat="40.428233" lon="-5.299617">
        <ele>2021.0</ele>
        <time>2018-07-29T12:00:51Z</time>
      </trkpt>
      <trkpt lat="40.428117" lon="-5.299583">
        <ele>2022.0</ele>
        <time>2018-07-29T12:00:52Z</time>
      </trkpt>
      <trkpt lat="40.428017" lon="-5.299533">
        <ele>2022.0</ele>
        <time>2018-07-29T12:00:53Z</time>
      </trkpt>
      <trkpt lat="40.427917" lon="-5.299467">
        <ele>2021.0</ele>
        <time>2018-07-29T12:00:54Z</time>
      </trkpt>
      <trkpt lat="40.427817" lon="-5.299367">
        <ele>2020.0</ele>
        <time>2018-07-29T12:00:55Z</time>
      </trkpt>
      <trkpt lat="40.427733" lon="-5.299267">
        <ele>2019.0</ele>
        <time>2018-07-29T12:00:56Z</time>
      </trkpt>
      <trkpt lat="40.427633" lon="-5.299133">
        <ele>2017.0</ele>
        <time>2018-07-29T12:00:57Z</time>
      </trkpt>
      <trkpt lat="40.427567" lon="-5.299000">
        <ele>2016.0</ele>
        <time>2018-07-29T12:00:58Z</time>
      </trkpt>
      <trkpt lat="40.427500" lon="-5.298850">
        <ele>2017.0</ele>
        <time>2018-07-29T12:00:59Z</time>
      </trkpt>
      <trkpt lat="40.427450" lon="-5.298700">
        <ele>2017.0</ele>
        <time>2018-07-29T12:01:00Z</time>
      </trkpt>
      <trkpt lat="40.427433" lon="-5.298550">
        <ele>2017.0</ele>
        <time>2018-07-29T12:01:01Z</time>
      </trkpt>
      <trkpt lat="40.427417" lon="-5.298417">
        <ele>2016.0</ele>
        <time>2018-07-29T12:01:02Z</time>
      </trkpt>
      <trkpt lat="40.427417" lon="-5.298267">
        <ele>2015.0</ele>
        <time>2018-07-29T12:01:03Z</time>
      </trkpt>
      <trkpt lat="40.427400" lon="-5.298117">
        <ele>2014.0</ele>
        <time>2018-07-29T12:01:04Z</time>
      </trkpt>
      <trkpt lat="40.427367" lon="-5.297967">
        <ele>2013.0</ele>
        <time>2018-07-29T12:01:05Z</time>
      </trkpt>
      <trkpt lat="40.427333" lon="-5.297800">
        <ele>2013.0</ele>
        <time>2018-07-29T12:01:06Z</time>
      </trkpt>
      <trkpt lat="40.427317" lon="-5.297633">
        <ele>2013.0</ele>
        <time>2018-07-29T12:01:07Z</time>
      </trkpt>
      <trkpt lat="40.427283" lon="-5.297483">
        <ele>2014.0</ele>
        <time>2018-07-29T12:01:08Z</time>
      </trkpt>
      <trkpt lat="40.427267" lon="-5.297317">
        <ele>2015.0</ele>
        <time>2018-07-29T12:01:09Z</time>
      </trkpt>
      <trkpt lat="40.427233" lon="-5.297183">
        <ele>2016.0</ele>
        <time>2018-07-29T12:01:10Z</time>
      </trkpt>
      <trkpt lat="40.427233" lon="-5.297033">
        <ele>2016.0</ele>
        <time>2018-07-29T12:01:11Z</time>
      </trkpt>
      <trkpt lat="40.427217" lon="-5.296900">
        <ele>2016.0</ele>
        <time>2018-07-29T12:01:12Z</time>
      </trkpt>
      <trkpt lat="40.427233" lon="-5.296767">
        <ele>2016.0</ele>
        <time>2018-07-29T12:01:13Z</time>
      </trkpt>
      <trkpt lat="40.427250" lon="-5.296650">
        <ele>2016.0</ele>
        <time>2018-07-29T12:01:14Z</time>
      </trkpt>
      <trkpt lat="40.427300" lon="-5.296550">
        <ele>2015.0</ele>
        <time>2018-07-29T12:01:15Z</time>
      </trkpt>
      <trkpt lat="40.427350" lon="-5.296483">
        <ele>2015.0</ele>
        <time>2018-07-29T12:01:16Z</time>
      </trkpt>
      <trkpt lat="40.427417" lon="-5.296433">
        <ele>2015.0</ele>
        <time>2018-07-29T12:01:17Z</time>
      </trkpt>
      <trkpt lat="40.427467" lon="-5.296417">
        <ele>2015.0</ele>
        <time>2018-07-29T12:01:18Z</time>
      </trkpt>
      <trkpt lat="40.427517" lon="-5.296400">
        <ele>2016.0</ele>
        <time>2018-07-29T12:01:19Z</time>
      </trkpt>
      <trkpt lat="40.427567" lon="-5.296400">
        <ele>2015.0</ele>
        <time>2018-07-29T12:01:20Z</time>
      </trkpt>
      <trkpt lat="40.427617" lon="-5.296400">
        <ele>2015.0</ele>
        <time>2018-07-29T12:01:21Z</time>
      </trkpt>
      <trkpt lat="40.427667" lon="-5.296400">
        <ele>2014.0</ele>
        <time>2018-07-29T12:01:22Z</time>
      </trkpt>
      <trkpt lat="40.427717" lon="-5.296417">
        <ele>2013.0</ele>
        <time>2018-07-29T12:01:23Z</time>
      </trkpt>
      <trkpt lat="40.427750" lon="-5.296433">
        <ele>2013.0</ele>
        <time>2018-07-29T12:01:24Z</time>
      </trkpt>
      <trkpt lat="40.427800" lon="-5.296483">
        <ele>2013.0</ele>
        <time>2018-07-29T12:01:25Z</time>
      </trkpt>
      <trkpt lat="40.427817" lon="-5.296517">
        <ele>2013.0</ele>
        <time>2018-07-29T12:01:26Z</time>
      </trkpt>
      <trkpt lat="40.427850" lon="-5.296567">
        <ele>2013.0</ele>
        <time>2018-07-29T12:01:27Z</time>
      </trkpt>
      <trkpt lat="40.427867" lon="-5.296617">
        <ele>2012.0</ele>
        <time>2018-07-29T12:01:28Z</time>
      </trkpt>
      <trkpt lat="40.427900" lon="-5.296667">
        <ele>2012.0</ele>
        <time>2018-07-29T12:01:29Z</time>
      </trkpt>
      <trkpt lat="40.427933" lon="-5.296717">
        <ele>2011.0</ele>
        <time>2018-07-29T12:01:30Z</time>
      </trkpt>
      <trkpt lat="40.427967" lon="-5.296750">
        <ele>2010.0</ele>
        <time>2018-07-29T12:01:31Z</time>
      </trkpt>
      <trkpt lat="40.428017" lon="-5.296800">
        <ele>2008.0</ele>
        <time>2018-07-29T12:01:32Z</time>
      </trkpt>
      <trkpt lat="40.428050" lon="-5.296850">
        <ele>2007.0</ele>
        <time>2018-07-29T12:01:33Z</time>
      </trkpt>
      <trkpt lat="40.428083" lon="-5.296917">
        <ele>2006.0</ele>
        <time>2018-07-29T12:01:34Z</time>
      </trkpt>
      <trkpt lat="40.428117" lon="-5.296983">
        <ele>2005.0</ele>
        <time>2018-07-29T12:01:35Z</time>
      </trkpt>
      <trkpt lat="40.428150" lon="-5.297050">
        <ele>2004.0</ele>
        <time>2018-07-29T12:01:36Z</time>
      </trkpt>
      <trkpt lat="40.428200" lon="-5.297100">
        <ele>2004.0</ele>
        <time>2018-07-29T12:01:37Z</time>
      </trkpt>
      <trkpt lat="40.428233" lon="-5.297167">
        <ele>2004.0</ele>
        <time>2018-07-29T12:01:38Z</time>
      </trkpt>
      <trkpt lat="40.428267" lon="-5.297217">
        <ele>2003.0</ele>
        <time>2018-07-29T12:01:39Z</time>
      </trkpt>
      <trkpt lat="40.428300" lon="-5.297267">
        <ele>2002.0</ele>
        <time>2018-07-29T12:01:40Z</time>
      </trkpt>
      <trkpt lat="40.428333" lon="-5.297333">
        <ele>2001.0</ele>
        <time>2018-07-29T12:01:41Z</time>
      </trkpt>
      <trkpt lat="40.428367" lon="-5.297383">
        <ele>2001.0</ele>
        <time>2018-07-29T12:01:42Z</time>
      </trkpt>
      <trkpt lat="40.428383" lon="-5.297450">
        <ele>2001.0</ele>
        <time>2018-07-29T12:01:43Z</time>
      </trkpt>
      <trkpt lat="40.428383" lon="-5.297500">
        <ele>2000.0</ele>
        <time>2018-07-29T12:01:44Z</time>
      </trkpt>
      <trkpt lat="40.428400" lon="-5.297567">
        <ele>1999.0</ele>
        <time>2018-07-29T12:01:45Z</time>
      </trkpt>
      <trkpt lat="40.428417" lon="-5.297633">
        <ele>1997.0</ele>
        <time>2018-07-29T12:01:46Z</time>
      </trkpt>
      <trkpt lat="40.428417" lon="-5.297700">
        <ele>1995.0</ele>
        <time>2018-07-29T12:01:47Z</time>
      </trkpt>
      <trkpt lat="40.428433" lon="-5.297783">
        <ele>1994.0</ele>
        <time>2018-07-29T12:01:48Z</time>
      </trkpt>
      <trkpt lat="40.428433" lon="-5.297883">
        <ele>1993.0</ele>
        <time>2018-07-29T12:01:49Z</time>
      </trkpt>
      <trkpt lat="40.428417" lon="-5.297983">
        <ele>1993.0</ele>
        <time>2018-07-29T12:01:50Z</time>
      </trkpt>
      <trkpt lat="40.428400" lon="-5.298083">
        <ele>1993.0</ele>
        <time>2018-07-29T12:01:51Z</time>
      </trkpt>
      <trkpt lat="40.428400" lon="-5.298183">
        <ele>1992.0</ele>
        <time>2018-07-29T12:01:52Z</time>
      </trkpt>
      <trkpt lat="40.428400" lon="-5.298283">
        <ele>1992.0</ele>
        <time>2018-07-29T12:01:53Z</time>
      </trkpt>
      <trkpt lat="40.428400" lon="-5.298383">
        <ele>1991.0</ele>
        <time>2018-07-29T12:01:54Z</time>
      </trkpt>
      <trkpt lat="40.428417" lon="-5.298483">
        <ele>1991.0</ele>
        <time>2018-07-29T12:01:55Z</time>
      </trkpt>
      <trkpt lat="40.428417" lon="-5.298583">
        <ele>1991.0</ele>
        <time>2018-07-29T12:01:56Z</time>
      </trkpt>
      <trkpt lat="40.428417" lon="-5.298667">
        <ele>1992.0</ele>
        <time>2018-07-29T12:01:57Z</time>
      </trkpt>
      <trkpt lat="40.428417" lon="-5.298750">
        <ele>1992.0</ele>
        <time>2018-07-29T12:01:58Z</time>
      </trkpt>
      <trkpt lat="40.428433" lon="-5.298850">
        <ele>1992.0</ele>
        <time>2018-07-29T12:01:59Z</time>
      </trkpt>
      <trkpt lat="40.428433" lon="-5.298917">
        <ele>1992.0</ele>
        <time>2018-07-29T12:02:00Z</time>
      </trkpt>
      <trkpt lat="40.428433" lon="-5.299000">
        <ele>1992.0</ele>
        <time>2018-07-29T12:02:01Z</time>
      </trkpt>
      <trkpt lat="40.428450" lon="-5.299067">
        <ele>1992.0</ele>
        <time>2018-07-29T12:02:02Z</time>
      </trkpt>
      <trkpt lat="40.428467" lon="-5.299150">
        <ele>1991.0</ele>
        <time>2018-07-29T12:02:03Z</time>
      </trkpt>
      <trkpt lat="40.428500" lon="-5.299200">
        <ele>1991.0</ele>
        <time>2018-07-29T12:02:04Z</time>
      </trkpt>
      <trkpt lat="40.428533" lon="-5.299250">
        <ele>1991.0</ele>
        <time>2018-07-29T12:02:05Z</time>
      </trkpt>
      <trkpt lat="40.428583" lon="-5.299300">
        <ele>1992.0</ele>
        <time>2018-07-29T12:02:06Z</time>
      </trkpt>
      <trkpt lat="40.428600" lon="-5.299350">
        <ele>1993.0</ele>
        <time>2018-07-29T12:02:07Z</time>
      </trkpt>
      <trkpt lat="40.428617" lon="-5.299417">
        <ele>1994.0</ele>
        <time>2018-07-29T12:02:08Z</time>
      </trkpt>
      <trkpt lat="40.428617" lon="-5.299500">
        <ele>1994.0</ele>
        <time>2018-07-29T12:02:09Z</time>
      </trkpt>
      <trkpt lat="40.428633" lon="-5.299583">
        <ele>1994.0</ele>
        <time>2018-07-29T12:02:10Z</time>
      </trkpt>
      <trkpt lat="40.428650" lon="-5.299650">
        <ele>1995.0</ele>
        <time>2018-07-29T12:02:11Z</time>
      </trkpt>
      <trkpt lat="40.428683" lon="-5.299717">
        <ele>1997.0</ele>
        <time>2018-07-29T12:02:12Z</time>
      </trkpt>
      <trkpt lat="40.428717" lon="-5.299767">
        <ele>1999.0</ele>
        <time>2018-07-29T12:02:13Z</time>
      </trkpt>
      <trkpt lat="40.428733" lon="-5.299817">
        <ele>2002.0</ele>
        <time>2018-07-29T12:02:14Z</time>
      </trkpt>
      <trkpt lat="40.428733" lon="-5.299867">
        <ele>2003.0</ele>
        <time>2018-07-29T12:02:15Z</time>
      </trkpt>
      <trkpt lat="40.428733" lon="-5.299917">
        <ele>2004.0</ele>
        <time>2018-07-29T12:02:16Z</time>
      </trkpt>
      <trkpt lat="40.428750" lon="-5.299950">
        <ele>2004.0</ele>
        <time>2018-07-29T12:02:17Z</time>
      </trkpt>
      <trkpt lat="40.428783" lon="-5.299983">
        <ele>2004.0</ele>
        <time>2018-07-29T12:02:18Z</time>
      </trkpt>
      <trkpt lat="40.428833" lon="-5.300000">
        <ele>2004.0</ele>
        <time>2018-07-29T12:02:19Z</time>
      </trkpt>
      <trkpt lat="40.428883" lon="-5.300000">
        <ele>2005.0</ele>
        <time>2018-07-29T12:02:20Z</time>
      </trkpt>
      <trkpt lat="40.428950" lon="-5.299983">
        <ele>2006.0</ele>
        <time>2018-07-29T12:02:21Z</time>
      </trkpt>
      <trkpt lat="40.429000" lon="-5.299933">
        <ele>2008.0</ele>
        <time>2018-07-29T12:02:22Z</time>
      </trkpt>
      <trkpt lat="40.429050" lon="-5.299850">
        <ele>2009.0</ele>
        <time>2018-07-29T12:02:23Z</time>
      </trkpt>
      <trkpt lat="40.429100" lon="-5.299750">
        <ele>2011.0</ele>
        <time>2018-07-29T12:02:24Z</time>
      </trkpt>
      <trkpt lat="40.429133" lon="-5.299633">
        <ele>2013.0</ele>
        <time>2018-07-29T12:02:25Z</time>
      </trkpt>
      <trkpt lat="40.429167" lon="-5.299533">
        <ele>2014.0</ele>
        <time>2018-07-29T12:02:26Z</time>
      </trkpt>
      <trkpt lat="40.429200" lon="-5.299417">
        <ele>2015.0</ele>
        <time>2018-07-29T12:02:27Z</time>
      </trkpt>
      <trkpt lat="40.429233" lon="-5.299283">
        <ele>2015.0</ele>
        <time>2018-07-29T12:02:28Z</time>
      </trkpt>
      <trkpt lat="40.429250" lon="-5.299150">
        <ele>2014.0</ele>
        <time>2018-07-29T12:02:29Z</time>
      </trkpt>
      <trkpt lat="40.429233" lon="-5.299000">
        <ele>2015.0</ele>
        <time>2018-07-29T12:02:30Z</time>
      </trkpt>
      <trkpt lat="40.429217" lon="-5.298850">
        <ele>2015.0</ele>
        <time>2018-07-29T12:02:31Z</time>
      </trkpt>
      <trkpt lat="40.429167" lon="-5.298717">
        <ele>2014.0</ele>
        <time>2018-07-29T12:02:32Z</time>
      </trkpt>
      <trkpt lat="40.429100" lon="-5.298583">
        <ele>2013.0</ele>
        <time>2018-07-29T12:02:33Z</time>
      </trkpt>
      <trkpt lat="40.429000" lon="-5.298450">
        <ele>2012.0</ele>
        <time>2018-07-29T12:02:34Z</time>
      </trkpt>
      <trkpt lat="40.428883" lon="-5.298333">
        <ele>2011.0</ele>
        <time>2018-07-29T12:02:35Z</time>
      </trkpt>
      <trkpt lat="40.428767" lon="-5.298250">
        <ele>2010.0</ele>
        <time>2018-07-29T12:02:36Z</time>
      </trkpt>
      <trkpt lat="40.428633" lon="-5.298183">
        <ele>2010.0</ele>
        <time>2018-07-29T12:02:37Z</time>
      </trkpt>
      <trkpt lat="40.428517" lon="-5.298150">
        <ele>2010.0</ele>
        <time>2018-07-29T12:02:38Z</time>
      </trkpt>
      <trkpt lat="40.428383" lon="-5.298150">
        <ele>2010.0</ele>
        <time>2018-07-29T12:02:39Z</time>
      </trkpt>
      <trkpt lat="40.428283" lon="-5.298167">
        <ele>2008.0</ele>
        <time>2018-07-29T12:02:40Z</time>
      </trkpt>
      <trkpt lat="40.428167" lon="-5.298217">
        <ele>2007.0</ele>
        <time>2018-07-29T12:02:41Z</time>
      </trkpt>
      <trkpt lat="40.428083" lon="-5.298283">
        <ele>2005.0</ele>
        <time>2018-07-29T12:02:42Z</time>
      </trkpt>
      <trkpt lat="40.428000" lon="-5.298367">
        <ele>2004.0</ele>
        <time>2018-07-29T12:02:43Z</time>
      </trkpt>
      <trkpt lat="40.427933" lon="-5.298433">
        <ele>2004.0</ele>
        <time>2018-07-29T12:02:44Z</time>
      </trkpt>
      <trkpt lat="40.427867" lon="-5.298500">
        <ele>2004.0</ele>
        <time>2018-07-29T12:02:45Z</time>
      </trkpt>
      <trkpt lat="40.427833" lon="-5.298567">
        <ele>2004.0</ele>
        <time>2018-07-29T12:02:46Z</time>
      </trkpt>
      <trkpt lat="40.427817" lon="-5.298633">
        <ele>2003.0</ele>
        <time>2018-07-29T12:02:47Z</time>
      </trkpt>
      <trkpt lat="40.427800" lon="-5.298717">
        <ele>2002.0</ele>
        <time>2018-07-29T12:02:48Z</time>
      </trkpt>
      <trkpt lat="40.427783" lon="-5.298817">
        <ele>2001.0</ele>
        <time>2018-07-29T12:02:49Z</time>
      </trkpt>
      <trkpt lat="40.427800" lon="-5.298917">
        <ele>2001.0</ele>
        <time>2018-07-29T12:02:50Z</time>
      </trkpt>
      <trkpt lat="40.427817" lon="-5.299000">
        <ele>2002.0</ele>
        <time>2018-07-29T12:02:51Z</time>
      </trkpt>
      <trkpt lat="40.427833" lon="-5.299083">
        <ele>2005.0</ele>
        <time>2018-07-29T12:02:52Z</time>
      </trkpt>
      <trkpt lat="40.427850" lon="-5.299150">
        <ele>2008.0</ele>
        <time>2018-07-29T12:02:53Z</time>
      </trkpt>
      <trkpt lat="40.427867" lon="-5.299200">
        <ele>2011.0</ele>
        <time>2018-07-29T12:02:54Z</time>
      </trkpt>
      <trkpt lat="40.427883" lon="-5.299250">
        <ele>2014.0</ele>
        <time>2018-07-29T12:02:55Z</time>
      </trkpt>
      <trkpt lat="40.427883" lon="-5.299300">
        <ele>2016.0</ele>
        <time>2018-07-29T12:02:56Z</time>
      </trkpt>
      <trkpt lat="40.427883" lon="-5.299383">
        <ele>2017.0</ele>
        <time>2018-07-29T12:02:57Z</time>
      </trkpt>
      <trkpt lat="40.427867" lon="-5.299483">
        <ele>2017.0</ele>
        <time>2018-07-29T12:02:58Z</time>
      </trkpt>
      <trkpt lat="40.427850" lon="-5.299583">
        <ele>2020.0</ele>
        <time>2018-07-29T12:02:59Z</time>
      </trkpt>
      <trkpt lat="40.427833" lon="-5.299683">
        <ele>2023.0</ele>
        <time>2018-07-29T12:03:00Z</time>
      </trkpt>
      <trkpt lat="40.427850" lon="-5.299750">
        <ele>2025.0</ele>
        <time>2018-07-29T12:03:01Z</time>
      </trkpt>
      <trkpt lat="40.427900" lon="-5.299800">
        <ele>2026.0</ele>
        <time>2018-07-29T12:03:02Z</time>
      </trkpt>
      <trkpt lat="40.427967" lon="-5.299800">
        <ele>2027.0</ele>
        <time>2018-07-29T12:03:03Z</time>
      </trkpt>
      <trkpt lat="40.428050" lon="-5.299783">
        <ele>2029.0</ele>
        <time>2018-07-29T12:03:04Z</time>
      </trkpt>
      <trkpt lat="40.428133" lon="-5.299700">
        <ele>2032.0</ele>
        <time>2018-07-29T12:03:05Z</time>
      </trkpt>
      <trkpt lat="40.428183" lon="-5.299583">
        <ele>2036.0</ele>
        <time>2018-07-29T12:03:06Z</time>
      </trkpt>
      <trkpt lat="40.428217" lon="-5.299433">
        <ele>2040.0</ele>
        <time>2018-07-29T12:03:07Z</time>
      </trkpt>
      <trkpt lat="40.428200" lon="-5.299267">
        <ele>2045.0</ele>
        <time>2018-07-29T12:03:08Z</time>
      </trkpt>
      <trkpt lat="40.428133" lon="-5.299117">
        <ele>2048.0</ele>
        <time>2018-07-29T12:03:09Z</time>
      </trkpt>
      <trkpt lat="40.428050" lon="-5.298967">
        <ele>2052.0</ele>
        <time>2018-07-29T12:03:10Z</time>
      </trkpt>
      <trkpt lat="40.427933" lon="-5.298867">
        <ele>2055.0</ele>
        <time>2018-07-29T12:03:11Z</time>
      </trkpt>
      <trkpt lat="40.427800" lon="-5.298800">
        <ele>2057.0</ele>
        <time>2018-07-29T12:03:12Z</time>
      </trkpt>
      <trkpt lat="40.427650" lon="-5.298800">
        <ele>2061.0</ele>
        <time>2018-07-29T12:03:13Z</time>
      </trkpt>
      <trkpt lat="40.427533" lon="-5.298850">
        <ele>2064.0</ele>
        <time>2018-07-29T12:03:14Z</time>
      </trkpt>
      <trkpt lat="40.427467" lon="-5.298933">
        <ele>2067.0</ele>
        <time>2018-07-29T12:03:15Z</time>
      </trkpt>
      <trkpt lat="40.427417" lon="-5.299033">
        <ele>2069.0</ele>
        <time>2018-07-29T12:03:16Z</time>
      </trkpt>
      <trkpt lat="40.427383" lon="-5.299117">
        <ele>2072.0</ele>
        <time>2018-07-29T12:03:17Z</time>
      </trkpt>
      <trkpt lat="40.427383" lon="-5.299217">
        <ele>2075.0</ele>
        <time>2018-07-29T12:03:18Z</time>
      </trkpt>
      <trkpt lat="40.427417" lon="-5.299283">
        <ele>2076.0</ele>
        <time>2018-07-29T12:03:19Z</time>
      </trkpt>
      <trkpt lat="40.427467" lon="-5.299317">
        <ele>2077.0</ele>
        <time>2018-07-29T12:03:20Z</time>
      </trkpt>
      <trkpt lat="40.427550" lon="-5.299300">
        <ele>2079.0</ele>
        <time>2018-07-29T12:03:21Z</time>
      </trkpt>
      <trkpt lat="40.427617" lon="-5.299250">
        <ele>2081.0</ele>
        <time>2018-07-29T12:03:22Z</time>
      </trkpt>
      <trkpt lat="40.427683" lon="-5.299150">
        <ele>2086.0</ele>
        <time>2018-07-29T12:03:23Z</time>
      </trkpt>
      <trkpt lat="40.427717" lon="-5.299050">
        <ele>2091.0</ele>
        <time>2018-07-29T12:03:24Z</time>
      </trkpt>
      <trkpt lat="40.427717" lon="-5.298933">
        <ele>2095.0</ele>
        <time>2018-07-29T12:03:25Z</time>
      </trkpt>
      <trkpt lat="40.427683" lon="-5.298817">
        <ele>2098.0</ele>
        <time>2018-07-29T12:03:26Z</time>
      </trkpt>
      <trkpt lat="40.427650" lon="-5.298667">
        <ele>2100.0</ele>
        <time>2018-07-29T12:03:27Z</time>
      </trkpt>
      <trkpt lat="40.427583" lon="-5.298517">
        <ele>2102.0</ele>
        <time>2018-07-29T12:03:28Z</time>
      </trkpt>
      <trkpt lat="40.427500" lon="-5.298383">
        <ele>2105.0</ele>
        <time>2018-07-29T12:03:29Z</time>
      </trkpt>
      <trkpt lat="40.427383" lon="-5.298250">
        <ele>2107.0</ele>
        <time>2018-07-29T12:03:30Z</time>
      </trkpt>
      <trkpt lat="40.427250" lon="-5.298133">
        <ele>2111.0</ele>
        <time>2018-07-29T12:03:31Z</time>
      </trkpt>
      <trkpt lat="40.427100" lon="-5.298067">
        <ele>2115.0</ele>
        <time>2018-07-29T12:03:32Z</time>
      </trkpt>
      <trkpt lat="40.426967" lon="-5.298050">
        <ele>2119.0</ele>
        <time>2018-07-29T12:03:33Z</time>
      </trkpt>
      <trkpt lat="40.426867" lon="-5.298067">
        <ele>2123.0</ele>
        <time>2018-07-29T12:03:34Z</time>
      </trkpt>
      <trkpt lat="40.426800" lon="-5.298117">
        <ele>2124.0</ele>
        <time>2018-07-29T12:03:35Z</time>
      </trkpt>
      <trkpt lat="40.426733" lon="-5.298183">
        <ele>2125.0</ele>
        <time>2018-07-29T12:03:36Z</time>
      </trkpt>
      <trkpt lat="40.426683" lon="-5.298267">
        <ele>2127.0</ele>
        <time>2018-07-29T12:03:37Z</time>
      </trkpt>
      <trkpt lat="40.426667" lon="-5.298333">
        <ele>2130.0</ele>
        <time>2018-07-29T12:03:38Z</time>
      </trkpt>
      <trkpt lat="40.426650" lon="-5.298417">
        <ele>2131.0</ele>
        <time>2018-07-29T12:03:39Z</time>
      </trkpt>
      <trkpt lat="40.426683" lon="-5.298467">
        <ele>2132.0</ele>
        <time>2018-07-29T12:03:40Z</time>
      </trkpt>
      <trkpt lat="40.426717" lon="-5.298500">
        <ele>2132.0</ele>
        <time>2018-07-29T12:03:41Z</time>
      </trkpt>
      <trkpt lat="40.426783" lon="-5.298517">
        <ele>2132.0</ele>
        <time>2018-07-29T12:03:42Z</time>
      </trkpt>
      <trkpt lat="40.426833" lon="-5.298517">
        <ele>2133.0</ele>
        <time>2018-07-29T12:03:43Z</time>
      </trkpt>
      <trkpt lat="40.426900" lon="-5.298483">
        <ele>2134.0</ele>
        <time>2018-07-29T12:03:44Z</time>
      </trkpt>
      <trkpt lat="40.426950" lon="-5.298433">
        <ele>2137.0</ele>
        <time>2018-07-29T12:03:45Z</time>
      </trkpt>
      <trkpt lat="40.427000" lon="-5.298367">
        <ele>2140.0</ele>
        <time>2018-07-29T12:03:46Z</time>
      </trkpt>
      <trkpt lat="40.427050" lon="-5.298283">
        <ele>2143.0</ele>
        <time>2018-07-29T12:03:47Z</time>
      </trkpt>
      <trkpt lat="40.427100" lon="-5.298200">
        <ele>2148.0</ele>
        <time>2018-07-29T12:03:48Z</time>
      </trkpt>
      <trkpt lat="40.427133" lon="-5.298133">
        <ele>2151.0</ele>
        <time>2018-07-29T12:03:49Z</time>
      </trkpt>
      <trkpt lat="40.427167" lon="-5.298050">
        <ele>2153.0</ele>
        <time>2018-07-29T12:03:50Z</time>
      </trkpt>
      <trkpt lat="40.427217" lon="-5.297967">
        <ele>2155.0</ele>
        <time>2018-07-29T12:03:51Z</time>
      </trkpt>
      <trkpt lat="40.427267" lon="-5.297867">
        <ele>2157.0</ele>
        <time>2018-07-29T12:03:52Z</time>
      </trkpt>
      <trkpt lat="40.427300" lon="-5.297750">
        <ele>2160.0</ele>
        <time>2018-07-29T12:03:53Z</time>
      </trkpt>
      <trkpt lat="40.427300" lon="-5.297633">
        <ele>2162.0</ele>
        <time>2018-07-29T12:03:54Z</time>
      </trkpt>
      <trkpt lat="40.427267" lon="-5.297483">
        <ele>2163.0</ele>
        <time>2018-07-29T12:03:55Z</time>
      </trkpt>
      <trkpt lat="40.427217" lon="-5.297350">
        <ele>2164.0</ele>
        <time>2018-07-29T12:03:56Z</time>
      </trkpt>
      <trkpt lat="40.427150" lon="-5.297217">
        <ele>2164.0</ele>
        <time>2018-07-29T12:03:57Z</time>
      </trkpt>
      <trkpt lat="40.427050" lon="-5.297100">
        <ele>2165.0</ele>
        <time>2018-07-29T12:03:58Z</time>
      </trkpt>
      <trkpt lat="40.426917" lon="-5.297000">
        <ele>2166.0</ele>
        <time>2018-07-29T12:03:59Z</time>
      </trkpt>
      <trkpt lat="40.426783" lon="-5.296917">
        <ele>2168.0</ele>
        <time>2018-07-29T12:04:00Z</time>
      </trkpt>
      <trkpt lat="40.426667" lon="-5.296833">
        <ele>2170.0</ele>
        <time>2018-07-29T12:04:01Z</time>
      </trkpt>
      <trkpt lat="40.426533" lon="-5.296767">
        <ele>2173.0</ele>
        <time>2018-07-29T12:04:02Z</time>
      </trkpt>
      <trkpt lat="40.426400" lon="-5.296717">
        <ele>2175.0</ele>
        <time>2018-07-29T12:04:03Z</time>
      </trkpt>
      <trkpt lat="40.426267" lon="-5.296717">
        <ele>2178.0</ele>
        <time>2018-07-29T12:04:04Z</time>
      </trkpt>
      <trkpt lat="40.426167" lon="-5.296750">
        <ele>2180.0</ele>
        <time>2018-07-29T12:04:05Z</time>
      </trkpt>
      <trkpt lat="40.426083" lon="-5.296817">
        <ele>2183.0</ele>
        <time>2018-07-29T12:04:06Z</time>
      </trkpt>
      <trkpt lat="40.426017" lon="-5.296867">
        <ele>2187.0</ele>
        <time>2018-07-29T12:04:07Z</time>
      </trkpt>
      <trkpt lat="40.425967" lon="-5.296933">
        <ele>2190.0</ele>
        <time>2018-07-29T12:04:08Z</time>
      </trkpt>
      <trkpt lat="40.425933" lon="-5.296983">
        <ele>2192.0</ele>
        <time>2018-07-29T12:04:09Z</time>
      </trkpt>
      <trkpt lat="40.425933" lon="-5.297033">
        <ele>2193.0</ele>
        <time>2018-07-29T12:04:10Z</time>
      </trkpt>
      <trkpt lat="40.425967" lon="-5.297083">
        <ele>2191.0</ele>
        <time>2018-07-29T12:04:11Z</time>
      </trkpt>
      <trkpt lat="40.426017" lon="-5.297150">
        <ele>2191.0</ele>
        <time>2018-07-29T12:04:12Z</time>
      </trkpt>
      <trkpt lat="40.426067" lon="-5.297183">
        <ele>2195.0</ele>
        <time>2018-07-29T12:04:13Z</time>
      </trkpt>
      <trkpt lat="40.426117" lon="-5.297183">
        <ele>2199.0</ele>
        <time>2018-07-29T12:04:14Z</time>
      </trkpt>
      <trkpt lat="40.426167" lon="-5.297133">
        <ele>2203.0</ele>
        <time>2018-07-29T12:04:15Z</time>
      </trkpt>
      <trkpt lat="40.426217" lon="-5.297083">
        <ele>2205.0</ele>
        <time>2018-07-29T12:04:16Z</time>
      </trkpt>
      <trkpt lat="40.426283" lon="-5.297017">
        <ele>2207.0</ele>
        <time>2018-07-29T12:04:17Z</time>
      </trkpt>
      <trkpt lat="40.426333" lon="-5.296967">
        <ele>2209.0</ele>
        <time>2018-07-29T12:04:18Z</time>
      </trkpt>
      <trkpt lat="40.426400" lon="-5.296933">
        <ele>2211.0</ele>
        <time>2018-07-29T12:04:19Z</time>
      </trkpt>
      <trkpt lat="40.426467" lon="-5.296900">
        <ele>2214.0</ele>
        <time>2018-07-29T12:04:20Z</time>
      </trkpt>
      <trkpt lat="40.426517" lon="-5.296850">
        <ele>2217.0</ele>
        <time>2018-07-29T12:04:21Z</time>
      </trkpt>
      <trkpt lat="40.426583" lon="-5.296767">
        <ele>2220.0</ele>
        <time>2018-07-29T12:04:22Z</time>
      </trkpt>
      <trkpt lat="40.426633" lon="-5.296650">
        <ele>2222.0</ele>
        <time>2018-07-29T12:04:23Z</time>
      </trkpt>
      <trkpt lat="40.426667" lon="-5.296517">
        <ele>2222.0</ele>
        <time>2018-07-29T12:04:24Z</time>
      </trkpt>
      <trkpt lat="40.426667" lon="-5.296367">
        <ele>2223.0</ele>
        <time>2018-07-29T12:04:25Z</time>
      </trkpt>
      <trkpt lat="40.426667" lon="-5.296217">
        <ele>2222.0</ele>
        <time>2018-07-29T12:04:26Z</time>
      </trkpt>
      <trkpt lat="40.426617" lon="-5.296050">
        <ele>2222.0</ele>
        <time>2018-07-29T12:04:27Z</time>
      </trkpt>
      <trkpt lat="40.426550" lon="-5.295900">
        <ele>2220.0</ele>
        <time>2018-07-29T12:04:28Z</time>
      </trkpt>
      <trkpt lat="40.426450" lon="-5.295750">
        <ele>2218.0</ele>
        <time>2018-07-29T12:04:29Z</time>
      </trkpt>
      <trkpt lat="40.426317" lon="-5.295617">
        <ele>2216.0</ele>
        <time>2018-07-29T12:04:30Z</time>
      </trkpt>
      <trkpt lat="40.426167" lon="-5.295550">
        <ele>2215.0</ele>
        <time>2018-07-29T12:04:31Z</time>
      </trkpt>
      <trkpt lat="40.426017" lon="-5.295517">
        <ele>2216.0</ele>
        <time>2018-07-29T12:04:32Z</time>
      </trkpt>
      <trkpt lat="40.425883" lon="-5.295533">
        <ele>2218.0</ele>
        <time>2018-07-29T12:04:33Z</time>
      </trkpt>
      <trkpt lat="40.425783" lon="-5.295567">
        <ele>2220.0</ele>
        <time>2018-07-29T12:04:34Z</time>
      </trkpt>
      <trkpt lat="40.425700" lon="-5.295617">
        <ele>2221.0</ele>
        <time>2018-07-29T12:04:35Z</time>
      </trkpt>
      <trkpt lat="40.425617" lon="-5.295667">
        <ele>2223.0</ele>
        <time>2018-07-29T12:04:36Z</time>
      </trkpt>
      <trkpt lat="40.425567" lon="-5.295733">
        <ele>2225.0</ele>
        <time>2018-07-29T12:04:37Z</time>
      </trkpt>
      <trkpt lat="40.425533" lon="-5.295767">
        <ele>2226.0</ele>
        <time>2018-07-29T12:04:38Z</time>
      </trkpt>
      <trkpt lat="40.425500" lon="-5.295783">
        <ele>2227.0</ele>
        <time>2018-07-29T12:04:39Z</time>
      </trkpt>
      <trkpt lat="40.425467" lon="-5.295833">
        <ele>2227.0</ele>
        <time>2018-07-29T12:04:40Z</time>
      </trkpt>
      <trkpt lat="40.425433" lon="-5.295883">
        <ele>2227.0</ele>
        <time>2018-07-29T12:04:41Z</time>
      </trkpt>
      <trkpt lat="40.425400" lon="-5.295967">
        <ele>2227.0</ele>
        <time>2018-07-29T12:04:42Z</time>
      </trkpt>
      <trkpt lat="40.425367" lon="-5.296050">
        <ele>2228.0</ele>
        <time>2018-07-29T12:04:43Z</time>
      </trkpt>
      <trkpt lat="40.425350" lon="-5.296133">
        <ele>2230.0</ele>
        <time>2018-07-29T12:04:44Z</time>
      </trkpt>
      <trkpt lat="40.425333" lon="-5.296200">
        <ele>2233.0</ele>
        <time>2018-07-29T12:04:45Z</time>
      </trkpt>
      <trkpt lat="40.425333" lon="-5.296250">
        <ele>2234.0</ele>
        <time>2018-07-29T12:04:46Z</time>
      </trkpt>
      <trkpt lat="40.425317" lon="-5.296300">
        <ele>2236.0</ele>
        <time>2018-07-29T12:04:47Z</time>
      </trkpt>
      <trkpt lat="40.425317" lon="-5.296367">
        <ele>2235.0</ele>
        <time>2018-07-29T12:04:48Z</time>
      </trkpt>
      <trkpt lat="40.425300" lon="-5.296433">
        <ele>2235.0</ele>
        <time>2018-07-29T12:04:49Z</time>
      </trkpt>
      <trkpt lat="40.425300" lon="-5.296500">
        <ele>2235.0</ele>
        <time>2018-07-29T12:04:50Z</time>
      </trkpt>
      <trkpt lat="40.425300" lon="-5.296600">
        <ele>2235.0</ele>
        <time>2018-07-29T12:04:51Z</time>
      </trkpt>
      <trkpt lat="40.425317" lon="-5.296683">
        <ele>2237.0</ele>
        <time>2018-07-29T12:04:52Z</time>
      </trkpt>
      <trkpt lat="40.425333" lon="-5.296750">
        <ele>2239.0</ele>
        <time>2018-07-29T12:04:53Z</time>
      </trkpt>
      <trkpt lat="40.425350" lon="-5.296817">
        <ele>2241.0</ele>
        <time>2018-07-29T12:04:54Z</time>
      </trkpt>
      <trkpt lat="40.425383" lon="-5.296833">
        <ele>2241.0</ele>
        <time>2018-07-29T12:04:55Z</time>
      </trkpt>
      <trkpt lat="40.425433" lon="-5.296850">
        <ele>2242.0</ele>
        <time>2018-07-29T12:04:56Z</time>
      </trkpt>
      <trkpt lat="40.425500" lon="-5.296833">
        <ele>2241.0</ele>
        <time>2018-07-29T12:04:57Z</time>
      </trkpt>
      <trkpt lat="40.425567" lon="-5.296817">
        <ele>2240.0</ele>
        <time>2018-07-29T12:04:58Z</time>
      </trkpt>
      <trkpt lat="40.425633" lon="-5.296800">
        <ele>2240.0</ele>
        <time>2018-07-29T12:04:59Z</time>
      </trkpt>
      <trkpt lat="40.425700" lon="-5.296750">
        <ele>2239.0</ele>
        <time>2018-07-29T12:05:00Z</time>
      </trkpt>
      <trkpt lat="40.425767" lon="-5.296683">
        <ele>2238.0</ele>
        <time>2018-07-29T12:05:01Z</time>
      </trkpt>
      <trkpt lat="40.425817" lon="-5.296617">
        <ele>2235.0</ele>
        <time>2018-07-29T12:05:02Z</time>
      </trkpt>
      <trkpt lat="40.425883" lon="-5.296567">
        <ele>2231.0</ele>
        <time>2018-07-29T12:05:03Z</time>
      </trkpt>
      <trkpt lat="40.425950" lon="-5.296483">
        <ele>2226.0</ele>
        <time>2018-07-29T12:05:04Z</time>
      </trkpt>
      <trkpt lat="40.426017" lon="-5.296417">
        <ele>2222.0</ele>
        <time>2018-07-29T12:05:05Z</time>
      </trkpt>
      <trkpt lat="40.426100" lon="-5.296350">
        <ele>2219.0</ele>
        <time>2018-07-29T12:05:06Z</time>
      </trkpt>
      <trkpt lat="40.426167" lon="-5.296283">
        <ele>2217.0</ele>
        <time>2018-07-29T12:05:07Z</time>
      </trkpt>
      <trkpt lat="40.426233" lon="-5.296200">
        <ele>2215.0</ele>
        <time>2018-07-29T12:05:08Z</time>
      </trkpt>
      <trkpt lat="40.426300" lon="-5.296133">
        <ele>2213.0</ele>
        <time>2018-07-29T12:05:09Z</time>
      </trkpt>
      <trkpt lat="40.426367" lon="-5.296050">
        <ele>2211.0</ele>
        <time>2018-07-29T12:05:10Z</time>
      </trkpt>
      <trkpt lat="40.426450" lon="-5.295983">
        <ele>2208.0</ele>
        <time>2018-07-29T12:05:11Z</time>
      </trkpt>
      <trkpt lat="40.426517" lon="-5.295917">
        <ele>2205.0</ele>
        <time>2018-07-29T12:05:12Z</time>
      </trkpt>
      <trkpt lat="40.426583" lon="-5.295833">
        <ele>2203.0</ele>
        <time>2018-07-29T12:05:13Z</time>
      </trkpt>
      <trkpt lat="40.426667" lon="-5.295767">
        <ele>2200.0</ele>
        <time>2018-07-29T12:05:14Z</time>
      </trkpt>
      <trkpt lat="40.426733" lon="-5.295717">
        <ele>2198.0</ele>
        <time>2018-07-29T12:05:15Z</time>
      </trkpt>
      <trkpt lat="40.426800" lon="-5.295683">
        <ele>2195.0</ele>
        <time>2018-07-29T12:05:16Z</time>
      </trkpt>
      <trkpt lat="40.426867" lon="-5.295633">
        <ele>2193.0</ele>
        <time>2018-07-29T12:05:17Z</time>
      </trkpt>
      <trkpt lat="40.426950" lon="-5.295600">
        <ele>2190.0</ele>
        <time>2018-07-29T12:05:18Z</time>
      </trkpt>
      <trkpt lat="40.427033" lon="-5.295583">
        <ele>2188.0</ele>
        <time>2018-07-29T12:05:19Z</time>
      </trkpt>
      <trkpt lat="40.427100" lon="-5.295567">
        <ele>2187.0</ele>
        <time>2018-07-29T12:05:20Z</time>
      </trkpt>
      <trkpt lat="40.427167" lon="-5.295567">
        <ele>2187.0</ele>
        <time>2018-07-29T12:05:21Z</time>
      </trkpt>
      <trkpt lat="40.427233" lon="-5.295567">
        <ele>2186.0</ele>
        <time>2018-07-29T12:05:22Z</time>
      </trkpt>
      <trkpt lat="40.427283" lon="-5.295533">
        <ele>2185.0</ele>
        <time>2018-07-29T12:05:23Z</time>
      </trkpt>
      <trkpt lat="40.427350" lon="-5.295500">
        <ele>2183.0</ele>
        <time>2018-07-29T12:05:24Z</time>
      </trkpt>
      <trkpt lat="40.427417" lon="-5.295467">
        <ele>2182.0</ele>
        <time>2018-07-29T12:05:25Z</time>
      </trkpt>
      <trkpt lat="40.427467" lon="-5.295433">
        <ele>2181.0</ele>
        <time>2018-07-29T12:05:26Z</time>
      </trkpt>
      <trkpt lat="40.427533" lon="-5.295400">
        <ele>2180.0</ele>
        <time>2018-07-29T12:05:27Z</time>
      </trkpt>
      <trkpt lat="40.427583" lon="-5.295383">
        <ele>2180.0</ele>
        <time>2018-07-29T12:05:28Z</time>
      </trkpt>
      <trkpt lat="40.427650" lon="-5.295367">
        <ele>2179.0</ele>
        <time>2018-07-29T12:05:29Z</time>
      </trkpt>
      <trkpt lat="40.427717" lon="-5.295367">
        <ele>2177.0</ele>
        <time>2018-07-29T12:05:30Z</time>
      </trkpt>
      <trkpt lat="40.427783" lon="-5.295367">
        <ele>2175.0</ele>
        <time>2018-07-29T12:05:31Z</time>
      </trkpt>
      <trkpt lat="40.427850" lon="-5.295367">
        <ele>2174.0</ele>
        <time>2018-07-29T12:05:32Z</time>
      </trkpt>
      <trkpt lat="40.427917" lon="-5.295367">
        <ele>2174.0</ele>
        <time>2018-07-29T12:05:33Z</time>
      </trkpt>
      <trkpt lat="40.427983" lon="-5.295367">
        <ele>2173.0</ele>
        <time>2018-07-29T12:05:34Z</time>
      </trkpt>
      <trkpt lat="40.428050" lon="-5.295367">
        <ele>2173.0</ele>
        <time>2018-07-29T12:05:35Z</time>
      </trkpt>
      <trkpt lat="40.428100" lon="-5.295333">
        <ele>2172.0</ele>
        <time>2018-07-29T12:05:36Z</time>
      </trkpt>
      <trkpt lat="40.428167" lon="-5.295283">
        <ele>2171.0</ele>
        <time>2018-07-29T12:05:37Z</time>
      </trkpt>
      <trkpt lat="40.428250" lon="-5.295217">
        <ele>2169.0</ele>
        <time>2018-07-29T12:05:38Z</time>
      </trkpt>
      <trkpt lat="40.428317" lon="-5.295150">
        <ele>2169.0</ele>
        <time>2018-07-29T12:05:39Z</time>
      </trkpt>
      <trkpt lat="40.428400" lon="-5.295100">
        <ele>2169.0</ele>
        <time>2018-07-29T12:05:40Z</time>
      </trkpt>
      <trkpt lat="40.428450" lon="-5.295033">
        <ele>2169.0</ele>
        <time>2018-07-29T12:05:41Z</time>
      </trkpt>
      <trkpt lat="40.428517" lon="-5.294950">
        <ele>2167.0</ele>
        <time>2018-07-29T12:05:42Z</time>
      </trkpt>
      <trkpt lat="40.428567" lon="-5.294833">
        <ele>2165.0</ele>
        <time>2018-07-29T12:05:43Z</time>
      </trkpt>
      <trkpt lat="40.428617" lon="-5.294717">
        <ele>2163.0</ele>
        <time>2018-07-29T12:05:44Z</time>
      </trkpt>
      <trkpt lat="40.428683" lon="-5.294583">
        <ele>2163.0</ele>
        <time>2018-07-29T12:05:45Z</time>
      </trkpt>
      <trkpt lat="40.428733" lon="-5.294467">
        <ele>2164.0</ele>
        <time>2018-07-29T12:05:46Z</time>
      </trkpt>
      <trkpt lat="40.428800" lon="-5.294350">
        <ele>2164.0</ele>
        <time>2018-07-29T12:05:47Z</time>
      </trkpt>
      <trkpt lat="40.428850" lon="-5.294233">
        <ele>2163.0</ele>
        <time>2018-07-29T12:05:48Z</time>
      </trkpt>
      <trkpt lat="40.428917" lon="-5.294117">
        <ele>2162.0</ele>
        <time>2018-07-29T12:05:49Z</time>
      </trkpt>
      <trkpt lat="40.428983" lon="-5.294000">
        <ele>2160.0</ele>
        <time>2018-07-29T12:05:50Z</time>
      </trkpt>
      <trkpt lat="40.429033" lon="-5.293883">
        <ele>2160.0</ele>
        <time>2018-07-29T12:05:51Z</time>
      </trkpt>
      <trkpt lat="40.429100" lon="-5.293767">
        <ele>2160.0</ele>
        <time>2018-07-29T12:05:52Z</time>
      </trkpt>
      <trkpt lat="40.429167" lon="-5.293650">
        <ele>2161.0</ele>
        <time>2018-07-29T12:05:53Z</time>
      </trkpt>
      <trkpt lat="40.429250" lon="-5.293533">
        <ele>2162.0</ele>
        <time>2018-07-29T12:05:54Z</time>
      </trkpt>
      <trkpt lat="40.429317" lon="-5.293433">
        <ele>2164.0</ele>
        <time>2018-07-29T12:05:55Z</time>
      </trkpt>
      <trkpt lat="40.429367" lon="-5.293333">
        <ele>2165.0</ele>
        <time>2018-07-29T12:05:56Z</time>
      </trkpt>
      <trkpt lat="40.429433" lon="-5.293250">
        <ele>2166.0</ele>
        <time>2018-07-29T12:05:57Z</time>
      </trkpt>
      <trkpt lat="40.429483" lon="-5.293167">
        <ele>2166.0</ele>
        <time>2018-07-29T12:05:58Z</time>
      </trkpt>
      <trkpt lat="40.429533" lon="-5.293083">
        <ele>2166.0</ele>
        <time>2018-07-29T12:05:59Z</time>
      </trkpt>
      <trkpt lat="40.429600" lon="-5.293033">
        <ele>2164.0</ele>
        <time>2018-07-29T12:06:00Z</time>
      </trkpt>
      <trkpt lat="40.429650" lon="-5.293000">
        <ele>2162.0</ele>
        <time>2018-07-29T12:06:01Z</time>
      </trkpt>
      <trkpt lat="40.429717" lon="-5.293000">
        <ele>2159.0</ele>
        <time>2018-07-29T12:06:02Z</time>
      </trkpt>
      <trkpt lat="40.429767" lon="-5.293017">
        <ele>2157.0</ele>
        <time>2018-07-29T12:06:03Z</time>
      </trkpt>
      <trkpt lat="40.429817" lon="-5.293050">
        <ele>2155.0</ele>
        <time>2018-07-29T12:06:04Z</time>
      </trkpt>
      <trkpt lat="40.429850" lon="-5.293100">
        <ele>2154.0</ele>
        <time>2018-07-29T12:06:05Z</time>
      </trkpt>
      <trkpt lat="40.429883" lon="-5.293150">
        <ele>2152.0</ele>
        <time>2018-07-29T12:06:06Z</time>
      </trkpt>
      <trkpt lat="40.429900" lon="-5.293217">
        <ele>2149.0</ele>
        <time>2018-07-29T12:06:07Z</time>
      </trkpt>
      <trkpt lat="40.429917" lon="-5.293283">
        <ele>2147.0</ele>
        <time>2018-07-29T12:06:08Z</time>
      </trkpt>
      <trkpt lat="40.429933" lon="-5.293367">
        <ele>2144.0</ele>
        <time>2018-07-29T12:06:09Z</time>
      </trkpt>
      <trkpt lat="40.429950" lon="-5.293467">
        <ele>2143.0</ele>
        <time>2018-07-29T12:06:10Z</time>
      </trkpt>
      <trkpt lat="40.429967" lon="-5.293567">
        <ele>2142.0</ele>
        <time>2018-07-29T12:06:11Z</time>
      </trkpt>
      <trkpt lat="40.429950" lon="-5.293667">
        <ele>2141.0</ele>
        <time>2018-07-29T12:06:12Z</time>
      </trkpt>
      <trkpt lat="40.429933" lon="-5.293767">
        <ele>2141.0</ele>
        <time>2018-07-29T12:06:13Z</time>
      </trkpt>
      <trkpt lat="40.429917" lon="-5.293867">
        <ele>2141.0</ele>
        <time>2018-07-29T12:06:14Z</time>
      </trkpt>
      <trkpt lat="40.429883" lon="-5.293967">
        <ele>2141.0</ele>
        <time>2018-07-29T12:06:15Z</time>
      </trkpt>
      <trkpt lat="40.429850" lon="-5.294067">
        <ele>2142.0</ele>
        <time>2018-07-29T12:06:16Z</time>
      </trkpt>
      <trkpt lat="40.429817" lon="-5.294150">
        <ele>2141.0</ele>
        <time>2018-07-29T12:06:17Z</time>
      </trkpt>
      <trkpt lat="40.429783" lon="-5.294250">
        <ele>2140.0</ele>
        <time>2018-07-29T12:06:18Z</time>
      </trkpt>
      <trkpt lat="40.429750" lon="-5.294350">
        <ele>2140.0</ele>
        <time>2018-07-29T12:06:19Z</time>
      </trkpt>
      <trkpt lat="40.429717" lon="-5.294450">
        <ele>2139.0</ele>
        <time>2018-07-29T12:06:20Z</time>
      </trkpt>
      <trkpt lat="40.429700" lon="-5.294550">
        <ele>2139.0</ele>
        <time>2018-07-29T12:06:21Z</time>
      </trkpt>
      <trkpt lat="40.429667" lon="-5.294650">
        <ele>2139.0</ele>
        <time>2018-07-29T12:06:22Z</time>
      </trkpt>
      <trkpt lat="40.429617" lon="-5.294733">
        <ele>2139.0</ele>
        <time>2018-07-29T12:06:23Z</time>
      </trkpt>
      <trkpt lat="40.429567" lon="-5.294817">
        <ele>2139.0</ele>
        <time>2018-07-29T12:06:24Z</time>
      </trkpt>
      <trkpt lat="40.429500" lon="-5.294900">
        <ele>2138.0</ele>
        <time>2018-07-29T12:06:25Z</time>
      </trkpt>
      <trkpt lat="40.429433" lon="-5.295000">
        <ele>2137.0</ele>
        <time>2018-07-29T12:06:26Z</time>
      </trkpt>
      <trkpt lat="40.429383" lon="-5.295083">
        <ele>2136.0</ele>
        <time>2018-07-29T12:06:27Z</time>
      </trkpt>
      <trkpt lat="40.429333" lon="-5.295183">
        <ele>2136.0</ele>
        <time>2018-07-29T12:06:28Z</time>
      </trkpt>
      <trkpt lat="40.429267" lon="-5.295283">
        <ele>2135.0</ele>
        <time>2018-07-29T12:06:29Z</time>
      </trkpt>
      <trkpt lat="40.429217" lon="-5.295367">
        <ele>2134.0</ele>
        <time>2018-07-29T12:06:30Z</time>
      </trkpt>
      <trkpt lat="40.429167" lon="-5.295450">
        <ele>2133.0</ele>
        <time>2018-07-29T12:06:31Z</time>
      </trkpt>
      <trkpt lat="40.429100" lon="-5.295550">
        <ele>2131.0</ele>
        <time>2018-07-29T12:06:32Z</time>
      </trkpt>
      <trkpt lat="40.429050" lon="-5.295633">
        <ele>2130.0</ele>
        <time>2018-07-29T12:06:33Z</time>
      </trkpt>
      <trkpt lat="40.428983" lon="-5.295733">
        <ele>2129.0</ele>
        <time>2018-07-29T12:06:34Z</time>
      </trkpt>
      <trkpt lat="40.428950" lon="-5.295833">
        <ele>2128.0</ele>
        <time>2018-07-29T12:06:35Z</time>
      </trkpt>
      <trkpt lat="40.428900" lon="-5.295933">
        <ele>2128.0</ele>
        <time>2018-07-29T12:06:36Z</time>
      </trkpt>
      <trkpt lat="40.428867" lon="-5.296017">
        <ele>2127.0</ele>
        <time>2018-07-29T12:06:37Z</time>
      </trkpt>
      <trkpt lat="40.428833" lon="-5.296117">
        <ele>2126.0</ele>
        <time>2018-07-29T12:06:38Z</time>
      </trkpt>
      <trkpt lat="40.428800" lon="-5.296217">
        <ele>2125.0</ele>
        <time>2018-07-29T12:06:39Z</time>
      </trkpt>
      <trkpt lat="40.428783" lon="-5.296317">
        <ele>2125.0</ele>
        <time>2018-07-29T12:06:40Z</time>
      </trkpt>
      <trkpt lat="40.428750" lon="-5.296417">
        <ele>2124.0</ele>
        <time>2018-07-29T12:06:41Z</time>
      </trkpt>
      <trkpt lat="40.428750" lon="-5.296500">
        <ele>2124.0</ele>
        <time>2018-07-29T12:06:42Z</time>
      </trkpt>
      <trkpt lat="40.428733" lon="-5.296567">
        <ele>2123.0</ele>
        <time>2018-07-29T12:06:43Z</time>
      </trkpt>
      <trkpt lat="40.428717" lon="-5.296667">
        <ele>2122.0</ele>
        <time>2018-07-29T12:06:44Z</time>
      </trkpt>
      <trkpt lat="40.428683" lon="-5.296750">
        <ele>2120.0</ele>
        <time>2018-07-29T12:06:45Z</time>
      </trkpt>
      <trkpt lat="40.428667" lon="-5.296867">
        <ele>2118.0</ele>
        <time>2018-07-29T12:06:46Z</time>
      </trkpt>
      <trkpt lat="40.428650" lon="-5.296950">
        <ele>2117.0</ele>
        <time>2018-07-29T12:06:47Z</time>
      </trkpt>
      <trkpt lat="40.428633" lon="-5.297050">
        <ele>2116.0</ele>
        <time>2018-07-29T12:06:48Z</time>
      </trkpt>
      <trkpt lat="40.428617" lon="-5.297150">
        <ele>2115.0</ele>
        <time>2018-07-29T12:06:49Z</time>
      </trkpt>
      <trkpt lat="40.428583" lon="-5.297250">
        <ele>2114.0</ele>
        <time>2018-07-29T12:06:50Z</time>
      </trkpt>
      <trkpt lat="40.428567" lon="-5.297350">
        <ele>2112.0</ele>
        <time>2018-07-29T12:06:51Z</time>
      </trkpt>
      <trkpt lat="40.428550" lon="-5.297450">
        <ele>2111.0</ele>
        <time>2018-07-29T12:06:52Z</time>
      </trkpt>
      <trkpt lat="40.428550" lon="-5.297550">
        <ele>2110.0</ele>
        <time>2018-07-29T12:06:53Z</time>
      </trkpt>
      <trkpt lat="40.428567" lon="-5.297633">
        <ele>2110.0</ele>
        <time>2018-07-29T12:06:54Z</time>
      </trkpt>
      <trkpt lat="40.428583" lon="-5.297717">
        <ele>2110.0</ele>
        <time>2018-07-29T12:06:55Z</time>
      </trkpt>
      <trkpt lat="40.428600" lon="-5.297800">
        <ele>2109.0</ele>
        <time>2018-07-29T12:06:56Z</time>
      </trkpt>
      <trkpt lat="40.428617" lon="-5.297867">
        <ele>2108.0</ele>
        <time>2018-07-29T12:06:57Z</time>
      </trkpt>
      <trkpt lat="40.428633" lon="-5.297950">
        <ele>2106.0</ele>
        <time>2018-07-29T12:06:58Z</time>
      </trkpt>
      <trkpt lat="40.428633" lon="-5.298050">
        <ele>2105.0</ele>
        <time>2018-07-29T12:06:59Z</time>
      </trkpt>
      <trkpt lat="40.428633" lon="-5.298150">
        <ele>2104.0</ele>
        <time>2018-07-29T12:07:00Z</time>
      </trkpt>
      <trkpt lat="40.428617" lon="-5.298250">
        <ele>2103.0</ele>
        <time>2018-07-29T12:07:01Z</time>
      </trkpt>
      <trkpt lat="40.428600" lon="-5.298350">
        <ele>2102.0</ele>
        <time>2018-07-29T12:07:02Z</time>
      </trkpt>
      <trkpt lat="40.428583" lon="-5.298467">
        <ele>2102.0</ele>
        <time>2018-07-29T12:07:03Z</time>
      </trkpt>
      <trkpt lat="40.428550" lon="-5.298567">
        <ele>2102.0</ele>
        <time>2018-07-29T12:07:04Z</time>
      </trkpt>
      <trkpt lat="40.428517" lon="-5.298667">
        <ele>2102.0</ele>
        <time>2018-07-29T12:07:05Z</time>
      </trkpt>
      <trkpt lat="40.428483" lon="-5.298783">
        <ele>2101.0</ele>
        <time>2018-07-29T12:07:06Z</time>
      </trkpt>
      <trkpt lat="40.428433" lon="-5.298900">
        <ele>2101.0</ele>
        <time>2018-07-29T12:07:07Z</time>
      </trkpt>
      <trkpt lat="40.428383" lon="-5.299017">
        <ele>2100.0</ele>
        <time>2018-07-29T12:07:08Z</time>
      </trkpt>
      <trkpt lat="40.428333" lon="-5.299133">
        <ele>2101.0</ele>
        <time>2018-07-29T12:07:09Z</time>
      </trkpt>
      <trkpt lat="40.428267" lon="-5.299250">
        <ele>2101.0</ele>
        <time>2018-07-29T12:07:10Z</time>
      </trkpt>
      <trkpt lat="40.428200" lon="-5.299333">
        <ele>2101.0</ele>
        <time>2018-07-29T12:07:11Z</time>
      </trkpt>
      <trkpt lat="40.428133" lon="-5.299433">
        <ele>2101.0</ele>
        <time>2018-07-29T12:07:12Z</time>
      </trkpt>
      <trkpt lat="40.428083" lon="-5.299550">
        <ele>2100.0</ele>
        <time>2018-07-29T12:07:13Z</time>
      </trkpt>
      <trkpt lat="40.428017" lon="-5.299650">
        <ele>2100.0</ele>
        <time>2018-07-29T12:07:14Z</time>
      </trkpt>
      <trkpt lat="40.427967" lon="-5.299767">
        <ele>2100.0</ele>
        <time>2018-07-29T12:07:15Z</time>
      </trkpt>
      <trkpt lat="40.427917" lon="-5.299867">
        <ele>2100.0</ele>
        <time>2018-07-29T12:07:16Z</time>
      </trkpt>
      <trkpt lat="40.427867" lon="-5.299950">
        <ele>2100.0</ele>
        <time>2018-07-29T12:07:17Z</time>
      </trkpt>
      <trkpt lat="40.427817" lon="-5.300033">
        <ele>2099.0</ele>
        <time>2018-07-29T12:07:18Z</time>
      </trkpt>
      <trkpt lat="40.427750" lon="-5.300117">
        <ele>2099.0</ele>
        <time>2018-07-29T12:07:19Z</time>
      </trkpt>
      <trkpt lat="40.427667" lon="-5.300200">
        <ele>2097.0</ele>
        <time>2018-07-29T12:07:20Z</time>
      </trkpt>
      <trkpt lat="40.427600" lon="-5.300300">
        <ele>2096.0</ele>
        <time>2018-07-29T12:07:21Z</time>
      </trkpt>
      <trkpt lat="40.427533" lon="-5.300383">
        <ele>2094.0</ele>
        <time>2018-07-29T12:07:22Z</time>
      </trkpt>
      <trkpt lat="40.427467" lon="-5.300483">
        <ele>2093.0</ele>
        <time>2018-07-29T12:07:23Z</time>
      </trkpt>
      <trkpt lat="40.427400" lon="-5.300583">
        <ele>2093.0</ele>
        <time>2018-07-29T12:07:24Z</time>
      </trkpt>
      <trkpt lat="40.427333" lon="-5.300667">
        <ele>2093.0</ele>
        <time>2018-07-29T12:07:25Z</time>
      </trkpt>
      <trkpt lat="40.427267" lon="-5.300750">
        <ele>2094.0</ele>
        <time>2018-07-29T12:07:26Z</time>
      </trkpt>
      <trkpt lat="40.427217" lon="-5.300817">
        <ele>2096.0</ele>
        <time>2018-07-29T12:07:27Z</time>
      </trkpt>
      <trkpt lat="40.427150" lon="-5.300883">
        <ele>2098.0</ele>
        <time>2018-07-29T12:07:28Z</time>
      </trkpt>
      <trkpt lat="40.427083" lon="-5.300933">
        <ele>2099.0</ele>
        <time>2018-07-29T12:07:29Z</time>
      </trkpt>
      <trkpt lat="40.427033" lon="-5.300983">
        <ele>2100.0</ele>
        <time>2018-07-29T12:07:30Z</time>
      </trkpt>
      <trkpt lat="40.426967" lon="-5.301033">
        <ele>2100.0</ele>
        <time>2018-07-29T12:07:31Z</time>
      </trkpt>
      <trkpt lat="40.426900" lon="-5.301083">
        <ele>2098.0</ele>
        <time>2018-07-29T12:07:32Z</time>
      </trkpt>
      <trkpt lat="40.426817" lon="-5.301133">
        <ele>2097.0</ele>
        <time>2018-07-29T12:07:33Z</time>
      </trkpt>
      <trkpt lat="40.426733" lon="-5.301200">
        <ele>2095.0</ele>
        <time>2018-07-29T12:07:34Z</time>
      </trkpt>
      <trkpt lat="40.426667" lon="-5.301283">
        <ele>2093.0</ele>
        <time>2018-07-29T12:07:35Z</time>
      </trkpt>
      <trkpt lat="40.426600" lon="-5.301367">
        <ele>2092.0</ele>
        <time>2018-07-29T12:07:36Z</time>
      </trkpt>
      <trkpt lat="40.426533" lon="-5.301467">
        <ele>2090.0</ele>
        <time>2018-07-29T12:07:37Z</time>
      </trkpt>
      <trkpt lat="40.426467" lon="-5.301567">
        <ele>2090.0</ele>
        <time>2018-07-29T12:07:38Z</time>
      </trkpt>
      <trkpt lat="40.426383" lon="-5.301650">
        <ele>2089.0</ele>
        <time>2018-07-29T12:07:39Z</time>
      </trkpt>
      <trkpt lat="40.426317" lon="-5.301733">
        <ele>2088.0</ele>
        <time>2018-07-29T12:07:40Z</time>
      </trkpt>
      <trkpt lat="40.426250" lon="-5.301817">
        <ele>2086.0</ele>
        <time>2018-07-29T12:07:41Z</time>
      </trkpt>
      <trkpt lat="40.426167" lon="-5.301917">
        <ele>2085.0</ele>
        <time>2018-07-29T12:07:42Z</time>
      </trkpt>
      <trkpt lat="40.426100" lon="-5.302000">
        <ele>2084.0</ele>
        <time>2018-07-29T12:07:43Z</time>
      </trkpt>
      <trkpt lat="40.426017" lon="-5.302100">
        <ele>2084.0</ele>
        <time>2018-07-29T12:07:44Z</time>
      </trkpt>
      <trkpt lat="40.425950" lon="-5.302183">
        <ele>2084.0</ele>
        <time>2018-07-29T12:07:45Z</time>
      </trkpt>
      <trkpt lat="40.425867" lon="-5.302267">
        <ele>2085.0</ele>
        <time>2018-07-29T12:07:46Z</time>
      </trkpt>
      <trkpt lat="40.425783" lon="-5.302333">
        <ele>2086.0</ele>
        <time>2018-07-29T12:07:47Z</time>
      </trkpt>
      <trkpt lat="40.425700" lon="-5.302400">
        <ele>2086.0</ele>
        <time>2018-07-29T12:07:48Z</time>
      </trkpt>
      <trkpt lat="40.425617" lon="-5.302450">
        <ele>2086.0</ele>
        <time>2018-07-29T12:07:49Z</time>
      </trkpt>
      <trkpt lat="40.425533" lon="-5.302517">
        <ele>2087.0</ele>
        <time>2018-07-29T12:07:50Z</time>
      </trkpt>
      <trkpt lat="40.425450" lon="-5.302583">
        <ele>2087.0</ele>
        <time>2018-07-29T12:07:51Z</time>
      </trkpt>
      <trkpt lat="40.425367" lon="-5.302650">
        <ele>2087.0</ele>
        <time>2018-07-29T12:07:52Z</time>
      </trkpt>
      <trkpt lat="40.425300" lon="-5.302717">
        <ele>2087.0</ele>
        <time>2018-07-29T12:07:53Z</time>
      </trkpt>
      <trkpt lat="40.425233" lon="-5.302783">
        <ele>2087.0</ele>
        <time>2018-07-29T12:07:54Z</time>
      </trkpt>
      <trkpt lat="40.425167" lon="-5.302850">
        <ele>2088.0</ele>
        <time>2018-07-29T12:07:55Z</time>
      </trkpt>
      <trkpt lat="40.425117" lon="-5.302917">
        <ele>2088.0</ele>
        <time>2018-07-29T12:07:56Z</time>
      </trkpt>
      <trkpt lat="40.425067" lon="-5.303000">
        <ele>2087.0</ele>
        <time>2018-07-29T12:07:57Z</time>
      </trkpt>
      <trkpt lat="40.425050" lon="-5.303083">
        <ele>2087.0</ele>
        <time>2018-07-29T12:07:58Z</time>
      </trkpt>
      <trkpt lat="40.425033" lon="-5.303150">
        <ele>2087.0</ele>
        <time>2018-07-29T12:07:59Z</time>
      </trkpt>
      <trkpt lat="40.425017" lon="-5.303233">
        <ele>2086.0</ele>
        <time>2018-07-29T12:08:00Z</time>
      </trkpt>
      <trkpt lat="40.425017" lon="-5.303300">
        <ele>2085.0</ele>
        <time>2018-07-29T12:08:01Z</time>
      </trkpt>
      <trkpt lat="40.425033" lon="-5.303367">
        <ele>2084.0</ele>
        <time>2018-07-29T12:08:02Z</time>
      </trkpt>
      <trkpt lat="40.425083" lon="-5.303417">
        <ele>2084.0</ele>
        <time>2018-07-29T12:08:03Z</time>
      </trkpt>
      <trkpt lat="40.425117" lon="-5.303467">
        <ele>2083.0</ele>
        <time>2018-07-29T12:08:04Z</time>
      </trkpt>
      <trkpt lat="40.425167" lon="-5.303500">
        <ele>2083.0</ele>
        <time>2018-07-29T12:08:05Z</time>
      </trkpt>
      <trkpt lat="40.425233" lon="-5.303500">
        <ele>2083.0</ele>
        <time>2018-07-29T12:08:06Z</time>
      </trkpt>
      <trkpt lat="40.425300" lon="-5.303483">
        <ele>2083.0</ele>
        <time>2018-07-29T12:08:07Z</time>
      </trkpt>
      <trkpt lat="40.425367" lon="-5.303417">
        <ele>2083.0</ele>
        <time>2018-07-29T12:08:08Z</time>
      </trkpt>
      <trkpt lat="40.425433" lon="-5.303300">
        <ele>2083.0</ele>
        <time>2018-07-29T12:08:09Z</time>
      </trkpt>
      <trkpt lat="40.425467" lon="-5.303183">
        <ele>2084.0</ele>
        <time>2018-07-29T12:08:10Z</time>
      </trkpt>
      <trkpt lat="40.425500" lon="-5.303033">
        <ele>2085.0</ele>
        <time>2018-07-29T12:08:11Z</time>
      </trkpt>
      <trkpt lat="40.425500" lon="-5.302850">
        <ele>2086.0</ele>
        <time>2018-07-29T12:08:12Z</time>
      </trkpt>
      <trkpt lat="40.425483" lon="-5.302683">
        <ele>2088.0</ele>
        <time>2018-07-29T12:08:13Z</time>
      </trkpt>
      <trkpt lat="40.425450" lon="-5.302533">
        <ele>2089.0</ele>
        <time>2018-07-29T12:08:14Z</time>
      </trkpt>
      <trkpt lat="40.425433" lon="-5.302383">
        <ele>2090.0</ele>
        <time>2018-07-29T12:08:15Z</time>
      </trkpt>
      <trkpt lat="40.425400" lon="-5.302217">
        <ele>2089.0</ele>
        <time>2018-07-29T12:08:16Z</time>
      </trkpt>
      <trkpt lat="40.425383" lon="-5.302050">
        <ele>2088.0</ele>
        <time>2018-07-29T12:08:17Z</time>
      </trkpt>
      <trkpt lat="40.425383" lon="-5.301867">
        <ele>2088.0</ele>
        <time>2018-07-29T12:08:18Z</time>
      </trkpt>
      <trkpt lat="40.425383" lon="-5.301700">
        <ele>2089.0</ele>
        <time>2018-07-29T12:08:19Z</time>
      </trkpt>
      <trkpt lat="40.425400" lon="-5.301533">
        <ele>2090.0</ele>
        <time>2018-07-29T12:08:20Z</time>
      </trkpt>
      <trkpt lat="40.425417" lon="-5.301383">
        <ele>2091.0</ele>
        <time>2018-07-29T12:08:21Z</time>
      </trkpt>
      <trkpt lat="40.425433" lon="-5.301250">
        <ele>2091.0</ele>
        <time>2018-07-29T12:08:22Z</time>
      </trkpt>
      <trkpt lat="40.425467" lon="-5.301133">
        <ele>2091.0</ele>
        <time>2018-07-29T12:08:23Z</time>
      </trkpt>
      <trkpt lat="40.425483" lon="-5.301000">
        <ele>2090.0</ele>
        <time>2018-07-29T12:08:24Z</time>
      </trkpt>
      <trkpt lat="40.425500" lon="-5.300867">
        <ele>2090.0</ele>
        <time>2018-07-29T12:08:25Z</time>
      </trkpt>
      <trkpt lat="40.425533" lon="-5.300750">
        <ele>2091.0</ele>
        <time>2018-07-29T12:08:26Z</time>
      </trkpt>
      <trkpt lat="40.425550" lon="-5.300667">
        <ele>2091.0</ele>
        <time>2018-07-29T12:08:27Z</time>
      </trkpt>
      <trkpt lat="40.425600" lon="-5.300583">
        <ele>2091.0</ele>
        <time>2018-07-29T12:08:28Z</time>
      </trkpt>
      <trkpt lat="40.425667" lon="-5.300500">
        <ele>2091.0</ele>
        <time>2018-07-29T12:08:29Z</time>
      </trkpt>
      <trkpt lat="40.425733" lon="-5.300450">
        <ele>2091.0</ele>
        <time>2018-07-29T12:08:30Z</time>
      </trkpt>
      <trkpt lat="40.425800" lon="-5.300417">
        <ele>2093.0</ele>
        <time>2018-07-29T12:08:31Z</time>
      </trkpt>
      <trkpt lat="40.425867" lon="-5.300400">
        <ele>2094.0</ele>
        <time>2018-07-29T12:08:32Z</time>
      </trkpt>
      <trkpt lat="40.425933" lon="-5.300400">
        <ele>2096.0</ele>
        <time>2018-07-29T12:08:33Z</time>
      </trkpt>
      <trkpt lat="40.425983" lon="-5.300433">
        <ele>2097.0</ele>
        <time>2018-07-29T12:08:34Z</time>
      </trkpt>
      <trkpt lat="40.426033" lon="-5.300483">
        <ele>2097.0</ele>
        <time>2018-07-29T12:08:35Z</time>
      </trkpt>
      <trkpt lat="40.426083" lon="-5.300583">
        <ele>2096.0</ele>
        <time>2018-07-29T12:08:36Z</time>
      </trkpt>
      <trkpt lat="40.426083" lon="-5.300700">
        <ele>2096.0</ele>
        <time>2018-07-29T12:08:37Z</time>
      </trkpt>
      <trkpt lat="40.426083" lon="-5.300817">
        <ele>2097.0</ele>
        <time>2018-07-29T12:08:38Z</time>
      </trkpt>
      <trkpt lat="40.426033" lon="-5.300917">
        <ele>2098.0</ele>
        <time>2018-07-29T12:08:39Z</time>
      </trkpt>
      <trkpt lat="40.425983" lon="-5.301000">
        <ele>2098.0</ele>
        <time>2018-07-29T12:08:40Z</time>
      </trkpt>
      <trkpt lat="40.425900" lon="-5.301083">
        <ele>2098.0</ele>
        <time>2018-07-29T12:08:41Z</time>
      </trkpt>
      <trkpt lat="40.425817" lon="-5.301150">
        <ele>2097.0</ele>
        <time>2018-07-29T12:08:42Z</time>
      </trkpt>
      <trkpt lat="40.425700" lon="-5.301200">
        <ele>2096.0</ele>
        <time>2018-07-29T12:08:43Z</time>
      </trkpt>
      <trkpt lat="40.425583" lon="-5.301200">
        <ele>2094.0</ele>
        <time>2018-07-29T12:08:44Z</time>
      </trkpt>
      <trkpt lat="40.425433" lon="-5.301133">
        <ele>2092.0</ele>
        <time>2018-07-29T12:08:45Z</time>
      </trkpt>
      <trkpt lat="40.425317" lon="-5.301000">
        <ele>2090.0</ele>
        <time>2018-07-29T12:08:46Z</time>
      </trkpt>
      <trkpt lat="40.425250" lon="-5.300833">
        <ele>2089.0</ele>
        <time>2018-07-29T12:08:47Z</time>
      </trkpt>
      <trkpt lat="40.425217" lon="-5.300650">
        <ele>2088.0</ele>
        <time>2018-07-29T12:08:48Z</time>
      </trkpt>
      <trkpt lat="40.425217" lon="-5.300500">
        <ele>2087.0</ele>
        <time>2018-07-29T12:08:49Z</time>
      </trkpt>
      <trkpt lat="40.425233" lon="-5.300350">
        <ele>2085.0</ele>
        <time>2018-07-29T12:08:50Z</time>
      </trkpt>
      <trkpt lat="40.425267" lon="-5.300217">
        <ele>2084.0</ele>
        <time>2018-07-29T12:08:51Z</time>
      </trkpt>
      <trkpt lat="40.425283" lon="-5.300083">
        <ele>2084.0</ele>
        <time>2018-07-29T12:08:52Z</time>
      </trkpt>
      <trkpt lat="40.425317" lon="-5.299967">
        <ele>2083.0</ele>
        <time>2018-07-29T12:08:53Z</time>
      </trkpt>
      <trkpt lat="40.425367" lon="-5.299833">
        <ele>2082.0</ele>
        <time>2018-07-29T12:08:54Z</time>
      </trkpt>
      <trkpt lat="40.425417" lon="-5.299700">
        <ele>2081.0</ele>
        <time>2018-07-29T12:08:55Z</time>
      </trkpt>
      <trkpt lat="40.425467" lon="-5.299583">
        <ele>2080.0</ele>
        <time>2018-07-29T12:08:56Z</time>
      </trkpt>
      <trkpt lat="40.425500" lon="-5.299450">
        <ele>2080.0</ele>
        <time>2018-07-29T12:08:57Z</time>
      </trkpt>
      <trkpt lat="40.425550" lon="-5.299333">
        <ele>2079.0</ele>
        <time>2018-07-29T12:08:58Z</time>
      </trkpt>
      <trkpt lat="40.425600" lon="-5.299200">
        <ele>2079.0</ele>
        <time>2018-07-29T12:08:59Z</time>
      </trkpt>
      <trkpt lat="40.425650" lon="-5.299100">
        <ele>2080.0</ele>
        <time>2018-07-29T12:09:00Z</time>
      </trkpt>
      <trkpt lat="40.425700" lon="-5.299000">
        <ele>2081.0</ele>
        <time>2018-07-29T12:09:01Z</time>
      </trkpt>
      <trkpt lat="40.425750" lon="-5.298900">
        <ele>2082.0</ele>
        <time>2018-07-29T12:09:02Z</time>
      </trkpt>
      <trkpt lat="40.425800" lon="-5.298800">
        <ele>2082.0</ele>
        <time>2018-07-29T12:09:03Z</time>
      </trkpt>
      <trkpt lat="40.425867" lon="-5.298700">
        <ele>2083.0</ele>
        <time>2018-07-29T12:09:04Z</time>
      </trkpt>
      <trkpt lat="40.425917" lon="-5.298600">
        <ele>2084.0</ele>
        <time>2018-07-29T12:09:05Z</time>
      </trkpt>
      <trkpt lat="40.425950" lon="-5.298483">
        <ele>2085.0</ele>
        <time>2018-07-29T12:09:06Z</time>
      </trkpt>
      <trkpt lat="40.425983" lon="-5.298367">
        <ele>2087.0</ele>
        <time>2018-07-29T12:09:07Z</time>
      </trkpt>
      <trkpt lat="40.426033" lon="-5.298267">
        <ele>2087.0</ele>
        <time>2018-07-29T12:09:08Z</time>
      </trkpt>
      <trkpt lat="40.426067" lon="-5.298150">
        <ele>2087.0</ele>
        <time>2018-07-29T12:09:09Z</time>
      </trkpt>
      <trkpt lat="40.426100" lon="-5.298017">
        <ele>2088.0</ele>
        <time>2018-07-29T12:09:10Z</time>
      </trkpt>
      <trkpt lat="40.426117" lon="-5.297867">
        <ele>2089.0</ele>
        <time>2018-07-29T12:09:11Z</time>
      </trkpt>
      <trkpt lat="40.426100" lon="-5.297667">
        <ele>2091.0</ele>
        <time>2018-07-29T12:09:12Z</time>
      </trkpt>
      <trkpt lat="40.426050" lon="-5.297483">
        <ele>2094.0</ele>
        <time>2018-07-29T12:09:13Z</time>
      </trkpt>
      <trkpt lat="40.425983" lon="-5.297317">
        <ele>2100.0</ele>
        <time>2018-07-29T12:09:14Z</time>
      </trkpt>
      <trkpt lat="40.425933" lon="-5.297167">
        <ele>2106.0</ele>
        <time>2018-07-29T12:09:15Z</time>
      </trkpt>
      <trkpt lat="40.425900" lon="-5.297033">
        <ele>2111.0</ele>
        <time>2018-07-29T12:09:16Z</time>
      </trkpt>
      <trkpt lat="40.425900" lon="-5.296917">
        <ele>2114.0</ele>
        <time>2018-07-29T12:09:17Z</time>
      </trkpt>
      <trkpt lat="40.425900" lon="-5.296817">
        <ele>2116.0</ele>
        <time>2018-07-29T12:09:18Z</time>
      </trkpt>
      <trkpt lat="40.425933" lon="-5.296717">
        <ele>2117.0</ele>
        <time>2018-07-29T12:09:19Z</time>
      </trkpt>
      <trkpt lat="40.425983" lon="-5.296650">
        <ele>2119.0</ele>
        <time>2018-07-29T12:09:20Z</time>
      </trkpt>
      <trkpt lat="40.426050" lon="-5.296617">
        <ele>2123.0</ele>
        <time>2018-07-29T12:09:21Z</time>
      </trkpt>
      <trkpt lat="40.426083" lon="-5.296617">
        <ele>2126.0</ele>
        <time>2018-07-29T12:09:22Z</time>
      </trkpt>
      <trkpt lat="40.426083" lon="-5.296667">
        <ele>2127.0</ele>
        <time>2018-07-29T12:09:23Z</time>
      </trkpt>
      <trkpt lat="40.426050" lon="-5.296733">
        <ele>2128.0</ele>
        <time>2018-07-29T12:09:24Z</time>
      </trkpt>
      <trkpt lat="40.425983" lon="-5.296800">
        <ele>2129.0</ele>
        <time>2018-07-29T12:09:25Z</time>
      </trkpt>
      <trkpt lat="40.425883" lon="-5.296867">
        <ele>2130.0</ele>
        <time>2018-07-29T12:09:26Z</time>
      </trkpt>
      <trkpt lat="40.425767" lon="-5.296900">
        <ele>2131.0</ele>
        <time>2018-07-29T12:09:27Z</time>
      </trkpt>
      <trkpt lat="40.425633" lon="-5.296917">
        <ele>2132.0</ele>
        <time>2018-07-29T12:09:28Z</time>
      </trkpt>
      <trkpt lat="40.425483" lon="-5.296867">
        <ele>2132.0</ele>
        <time>2018-07-29T12:09:29Z</time>
      </trkpt>
      <trkpt lat="40.425317" lon="-5.296783">
        <ele>2132.0</ele>
        <time>2018-07-29T12:09:30Z</time>
      </trkpt>
      <trkpt lat="40.425183" lon="-5.296650">
        <ele>2134.0</ele>
        <time>2018-07-29T12:09:31Z</time>
      </trkpt>
      <trkpt lat="40.425100" lon="-5.296467">
        <ele>2137.0</ele>
        <time>2018-07-29T12:09:32Z</time>
      </trkpt>
      <trkpt lat="40.425033" lon="-5.296283">
        <ele>2140.0</ele>
        <time>2018-07-29T12:09:33Z</time>
      </trkpt>
      <trkpt lat="40.425017" lon="-5.296133">
        <ele>2145.0</ele>
        <time>2018-07-29T12:09:34Z</time>
      </trkpt>
      <trkpt lat="40.424983" lon="-5.296000">
        <ele>2148.0</ele>
        <time>2018-07-29T12:09:35Z</time>
      </trkpt>
      <trkpt lat="40.424967" lon="-5.295867">
        <ele>2151.0</ele>
        <time>2018-07-29T12:09:36Z</time>
      </trkpt>
      <trkpt lat="40.424950" lon="-5.295700">
        <ele>2153.0</ele>
        <time>2018-07-29T12:09:37Z</time>
      </trkpt>
      <trkpt lat="40.424967" lon="-5.295550">
        <ele>2154.0</ele>
        <time>2018-07-29T12:09:38Z</time>
      </trkpt>
      <trkpt lat="40.425000" lon="-5.295417">
        <ele>2155.0</ele>
        <time>2018-07-29T12:09:39Z</time>
      </trkpt>
      <trkpt lat="40.425050" lon="-5.295317">
        <ele>2157.0</ele>
        <time>2018-07-29T12:09:40Z</time>
      </trkpt>
      <trkpt lat="40.425100" lon="-5.295233">
        <ele>2161.0</ele>
        <time>2018-07-29T12:09:41Z</time>
      </trkpt>
      <trkpt lat="40.425133" lon="-5.295150">
        <ele>2166.0</ele>
        <time>2018-07-29T12:09:42Z</time>
      </trkpt>
      <trkpt lat="40.425167" lon="-5.295067">
        <ele>2169.0</ele>
        <time>2018-07-29T12:09:43Z</time>
      </trkpt>
      <trkpt lat="40.425200" lon="-5.295000">
        <ele>2172.0</ele>
        <time>2018-07-29T12:09:44Z</time>
      </trkpt>
      <trkpt lat="40.425233" lon="-5.294933">
        <ele>2172.0</ele>
        <time>2018-07-29T12:09:45Z</time>
      </trkpt>
      <trkpt lat="40.425283" lon="-5.294883">
        <ele>2172.0</ele>
        <time>2018-07-29T12:09:46Z</time>
      </trkpt>
      <trkpt lat="40.425317" lon="-5.294850">
        <ele>2172.0</ele>
        <time>2018-07-29T12:09:47Z</time>
      </trkpt>
      <trkpt lat="40.425367" lon="-5.294850">
        <ele>2173.0</ele>
        <time>2018-07-29T12:09:48Z</time>
      </trkpt>
      <trkpt lat="40.425400" lon="-5.294867">
        <ele>2173.0</ele>
        <time>2018-07-29T12:09:49Z</time>
      </trkpt>
      <trkpt lat="40.425400" lon="-5.294883">
        <ele>2175.0</ele>
        <time>2018-07-29T12:09:50Z</time>
      </trkpt>
      <trkpt lat="40.425400" lon="-5.294917">
        <ele>2178.0</ele>
        <time>2018-07-29T12:09:51Z</time>
      </trkpt>
      <trkpt lat="40.425383" lon="-5.294933">
        <ele>2179.0</ele>
        <time>2018-07-29T12:09:52Z</time>
      </trkpt>
      <trkpt lat="40.425383" lon="-5.294967">
        <ele>2180.0</ele>
        <time>2018-07-29T12:09:53Z</time>
      </trkpt>
      <trkpt lat="40.425383" lon="-5.295000">
        <ele>2181.0</ele>
        <time>2018-07-29T12:09:54Z</time>
      </trkpt>
      <trkpt lat="40.425400" lon="-5.295050">
        <ele>2182.0</ele>
        <time>2018-07-29T12:09:55Z</time>
      </trkpt>
      <trkpt lat="40.425400" lon="-5.295117">
        <ele>2183.0</ele>
        <time>2018-07-29T12:09:56Z</time>
      </trkpt>
      <trkpt lat="40.425367" lon="-5.295183">
        <ele>2186.0</ele>
        <time>2018-07-29T12:09:57Z</time>
      </trkpt>
      <trkpt lat="40.425283" lon="-5.295250">
        <ele>2190.0</ele>
        <time>2018-07-29T12:09:58Z</time>
      </trkpt>
      <trkpt lat="40.425167" lon="-5.295300">
        <ele>2190.0</ele>
        <time>2018-07-29T12:09:59Z</time>
      </trkpt>
      <trkpt lat="40.425033" lon="-5.295300">
        <ele>2189.0</ele>
        <time>2018-07-29T12:10:00Z</time>
      </trkpt>
      <trkpt lat="40.424900" lon="-5.295283">
        <ele>2189.0</ele>
        <time>2018-07-29T12:10:01Z</time>
      </trkpt>
      <trkpt lat="40.424750" lon="-5.295250">
        <ele>2190.0</ele>
        <time>2018-07-29T12:10:02Z</time>
      </trkpt>
      <trkpt lat="40.424600" lon="-5.295167">
        <ele>2190.0</ele>
        <time>2018-07-29T12:10:03Z</time>
      </trkpt>
      <trkpt lat="40.424467" lon="-5.295033">
        <ele>2190.0</ele>
        <time>2018-07-29T12:10:04Z</time>
      </trkpt>
      <trkpt lat="40.424350" lon="-5.294867">
        <ele>2190.0</ele>
        <time>2018-07-29T12:10:05Z</time>
      </trkpt>
      <trkpt lat="40.424267" lon="-5.294683">
        <ele>2191.0</ele>
        <time>2018-07-29T12:10:06Z</time>
      </trkpt>
      <trkpt lat="40.424217" lon="-5.294500">
        <ele>2192.0</ele>
        <time>2018-07-29T12:10:07Z</time>
      </trkpt>
      <trkpt lat="40.424183" lon="-5.294333">
        <ele>2193.0</ele>
        <time>2018-07-29T12:10:08Z</time>
      </trkpt>
      <trkpt lat="40.424200" lon="-5.294183">
        <ele>2193.0</ele>
        <time>2018-07-29T12:10:09Z</time>
      </trkpt>
      <trkpt lat="40.424217" lon="-5.294050">
        <ele>2193.0</ele>
        <time>2018-07-29T12:10:10Z</time>
      </trkpt>
      <trkpt lat="40.424250" lon="-5.293950">
        <ele>2193.0</ele>
        <time>2018-07-29T12:10:11Z</time>
      </trkpt>
      <trkpt lat="40.424300" lon="-5.293867">
        <ele>2194.0</ele>
        <time>2018-07-29T12:10:12Z</time>
      </trkpt>
      <trkpt lat="40.424350" lon="-5.293817">
        <ele>2195.0</ele>
        <time>2018-07-29T12:10:13Z</time>
      </trkpt>
      <trkpt lat="40.424400" lon="-5.293800">
        <ele>2196.0</ele>
        <time>2018-07-29T12:10:14Z</time>
      </trkpt>
      <trkpt lat="40.424450" lon="-5.293800">
        <ele>2198.0</ele>
        <time>2018-07-29T12:10:15Z</time>
      </trkpt>
      <trkpt lat="40.424467" lon="-5.293817">
        <ele>2201.0</ele>
        <time>2018-07-29T12:10:16Z</time>
      </trkpt>
      <trkpt lat="40.424500" lon="-5.293833">
        <ele>2204.0</ele>
        <time>2018-07-29T12:10:17Z</time>
      </trkpt>
      <trkpt lat="40.424533" lon="-5.293850">
        <ele>2207.0</ele>
        <time>2018-07-29T12:10:18Z</time>
      </trkpt>
      <trkpt lat="40.424550" lon="-5.293850">
        <ele>2209.0</ele>
        <time>2018-07-29T12:10:19Z</time>
      </trkpt>
      <trkpt lat="40.424583" lon="-5.293867">
        <ele>2212.0</ele>
        <time>2018-07-29T12:10:20Z</time>
      </trkpt>
      <trkpt lat="40.424600" lon="-5.293867">
        <ele>2213.0</ele>
        <time>2018-07-29T12:10:21Z</time>
      </trkpt>
      <trkpt lat="40.424633" lon="-5.293833">
        <ele>2214.0</ele>
        <time>2018-07-29T12:10:22Z</time>
      </trkpt>
      <trkpt lat="40.424683" lon="-5.293783">
        <ele>2214.0</ele>
        <time>2018-07-29T12:10:23Z</time>
      </trkpt>
      <trkpt lat="40.424733" lon="-5.293717">
        <ele>2215.0</ele>
        <time>2018-07-29T12:10:24Z</time>
      </trkpt>
      <trkpt lat="40.424767" lon="-5.293600">
        <ele>2216.0</ele>
        <time>2018-07-29T12:10:25Z</time>
      </trkpt>
      <trkpt lat="40.424783" lon="-5.293450">
        <ele>2216.0</ele>
        <time>2018-07-29T12:10:26Z</time>
      </trkpt>
      <trkpt lat="40.424767" lon="-5.293300">
        <ele>2215.0</ele>
        <time>2018-07-29T12:10:27Z</time>
      </trkpt>
      <trkpt lat="40.424733" lon="-5.293117">
        <ele>2215.0</ele>
        <time>2018-07-29T12:10:28Z</time>
      </trkpt>
      <trkpt lat="40.424683" lon="-5.292933">
        <ele>2214.0</ele>
        <time>2018-07-29T12:10:29Z</time>
      </trkpt>
      <trkpt lat="40.424583" lon="-5.292750">
        <ele>2214.0</ele>
        <time>2018-07-29T12:10:30Z</time>
      </trkpt>
      <trkpt lat="40.424483" lon="-5.292617">
        <ele>2214.0</ele>
        <time>2018-07-29T12:10:31Z</time>
      </trkpt>
      <trkpt lat="40.424350" lon="-5.292517">
        <ele>2214.0</ele>
        <time>2018-07-29T12:10:32Z</time>
      </trkpt>
      <trkpt lat="40.424217" lon="-5.292467">
        <ele>2214.0</ele>
        <time>2018-07-29T12:10:33Z</time>
      </trkpt>
      <trkpt lat="40.424083" lon="-5.292467">
        <ele>2213.0</ele>
        <time>2018-07-29T12:10:34Z</time>
      </trkpt>
      <trkpt lat="40.423967" lon="-5.292500">
        <ele>2212.0</ele>
        <time>2018-07-29T12:10:35Z</time>
      </trkpt>
      <trkpt lat="40.423883" lon="-5.292567">
        <ele>2213.0</ele>
        <time>2018-07-29T12:10:36Z</time>
      </trkpt>
      <trkpt lat="40.423833" lon="-5.292633">
        <ele>2214.0</ele>
        <time>2018-07-29T12:10:37Z</time>
      </trkpt>
      <trkpt lat="40.423800" lon="-5.292683">
        <ele>2214.0</ele>
        <time>2018-07-29T12:10:38Z</time>
      </trkpt>
      <trkpt lat="40.423783" lon="-5.292750">
        <ele>2215.0</ele>
        <time>2018-07-29T12:10:39Z</time>
      </trkpt>
      <trkpt lat="40.423767" lon="-5.292800">
        <ele>2215.0</ele>
        <time>2018-07-29T12:10:40Z</time>
      </trkpt>
      <trkpt lat="40.423767" lon="-5.292850">
        <ele>2216.0</ele>
        <time>2018-07-29T12:10:41Z</time>
      </trkpt>
      <trkpt lat="40.423783" lon="-5.292900">
        <ele>2215.0</ele>
        <time>2018-07-29T12:10:42Z</time>
      </trkpt>
      <trkpt lat="40.423800" lon="-5.292933">
        <ele>2215.0</ele>
        <time>2018-07-29T12:10:43Z</time>
      </trkpt>
      <trkpt lat="40.423817" lon="-5.292967">
        <ele>2215.0</ele>
        <time>2018-07-29T12:10:44Z</time>
      </trkpt>
      <trkpt lat="40.423817" lon="-5.293000">
        <ele>2215.0</ele>
        <time>2018-07-29T12:10:45Z</time>
      </trkpt>
      <trkpt lat="40.423817" lon="-5.293033">
        <ele>2214.0</ele>
        <time>2018-07-29T12:10:46Z</time>
      </trkpt>
      <trkpt lat="40.423833" lon="-5.293067">
        <ele>2211.0</ele>
        <time>2018-07-29T12:10:47Z</time>
      </trkpt>
      <trkpt lat="40.423850" lon="-5.293083">
        <ele>2209.0</ele>
        <time>2018-07-29T12:10:48Z</time>
      </trkpt>
      <trkpt lat="40.423867" lon="-5.293100">
        <ele>2207.0</ele>
        <time>2018-07-29T12:10:49Z</time>
      </trkpt>
      <trkpt lat="40.423900" lon="-5.293133">
        <ele>2206.0</ele>
        <time>2018-07-29T12:10:50Z</time>
      </trkpt>
      <trkpt lat="40.423917" lon="-5.293150">
        <ele>2206.0</ele>
        <time>2018-07-29T12:10:51Z</time>
      </trkpt>
      <trkpt lat="40.423917" lon="-5.293167">
        <ele>2206.0</ele>
        <time>2018-07-29T12:10:52Z</time>
      </trkpt>
      <trkpt lat="40.423917" lon="-5.293167">
        <ele>2204.0</ele>
        <time>2018-07-29T12:10:53Z</time>
      </trkpt>
      <trkpt lat="40.423933" lon="-5.293183">
        <ele>2204.0</ele>
        <time>2018-07-29T12:10:54Z</time>
      </trkpt>
      <trkpt lat="40.423950" lon="-5.293200">
        <ele>2202.0</ele>
        <time>2018-07-29T12:10:55Z</time>
      </trkpt>
      <trkpt lat="40.423983" lon="-5.293233">
        <ele>2199.0</ele>
        <time>2018-07-29T12:10:56Z</time>
      </trkpt>
      <trkpt lat="40.424000" lon="-5.293267">
        <ele>2196.0</ele>
        <time>2018-07-29T12:10:57Z</time>
      </trkpt>
      <trkpt lat="40.424033" lon="-5.293300">
        <ele>2194.0</ele>
        <time>2018-07-29T12:10:58Z</time>
      </trkpt>
      <trkpt lat="40.424050" lon="-5.293333">
        <ele>2192.0</ele>
        <time>2018-07-29T12:10:59Z</time>
      </trkpt>
      <trkpt lat="40.424067" lon="-5.293350">
        <ele>2191.0</ele>
        <time>2018-07-29T12:11:00Z</time>
      </trkpt>
      <trkpt lat="40.424083" lon="-5.293383">
        <ele>2189.0</ele>
        <time>2018-07-29T12:11:01Z</time>
      </trkpt>
      <trkpt lat="40.424100" lon="-5.293433">
        <ele>2187.0</ele>
        <time>2018-07-29T12:11:02Z</time>
      </trkpt>
      <trkpt lat="40.424117" lon="-5.293467">
        <ele>2185.0</ele>
        <time>2018-07-29T12:11:03Z</time>
      </trkpt>
      <trkpt lat="40.424150" lon="-5.293517">
        <ele>2182.0</ele>
        <time>2018-07-29T12:11:04Z</time>
      </trkpt>
      <trkpt lat="40.424183" lon="-5.293550">
        <ele>2180.0</ele>
        <time>2018-07-29T12:11:05Z</time>
      </trkpt>
      <trkpt lat="40.424200" lon="-5.293567">
        <ele>2178.0</ele>
        <time>2018-07-29T12:11:06Z</time>
      </trkpt>
      <trkpt lat="40.424233" lon="-5.293600">
        <ele>2175.0</ele>
        <time>2018-07-29T12:11:07Z</time>
      </trkpt>
      <trkpt lat="40.424267" lon="-5.293617">
        <ele>2172.0</ele>
        <time>2018-07-29T12:11:08Z</time>
      </trkpt>
      <trkpt lat="40.424300" lon="-5.293650">
        <ele>2167.0</ele>
        <time>2018-07-29T12:11:09Z</time>
      </trkpt>
      <trkpt lat="40.424350" lon="-5.293667">
        <ele>2164.0</ele>
        <time>2018-07-29T12:11:10Z</time>
      </trkpt>
      <trkpt lat="40.424417" lon="-5.293700">
        <ele>2162.0</ele>
        <time>2018-07-29T12:11:11Z</time>
      </trkpt>
      <trkpt lat="40.424467" lon="-5.293733">
        <ele>2162.0</ele>
        <time>2018-07-29T12:11:12Z</time>
      </trkpt>
      <trkpt lat="40.424500" lon="-5.293750">
        <ele>2161.0</ele>
        <time>2018-07-29T12:11:13Z</time>
      </trkpt>
      <trkpt lat="40.424533" lon="-5.293767">
        <ele>2160.0</ele>
        <time>2018-07-29T12:11:14Z</time>
      </trkpt>
      <trkpt lat="40.424567" lon="-5.293783">
        <ele>2158.0</ele>
        <time>2018-07-29T12:11:15Z</time>
      </trkpt>
      <trkpt lat="40.424600" lon="-5.293800">
        <ele>2155.0</ele>
        <time>2018-07-29T12:11:16Z</time>
      </trkpt>
      <trkpt lat="40.424667" lon="-5.293817">
        <ele>2153.0</ele>
        <time>2018-07-29T12:11:17Z</time>
      </trkpt>
      <trkpt lat="40.424717" lon="-5.293850">
        <ele>2154.0</ele>
        <time>2018-07-29T12:11:18Z</time>
      </trkpt>
      <trkpt lat="40.424750" lon="-5.293867">
        <ele>2154.0</ele>
        <time>2018-07-29T12:11:19Z</time>
      </trkpt>
      <trkpt lat="40.424800" lon="-5.293883">
        <ele>2154.0</ele>
        <time>2018-07-29T12:11:20Z</time>
      </trkpt>
      <trkpt lat="40.424833" lon="-5.293867">
        <ele>2152.0</ele>
        <time>2018-07-29T12:11:21Z</time>
      </trkpt>
      <trkpt lat="40.424867" lon="-5.293850">
        <ele>2150.0</ele>
        <time>2018-07-29T12:11:22Z</time>
      </trkpt>
      <trkpt lat="40.424933" lon="-5.293850">
        <ele>2148.0</ele>
        <time>2018-07-29T12:11:23Z</time>
      </trkpt>
      <trkpt lat="40.424983" lon="-5.293850">
        <ele>2149.0</ele>
        <time>2018-07-29T12:11:24Z</time>
      </trkpt>
      <trkpt lat="40.425033" lon="-5.293867">
        <ele>2150.0</ele>
        <time>2018-07-29T12:11:25Z</time>
      </trkpt>
      <trkpt lat="40.425083" lon="-5.293883">
        <ele>2152.0</ele>
        <time>2018-07-29T12:11:26Z</time>
      </trkpt>
      <trkpt lat="40.425117" lon="-5.293883">
        <ele>2154.0</ele>
        <time>2018-07-29T12:11:27Z</time>
      </trkpt>
      <trkpt lat="40.425150" lon="-5.293883">
        <ele>2155.0</ele>
        <time>2018-07-29T12:11:28Z</time>
      </trkpt>
      <trkpt lat="40.425183" lon="-5.293867">
        <ele>2157.0</ele>
        <time>2018-07-29T12:11:29Z</time>
      </trkpt>
      <trkpt lat="40.425233" lon="-5.293867">
        <ele>2159.0</ele>
        <time>2018-07-29T12:11:30Z</time>
      </trkpt>
      <trkpt lat="40.425283" lon="-5.293883">
        <ele>2161.0</ele>
        <time>2018-07-29T12:11:31Z</time>
      </trkpt>
      <trkpt lat="40.425317" lon="-5.293917">
        <ele>2164.0</ele>
        <time>2018-07-29T12:11:32Z</time>
      </trkpt>
      <trkpt lat="40.425317" lon="-5.293967">
        <ele>2166.0</ele>
        <time>2018-07-29T12:11:33Z</time>
      </trkpt>
      <trkpt lat="40.425267" lon="-5.294000">
        <ele>2167.0</ele>
        <time>2018-07-29T12:11:34Z</time>
      </trkpt>
      <trkpt lat="40.425200" lon="-5.294050">
        <ele>2167.0</ele>
        <time>2018-07-29T12:11:35Z</time>
      </trkpt>
      <trkpt lat="40.425117" lon="-5.294083">
        <ele>2166.0</ele>
        <time>2018-07-29T12:11:36Z</time>
      </trkpt>
      <trkpt lat="40.425017" lon="-5.294117">
        <ele>2165.0</ele>
        <time>2018-07-29T12:11:37Z</time>
      </trkpt>
      <trkpt lat="40.424883" lon="-5.294100">
        <ele>2163.0</ele>
        <time>2018-07-29T12:11:38Z</time>
      </trkpt>
      <trkpt lat="40.424767" lon="-5.294050">
        <ele>2162.0</ele>
        <time>2018-07-29T12:11:39Z</time>
      </trkpt>
      <trkpt lat="40.424650" lon="-5.293967">
        <ele>2161.0</ele>
        <time>2018-07-29T12:11:40Z</time>
      </trkpt>
      <trkpt lat="40.424533" lon="-5.293850">
        <ele>2161.0</ele>
        <time>2018-07-29T12:11:41Z</time>
      </trkpt>
      <trkpt lat="40.424450" lon="-5.293717">
        <ele>2160.0</ele>
        <time>2018-07-29T12:11:42Z</time>
      </trkpt>
      <trkpt lat="40.424367" lon="-5.293567">
        <ele>2160.0</ele>
        <time>2018-07-29T12:11:43Z</time>
      </trkpt>
      <trkpt lat="40.424300" lon="-5.293400">
        <ele>2158.0</ele>
        <time>2018-07-29T12:11:44Z</time>
      </trkpt>
      <trkpt lat="40.424267" lon="-5.293217">
        <ele>2155.0</ele>
        <time>2018-07-29T12:11:45Z</time>
      </trkpt>
      <trkpt lat="40.424250" lon="-5.293017">
        <ele>2154.0</ele>
        <time>2018-07-29T12:11:46Z</time>
      </trkpt>
      <trkpt lat="40.424233" lon="-5.292800">
        <ele>2156.0</ele>
        <time>2018-07-29T12:11:47Z</time>
      </trkpt>
      <trkpt lat="40.424250" lon="-5.292617">
        <ele>2159.0</ele>
        <time>2018-07-29T12:11:48Z</time>
      </trkpt>
      <trkpt lat="40.424283" lon="-5.292483">
        <ele>2162.0</ele>
        <time>2018-07-29T12:11:49Z</time>
      </trkpt>
      <trkpt lat="40.424350" lon="-5.292367">
        <ele>2164.0</ele>
        <time>2018-07-29T12:11:50Z</time>
      </trkpt>
      <trkpt lat="40.424417" lon="-5.292300">
        <ele>2165.0</ele>
        <time>2018-07-29T12:11:51Z</time>
      </trkpt>
      <trkpt lat="40.424483" lon="-5.292233">
        <ele>2167.0</ele>
        <time>2018-07-29T12:11:52Z</time>
      </trkpt>
      <trkpt lat="40.424550" lon="-5.292183">
        <ele>2168.0</ele>
        <time>2018-07-29T12:11:53Z</time>
      </trkpt>
      <trkpt lat="40.424600" lon="-5.292167">
        <ele>2170.0</ele>
        <time>2018-07-29T12:11:54Z</time>
      </trkpt>
      <trkpt lat="40.424650" lon="-5.292167">
        <ele>2171.0</ele>
        <time>2018-07-29T12:11:55Z</time>
      </trkpt>
      <trkpt lat="40.424683" lon="-5.292183">
        <ele>2172.0</ele>
        <time>2018-07-29T12:11:56Z</time>
      </trkpt>
      <trkpt lat="40.424717" lon="-5.292200">
        <ele>2175.0</ele>
        <time>2018-07-29T12:11:57Z</time>
      </trkpt>
      <trkpt lat="40.424733" lon="-5.292200">
        <ele>2177.0</ele>
        <time>2018-07-29T12:11:58Z</time>
      </trkpt>
      <trkpt lat="40.424767" lon="-5.292200">
        <ele>2178.0</ele>
        <time>2018-07-29T12:11:59Z</time>
      </trkpt>
      <trkpt lat="40.424783" lon="-5.292167">
        <ele>2179.0</ele>
        <time>2018-07-29T12:12:00Z</time>
      </trkpt>
      <trkpt lat="40.424817" lon="-5.292167">
        <ele>2178.0</ele>
        <time>2018-07-29T12:12:01Z</time>
      </trkpt>
      <trkpt lat="40.424850" lon="-5.292167">
        <ele>2177.0</ele>
        <time>2018-07-29T12:12:02Z</time>
      </trkpt>
      <trkpt lat="40.424883" lon="-5.292167">
        <ele>2176.0</ele>
        <time>2018-07-29T12:12:03Z</time>
      </trkpt>
      <trkpt lat="40.424917" lon="-5.292183">
        <ele>2174.0</ele>
        <time>2018-07-29T12:12:04Z</time>
      </trkpt>
      <trkpt lat="40.424933" lon="-5.292183">
        <ele>2172.0</ele>
        <time>2018-07-29T12:12:05Z</time>
      </trkpt>
      <trkpt lat="40.424967" lon="-5.292200">
        <ele>2168.0</ele>
        <time>2018-07-29T12:12:06Z</time>
      </trkpt>
      <trkpt lat="40.425017" lon="-5.292200">
        <ele>2164.0</ele>
        <time>2018-07-29T12:12:07Z</time>
      </trkpt>
      <trkpt lat="40.425067" lon="-5.292233">
        <ele>2159.0</ele>
        <time>2018-07-29T12:12:08Z</time>
      </trkpt>
      <trkpt lat="40.425117" lon="-5.292267">
        <ele>2155.0</ele>
        <time>2018-07-29T12:12:09Z</time>
      </trkpt>
      <trkpt lat="40.425167" lon="-5.292317">
        <ele>2151.0</ele>
        <time>2018-07-29T12:12:10Z</time>
      </trkpt>
      <trkpt lat="40.425233" lon="-5.292350">
        <ele>2148.0</ele>
        <time>2018-07-29T12:12:11Z</time>
      </trkpt>
      <trkpt lat="40.425283" lon="-5.292383">
        <ele>2145.0</ele>
        <time>2018-07-29T12:12:12Z</time>
      </trkpt>
      <trkpt lat="40.425333" lon="-5.292417">
        <ele>2142.0</ele>
        <time>2018-07-29T12:12:13Z</time>
      </trkpt>
      <trkpt lat="40.425383" lon="-5.292467">
        <ele>2139.0</ele>
        <time>2018-07-29T12:12:14Z</time>
      </trkpt>
      <trkpt lat="40.425417" lon="-5.292517">
        <ele>2136.0</ele>
        <time>2018-07-29T12:12:15Z</time>
      </trkpt>
      <trkpt lat="40.425450" lon="-5.292583">
        <ele>2133.0</ele>
        <time>2018-07-29T12:12:16Z</time>
      </trkpt>
      <trkpt lat="40.425483" lon="-5.292633">
        <ele>2130.0</ele>
        <time>2018-07-29T12:12:17Z</time>
      </trkpt>
      <trkpt lat="40.425517" lon="-5.292700">
        <ele>2127.0</ele>
        <time>2018-07-29T12:12:18Z</time>
      </trkpt>
      <trkpt lat="40.425550" lon="-5.292750">
        <ele>2124.0</ele>
        <time>2018-07-29T12:12:19Z</time>
      </trkpt>
      <trkpt lat="40.425567" lon="-5.292817">
        <ele>2121.0</ele>
        <time>2018-07-29T12:12:20Z</time>
      </trkpt>
      <trkpt lat="40.425583" lon="-5.292900">
        <ele>2117.0</ele>
        <time>2018-07-29T12:12:21Z</time>
      </trkpt>
      <trkpt lat="40.425617" lon="-5.292983">
        <ele>2113.0</ele>
        <time>2018-07-29T12:12:22Z</time>
      </trkpt>
      <trkpt lat="40.425633" lon="-5.293067">
        <ele>2111.0</ele>
        <time>2018-07-29T12:12:23Z</time>
      </trkpt>
      <trkpt lat="40.425650" lon="-5.293133">
        <ele>2111.0</ele>
        <time>2018-07-29T12:12:24Z</time>
      </trkpt>
      <trkpt lat="40.425667" lon="-5.293183">
        <ele>2112.0</ele>
        <time>2018-07-29T12:12:25Z</time>
      </trkpt>
      <trkpt lat="40.425650" lon="-5.293217">
        <ele>2113.0</ele>
        <time>2018-07-29T12:12:26Z</time>
      </trkpt>
      <trkpt lat="40.425633" lon="-5.293233">
        <ele>2113.0</ele>
        <time>2018-07-29T12:12:27Z</time>
      </trkpt>
      <trkpt lat="40.425633" lon="-5.293250">
        <ele>2112.0</ele>
        <time>2018-07-29T12:12:28Z</time>
      </trkpt>
      <trkpt lat="40.425650" lon="-5.293267">
        <ele>2111.0</ele>
        <time>2018-07-29T12:12:29Z</time>
      </trkpt>
      <trkpt lat="40.425667" lon="-5.293317">
        <ele>2111.0</ele>
        <time>2018-07-29T12:12:30Z</time>
      </trkpt>
      <trkpt lat="40.425683" lon="-5.293367">
        <ele>2111.0</ele>
        <time>2018-07-29T12:12:31Z</time>
      </trkpt>
      <trkpt lat="40.425700" lon="-5.293400">
        <ele>2111.0</ele>
        <time>2018-07-29T12:12:32Z</time>
      </trkpt>
      <trkpt lat="40.425700" lon="-5.293433">
        <ele>2113.0</ele>
        <time>2018-07-29T12:12:33Z</time>
      </trkpt>
      <trkpt lat="40.425717" lon="-5.293467">
        <ele>2113.0</ele>
        <time>2018-07-29T12:12:34Z</time>
      </trkpt>
      <trkpt lat="40.425717" lon="-5.293500">
        <ele>2111.0</ele>
        <time>2018-07-29T12:12:35Z</time>
      </trkpt>
      <trkpt lat="40.425733" lon="-5.293533">
        <ele>2110.0</ele>
        <time>2018-07-29T12:12:36Z</time>
      </trkpt>
      <trkpt lat="40.425767" lon="-5.293567">
        <ele>2108.0</ele>
        <time>2018-07-29T12:12:37Z</time>
      </trkpt>
      <trkpt lat="40.425783" lon="-5.293617">
        <ele>2106.0</ele>
        <time>2018-07-29T12:12:38Z</time>
      </trkpt>
      <trkpt lat="40.425817" lon="-5.293650">
        <ele>2105.0</ele>
        <time>2018-07-29T12:12:39Z</time>
      </trkpt>
      <trkpt lat="40.425850" lon="-5.293700">
        <ele>2104.0</ele>
        <time>2018-07-29T12:12:40Z</time>
      </trkpt>
      <trkpt lat="40.425867" lon="-5.293733">
        <ele>2104.0</ele>
        <time>2018-07-29T12:12:41Z</time>
      </trkpt>
      <trkpt lat="40.425900" lon="-5.293767">
        <ele>2104.0</ele>
        <time>2018-07-29T12:12:42Z</time>
      </trkpt>
      <trkpt lat="40.425917" lon="-5.293783">
        <ele>2103.0</ele>
        <time>2018-07-29T12:12:43Z</time>
      </trkpt>
      <trkpt lat="40.425933" lon="-5.293817">
        <ele>2101.0</ele>
        <time>2018-07-29T12:12:44Z</time>
      </trkpt>
      <trkpt lat="40.425967" lon="-5.293833">
        <ele>2099.0</ele>
        <time>2018-07-29T12:12:45Z</time>
      </trkpt>
      <trkpt lat="40.425983" lon="-5.293883">
        <ele>2097.0</ele>
        <time>2018-07-29T12:12:46Z</time>
      </trkpt>
      <trkpt lat="40.426017" lon="-5.293917">
        <ele>2095.0</ele>
        <time>2018-07-29T12:12:47Z</time>
      </trkpt>
      <trkpt lat="40.426067" lon="-5.293950">
        <ele>2094.0</ele>
        <time>2018-07-29T12:12:48Z</time>
      </trkpt>
      <trkpt lat="40.426117" lon="-5.293983">
        <ele>2096.0</ele>
        <time>2018-07-29T12:12:49Z</time>
      </trkpt>
      <trkpt lat="40.426150" lon="-5.293983">
        <ele>2098.0</ele>
        <time>2018-07-29T12:12:50Z</time>
      </trkpt>
      <trkpt lat="40.426167" lon="-5.293983">
        <ele>2099.0</ele>
        <time>2018-07-29T12:12:51Z</time>
      </trkpt>
      <trkpt lat="40.426200" lon="-5.294000">
        <ele>2099.0</ele>
        <time>2018-07-29T12:12:52Z</time>
      </trkpt>
      <trkpt lat="40.426233" lon="-5.294017">
        <ele>2098.0</ele>
        <time>2018-07-29T12:12:53Z</time>
      </trkpt>
      <trkpt lat="40.426283" lon="-5.294033">
        <ele>2096.0</ele>
        <time>2018-07-29T12:12:54Z</time>
      </trkpt>
      <trkpt lat="40.426350" lon="-5.294017">
        <ele>2094.0</ele>
        <time>2018-07-29T12:12:55Z</time>
      </trkpt>
      <trkpt lat="40.426433" lon="-5.293983">
        <ele>2093.0</ele>
        <time>2018-07-29T12:12:56Z</time>
      </trkpt>
      <trkpt lat="40.426500" lon="-5.293933">
        <ele>2093.0</ele>
        <time>2018-07-29T12:12:57Z</time>
      </trkpt>
      <trkpt lat="40.426567" lon="-5.293917">
        <ele>2093.0</ele>
        <time>2018-07-29T12:12:58Z</time>
      </trkpt>
      <trkpt lat="40.426600" lon="-5.293900">
        <ele>2092.0</ele>
        <time>2018-07-29T12:12:59Z</time>
      </trkpt>
      <trkpt lat="40.426633" lon="-5.293900">
        <ele>2090.0</ele>
        <time>2018-07-29T12:13:00Z</time>
      </trkpt>
      <trkpt lat="40.426683" lon="-5.293883">
        <ele>2087.0</ele>
        <time>2018-07-29T12:13:01Z</time>
      </trkpt>
      <trkpt lat="40.426733" lon="-5.293883">
        <ele>2084.0</ele>
        <time>2018-07-29T12:13:02Z</time>
      </trkpt>
      <trkpt lat="40.426783" lon="-5.293867">
        <ele>2081.0</ele>
        <time>2018-07-29T12:13:03Z</time>
      </trkpt>
      <trkpt lat="40.426850" lon="-5.293850">
        <ele>2079.0</ele>
        <time>2018-07-29T12:13:04Z</time>
      </trkpt>
      <trkpt lat="40.426900" lon="-5.293850">
        <ele>2077.0</ele>
        <time>2018-07-29T12:13:05Z</time>
      </trkpt>
      <trkpt lat="40.426950" lon="-5.293883">
        <ele>2075.0</ele>
        <time>2018-07-29T12:13:06Z</time>
      </trkpt>
      <trkpt lat="40.427000" lon="-5.293917">
        <ele>2074.0</ele>
        <time>2018-07-29T12:13:07Z</time>
      </trkpt>
      <trkpt lat="40.427033" lon="-5.293950">
        <ele>2073.0</ele>
        <time>2018-07-29T12:13:08Z</time>
      </trkpt>
      <trkpt lat="40.427083" lon="-5.293967">
        <ele>2072.0</ele>
        <time>2018-07-29T12:13:09Z</time>
      </trkpt>
      <trkpt lat="40.427133" lon="-5.293983">
        <ele>2070.0</ele>
        <time>2018-07-29T12:13:10Z</time>
      </trkpt>
      <trkpt lat="40.427167" lon="-5.294000">
        <ele>2069.0</ele>
        <time>2018-07-29T12:13:11Z</time>
      </trkpt>
      <trkpt lat="40.427200" lon="-5.294050">
        <ele>2068.0</ele>
        <time>2018-07-29T12:13:12Z</time>
      </trkpt>
      <trkpt lat="40.427233" lon="-5.294100">
        <ele>2067.0</ele>
        <time>2018-07-29T12:13:13Z</time>
      </trkpt>
      <trkpt lat="40.427250" lon="-5.294150">
        <ele>2065.0</ele>
        <time>2018-07-29T12:13:14Z</time>
      </trkpt>
      <trkpt lat="40.427283" lon="-5.294183">
        <ele>2063.0</ele>
        <time>2018-07-29T12:13:15Z</time>
      </trkpt>
      <trkpt lat="40.427317" lon="-5.294233">
        <ele>2061.0</ele>
        <time>2018-07-29T12:13:16Z</time>
      </trkpt>
      <trkpt lat="40.427333" lon="-5.294283">
        <ele>2058.0</ele>
        <time>2018-07-29T12:13:17Z</time>
      </trkpt>
      <trkpt lat="40.427367" lon="-5.294333">
        <ele>2056.0</ele>
        <time>2018-07-29T12:13:18Z</time>
      </trkpt>
      <trkpt lat="40.427400" lon="-5.294383">
        <ele>2054.0</ele>
        <time>2018-07-29T12:13:19Z</time>
      </trkpt>
      <trkpt lat="40.427450" lon="-5.294433">
        <ele>2052.0</ele>
        <time>2018-07-29T12:13:20Z</time>
      </trkpt>
      <trkpt lat="40.427500" lon="-5.294467">
        <ele>2051.0</ele>
        <time>2018-07-29T12:13:21Z</time>
      </trkpt>
      <trkpt lat="40.427550" lon="-5.294500">
        <ele>2049.0</ele>
        <time>2018-07-29T12:13:22Z</time>
      </trkpt>
      <trkpt lat="40.427583" lon="-5.294533">
        <ele>2047.0</ele>
        <time>2018-07-29T12:13:23Z</time>
      </trkpt>
      <trkpt lat="40.427617" lon="-5.294567">
        <ele>2045.0</ele>
        <time>2018-07-29T12:13:24Z</time>
      </trkpt>
      <trkpt lat="40.427650" lon="-5.294600">
        <ele>2043.0</ele>
        <time>2018-07-29T12:13:25Z</time>
      </trkpt>
      <trkpt lat="40.427683" lon="-5.294650">
        <ele>2042.0</ele>
        <time>2018-07-29T12:13:26Z</time>
      </trkpt>
      <trkpt lat="40.427717" lon="-5.294683">
        <ele>2041.0</ele>
        <time>2018-07-29T12:13:27Z</time>
      </trkpt>
      <trkpt lat="40.427767" lon="-5.294733">
        <ele>2040.0</ele>
        <time>2018-07-29T12:13:28Z</time>
      </trkpt>
      <trkpt lat="40.427800" lon="-5.294767">
        <ele>2039.0</ele>
        <time>2018-07-29T12:13:29Z</time>
      </trkpt>
      <trkpt lat="40.427867" lon="-5.294800">
        <ele>2038.0</ele>
        <time>2018-07-29T12:13:30Z</time>
      </trkpt>
      <trkpt lat="40.427917" lon="-5.294833">
        <ele>2038.0</ele>
        <time>2018-07-29T12:13:31Z</time>
      </trkpt>
      <trkpt lat="40.427983" lon="-5.294850">
        <ele>2038.0</ele>
        <time>2018-07-29T12:13:32Z</time>
      </trkpt>
      <trkpt lat="40.428050" lon="-5.294850">
        <ele>2039.0</ele>
        <time>2018-07-29T12:13:33Z</time>
      </trkpt>
      <trkpt lat="40.428117" lon="-5.294850">
        <ele>2041.0</ele>
        <time>2018-07-29T12:13:34Z</time>
      </trkpt>
      <trkpt lat="40.428167" lon="-5.294867">
        <ele>2042.0</ele>
        <time>2018-07-29T12:13:35Z</time>
      </trkpt>
      <trkpt lat="40.428217" lon="-5.294883">
        <ele>2043.0</ele>
        <time>2018-07-29T12:13:36Z</time>
      </trkpt>
      <trkpt lat="40.428267" lon="-5.294917">
        <ele>2044.0</ele>
        <time>2018-07-29T12:13:37Z</time>
      </trkpt>
      <trkpt lat="40.428333" lon="-5.294933">
        <ele>2045.0</ele>
        <time>2018-07-29T12:13:38Z</time>
      </trkpt>
      <trkpt lat="40.428400" lon="-5.294950">
        <ele>2047.0</ele>
        <time>2018-07-29T12:13:39Z</time>
      </trkpt>
      <trkpt lat="40.428467" lon="-5.294950">
        <ele>2051.0</ele>
        <time>2018-07-29T12:13:40Z</time>
      </trkpt>
      <trkpt lat="40.428517" lon="-5.294950">
        <ele>2054.0</ele>
        <time>2018-07-29T12:13:41Z</time>
      </trkpt>
      <trkpt lat="40.428583" lon="-5.294950">
        <ele>2058.0</ele>
        <time>2018-07-29T12:13:42Z</time>
      </trkpt>
      <trkpt lat="40.428633" lon="-5.294950">
        <ele>2062.0</ele>
        <time>2018-07-29T12:13:43Z</time>
      </trkpt>
      <trkpt lat="40.428683" lon="-5.294950">
        <ele>2065.0</ele>
        <time>2018-07-29T12:13:44Z</time>
      </trkpt>
      <trkpt lat="40.428750" lon="-5.294933">
        <ele>2068.0</ele>
        <time>2018-07-29T12:13:45Z</time>
      </trkpt>
      <trkpt lat="40.428800" lon="-5.294883">
        <ele>2070.0</ele>
        <time>2018-07-29T12:13:46Z</time>
      </trkpt>
      <trkpt lat="40.428867" lon="-5.294850">
        <ele>2072.0</ele>
        <time>2018-07-29T12:13:47Z</time>
      </trkpt>
      <trkpt lat="40.428933" lon="-5.294817">
        <ele>2075.0</ele>
        <time>2018-07-29T12:13:48Z</time>
      </trkpt>
      <trkpt lat="40.428983" lon="-5.294833">
        <ele>2078.0</ele>
        <time>2018-07-29T12:13:49Z</time>
      </trkpt>
      <trkpt lat="40.429033" lon="-5.294850">
        <ele>2080.0</ele>
        <time>2018-07-29T12:13:50Z</time>
      </trkpt>
      <trkpt lat="40.429067" lon="-5.294900">
        <ele>2082.0</ele>
        <time>2018-07-29T12:13:51Z</time>
      </trkpt>
      <trkpt lat="40.429067" lon="-5.294967">
        <ele>2083.0</ele>
        <time>2018-07-29T12:13:52Z</time>
      </trkpt>
      <trkpt lat="40.429067" lon="-5.295033">
        <ele>2083.0</ele>
        <time>2018-07-29T12:13:53Z</time>
      </trkpt>
      <trkpt lat="40.429033" lon="-5.295133">
        <ele>2084.0</ele>
        <time>2018-07-29T12:13:54Z</time>
      </trkpt>
      <trkpt lat="40.428967" lon="-5.295217">
        <ele>2085.0</ele>
        <time>2018-07-29T12:13:55Z</time>
      </trkpt>
      <trkpt lat="40.428883" lon="-5.295283">
        <ele>2087.0</ele>
        <time>2018-07-29T12:13:56Z</time>
      </trkpt>
      <trkpt lat="40.428783" lon="-5.295317">
        <ele>2090.0</ele>
        <time>2018-07-29T12:13:57Z</time>
      </trkpt>
      <trkpt lat="40.428683" lon="-5.295317">
        <ele>2093.0</ele>
        <time>2018-07-29T12:13:58Z</time>
      </trkpt>
      <trkpt lat="40.428550" lon="-5.295267">
        <ele>2095.0</ele>
        <time>2018-07-29T12:13:59Z</time>
      </trkpt>
      <trkpt lat="40.428433" lon="-5.295200">
        <ele>2098.0</ele>
        <time>2018-07-29T12:14:00Z</time>
      </trkpt>
      <trkpt lat="40.428317" lon="-5.295117">
        <ele>2101.0</ele>
        <time>2018-07-29T12:14:01Z</time>
      </trkpt>
      <trkpt lat="40.428233" lon="-5.294983">
        <ele>2103.0</ele>
        <time>2018-07-29T12:14:02Z</time>
      </trkpt>
      <trkpt lat="40.428150" lon="-5.294833">
        <ele>2105.0</ele>
        <time>2018-07-29T12:14:03Z</time>
      </trkpt>
      <trkpt lat="40.428100" lon="-5.294650">
        <ele>2106.0</ele>
        <time>2018-07-29T12:14:04Z</time>
      </trkpt>
      <trkpt lat="40.428083" lon="-5.294467">
        <ele>2106.0</ele>
        <time>2018-07-29T12:14:05Z</time>
      </trkpt>
      <trkpt lat="40.428100" lon="-5.294267">
        <ele>2107.0</ele>
        <time>2018-07-29T12:14:06Z</time>
      </trkpt>
      <trkpt lat="40.428150" lon="-5.294117">
        <ele>2109.0</ele>
        <time>2018-07-29T12:14:07Z</time>
      </trkpt>
      <trkpt lat="40.428233" lon="-5.294000">
        <ele>2110.0</ele>
        <time>2018-07-29T12:14:08Z</time>
      </trkpt>
      <trkpt lat="40.428317" lon="-5.293933">
        <ele>2113.0</ele>
        <time>2018-07-29T12:14:09Z</time>
      </trkpt>
      <trkpt lat="40.428400" lon="-5.293900">
        <ele>2115.0</ele>
        <time>2018-07-29T12:14:10Z</time>
      </trkpt>
      <trkpt lat="40.428450" lon="-5.293900">
        <ele>2118.0</ele>
        <time>2018-07-29T12:14:11Z</time>
      </trkpt>
      <trkpt lat="40.428483" lon="-5.293933">
        <ele>2120.0</ele>
        <time>2018-07-29T12:14:12Z</time>
      </trkpt>
      <trkpt lat="40.428517" lon="-5.293950">
        <ele>2121.0</ele>
        <time>2018-07-29T12:14:13Z</time>
      </trkpt>
      <trkpt lat="40.428550" lon="-5.294000">
        <ele>2122.0</ele>
        <time>2018-07-29T12:14:14Z</time>
      </trkpt>
      <trkpt lat="40.428583" lon="-5.294050">
        <ele>2122.0</ele>
        <time>2018-07-29T12:14:15Z</time>
      </trkpt>
      <trkpt lat="40.428617" lon="-5.294117">
        <ele>2121.0</ele>
        <time>2018-07-29T12:14:16Z</time>
      </trkpt>
      <trkpt lat="40.428617" lon="-5.294200">
        <ele>2121.0</ele>
        <time>2018-07-29T12:14:17Z</time>
      </trkpt>
      <trkpt lat="40.428617" lon="-5.294300">
        <ele>2122.0</ele>
        <time>2018-07-29T12:14:18Z</time>
      </trkpt>
      <trkpt lat="40.428617" lon="-5.294367">
        <ele>2123.0</ele>
        <time>2018-07-29T12:14:19Z</time>
      </trkpt>
      <trkpt lat="40.428633" lon="-5.294433">
        <ele>2125.0</ele>
        <time>2018-07-29T12:14:20Z</time>
      </trkpt>
      <trkpt lat="40.428617" lon="-5.294483">
        <ele>2125.0</ele>
        <time>2018-07-29T12:14:21Z</time>
      </trkpt>
      <trkpt lat="40.428600" lon="-5.294550">
        <ele>2125.0</ele>
        <time>2018-07-29T12:14:22Z</time>
      </trkpt>
      <trkpt lat="40.428567" lon="-5.294617">
        <ele>2124.0</ele>
        <time>2018-07-29T12:14:23Z</time>
      </trkpt>
      <trkpt lat="40.428517" lon="-5.294700">
        <ele>2123.0</ele>
        <time>2018-07-29T12:14:24Z</time>
      </trkpt>
      <trkpt lat="40.428483" lon="-5.294800">
        <ele>2122.0</ele>
        <time>2018-07-29T12:14:25Z</time>
      </trkpt>
      <trkpt lat="40.428450" lon="-5.294867">
        <ele>2123.0</ele>
        <time>2018-07-29T12:14:26Z</time>
      </trkpt>
      <trkpt lat="40.428400" lon="-5.294933">
        <ele>2123.0</ele>
        <time>2018-07-29T12:14:27Z</time>
      </trkpt>
      <trkpt lat="40.428317" lon="-5.295000">
        <ele>2122.0</ele>
        <time>2018-07-29T12:14:28Z</time>
      </trkpt>
      <trkpt lat="40.428233" lon="-5.295067">
        <ele>2122.0</ele>
        <time>2018-07-29T12:14:29Z</time>
      </trkpt>
      <trkpt lat="40.428117" lon="-5.295133">
        <ele>2120.0</ele>
        <time>2018-07-29T12:14:30Z</time>
      </trkpt>
      <trkpt lat="40.428000" lon="-5.295183">
        <ele>2120.0</ele>
        <time>2018-07-29T12:14:31Z</time>
      </trkpt>
      <trkpt lat="40.427883" lon="-5.295233">
        <ele>2122.0</ele>
        <time>2018-07-29T12:14:32Z</time>
      </trkpt>
      <trkpt lat="40.427767" lon="-5.295267">
        <ele>2125.0</ele>
        <time>2018-07-29T12:14:33Z</time>
      </trkpt>
      <trkpt lat="40.427633" lon="-5.295250">
        <ele>2128.0</ele>
        <time>2018-07-29T12:14:34Z</time>
      </trkpt>
      <trkpt lat="40.427533" lon="-5.295217">
        <ele>2131.0</ele>
        <time>2018-07-29T12:14:35Z</time>
      </trkpt>
      <trkpt lat="40.427417" lon="-5.295167">
        <ele>2133.0</ele>
        <time>2018-07-29T12:14:36Z</time>
      </trkpt>
      <trkpt lat="40.427300" lon="-5.295117">
        <ele>2135.0</ele>
        <time>2018-07-29T12:14:37Z</time>
      </trkpt>
      <trkpt lat="40.427200" lon="-5.295050">
        <ele>2137.0</ele>
        <time>2018-07-29T12:14:38Z</time>
      </trkpt>
      <trkpt lat="40.427083" lon="-5.294967">
        <ele>2139.0</ele>
        <time>2018-07-29T12:14:39Z</time>
      </trkpt>
      <trkpt lat="40.426983" lon="-5.294850">
        <ele>2140.0</ele>
        <time>2018-07-29T12:14:40Z</time>
      </trkpt>
      <trkpt lat="40.426900" lon="-5.294700">
        <ele>2141.0</ele>
        <time>2018-07-29T12:14:41Z</time>
      </trkpt>
      <trkpt lat="40.426817" lon="-5.294517">
        <ele>2142.0</ele>
        <time>2018-07-29T12:14:42Z</time>
      </trkpt>
      <trkpt lat="40.426767" lon="-5.294333">
        <ele>2144.0</ele>
        <time>2018-07-29T12:14:43Z</time>
      </trkpt>
      <trkpt lat="40.426750" lon="-5.294150">
        <ele>2145.0</ele>
        <time>2018-07-29T12:14:44Z</time>
      </trkpt>
      <trkpt lat="40.426750" lon="-5.293967">
        <ele>2147.0</ele>
        <time>2018-07-29T12:14:45Z</time>
      </trkpt>
      <trkpt lat="40.426767" lon="-5.293783">
        <ele>2148.0</ele>
        <time>2018-07-29T12:14:46Z</time>
      </trkpt>
      <trkpt lat="40.426783" lon="-5.293617">
        <ele>2151.0</ele>
        <time>2018-07-29T12:14:47Z</time>
      </trkpt>
      <trkpt lat="40.426800" lon="-5.293467">
        <ele>2153.0</ele>
        <time>2018-07-29T12:14:48Z</time>
      </trkpt>
      <trkpt lat="40.426850" lon="-5.293333">
        <ele>2155.0</ele>
        <time>2018-07-29T12:14:49Z</time>
      </trkpt>
      <trkpt lat="40.426900" lon="-5.293200">
        <ele>2157.0</ele>
        <time>2018-07-29T12:14:50Z</time>
      </trkpt>
      <trkpt lat="40.426950" lon="-5.293100">
        <ele>2157.0</ele>
        <time>2018-07-29T12:14:51Z</time>
      </trkpt>
      <trkpt lat="40.427017" lon="-5.293000">
        <ele>2157.0</ele>
        <time>2018-07-29T12:14:52Z</time>
      </trkpt>
      <trkpt lat="40.427067" lon="-5.292917">
        <ele>2158.0</ele>
        <time>2018-07-29T12:14:53Z</time>
      </trkpt>
      <trkpt lat="40.427133" lon="-5.292833">
        <ele>2159.0</ele>
        <time>2018-07-29T12:14:54Z</time>
      </trkpt>
      <trkpt lat="40.427183" lon="-5.292783">
        <ele>2159.0</ele>
        <time>2018-07-29T12:14:55Z</time>
      </trkpt>
      <trkpt lat="40.427233" lon="-5.292750">
        <ele>2159.0</ele>
        <time>2018-07-29T12:14:56Z</time>
      </trkpt>
      <trkpt lat="40.427267" lon="-5.292750">
        <ele>2158.0</ele>
        <time>2018-07-29T12:14:57Z</time>
      </trkpt>
      <trkpt lat="40.427300" lon="-5.292750">
        <ele>2156.0</ele>
        <time>2018-07-29T12:14:58Z</time>
      </trkpt>
      <trkpt lat="40.427333" lon="-5.292767">
        <ele>2153.0</ele>
        <time>2018-07-29T12:14:59Z</time>
      </trkpt>
      <trkpt lat="40.427367" lon="-5.292783">
        <ele>2150.0</ele>
        <time>2018-07-29T12:15:00Z</time>
      </trkpt>
      <trkpt lat="40.427383" lon="-5.292800">
        <ele>2147.0</ele>
        <time>2018-07-29T12:15:01Z</time>
      </trkpt>
      <trkpt lat="40.427417" lon="-5.292850">
        <ele>2145.0</ele>
        <time>2018-07-29T12:15:02Z</time>
      </trkpt>
      <trkpt lat="40.427467" lon="-5.292883">
        <ele>2143.0</ele>
        <time>2018-07-29T12:15:03Z</time>
      </trkpt>
      <trkpt lat="40.427483" lon="-5.292933">
        <ele>2142.0</ele>
        <time>2018-07-29T12:15:04Z</time>
      </trkpt>
      <trkpt lat="40.427517" lon="-5.292983">
        <ele>2141.0</ele>
        <time>2018-07-29T12:15:05Z</time>
      </trkpt>
      <trkpt lat="40.427533" lon="-5.293033">
        <ele>2140.0</ele>
        <time>2018-07-29T12:15:06Z</time>
      </trkpt>
      <trkpt lat="40.427550" lon="-5.293083">
        <ele>2139.0</ele>
        <time>2018-07-29T12:15:07Z</time>
      </trkpt>
      <trkpt lat="40.427550" lon="-5.293167">
        <ele>2138.0</ele>
        <time>2018-07-29T12:15:08Z</time>
      </trkpt>
      <trkpt lat="40.427550" lon="-5.293250">
        <ele>2136.0</ele>
        <time>2018-07-29T12:15:09Z</time>
      </trkpt>
      <trkpt lat="40.427533" lon="-5.293333">
        <ele>2135.0</ele>
        <time>2018-07-29T12:15:10Z</time>
      </trkpt>
      <trkpt lat="40.427550" lon="-5.293417">
        <ele>2134.0</ele>
        <time>2018-07-29T12:15:11Z</time>
      </trkpt>
      <trkpt lat="40.427550" lon="-5.293483">
        <ele>2134.0</ele>
        <time>2018-07-29T12:15:12Z</time>
      </trkpt>
      <trkpt lat="40.427583" lon="-5.293533">
        <ele>2133.0</ele>
        <time>2018-07-29T12:15:13Z</time>
      </trkpt>
      <trkpt lat="40.427600" lon="-5.293567">
        <ele>2132.0</ele>
        <time>2018-07-29T12:15:14Z</time>
      </trkpt>
      <trkpt lat="40.427633" lon="-5.293600">
        <ele>2131.0</ele>
        <time>2018-07-29T12:15:15Z</time>
      </trkpt>
      <trkpt lat="40.427667" lon="-5.293650">
        <ele>2130.0</ele>
        <time>2018-07-29T12:15:16Z</time>
      </trkpt>
      <trkpt lat="40.427700" lon="-5.293700">
        <ele>2129.0</ele>
        <time>2018-07-29T12:15:17Z</time>
      </trkpt>
      <trkpt lat="40.427733" lon="-5.293750">
        <ele>2128.0</ele>
        <time>2018-07-29T12:15:18Z</time>
      </trkpt>
      <trkpt lat="40.427783" lon="-5.293783">
        <ele>2128.0</ele>
        <time>2018-07-29T12:15:19Z</time>
      </trkpt>
      <trkpt lat="40.427817" lon="-5.293800">
        <ele>2127.0</ele>
        <time>2018-07-29T12:15:20Z</time>
      </trkpt>
      <trkpt lat="40.427867" lon="-5.293833">
        <ele>2127.0</ele>
        <time>2018-07-29T12:15:21Z</time>
      </trkpt>
      <trkpt lat="40.427917" lon="-5.293850">
        <ele>2127.0</ele>
        <time>2018-07-29T12:15:22Z</time>
      </trkpt>
      <trkpt lat="40.427967" lon="-5.293867">
        <ele>2126.0</ele>
        <time>2018-07-29T12:15:23Z</time>
      </trkpt>
      <trkpt lat="40.428033" lon="-5.293883">
        <ele>2126.0</ele>
        <time>2018-07-29T12:15:24Z</time>
      </trkpt>
      <trkpt lat="40.428100" lon="-5.293900">
        <ele>2127.0</ele>
        <time>2018-07-29T12:15:25Z</time>
      </trkpt>
      <trkpt lat="40.428167" lon="-5.293917">
        <ele>2127.0</ele>
        <time>2018-07-29T12:15:26Z</time>
      </trkpt>
      <trkpt lat="40.428217" lon="-5.293933">
        <ele>2128.0</ele>
        <time>2018-07-29T12:15:27Z</time>
      </trkpt>
      <trkpt lat="40.428267" lon="-5.293950">
        <ele>2129.0</ele>
        <time>2018-07-29T12:15:28Z</time>
      </trkpt>
      <trkpt lat="40.428333" lon="-5.293950">
        <ele>2128.0</ele>
        <time>2018-07-29T12:15:29Z</time>
      </trkpt>
      <trkpt lat="40.428400" lon="-5.293933">
        <ele>2128.0</ele>
        <time>2018-07-29T12:15:30Z</time>
      </trkpt>
      <trkpt lat="40.428467" lon="-5.293917">
        <ele>2129.0</ele>
        <time>2018-07-29T12:15:31Z</time>
      </trkpt>
      <trkpt lat="40.428533" lon="-5.293883">
        <ele>2129.0</ele>
        <time>2018-07-29T12:15:32Z</time>
      </trkpt>
      <trkpt lat="40.428600" lon="-5.293850">
        <ele>2130.0</ele>
        <time>2018-07-29T12:15:33Z</time>
      </trkpt>
      <trkpt lat="40.428650" lon="-5.293833">
        <ele>2132.0</ele>
        <time>2018-07-29T12:15:34Z</time>
      </trkpt>
      <trkpt lat="40.428700" lon="-5.293833">
        <ele>2132.0</ele>
        <time>2018-07-29T12:15:35Z</time>
      </trkpt>
      <trkpt lat="40.428733" lon="-5.293883">
        <ele>2130.0</ele>
        <time>2018-07-29T12:15:36Z</time>
      </trkpt>
      <trkpt lat="40.428733" lon="-5.293967">
        <ele>2128.0</ele>
        <time>2018-07-29T12:15:37Z</time>
      </trkpt>
      <trkpt lat="40.428733" lon="-5.294067">
        <ele>2126.0</ele>
        <time>2018-07-29T12:15:38Z</time>
      </trkpt>
      <trkpt lat="40.428683" lon="-5.294167">
        <ele>2125.0</ele>
        <time>2018-07-29T12:15:39Z</time>
      </trkpt>
      <trkpt lat="40.428617" lon="-5.294250">
        <ele>2124.0</ele>
        <time>2018-07-29T12:15:40Z</time>
      </trkpt>
      <trkpt lat="40.428533" lon="-5.294317">
        <ele>2123.0</ele>
        <time>2018-07-29T12:15:41Z</time>
      </trkpt>
      <trkpt lat="40.428433" lon="-5.294367">
        <ele>2121.0</ele>
        <time>2018-07-29T12:15:42Z</time>
      </trkpt>
      <trkpt lat="40.428317" lon="-5.294383">
        <ele>2119.0</ele>
        <time>2018-07-29T12:15:43Z</time>
      </trkpt>
      <trkpt lat="40.428200" lon="-5.294383">
        <ele>2116.0</ele>
        <time>2018-07-29T12:15:44Z</time>
      </trkpt>
      <trkpt lat="40.428067" lon="-5.294350">
        <ele>2112.0</ele>
        <time>2018-07-29T12:15:45Z</time>
      </trkpt>
      <trkpt lat="40.427933" lon="-5.294267">
        <ele>2108.0</ele>
        <time>2018-07-29T12:15:46Z</time>
      </trkpt>
      <trkpt lat="40.427817" lon="-5.294133">
        <ele>2104.0</ele>
        <time>2018-07-29T12:15:47Z</time>
      </trkpt>
      <trkpt lat="40.427733" lon="-5.293983">
        <ele>2101.0</ele>
        <time>2018-07-29T12:15:48Z</time>
      </trkpt>
      <trkpt lat="40.427683" lon="-5.293800">
        <ele>2098.0</ele>
        <time>2018-07-29T12:15:49Z</time>
      </trkpt>
      <trkpt lat="40.427667" lon="-5.293617">
        <ele>2097.0</ele>
        <time>2018-07-29T12:15:50Z</time>
      </trkpt>
      <trkpt lat="40.427667" lon="-5.293467">
        <ele>2097.0</ele>
        <time>2018-07-29T12:15:51Z</time>
      </trkpt>
      <trkpt lat="40.427667" lon="-5.293333">
        <ele>2097.0</ele>
        <time>2018-07-29T12:15:52Z</time>
      </trkpt>
      <trkpt lat="40.427683" lon="-5.293200">
        <ele>2097.0</ele>
        <time>2018-07-29T12:15:53Z</time>
      </trkpt>
      <trkpt lat="40.427733" lon="-5.293100">
        <ele>2096.0</ele>
        <time>2018-07-29T12:15:54Z</time>
      </trkpt>
      <trkpt lat="40.427783" lon="-5.293017">
        <ele>2095.0</ele>
        <time>2018-07-29T12:15:55Z</time>
      </trkpt>
      <trkpt lat="40.427833" lon="-5.292950">
        <ele>2095.0</ele>
        <time>2018-07-29T12:15:56Z</time>
      </trkpt>
      <trkpt lat="40.427917" lon="-5.292883">
        <ele>2094.0</ele>
        <time>2018-07-29T12:15:57Z</time>
      </trkpt>
      <trkpt lat="40.427983" lon="-5.292833">
        <ele>2095.0</ele>
        <time>2018-07-29T12:15:58Z</time>
      </trkpt>
      <trkpt lat="40.428050" lon="-5.292783">
        <ele>2096.0</ele>
        <time>2018-07-29T12:15:59Z</time>
      </trkpt>
      <trkpt lat="40.428117" lon="-5.292733">
        <ele>2098.0</ele>
        <time>2018-07-29T12:16:00Z</time>
      </trkpt>
      <trkpt lat="40.428167" lon="-5.292683">
        <ele>2099.0</ele>
        <time>2018-07-29T12:16:01Z</time>
      </trkpt>
      <trkpt lat="40.428233" lon="-5.292617">
        <ele>2100.0</ele>
        <time>2018-07-29T12:16:02Z</time>
      </trkpt>
      <trkpt lat="40.428283" lon="-5.292567">
        <ele>2101.0</ele>
        <time>2018-07-29T12:16:03Z</time>
      </trkpt>
      <trkpt lat="40.428350" lon="-5.292500">
        <ele>2102.0</ele>
        <time>2018-07-29T12:16:04Z</time>
      </trkpt>
      <trkpt lat="40.428417" lon="-5.292417">
        <ele>2102.0</ele>
        <time>2018-07-29T12:16:05Z</time>
      </trkpt>
      <trkpt lat="40.428483" lon="-5.292333">
        <ele>2103.0</ele>
        <time>2018-07-29T12:16:06Z</time>
      </trkpt>
      <trkpt lat="40.428550" lon="-5.292250">
        <ele>2104.0</ele>
        <time>2018-07-29T12:16:07Z</time>
      </trkpt>
      <trkpt lat="40.428600" lon="-5.292167">
        <ele>2106.0</ele>
        <time>2018-07-29T12:16:08Z</time>
      </trkpt>
      <trkpt lat="40.428667" lon="-5.292083">
        <ele>2106.0</ele>
        <time>2018-07-29T12:16:09Z</time>
      </trkpt>
      <trkpt lat="40.428733" lon="-5.292017">
        <ele>2107.0</ele>
        <time>2018-07-29T12:16:10Z</time>
      </trkpt>
      <trkpt lat="40.428800" lon="-5.291933">
        <ele>2108.0</ele>
        <time>2018-07-29T12:16:11Z</time>
      </trkpt>
      <trkpt lat="40.428867" lon="-5.291867">
        <ele>2108.0</ele>
        <time>2018-07-29T12:16:12Z</time>
      </trkpt>
      <trkpt lat="40.428933" lon="-5.291817">
        <ele>2108.0</ele>
        <time>2018-07-29T12:16:13Z</time>
      </trkpt>
      <trkpt lat="40.429017" lon="-5.291767">
        <ele>2109.0</ele>
        <time>2018-07-29T12:16:14Z</time>
      </trkpt>
      <trkpt lat="40.429083" lon="-5.291700">
        <ele>2110.0</ele>
        <time>2018-07-29T12:16:15Z</time>
      </trkpt>
      <trkpt lat="40.429167" lon="-5.291633">
        <ele>2110.0</ele>
        <time>2018-07-29T12:16:16Z</time>
      </trkpt>
      <trkpt lat="40.429233" lon="-5.291550">
        <ele>2111.0</ele>
        <time>2018-07-29T12:16:17Z</time>
      </trkpt>
      <trkpt lat="40.429283" lon="-5.291450">
        <ele>2111.0</ele>
        <time>2018-07-29T12:16:18Z</time>
      </trkpt>
      <trkpt lat="40.429333" lon="-5.291333">
        <ele>2111.0</ele>
        <time>2018-07-29T12:16:19Z</time>
      </trkpt>
      <trkpt lat="40.429383" lon="-5.291217">
        <ele>2111.0</ele>
        <time>2018-07-29T12:16:20Z</time>
      </trkpt>
      <trkpt lat="40.429450" lon="-5.291100">
        <ele>2111.0</ele>
        <time>2018-07-29T12:16:21Z</time>
      </trkpt>
      <trkpt lat="40.429517" lon="-5.291000">
        <ele>2112.0</ele>
        <time>2018-07-29T12:16:22Z</time>
      </trkpt>
      <trkpt lat="40.429600" lon="-5.290917">
        <ele>2112.0</ele>
        <time>2018-07-29T12:16:23Z</time>
      </trkpt>
      <trkpt lat="40.429650" lon="-5.290833">
        <ele>2111.0</ele>
        <time>2018-07-29T12:16:24Z</time>
      </trkpt>
      <trkpt lat="40.429700" lon="-5.290750">
        <ele>2110.0</ele>
        <time>2018-07-29T12:16:25Z</time>
      </trkpt>
      <trkpt lat="40.429750" lon="-5.290650">
        <ele>2107.0</ele>
        <time>2018-07-29T12:16:26Z</time>
      </trkpt>
      <trkpt lat="40.429800" lon="-5.290550">
        <ele>2104.0</ele>
        <time>2018-07-29T12:16:27Z</time>
      </trkpt>
      <trkpt lat="40.429867" lon="-5.290467">
        <ele>2100.0</ele>
        <time>2018-07-29T12:16:28Z</time>
      </trkpt>
      <trkpt lat="40.429933" lon="-5.290367">
        <ele>2097.0</ele>
        <time>2018-07-29T12:16:29Z</time>
      </trkpt>
      <trkpt lat="40.430000" lon="-5.290283">
        <ele>2095.0</ele>
        <time>2018-07-29T12:16:30Z</time>
      </trkpt>
      <trkpt lat="40.430067" lon="-5.290233">
        <ele>2093.0</ele>
        <time>2018-07-29T12:16:31Z</time>
      </trkpt>
      <trkpt lat="40.430133" lon="-5.290200">
        <ele>2090.0</ele>
        <time>2018-07-29T12:16:32Z</time>
      </trkpt>
      <trkpt lat="40.430200" lon="-5.290150">
        <ele>2087.0</ele>
        <time>2018-07-29T12:16:33Z</time>
      </trkpt>
      <trkpt lat="40.430267" lon="-5.290117">
        <ele>2083.0</ele>
        <time>2018-07-29T12:16:34Z</time>
      </trkpt>
      <trkpt lat="40.430350" lon="-5.290067">
        <ele>2080.0</ele>
        <time>2018-07-29T12:16:35Z</time>
      </trkpt>
      <trkpt lat="40.430433" lon="-5.290033">
        <ele>2078.0</ele>
        <time>2018-07-29T12:16:36Z</time>
      </trkpt>
      <trkpt lat="40.430517" lon="-5.290000">
        <ele>2077.0</ele>
        <time>2018-07-29T12:16:37Z</time>
      </trkpt>
      <trkpt lat="40.430567" lon="-5.289983">
        <ele>2075.0</ele>
        <time>2018-07-29T12:16:38Z</time>
      </trkpt>
      <trkpt lat="40.430633" lon="-5.289950">
        <ele>2072.0</ele>
        <time>2018-07-29T12:16:39Z</time>
      </trkpt>
      <trkpt lat="40.430700" lon="-5.289917">
        <ele>2069.0</ele>
        <time>2018-07-29T12:16:40Z</time>
      </trkpt>
      <trkpt lat="40.430783" lon="-5.289867">
        <ele>2066.0</ele>
        <time>2018-07-29T12:16:41Z</time>
      </trkpt>
      <trkpt lat="40.430850" lon="-5.289833">
        <ele>2063.0</ele>
        <time>2018-07-29T12:16:42Z</time>
      </trkpt>
      <trkpt lat="40.430933" lon="-5.289817">
        <ele>2060.0</ele>
        <time>2018-07-29T12:16:43Z</time>
      </trkpt>
      <trkpt lat="40.431000" lon="-5.289783">
        <ele>2058.0</ele>
        <time>2018-07-29T12:16:44Z</time>
      </trkpt>
      <trkpt lat="40.431083" lon="-5.289750">
        <ele>2055.0</ele>
        <time>2018-07-29T12:16:45Z</time>
      </trkpt>
      <trkpt lat="40.431183" lon="-5.289700">
        <ele>2053.0</ele>
        <time>2018-07-29T12:16:46Z</time>
      </trkpt>
      <trkpt lat="40.431267" lon="-5.289667">
        <ele>2052.0</ele>
        <time>2018-07-29T12:16:47Z</time>
      </trkpt>
      <trkpt lat="40.431350" lon="-5.289650">
        <ele>2051.0</ele>
        <time>2018-07-29T12:16:48Z</time>
      </trkpt>
      <trkpt lat="40.431433" lon="-5.289617">
        <ele>2051.0</ele>
        <time>2018-07-29T12:16:49Z</time>
      </trkpt>
      <trkpt lat="40.431500" lon="-5.289583">
        <ele>2051.0</ele>
        <time>2018-07-29T12:16:50Z</time>
      </trkpt>
      <trkpt lat="40.431567" lon="-5.289533">
        <ele>2049.0</ele>
        <time>2018-07-29T12:16:51Z</time>
      </trkpt>
      <trkpt lat="40.431650" lon="-5.289483">
        <ele>2047.0</ele>
        <time>2018-07-29T12:16:52Z</time>
      </trkpt>
      <trkpt lat="40.431733" lon="-5.289433">
        <ele>2045.0</ele>
        <time>2018-07-29T12:16:53Z</time>
      </trkpt>
      <trkpt lat="40.431817" lon="-5.289383">
        <ele>2043.0</ele>
        <time>2018-07-29T12:16:54Z</time>
      </trkpt>
      <trkpt lat="40.431900" lon="-5.289350">
        <ele>2042.0</ele>
        <time>2018-07-29T12:16:55Z</time>
      </trkpt>
      <trkpt lat="40.431983" lon="-5.289300">
        <ele>2041.0</ele>
        <time>2018-07-29T12:16:56Z</time>
      </trkpt>
      <trkpt lat="40.432050" lon="-5.289267">
        <ele>2041.0</ele>
        <time>2018-07-29T12:16:57Z</time>
      </trkpt>
      <trkpt lat="40.432133" lon="-5.289217">
        <ele>2040.0</ele>
        <time>2018-07-29T12:16:58Z</time>
      </trkpt>
      <trkpt lat="40.432200" lon="-5.289150">
        <ele>2038.0</ele>
        <time>2018-07-29T12:16:59Z</time>
      </trkpt>
      <trkpt lat="40.432283" lon="-5.289100">
        <ele>2035.0</ele>
        <time>2018-07-29T12:17:00Z</time>
      </trkpt>
      <trkpt lat="40.432367" lon="-5.289050">
        <ele>2032.0</ele>
        <time>2018-07-29T12:17:01Z</time>
      </trkpt>
      <trkpt lat="40.432467" lon="-5.289000">
        <ele>2030.0</ele>
        <time>2018-07-29T12:17:02Z</time>
      </trkpt>
      <trkpt lat="40.432550" lon="-5.288950">
        <ele>2029.0</ele>
        <time>2018-07-29T12:17:03Z</time>
      </trkpt>
      <trkpt lat="40.432633" lon="-5.288917">
        <ele>2029.0</ele>
        <time>2018-07-29T12:17:04Z</time>
      </trkpt>
      <trkpt lat="40.432700" lon="-5.288883">
        <ele>2028.0</ele>
        <time>2018-07-29T12:17:05Z</time>
      </trkpt>
      <trkpt lat="40.432750" lon="-5.288883">
        <ele>2027.0</ele>
        <time>2018-07-29T12:17:06Z</time>
      </trkpt>
      <trkpt lat="40.432817" lon="-5.288867">
        <ele>2026.0</ele>
        <time>2018-07-29T12:17:07Z</time>
      </trkpt>
      <trkpt lat="40.432867" lon="-5.288867">
        <ele>2024.0</ele>
        <time>2018-07-29T12:17:08Z</time>
      </trkpt>
      <trkpt lat="40.432900" lon="-5.288850">
        <ele>2022.0</ele>
        <time>2018-07-29T12:17:09Z</time>
      </trkpt>
      <trkpt lat="40.432950" lon="-5.288850">
        <ele>2020.0</ele>
        <time>2018-07-29T12:17:10Z</time>
      </trkpt>
      <trkpt lat="40.433000" lon="-5.288867">
        <ele>2019.0</ele>
        <time>2018-07-29T12:17:11Z</time>
      </trkpt>
      <trkpt lat="40.433033" lon="-5.288883">
        <ele>2018.0</ele>
        <time>2018-07-29T12:17:12Z</time>
      </trkpt>
      <trkpt lat="40.433067" lon="-5.288900">
        <ele>2018.0</ele>
        <time>2018-07-29T12:17:13Z</time>
      </trkpt>
      <trkpt lat="40.433100" lon="-5.288917">
        <ele>2017.0</ele>
        <time>2018-07-29T12:17:14Z</time>
      </trkpt>
      <trkpt lat="40.433150" lon="-5.288933">
        <ele>2016.0</ele>
        <time>2018-07-29T12:17:15Z</time>
      </trkpt>
      <trkpt lat="40.433200" lon="-5.288933">
        <ele>2015.0</ele>
        <time>2018-07-29T12:17:16Z</time>
      </trkpt>
      <trkpt lat="40.433267" lon="-5.288933">
        <ele>2015.0</ele>
        <time>2018-07-29T12:17:17Z</time>
      </trkpt>
      <trkpt lat="40.433350" lon="-5.288933">
        <ele>2015.0</ele>
        <time>2018-07-29T12:17:18Z</time>
      </trkpt>
      <trkpt lat="40.433417" lon="-5.288917">
        <ele>2016.0</ele>
        <time>2018-07-29T12:17:19Z</time>
      </trkpt>
      <trkpt lat="40.433483" lon="-5.288883">
        <ele>2017.0</ele>
        <time>2018-07-29T12:17:20Z</time>
      </trkpt>
      <trkpt lat="40.433533" lon="-5.288850">
        <ele>2018.0</ele>
        <time>2018-07-29T12:17:21Z</time>
      </trkpt>
      <trkpt lat="40.433583" lon="-5.288817">
        <ele>2017.0</ele>
        <time>2018-07-29T12:17:22Z</time>
      </trkpt>
      <trkpt lat="40.433633" lon="-5.288783">
        <ele>2016.0</ele>
        <time>2018-07-29T12:17:23Z</time>
      </trkpt>
      <trkpt lat="40.433717" lon="-5.288733">
        <ele>2015.0</ele>
        <time>2018-07-29T12:17:24Z</time>
      </trkpt>
      <trkpt lat="40.433783" lon="-5.288700">
        <ele>2014.0</ele>
        <time>2018-07-29T12:17:25Z</time>
      </trkpt>
      <trkpt lat="40.433867" lon="-5.288650">
        <ele>2014.0</ele>
        <time>2018-07-29T12:17:26Z</time>
      </trkpt>
      <trkpt lat="40.433950" lon="-5.288617">
        <ele>2013.0</ele>
        <time>2018-07-29T12:17:27Z</time>
      </trkpt>
      <trkpt lat="40.434033" lon="-5.288583">
        <ele>2013.0</ele>
        <time>2018-07-29T12:17:28Z</time>
      </trkpt>
      <trkpt lat="40.434100" lon="-5.288533">
        <ele>2012.0</ele>
        <time>2018-07-29T12:17:29Z</time>
      </trkpt>
      <trkpt lat="40.434183" lon="-5.288483">
        <ele>2012.0</ele>
        <time>2018-07-29T12:17:30Z</time>
      </trkpt>
      <trkpt lat="40.434267" lon="-5.288417">
        <ele>2013.0</ele>
        <time>2018-07-29T12:17:31Z</time>
      </trkpt>
      <trkpt lat="40.434333" lon="-5.288333">
        <ele>2015.0</ele>
        <time>2018-07-29T12:17:32Z</time>
      </trkpt>
      <trkpt lat="40.434400" lon="-5.288250">
        <ele>2017.0</ele>
        <time>2018-07-29T12:17:33Z</time>
      </trkpt>
      <trkpt lat="40.434467" lon="-5.288167">
        <ele>2019.0</ele>
        <time>2018-07-29T12:17:34Z</time>
      </trkpt>
      <trkpt lat="40.434517" lon="-5.288083">
        <ele>2021.0</ele>
        <time>2018-07-29T12:17:35Z</time>
      </trkpt>
      <trkpt lat="40.434567" lon="-5.288033">
        <ele>2023.0</ele>
        <time>2018-07-29T12:17:36Z</time>
      </trkpt>
      <trkpt lat="40.434633" lon="-5.288000">
        <ele>2025.0</ele>
        <time>2018-07-29T12:17:37Z</time>
      </trkpt>
      <trkpt lat="40.434683" lon="-5.288000">
        <ele>2027.0</ele>
        <time>2018-07-29T12:17:38Z</time>
      </trkpt>
      <trkpt lat="40.434717" lon="-5.288033">
        <ele>2030.0</ele>
        <time>2018-07-29T12:17:39Z</time>
      </trkpt>
      <trkpt lat="40.434700" lon="-5.288100">
        <ele>2033.0</ele>
        <time>2018-07-29T12:17:40Z</time>
      </trkpt>
      <trkpt lat="40.434650" lon="-5.288133">
        <ele>2035.0</ele>
        <time>2018-07-29T12:17:41Z</time>
      </trkpt>
      <trkpt lat="40.434567" lon="-5.288167">
        <ele>2037.0</ele>
        <time>2018-07-29T12:17:42Z</time>
      </trkpt>
      <trkpt lat="40.434450" lon="-5.288183">
        <ele>2038.0</ele>
        <time>2018-07-29T12:17:43Z</time>
      </trkpt>
      <trkpt lat="40.434333" lon="-5.288167">
        <ele>2039.0</ele>
        <time>2018-07-29T12:17:44Z</time>
      </trkpt>
      <trkpt lat="40.434200" lon="-5.288100">
        <ele>2041.0</ele>
        <time>2018-07-29T12:17:45Z</time>
      </trkpt>
      <trkpt lat="40.434083" lon="-5.287967">
        <ele>2041.0</ele>
        <time>2018-07-29T12:17:46Z</time>
      </trkpt>
      <trkpt lat="40.434000" lon="-5.287783">
        <ele>2042.0</ele>
        <time>2018-07-29T12:17:47Z</time>
      </trkpt>
      <trkpt lat="40.433967" lon="-5.287583">
        <ele>2042.0</ele>
        <time>2018-07-29T12:17:48Z</time>
      </trkpt>
      <trkpt lat="40.433967" lon="-5.287383">
        <ele>2043.0</ele>
        <time>2018-07-29T12:17:49Z</time>
      </trkpt>
      <trkpt lat="40.434000" lon="-5.287200">
        <ele>2044.0</ele>
        <time>2018-07-29T12:17:50Z</time>
      </trkpt>
      <trkpt lat="40.434050" lon="-5.287050">
        <ele>2045.0</ele>
        <time>2018-07-29T12:17:51Z</time>
      </trkpt>
      <trkpt lat="40.434117" lon="-5.286950">
        <ele>2049.0</ele>
        <time>2018-07-29T12:17:52Z</time>
      </trkpt>
      <trkpt lat="40.434167" lon="-5.286867">
        <ele>2053.0</ele>
        <time>2018-07-29T12:17:53Z</time>
      </trkpt>
      <trkpt lat="40.434200" lon="-5.286817">
        <ele>2056.0</ele>
        <time>2018-07-29T12:17:54Z</time>
      </trkpt>
      <trkpt lat="40.434250" lon="-5.286767">
        <ele>2058.0</ele>
        <time>2018-07-29T12:17:55Z</time>
      </trkpt>
      <trkpt lat="40.434300" lon="-5.286717">
        <ele>2061.0</ele>
        <time>2018-07-29T12:17:56Z</time>
      </trkpt>
      <trkpt lat="40.434350" lon="-5.286667">
        <ele>2063.0</ele>
        <time>2018-07-29T12:17:57Z</time>
      </trkpt>
      <trkpt lat="40.434417" lon="-5.286650">
        <ele>2066.0</ele>
        <time>2018-07-29T12:17:58Z</time>
      </trkpt>
      <trkpt lat="40.434483" lon="-5.286633">
        <ele>2069.0</ele>
        <time>2018-07-29T12:17:59Z</time>
      </trkpt>
      <trkpt lat="40.434533" lon="-5.286650">
        <ele>2073.0</ele>
        <time>2018-07-29T12:18:00Z</time>
      </trkpt>
      <trkpt lat="40.434583" lon="-5.286667">
        <ele>2076.0</ele>
        <time>2018-07-29T12:18:01Z</time>
      </trkpt>
      <trkpt lat="40.434600" lon="-5.286717">
        <ele>2079.0</ele>
        <time>2018-07-29T12:18:02Z</time>
      </trkpt>
      <trkpt lat="40.434600" lon="-5.286767">
        <ele>2082.0</ele>
        <time>2018-07-29T12:18:03Z</time>
      </trkpt>
      <trkpt lat="40.434583" lon="-5.286817">
        <ele>2086.0</ele>
        <time>2018-07-29T12:18:04Z</time>
      </trkpt>
      <trkpt lat="40.434567" lon="-5.286833">
        <ele>2090.0</ele>
        <time>2018-07-29T12:18:05Z</time>
      </trkpt>
      <trkpt lat="40.434533" lon="-5.286833">
        <ele>2091.0</ele>
        <time>2018-07-29T12:18:06Z</time>
      </trkpt>
      <trkpt lat="40.434500" lon="-5.286850">
        <ele>2091.0</ele>
        <time>2018-07-29T12:18:07Z</time>
      </trkpt>
      <trkpt lat="40.434450" lon="-5.286867">
        <ele>2091.0</ele>
        <time>2018-07-29T12:18:08Z</time>
      </trkpt>
      <trkpt lat="40.434400" lon="-5.286917">
        <ele>2090.0</ele>
        <time>2018-07-29T12:18:09Z</time>
      </trkpt>
      <trkpt lat="40.434333" lon="-5.286950">
        <ele>2091.0</ele>
        <time>2018-07-29T12:18:10Z</time>
      </trkpt>
      <trkpt lat="40.434250" lon="-5.286950">
        <ele>2091.0</ele>
        <time>2018-07-29T12:18:11Z</time>
      </trkpt>
      <trkpt lat="40.434150" lon="-5.286917">
        <ele>2091.0</ele>
        <time>2018-07-29T12:18:12Z</time>
      </trkpt>
      <trkpt lat="40.434033" lon="-5.286867">
        <ele>2090.0</ele>
        <time>2018-07-29T12:18:13Z</time>
      </trkpt>
      <trkpt lat="40.433917" lon="-5.286783">
        <ele>2090.0</ele>
        <time>2018-07-29T12:18:14Z</time>
      </trkpt>
      <trkpt lat="40.433800" lon="-5.286683">
        <ele>2090.0</ele>
        <time>2018-07-29T12:18:15Z</time>
      </trkpt>
      <trkpt lat="40.433683" lon="-5.286567">
        <ele>2090.0</ele>
        <time>2018-07-29T12:18:16Z</time>
      </trkpt>
      <trkpt lat="40.433583" lon="-5.286400">
        <ele>2092.0</ele>
        <time>2018-07-29T12:18:17Z</time>
      </trkpt>
      <trkpt lat="40.433500" lon="-5.286217">
        <ele>2093.0</ele>
        <time>2018-07-29T12:18:18Z</time>
      </trkpt>
      <trkpt lat="40.433483" lon="-5.286017">
        <ele>2094.0</ele>
        <time>2018-07-29T12:18:19Z</time>
      </trkpt>
      <trkpt lat="40.433483" lon="-5.285850">
        <ele>2094.0</ele>
        <time>2018-07-29T12:18:20Z</time>
      </trkpt>
      <trkpt lat="40.433517" lon="-5.285683">
        <ele>2095.0</ele>
        <time>2018-07-29T12:18:21Z</time>
      </trkpt>
      <trkpt lat="40.433567" lon="-5.285533">
        <ele>2097.0</ele>
        <time>2018-07-29T12:18:22Z</time>
      </trkpt>
      <trkpt lat="40.433617" lon="-5.285433">
        <ele>2100.0</ele>
        <time>2018-07-29T12:18:23Z</time>
      </trkpt>
      <trkpt lat="40.433650" lon="-5.285333">
        <ele>2103.0</ele>
        <time>2018-07-29T12:18:24Z</time>
      </trkpt>
      <trkpt lat="40.433683" lon="-5.285267">
        <ele>2105.0</ele>
        <time>2018-07-29T12:18:25Z</time>
      </trkpt>
      <trkpt lat="40.433717" lon="-5.285200">
        <ele>2106.0</ele>
        <time>2018-07-29T12:18:26Z</time>
      </trkpt>
      <trkpt lat="40.433767" lon="-5.285167">
        <ele>2107.0</ele>
        <time>2018-07-29T12:18:27Z</time>
      </trkpt>
      <trkpt lat="40.433817" lon="-5.285167">
        <ele>2107.0</ele>
        <time>2018-07-29T12:18:28Z</time>
      </trkpt>
      <trkpt lat="40.433867" lon="-5.285183">
        <ele>2109.0</ele>
        <time>2018-07-29T12:18:29Z</time>
      </trkpt>
      <trkpt lat="40.433917" lon="-5.285200">
        <ele>2113.0</ele>
        <time>2018-07-29T12:18:30Z</time>
      </trkpt>
      <trkpt lat="40.433950" lon="-5.285217">
        <ele>2116.0</ele>
        <time>2018-07-29T12:18:31Z</time>
      </trkpt>
      <trkpt lat="40.433967" lon="-5.285217">
        <ele>2118.0</ele>
        <time>2018-07-29T12:18:32Z</time>
      </trkpt>
      <trkpt lat="40.433967" lon="-5.285233">
        <ele>2118.0</ele>
        <time>2018-07-29T12:18:33Z</time>
      </trkpt>
      <trkpt lat="40.433967" lon="-5.285283">
        <ele>2116.0</ele>
        <time>2018-07-29T12:18:34Z</time>
      </trkpt>
      <trkpt lat="40.433933" lon="-5.285333">
        <ele>2116.0</ele>
        <time>2018-07-29T12:18:35Z</time>
      </trkpt>
      <trkpt lat="40.433867" lon="-5.285383">
        <ele>2116.0</ele>
        <time>2018-07-29T12:18:36Z</time>
      </trkpt>
      <trkpt lat="40.433783" lon="-5.285417">
        <ele>2119.0</ele>
        <time>2018-07-29T12:18:37Z</time>
      </trkpt>
      <trkpt lat="40.433667" lon="-5.285417">
        <ele>2121.0</ele>
        <time>2018-07-29T12:18:38Z</time>
      </trkpt>
      <trkpt lat="40.433567" lon="-5.285383">
        <ele>2123.0</ele>
        <time>2018-07-29T12:18:39Z</time>
      </trkpt>
      <trkpt lat="40.433450" lon="-5.285317">
        <ele>2125.0</ele>
        <time>2018-07-29T12:18:40Z</time>
      </trkpt>
      <trkpt lat="40.433350" lon="-5.285200">
        <ele>2124.0</ele>
        <time>2018-07-29T12:18:41Z</time>
      </trkpt>
      <trkpt lat="40.433250" lon="-5.285050">
        <ele>2123.0</ele>
        <time>2018-07-29T12:18:42Z</time>
      </trkpt>
      <trkpt lat="40.433150" lon="-5.284867">
        <ele>2124.0</ele>
        <time>2018-07-29T12:18:43Z</time>
      </trkpt>
      <trkpt lat="40.433083" lon="-5.284667">
        <ele>2125.0</ele>
        <time>2018-07-29T12:18:44Z</time>
      </trkpt>
      <trkpt lat="40.433050" lon="-5.284467">
        <ele>2127.0</ele>
        <time>2018-07-29T12:18:45Z</time>
      </trkpt>
      <trkpt lat="40.433050" lon="-5.284267">
        <ele>2129.0</ele>
        <time>2018-07-29T12:18:46Z</time>
      </trkpt>
      <trkpt lat="40.433083" lon="-5.284117">
        <ele>2131.0</ele>
        <time>2018-07-29T12:18:47Z</time>
      </trkpt>
      <trkpt lat="40.433117" lon="-5.284000">
        <ele>2132.0</ele>
        <time>2018-07-29T12:18:48Z</time>
      </trkpt>
      <trkpt lat="40.433167" lon="-5.283917">
        <ele>2132.0</ele>
        <time>2018-07-29T12:18:49Z</time>
      </trkpt>
      <trkpt lat="40.433233" lon="-5.283850">
        <ele>2132.0</ele>
        <time>2018-07-29T12:18:50Z</time>
      </trkpt>
      <trkpt lat="40.433317" lon="-5.283800">
        <ele>2134.0</ele>
        <time>2018-07-29T12:18:51Z</time>
      </trkpt>
      <trkpt lat="40.433383" lon="-5.283767">
        <ele>2138.0</ele>
        <time>2018-07-29T12:18:52Z</time>
      </trkpt>
      <trkpt lat="40.433450" lon="-5.283767">
        <ele>2143.0</ele>
        <time>2018-07-29T12:18:53Z</time>
      </trkpt>
      <trkpt lat="40.433517" lon="-5.283750">
        <ele>2146.0</ele>
        <time>2018-07-29T12:18:54Z</time>
      </trkpt>
      <trkpt lat="40.433567" lon="-5.283750">
        <ele>2147.0</ele>
        <time>2018-07-29T12:18:55Z</time>
      </trkpt>
      <trkpt lat="40.433583" lon="-5.283733">
        <ele>2147.0</ele>
        <time>2018-07-29T12:18:56Z</time>
      </trkpt>
      <trkpt lat="40.433617" lon="-5.283700">
        <ele>2145.0</ele>
        <time>2018-07-29T12:18:57Z</time>
      </trkpt>
      <trkpt lat="40.433667" lon="-5.283683">
        <ele>2142.0</ele>
        <time>2018-07-29T12:18:58Z</time>
      </trkpt>
      <trkpt lat="40.433700" lon="-5.283683">
        <ele>2138.0</ele>
        <time>2018-07-29T12:18:59Z</time>
      </trkpt>
      <trkpt lat="40.433733" lon="-5.283700">
        <ele>2135.0</ele>
        <time>2018-07-29T12:19:00Z</time>
      </trkpt>
      <trkpt lat="40.433750" lon="-5.283750">
        <ele>2133.0</ele>
        <time>2018-07-29T12:19:01Z</time>
      </trkpt>
      <trkpt lat="40.433750" lon="-5.283800">
        <ele>2131.0</ele>
        <time>2018-07-29T12:19:02Z</time>
      </trkpt>
      <trkpt lat="40.433750" lon="-5.283833">
        <ele>2131.0</ele>
        <time>2018-07-29T12:19:03Z</time>
      </trkpt>
      <trkpt lat="40.433767" lon="-5.283850">
        <ele>2129.0</ele>
        <time>2018-07-29T12:19:04Z</time>
      </trkpt>
      <trkpt lat="40.433800" lon="-5.283867">
        <ele>2127.0</ele>
        <time>2018-07-29T12:19:05Z</time>
      </trkpt>
      <trkpt lat="40.433833" lon="-5.283900">
        <ele>2124.0</ele>
        <time>2018-07-29T12:19:06Z</time>
      </trkpt>
      <trkpt lat="40.433867" lon="-5.283933">
        <ele>2121.0</ele>
        <time>2018-07-29T12:19:07Z</time>
      </trkpt>
      <trkpt lat="40.433917" lon="-5.283950">
        <ele>2118.0</ele>
        <time>2018-07-29T12:19:08Z</time>
      </trkpt>
      <trkpt lat="40.433983" lon="-5.283967">
        <ele>2115.0</ele>
        <time>2018-07-29T12:19:09Z</time>
      </trkpt>
      <trkpt lat="40.434050" lon="-5.283967">
        <ele>2112.0</ele>
        <time>2018-07-29T12:19:10Z</time>
      </trkpt>
      <trkpt lat="40.434133" lon="-5.283950">
        <ele>2110.0</ele>
        <time>2018-07-29T12:19:11Z</time>
      </trkpt>
      <trkpt lat="40.434200" lon="-5.283950">
        <ele>2109.0</ele>
        <time>2018-07-29T12:19:12Z</time>
      </trkpt>
      <trkpt lat="40.434250" lon="-5.283967">
        <ele>2107.0</ele>
        <time>2018-07-29T12:19:13Z</time>
      </trkpt>
      <trkpt lat="40.434283" lon="-5.283983">
        <ele>2106.0</ele>
        <time>2018-07-29T12:19:14Z</time>
      </trkpt>
      <trkpt lat="40.434333" lon="-5.284000">
        <ele>2103.0</ele>
        <time>2018-07-29T12:19:15Z</time>
      </trkpt>
      <trkpt lat="40.434367" lon="-5.284017">
        <ele>2101.0</ele>
        <time>2018-07-29T12:19:16Z</time>
      </trkpt>
      <trkpt lat="40.434417" lon="-5.284050">
        <ele>2099.0</ele>
        <time>2018-07-29T12:19:17Z</time>
      </trkpt>
      <trkpt lat="40.434467" lon="-5.284083">
        <ele>2097.0</ele>
        <time>2018-07-29T12:19:18Z</time>
      </trkpt>
      <trkpt lat="40.434517" lon="-5.284117">
        <ele>2097.0</ele>
        <time>2018-07-29T12:19:19Z</time>
      </trkpt>
      <trkpt lat="40.434550" lon="-5.284150">
        <ele>2096.0</ele>
        <time>2018-07-29T12:19:20Z</time>
      </trkpt>
      <trkpt lat="40.434600" lon="-5.284183">
        <ele>2095.0</ele>
        <time>2018-07-29T12:19:21Z</time>
      </trkpt>
      <trkpt lat="40.434650" lon="-5.284200">
        <ele>2095.0</ele>
        <time>2018-07-29T12:19:22Z</time>
      </trkpt>
      <trkpt lat="40.434700" lon="-5.284217">
        <ele>2094.0</ele>
        <time>2018-07-29T12:19:23Z</time>
      </trkpt>
      <trkpt lat="40.434767" lon="-5.284200">
        <ele>2093.0</ele>
        <time>2018-07-29T12:19:24Z</time>
      </trkpt>
      <trkpt lat="40.434833" lon="-5.284183">
        <ele>2092.0</ele>
        <time>2018-07-29T12:19:25Z</time>
      </trkpt>
      <trkpt lat="40.434900" lon="-5.284150">
        <ele>2091.0</ele>
        <time>2018-07-29T12:19:26Z</time>
      </trkpt>
      <trkpt lat="40.434967" lon="-5.284117">
        <ele>2091.0</ele>
        <time>2018-07-29T12:19:27Z</time>
      </trkpt>
      <trkpt lat="40.435033" lon="-5.284100">
        <ele>2090.0</ele>
        <time>2018-07-29T12:19:28Z</time>
      </trkpt>
      <trkpt lat="40.435100" lon="-5.284100">
        <ele>2089.0</ele>
        <time>2018-07-29T12:19:29Z</time>
      </trkpt>
      <trkpt lat="40.435167" lon="-5.284100">
        <ele>2088.0</ele>
        <time>2018-07-29T12:19:30Z</time>
      </trkpt>
      <trkpt lat="40.435217" lon="-5.284100">
        <ele>2088.0</ele>
        <time>2018-07-29T12:19:31Z</time>
      </trkpt>
      <trkpt lat="40.435283" lon="-5.284100">
        <ele>2088.0</ele>
        <time>2018-07-29T12:19:32Z</time>
      </trkpt>
      <trkpt lat="40.435350" lon="-5.284083">
        <ele>2088.0</ele>
        <time>2018-07-29T12:19:33Z</time>
      </trkpt>
      <trkpt lat="40.435400" lon="-5.284083">
        <ele>2088.0</ele>
        <time>2018-07-29T12:19:34Z</time>
      </trkpt>
      <trkpt lat="40.435450" lon="-5.284083">
        <ele>2087.0</ele>
        <time>2018-07-29T12:19:35Z</time>
      </trkpt>
      <trkpt lat="40.435517" lon="-5.284067">
        <ele>2085.0</ele>
        <time>2018-07-29T12:19:36Z</time>
      </trkpt>
      <trkpt lat="40.435583" lon="-5.284050">
        <ele>2083.0</ele>
        <time>2018-07-29T12:19:37Z</time>
      </trkpt>
      <trkpt lat="40.435667" lon="-5.284033">
        <ele>2082.0</ele>
        <time>2018-07-29T12:19:38Z</time>
      </trkpt>
      <trkpt lat="40.435733" lon="-5.284017">
        <ele>2081.0</ele>
        <time>2018-07-29T12:19:39Z</time>
      </trkpt>
      <trkpt lat="40.435800" lon="-5.284017">
        <ele>2080.0</ele>
        <time>2018-07-29T12:19:40Z</time>
      </trkpt>
      <trkpt lat="40.435867" lon="-5.284000">
        <ele>2079.0</ele>
        <time>2018-07-29T12:19:41Z</time>
      </trkpt>
      <trkpt lat="40.435933" lon="-5.283967">
        <ele>2077.0</ele>
        <time>2018-07-29T12:19:42Z</time>
      </trkpt>
      <trkpt lat="40.436000" lon="-5.283933">
        <ele>2076.0</ele>
        <time>2018-07-29T12:19:43Z</time>
      </trkpt>
      <trkpt lat="40.436083" lon="-5.283917">
        <ele>2074.0</ele>
        <time>2018-07-29T12:19:44Z</time>
      </trkpt>
      <trkpt lat="40.436150" lon="-5.283900">
        <ele>2073.0</ele>
        <time>2018-07-29T12:19:45Z</time>
      </trkpt>
      <trkpt lat="40.436217" lon="-5.283900">
        <ele>2071.0</ele>
        <time>2018-07-29T12:19:46Z</time>
      </trkpt>
      <trkpt lat="40.436283" lon="-5.283900">
        <ele>2070.0</ele>
        <time>2018-07-29T12:19:47Z</time>
      </trkpt>
      <trkpt lat="40.436350" lon="-5.283883">
        <ele>2069.0</ele>
        <time>2018-07-29T12:19:48Z</time>
      </trkpt>
      <trkpt lat="40.436400" lon="-5.283883">
        <ele>2067.0</ele>
        <time>2018-07-29T12:19:49Z</time>
      </trkpt>
      <trkpt lat="40.436467" lon="-5.283883">
        <ele>2065.0</ele>
        <time>2018-07-29T12:19:50Z</time>
      </trkpt>
      <trkpt lat="40.436517" lon="-5.283883">
        <ele>2064.0</ele>
        <time>2018-07-29T12:19:51Z</time>
      </trkpt>
      <trkpt lat="40.436583" lon="-5.283900">
        <ele>2062.0</ele>
        <time>2018-07-29T12:19:52Z</time>
      </trkpt>
      <trkpt lat="40.436633" lon="-5.283917">
        <ele>2061.0</ele>
        <time>2018-07-29T12:19:53Z</time>
      </trkpt>
      <trkpt lat="40.436700" lon="-5.283933">
        <ele>2059.0</ele>
        <time>2018-07-29T12:19:54Z</time>
      </trkpt>
      <trkpt lat="40.436767" lon="-5.283950">
        <ele>2058.0</ele>
        <time>2018-07-29T12:19:55Z</time>
      </trkpt>
      <trkpt lat="40.436833" lon="-5.283967">
        <ele>2056.0</ele>
        <time>2018-07-29T12:19:56Z</time>
      </trkpt>
      <trkpt lat="40.436900" lon="-5.283983">
        <ele>2055.0</ele>
        <time>2018-07-29T12:19:57Z</time>
      </trkpt>
      <trkpt lat="40.436967" lon="-5.284017">
        <ele>2055.0</ele>
        <time>2018-07-29T12:19:58Z</time>
      </trkpt>
      <trkpt lat="40.437017" lon="-5.284050">
        <ele>2056.0</ele>
        <time>2018-07-29T12:19:59Z</time>
      </trkpt>
      <trkpt lat="40.437083" lon="-5.284083">
        <ele>2057.0</ele>
        <time>2018-07-29T12:20:00Z</time>
      </trkpt>
      <trkpt lat="40.437150" lon="-5.284100">
        <ele>2057.0</ele>
        <time>2018-07-29T12:20:01Z</time>
      </trkpt>
      <trkpt lat="40.437233" lon="-5.284100">
        <ele>2057.0</ele>
        <time>2018-07-29T12:20:02Z</time>
      </trkpt>
      <trkpt lat="40.437300" lon="-5.284083">
        <ele>2057.0</ele>
        <time>2018-07-29T12:20:03Z</time>
      </trkpt>
      <trkpt lat="40.437367" lon="-5.284083">
        <ele>2055.0</ele>
        <time>2018-07-29T12:20:04Z</time>
      </trkpt>
      <trkpt lat="40.437450" lon="-5.284067">
        <ele>2054.0</ele>
        <time>2018-07-29T12:20:05Z</time>
      </trkpt>
      <trkpt lat="40.437533" lon="-5.284067">
        <ele>2052.0</ele>
        <time>2018-07-29T12:20:06Z</time>
      </trkpt>
      <trkpt lat="40.437633" lon="-5.284050">
        <ele>2050.0</ele>
        <time>2018-07-29T12:20:07Z</time>
      </trkpt>
      <trkpt lat="40.437717" lon="-5.284017">
        <ele>2049.0</ele>
        <time>2018-07-29T12:20:08Z</time>
      </trkpt>
      <trkpt lat="40.437817" lon="-5.283983">
        <ele>2049.0</ele>
        <time>2018-07-29T12:20:09Z</time>
      </trkpt>
      <trkpt lat="40.437883" lon="-5.283967">
        <ele>2049.0</ele>
        <time>2018-07-29T12:20:10Z</time>
      </trkpt>
      <trkpt lat="40.437967" lon="-5.283933">
        <ele>2048.0</ele>
        <time>2018-07-29T12:20:11Z</time>
      </trkpt>
      <trkpt lat="40.438050" lon="-5.283917">
        <ele>2046.0</ele>
        <time>2018-07-29T12:20:12Z</time>
      </trkpt>
      <trkpt lat="40.438133" lon="-5.283900">
        <ele>2044.0</ele>
        <time>2018-07-29T12:20:13Z</time>
      </trkpt>
      <trkpt lat="40.438233" lon="-5.283867">
        <ele>2042.0</ele>
        <time>2018-07-29T12:20:14Z</time>
      </trkpt>
      <trkpt lat="40.438317" lon="-5.283850">
        <ele>2042.0</ele>
        <time>2018-07-29T12:20:15Z</time>
      </trkpt>
      <trkpt lat="40.438400" lon="-5.283817">
        <ele>2042.0</ele>
        <time>2018-07-29T12:20:16Z</time>
      </trkpt>
      <trkpt lat="40.438467" lon="-5.283800">
        <ele>2041.0</ele>
        <time>2018-07-29T12:20:17Z</time>
      </trkpt>
      <trkpt lat="40.438550" lon="-5.283767">
        <ele>2041.0</ele>
        <time>2018-07-29T12:20:18Z</time>
      </trkpt>
      <trkpt lat="40.438633" lon="-5.283733">
        <ele>2040.0</ele>
        <time>2018-07-29T12:20:19Z</time>
      </trkpt>
      <trkpt lat="40.438717" lon="-5.283683">
        <ele>2039.0</ele>
        <time>2018-07-29T12:20:20Z</time>
      </trkpt>
      <trkpt lat="40.438800" lon="-5.283650">
        <ele>2040.0</ele>
        <time>2018-07-29T12:20:21Z</time>
      </trkpt>
      <trkpt lat="40.438867" lon="-5.283600">
        <ele>2039.0</ele>
        <time>2018-07-29T12:20:22Z</time>
      </trkpt>
      <trkpt lat="40.438950" lon="-5.283567">
        <ele>2039.0</ele>
        <time>2018-07-29T12:20:23Z</time>
      </trkpt>
      <trkpt lat="40.439017" lon="-5.283533">
        <ele>2038.0</ele>
        <time>2018-07-29T12:20:24Z</time>
      </trkpt>
      <trkpt lat="40.439100" lon="-5.283500">
        <ele>2037.0</ele>
        <time>2018-07-29T12:20:25Z</time>
      </trkpt>
      <trkpt lat="40.439167" lon="-5.283467">
        <ele>2036.0</ele>
        <time>2018-07-29T12:20:26Z</time>
      </trkpt>
      <trkpt lat="40.439233" lon="-5.283450">
        <ele>2034.0</ele>
        <time>2018-07-29T12:20:27Z</time>
      </trkpt>
      <trkpt lat="40.439317" lon="-5.283417">
        <ele>2032.0</ele>
        <time>2018-07-29T12:20:28Z</time>
      </trkpt>
      <trkpt lat="40.439383" lon="-5.283400">
        <ele>2031.0</ele>
        <time>2018-07-29T12:20:29Z</time>
      </trkpt>
      <trkpt lat="40.439467" lon="-5.283400">
        <ele>2029.0</ele>
        <time>2018-07-29T12:20:30Z</time>
      </trkpt>
      <trkpt lat="40.439533" lon="-5.283383">
        <ele>2028.0</ele>
        <time>2018-07-29T12:20:31Z</time>
      </trkpt>
      <trkpt lat="40.439617" lon="-5.283350">
        <ele>2026.0</ele>
        <time>2018-07-29T12:20:32Z</time>
      </trkpt>
      <trkpt lat="40.439700" lon="-5.283317">
        <ele>2025.0</ele>
        <time>2018-07-29T12:20:33Z</time>
      </trkpt>
      <trkpt lat="40.439783" lon="-5.283267">
        <ele>2024.0</ele>
        <time>2018-07-29T12:20:34Z</time>
      </trkpt>
      <trkpt lat="40.439867" lon="-5.283233">
        <ele>2023.0</ele>
        <time>2018-07-29T12:20:35Z</time>
      </trkpt>
      <trkpt lat="40.439950" lon="-5.283183">
        <ele>2022.0</ele>
        <time>2018-07-29T12:20:36Z</time>
      </trkpt>
      <trkpt lat="40.440033" lon="-5.283133">
        <ele>2021.0</ele>
        <time>2018-07-29T12:20:37Z</time>
      </trkpt>
      <trkpt lat="40.440100" lon="-5.283067">
        <ele>2019.0</ele>
        <time>2018-07-29T12:20:38Z</time>
      </trkpt>
      <trkpt lat="40.440183" lon="-5.283017">
        <ele>2017.0</ele>
        <time>2018-07-29T12:20:39Z</time>
      </trkpt>
      <trkpt lat="40.440267" lon="-5.282950">
        <ele>2014.0</ele>
        <time>2018-07-29T12:20:40Z</time>
      </trkpt>
      <trkpt lat="40.440367" lon="-5.282917">
        <ele>2012.0</ele>
        <time>2018-07-29T12:20:41Z</time>
      </trkpt>
      <trkpt lat="40.440450" lon="-5.282867">
        <ele>2011.0</ele>
        <time>2018-07-29T12:20:42Z</time>
      </trkpt>
      <trkpt lat="40.440533" lon="-5.282817">
        <ele>2010.0</ele>
        <time>2018-07-29T12:20:43Z</time>
      </trkpt>
      <trkpt lat="40.440617" lon="-5.282733">
        <ele>2009.0</ele>
        <time>2018-07-29T12:20:44Z</time>
      </trkpt>
      <trkpt lat="40.440700" lon="-5.282667">
        <ele>2008.0</ele>
        <time>2018-07-29T12:20:45Z</time>
      </trkpt>
      <trkpt lat="40.440783" lon="-5.282617">
        <ele>2007.0</ele>
        <time>2018-07-29T12:20:46Z</time>
      </trkpt>
      <trkpt lat="40.440867" lon="-5.282567">
        <ele>2006.0</ele>
        <time>2018-07-29T12:20:47Z</time>
      </trkpt>
      <trkpt lat="40.440933" lon="-5.282500">
        <ele>2006.0</ele>
        <time>2018-07-29T12:20:48Z</time>
      </trkpt>
      <trkpt lat="40.441017" lon="-5.282433">
        <ele>2005.0</ele>
        <time>2018-07-29T12:20:49Z</time>
      </trkpt>
      <trkpt lat="40.441083" lon="-5.282350">
        <ele>2006.0</ele>
        <time>2018-07-29T12:20:50Z</time>
      </trkpt>
      <trkpt lat="40.441167" lon="-5.282267">
        <ele>2007.0</ele>
        <time>2018-07-29T12:20:51Z</time>
      </trkpt>
      <trkpt lat="40.441233" lon="-5.282200">
        <ele>2008.0</ele>
        <time>2018-07-29T12:20:52Z</time>
      </trkpt>
      <trkpt lat="40.441300" lon="-5.282133">
        <ele>2009.0</ele>
        <time>2018-07-29T12:20:53Z</time>
      </trkpt>
      <trkpt lat="40.441367" lon="-5.282083">
        <ele>2010.0</ele>
        <time>2018-07-29T12:20:54Z</time>
      </trkpt>
      <trkpt lat="40.441417" lon="-5.282033">
        <ele>2011.0</ele>
        <time>2018-07-29T12:20:55Z</time>
      </trkpt>
      <trkpt lat="40.441483" lon="-5.281983">
        <ele>2011.0</ele>
        <time>2018-07-29T12:20:56Z</time>
      </trkpt>
      <trkpt lat="40.441550" lon="-5.281917">
        <ele>2011.0</ele>
        <time>2018-07-29T12:20:57Z</time>
      </trkpt>
      <trkpt lat="40.441633" lon="-5.281850">
        <ele>2010.0</ele>
        <time>2018-07-29T12:20:58Z</time>
      </trkpt>
      <trkpt lat="40.441700" lon="-5.281783">
        <ele>2010.0</ele>
        <time>2018-07-29T12:20:59Z</time>
      </trkpt>
      <trkpt lat="40.441767" lon="-5.281717">
        <ele>2010.0</ele>
        <time>2018-07-29T12:21:00Z</time>
      </trkpt>
      <trkpt lat="40.441833" lon="-5.281650">
        <ele>2010.0</ele>
        <time>2018-07-29T12:21:01Z</time>
      </trkpt>
      <trkpt lat="40.441900" lon="-5.281583">
        <ele>2010.0</ele>
        <time>2018-07-29T12:21:02Z</time>
      </trkpt>
      <trkpt lat="40.441950" lon="-5.281533">
        <ele>2009.0</ele>
        <time>2018-07-29T12:21:03Z</time>
      </trkpt>
      <trkpt lat="40.442017" lon="-5.281467">
        <ele>2008.0</ele>
        <time>2018-07-29T12:21:04Z</time>
      </trkpt>
      <trkpt lat="40.442083" lon="-5.281417">
        <ele>2007.0</ele>
        <time>2018-07-29T12:21:05Z</time>
      </trkpt>
      <trkpt lat="40.442133" lon="-5.281367">
        <ele>2006.0</ele>
        <time>2018-07-29T12:21:06Z</time>
      </trkpt>
      <trkpt lat="40.442200" lon="-5.281317">
        <ele>2005.0</ele>
        <time>2018-07-29T12:21:07Z</time>
      </trkpt>
      <trkpt lat="40.442267" lon="-5.281300">
        <ele>2005.0</ele>
        <time>2018-07-29T12:21:08Z</time>
      </trkpt>
      <trkpt lat="40.442317" lon="-5.281283">
        <ele>2005.0</ele>
        <time>2018-07-29T12:21:09Z</time>
      </trkpt>
      <trkpt lat="40.442383" lon="-5.281267">
        <ele>2004.0</ele>
        <time>2018-07-29T12:21:10Z</time>
      </trkpt>
      <trkpt lat="40.442450" lon="-5.281267">
        <ele>2004.0</ele>
        <time>2018-07-29T12:21:11Z</time>
      </trkpt>
      <trkpt lat="40.442500" lon="-5.281250">
        <ele>2003.0</ele>
        <time>2018-07-29T12:21:12Z</time>
      </trkpt>
      <trkpt lat="40.442567" lon="-5.281217">
        <ele>2003.0</ele>
        <time>2018-07-29T12:21:13Z</time>
      </trkpt>
      <trkpt lat="40.442633" lon="-5.281200">
        <ele>2002.0</ele>
        <time>2018-07-29T12:21:14Z</time>
      </trkpt>
      <trkpt lat="40.442700" lon="-5.281167">
        <ele>2002.0</ele>
        <time>2018-07-29T12:21:15Z</time>
      </trkpt>
      <trkpt lat="40.442767" lon="-5.281150">
        <ele>2003.0</ele>
        <time>2018-07-29T12:21:16Z</time>
      </trkpt>
      <trkpt lat="40.442850" lon="-5.281133">
        <ele>2003.0</ele>
        <time>2018-07-29T12:21:17Z</time>
      </trkpt>
      <trkpt lat="40.442917" lon="-5.281100">
        <ele>2003.0</ele>
        <time>2018-07-29T12:21:18Z</time>
      </trkpt>
      <trkpt lat="40.442983" lon="-5.281067">
        <ele>2004.0</ele>
        <time>2018-07-29T12:21:19Z</time>
      </trkpt>
      <trkpt lat="40.443050" lon="-5.281033">
        <ele>2004.0</ele>
        <time>2018-07-29T12:21:20Z</time>
      </trkpt>
      <trkpt lat="40.443117" lon="-5.281000">
        <ele>2003.0</ele>
        <time>2018-07-29T12:21:21Z</time>
      </trkpt>
      <trkpt lat="40.443183" lon="-5.280950">
        <ele>2003.0</ele>
        <time>2018-07-29T12:21:22Z</time>
      </trkpt>
      <trkpt lat="40.443250" lon="-5.280900">
        <ele>2003.0</ele>
        <time>2018-07-29T12:21:23Z</time>
      </trkpt>
      <trkpt lat="40.443317" lon="-5.280867">
        <ele>2002.0</ele>
        <time>2018-07-29T12:21:24Z</time>
      </trkpt>
      <trkpt lat="40.443400" lon="-5.280817">
        <ele>2002.0</ele>
        <time>2018-07-29T12:21:25Z</time>
      </trkpt>
      <trkpt lat="40.443450" lon="-5.280783">
        <ele>2001.0</ele>
        <time>2018-07-29T12:21:26Z</time>
      </trkpt>
      <trkpt lat="40.443517" lon="-5.280767">
        <ele>2000.0</ele>
        <time>2018-07-29T12:21:27Z</time>
      </trkpt>
      <trkpt lat="40.443583" lon="-5.280750">
        <ele>1999.0</ele>
        <time>2018-07-29T12:21:28Z</time>
      </trkpt>
      <trkpt lat="40.443650" lon="-5.280733">
        <ele>1998.0</ele>
        <time>2018-07-29T12:21:29Z</time>
      </trkpt>
      <trkpt lat="40.443717" lon="-5.280717">
        <ele>1997.0</ele>
        <time>2018-07-29T12:21:30Z</time>
      </trkpt>
      <trkpt lat="40.443783" lon="-5.280700">
        <ele>1996.0</ele>
        <time>2018-07-29T12:21:31Z</time>
      </trkpt>
      <trkpt lat="40.443850" lon="-5.280667">
        <ele>1996.0</ele>
        <time>2018-07-29T12:21:32Z</time>
      </trkpt>
      <trkpt lat="40.443917" lon="-5.280650">
        <ele>1995.0</ele>
        <time>2018-07-29T12:21:33Z</time>
      </trkpt>
      <trkpt lat="40.443983" lon="-5.280617">
        <ele>1996.0</ele>
        <time>2018-07-29T12:21:34Z</time>
      </trkpt>
      <trkpt lat="40.444050" lon="-5.280600">
        <ele>1996.0</ele>
        <time>2018-07-29T12:21:35Z</time>
      </trkpt>
      <trkpt lat="40.444117" lon="-5.280567">
        <ele>1996.0</ele>
        <time>2018-07-29T12:21:36Z</time>
      </trkpt>
      <trkpt lat="40.444200" lon="-5.280533">
        <ele>1995.0</ele>
        <time>2018-07-29T12:21:37Z</time>
      </trkpt>
      <trkpt lat="40.444267" lon="-5.280500">
        <ele>1995.0</ele>
        <time>2018-07-29T12:21:38Z</time>
      </trkpt>
      <trkpt lat="40.444333" lon="-5.280467">
        <ele>1994.0</ele>
        <time>2018-07-29T12:21:39Z</time>
      </trkpt>
      <trkpt lat="40.444400" lon="-5.280450">
        <ele>1994.0</ele>
        <time>2018-07-29T12:21:40Z</time>
      </trkpt>
      <trkpt lat="40.444467" lon="-5.280417">
        <ele>1993.0</ele>
        <time>2018-07-29T12:21:41Z</time>
      </trkpt>
      <trkpt lat="40.444533" lon="-5.280367">
        <ele>1993.0</ele>
        <time>2018-07-29T12:21:42Z</time>
      </trkpt>
      <trkpt lat="40.444617" lon="-5.280300">
        <ele>1993.0</ele>
        <time>2018-07-29T12:21:43Z</time>
      </trkpt>
      <trkpt lat="40.444717" lon="-5.280250">
        <ele>1992.0</ele>
        <time>2018-07-29T12:21:44Z</time>
      </trkpt>
      <trkpt lat="40.444783" lon="-5.280200">
        <ele>1992.0</ele>
        <time>2018-07-29T12:21:45Z</time>
      </trkpt>
      <trkpt lat="40.444867" lon="-5.280150">
        <ele>1992.0</ele>
        <time>2018-07-29T12:21:46Z</time>
      </trkpt>
      <trkpt lat="40.444933" lon="-5.280100">
        <ele>1991.0</ele>
        <time>2018-07-29T12:21:47Z</time>
      </trkpt>
      <trkpt lat="40.445000" lon="-5.280033">
        <ele>1990.0</ele>
        <time>2018-07-29T12:21:48Z</time>
      </trkpt>
      <trkpt lat="40.445067" lon="-5.279983">
        <ele>1989.0</ele>
        <time>2018-07-29T12:21:49Z</time>
      </trkpt>
      <trkpt lat="40.445133" lon="-5.279933">
        <ele>1988.0</ele>
        <time>2018-07-29T12:21:50Z</time>
      </trkpt>
      <trkpt lat="40.445217" lon="-5.279900">
        <ele>1987.0</ele>
        <time>2018-07-29T12:21:51Z</time>
      </trkpt>
      <trkpt lat="40.445300" lon="-5.279883">
        <ele>1986.0</ele>
        <time>2018-07-29T12:21:52Z</time>
      </trkpt>
      <trkpt lat="40.445383" lon="-5.279850">
        <ele>1986.0</ele>
        <time>2018-07-29T12:21:53Z</time>
      </trkpt>
      <trkpt lat="40.445467" lon="-5.279800">
        <ele>1986.0</ele>
        <time>2018-07-29T12:21:54Z</time>
      </trkpt>
      <trkpt lat="40.445533" lon="-5.279733">
        <ele>1985.0</ele>
        <time>2018-07-29T12:21:55Z</time>
      </trkpt>
      <trkpt lat="40.445617" lon="-5.279667">
        <ele>1984.0</ele>
        <time>2018-07-29T12:21:56Z</time>
      </trkpt>
      <trkpt lat="40.445683" lon="-5.279617">
        <ele>1983.0</ele>
        <time>2018-07-29T12:21:57Z</time>
      </trkpt>
      <trkpt lat="40.445767" lon="-5.279567">
        <ele>1982.0</ele>
        <time>2018-07-29T12:21:58Z</time>
      </trkpt>
      <trkpt lat="40.445850" lon="-5.279533">
        <ele>1980.0</ele>
        <time>2018-07-29T12:21:59Z</time>
      </trkpt>
      <trkpt lat="40.445950" lon="-5.279500">
        <ele>1979.0</ele>
        <time>2018-07-29T12:22:00Z</time>
      </trkpt>
      <trkpt lat="40.446033" lon="-5.279450">
        <ele>1978.0</ele>
        <time>2018-07-29T12:22:01Z</time>
      </trkpt>
      <trkpt lat="40.446133" lon="-5.279417">
        <ele>1977.0</ele>
        <time>2018-07-29T12:22:02Z</time>
      </trkpt>
      <trkpt lat="40.446217" lon="-5.279383">
        <ele>1976.0</ele>
        <time>2018-07-29T12:22:03Z</time>
      </trkpt>
      <trkpt lat="40.446300" lon="-5.279350">
        <ele>1975.0</ele>
        <time>2018-07-29T12:22:04Z</time>
      </trkpt>
      <trkpt lat="40.446383" lon="-5.279350">
        <ele>1975.0</ele>
        <time>2018-07-29T12:22:05Z</time>
      </trkpt>
      <trkpt lat="40.446483" lon="-5.279350">
        <ele>1973.0</ele>
        <time>2018-07-29T12:22:06Z</time>
      </trkpt>
      <trkpt lat="40.446567" lon="-5.279333">
        <ele>1973.0</ele>
        <time>2018-07-29T12:22:07Z</time>
      </trkpt>
      <trkpt lat="40.446667" lon="-5.279333">
        <ele>1973.0</ele>
        <time>2018-07-29T12:22:08Z</time>
      </trkpt>
      <trkpt lat="40.446767" lon="-5.279317">
        <ele>1972.0</ele>
        <time>2018-07-29T12:22:09Z</time>
      </trkpt>
      <trkpt lat="40.446850" lon="-5.279300">
        <ele>1972.0</ele>
        <time>2018-07-29T12:22:10Z</time>
      </trkpt>
      <trkpt lat="40.446933" lon="-5.279267">
        <ele>1971.0</ele>
        <time>2018-07-29T12:22:11Z</time>
      </trkpt>
      <trkpt lat="40.447017" lon="-5.279217">
        <ele>1970.0</ele>
        <time>2018-07-29T12:22:12Z</time>
      </trkpt>
      <trkpt lat="40.447100" lon="-5.279183">
        <ele>1970.0</ele>
        <time>2018-07-29T12:22:13Z</time>
      </trkpt>
      <trkpt lat="40.447183" lon="-5.279117">
        <ele>1969.0</ele>
        <time>2018-07-29T12:22:14Z</time>
      </trkpt>
      <trkpt lat="40.447267" lon="-5.279050">
        <ele>1967.0</ele>
        <time>2018-07-29T12:22:15Z</time>
      </trkpt>
      <trkpt lat="40.447350" lon="-5.278983">
        <ele>1967.0</ele>
        <time>2018-07-29T12:22:16Z</time>
      </trkpt>
      <trkpt lat="40.447433" lon="-5.278933">
        <ele>1966.0</ele>
        <time>2018-07-29T12:22:17Z</time>
      </trkpt>
      <trkpt lat="40.447533" lon="-5.278883">
        <ele>1966.0</ele>
        <time>2018-07-29T12:22:18Z</time>
      </trkpt>
      <trkpt lat="40.447633" lon="-5.278833">
        <ele>1967.0</ele>
        <time>2018-07-29T12:22:19Z</time>
      </trkpt>
      <trkpt lat="40.447717" lon="-5.278767">
        <ele>1968.0</ele>
        <time>2018-07-29T12:22:20Z</time>
      </trkpt>
      <trkpt lat="40.447817" lon="-5.278683">
        <ele>1970.0</ele>
        <time>2018-07-29T12:22:21Z</time>
      </trkpt>
      <trkpt lat="40.447900" lon="-5.278600">
        <ele>1973.0</ele>
        <time>2018-07-29T12:22:22Z</time>
      </trkpt>
      <trkpt lat="40.447983" lon="-5.278517">
        <ele>1977.0</ele>
        <time>2018-07-29T12:22:23Z</time>
      </trkpt>
      <trkpt lat="40.448050" lon="-5.278433">
        <ele>1980.0</ele>
        <time>2018-07-29T12:22:24Z</time>
      </trkpt>
      <trkpt lat="40.448117" lon="-5.278350">
        <ele>1982.0</ele>
        <time>2018-07-29T12:22:25Z</time>
      </trkpt>
      <trkpt lat="40.448167" lon="-5.278300">
        <ele>1984.0</ele>
        <time>2018-07-29T12:22:26Z</time>
      </trkpt>
      <trkpt lat="40.448233" lon="-5.278250">
        <ele>1984.0</ele>
        <time>2018-07-29T12:22:27Z</time>
      </trkpt>
      <trkpt lat="40.448300" lon="-5.278217">
        <ele>1984.0</ele>
        <time>2018-07-29T12:22:28Z</time>
      </trkpt>
      <trkpt lat="40.448367" lon="-5.278167">
        <ele>1985.0</ele>
        <time>2018-07-29T12:22:29Z</time>
      </trkpt>
      <trkpt lat="40.448450" lon="-5.278100">
        <ele>1985.0</ele>
        <time>2018-07-29T12:22:30Z</time>
      </trkpt>
      <trkpt lat="40.448517" lon="-5.278000">
        <ele>1985.0</ele>
        <time>2018-07-29T12:22:31Z</time>
      </trkpt>
      <trkpt lat="40.448567" lon="-5.277867">
        <ele>1986.0</ele>
        <time>2018-07-29T12:22:32Z</time>
      </trkpt>
      <trkpt lat="40.448600" lon="-5.277733">
        <ele>1986.0</ele>
        <time>2018-07-29T12:22:33Z</time>
      </trkpt>
      <trkpt lat="40.448650" lon="-5.277617">
        <ele>1986.0</ele>
        <time>2018-07-29T12:22:34Z</time>
      </trkpt>
      <trkpt lat="40.448700" lon="-5.277517">
        <ele>1986.0</ele>
        <time>2018-07-29T12:22:35Z</time>
      </trkpt>
      <trkpt lat="40.448783" lon="-5.277433">
        <ele>1985.0</ele>
        <time>2018-07-29T12:22:36Z</time>
      </trkpt>
      <trkpt lat="40.448850" lon="-5.277383">
        <ele>1983.0</ele>
        <time>2018-07-29T12:22:37Z</time>
      </trkpt>
      <trkpt lat="40.448933" lon="-5.277333">
        <ele>1982.0</ele>
        <time>2018-07-29T12:22:38Z</time>
      </trkpt>
      <trkpt lat="40.449017" lon="-5.277300">
        <ele>1982.0</ele>
        <time>2018-07-29T12:22:39Z</time>
      </trkpt>
      <trkpt lat="40.449117" lon="-5.277250">
        <ele>1982.0</ele>
        <time>2018-07-29T12:22:40Z</time>
      </trkpt>
      <trkpt lat="40.449183" lon="-5.277200">
        <ele>1982.0</ele>
        <time>2018-07-29T12:22:41Z</time>
      </trkpt>
      <trkpt lat="40.449267" lon="-5.277167">
        <ele>1982.0</ele>
        <time>2018-07-29T12:22:42Z</time>
      </trkpt>
      <trkpt lat="40.449333" lon="-5.277133">
        <ele>1982.0</ele>
        <time>2018-07-29T12:22:43Z</time>
      </trkpt>
      <trkpt lat="40.449400" lon="-5.277083">
        <ele>1982.0</ele>
        <time>2018-07-29T12:22:44Z</time>
      </trkpt>
      <trkpt lat="40.449467" lon="-5.277017">
        <ele>1981.0</ele>
        <time>2018-07-29T12:22:45Z</time>
      </trkpt>
      <trkpt lat="40.449550" lon="-5.276933">
        <ele>1981.0</ele>
        <time>2018-07-29T12:22:46Z</time>
      </trkpt>
      <trkpt lat="40.449617" lon="-5.276850">
        <ele>1980.0</ele>
        <time>2018-07-29T12:22:47Z</time>
      </trkpt>
      <trkpt lat="40.449700" lon="-5.276783">
        <ele>1980.0</ele>
        <time>2018-07-29T12:22:48Z</time>
      </trkpt>
      <trkpt lat="40.449783" lon="-5.276717">
        <ele>1981.0</ele>
        <time>2018-07-29T12:22:49Z</time>
      </trkpt>
      <trkpt lat="40.449867" lon="-5.276650">
        <ele>1982.0</ele>
        <time>2018-07-29T12:22:50Z</time>
      </trkpt>
      <trkpt lat="40.449950" lon="-5.276600">
        <ele>1983.0</ele>
        <time>2018-07-29T12:22:51Z</time>
      </trkpt>
      <trkpt lat="40.450017" lon="-5.276517">
        <ele>1984.0</ele>
        <time>2018-07-29T12:22:52Z</time>
      </trkpt>
      <trkpt lat="40.450100" lon="-5.276467">
        <ele>1985.0</ele>
        <time>2018-07-29T12:22:53Z</time>
      </trkpt>
      <trkpt lat="40.450200" lon="-5.276417">
        <ele>1986.0</ele>
        <time>2018-07-29T12:22:54Z</time>
      </trkpt>
      <trkpt lat="40.450267" lon="-5.276400">
        <ele>1987.0</ele>
        <time>2018-07-29T12:22:55Z</time>
      </trkpt>
      <trkpt lat="40.450333" lon="-5.276417">
        <ele>1987.0</ele>
        <time>2018-07-29T12:22:56Z</time>
      </trkpt>
      <trkpt lat="40.450400" lon="-5.276450">
        <ele>1987.0</ele>
        <time>2018-07-29T12:22:57Z</time>
      </trkpt>
      <trkpt lat="40.450450" lon="-5.276500">
        <ele>1987.0</ele>
        <time>2018-07-29T12:22:58Z</time>
      </trkpt>
      <trkpt lat="40.450500" lon="-5.276533">
        <ele>1988.0</ele>
        <time>2018-07-29T12:22:59Z</time>
      </trkpt>
      <trkpt lat="40.450517" lon="-5.276583">
        <ele>1989.0</ele>
        <time>2018-07-29T12:23:00Z</time>
      </trkpt>
      <trkpt lat="40.450517" lon="-5.276633">
        <ele>1989.0</ele>
        <time>2018-07-29T12:23:01Z</time>
      </trkpt>
      <trkpt lat="40.450533" lon="-5.276700">
        <ele>1988.0</ele>
        <time>2018-07-29T12:23:02Z</time>
      </trkpt>
      <trkpt lat="40.450533" lon="-5.276783">
        <ele>1987.0</ele>
        <time>2018-07-29T12:23:03Z</time>
      </trkpt>
      <trkpt lat="40.450533" lon="-5.276900">
        <ele>1987.0</ele>
        <time>2018-07-29T12:23:04Z</time>
      </trkpt>
      <trkpt lat="40.450500" lon="-5.277000">
        <ele>1989.0</ele>
        <time>2018-07-29T12:23:05Z</time>
      </trkpt>
      <trkpt lat="40.450450" lon="-5.277067">
        <ele>1991.0</ele>
        <time>2018-07-29T12:23:06Z</time>
      </trkpt>
      <trkpt lat="40.450400" lon="-5.277133">
        <ele>1994.0</ele>
        <time>2018-07-29T12:23:07Z</time>
      </trkpt>
      <trkpt lat="40.450333" lon="-5.277167">
        <ele>1995.0</ele>
        <time>2018-07-29T12:23:08Z</time>
      </trkpt>
      <trkpt lat="40.450267" lon="-5.277200">
        <ele>1995.0</ele>
        <time>2018-07-29T12:23:09Z</time>
      </trkpt>
      <trkpt lat="40.450183" lon="-5.277217">
        <ele>1995.0</ele>
        <time>2018-07-29T12:23:10Z</time>
      </trkpt>
      <trkpt lat="40.450067" lon="-5.277217">
        <ele>1994.0</ele>
        <time>2018-07-29T12:23:11Z</time>
      </trkpt>
      <trkpt lat="40.449933" lon="-5.277200">
        <ele>1994.0</ele>
        <time>2018-07-29T12:23:12Z</time>
      </trkpt>
      <trkpt lat="40.449800" lon="-5.277150">
        <ele>1994.0</ele>
        <time>2018-07-29T12:23:13Z</time>
      </trkpt>
      <trkpt lat="40.449667" lon="-5.277100">
        <ele>1995.0</ele>
        <time>2018-07-29T12:23:14Z</time>
      </trkpt>
      <trkpt lat="40.449533" lon="-5.277017">
        <ele>1996.0</ele>
        <time>2018-07-29T12:23:15Z</time>
      </trkpt>
      <trkpt lat="40.449417" lon="-5.276917">
        <ele>1997.0</ele>
        <time>2018-07-29T12:23:16Z</time>
      </trkpt>
      <trkpt lat="40.449317" lon="-5.276783">
        <ele>1998.0</ele>
        <time>2018-07-29T12:23:17Z</time>
      </trkpt>
      <trkpt lat="40.449217" lon="-5.276633">
        <ele>1998.0</ele>
        <time>2018-07-29T12:23:18Z</time>
      </trkpt>
      <trkpt lat="40.449133" lon="-5.276467">
        <ele>1999.0</ele>
        <time>2018-07-29T12:23:19Z</time>
      </trkpt>
      <trkpt lat="40.449067" lon="-5.276317">
        <ele>2000.0</ele>
        <time>2018-07-29T12:23:20Z</time>
      </trkpt>
      <trkpt lat="40.449000" lon="-5.276150">
        <ele>2000.0</ele>
        <time>2018-07-29T12:23:21Z</time>
      </trkpt>
      <trkpt lat="40.448950" lon="-5.275967">
        <ele>2000.0</ele>
        <time>2018-07-29T12:23:22Z</time>
      </trkpt>
      <trkpt lat="40.448917" lon="-5.275783">
        <ele>2000.0</ele>
        <time>2018-07-29T12:23:23Z</time>
      </trkpt>
      <trkpt lat="40.448900" lon="-5.275600">
        <ele>2000.0</ele>
        <time>2018-07-29T12:23:24Z</time>
      </trkpt>
      <trkpt lat="40.448900" lon="-5.275417">
        <ele>2000.0</ele>
        <time>2018-07-29T12:23:25Z</time>
      </trkpt>
      <trkpt lat="40.448917" lon="-5.275250">
        <ele>2002.0</ele>
        <time>2018-07-29T12:23:26Z</time>
      </trkpt>
      <trkpt lat="40.448933" lon="-5.275083">
        <ele>2004.0</ele>
        <time>2018-07-29T12:23:27Z</time>
      </trkpt>
      <trkpt lat="40.448950" lon="-5.274933">
        <ele>2006.0</ele>
        <time>2018-07-29T12:23:28Z</time>
      </trkpt>
      <trkpt lat="40.448967" lon="-5.274817">
        <ele>2007.0</ele>
        <time>2018-07-29T12:23:29Z</time>
      </trkpt>
      <trkpt lat="40.449000" lon="-5.274700">
        <ele>2008.0</ele>
        <time>2018-07-29T12:23:30Z</time>
      </trkpt>
      <trkpt lat="40.449067" lon="-5.274583">
        <ele>2008.0</ele>
        <time>2018-07-29T12:23:31Z</time>
      </trkpt>
      <trkpt lat="40.449133" lon="-5.274500">
        <ele>2009.0</ele>
        <time>2018-07-29T12:23:32Z</time>
      </trkpt>
      <trkpt lat="40.449200" lon="-5.274450">
        <ele>2011.0</ele>
        <time>2018-07-29T12:23:33Z</time>
      </trkpt>
      <trkpt lat="40.449283" lon="-5.274417">
        <ele>2014.0</ele>
        <time>2018-07-29T12:23:34Z</time>
      </trkpt>
      <trkpt lat="40.449333" lon="-5.274383">
        <ele>2016.0</ele>
        <time>2018-07-29T12:23:35Z</time>
      </trkpt>
      <trkpt lat="40.449367" lon="-5.274383">
        <ele>2018.0</ele>
        <time>2018-07-29T12:23:36Z</time>
      </trkpt>
      <trkpt lat="40.449417" lon="-5.274383">
        <ele>2019.0</ele>
        <time>2018-07-29T12:23:37Z</time>
      </trkpt>
      <trkpt lat="40.449467" lon="-5.274400">
        <ele>2019.0</ele>
        <time>2018-07-29T12:23:38Z</time>
      </trkpt>
      <trkpt lat="40.449517" lon="-5.274433">
        <ele>2019.0</ele>
        <time>2018-07-29T12:23:39Z</time>
      </trkpt>
      <trkpt lat="40.449550" lon="-5.274500">
        <ele>2019.0</ele>
        <time>2018-07-29T12:23:40Z</time>
      </trkpt>
      <trkpt lat="40.449583" lon="-5.274567">
        <ele>2020.0</ele>
        <time>2018-07-29T12:23:41Z</time>
      </trkpt>
      <trkpt lat="40.449617" lon="-5.274650">
        <ele>2022.0</ele>
        <time>2018-07-29T12:23:42Z</time>
      </trkpt>
      <trkpt lat="40.449617" lon="-5.274733">
        <ele>2024.0</ele>
        <time>2018-07-29T12:23:43Z</time>
      </trkpt>
      <trkpt lat="40.449600" lon="-5.274800">
        <ele>2026.0</ele>
        <time>2018-07-29T12:23:44Z</time>
      </trkpt>
      <trkpt lat="40.449567" lon="-5.274867">
        <ele>2027.0</ele>
        <time>2018-07-29T12:23:45Z</time>
      </trkpt>
      <trkpt lat="40.449517" lon="-5.274933">
        <ele>2027.0</ele>
        <time>2018-07-29T12:23:46Z</time>
      </trkpt>
      <trkpt lat="40.449450" lon="-5.274983">
        <ele>2026.0</ele>
        <time>2018-07-29T12:23:47Z</time>
      </trkpt>
      <trkpt lat="40.449367" lon="-5.275017">
        <ele>2026.0</ele>
        <time>2018-07-29T12:23:48Z</time>
      </trkpt>
      <trkpt lat="40.449267" lon="-5.275050">
        <ele>2026.0</ele>
        <time>2018-07-29T12:23:49Z</time>
      </trkpt>
      <trkpt lat="40.449150" lon="-5.275050">
        <ele>2025.0</ele>
        <time>2018-07-29T12:23:50Z</time>
      </trkpt>
      <trkpt lat="40.449017" lon="-5.275033">
        <ele>2025.0</ele>
        <time>2018-07-29T12:23:51Z</time>
      </trkpt>
      <trkpt lat="40.448883" lon="-5.274983">
        <ele>2026.0</ele>
        <time>2018-07-29T12:23:52Z</time>
      </trkpt>
      <trkpt lat="40.448767" lon="-5.274917">
        <ele>2027.0</ele>
        <time>2018-07-29T12:23:53Z</time>
      </trkpt>
      <trkpt lat="40.448650" lon="-5.274800">
        <ele>2027.0</ele>
        <time>2018-07-29T12:23:54Z</time>
      </trkpt>
      <trkpt lat="40.448567" lon="-5.274650">
        <ele>2027.0</ele>
        <time>2018-07-29T12:23:55Z</time>
      </trkpt>
      <trkpt lat="40.448483" lon="-5.274483">
        <ele>2027.0</ele>
        <time>2018-07-29T12:23:56Z</time>
      </trkpt>
      <trkpt lat="40.448433" lon="-5.274317">
        <ele>2028.0</ele>
        <time>2018-07-29T12:23:57Z</time>
      </trkpt>
      <trkpt lat="40.448400" lon="-5.274133">
        <ele>2028.0</ele>
        <time>2018-07-29T12:23:58Z</time>
      </trkpt>
      <trkpt lat="40.448383" lon="-5.273967">
        <ele>2028.0</ele>
        <time>2018-07-29T12:23:59Z</time>
      </trkpt>
      <trkpt lat="40.448383" lon="-5.273800">
        <ele>2028.0</ele>
        <time>2018-07-29T12:24:00Z</time>
      </trkpt>
      <trkpt lat="40.448417" lon="-5.273650">
        <ele>2029.0</ele>
        <time>2018-07-29T12:24:01Z</time>
      </trkpt>
      <trkpt lat="40.448450" lon="-5.273517">
        <ele>2030.0</ele>
        <time>2018-07-29T12:24:02Z</time>
      </trkpt>
      <trkpt lat="40.448500" lon="-5.273417">
        <ele>2031.0</ele>
        <time>2018-07-29T12:24:03Z</time>
      </trkpt>
      <trkpt lat="40.448567" lon="-5.273333">
        <ele>2033.0</ele>
        <time>2018-07-29T12:24:04Z</time>
      </trkpt>
      <trkpt lat="40.448633" lon="-5.273300">
        <ele>2035.0</ele>
        <time>2018-07-29T12:24:05Z</time>
      </trkpt>
      <trkpt lat="40.448683" lon="-5.273283">
        <ele>2036.0</ele>
        <time>2018-07-29T12:24:06Z</time>
      </trkpt>
      <trkpt lat="40.448733" lon="-5.273333">
        <ele>2038.0</ele>
        <time>2018-07-29T12:24:07Z</time>
      </trkpt>
      <trkpt lat="40.448767" lon="-5.273400">
        <ele>2039.0</ele>
        <time>2018-07-29T12:24:08Z</time>
      </trkpt>
      <trkpt lat="40.448750" lon="-5.273483">
        <ele>2040.0</ele>
        <time>2018-07-29T12:24:09Z</time>
      </trkpt>
      <trkpt lat="40.448700" lon="-5.273567">
        <ele>2041.0</ele>
        <time>2018-07-29T12:24:10Z</time>
      </trkpt>
      <trkpt lat="40.448617" lon="-5.273617">
        <ele>2042.0</ele>
        <time>2018-07-29T12:24:11Z</time>
      </trkpt>
      <trkpt lat="40.448500" lon="-5.273617">
        <ele>2041.0</ele>
        <time>2018-07-29T12:24:12Z</time>
      </trkpt>
      <trkpt lat="40.448367" lon="-5.273583">
        <ele>2040.0</ele>
        <time>2018-07-29T12:24:13Z</time>
      </trkpt>
      <trkpt lat="40.448233" lon="-5.273483">
        <ele>2039.0</ele>
        <time>2018-07-29T12:24:14Z</time>
      </trkpt>
      <trkpt lat="40.448117" lon="-5.273367">
        <ele>2039.0</ele>
        <time>2018-07-29T12:24:15Z</time>
      </trkpt>
      <trkpt lat="40.448017" lon="-5.273200">
        <ele>2039.0</ele>
        <time>2018-07-29T12:24:16Z</time>
      </trkpt>
      <trkpt lat="40.447950" lon="-5.273033">
        <ele>2039.0</ele>
        <time>2018-07-29T12:24:17Z</time>
      </trkpt>
      <trkpt lat="40.447917" lon="-5.272850">
        <ele>2040.0</ele>
        <time>2018-07-29T12:24:18Z</time>
      </trkpt>
      <trkpt lat="40.447933" lon="-5.272667">
        <ele>2040.0</ele>
        <time>2018-07-29T12:24:19Z</time>
      </trkpt>
      <trkpt lat="40.447983" lon="-5.272533">
        <ele>2042.0</ele>
        <time>2018-07-29T12:24:20Z</time>
      </trkpt>
      <trkpt lat="40.448033" lon="-5.272433">
        <ele>2046.0</ele>
        <time>2018-07-29T12:24:21Z</time>
      </trkpt>
      <trkpt lat="40.448083" lon="-5.272350">
        <ele>2049.0</ele>
        <time>2018-07-29T12:24:22Z</time>
      </trkpt>
      <trkpt lat="40.448100" lon="-5.272267">
        <ele>2053.0</ele>
        <time>2018-07-29T12:24:23Z</time>
      </trkpt>
      <trkpt lat="40.448133" lon="-5.272200">
        <ele>2056.0</ele>
        <time>2018-07-29T12:24:24Z</time>
      </trkpt>
      <trkpt lat="40.448167" lon="-5.272117">
        <ele>2058.0</ele>
        <time>2018-07-29T12:24:25Z</time>
      </trkpt>
      <trkpt lat="40.448217" lon="-5.272050">
        <ele>2060.0</ele>
        <time>2018-07-29T12:24:26Z</time>
      </trkpt>
      <trkpt lat="40.448267" lon="-5.272000">
        <ele>2061.0</ele>
        <time>2018-07-29T12:24:27Z</time>
      </trkpt>
      <trkpt lat="40.448333" lon="-5.271967">
        <ele>2063.0</ele>
        <time>2018-07-29T12:24:28Z</time>
      </trkpt>
      <trkpt lat="40.448400" lon="-5.271950">
        <ele>2065.0</ele>
        <time>2018-07-29T12:24:29Z</time>
      </trkpt>
      <trkpt lat="40.448450" lon="-5.271983">
        <ele>2067.0</ele>
        <time>2018-07-29T12:24:30Z</time>
      </trkpt>
      <trkpt lat="40.448483" lon="-5.272033">
        <ele>2070.0</ele>
        <time>2018-07-29T12:24:31Z</time>
      </trkpt>
      <trkpt lat="40.448500" lon="-5.272100">
        <ele>2072.0</ele>
        <time>2018-07-29T12:24:32Z</time>
      </trkpt>
      <trkpt lat="40.448483" lon="-5.272150">
        <ele>2075.0</ele>
        <time>2018-07-29T12:24:33Z</time>
      </trkpt>
      <trkpt lat="40.448433" lon="-5.272217">
        <ele>2077.0</ele>
        <time>2018-07-29T12:24:34Z</time>
      </trkpt>
      <trkpt lat="40.448383" lon="-5.272250">
        <ele>2079.0</ele>
        <time>2018-07-29T12:24:35Z</time>
      </trkpt>
      <trkpt lat="40.448300" lon="-5.272283">
        <ele>2079.0</ele>
        <time>2018-07-29T12:24:36Z</time>
      </trkpt>
      <trkpt lat="40.448200" lon="-5.272300">
        <ele>2079.0</ele>
        <time>2018-07-29T12:24:37Z</time>
      </trkpt>
      <trkpt lat="40.448067" lon="-5.272283">
        <ele>2079.0</ele>
        <time>2018-07-29T12:24:38Z</time>
      </trkpt>
      <trkpt lat="40.447950" lon="-5.272217">
        <ele>2080.0</ele>
        <time>2018-07-29T12:24:39Z</time>
      </trkpt>
      <trkpt lat="40.447817" lon="-5.272117">
        <ele>2081.0</ele>
        <time>2018-07-29T12:24:40Z</time>
      </trkpt>
      <trkpt lat="40.447717" lon="-5.272000">
        <ele>2083.0</ele>
        <time>2018-07-29T12:24:41Z</time>
      </trkpt>
      <trkpt lat="40.447617" lon="-5.271850">
        <ele>2084.0</ele>
        <time>2018-07-29T12:24:42Z</time>
      </trkpt>
      <trkpt lat="40.447533" lon="-5.271683">
        <ele>2086.0</ele>
        <time>2018-07-29T12:24:43Z</time>
      </trkpt>
      <trkpt lat="40.447483" lon="-5.271483">
        <ele>2088.0</ele>
        <time>2018-07-29T12:24:44Z</time>
      </trkpt>
      <trkpt lat="40.447433" lon="-5.271300">
        <ele>2091.0</ele>
        <time>2018-07-29T12:24:45Z</time>
      </trkpt>
      <trkpt lat="40.447417" lon="-5.271133">
        <ele>2093.0</ele>
        <time>2018-07-29T12:24:46Z</time>
      </trkpt>
      <trkpt lat="40.447433" lon="-5.270983">
        <ele>2095.0</ele>
        <time>2018-07-29T12:24:47Z</time>
      </trkpt>
      <trkpt lat="40.447467" lon="-5.270867">
        <ele>2096.0</ele>
        <time>2018-07-29T12:24:48Z</time>
      </trkpt>
      <trkpt lat="40.447533" lon="-5.270767">
        <ele>2098.0</ele>
        <time>2018-07-29T12:24:49Z</time>
      </trkpt>
      <trkpt lat="40.447583" lon="-5.270700">
        <ele>2099.0</ele>
        <time>2018-07-29T12:24:50Z</time>
      </trkpt>
      <trkpt lat="40.447633" lon="-5.270683">
        <ele>2101.0</ele>
        <time>2018-07-29T12:24:51Z</time>
      </trkpt>
      <trkpt lat="40.447700" lon="-5.270683">
        <ele>2102.0</ele>
        <time>2018-07-29T12:24:52Z</time>
      </trkpt>
      <trkpt lat="40.447750" lon="-5.270717">
        <ele>2104.0</ele>
        <time>2018-07-29T12:24:53Z</time>
      </trkpt>
      <trkpt lat="40.447783" lon="-5.270750">
        <ele>2106.0</ele>
        <time>2018-07-29T12:24:54Z</time>
      </trkpt>
      <trkpt lat="40.447800" lon="-5.270800">
        <ele>2109.0</ele>
        <time>2018-07-29T12:24:55Z</time>
      </trkpt>
      <trkpt lat="40.447800" lon="-5.270867">
        <ele>2110.0</ele>
        <time>2018-07-29T12:24:56Z</time>
      </trkpt>
      <trkpt lat="40.447783" lon="-5.270933">
        <ele>2112.0</ele>
        <time>2018-07-29T12:24:57Z</time>
      </trkpt>
      <trkpt lat="40.447750" lon="-5.270983">
        <ele>2114.0</ele>
        <time>2018-07-29T12:24:58Z</time>
      </trkpt>
      <trkpt lat="40.447683" lon="-5.271050">
        <ele>2117.0</ele>
        <time>2018-07-29T12:24:59Z</time>
      </trkpt>
      <trkpt lat="40.447617" lon="-5.271083">
        <ele>2119.0</ele>
        <time>2018-07-29T12:25:00Z</time>
      </trkpt>
      <trkpt lat="40.447517" lon="-5.271100">
        <ele>2121.0</ele>
        <time>2018-07-29T12:25:01Z</time>
      </trkpt>
      <trkpt lat="40.447417" lon="-5.271083">
        <ele>2121.0</ele>
        <time>2018-07-29T12:25:02Z</time>
      </trkpt>
      <trkpt lat="40.447317" lon="-5.271067">
        <ele>2122.0</ele>
        <time>2018-07-29T12:25:03Z</time>
      </trkpt>
      <trkpt lat="40.447200" lon="-5.271033">
        <ele>2123.0</ele>
        <time>2018-07-29T12:25:04Z</time>
      </trkpt>
      <trkpt lat="40.447083" lon="-5.270983">
        <ele>2123.0</ele>
        <time>2018-07-29T12:25:05Z</time>
      </trkpt>
      <trkpt lat="40.446967" lon="-5.270933">
        <ele>2124.0</ele>
        <time>2018-07-29T12:25:06Z</time>
      </trkpt>
      <trkpt lat="40.446867" lon="-5.270833">
        <ele>2123.0</ele>
        <time>2018-07-29T12:25:07Z</time>
      </trkpt>
      <trkpt lat="40.446750" lon="-5.270700">
        <ele>2123.0</ele>
        <time>2018-07-29T12:25:08Z</time>
      </trkpt>
      <trkpt lat="40.446667" lon="-5.270533">
        <ele>2125.0</ele>
        <time>2018-07-29T12:25:09Z</time>
      </trkpt>
      <trkpt lat="40.446600" lon="-5.270367">
        <ele>2127.0</ele>
        <time>2018-07-29T12:25:10Z</time>
      </trkpt>
      <trkpt lat="40.446567" lon="-5.270200">
        <ele>2129.0</ele>
        <time>2018-07-29T12:25:11Z</time>
      </trkpt>
      <trkpt lat="40.446550" lon="-5.270033">
        <ele>2132.0</ele>
        <time>2018-07-29T12:25:12Z</time>
      </trkpt>
      <trkpt lat="40.446567" lon="-5.269917">
        <ele>2134.0</ele>
        <time>2018-07-29T12:25:13Z</time>
      </trkpt>
      <trkpt lat="40.446600" lon="-5.269817">
        <ele>2136.0</ele>
        <time>2018-07-29T12:25:14Z</time>
      </trkpt>
      <trkpt lat="40.446650" lon="-5.269767">
        <ele>2138.0</ele>
        <time>2018-07-29T12:25:15Z</time>
      </trkpt>
      <trkpt lat="40.446700" lon="-5.269700">
        <ele>2138.0</ele>
        <time>2018-07-29T12:25:16Z</time>
      </trkpt>
      <trkpt lat="40.446750" lon="-5.269617">
        <ele>2139.0</ele>
        <time>2018-07-29T12:25:17Z</time>
      </trkpt>
      <trkpt lat="40.446800" lon="-5.269517">
        <ele>2140.0</ele>
        <time>2018-07-29T12:25:18Z</time>
      </trkpt>
      <trkpt lat="40.446850" lon="-5.269417">
        <ele>2142.0</ele>
        <time>2018-07-29T12:25:19Z</time>
      </trkpt>
      <trkpt lat="40.446900" lon="-5.269300">
        <ele>2144.0</ele>
        <time>2018-07-29T12:25:20Z</time>
      </trkpt>
      <trkpt lat="40.446950" lon="-5.269233">
        <ele>2145.0</ele>
        <time>2018-07-29T12:25:21Z</time>
      </trkpt>
      <trkpt lat="40.447017" lon="-5.269183">
        <ele>2146.0</ele>
        <time>2018-07-29T12:25:22Z</time>
      </trkpt>
      <trkpt lat="40.447083" lon="-5.269183">
        <ele>2147.0</ele>
        <time>2018-07-29T12:25:23Z</time>
      </trkpt>
      <trkpt lat="40.447133" lon="-5.269200">
        <ele>2149.0</ele>
        <time>2018-07-29T12:25:24Z</time>
      </trkpt>
      <trkpt lat="40.447183" lon="-5.269250">
        <ele>2151.0</ele>
        <time>2018-07-29T12:25:25Z</time>
      </trkpt>
      <trkpt lat="40.447217" lon="-5.269300">
        <ele>2153.0</ele>
        <time>2018-07-29T12:25:26Z</time>
      </trkpt>
      <trkpt lat="40.447267" lon="-5.269333">
        <ele>2155.0</ele>
        <time>2018-07-29T12:25:27Z</time>
      </trkpt>
      <trkpt lat="40.447300" lon="-5.269350">
        <ele>2157.0</ele>
        <time>2018-07-29T12:25:28Z</time>
      </trkpt>
      <trkpt lat="40.447317" lon="-5.269383">
        <ele>2158.0</ele>
        <time>2018-07-29T12:25:29Z</time>
      </trkpt>
      <trkpt lat="40.447333" lon="-5.269433">
        <ele>2158.0</ele>
        <time>2018-07-29T12:25:30Z</time>
      </trkpt>
      <trkpt lat="40.447333" lon="-5.269500">
        <ele>2157.0</ele>
        <time>2018-07-29T12:25:31Z</time>
      </trkpt>
      <trkpt lat="40.447317" lon="-5.269583">
        <ele>2157.0</ele>
        <time>2018-07-29T12:25:32Z</time>
      </trkpt>
      <trkpt lat="40.447283" lon="-5.269650">
        <ele>2158.0</ele>
        <time>2018-07-29T12:25:33Z</time>
      </trkpt>
      <trkpt lat="40.447250" lon="-5.269700">
        <ele>2159.0</ele>
        <time>2018-07-29T12:25:34Z</time>
      </trkpt>
      <trkpt lat="40.447217" lon="-5.269733">
        <ele>2159.0</ele>
        <time>2018-07-29T12:25:35Z</time>
      </trkpt>
      <trkpt lat="40.447183" lon="-5.269767">
        <ele>2159.0</ele>
        <time>2018-07-29T12:25:36Z</time>
      </trkpt>
      <trkpt lat="40.447117" lon="-5.269783">
        <ele>2157.0</ele>
        <time>2018-07-29T12:25:37Z</time>
      </trkpt>
      <trkpt lat="40.447033" lon="-5.269800">
        <ele>2154.0</ele>
        <time>2018-07-29T12:25:38Z</time>
      </trkpt>
      <trkpt lat="40.446933" lon="-5.269783">
        <ele>2152.0</ele>
        <time>2018-07-29T12:25:39Z</time>
      </trkpt>
      <trkpt lat="40.446800" lon="-5.269750">
        <ele>2149.0</ele>
        <time>2018-07-29T12:25:40Z</time>
      </trkpt>
      <trkpt lat="40.446683" lon="-5.269667">
        <ele>2149.0</ele>
        <time>2018-07-29T12:25:41Z</time>
      </trkpt>
      <trkpt lat="40.446567" lon="-5.269533">
        <ele>2149.0</ele>
        <time>2018-07-29T12:25:42Z</time>
      </trkpt>
      <trkpt lat="40.446500" lon="-5.269383">
        <ele>2149.0</ele>
        <time>2018-07-29T12:25:43Z</time>
      </trkpt>
      <trkpt lat="40.446450" lon="-5.269233">
        <ele>2148.0</ele>
        <time>2018-07-29T12:25:44Z</time>
      </trkpt>
      <trkpt lat="40.446433" lon="-5.269067">
        <ele>2148.0</ele>
        <time>2018-07-29T12:25:45Z</time>
      </trkpt>
      <trkpt lat="40.446433" lon="-5.268917">
        <ele>2148.0</ele>
        <time>2018-07-29T12:25:46Z</time>
      </trkpt>
      <trkpt lat="40.446450" lon="-5.268767">
        <ele>2148.0</ele>
        <time>2018-07-29T12:25:47Z</time>
      </trkpt>
      <trkpt lat="40.446467" lon="-5.268617">
        <ele>2148.0</ele>
        <time>2018-07-29T12:25:48Z</time>
      </trkpt>
      <trkpt lat="40.446500" lon="-5.268450">
        <ele>2149.0</ele>
        <time>2018-07-29T12:25:49Z</time>
      </trkpt>
      <trkpt lat="40.446533" lon="-5.268317">
        <ele>2151.0</ele>
        <time>2018-07-29T12:25:50Z</time>
      </trkpt>
      <trkpt lat="40.446567" lon="-5.268200">
        <ele>2153.0</ele>
        <time>2018-07-29T12:25:51Z</time>
      </trkpt>
      <trkpt lat="40.446617" lon="-5.268100">
        <ele>2155.0</ele>
        <time>2018-07-29T12:25:52Z</time>
      </trkpt>
      <trkpt lat="40.446667" lon="-5.268000">
        <ele>2156.0</ele>
        <time>2018-07-29T12:25:53Z</time>
      </trkpt>
      <trkpt lat="40.446717" lon="-5.267917">
        <ele>2157.0</ele>
        <time>2018-07-29T12:25:54Z</time>
      </trkpt>
      <trkpt lat="40.446767" lon="-5.267850">
        <ele>2157.0</ele>
        <time>2018-07-29T12:25:55Z</time>
      </trkpt>
      <trkpt lat="40.446817" lon="-5.267800">
        <ele>2155.0</ele>
        <time>2018-07-29T12:25:56Z</time>
      </trkpt>
      <trkpt lat="40.446867" lon="-5.267817">
        <ele>2152.0</ele>
        <time>2018-07-29T12:25:57Z</time>
      </trkpt>
      <trkpt lat="40.446900" lon="-5.267850">
        <ele>2149.0</ele>
        <time>2018-07-29T12:25:58Z</time>
      </trkpt>
      <trkpt lat="40.446933" lon="-5.267933">
        <ele>2148.0</ele>
        <time>2018-07-29T12:25:59Z</time>
      </trkpt>
      <trkpt lat="40.446933" lon="-5.268017">
        <ele>2147.0</ele>
        <time>2018-07-29T12:26:00Z</time>
      </trkpt>
      <trkpt lat="40.446917" lon="-5.268100">
        <ele>2148.0</ele>
        <time>2018-07-29T12:26:01Z</time>
      </trkpt>
      <trkpt lat="40.446867" lon="-5.268167">
        <ele>2148.0</ele>
        <time>2018-07-29T12:26:02Z</time>
      </trkpt>
      <trkpt lat="40.446833" lon="-5.268233">
        <ele>2148.0</ele>
        <time>2018-07-29T12:26:03Z</time>
      </trkpt>
      <trkpt lat="40.446783" lon="-5.268283">
        <ele>2147.0</ele>
        <time>2018-07-29T12:26:04Z</time>
      </trkpt>
      <trkpt lat="40.446733" lon="-5.268333">
        <ele>2144.0</ele>
        <time>2018-07-29T12:26:05Z</time>
      </trkpt>
      <trkpt lat="40.446650" lon="-5.268383">
        <ele>2142.0</ele>
        <time>2018-07-29T12:26:06Z</time>
      </trkpt>
      <trkpt lat="40.446550" lon="-5.268417">
        <ele>2139.0</ele>
        <time>2018-07-29T12:26:07Z</time>
      </trkpt>
      <trkpt lat="40.446417" lon="-5.268433">
        <ele>2137.0</ele>
        <time>2018-07-29T12:26:08Z</time>
      </trkpt>
      <trkpt lat="40.446283" lon="-5.268400">
        <ele>2136.0</ele>
        <time>2018-07-29T12:26:09Z</time>
      </trkpt>
      <trkpt lat="40.446133" lon="-5.268317">
        <ele>2135.0</ele>
        <time>2018-07-29T12:26:10Z</time>
      </trkpt>
      <trkpt lat="40.446017" lon="-5.268200">
        <ele>2135.0</ele>
        <time>2018-07-29T12:26:11Z</time>
      </trkpt>
      <trkpt lat="40.445933" lon="-5.268033">
        <ele>2134.0</ele>
        <time>2018-07-29T12:26:12Z</time>
      </trkpt>
      <trkpt lat="40.445867" lon="-5.267850">
        <ele>2133.0</ele>
        <time>2018-07-29T12:26:13Z</time>
      </trkpt>
      <trkpt lat="40.445833" lon="-5.267667">
        <ele>2132.0</ele>
        <time>2018-07-29T12:26:14Z</time>
      </trkpt>
      <trkpt lat="40.445817" lon="-5.267483">
        <ele>2132.0</ele>
        <time>2018-07-29T12:26:15Z</time>
      </trkpt>
      <trkpt lat="40.445833" lon="-5.267333">
        <ele>2132.0</ele>
        <time>2018-07-29T12:26:16Z</time>
      </trkpt>
      <trkpt lat="40.445867" lon="-5.267183">
        <ele>2131.0</ele>
        <time>2018-07-29T12:26:17Z</time>
      </trkpt>
      <trkpt lat="40.445917" lon="-5.267067">
        <ele>2131.0</ele>
        <time>2018-07-29T12:26:18Z</time>
      </trkpt>
      <trkpt lat="40.445967" lon="-5.266983">
        <ele>2132.0</ele>
        <time>2018-07-29T12:26:19Z</time>
      </trkpt>
      <trkpt lat="40.446000" lon="-5.266933">
        <ele>2132.0</ele>
        <time>2018-07-29T12:26:20Z</time>
      </trkpt>
      <trkpt lat="40.446050" lon="-5.266900">
        <ele>2131.0</ele>
        <time>2018-07-29T12:26:21Z</time>
      </trkpt>
      <trkpt lat="40.446083" lon="-5.266883">
        <ele>2130.0</ele>
        <time>2018-07-29T12:26:22Z</time>
      </trkpt>
      <trkpt lat="40.446133" lon="-5.266883">
        <ele>2128.0</ele>
        <time>2018-07-29T12:26:23Z</time>
      </trkpt>
      <trkpt lat="40.446200" lon="-5.266867">
        <ele>2127.0</ele>
        <time>2018-07-29T12:26:24Z</time>
      </trkpt>
      <trkpt lat="40.446267" lon="-5.266850">
        <ele>2127.0</ele>
        <time>2018-07-29T12:26:25Z</time>
      </trkpt>
      <trkpt lat="40.446317" lon="-5.266833">
        <ele>2128.0</ele>
        <time>2018-07-29T12:26:26Z</time>
      </trkpt>
      <trkpt lat="40.446383" lon="-5.266817">
        <ele>2129.0</ele>
        <time>2018-07-29T12:26:27Z</time>
      </trkpt>
      <trkpt lat="40.446417" lon="-5.266800">
        <ele>2130.0</ele>
        <time>2018-07-29T12:26:28Z</time>
      </trkpt>
      <trkpt lat="40.446467" lon="-5.266800">
        <ele>2131.0</ele>
        <time>2018-07-29T12:26:29Z</time>
      </trkpt>
      <trkpt lat="40.446500" lon="-5.266800">
        <ele>2131.0</ele>
        <time>2018-07-29T12:26:30Z</time>
      </trkpt>
      <trkpt lat="40.446533" lon="-5.266817">
        <ele>2131.0</ele>
        <time>2018-07-29T12:26:31Z</time>
      </trkpt>
      <trkpt lat="40.446567" lon="-5.266833">
        <ele>2131.0</ele>
        <time>2018-07-29T12:26:32Z</time>
      </trkpt>
      <trkpt lat="40.446617" lon="-5.266867">
        <ele>2130.0</ele>
        <time>2018-07-29T12:26:33Z</time>
      </trkpt>
      <trkpt lat="40.446650" lon="-5.266867">
        <ele>2129.0</ele>
        <time>2018-07-29T12:26:34Z</time>
      </trkpt>
      <trkpt lat="40.446700" lon="-5.266883">
        <ele>2127.0</ele>
        <time>2018-07-29T12:26:35Z</time>
      </trkpt>
      <trkpt lat="40.446767" lon="-5.266867">
        <ele>2125.0</ele>
        <time>2018-07-29T12:26:36Z</time>
      </trkpt>
      <trkpt lat="40.446817" lon="-5.266867">
        <ele>2123.0</ele>
        <time>2018-07-29T12:26:37Z</time>
      </trkpt>
      <trkpt lat="40.446867" lon="-5.266833">
        <ele>2122.0</ele>
        <time>2018-07-29T12:26:38Z</time>
      </trkpt>
      <trkpt lat="40.446917" lon="-5.266783">
        <ele>2119.0</ele>
        <time>2018-07-29T12:26:39Z</time>
      </trkpt>
      <trkpt lat="40.446983" lon="-5.266750">
        <ele>2117.0</ele>
        <time>2018-07-29T12:26:40Z</time>
      </trkpt>
      <trkpt lat="40.447050" lon="-5.266700">
        <ele>2115.0</ele>
        <time>2018-07-29T12:26:41Z</time>
      </trkpt>
      <trkpt lat="40.447117" lon="-5.266683">
        <ele>2113.0</ele>
        <time>2018-07-29T12:26:42Z</time>
      </trkpt>
      <trkpt lat="40.447183" lon="-5.266667">
        <ele>2113.0</ele>
        <time>2018-07-29T12:26:43Z</time>
      </trkpt>
      <trkpt lat="40.447267" lon="-5.266667">
        <ele>2112.0</ele>
        <time>2018-07-29T12:26:44Z</time>
      </trkpt>
      <trkpt lat="40.447317" lon="-5.266650">
        <ele>2112.0</ele>
        <time>2018-07-29T12:26:45Z</time>
      </trkpt>
      <trkpt lat="40.447383" lon="-5.266617">
        <ele>2111.0</ele>
        <time>2018-07-29T12:26:46Z</time>
      </trkpt>
      <trkpt lat="40.447450" lon="-5.266583">
        <ele>2110.0</ele>
        <time>2018-07-29T12:26:47Z</time>
      </trkpt>
      <trkpt lat="40.447500" lon="-5.266583">
        <ele>2108.0</ele>
        <time>2018-07-29T12:26:48Z</time>
      </trkpt>
      <trkpt lat="40.447567" lon="-5.266567">
        <ele>2108.0</ele>
        <time>2018-07-29T12:26:49Z</time>
      </trkpt>
      <trkpt lat="40.447633" lon="-5.266533">
        <ele>2107.0</ele>
        <time>2018-07-29T12:26:50Z</time>
      </trkpt>
      <trkpt lat="40.447683" lon="-5.266500">
        <ele>2106.0</ele>
        <time>2018-07-29T12:26:51Z</time>
      </trkpt>
      <trkpt lat="40.447750" lon="-5.266467">
        <ele>2105.0</ele>
        <time>2018-07-29T12:26:52Z</time>
      </trkpt>
      <trkpt lat="40.447817" lon="-5.266433">
        <ele>2103.0</ele>
        <time>2018-07-29T12:26:53Z</time>
      </trkpt>
      <trkpt lat="40.447883" lon="-5.266417">
        <ele>2102.0</ele>
        <time>2018-07-29T12:26:54Z</time>
      </trkpt>
      <trkpt lat="40.447950" lon="-5.266383">
        <ele>2103.0</ele>
        <time>2018-07-29T12:26:55Z</time>
      </trkpt>
      <trkpt lat="40.448017" lon="-5.266350">
        <ele>2104.0</ele>
        <time>2018-07-29T12:26:56Z</time>
      </trkpt>
      <trkpt lat="40.448067" lon="-5.266300">
        <ele>2104.0</ele>
        <time>2018-07-29T12:26:57Z</time>
      </trkpt>
      <trkpt lat="40.448133" lon="-5.266250">
        <ele>2103.0</ele>
        <time>2018-07-29T12:26:58Z</time>
      </trkpt>
      <trkpt lat="40.448217" lon="-5.266183">
        <ele>2102.0</ele>
        <time>2018-07-29T12:26:59Z</time>
      </trkpt>
      <trkpt lat="40.448300" lon="-5.266150">
        <ele>2100.0</ele>
        <time>2018-07-29T12:27:00Z</time>
      </trkpt>
      <trkpt lat="40.448383" lon="-5.266117">
        <ele>2099.0</ele>
        <time>2018-07-29T12:27:01Z</time>
      </trkpt>
      <trkpt lat="40.448467" lon="-5.266083">
        <ele>2099.0</ele>
        <time>2018-07-29T12:27:02Z</time>
      </trkpt>
      <trkpt lat="40.448550" lon="-5.266067">
        <ele>2099.0</ele>
        <time>2018-07-29T12:27:03Z</time>
      </trkpt>
      <trkpt lat="40.448650" lon="-5.266033">
        <ele>2100.0</ele>
        <time>2018-07-29T12:27:04Z</time>
      </trkpt>
      <trkpt lat="40.448733" lon="-5.265983">
        <ele>2102.0</ele>
        <time>2018-07-29T12:27:05Z</time>
      </trkpt>
      <trkpt lat="40.448817" lon="-5.265950">
        <ele>2104.0</ele>
        <time>2018-07-29T12:27:06Z</time>
      </trkpt>
      <trkpt lat="40.448883" lon="-5.265917">
        <ele>2105.0</ele>
        <time>2018-07-29T12:27:07Z</time>
      </trkpt>
      <trkpt lat="40.448950" lon="-5.265867">
        <ele>2104.0</ele>
        <time>2018-07-29T12:27:08Z</time>
      </trkpt>
      <trkpt lat="40.449017" lon="-5.265833">
        <ele>2103.0</ele>
        <time>2018-07-29T12:27:09Z</time>
      </trkpt>
      <trkpt lat="40.449100" lon="-5.265817">
        <ele>2101.0</ele>
        <time>2018-07-29T12:27:10Z</time>
      </trkpt>
      <trkpt lat="40.449167" lon="-5.265800">
        <ele>2099.0</ele>
        <time>2018-07-29T12:27:11Z</time>
      </trkpt>
      <trkpt lat="40.449250" lon="-5.265783">
        <ele>2098.0</ele>
        <time>2018-07-29T12:27:12Z</time>
      </trkpt>
      <trkpt lat="40.449333" lon="-5.265750">
        <ele>2096.0</ele>
        <time>2018-07-29T12:27:13Z</time>
      </trkpt>
      <trkpt lat="40.449417" lon="-5.265683">
        <ele>2094.0</ele>
        <time>2018-07-29T12:27:14Z</time>
      </trkpt>
      <trkpt lat="40.449500" lon="-5.265617">
        <ele>2093.0</ele>
        <time>2018-07-29T12:27:15Z</time>
      </trkpt>
      <trkpt lat="40.449583" lon="-5.265533">
        <ele>2091.0</ele>
        <time>2018-07-29T12:27:16Z</time>
      </trkpt>
      <trkpt lat="40.449650" lon="-5.265450">
        <ele>2088.0</ele>
        <time>2018-07-29T12:27:17Z</time>
      </trkpt>
      <trkpt lat="40.449717" lon="-5.265367">
        <ele>2086.0</ele>
        <time>2018-07-29T12:27:18Z</time>
      </trkpt>
      <trkpt lat="40.449783" lon="-5.265300">
        <ele>2083.0</ele>
        <time>2018-07-29T12:27:19Z</time>
      </trkpt>
      <trkpt lat="40.449867" lon="-5.265217">
        <ele>2081.0</ele>
        <time>2018-07-29T12:27:20Z</time>
      </trkpt>
      <trkpt lat="40.449933" lon="-5.265150">
        <ele>2078.0</ele>
        <time>2018-07-29T12:27:21Z</time>
      </trkpt>
      <trkpt lat="40.450017" lon="-5.265083">
        <ele>2076.0</ele>
        <time>2018-07-29T12:27:22Z</time>
      </trkpt>
      <trkpt lat="40.450100" lon="-5.265033">
        <ele>2074.0</ele>
        <time>2018-07-29T12:27:23Z</time>
      </trkpt>
      <trkpt lat="40.450200" lon="-5.264967">
        <ele>2073.0</ele>
        <time>2018-07-29T12:27:24Z</time>
      </trkpt>
      <trkpt lat="40.450283" lon="-5.264883">
        <ele>2073.0</ele>
        <time>2018-07-29T12:27:25Z</time>
      </trkpt>
      <trkpt lat="40.450367" lon="-5.264800">
        <ele>2072.0</ele>
        <time>2018-07-29T12:27:26Z</time>
      </trkpt>
      <trkpt lat="40.450450" lon="-5.264717">
        <ele>2072.0</ele>
        <time>2018-07-29T12:27:27Z</time>
      </trkpt>
      <trkpt lat="40.450550" lon="-5.264633">
        <ele>2072.0</ele>
        <time>2018-07-29T12:27:28Z</time>
      </trkpt>
      <trkpt lat="40.450633" lon="-5.264550">
        <ele>2072.0</ele>
        <time>2018-07-29T12:27:29Z</time>
      </trkpt>
      <trkpt lat="40.450700" lon="-5.264467">
        <ele>2072.0</ele>
        <time>2018-07-29T12:27:30Z</time>
      </trkpt>
      <trkpt lat="40.450767" lon="-5.264383">
        <ele>2071.0</ele>
        <time>2018-07-29T12:27:31Z</time>
      </trkpt>
      <trkpt lat="40.450850" lon="-5.264300">
        <ele>2070.0</ele>
        <time>2018-07-29T12:27:32Z</time>
      </trkpt>
      <trkpt lat="40.450950" lon="-5.264200">
        <ele>2068.0</ele>
        <time>2018-07-29T12:27:33Z</time>
      </trkpt>
      <trkpt lat="40.451033" lon="-5.264100">
        <ele>2068.0</ele>
        <time>2018-07-29T12:27:34Z</time>
      </trkpt>
      <trkpt lat="40.451117" lon="-5.263983">
        <ele>2069.0</ele>
        <time>2018-07-29T12:27:35Z</time>
      </trkpt>
      <trkpt lat="40.451183" lon="-5.263883">
        <ele>2070.0</ele>
        <time>2018-07-29T12:27:36Z</time>
      </trkpt>
      <trkpt lat="40.451250" lon="-5.263783">
        <ele>2071.0</ele>
        <time>2018-07-29T12:27:37Z</time>
      </trkpt>
      <trkpt lat="40.451317" lon="-5.263683">
        <ele>2071.0</ele>
        <time>2018-07-29T12:27:38Z</time>
      </trkpt>
      <trkpt lat="40.451383" lon="-5.263583">
        <ele>2070.0</ele>
        <time>2018-07-29T12:27:39Z</time>
      </trkpt>
      <trkpt lat="40.451467" lon="-5.263483">
        <ele>2070.0</ele>
        <time>2018-07-29T12:27:40Z</time>
      </trkpt>
      <trkpt lat="40.451533" lon="-5.263383">
        <ele>2070.0</ele>
        <time>2018-07-29T12:27:41Z</time>
      </trkpt>
      <trkpt lat="40.451617" lon="-5.263283">
        <ele>2071.0</ele>
        <time>2018-07-29T12:27:42Z</time>
      </trkpt>
      <trkpt lat="40.451683" lon="-5.263183">
        <ele>2071.0</ele>
        <time>2018-07-29T12:27:43Z</time>
      </trkpt>
      <trkpt lat="40.451750" lon="-5.263100">
        <ele>2070.0</ele>
        <time>2018-07-29T12:27:44Z</time>
      </trkpt>
      <trkpt lat="40.451833" lon="-5.263017">
        <ele>2069.0</ele>
        <time>2018-07-29T12:27:45Z</time>
      </trkpt>
      <trkpt lat="40.451917" lon="-5.262917">
        <ele>2069.0</ele>
        <time>2018-07-29T12:27:46Z</time>
      </trkpt>
      <trkpt lat="40.452000" lon="-5.262833">
        <ele>2069.0</ele>
        <time>2018-07-29T12:27:47Z</time>
      </trkpt>
      <trkpt lat="40.452083" lon="-5.262733">
        <ele>2069.0</ele>
        <time>2018-07-29T12:27:48Z</time>
      </trkpt>
      <trkpt lat="40.452150" lon="-5.262633">
        <ele>2069.0</ele>
        <time>2018-07-29T12:27:49Z</time>
      </trkpt>
      <trkpt lat="40.452233" lon="-5.262533">
        <ele>2069.0</ele>
        <time>2018-07-29T12:27:50Z</time>
      </trkpt>
      <trkpt lat="40.452317" lon="-5.262433">
        <ele>2068.0</ele>
        <time>2018-07-29T12:27:51Z</time>
      </trkpt>
      <trkpt lat="40.452400" lon="-5.262333">
        <ele>2068.0</ele>
        <time>2018-07-29T12:27:52Z</time>
      </trkpt>
      <trkpt lat="40.452467" lon="-5.262233">
        <ele>2068.0</ele>
        <time>2018-07-29T12:27:53Z</time>
      </trkpt>
      <trkpt lat="40.452517" lon="-5.262117">
        <ele>2068.0</ele>
        <time>2018-07-29T12:27:54Z</time>
      </trkpt>
      <trkpt lat="40.452583" lon="-5.262000">
        <ele>2067.0</ele>
        <time>2018-07-29T12:27:55Z</time>
      </trkpt>
      <trkpt lat="40.452667" lon="-5.261883">
        <ele>2065.0</ele>
        <time>2018-07-29T12:27:56Z</time>
      </trkpt>
      <trkpt lat="40.452750" lon="-5.261767">
        <ele>2064.0</ele>
        <time>2018-07-29T12:27:57Z</time>
      </trkpt>
      <trkpt lat="40.452833" lon="-5.261667">
        <ele>2062.0</ele>
        <time>2018-07-29T12:27:58Z</time>
      </trkpt>
      <trkpt lat="40.452917" lon="-5.261567">
        <ele>2062.0</ele>
        <time>2018-07-29T12:27:59Z</time>
      </trkpt>
      <trkpt lat="40.453000" lon="-5.261483">
        <ele>2062.0</ele>
        <time>2018-07-29T12:28:00Z</time>
      </trkpt>
      <trkpt lat="40.453067" lon="-5.261400">
        <ele>2061.0</ele>
        <time>2018-07-29T12:28:01Z</time>
      </trkpt>
      <trkpt lat="40.453150" lon="-5.261317">
        <ele>2061.0</ele>
        <time>2018-07-29T12:28:02Z</time>
      </trkpt>
      <trkpt lat="40.453217" lon="-5.261233">
        <ele>2061.0</ele>
        <time>2018-07-29T12:28:03Z</time>
      </trkpt>
      <trkpt lat="40.453300" lon="-5.261150">
        <ele>2059.0</ele>
        <time>2018-07-29T12:28:04Z</time>
      </trkpt>
      <trkpt lat="40.453400" lon="-5.261067">
        <ele>2059.0</ele>
        <time>2018-07-29T12:28:05Z</time>
      </trkpt>
      <trkpt lat="40.453483" lon="-5.260983">
        <ele>2060.0</ele>
        <time>2018-07-29T12:28:06Z</time>
      </trkpt>
      <trkpt lat="40.453567" lon="-5.260900">
        <ele>2060.0</ele>
        <time>2018-07-29T12:28:07Z</time>
      </trkpt>
      <trkpt lat="40.453650" lon="-5.260817">
        <ele>2060.0</ele>
        <time>2018-07-29T12:28:08Z</time>
      </trkpt>
      <trkpt lat="40.453717" lon="-5.260750">
        <ele>2058.0</ele>
        <time>2018-07-29T12:28:09Z</time>
      </trkpt>
      <trkpt lat="40.453800" lon="-5.260667">
        <ele>2056.0</ele>
        <time>2018-07-29T12:28:10Z</time>
      </trkpt>
      <trkpt lat="40.453883" lon="-5.260600">
        <ele>2055.0</ele>
        <time>2018-07-29T12:28:11Z</time>
      </trkpt>
      <trkpt lat="40.454000" lon="-5.260550">
        <ele>2054.0</ele>
        <time>2018-07-29T12:28:12Z</time>
      </trkpt>
      <trkpt lat="40.454100" lon="-5.260500">
        <ele>2055.0</ele>
        <time>2018-07-29T12:28:13Z</time>
      </trkpt>
      <trkpt lat="40.454183" lon="-5.260450">
        <ele>2056.0</ele>
        <time>2018-07-29T12:28:14Z</time>
      </trkpt>
      <trkpt lat="40.454267" lon="-5.260417">
        <ele>2058.0</ele>
        <time>2018-07-29T12:28:15Z</time>
      </trkpt>
      <trkpt lat="40.454333" lon="-5.260350">
        <ele>2060.0</ele>
        <time>2018-07-29T12:28:16Z</time>
      </trkpt>
      <trkpt lat="40.454400" lon="-5.260283">
        <ele>2060.0</ele>
        <time>2018-07-29T12:28:17Z</time>
      </trkpt>
      <trkpt lat="40.454483" lon="-5.260200">
        <ele>2060.0</ele>
        <time>2018-07-29T12:28:18Z</time>
      </trkpt>
      <trkpt lat="40.454567" lon="-5.260100">
        <ele>2060.0</ele>
        <time>2018-07-29T12:28:19Z</time>
      </trkpt>
      <trkpt lat="40.454633" lon="-5.259950">
        <ele>2060.0</ele>
        <time>2018-07-29T12:28:20Z</time>
      </trkpt>
      <trkpt lat="40.454683" lon="-5.259767">
        <ele>2061.0</ele>
        <time>2018-07-29T12:28:21Z</time>
      </trkpt>
      <trkpt lat="40.454733" lon="-5.259567">
        <ele>2062.0</ele>
        <time>2018-07-29T12:28:22Z</time>
      </trkpt>
      <trkpt lat="40.454750" lon="-5.259383">
        <ele>2065.0</ele>
        <time>2018-07-29T12:28:23Z</time>
      </trkpt>
      <trkpt lat="40.454733" lon="-5.259183">
        <ele>2067.0</ele>
        <time>2018-07-29T12:28:24Z</time>
      </trkpt>
      <trkpt lat="40.454683" lon="-5.259000">
        <ele>2069.0</ele>
        <time>2018-07-29T12:28:25Z</time>
      </trkpt>
      <trkpt lat="40.454617" lon="-5.258833">
        <ele>2069.0</ele>
        <time>2018-07-29T12:28:26Z</time>
      </trkpt>
      <trkpt lat="40.454517" lon="-5.258667">
        <ele>2069.0</ele>
        <time>2018-07-29T12:28:27Z</time>
      </trkpt>
      <trkpt lat="40.454383" lon="-5.258517">
        <ele>2071.0</ele>
        <time>2018-07-29T12:28:28Z</time>
      </trkpt>
      <trkpt lat="40.454267" lon="-5.258417">
        <ele>2073.0</ele>
        <time>2018-07-29T12:28:29Z</time>
      </trkpt>
      <trkpt lat="40.454150" lon="-5.258350">
        <ele>2076.0</ele>
        <time>2018-07-29T12:28:30Z</time>
      </trkpt>
      <trkpt lat="40.454033" lon="-5.258333">
        <ele>2078.0</ele>
        <time>2018-07-29T12:28:31Z</time>
      </trkpt>
      <trkpt lat="40.453933" lon="-5.258333">
        <ele>2079.0</ele>
        <time>2018-07-29T12:28:32Z</time>
      </trkpt>
      <trkpt lat="40.453867" lon="-5.258367">
        <ele>2081.0</ele>
        <time>2018-07-29T12:28:33Z</time>
      </trkpt>
      <trkpt lat="40.453833" lon="-5.258417">
        <ele>2081.0</ele>
        <time>2018-07-29T12:28:34Z</time>
      </trkpt>
      <trkpt lat="40.453817" lon="-5.258467">
        <ele>2081.0</ele>
        <time>2018-07-29T12:28:35Z</time>
      </trkpt>
      <trkpt lat="40.453833" lon="-5.258517">
        <ele>2080.0</ele>
        <time>2018-07-29T12:28:36Z</time>
      </trkpt>
      <trkpt lat="40.453883" lon="-5.258567">
        <ele>2081.0</ele>
        <time>2018-07-29T12:28:37Z</time>
      </trkpt>
      <trkpt lat="40.453933" lon="-5.258617">
        <ele>2083.0</ele>
        <time>2018-07-29T12:28:38Z</time>
      </trkpt>
      <trkpt lat="40.453967" lon="-5.258633">
        <ele>2085.0</ele>
        <time>2018-07-29T12:28:39Z</time>
      </trkpt>
      <trkpt lat="40.454017" lon="-5.258650">
        <ele>2086.0</ele>
        <time>2018-07-29T12:28:40Z</time>
      </trkpt>
      <trkpt lat="40.454067" lon="-5.258667">
        <ele>2087.0</ele>
        <time>2018-07-29T12:28:41Z</time>
      </trkpt>
      <trkpt lat="40.454117" lon="-5.258683">
        <ele>2088.0</ele>
        <time>2018-07-29T12:28:42Z</time>
      </trkpt>
      <trkpt lat="40.454167" lon="-5.258733">
        <ele>2088.0</ele>
        <time>2018-07-29T12:28:43Z</time>
      </trkpt>
      <trkpt lat="40.454217" lon="-5.258783">
        <ele>2088.0</ele>
        <time>2018-07-29T12:28:44Z</time>
      </trkpt>
      <trkpt lat="40.454267" lon="-5.258833">
        <ele>2089.0</ele>
        <time>2018-07-29T12:28:45Z</time>
      </trkpt>
      <trkpt lat="40.454333" lon="-5.258867">
        <ele>2091.0</ele>
        <time>2018-07-29T12:28:46Z</time>
      </trkpt>
      <trkpt lat="40.454383" lon="-5.258900">
        <ele>2094.0</ele>
        <time>2018-07-29T12:28:47Z</time>
      </trkpt>
      <trkpt lat="40.454433" lon="-5.258900">
        <ele>2098.0</ele>
        <time>2018-07-29T12:28:48Z</time>
      </trkpt>
      <trkpt lat="40.454483" lon="-5.258917">
        <ele>2100.0</ele>
        <time>2018-07-29T12:28:49Z</time>
      </trkpt>
      <trkpt lat="40.454533" lon="-5.258933">
        <ele>2102.0</ele>
        <time>2018-07-29T12:28:50Z</time>
      </trkpt>
      <trkpt lat="40.454617" lon="-5.258933">
        <ele>2103.0</ele>
        <time>2018-07-29T12:28:51Z</time>
      </trkpt>
      <trkpt lat="40.454700" lon="-5.258900">
        <ele>2104.0</ele>
        <time>2018-07-29T12:28:52Z</time>
      </trkpt>
      <trkpt lat="40.454783" lon="-5.258850">
        <ele>2105.0</ele>
        <time>2018-07-29T12:28:53Z</time>
      </trkpt>
      <trkpt lat="40.454867" lon="-5.258767">
        <ele>2107.0</ele>
        <time>2018-07-29T12:28:54Z</time>
      </trkpt>
      <trkpt lat="40.454933" lon="-5.258650">
        <ele>2108.0</ele>
        <time>2018-07-29T12:28:55Z</time>
      </trkpt>
      <trkpt lat="40.455000" lon="-5.258517">
        <ele>2110.0</ele>
        <time>2018-07-29T12:28:56Z</time>
      </trkpt>
      <trkpt lat="40.455050" lon="-5.258350">
        <ele>2112.0</ele>
        <time>2018-07-29T12:28:57Z</time>
      </trkpt>
      <trkpt lat="40.455067" lon="-5.258167">
        <ele>2113.0</ele>
        <time>2018-07-29T12:28:58Z</time>
      </trkpt>
      <trkpt lat="40.455083" lon="-5.257967">
        <ele>2113.0</ele>
        <time>2018-07-29T12:28:59Z</time>
      </trkpt>
      <trkpt lat="40.455067" lon="-5.257767">
        <ele>2114.0</ele>
        <time>2018-07-29T12:29:00Z</time>
      </trkpt>
      <trkpt lat="40.455017" lon="-5.257567">
        <ele>2115.0</ele>
        <time>2018-07-29T12:29:01Z</time>
      </trkpt>
      <trkpt lat="40.454950" lon="-5.257383">
        <ele>2116.0</ele>
        <time>2018-07-29T12:29:02Z</time>
      </trkpt>
      <trkpt lat="40.454850" lon="-5.257233">
        <ele>2119.0</ele>
        <time>2018-07-29T12:29:03Z</time>
      </trkpt>
      <trkpt lat="40.454717" lon="-5.257100">
        <ele>2122.0</ele>
        <time>2018-07-29T12:29:04Z</time>
      </trkpt>
      <trkpt lat="40.454600" lon="-5.257017">
        <ele>2127.0</ele>
        <time>2018-07-29T12:29:05Z</time>
      </trkpt>
      <trkpt lat="40.454483" lon="-5.256917">
        <ele>2132.0</ele>
        <time>2018-07-29T12:29:06Z</time>
      </trkpt>
      <trkpt lat="40.454383" lon="-5.256833">
        <ele>2136.0</ele>
        <time>2018-07-29T12:29:07Z</time>
      </trkpt>
      <trkpt lat="40.454283" lon="-5.256800">
        <ele>2140.0</ele>
        <time>2018-07-29T12:29:08Z</time>
      </trkpt>
      <trkpt lat="40.454183" lon="-5.256783">
        <ele>2140.0</ele>
        <time>2018-07-29T12:29:09Z</time>
      </trkpt>
      <trkpt lat="40.454117" lon="-5.256833">
        <ele>2140.0</ele>
        <time>2018-07-29T12:29:10Z</time>
      </trkpt>
      <trkpt lat="40.454067" lon="-5.256883">
        <ele>2141.0</ele>
        <time>2018-07-29T12:29:11Z</time>
      </trkpt>
      <trkpt lat="40.454050" lon="-5.256950">
        <ele>2143.0</ele>
        <time>2018-07-29T12:29:12Z</time>
      </trkpt>
      <trkpt lat="40.454067" lon="-5.257000">
        <ele>2145.0</ele>
        <time>2018-07-29T12:29:13Z</time>
      </trkpt>
      <trkpt lat="40.454100" lon="-5.257033">
        <ele>2146.0</ele>
        <time>2018-07-29T12:29:14Z</time>
      </trkpt>
      <trkpt lat="40.454150" lon="-5.257050">
        <ele>2147.0</ele>
        <time>2018-07-29T12:29:15Z</time>
      </trkpt>
      <trkpt lat="40.454233" lon="-5.257033">
        <ele>2148.0</ele>
        <time>2018-07-29T12:29:16Z</time>
      </trkpt>
      <trkpt lat="40.454317" lon="-5.256983">
        <ele>2149.0</ele>
        <time>2018-07-29T12:29:17Z</time>
      </trkpt>
      <trkpt lat="40.454400" lon="-5.256917">
        <ele>2151.0</ele>
        <time>2018-07-29T12:29:18Z</time>
      </trkpt>
      <trkpt lat="40.454467" lon="-5.256800">
        <ele>2153.0</ele>
        <time>2018-07-29T12:29:19Z</time>
      </trkpt>
      <trkpt lat="40.454533" lon="-5.256667">
        <ele>2155.0</ele>
        <time>2018-07-29T12:29:20Z</time>
      </trkpt>
      <trkpt lat="40.454567" lon="-5.256500">
        <ele>2156.0</ele>
        <time>2018-07-29T12:29:21Z</time>
      </trkpt>
      <trkpt lat="40.454583" lon="-5.256300">
        <ele>2156.0</ele>
        <time>2018-07-29T12:29:22Z</time>
      </trkpt>
      <trkpt lat="40.454567" lon="-5.256100">
        <ele>2156.0</ele>
        <time>2018-07-29T12:29:23Z</time>
      </trkpt>
      <trkpt lat="40.454517" lon="-5.255883">
        <ele>2156.0</ele>
        <time>2018-07-29T12:29:24Z</time>
      </trkpt>
      <trkpt lat="40.454433" lon="-5.255700">
        <ele>2157.0</ele>
        <time>2018-07-29T12:29:25Z</time>
      </trkpt>
      <trkpt lat="40.454333" lon="-5.255533">
        <ele>2159.0</ele>
        <time>2018-07-29T12:29:26Z</time>
      </trkpt>
      <trkpt lat="40.454217" lon="-5.255400">
        <ele>2163.0</ele>
        <time>2018-07-29T12:29:27Z</time>
      </trkpt>
      <trkpt lat="40.454083" lon="-5.255300">
        <ele>2167.0</ele>
        <time>2018-07-29T12:29:28Z</time>
      </trkpt>
      <trkpt lat="40.453950" lon="-5.255250">
        <ele>2170.0</ele>
        <time>2018-07-29T12:29:29Z</time>
      </trkpt>
      <trkpt lat="40.453817" lon="-5.255200">
        <ele>2173.0</ele>
        <time>2018-07-29T12:29:30Z</time>
      </trkpt>
      <trkpt lat="40.453700" lon="-5.255200">
        <ele>2176.0</ele>
        <time>2018-07-29T12:29:31Z</time>
      </trkpt>
      <trkpt lat="40.453583" lon="-5.255200">
        <ele>2178.0</ele>
        <time>2018-07-29T12:29:32Z</time>
      </trkpt>
      <trkpt lat="40.453467" lon="-5.255233">
        <ele>2181.0</ele>
        <time>2018-07-29T12:29:33Z</time>
      </trkpt>
      <trkpt lat="40.453367" lon="-5.255300">
        <ele>2184.0</ele>
        <time>2018-07-29T12:29:34Z</time>
      </trkpt>
      <trkpt lat="40.453283" lon="-5.255350">
        <ele>2188.0</ele>
        <time>2018-07-29T12:29:35Z</time>
      </trkpt>
      <trkpt lat="40.453233" lon="-5.255400">
        <ele>2191.0</ele>
        <time>2018-07-29T12:29:36Z</time>
      </trkpt>
      <trkpt lat="40.453183" lon="-5.255450">
        <ele>2196.0</ele>
        <time>2018-07-29T12:29:37Z</time>
      </trkpt>
      <trkpt lat="40.453133" lon="-5.255483">
        <ele>2199.0</ele>
        <time>2018-07-29T12:29:38Z</time>
      </trkpt>
      <trkpt lat="40.453117" lon="-5.255533">
        <ele>2203.0</ele>
        <time>2018-07-29T12:29:39Z</time>
      </trkpt>
      <trkpt lat="40.453083" lon="-5.255550">
        <ele>2205.0</ele>
        <time>2018-07-29T12:29:40Z</time>
      </trkpt>
      <trkpt lat="40.453083" lon="-5.255583">
        <ele>2206.0</ele>
        <time>2018-07-29T12:29:41Z</time>
      </trkpt>
      <trkpt lat="40.453083" lon="-5.255617">
        <ele>2206.0</ele>
        <time>2018-07-29T12:29:42Z</time>
      </trkpt>
      <trkpt lat="40.453133" lon="-5.255650">
        <ele>2205.0</ele>
        <time>2018-07-29T12:29:43Z</time>
      </trkpt>
      <trkpt lat="40.453183" lon="-5.255667">
        <ele>2205.0</ele>
        <time>2018-07-29T12:29:44Z</time>
      </trkpt>
      <trkpt lat="40.453267" lon="-5.255667">
        <ele>2205.0</ele>
        <time>2018-07-29T12:29:45Z</time>
      </trkpt>
      <trkpt lat="40.453350" lon="-5.255633">
        <ele>2206.0</ele>
        <time>2018-07-29T12:29:46Z</time>
      </trkpt>
      <trkpt lat="40.453417" lon="-5.255583">
        <ele>2208.0</ele>
        <time>2018-07-29T12:29:47Z</time>
      </trkpt>
      <trkpt lat="40.453483" lon="-5.255500">
        <ele>2209.0</ele>
        <time>2018-07-29T12:29:48Z</time>
      </trkpt>
      <trkpt lat="40.453550" lon="-5.255417">
        <ele>2210.0</ele>
        <time>2018-07-29T12:29:49Z</time>
      </trkpt>
      <trkpt lat="40.453633" lon="-5.255300">
        <ele>2211.0</ele>
        <time>2018-07-29T12:29:50Z</time>
      </trkpt>
      <trkpt lat="40.453700" lon="-5.255167">
        <ele>2211.0</ele>
        <time>2018-07-29T12:29:51Z</time>
      </trkpt>
      <trkpt lat="40.453750" lon="-5.255017">
        <ele>2212.0</ele>
        <time>2018-07-29T12:29:52Z</time>
      </trkpt>
      <trkpt lat="40.453800" lon="-5.254850">
        <ele>2214.0</ele>
        <time>2018-07-29T12:29:53Z</time>
      </trkpt>
      <trkpt lat="40.453800" lon="-5.254667">
        <ele>2215.0</ele>
        <time>2018-07-29T12:29:54Z</time>
      </trkpt>
      <trkpt lat="40.453767" lon="-5.254467">
        <ele>2215.0</ele>
        <time>2018-07-29T12:29:55Z</time>
      </trkpt>
      <trkpt lat="40.453700" lon="-5.254267">
        <ele>2216.0</ele>
        <time>2018-07-29T12:29:56Z</time>
      </trkpt>
      <trkpt lat="40.453617" lon="-5.254083">
        <ele>2216.0</ele>
        <time>2018-07-29T12:29:57Z</time>
      </trkpt>
      <trkpt lat="40.453500" lon="-5.253950">
        <ele>2217.0</ele>
        <time>2018-07-29T12:29:58Z</time>
      </trkpt>
      <trkpt lat="40.453383" lon="-5.253867">
        <ele>2218.0</ele>
        <time>2018-07-29T12:29:59Z</time>
      </trkpt>
      <trkpt lat="40.453267" lon="-5.253833">
        <ele>2219.0</ele>
        <time>2018-07-29T12:30:00Z</time>
      </trkpt>
      <trkpt lat="40.453167" lon="-5.253850">
        <ele>2221.0</ele>
        <time>2018-07-29T12:30:01Z</time>
      </trkpt>
      <trkpt lat="40.453083" lon="-5.253900">
        <ele>2222.0</ele>
        <time>2018-07-29T12:30:02Z</time>
      </trkpt>
      <trkpt lat="40.453050" lon="-5.253950">
        <ele>2225.0</ele>
        <time>2018-07-29T12:30:03Z</time>
      </trkpt>
      <trkpt lat="40.453017" lon="-5.254000">
        <ele>2228.0</ele>
        <time>2018-07-29T12:30:04Z</time>
      </trkpt>
      <trkpt lat="40.453017" lon="-5.254050">
        <ele>2230.0</ele>
        <time>2018-07-29T12:30:05Z</time>
      </trkpt>
      <trkpt lat="40.453017" lon="-5.254083">
        <ele>2231.0</ele>
        <time>2018-07-29T12:30:06Z</time>
      </trkpt>
      <trkpt lat="40.453017" lon="-5.254117">
        <ele>2232.0</ele>
        <time>2018-07-29T12:30:07Z</time>
      </trkpt>
      <trkpt lat="40.453033" lon="-5.254150">
        <ele>2232.0</ele>
        <time>2018-07-29T12:30:08Z</time>
      </trkpt>
      <trkpt lat="40.453067" lon="-5.254183">
        <ele>2232.0</ele>
        <time>2018-07-29T12:30:09Z</time>
      </trkpt>
      <trkpt lat="40.453117" lon="-5.254200">
        <ele>2232.0</ele>
        <time>2018-07-29T12:30:10Z</time>
      </trkpt>
      <trkpt lat="40.453183" lon="-5.254200">
        <ele>2232.0</ele>
        <time>2018-07-29T12:30:11Z</time>
      </trkpt>
      <trkpt lat="40.453267" lon="-5.254183">
        <ele>2233.0</ele>
        <time>2018-07-29T12:30:12Z</time>
      </trkpt>
      <trkpt lat="40.453333" lon="-5.254167">
        <ele>2234.0</ele>
        <time>2018-07-29T12:30:13Z</time>
      </trkpt>
      <trkpt lat="40.453400" lon="-5.254150">
        <ele>2235.0</ele>
        <time>2018-07-29T12:30:14Z</time>
      </trkpt>
      <trkpt lat="40.453467" lon="-5.254133">
        <ele>2237.0</ele>
        <time>2018-07-29T12:30:15Z</time>
      </trkpt>
      <trkpt lat="40.453517" lon="-5.254133">
        <ele>2238.0</ele>
        <time>2018-07-29T12:30:16Z</time>
      </trkpt>
      <trkpt lat="40.453583" lon="-5.254150">
        <ele>2239.0</ele>
        <time>2018-07-29T12:30:17Z</time>
      </trkpt>
      <trkpt lat="40.453650" lon="-5.254167">
        <ele>2240.0</ele>
        <time>2018-07-29T12:30:18Z</time>
      </trkpt>
      <trkpt lat="40.453717" lon="-5.254167">
        <ele>2242.0</ele>
        <time>2018-07-29T12:30:19Z</time>
      </trkpt>
      <trkpt lat="40.453767" lon="-5.254150">
        <ele>2244.0</ele>
        <time>2018-07-29T12:30:20Z</time>
      </trkpt>
      <trkpt lat="40.453833" lon="-5.254150">
        <ele>2245.0</ele>
        <time>2018-07-29T12:30:21Z</time>
      </trkpt>
      <trkpt lat="40.453900" lon="-5.254133">
        <ele>2245.0</ele>
        <time>2018-07-29T12:30:22Z</time>
      </trkpt>
      <trkpt lat="40.453983" lon="-5.254150">
        <ele>2245.0</ele>
        <time>2018-07-29T12:30:23Z</time>
      </trkpt>
      <trkpt lat="40.454050" lon="-5.254150">
        <ele>2246.0</ele>
        <time>2018-07-29T12:30:24Z</time>
      </trkpt>
      <trkpt lat="40.454117" lon="-5.254150">
        <ele>2248.0</ele>
        <time>2018-07-29T12:30:25Z</time>
      </trkpt>
      <trkpt lat="40.454183" lon="-5.254150">
        <ele>2250.0</ele>
        <time>2018-07-29T12:30:26Z</time>
      </trkpt>
      <trkpt lat="40.454250" lon="-5.254133">
        <ele>2251.0</ele>
        <time>2018-07-29T12:30:27Z</time>
      </trkpt>
      <trkpt lat="40.454317" lon="-5.254117">
        <ele>2252.0</ele>
        <time>2018-07-29T12:30:28Z</time>
      </trkpt>
      <trkpt lat="40.454400" lon="-5.254067">
        <ele>2254.0</ele>
        <time>2018-07-29T12:30:29Z</time>
      </trkpt>
      <trkpt lat="40.454483" lon="-5.254000">
        <ele>2256.0</ele>
        <time>2018-07-29T12:30:30Z</time>
      </trkpt>
      <trkpt lat="40.454567" lon="-5.253917">
        <ele>2260.0</ele>
        <time>2018-07-29T12:30:31Z</time>
      </trkpt>
      <trkpt lat="40.454633" lon="-5.253800">
        <ele>2264.0</ele>
        <time>2018-07-29T12:30:32Z</time>
      </trkpt>
      <trkpt lat="40.454700" lon="-5.253683">
        <ele>2268.0</ele>
        <time>2018-07-29T12:30:33Z</time>
      </trkpt>
      <trkpt lat="40.454733" lon="-5.253533">
        <ele>2270.0</ele>
        <time>2018-07-29T12:30:34Z</time>
      </trkpt>
      <trkpt lat="40.454767" lon="-5.253367">
        <ele>2270.0</ele>
        <time>2018-07-29T12:30:35Z</time>
      </trkpt>
      <trkpt lat="40.454767" lon="-5.253183">
        <ele>2270.0</ele>
        <time>2018-07-29T12:30:36Z</time>
      </trkpt>
      <trkpt lat="40.454750" lon="-5.252967">
        <ele>2270.0</ele>
        <time>2018-07-29T12:30:37Z</time>
      </trkpt>
      <trkpt lat="40.454683" lon="-5.252750">
        <ele>2272.0</ele>
        <time>2018-07-29T12:30:38Z</time>
      </trkpt>
      <trkpt lat="40.454600" lon="-5.252583">
        <ele>2275.0</ele>
        <time>2018-07-29T12:30:39Z</time>
      </trkpt>
      <trkpt lat="40.454483" lon="-5.252433">
        <ele>2278.0</ele>
        <time>2018-07-29T12:30:40Z</time>
      </trkpt>
      <trkpt lat="40.454367" lon="-5.252333">
        <ele>2283.0</ele>
        <time>2018-07-29T12:30:41Z</time>
      </trkpt>
      <trkpt lat="40.454267" lon="-5.252233">
        <ele>2287.0</ele>
        <time>2018-07-29T12:30:42Z</time>
      </trkpt>
      <trkpt lat="40.454167" lon="-5.252167">
        <ele>2290.0</ele>
        <time>2018-07-29T12:30:43Z</time>
      </trkpt>
      <trkpt lat="40.454083" lon="-5.252117">
        <ele>2294.0</ele>
        <time>2018-07-29T12:30:44Z</time>
      </trkpt>
      <trkpt lat="40.454000" lon="-5.252083">
        <ele>2296.0</ele>
        <time>2018-07-29T12:30:45Z</time>
      </trkpt>
      <trkpt lat="40.453900" lon="-5.252083">
        <ele>2296.0</ele>
        <time>2018-07-29T12:30:46Z</time>
      </trkpt>
      <trkpt lat="40.453833" lon="-5.252083">
        <ele>2296.0</ele>
        <time>2018-07-29T12:30:47Z</time>
      </trkpt>
      <trkpt lat="40.453783" lon="-5.252117">
        <ele>2297.0</ele>
        <time>2018-07-29T12:30:48Z</time>
      </trkpt>
      <trkpt lat="40.453750" lon="-5.252167">
        <ele>2296.0</ele>
        <time>2018-07-29T12:30:49Z</time>
      </trkpt>
      <trkpt lat="40.453750" lon="-5.252217">
        <ele>2296.0</ele>
        <time>2018-07-29T12:30:50Z</time>
      </trkpt>
      <trkpt lat="40.453767" lon="-5.252283">
        <ele>2295.0</ele>
        <time>2018-07-29T12:30:51Z</time>
      </trkpt>
      <trkpt lat="40.453800" lon="-5.252333">
        <ele>2296.0</ele>
        <time>2018-07-29T12:30:52Z</time>
      </trkpt>
      <trkpt lat="40.453850" lon="-5.252367">
        <ele>2298.0</ele>
        <time>2018-07-29T12:30:53Z</time>
      </trkpt>
      <trkpt lat="40.453900" lon="-5.252400">
        <ele>2300.0</ele>
        <time>2018-07-29T12:30:54Z</time>
      </trkpt>
      <trkpt lat="40.453950" lon="-5.252417">
        <ele>2302.0</ele>
        <time>2018-07-29T12:30:55Z</time>
      </trkpt>
      <trkpt lat="40.453983" lon="-5.252433">
        <ele>2304.0</ele>
        <time>2018-07-29T12:30:56Z</time>
      </trkpt>
      <trkpt lat="40.454033" lon="-5.252450">
        <ele>2305.0</ele>
        <time>2018-07-29T12:30:57Z</time>
      </trkpt>
      <trkpt lat="40.454100" lon="-5.252467">
        <ele>2307.0</ele>
        <time>2018-07-29T12:30:58Z</time>
      </trkpt>
      <trkpt lat="40.454167" lon="-5.252467">
        <ele>2309.0</ele>
        <time>2018-07-29T12:30:59Z</time>
      </trkpt>
      <trkpt lat="40.454233" lon="-5.252467">
        <ele>2312.0</ele>
        <time>2018-07-29T12:31:00Z</time>
      </trkpt>
      <trkpt lat="40.454317" lon="-5.252433">
        <ele>2315.0</ele>
        <time>2018-07-29T12:31:01Z</time>
      </trkpt>
      <trkpt lat="40.454383" lon="-5.252400">
        <ele>2317.0</ele>
        <time>2018-07-29T12:31:02Z</time>
      </trkpt>
      <trkpt lat="40.454433" lon="-5.252333">
        <ele>2318.0</ele>
        <time>2018-07-29T12:31:03Z</time>
      </trkpt>
      <trkpt lat="40.454500" lon="-5.252283">
        <ele>2319.0</ele>
        <time>2018-07-29T12:31:04Z</time>
      </trkpt>
      <trkpt lat="40.454567" lon="-5.252233">
        <ele>2318.0</ele>
        <time>2018-07-29T12:31:05Z</time>
      </trkpt>
      <trkpt lat="40.454650" lon="-5.252217">
        <ele>2317.0</ele>
        <time>2018-07-29T12:31:06Z</time>
      </trkpt>
      <trkpt lat="40.454717" lon="-5.252200">
        <ele>2316.0</ele>
        <time>2018-07-29T12:31:07Z</time>
      </trkpt>
      <trkpt lat="40.454783" lon="-5.252200">
        <ele>2315.0</ele>
        <time>2018-07-29T12:31:08Z</time>
      </trkpt>
      <trkpt lat="40.454867" lon="-5.252200">
        <ele>2314.0</ele>
        <time>2018-07-29T12:31:09Z</time>
      </trkpt>
      <trkpt lat="40.454933" lon="-5.252183">
        <ele>2314.0</ele>
        <time>2018-07-29T12:31:10Z</time>
      </trkpt>
      <trkpt lat="40.455017" lon="-5.252150">
        <ele>2314.0</ele>
        <time>2018-07-29T12:31:11Z</time>
      </trkpt>
      <trkpt lat="40.455083" lon="-5.252100">
        <ele>2313.0</ele>
        <time>2018-07-29T12:31:12Z</time>
      </trkpt>
      <trkpt lat="40.455150" lon="-5.252050">
        <ele>2311.0</ele>
        <time>2018-07-29T12:31:13Z</time>
      </trkpt>
      <trkpt lat="40.455233" lon="-5.251983">
        <ele>2309.0</ele>
        <time>2018-07-29T12:31:14Z</time>
      </trkpt>
      <trkpt lat="40.455333" lon="-5.251933">
        <ele>2307.0</ele>
        <time>2018-07-29T12:31:15Z</time>
      </trkpt>
      <trkpt lat="40.455433" lon="-5.251883">
        <ele>2306.0</ele>
        <time>2018-07-29T12:31:16Z</time>
      </trkpt>
      <trkpt lat="40.455533" lon="-5.251800">
        <ele>2306.0</ele>
        <time>2018-07-29T12:31:17Z</time>
      </trkpt>
      <trkpt lat="40.455633" lon="-5.251717">
        <ele>2307.0</ele>
        <time>2018-07-29T12:31:18Z</time>
      </trkpt>
      <trkpt lat="40.455733" lon="-5.251633">
        <ele>2308.0</ele>
        <time>2018-07-29T12:31:19Z</time>
      </trkpt>
      <trkpt lat="40.455817" lon="-5.251550">
        <ele>2310.0</ele>
        <time>2018-07-29T12:31:20Z</time>
      </trkpt>
      <trkpt lat="40.455917" lon="-5.251500">
        <ele>2312.0</ele>
        <time>2018-07-29T12:31:21Z</time>
      </trkpt>
      <trkpt lat="40.456000" lon="-5.251483">
        <ele>2314.0</ele>
        <time>2018-07-29T12:31:22Z</time>
      </trkpt>
      <trkpt lat="40.456050" lon="-5.251450">
        <ele>2316.0</ele>
        <time>2018-07-29T12:31:23Z</time>
      </trkpt>
      <trkpt lat="40.456100" lon="-5.251417">
        <ele>2318.0</ele>
        <time>2018-07-29T12:31:24Z</time>
      </trkpt>
      <trkpt lat="40.456150" lon="-5.251367">
        <ele>2319.0</ele>
        <time>2018-07-29T12:31:25Z</time>
      </trkpt>
      <trkpt lat="40.456200" lon="-5.251317">
        <ele>2319.0</ele>
        <time>2018-07-29T12:31:26Z</time>
      </trkpt>
      <trkpt lat="40.456267" lon="-5.251250">
        <ele>2318.0</ele>
        <time>2018-07-29T12:31:27Z</time>
      </trkpt>
      <trkpt lat="40.456333" lon="-5.251167">
        <ele>2316.0</ele>
        <time>2018-07-29T12:31:28Z</time>
      </trkpt>
      <trkpt lat="40.456400" lon="-5.251117">
        <ele>2314.0</ele>
        <time>2018-07-29T12:31:29Z</time>
      </trkpt>
      <trkpt lat="40.456483" lon="-5.251050">
        <ele>2313.0</ele>
        <time>2018-07-29T12:31:30Z</time>
      </trkpt>
      <trkpt lat="40.456567" lon="-5.251017">
        <ele>2312.0</ele>
        <time>2018-07-29T12:31:31Z</time>
      </trkpt>
      <trkpt lat="40.456633" lon="-5.250983">
        <ele>2312.0</ele>
        <time>2018-07-29T12:31:32Z</time>
      </trkpt>
      <trkpt lat="40.456700" lon="-5.250967">
        <ele>2311.0</ele>
        <time>2018-07-29T12:31:33Z</time>
      </trkpt>
      <trkpt lat="40.456767" lon="-5.250933">
        <ele>2309.0</ele>
        <time>2018-07-29T12:31:34Z</time>
      </trkpt>
      <trkpt lat="40.456833" lon="-5.250917">
        <ele>2306.0</ele>
        <time>2018-07-29T12:31:35Z</time>
      </trkpt>
      <trkpt lat="40.456900" lon="-5.250883">
        <ele>2303.0</ele>
        <time>2018-07-29T12:31:36Z</time>
      </trkpt>
      <trkpt lat="40.456983" lon="-5.250867">
        <ele>2299.0</ele>
        <time>2018-07-29T12:31:37Z</time>
      </trkpt>
      <trkpt lat="40.457050" lon="-5.250867">
        <ele>2297.0</ele>
        <time>2018-07-29T12:31:38Z</time>
      </trkpt>
      <trkpt lat="40.457133" lon="-5.250883">
        <ele>2297.0</ele>
        <time>2018-07-29T12:31:39Z</time>
      </trkpt>
      <trkpt lat="40.457217" lon="-5.250900">
        <ele>2297.0</ele>
        <time>2018-07-29T12:31:40Z</time>
      </trkpt>
      <trkpt lat="40.457300" lon="-5.250867">
        <ele>2297.0</ele>
        <time>2018-07-29T12:31:41Z</time>
      </trkpt>
      <trkpt lat="40.457383" lon="-5.250817">
        <ele>2297.0</ele>
        <time>2018-07-29T12:31:42Z</time>
      </trkpt>
      <trkpt lat="40.457450" lon="-5.250783">
        <ele>2296.0</ele>
        <time>2018-07-29T12:31:43Z</time>
      </trkpt>
      <trkpt lat="40.457533" lon="-5.250767">
        <ele>2295.0</ele>
        <time>2018-07-29T12:31:44Z</time>
      </trkpt>
      <trkpt lat="40.457600" lon="-5.250767">
        <ele>2294.0</ele>
        <time>2018-07-29T12:31:45Z</time>
      </trkpt>
      <trkpt lat="40.457683" lon="-5.250783">
        <ele>2294.0</ele>
        <time>2018-07-29T12:31:46Z</time>
      </trkpt>
      <trkpt lat="40.457733" lon="-5.250817">
        <ele>2293.0</ele>
        <time>2018-07-29T12:31:47Z</time>
      </trkpt>
      <trkpt lat="40.457800" lon="-5.250850">
        <ele>2293.0</ele>
        <time>2018-07-29T12:31:48Z</time>
      </trkpt>
      <trkpt lat="40.457850" lon="-5.250883">
        <ele>2292.0</ele>
        <time>2018-07-29T12:31:49Z</time>
      </trkpt>
      <trkpt lat="40.457917" lon="-5.250933">
        <ele>2291.0</ele>
        <time>2018-07-29T12:31:50Z</time>
      </trkpt>
      <trkpt lat="40.457983" lon="-5.250983">
        <ele>2292.0</ele>
        <time>2018-07-29T12:31:51Z</time>
      </trkpt>
      <trkpt lat="40.458067" lon="-5.251000">
        <ele>2294.0</ele>
        <time>2018-07-29T12:31:52Z</time>
      </trkpt>
      <trkpt lat="40.458167" lon="-5.250983">
        <ele>2296.0</ele>
        <time>2018-07-29T12:31:53Z</time>
      </trkpt>
      <trkpt lat="40.458267" lon="-5.250950">
        <ele>2297.0</ele>
        <time>2018-07-29T12:31:54Z</time>
      </trkpt>
      <trkpt lat="40.458350" lon="-5.250900">
        <ele>2299.0</ele>
        <time>2018-07-29T12:31:55Z</time>
      </trkpt>
      <trkpt lat="40.458450" lon="-5.250833">
        <ele>2301.0</ele>
        <time>2018-07-29T12:31:56Z</time>
      </trkpt>
      <trkpt lat="40.458533" lon="-5.250800">
        <ele>2302.0</ele>
        <time>2018-07-29T12:31:57Z</time>
      </trkpt>
      <trkpt lat="40.458617" lon="-5.250750">
        <ele>2303.0</ele>
        <time>2018-07-29T12:31:58Z</time>
      </trkpt>
      <trkpt lat="40.458700" lon="-5.250683">
        <ele>2304.0</ele>
        <time>2018-07-29T12:31:59Z</time>
      </trkpt>
      <trkpt lat="40.458800" lon="-5.250617">
        <ele>2306.0</ele>
        <time>2018-07-29T12:32:00Z</time>
      </trkpt>
      <trkpt lat="40.458883" lon="-5.250533">
        <ele>2309.0</ele>
        <time>2018-07-29T12:32:01Z</time>
      </trkpt>
      <trkpt lat="40.458967" lon="-5.250467">
        <ele>2312.0</ele>
        <time>2018-07-29T12:32:02Z</time>
      </trkpt>
      <trkpt lat="40.459050" lon="-5.250400">
        <ele>2314.0</ele>
        <time>2018-07-29T12:32:03Z</time>
      </trkpt>
      <trkpt lat="40.459117" lon="-5.250317">
        <ele>2316.0</ele>
        <time>2018-07-29T12:32:04Z</time>
      </trkpt>
      <trkpt lat="40.459167" lon="-5.250217">
        <ele>2317.0</ele>
        <time>2018-07-29T12:32:05Z</time>
      </trkpt>
      <trkpt lat="40.459200" lon="-5.250083">
        <ele>2315.0</ele>
        <time>2018-07-29T12:32:06Z</time>
      </trkpt>
      <trkpt lat="40.459200" lon="-5.249933">
        <ele>2313.0</ele>
        <time>2018-07-29T12:32:07Z</time>
      </trkpt>
      <trkpt lat="40.459183" lon="-5.249767">
        <ele>2311.0</ele>
        <time>2018-07-29T12:32:08Z</time>
      </trkpt>
      <trkpt lat="40.459117" lon="-5.249583">
        <ele>2312.0</ele>
        <time>2018-07-29T12:32:09Z</time>
      </trkpt>
      <trkpt lat="40.459050" lon="-5.249417">
        <ele>2314.0</ele>
        <time>2018-07-29T12:32:10Z</time>
      </trkpt>
      <trkpt lat="40.458967" lon="-5.249283">
        <ele>2318.0</ele>
        <time>2018-07-29T12:32:11Z</time>
      </trkpt>
      <trkpt lat="40.458900" lon="-5.249167">
        <ele>2321.0</ele>
        <time>2018-07-29T12:32:12Z</time>
      </trkpt>
      <trkpt lat="40.458817" lon="-5.249067">
        <ele>2322.0</ele>
        <time>2018-07-29T12:32:13Z</time>
      </trkpt>
      <trkpt lat="40.458750" lon="-5.249000">
        <ele>2322.0</ele>
        <time>2018-07-29T12:32:14Z</time>
      </trkpt>
      <trkpt lat="40.458650" lon="-5.248933">
        <ele>2320.0</ele>
        <time>2018-07-29T12:32:15Z</time>
      </trkpt>
      <trkpt lat="40.458550" lon="-5.248883">
        <ele>2319.0</ele>
        <time>2018-07-29T12:32:16Z</time>
      </trkpt>
      <trkpt lat="40.458450" lon="-5.248850">
        <ele>2319.0</ele>
        <time>2018-07-29T12:32:17Z</time>
      </trkpt>
      <trkpt lat="40.458350" lon="-5.248833">
        <ele>2318.0</ele>
        <time>2018-07-29T12:32:18Z</time>
      </trkpt>
      <trkpt lat="40.458250" lon="-5.248850">
        <ele>2319.0</ele>
        <time>2018-07-29T12:32:19Z</time>
      </trkpt>
      <trkpt lat="40.458167" lon="-5.248900">
        <ele>2320.0</ele>
        <time>2018-07-29T12:32:20Z</time>
      </trkpt>
      <trkpt lat="40.458100" lon="-5.248967">
        <ele>2323.0</ele>
        <time>2018-07-29T12:32:21Z</time>
      </trkpt>
      <trkpt lat="40.458050" lon="-5.249017">
        <ele>2325.0</ele>
        <time>2018-07-29T12:32:22Z</time>
      </trkpt>
      <trkpt lat="40.458000" lon="-5.249083">
        <ele>2325.0</ele>
        <time>2018-07-29T12:32:23Z</time>
      </trkpt>
      <trkpt lat="40.457983" lon="-5.249150">
        <ele>2325.0</ele>
        <time>2018-07-29T12:32:24Z</time>
      </trkpt>
      <trkpt lat="40.457967" lon="-5.249233">
        <ele>2324.0</ele>
        <time>2018-07-29T12:32:25Z</time>
      </trkpt>
      <trkpt lat="40.457983" lon="-5.249333">
        <ele>2321.0</ele>
        <time>2018-07-29T12:32:26Z</time>
      </trkpt>
      <trkpt lat="40.458033" lon="-5.249450">
        <ele>2320.0</ele>
        <time>2018-07-29T12:32:27Z</time>
      </trkpt>
      <trkpt lat="40.458100" lon="-5.249517">
        <ele>2321.0</ele>
        <time>2018-07-29T12:32:28Z</time>
      </trkpt>
      <trkpt lat="40.458200" lon="-5.249567">
        <ele>2324.0</ele>
        <time>2018-07-29T12:32:29Z</time>
      </trkpt>
      <trkpt lat="40.458267" lon="-5.249600">
        <ele>2328.0</ele>
        <time>2018-07-29T12:32:30Z</time>
      </trkpt>
      <trkpt lat="40.458333" lon="-5.249617">
        <ele>2331.0</ele>
        <time>2018-07-29T12:32:31Z</time>
      </trkpt>
      <trkpt lat="40.458400" lon="-5.249617">
        <ele>2331.0</ele>
        <time>2018-07-29T12:32:32Z</time>
      </trkpt>
      <trkpt lat="40.458483" lon="-5.249633">
        <ele>2331.0</ele>
        <time>2018-07-29T12:32:33Z</time>
      </trkpt>
      <trkpt lat="40.458567" lon="-5.249617">
        <ele>2330.0</ele>
        <time>2018-07-29T12:32:34Z</time>
      </trkpt>
      <trkpt lat="40.458667" lon="-5.249600">
        <ele>2330.0</ele>
        <time>2018-07-29T12:32:35Z</time>
      </trkpt>
      <trkpt lat="40.458767" lon="-5.249550">
        <ele>2330.0</ele>
        <time>2018-07-29T12:32:36Z</time>
      </trkpt>
      <trkpt lat="40.458867" lon="-5.249500">
        <ele>2330.0</ele>
        <time>2018-07-29T12:32:37Z</time>
      </trkpt>
      <trkpt lat="40.458933" lon="-5.249433">
        <ele>2330.0</ele>
        <time>2018-07-29T12:32:38Z</time>
      </trkpt>
      <trkpt lat="40.458983" lon="-5.249383">
        <ele>2328.0</ele>
        <time>2018-07-29T12:32:39Z</time>
      </trkpt>
      <trkpt lat="40.459050" lon="-5.249333">
        <ele>2325.0</ele>
        <time>2018-07-29T12:32:40Z</time>
      </trkpt>
      <trkpt lat="40.459117" lon="-5.249300">
        <ele>2322.0</ele>
        <time>2018-07-29T12:32:41Z</time>
      </trkpt>
      <trkpt lat="40.459200" lon="-5.249250">
        <ele>2317.0</ele>
        <time>2018-07-29T12:32:42Z</time>
      </trkpt>
      <trkpt lat="40.459283" lon="-5.249183">
        <ele>2313.0</ele>
        <time>2018-07-29T12:32:43Z</time>
      </trkpt>
      <trkpt lat="40.459383" lon="-5.249100">
        <ele>2309.0</ele>
        <time>2018-07-29T12:32:44Z</time>
      </trkpt>
      <trkpt lat="40.459483" lon="-5.249033">
        <ele>2307.0</ele>
        <time>2018-07-29T12:32:45Z</time>
      </trkpt>
      <trkpt lat="40.459567" lon="-5.248983">
        <ele>2306.0</ele>
        <time>2018-07-29T12:32:46Z</time>
      </trkpt>
      <trkpt lat="40.459667" lon="-5.248933">
        <ele>2306.0</ele>
        <time>2018-07-29T12:32:47Z</time>
      </trkpt>
      <trkpt lat="40.459733" lon="-5.248883">
        <ele>2306.0</ele>
        <time>2018-07-29T12:32:48Z</time>
      </trkpt>
      <trkpt lat="40.459817" lon="-5.248833">
        <ele>2305.0</ele>
        <time>2018-07-29T12:32:49Z</time>
      </trkpt>
      <trkpt lat="40.459883" lon="-5.248800">
        <ele>2304.0</ele>
        <time>2018-07-29T12:32:50Z</time>
      </trkpt>
      <trkpt lat="40.459967" lon="-5.248750">
        <ele>2301.0</ele>
        <time>2018-07-29T12:32:51Z</time>
      </trkpt>
      <trkpt lat="40.460050" lon="-5.248700">
        <ele>2299.0</ele>
        <time>2018-07-29T12:32:52Z</time>
      </trkpt>
      <trkpt lat="40.460133" lon="-5.248650">
        <ele>2297.0</ele>
        <time>2018-07-29T12:32:53Z</time>
      </trkpt>
      <trkpt lat="40.460233" lon="-5.248583">
        <ele>2296.0</ele>
        <time>2018-07-29T12:32:54Z</time>
      </trkpt>
      <trkpt lat="40.460317" lon="-5.248500">
        <ele>2295.0</ele>
        <time>2018-07-29T12:32:55Z</time>
      </trkpt>
      <trkpt lat="40.460417" lon="-5.248400">
        <ele>2295.0</ele>
        <time>2018-07-29T12:32:56Z</time>
      </trkpt>
      <trkpt lat="40.460500" lon="-5.248317">
        <ele>2294.0</ele>
        <time>2018-07-29T12:32:57Z</time>
      </trkpt>
      <trkpt lat="40.460583" lon="-5.248233">
        <ele>2294.0</ele>
        <time>2018-07-29T12:32:58Z</time>
      </trkpt>
      <trkpt lat="40.460650" lon="-5.248150">
        <ele>2293.0</ele>
        <time>2018-07-29T12:32:59Z</time>
      </trkpt>
      <trkpt lat="40.460733" lon="-5.248067">
        <ele>2291.0</ele>
        <time>2018-07-29T12:33:00Z</time>
      </trkpt>
      <trkpt lat="40.460800" lon="-5.247983">
        <ele>2289.0</ele>
        <time>2018-07-29T12:33:01Z</time>
      </trkpt>
      <trkpt lat="40.460883" lon="-5.247883">
        <ele>2285.0</ele>
        <time>2018-07-29T12:33:02Z</time>
      </trkpt>
      <trkpt lat="40.460983" lon="-5.247800">
        <ele>2283.0</ele>
        <time>2018-07-29T12:33:03Z</time>
      </trkpt>
      <trkpt lat="40.461067" lon="-5.247700">
        <ele>2281.0</ele>
        <time>2018-07-29T12:33:04Z</time>
      </trkpt>
      <trkpt lat="40.461167" lon="-5.247600">
        <ele>2279.0</ele>
        <time>2018-07-29T12:33:05Z</time>
      </trkpt>
      <trkpt lat="40.461233" lon="-5.247500">
        <ele>2278.0</ele>
        <time>2018-07-29T12:33:06Z</time>
      </trkpt>
      <trkpt lat="40.461317" lon="-5.247417">
        <ele>2276.0</ele>
        <time>2018-07-29T12:33:07Z</time>
      </trkpt>
      <trkpt lat="40.461400" lon="-5.247317">
        <ele>2275.0</ele>
        <time>2018-07-29T12:33:08Z</time>
      </trkpt>
      <trkpt lat="40.461467" lon="-5.247233">
        <ele>2273.0</ele>
        <time>2018-07-29T12:33:09Z</time>
      </trkpt>
      <trkpt lat="40.461550" lon="-5.247133">
        <ele>2271.0</ele>
        <time>2018-07-29T12:33:10Z</time>
      </trkpt>
      <trkpt lat="40.461633" lon="-5.247050">
        <ele>2270.0</ele>
        <time>2018-07-29T12:33:11Z</time>
      </trkpt>
      <trkpt lat="40.461700" lon="-5.246967">
        <ele>2269.0</ele>
        <time>2018-07-29T12:33:12Z</time>
      </trkpt>
      <trkpt lat="40.461767" lon="-5.246883">
        <ele>2267.0</ele>
        <time>2018-07-29T12:33:13Z</time>
      </trkpt>
      <trkpt lat="40.461833" lon="-5.246783">
        <ele>2266.0</ele>
        <time>2018-07-29T12:33:14Z</time>
      </trkpt>
      <trkpt lat="40.461900" lon="-5.246700">
        <ele>2264.0</ele>
        <time>2018-07-29T12:33:15Z</time>
      </trkpt>
      <trkpt lat="40.461967" lon="-5.246600">
        <ele>2262.0</ele>
        <time>2018-07-29T12:33:16Z</time>
      </trkpt>
      <trkpt lat="40.462050" lon="-5.246500">
        <ele>2260.0</ele>
        <time>2018-07-29T12:33:17Z</time>
      </trkpt>
      <trkpt lat="40.462117" lon="-5.246433">
        <ele>2259.0</ele>
        <time>2018-07-29T12:33:18Z</time>
      </trkpt>
      <trkpt lat="40.462200" lon="-5.246350">
        <ele>2258.0</ele>
        <time>2018-07-29T12:33:19Z</time>
      </trkpt>
      <trkpt lat="40.462283" lon="-5.246283">
        <ele>2256.0</ele>
        <time>2018-07-29T12:33:20Z</time>
      </trkpt>
      <trkpt lat="40.462350" lon="-5.246217">
        <ele>2254.0</ele>
        <time>2018-07-29T12:33:21Z</time>
      </trkpt>
      <trkpt lat="40.462433" lon="-5.246150">
        <ele>2252.0</ele>
        <time>2018-07-29T12:33:22Z</time>
      </trkpt>
      <trkpt lat="40.462517" lon="-5.246083">
        <ele>2250.0</ele>
        <time>2018-07-29T12:33:23Z</time>
      </trkpt>
      <trkpt lat="40.462600" lon="-5.246033">
        <ele>2248.0</ele>
        <time>2018-07-29T12:33:24Z</time>
      </trkpt>
      <trkpt lat="40.462683" lon="-5.246000">
        <ele>2247.0</ele>
        <time>2018-07-29T12:33:25Z</time>
      </trkpt>
      <trkpt lat="40.462750" lon="-5.245967">
        <ele>2245.0</ele>
        <time>2018-07-29T12:33:26Z</time>
      </trkpt>
      <trkpt lat="40.462817" lon="-5.245950">
        <ele>2243.0</ele>
        <time>2018-07-29T12:33:27Z</time>
      </trkpt>
      <trkpt lat="40.462883" lon="-5.245950">
        <ele>2241.0</ele>
        <time>2018-07-29T12:33:28Z</time>
      </trkpt>
      <trkpt lat="40.462950" lon="-5.245933">
        <ele>2239.0</ele>
        <time>2018-07-29T12:33:29Z</time>
      </trkpt>
      <trkpt lat="40.463050" lon="-5.245900">
        <ele>2238.0</ele>
        <time>2018-07-29T12:33:30Z</time>
      </trkpt>
      <trkpt lat="40.463150" lon="-5.245850">
        <ele>2239.0</ele>
        <time>2018-07-29T12:33:31Z</time>
      </trkpt>
      <trkpt lat="40.463250" lon="-5.245783">
        <ele>2241.0</ele>
        <time>2018-07-29T12:33:32Z</time>
      </trkpt>
      <trkpt lat="40.463333" lon="-5.245717">
        <ele>2242.0</ele>
        <time>2018-07-29T12:33:33Z</time>
      </trkpt>
      <trkpt lat="40.463400" lon="-5.245650">
        <ele>2242.0</ele>
        <time>2018-07-29T12:33:34Z</time>
      </trkpt>
      <trkpt lat="40.463483" lon="-5.245583">
        <ele>2242.0</ele>
        <time>2018-07-29T12:33:35Z</time>
      </trkpt>
      <trkpt lat="40.463567" lon="-5.245517">
        <ele>2241.0</ele>
        <time>2018-07-29T12:33:36Z</time>
      </trkpt>
      <trkpt lat="40.463650" lon="-5.245433">
        <ele>2240.0</ele>
        <time>2018-07-29T12:33:37Z</time>
      </trkpt>
      <trkpt lat="40.463733" lon="-5.245317">
        <ele>2239.0</ele>
        <time>2018-07-29T12:33:38Z</time>
      </trkpt>
      <trkpt lat="40.463817" lon="-5.245200">
        <ele>2238.0</ele>
        <time>2018-07-29T12:33:39Z</time>
      </trkpt>
      <trkpt lat="40.463900" lon="-5.245100">
        <ele>2237.0</ele>
        <time>2018-07-29T12:33:40Z</time>
      </trkpt>
      <trkpt lat="40.463967" lon="-5.245000">
        <ele>2235.0</ele>
        <time>2018-07-29T12:33:41Z</time>
      </trkpt>
      <trkpt lat="40.464050" lon="-5.244900">
        <ele>2234.0</ele>
        <time>2018-07-29T12:33:42Z</time>
      </trkpt>
      <trkpt lat="40.464117" lon="-5.244800">
        <ele>2232.0</ele>
        <time>2018-07-29T12:33:43Z</time>
      </trkpt>
      <trkpt lat="40.464183" lon="-5.244700">
        <ele>2230.0</ele>
        <time>2018-07-29T12:33:44Z</time>
      </trkpt>
      <trkpt lat="40.464250" lon="-5.244583">
        <ele>2228.0</ele>
        <time>2018-07-29T12:33:45Z</time>
      </trkpt>
      <trkpt lat="40.464317" lon="-5.244483">
        <ele>2226.0</ele>
        <time>2018-07-29T12:33:46Z</time>
      </trkpt>
      <trkpt lat="40.464383" lon="-5.244383">
        <ele>2224.0</ele>
        <time>2018-07-29T12:33:47Z</time>
      </trkpt>
      <trkpt lat="40.464467" lon="-5.244300">
        <ele>2222.0</ele>
        <time>2018-07-29T12:33:48Z</time>
      </trkpt>
      <trkpt lat="40.464550" lon="-5.244233">
        <ele>2220.0</ele>
        <time>2018-07-29T12:33:49Z</time>
      </trkpt>
      <trkpt lat="40.464633" lon="-5.244150">
        <ele>2218.0</ele>
        <time>2018-07-29T12:33:50Z</time>
      </trkpt>
      <trkpt lat="40.464717" lon="-5.244083">
        <ele>2217.0</ele>
        <time>2018-07-29T12:33:51Z</time>
      </trkpt>
      <trkpt lat="40.464800" lon="-5.244000">
        <ele>2217.0</ele>
        <time>2018-07-29T12:33:52Z</time>
      </trkpt>
      <trkpt lat="40.464900" lon="-5.243933">
        <ele>2217.0</ele>
        <time>2018-07-29T12:33:53Z</time>
      </trkpt>
      <trkpt lat="40.464983" lon="-5.243833">
        <ele>2217.0</ele>
        <time>2018-07-29T12:33:54Z</time>
      </trkpt>
      <trkpt lat="40.465067" lon="-5.243733">
        <ele>2216.0</ele>
        <time>2018-07-29T12:33:55Z</time>
      </trkpt>
      <trkpt lat="40.465167" lon="-5.243633">
        <ele>2216.0</ele>
        <time>2018-07-29T12:33:56Z</time>
      </trkpt>
      <trkpt lat="40.465250" lon="-5.243533">
        <ele>2216.0</ele>
        <time>2018-07-29T12:33:57Z</time>
      </trkpt>
      <trkpt lat="40.465317" lon="-5.243417">
        <ele>2217.0</ele>
        <time>2018-07-29T12:33:58Z</time>
      </trkpt>
      <trkpt lat="40.465383" lon="-5.243300">
        <ele>2219.0</ele>
        <time>2018-07-29T12:33:59Z</time>
      </trkpt>
      <trkpt lat="40.465433" lon="-5.243183">
        <ele>2220.0</ele>
        <time>2018-07-29T12:34:00Z</time>
      </trkpt>
      <trkpt lat="40.465483" lon="-5.243067">
        <ele>2220.0</ele>
        <time>2018-07-29T12:34:01Z</time>
      </trkpt>
      <trkpt lat="40.465533" lon="-5.242950">
        <ele>2220.0</ele>
        <time>2018-07-29T12:34:02Z</time>
      </trkpt>
      <trkpt lat="40.465600" lon="-5.242850">
        <ele>2220.0</ele>
        <time>2018-07-29T12:34:03Z</time>
      </trkpt>
      <trkpt lat="40.465650" lon="-5.242733">
        <ele>2219.0</ele>
        <time>2018-07-29T12:34:04Z</time>
      </trkpt>
      <trkpt lat="40.465717" lon="-5.242617">
        <ele>2219.0</ele>
        <time>2018-07-29T12:34:05Z</time>
      </trkpt>
      <trkpt lat="40.465767" lon="-5.242517">
        <ele>2219.0</ele>
        <time>2018-07-29T12:34:06Z</time>
      </trkpt>
      <trkpt lat="40.465833" lon="-5.242400">
        <ele>2220.0</ele>
        <time>2018-07-29T12:34:07Z</time>
      </trkpt>
      <trkpt lat="40.465900" lon="-5.242317">
        <ele>2221.0</ele>
        <time>2018-07-29T12:34:08Z</time>
      </trkpt>
      <trkpt lat="40.465983" lon="-5.242233">
        <ele>2222.0</ele>
        <time>2018-07-29T12:34:09Z</time>
      </trkpt>
      <trkpt lat="40.466050" lon="-5.242150">
        <ele>2223.0</ele>
        <time>2018-07-29T12:34:10Z</time>
      </trkpt>
      <trkpt lat="40.466117" lon="-5.242083">
        <ele>2224.0</ele>
        <time>2018-07-29T12:34:11Z</time>
      </trkpt>
      <trkpt lat="40.466200" lon="-5.242017">
        <ele>2224.0</ele>
        <time>2018-07-29T12:34:12Z</time>
      </trkpt>
      <trkpt lat="40.466283" lon="-5.241967">
        <ele>2225.0</ele>
        <time>2018-07-29T12:34:13Z</time>
      </trkpt>
      <trkpt lat="40.466367" lon="-5.241933">
        <ele>2225.0</ele>
        <time>2018-07-29T12:34:14Z</time>
      </trkpt>
      <trkpt lat="40.466450" lon="-5.241917">
        <ele>2226.0</ele>
        <time>2018-07-29T12:34:15Z</time>
      </trkpt>
      <trkpt lat="40.466533" lon="-5.241883">
        <ele>2226.0</ele>
        <time>2018-07-29T12:34:16Z</time>
      </trkpt>
      <trkpt lat="40.466617" lon="-5.241850">
        <ele>2227.0</ele>
        <time>2018-07-29T12:34:17Z</time>
      </trkpt>
      <trkpt lat="40.466683" lon="-5.241817">
        <ele>2228.0</ele>
        <time>2018-07-29T12:34:18Z</time>
      </trkpt>
      <trkpt lat="40.466767" lon="-5.241767">
        <ele>2229.0</ele>
        <time>2018-07-29T12:34:19Z</time>
      </trkpt>
      <trkpt lat="40.466833" lon="-5.241733">
        <ele>2230.0</ele>
        <time>2018-07-29T12:34:20Z</time>
      </trkpt>
      <trkpt lat="40.466883" lon="-5.241683">
        <ele>2231.0</ele>
        <time>2018-07-29T12:34:21Z</time>
      </trkpt>
      <trkpt lat="40.466950" lon="-5.241667">
        <ele>2232.0</ele>
        <time>2018-07-29T12:34:22Z</time>
      </trkpt>
      <trkpt lat="40.467017" lon="-5.241667">
        <ele>2233.0</ele>
        <time>2018-07-29T12:34:23Z</time>
      </trkpt>
      <trkpt lat="40.467083" lon="-5.241683">
        <ele>2234.0</ele>
        <time>2018-07-29T12:34:24Z</time>
      </trkpt>
      <trkpt lat="40.467150" lon="-5.241717">
        <ele>2236.0</ele>
        <time>2018-07-29T12:34:25Z</time>
      </trkpt>
      <trkpt lat="40.467200" lon="-5.241750">
        <ele>2239.0</ele>
        <time>2018-07-29T12:34:26Z</time>
      </trkpt>
      <trkpt lat="40.467217" lon="-5.241800">
        <ele>2242.0</ele>
        <time>2018-07-29T12:34:27Z</time>
      </trkpt>
      <trkpt lat="40.467217" lon="-5.241850">
        <ele>2243.0</ele>
        <time>2018-07-29T12:34:28Z</time>
      </trkpt>
      <trkpt lat="40.467167" lon="-5.241917">
        <ele>2244.0</ele>
        <time>2018-07-29T12:34:29Z</time>
      </trkpt>
      <trkpt lat="40.467100" lon="-5.241967">
        <ele>2245.0</ele>
        <time>2018-07-29T12:34:30Z</time>
      </trkpt>
      <trkpt lat="40.467017" lon="-5.241983">
        <ele>2247.0</ele>
        <time>2018-07-29T12:34:31Z</time>
      </trkpt>
      <trkpt lat="40.466933" lon="-5.241967">
        <ele>2249.0</ele>
        <time>2018-07-29T12:34:32Z</time>
      </trkpt>
      <trkpt lat="40.466833" lon="-5.241933">
        <ele>2250.0</ele>
        <time>2018-07-29T12:34:33Z</time>
      </trkpt>
      <trkpt lat="40.466717" lon="-5.241850">
        <ele>2251.0</ele>
        <time>2018-07-29T12:34:34Z</time>
      </trkpt>
      <trkpt lat="40.466600" lon="-5.241733">
        <ele>2252.0</ele>
        <time>2018-07-29T12:34:35Z</time>
      </trkpt>
      <trkpt lat="40.466533" lon="-5.241567">
        <ele>2254.0</ele>
        <time>2018-07-29T12:34:36Z</time>
      </trkpt>
      <trkpt lat="40.466483" lon="-5.241367">
        <ele>2255.0</ele>
        <time>2018-07-29T12:34:37Z</time>
      </trkpt>
      <trkpt lat="40.466467" lon="-5.241167">
        <ele>2256.0</ele>
        <time>2018-07-29T12:34:38Z</time>
      </trkpt>
      <trkpt lat="40.466483" lon="-5.241000">
        <ele>2257.0</ele>
        <time>2018-07-29T12:34:39Z</time>
      </trkpt>
      <trkpt lat="40.466533" lon="-5.240850">
        <ele>2257.0</ele>
        <time>2018-07-29T12:34:40Z</time>
      </trkpt>
      <trkpt lat="40.466583" lon="-5.240717">
        <ele>2256.0</ele>
        <time>2018-07-29T12:34:41Z</time>
      </trkpt>
      <trkpt lat="40.466667" lon="-5.240583">
        <ele>2255.0</ele>
        <time>2018-07-29T12:34:42Z</time>
      </trkpt>
      <trkpt lat="40.466767" lon="-5.240483">
        <ele>2256.0</ele>
        <time>2018-07-29T12:34:43Z</time>
      </trkpt>
      <trkpt lat="40.466850" lon="-5.240400">
        <ele>2259.0</ele>
        <time>2018-07-29T12:34:44Z</time>
      </trkpt>
      <trkpt lat="40.466933" lon="-5.240350">
        <ele>2262.0</ele>
        <time>2018-07-29T12:34:45Z</time>
      </trkpt>
      <trkpt lat="40.467000" lon="-5.240300">
        <ele>2264.0</ele>
        <time>2018-07-29T12:34:46Z</time>
      </trkpt>
      <trkpt lat="40.467067" lon="-5.240250">
        <ele>2266.0</ele>
        <time>2018-07-29T12:34:47Z</time>
      </trkpt>
      <trkpt lat="40.467133" lon="-5.240200">
        <ele>2266.0</ele>
        <time>2018-07-29T12:34:48Z</time>
      </trkpt>
      <trkpt lat="40.467217" lon="-5.240167">
        <ele>2267.0</ele>
        <time>2018-07-29T12:34:49Z</time>
      </trkpt>
      <trkpt lat="40.467300" lon="-5.240133">
        <ele>2268.0</ele>
        <time>2018-07-29T12:34:50Z</time>
      </trkpt>
      <trkpt lat="40.467367" lon="-5.240117">
        <ele>2270.0</ele>
        <time>2018-07-29T12:34:51Z</time>
      </trkpt>
      <trkpt lat="40.467433" lon="-5.240100">
        <ele>2271.0</ele>
        <time>2018-07-29T12:34:52Z</time>
      </trkpt>
      <trkpt lat="40.467483" lon="-5.240100">
        <ele>2273.0</ele>
        <time>2018-07-29T12:34:53Z</time>
      </trkpt>
      <trkpt lat="40.467533" lon="-5.240117">
        <ele>2275.0</ele>
        <time>2018-07-29T12:34:54Z</time>
      </trkpt>
      <trkpt lat="40.467567" lon="-5.240133">
        <ele>2276.0</ele>
        <time>2018-07-29T12:34:55Z</time>
      </trkpt>
      <trkpt lat="40.467617" lon="-5.240167">
        <ele>2276.0</ele>
        <time>2018-07-29T12:34:56Z</time>
      </trkpt>
      <trkpt lat="40.467650" lon="-5.240183">
        <ele>2277.0</ele>
        <time>2018-07-29T12:34:57Z</time>
      </trkpt>
      <trkpt lat="40.467700" lon="-5.240200">
        <ele>2277.0</ele>
        <time>2018-07-29T12:34:58Z</time>
      </trkpt>
      <trkpt lat="40.467783" lon="-5.240200">
        <ele>2278.0</ele>
        <time>2018-07-29T12:34:59Z</time>
      </trkpt>
      <trkpt lat="40.467850" lon="-5.240183">
        <ele>2278.0</ele>
        <time>2018-07-29T12:35:00Z</time>
      </trkpt>
      <trkpt lat="40.467917" lon="-5.240200">
        <ele>2279.0</ele>
        <time>2018-07-29T12:35:01Z</time>
      </trkpt>
      <trkpt lat="40.467967" lon="-5.240233">
        <ele>2280.0</ele>
        <time>2018-07-29T12:35:02Z</time>
      </trkpt>
      <trkpt lat="40.467983" lon="-5.240283">
        <ele>2280.0</ele>
        <time>2018-07-29T12:35:03Z</time>
      </trkpt>
      <trkpt lat="40.467950" lon="-5.240350">
        <ele>2280.0</ele>
        <time>2018-07-29T12:35:04Z</time>
      </trkpt>
      <trkpt lat="40.467900" lon="-5.240400">
        <ele>2280.0</ele>
        <time>2018-07-29T12:35:05Z</time>
      </trkpt>
      <trkpt lat="40.467817" lon="-5.240433">
        <ele>2281.0</ele>
        <time>2018-07-29T12:35:06Z</time>
      </trkpt>
      <trkpt lat="40.467700" lon="-5.240417">
        <ele>2281.0</ele>
        <time>2018-07-29T12:35:07Z</time>
      </trkpt>
      <trkpt lat="40.467600" lon="-5.240350">
        <ele>2282.0</ele>
        <time>2018-07-29T12:35:08Z</time>
      </trkpt>
      <trkpt lat="40.467500" lon="-5.240233">
        <ele>2283.0</ele>
        <time>2018-07-29T12:35:09Z</time>
      </trkpt>
      <trkpt lat="40.467433" lon="-5.240100">
        <ele>2283.0</ele>
        <time>2018-07-29T12:35:10Z</time>
      </trkpt>
      <trkpt lat="40.467367" lon="-5.239933">
        <ele>2282.0</ele>
        <time>2018-07-29T12:35:11Z</time>
      </trkpt>
      <trkpt lat="40.467350" lon="-5.239733">
        <ele>2282.0</ele>
        <time>2018-07-29T12:35:12Z</time>
      </trkpt>
      <trkpt lat="40.467350" lon="-5.239517">
        <ele>2282.0</ele>
        <time>2018-07-29T12:35:13Z</time>
      </trkpt>
      <trkpt lat="40.467383" lon="-5.239317">
        <ele>2283.0</ele>
        <time>2018-07-29T12:35:14Z</time>
      </trkpt>
      <trkpt lat="40.467433" lon="-5.239150">
        <ele>2285.0</ele>
        <time>2018-07-29T12:35:15Z</time>
      </trkpt>
      <trkpt lat="40.467517" lon="-5.239017">
        <ele>2286.0</ele>
        <time>2018-07-29T12:35:16Z</time>
      </trkpt>
      <trkpt lat="40.467600" lon="-5.238900">
        <ele>2288.0</ele>
        <time>2018-07-29T12:35:17Z</time>
      </trkpt>
      <trkpt lat="40.467683" lon="-5.238800">
        <ele>2290.0</ele>
        <time>2018-07-29T12:35:18Z</time>
      </trkpt>
      <trkpt lat="40.467750" lon="-5.238717">
        <ele>2291.0</ele>
        <time>2018-07-29T12:35:19Z</time>
      </trkpt>
      <trkpt lat="40.467817" lon="-5.238633">
        <ele>2292.0</ele>
        <time>2018-07-29T12:35:20Z</time>
      </trkpt>
      <trkpt lat="40.467883" lon="-5.238567">
        <ele>2292.0</ele>
        <time>2018-07-29T12:35:21Z</time>
      </trkpt>
      <trkpt lat="40.467967" lon="-5.238533">
        <ele>2292.0</ele>
        <time>2018-07-29T12:35:22Z</time>
      </trkpt>
      <trkpt lat="40.468050" lon="-5.238550">
        <ele>2292.0</ele>
        <time>2018-07-29T12:35:23Z</time>
      </trkpt>
      <trkpt lat="40.468100" lon="-5.238583">
        <ele>2293.0</ele>
        <time>2018-07-29T12:35:24Z</time>
      </trkpt>
      <trkpt lat="40.468133" lon="-5.238633">
        <ele>2295.0</ele>
        <time>2018-07-29T12:35:25Z</time>
      </trkpt>
      <trkpt lat="40.468117" lon="-5.238667">
        <ele>2296.0</ele>
        <time>2018-07-29T12:35:26Z</time>
      </trkpt>
      <trkpt lat="40.468100" lon="-5.238717">
        <ele>2297.0</ele>
        <time>2018-07-29T12:35:27Z</time>
      </trkpt>
      <trkpt lat="40.468050" lon="-5.238750">
        <ele>2297.0</ele>
        <time>2018-07-29T12:35:28Z</time>
      </trkpt>
      <trkpt lat="40.467967" lon="-5.238783">
        <ele>2296.0</ele>
        <time>2018-07-29T12:35:29Z</time>
      </trkpt>
      <trkpt lat="40.467867" lon="-5.238783">
        <ele>2296.0</ele>
        <time>2018-07-29T12:35:30Z</time>
      </trkpt>
      <trkpt lat="40.467750" lon="-5.238733">
        <ele>2296.0</ele>
        <time>2018-07-29T12:35:31Z</time>
      </trkpt>
      <trkpt lat="40.467633" lon="-5.238650">
        <ele>2297.0</ele>
        <time>2018-07-29T12:35:32Z</time>
      </trkpt>
      <trkpt lat="40.467533" lon="-5.238533">
        <ele>2298.0</ele>
        <time>2018-07-29T12:35:33Z</time>
      </trkpt>
      <trkpt lat="40.467467" lon="-5.238367">
        <ele>2299.0</ele>
        <time>2018-07-29T12:35:34Z</time>
      </trkpt>
      <trkpt lat="40.467400" lon="-5.238183">
        <ele>2300.0</ele>
        <time>2018-07-29T12:35:35Z</time>
      </trkpt>
      <trkpt lat="40.467383" lon="-5.237983">
        <ele>2300.0</ele>
        <time>2018-07-29T12:35:36Z</time>
      </trkpt>
      <trkpt lat="40.467383" lon="-5.237783">
        <ele>2301.0</ele>
        <time>2018-07-29T12:35:37Z</time>
      </trkpt>
      <trkpt lat="40.467417" lon="-5.237600">
        <ele>2302.0</ele>
        <time>2018-07-29T12:35:38Z</time>
      </trkpt>
      <trkpt lat="40.467467" lon="-5.237433">
        <ele>2303.0</ele>
        <time>2018-07-29T12:35:39Z</time>
      </trkpt>
      <trkpt lat="40.467533" lon="-5.237300">
        <ele>2304.0</ele>
        <time>2018-07-29T12:35:40Z</time>
      </trkpt>
      <trkpt lat="40.467600" lon="-5.237200">
        <ele>2305.0</ele>
        <time>2018-07-29T12:35:41Z</time>
      </trkpt>
      <trkpt lat="40.467683" lon="-5.237100">
        <ele>2306.0</ele>
        <time>2018-07-29T12:35:42Z</time>
      </trkpt>
      <trkpt lat="40.467750" lon="-5.237033">
        <ele>2306.0</ele>
        <time>2018-07-29T12:35:43Z</time>
      </trkpt>
      <trkpt lat="40.467833" lon="-5.236983">
        <ele>2306.0</ele>
        <time>2018-07-29T12:35:44Z</time>
      </trkpt>
      <trkpt lat="40.467917" lon="-5.236983">
        <ele>2306.0</ele>
        <time>2018-07-29T12:35:45Z</time>
      </trkpt>
      <trkpt lat="40.467983" lon="-5.237000">
        <ele>2306.0</ele>
        <time>2018-07-29T12:35:46Z</time>
      </trkpt>
      <trkpt lat="40.468033" lon="-5.237033">
        <ele>2307.0</ele>
        <time>2018-07-29T12:35:47Z</time>
      </trkpt>
      <trkpt lat="40.468067" lon="-5.237067">
        <ele>2309.0</ele>
        <time>2018-07-29T12:35:48Z</time>
      </trkpt>
      <trkpt lat="40.468067" lon="-5.237117">
        <ele>2311.0</ele>
        <time>2018-07-29T12:35:49Z</time>
      </trkpt>
      <trkpt lat="40.468050" lon="-5.237183">
        <ele>2312.0</ele>
        <time>2018-07-29T12:35:50Z</time>
      </trkpt>
      <trkpt lat="40.468017" lon="-5.237233">
        <ele>2312.0</ele>
        <time>2018-07-29T12:35:51Z</time>
      </trkpt>
      <trkpt lat="40.467950" lon="-5.237267">
        <ele>2312.0</ele>
        <time>2018-07-29T12:35:52Z</time>
      </trkpt>
      <trkpt lat="40.467850" lon="-5.237283">
        <ele>2312.0</ele>
        <time>2018-07-29T12:35:53Z</time>
      </trkpt>
      <trkpt lat="40.467750" lon="-5.237250">
        <ele>2312.0</ele>
        <time>2018-07-29T12:35:54Z</time>
      </trkpt>
      <trkpt lat="40.467633" lon="-5.237200">
        <ele>2312.0</ele>
        <time>2018-07-29T12:35:55Z</time>
      </trkpt>
      <trkpt lat="40.467533" lon="-5.237117">
        <ele>2312.0</ele>
        <time>2018-07-29T12:35:56Z</time>
      </trkpt>
      <trkpt lat="40.467433" lon="-5.236983">
        <ele>2312.0</ele>
        <time>2018-07-29T12:35:57Z</time>
      </trkpt>
      <trkpt lat="40.467350" lon="-5.236833">
        <ele>2312.0</ele>
        <time>2018-07-29T12:35:58Z</time>
      </trkpt>
      <trkpt lat="40.467283" lon="-5.236650">
        <ele>2312.0</ele>
        <time>2018-07-29T12:35:59Z</time>
      </trkpt>
      <trkpt lat="40.467250" lon="-5.236467">
        <ele>2313.0</ele>
        <time>2018-07-29T12:36:00Z</time>
      </trkpt>
      <trkpt lat="40.467233" lon="-5.236267">
        <ele>2313.0</ele>
        <time>2018-07-29T12:36:01Z</time>
      </trkpt>
      <trkpt lat="40.467250" lon="-5.236067">
        <ele>2314.0</ele>
        <time>2018-07-29T12:36:02Z</time>
      </trkpt>
      <trkpt lat="40.467283" lon="-5.235900">
        <ele>2314.0</ele>
        <time>2018-07-29T12:36:03Z</time>
      </trkpt>
      <trkpt lat="40.467333" lon="-5.235733">
        <ele>2315.0</ele>
        <time>2018-07-29T12:36:04Z</time>
      </trkpt>
      <trkpt lat="40.467417" lon="-5.235600">
        <ele>2315.0</ele>
        <time>2018-07-29T12:36:05Z</time>
      </trkpt>
      <trkpt lat="40.467500" lon="-5.235500">
        <ele>2315.0</ele>
        <time>2018-07-29T12:36:06Z</time>
      </trkpt>
      <trkpt lat="40.467583" lon="-5.235417">
        <ele>2316.0</ele>
        <time>2018-07-29T12:36:07Z</time>
      </trkpt>
      <trkpt lat="40.467667" lon="-5.235350">
        <ele>2317.0</ele>
        <time>2018-07-29T12:36:08Z</time>
      </trkpt>
      <trkpt lat="40.467733" lon="-5.235300">
        <ele>2317.0</ele>
        <time>2018-07-29T12:36:09Z</time>
      </trkpt>
      <trkpt lat="40.467817" lon="-5.235283">
        <ele>2317.0</ele>
        <time>2018-07-29T12:36:10Z</time>
      </trkpt>
      <trkpt lat="40.467883" lon="-5.235283">
        <ele>2316.0</ele>
        <time>2018-07-29T12:36:11Z</time>
      </trkpt>
      <trkpt lat="40.467933" lon="-5.235317">
        <ele>2316.0</ele>
        <time>2018-07-29T12:36:12Z</time>
      </trkpt>
      <trkpt lat="40.467983" lon="-5.235367">
        <ele>2317.0</ele>
        <time>2018-07-29T12:36:13Z</time>
      </trkpt>
      <trkpt lat="40.468000" lon="-5.235417">
        <ele>2317.0</ele>
        <time>2018-07-29T12:36:14Z</time>
      </trkpt>
      <trkpt lat="40.468000" lon="-5.235467">
        <ele>2317.0</ele>
        <time>2018-07-29T12:36:15Z</time>
      </trkpt>
      <trkpt lat="40.467983" lon="-5.235517">
        <ele>2317.0</ele>
        <time>2018-07-29T12:36:16Z</time>
      </trkpt>
      <trkpt lat="40.467967" lon="-5.235583">
        <ele>2316.0</ele>
        <time>2018-07-29T12:36:17Z</time>
      </trkpt>
      <trkpt lat="40.467917" lon="-5.235650">
        <ele>2316.0</ele>
        <time>2018-07-29T12:36:18Z</time>
      </trkpt>
      <trkpt lat="40.467850" lon="-5.235700">
        <ele>2317.0</ele>
        <time>2018-07-29T12:36:19Z</time>
      </trkpt>
      <trkpt lat="40.467783" lon="-5.235717">
        <ele>2318.0</ele>
        <time>2018-07-29T12:36:20Z</time>
      </trkpt>
      <trkpt lat="40.467683" lon="-5.235733">
        <ele>2320.0</ele>
        <time>2018-07-29T12:36:21Z</time>
      </trkpt>
      <trkpt lat="40.467583" lon="-5.235700">
        <ele>2320.0</ele>
        <time>2018-07-29T12:36:22Z</time>
      </trkpt>
      <trkpt lat="40.467483" lon="-5.235633">
        <ele>2320.0</ele>
        <time>2018-07-29T12:36:23Z</time>
      </trkpt>
      <trkpt lat="40.467383" lon="-5.235550">
        <ele>2319.0</ele>
        <time>2018-07-29T12:36:24Z</time>
      </trkpt>
      <trkpt lat="40.467300" lon="-5.235450">
        <ele>2319.0</ele>
        <time>2018-07-29T12:36:25Z</time>
      </trkpt>
      <trkpt lat="40.467200" lon="-5.235300">
        <ele>2318.0</ele>
        <time>2018-07-29T12:36:26Z</time>
      </trkpt>
      <trkpt lat="40.467133" lon="-5.235133">
        <ele>2318.0</ele>
        <time>2018-07-29T12:36:27Z</time>
      </trkpt>
      <trkpt lat="40.467067" lon="-5.234967">
        <ele>2319.0</ele>
        <time>2018-07-29T12:36:28Z</time>
      </trkpt>
      <trkpt lat="40.467033" lon="-5.234767">
        <ele>2320.0</ele>
        <time>2018-07-29T12:36:29Z</time>
      </trkpt>
      <trkpt lat="40.467017" lon="-5.234583">
        <ele>2320.0</ele>
        <time>2018-07-29T12:36:30Z</time>
      </trkpt>
      <trkpt lat="40.467017" lon="-5.234417">
        <ele>2320.0</ele>
        <time>2018-07-29T12:36:31Z</time>
      </trkpt>
      <trkpt lat="40.467033" lon="-5.234233">
        <ele>2319.0</ele>
        <time>2018-07-29T12:36:32Z</time>
      </trkpt>
      <trkpt lat="40.467067" lon="-5.234050">
        <ele>2318.0</ele>
        <time>2018-07-29T12:36:33Z</time>
      </trkpt>
      <trkpt lat="40.467133" lon="-5.233883">
        <ele>2318.0</ele>
        <time>2018-07-29T12:36:34Z</time>
      </trkpt>
      <trkpt lat="40.467200" lon="-5.233733">
        <ele>2319.0</ele>
        <time>2018-07-29T12:36:35Z</time>
      </trkpt>
      <trkpt lat="40.467283" lon="-5.233617">
        <ele>2320.0</ele>
        <time>2018-07-29T12:36:36Z</time>
      </trkpt>
      <trkpt lat="40.467333" lon="-5.233533">
        <ele>2321.0</ele>
        <time>2018-07-29T12:36:37Z</time>
      </trkpt>
      <trkpt lat="40.467400" lon="-5.233467">
        <ele>2321.0</ele>
        <time>2018-07-29T12:36:38Z</time>
      </trkpt>
      <trkpt lat="40.467483" lon="-5.233417">
        <ele>2320.0</ele>
        <time>2018-07-29T12:36:39Z</time>
      </trkpt>
      <trkpt lat="40.467550" lon="-5.233400">
        <ele>2319.0</ele>
        <time>2018-07-29T12:36:40Z</time>
      </trkpt>
      <trkpt lat="40.467633" lon="-5.233383">
        <ele>2319.0</ele>
        <time>2018-07-29T12:36:41Z</time>
      </trkpt>
      <trkpt lat="40.467700" lon="-5.233400">
        <ele>2319.0</ele>
        <time>2018-07-29T12:36:42Z</time>
      </trkpt>
      <trkpt lat="40.467767" lon="-5.233417">
        <ele>2319.0</ele>
        <time>2018-07-29T12:36:43Z</time>
      </trkpt>
      <trkpt lat="40.467817" lon="-5.233433">
        <ele>2320.0</ele>
        <time>2018-07-29T12:36:44Z</time>
      </trkpt>
      <trkpt lat="40.467867" lon="-5.233450">
        <ele>2320.0</ele>
        <time>2018-07-29T12:36:45Z</time>
      </trkpt>
      <trkpt lat="40.467933" lon="-5.233467">
        <ele>2319.0</ele>
        <time>2018-07-29T12:36:46Z</time>
      </trkpt>
      <trkpt lat="40.468000" lon="-5.233483">
        <ele>2318.0</ele>
        <time>2018-07-29T12:36:47Z</time>
      </trkpt>
      <trkpt lat="40.468083" lon="-5.233483">
        <ele>2317.0</ele>
        <time>2018-07-29T12:36:48Z</time>
      </trkpt>
      <trkpt lat="40.468167" lon="-5.233467">
        <ele>2317.0</ele>
        <time>2018-07-29T12:36:49Z</time>
      </trkpt>
      <trkpt lat="40.468233" lon="-5.233450">
        <ele>2317.0</ele>
        <time>2018-07-29T12:36:50Z</time>
      </trkpt>
      <trkpt lat="40.468317" lon="-5.233433">
        <ele>2317.0</ele>
        <time>2018-07-29T12:36:51Z</time>
      </trkpt>
      <trkpt lat="40.468400" lon="-5.233417">
        <ele>2317.0</ele>
        <time>2018-07-29T12:36:52Z</time>
      </trkpt>
      <trkpt lat="40.468483" lon="-5.233383">
        <ele>2316.0</ele>
        <time>2018-07-29T12:36:53Z</time>
      </trkpt>
      <trkpt lat="40.468583" lon="-5.233350">
        <ele>2315.0</ele>
        <time>2018-07-29T12:36:54Z</time>
      </trkpt>
      <trkpt lat="40.468667" lon="-5.233317">
        <ele>2314.0</ele>
        <time>2018-07-29T12:36:55Z</time>
      </trkpt>
      <trkpt lat="40.468750" lon="-5.233283">
        <ele>2313.0</ele>
        <time>2018-07-29T12:36:56Z</time>
      </trkpt>
      <trkpt lat="40.468850" lon="-5.233233">
        <ele>2312.0</ele>
        <time>2018-07-29T12:36:57Z</time>
      </trkpt>
      <trkpt lat="40.468933" lon="-5.233183">
        <ele>2311.0</ele>
        <time>2018-07-29T12:36:58Z</time>
      </trkpt>
      <trkpt lat="40.469017" lon="-5.233117">
        <ele>2310.0</ele>
        <time>2018-07-29T12:36:59Z</time>
      </trkpt>
      <trkpt lat="40.469100" lon="-5.233083">
        <ele>2308.0</ele>
        <time>2018-07-29T12:37:00Z</time>
      </trkpt>
      <trkpt lat="40.469183" lon="-5.233050">
        <ele>2308.0</ele>
        <time>2018-07-29T12:37:01Z</time>
      </trkpt>
      <trkpt lat="40.469267" lon="-5.233033">
        <ele>2307.0</ele>
        <time>2018-07-29T12:37:02Z</time>
      </trkpt>
      <trkpt lat="40.469367" lon="-5.233050">
        <ele>2306.0</ele>
        <time>2018-07-29T12:37:03Z</time>
      </trkpt>
      <trkpt lat="40.469450" lon="-5.233033">
        <ele>2306.0</ele>
        <time>2018-07-29T12:37:04Z</time>
      </trkpt>
      <trkpt lat="40.469533" lon="-5.233017">
        <ele>2306.0</ele>
        <time>2018-07-29T12:37:05Z</time>
      </trkpt>
      <trkpt lat="40.469617" lon="-5.232983">
        <ele>2306.0</ele>
        <time>2018-07-29T12:37:06Z</time>
      </trkpt>
      <trkpt lat="40.469700" lon="-5.232950">
        <ele>2304.0</ele>
        <time>2018-07-29T12:37:07Z</time>
      </trkpt>
      <trkpt lat="40.469783" lon="-5.232900">
        <ele>2303.0</ele>
        <time>2018-07-29T12:37:08Z</time>
      </trkpt>
      <trkpt lat="40.469867" lon="-5.232867">
        <ele>2301.0</ele>
        <time>2018-07-29T12:37:09Z</time>
      </trkpt>
      <trkpt lat="40.469950" lon="-5.232833">
        <ele>2299.0</ele>
        <time>2018-07-29T12:37:10Z</time>
      </trkpt>
      <trkpt lat="40.470033" lon="-5.232783">
        <ele>2298.0</ele>
        <time>2018-07-29T12:37:11Z</time>
      </trkpt>
      <trkpt lat="40.470117" lon="-5.232750">
        <ele>2296.0</ele>
        <time>2018-07-29T12:37:12Z</time>
      </trkpt>
      <trkpt lat="40.470200" lon="-5.232700">
        <ele>2294.0</ele>
        <time>2018-07-29T12:37:13Z</time>
      </trkpt>
      <trkpt lat="40.470267" lon="-5.232650">
        <ele>2292.0</ele>
        <time>2018-07-29T12:37:14Z</time>
      </trkpt>
      <trkpt lat="40.470350" lon="-5.232600">
        <ele>2291.0</ele>
        <time>2018-07-29T12:37:15Z</time>
      </trkpt>
      <trkpt lat="40.470433" lon="-5.232550">
        <ele>2289.0</ele>
        <time>2018-07-29T12:37:16Z</time>
      </trkpt>
      <trkpt lat="40.470500" lon="-5.232483">
        <ele>2288.0</ele>
        <time>2018-07-29T12:37:17Z</time>
      </trkpt>
      <trkpt lat="40.470583" lon="-5.232417">
        <ele>2287.0</ele>
        <time>2018-07-29T12:37:18Z</time>
      </trkpt>
      <trkpt lat="40.470667" lon="-5.232350">
        <ele>2286.0</ele>
        <time>2018-07-29T12:37:19Z</time>
      </trkpt>
      <trkpt lat="40.470750" lon="-5.232283">
        <ele>2285.0</ele>
        <time>2018-07-29T12:37:20Z</time>
      </trkpt>
      <trkpt lat="40.470833" lon="-5.232217">
        <ele>2284.0</ele>
        <time>2018-07-29T12:37:21Z</time>
      </trkpt>
      <trkpt lat="40.470917" lon="-5.232167">
        <ele>2283.0</ele>
        <time>2018-07-29T12:37:22Z</time>
      </trkpt>
      <trkpt lat="40.471000" lon="-5.232100">
        <ele>2281.0</ele>
        <time>2018-07-29T12:37:23Z</time>
      </trkpt>
      <trkpt lat="40.471067" lon="-5.232033">
        <ele>2280.0</ele>
        <time>2018-07-29T12:37:24Z</time>
      </trkpt>
      <trkpt lat="40.471150" lon="-5.231933">
        <ele>2278.0</ele>
        <time>2018-07-29T12:37:25Z</time>
      </trkpt>
      <trkpt lat="40.471217" lon="-5.231833">
        <ele>2277.0</ele>
        <time>2018-07-29T12:37:26Z</time>
      </trkpt>
      <trkpt lat="40.471300" lon="-5.231717">
        <ele>2275.0</ele>
        <time>2018-07-29T12:37:27Z</time>
      </trkpt>
      <trkpt lat="40.471383" lon="-5.231600">
        <ele>2274.0</ele>
        <time>2018-07-29T12:37:28Z</time>
      </trkpt>
      <trkpt lat="40.471467" lon="-5.231483">
        <ele>2275.0</ele>
        <time>2018-07-29T12:37:29Z</time>
      </trkpt>
      <trkpt lat="40.471533" lon="-5.231367">
        <ele>2277.0</ele>
        <time>2018-07-29T12:37:30Z</time>
      </trkpt>
      <trkpt lat="40.471600" lon="-5.231267">
        <ele>2278.0</ele>
        <time>2018-07-29T12:37:31Z</time>
      </trkpt>
      <trkpt lat="40.471667" lon="-5.231167">
        <ele>2279.0</ele>
        <time>2018-07-29T12:37:32Z</time>
      </trkpt>
      <trkpt lat="40.471733" lon="-5.231050">
        <ele>2279.0</ele>
        <time>2018-07-29T12:37:33Z</time>
      </trkpt>
      <trkpt lat="40.471817" lon="-5.230917">
        <ele>2278.0</ele>
        <time>2018-07-29T12:37:34Z</time>
      </trkpt>
      <trkpt lat="40.471883" lon="-5.230783">
        <ele>2277.0</ele>
        <time>2018-07-29T12:37:35Z</time>
      </trkpt>
      <trkpt lat="40.471967" lon="-5.230633">
        <ele>2278.0</ele>
        <time>2018-07-29T12:37:36Z</time>
      </trkpt>
      <trkpt lat="40.472033" lon="-5.230467">
        <ele>2280.0</ele>
        <time>2018-07-29T12:37:37Z</time>
      </trkpt>
      <trkpt lat="40.472067" lon="-5.230283">
        <ele>2283.0</ele>
        <time>2018-07-29T12:37:38Z</time>
      </trkpt>
      <trkpt lat="40.472100" lon="-5.230100">
        <ele>2285.0</ele>
        <time>2018-07-29T12:37:39Z</time>
      </trkpt>
      <trkpt lat="40.472133" lon="-5.229917">
        <ele>2286.0</ele>
        <time>2018-07-29T12:37:40Z</time>
      </trkpt>
      <trkpt lat="40.472183" lon="-5.229750">
        <ele>2287.0</ele>
        <time>2018-07-29T12:37:41Z</time>
      </trkpt>
      <trkpt lat="40.472233" lon="-5.229583">
        <ele>2288.0</ele>
        <time>2018-07-29T12:37:42Z</time>
      </trkpt>
      <trkpt lat="40.472300" lon="-5.229417">
        <ele>2288.0</ele>
        <time>2018-07-29T12:37:43Z</time>
      </trkpt>
      <trkpt lat="40.472367" lon="-5.229267">
        <ele>2289.0</ele>
        <time>2018-07-29T12:37:44Z</time>
      </trkpt>
      <trkpt lat="40.472433" lon="-5.229100">
        <ele>2291.0</ele>
        <time>2018-07-29T12:37:45Z</time>
      </trkpt>
      <trkpt lat="40.472500" lon="-5.228967">
        <ele>2292.0</ele>
        <time>2018-07-29T12:37:46Z</time>
      </trkpt>
      <trkpt lat="40.472567" lon="-5.228833">
        <ele>2293.0</ele>
        <time>2018-07-29T12:37:47Z</time>
      </trkpt>
      <trkpt lat="40.472633" lon="-5.228717">
        <ele>2293.0</ele>
        <time>2018-07-29T12:37:48Z</time>
      </trkpt>
      <trkpt lat="40.472717" lon="-5.228600">
        <ele>2292.0</ele>
        <time>2018-07-29T12:37:49Z</time>
      </trkpt>
      <trkpt lat="40.472817" lon="-5.228500">
        <ele>2292.0</ele>
        <time>2018-07-29T12:37:50Z</time>
      </trkpt>
      <trkpt lat="40.472917" lon="-5.228417">
        <ele>2293.0</ele>
        <time>2018-07-29T12:37:51Z</time>
      </trkpt>
      <trkpt lat="40.473000" lon="-5.228333">
        <ele>2294.0</ele>
        <time>2018-07-29T12:37:52Z</time>
      </trkpt>
      <trkpt lat="40.473083" lon="-5.228283">
        <ele>2295.0</ele>
        <time>2018-07-29T12:37:53Z</time>
      </trkpt>
      <trkpt lat="40.473167" lon="-5.228233">
        <ele>2296.0</ele>
        <time>2018-07-29T12:37:54Z</time>
      </trkpt>
      <trkpt lat="40.473233" lon="-5.228200">
        <ele>2298.0</ele>
        <time>2018-07-29T12:37:55Z</time>
      </trkpt>
      <trkpt lat="40.473300" lon="-5.228183">
        <ele>2299.0</ele>
        <time>2018-07-29T12:37:56Z</time>
      </trkpt>
      <trkpt lat="40.473350" lon="-5.228167">
        <ele>2298.0</ele>
        <time>2018-07-29T12:37:57Z</time>
      </trkpt>
      <trkpt lat="40.473400" lon="-5.228167">
        <ele>2298.0</ele>
        <time>2018-07-29T12:37:58Z</time>
      </trkpt>
      <trkpt lat="40.473450" lon="-5.228183">
        <ele>2298.0</ele>
        <time>2018-07-29T12:37:59Z</time>
      </trkpt>
      <trkpt lat="40.473483" lon="-5.228217">
        <ele>2299.0</ele>
        <time>2018-07-29T12:38:00Z</time>
      </trkpt>
      <trkpt lat="40.473500" lon="-5.228233">
        <ele>2300.0</ele>
        <time>2018-07-29T12:38:01Z</time>
      </trkpt>
      <trkpt lat="40.473483" lon="-5.228283">
        <ele>2301.0</ele>
        <time>2018-07-29T12:38:02Z</time>
      </trkpt>
      <trkpt lat="40.473467" lon="-5.228317">
        <ele>2300.0</ele>
        <time>2018-07-29T12:38:03Z</time>
      </trkpt>
      <trkpt lat="40.473417" lon="-5.228350">
        <ele>2299.0</ele>
        <time>2018-07-29T12:38:04Z</time>
      </trkpt>
      <trkpt lat="40.473367" lon="-5.228367">
        <ele>2298.0</ele>
        <time>2018-07-29T12:38:05Z</time>
      </trkpt>
      <trkpt lat="40.473283" lon="-5.228383">
        <ele>2298.0</ele>
        <time>2018-07-29T12:38:06Z</time>
      </trkpt>
      <trkpt lat="40.473200" lon="-5.228367">
        <ele>2298.0</ele>
        <time>2018-07-29T12:38:07Z</time>
      </trkpt>
      <trkpt lat="40.473100" lon="-5.228317">
        <ele>2300.0</ele>
        <time>2018-07-29T12:38:08Z</time>
      </trkpt>
      <trkpt lat="40.473017" lon="-5.228250">
        <ele>2302.0</ele>
        <time>2018-07-29T12:38:09Z</time>
      </trkpt>
      <trkpt lat="40.472933" lon="-5.228183">
        <ele>2303.0</ele>
        <time>2018-07-29T12:38:10Z</time>
      </trkpt>
      <trkpt lat="40.472850" lon="-5.228083">
        <ele>2304.0</ele>
        <time>2018-07-29T12:38:11Z</time>
      </trkpt>
      <trkpt lat="40.472767" lon="-5.227967">
        <ele>2303.0</ele>
        <time>2018-07-29T12:38:12Z</time>
      </trkpt>
      <trkpt lat="40.472667" lon="-5.227817">
        <ele>2302.0</ele>
        <time>2018-07-29T12:38:13Z</time>
      </trkpt>
      <trkpt lat="40.472583" lon="-5.227617">
        <ele>2302.0</ele>
        <time>2018-07-29T12:38:14Z</time>
      </trkpt>
      <trkpt lat="40.472500" lon="-5.227400">
        <ele>2304.0</ele>
        <time>2018-07-29T12:38:15Z</time>
      </trkpt>
      <trkpt lat="40.472450" lon="-5.227183">
        <ele>2307.0</ele>
        <time>2018-07-29T12:38:16Z</time>
      </trkpt>
      <trkpt lat="40.472433" lon="-5.227000">
        <ele>2310.0</ele>
        <time>2018-07-29T12:38:17Z</time>
      </trkpt>
      <trkpt lat="40.472433" lon="-5.226817">
        <ele>2313.0</ele>
        <time>2018-07-29T12:38:18Z</time>
      </trkpt>
      <trkpt lat="40.472450" lon="-5.226633">
        <ele>2314.0</ele>
        <time>2018-07-29T12:38:19Z</time>
      </trkpt>
      <trkpt lat="40.472483" lon="-5.226467">
        <ele>2314.0</ele>
        <time>2018-07-29T12:38:20Z</time>
      </trkpt>
      <trkpt lat="40.472517" lon="-5.226300">
        <ele>2313.0</ele>
        <time>2018-07-29T12:38:21Z</time>
      </trkpt>
      <trkpt lat="40.472567" lon="-5.226133">
        <ele>2314.0</ele>
        <time>2018-07-29T12:38:22Z</time>
      </trkpt>
      <trkpt lat="40.472633" lon="-5.226017">
        <ele>2313.0</ele>
        <time>2018-07-29T12:38:23Z</time>
      </trkpt>
      <trkpt lat="40.472717" lon="-5.225917">
        <ele>2313.0</ele>
        <time>2018-07-29T12:38:24Z</time>
      </trkpt>
      <trkpt lat="40.472800" lon="-5.225867">
        <ele>2312.0</ele>
        <time>2018-07-29T12:38:25Z</time>
      </trkpt>
      <trkpt lat="40.472867" lon="-5.225850">
        <ele>2312.0</ele>
        <time>2018-07-29T12:38:26Z</time>
      </trkpt>
      <trkpt lat="40.472933" lon="-5.225850">
        <ele>2312.0</ele>
        <time>2018-07-29T12:38:27Z</time>
      </trkpt>
      <trkpt lat="40.472967" lon="-5.225867">
        <ele>2313.0</ele>
        <time>2018-07-29T12:38:28Z</time>
      </trkpt>
      <trkpt lat="40.472967" lon="-5.225900">
        <ele>2312.0</ele>
        <time>2018-07-29T12:38:29Z</time>
      </trkpt>
      <trkpt lat="40.472950" lon="-5.225933">
        <ele>2311.0</ele>
        <time>2018-07-29T12:38:30Z</time>
      </trkpt>
      <trkpt lat="40.472900" lon="-5.225967">
        <ele>2308.0</ele>
        <time>2018-07-29T12:38:31Z</time>
      </trkpt>
      <trkpt lat="40.472833" lon="-5.226017">
        <ele>2307.0</ele>
        <time>2018-07-29T12:38:32Z</time>
      </trkpt>
      <trkpt lat="40.472750" lon="-5.226033">
        <ele>2305.0</ele>
        <time>2018-07-29T12:38:33Z</time>
      </trkpt>
      <trkpt lat="40.472633" lon="-5.226033">
        <ele>2305.0</ele>
        <time>2018-07-29T12:38:34Z</time>
      </trkpt>
      <trkpt lat="40.472500" lon="-5.225983">
        <ele>2306.0</ele>
        <time>2018-07-29T12:38:35Z</time>
      </trkpt>
      <trkpt lat="40.472400" lon="-5.225883">
        <ele>2307.0</ele>
        <time>2018-07-29T12:38:36Z</time>
      </trkpt>
      <trkpt lat="40.472300" lon="-5.225767">
        <ele>2307.0</ele>
        <time>2018-07-29T12:38:37Z</time>
      </trkpt>
      <trkpt lat="40.472200" lon="-5.225600">
        <ele>2306.0</ele>
        <time>2018-07-29T12:38:38Z</time>
      </trkpt>
      <trkpt lat="40.472133" lon="-5.225383">
        <ele>2306.0</ele>
        <time>2018-07-29T12:38:39Z</time>
      </trkpt>
      <trkpt lat="40.472083" lon="-5.225167">
        <ele>2307.0</ele>
        <time>2018-07-29T12:38:40Z</time>
      </trkpt>
      <trkpt lat="40.472067" lon="-5.224967">
        <ele>2308.0</ele>
        <time>2018-07-29T12:38:41Z</time>
      </trkpt>
      <trkpt lat="40.472083" lon="-5.224767">
        <ele>2309.0</ele>
        <time>2018-07-29T12:38:42Z</time>
      </trkpt>
      <trkpt lat="40.472117" lon="-5.224583">
        <ele>2309.0</ele>
        <time>2018-07-29T12:38:43Z</time>
      </trkpt>
      <trkpt lat="40.472167" lon="-5.224433">
        <ele>2309.0</ele>
        <time>2018-07-29T12:38:44Z</time>
      </trkpt>
      <trkpt lat="40.472233" lon="-5.224283">
        <ele>2309.0</ele>
        <time>2018-07-29T12:38:45Z</time>
      </trkpt>
      <trkpt lat="40.472317" lon="-5.224167">
        <ele>2309.0</ele>
        <time>2018-07-29T12:38:46Z</time>
      </trkpt>
      <trkpt lat="40.472400" lon="-5.224050">
        <ele>2308.0</ele>
        <time>2018-07-29T12:38:47Z</time>
      </trkpt>
      <trkpt lat="40.472483" lon="-5.223983">
        <ele>2309.0</ele>
        <time>2018-07-29T12:38:48Z</time>
      </trkpt>
      <trkpt lat="40.472550" lon="-5.223950">
        <ele>2309.0</ele>
        <time>2018-07-29T12:38:49Z</time>
      </trkpt>
      <trkpt lat="40.472617" lon="-5.223933">
        <ele>2310.0</ele>
        <time>2018-07-29T12:38:50Z</time>
      </trkpt>
      <trkpt lat="40.472667" lon="-5.223917">
        <ele>2310.0</ele>
        <time>2018-07-29T12:38:51Z</time>
      </trkpt>
      <trkpt lat="40.472717" lon="-5.223900">
        <ele>2308.0</ele>
        <time>2018-07-29T12:38:52Z</time>
      </trkpt>
      <trkpt lat="40.472767" lon="-5.223900">
        <ele>2307.0</ele>
        <time>2018-07-29T12:38:53Z</time>
      </trkpt>
      <trkpt lat="40.472800" lon="-5.223933">
        <ele>2306.0</ele>
        <time>2018-07-29T12:38:54Z</time>
      </trkpt>
      <trkpt lat="40.472800" lon="-5.223967">
        <ele>2305.0</ele>
        <time>2018-07-29T12:38:55Z</time>
      </trkpt>
      <trkpt lat="40.472800" lon="-5.224017">
        <ele>2306.0</ele>
        <time>2018-07-29T12:38:56Z</time>
      </trkpt>
      <trkpt lat="40.472750" lon="-5.224050">
        <ele>2306.0</ele>
        <time>2018-07-29T12:38:57Z</time>
      </trkpt>
      <trkpt lat="40.472700" lon="-5.224067">
        <ele>2307.0</ele>
        <time>2018-07-29T12:38:58Z</time>
      </trkpt>
      <trkpt lat="40.472633" lon="-5.224083">
        <ele>2307.0</ele>
        <time>2018-07-29T12:38:59Z</time>
      </trkpt>
      <trkpt lat="40.472550" lon="-5.224100">
        <ele>2307.0</ele>
        <time>2018-07-29T12:39:00Z</time>
      </trkpt>
      <trkpt lat="40.472483" lon="-5.224117">
        <ele>2308.0</ele>
        <time>2018-07-29T12:39:01Z</time>
      </trkpt>
      <trkpt lat="40.472433" lon="-5.224150">
        <ele>2309.0</ele>
        <time>2018-07-29T12:39:02Z</time>
      </trkpt>
      <trkpt lat="40.472383" lon="-5.224183">
        <ele>2311.0</ele>
        <time>2018-07-29T12:39:03Z</time>
      </trkpt>
      <trkpt lat="40.472350" lon="-5.224217">
        <ele>2313.0</ele>
        <time>2018-07-29T12:39:04Z</time>
      </trkpt>
      <trkpt lat="40.472317" lon="-5.224250">
        <ele>2314.0</ele>
        <time>2018-07-29T12:39:05Z</time>
      </trkpt>
      <trkpt lat="40.472283" lon="-5.224250">
        <ele>2315.0</ele>
        <time>2018-07-29T12:39:06Z</time>
      </trkpt>
      <trkpt lat="40.472250" lon="-5.224267">
        <ele>2315.0</ele>
        <time>2018-07-29T12:39:07Z</time>
      </trkpt>
      <trkpt lat="40.472183" lon="-5.224283">
        <ele>2315.0</ele>
        <time>2018-07-29T12:39:08Z</time>
      </trkpt>
      <trkpt lat="40.472100" lon="-5.224267">
        <ele>2314.0</ele>
        <time>2018-07-29T12:39:09Z</time>
      </trkpt>
      <trkpt lat="40.472000" lon="-5.224233">
        <ele>2314.0</ele>
        <time>2018-07-29T12:39:10Z</time>
      </trkpt>
      <trkpt lat="40.471883" lon="-5.224150">
        <ele>2313.0</ele>
        <time>2018-07-29T12:39:11Z</time>
      </trkpt>
      <trkpt lat="40.471783" lon="-5.224050">
        <ele>2314.0</ele>
        <time>2018-07-29T12:39:12Z</time>
      </trkpt>
      <trkpt lat="40.471667" lon="-5.223933">
        <ele>2314.0</ele>
        <time>2018-07-29T12:39:13Z</time>
      </trkpt>
      <trkpt lat="40.471583" lon="-5.223767">
        <ele>2315.0</ele>
        <time>2018-07-29T12:39:14Z</time>
      </trkpt>
      <trkpt lat="40.471500" lon="-5.223567">
        <ele>2314.0</ele>
        <time>2018-07-29T12:39:15Z</time>
      </trkpt>
      <trkpt lat="40.471450" lon="-5.223350">
        <ele>2315.0</ele>
        <time>2018-07-29T12:39:16Z</time>
      </trkpt>
      <trkpt lat="40.471433" lon="-5.223133">
        <ele>2316.0</ele>
        <time>2018-07-29T12:39:17Z</time>
      </trkpt>
      <trkpt lat="40.471450" lon="-5.222933">
        <ele>2319.0</ele>
        <time>2018-07-29T12:39:18Z</time>
      </trkpt>
      <trkpt lat="40.471483" lon="-5.222767">
        <ele>2321.0</ele>
        <time>2018-07-29T12:39:19Z</time>
      </trkpt>
      <trkpt lat="40.471517" lon="-5.222600">
        <ele>2322.0</ele>
        <time>2018-07-29T12:39:20Z</time>
      </trkpt>
      <trkpt lat="40.471567" lon="-5.222450">
        <ele>2323.0</ele>
        <time>2018-07-29T12:39:21Z</time>
      </trkpt>
      <trkpt lat="40.471633" lon="-5.222317">
        <ele>2322.0</ele>
        <time>2018-07-29T12:39:22Z</time>
      </trkpt>
      <trkpt lat="40.471717" lon="-5.222217">
        <ele>2321.0</ele>
        <time>2018-07-29T12:39:23Z</time>
      </trkpt>
      <trkpt lat="40.471817" lon="-5.222150">
        <ele>2319.0</ele>
        <time>2018-07-29T12:39:24Z</time>
      </trkpt>
      <trkpt lat="40.471900" lon="-5.222133">
        <ele>2318.0</ele>
        <time>2018-07-29T12:39:25Z</time>
      </trkpt>
      <trkpt lat="40.471967" lon="-5.222167">
        <ele>2318.0</ele>
        <time>2018-07-29T12:39:26Z</time>
      </trkpt>
      <trkpt lat="40.472000" lon="-5.222217">
        <ele>2319.0</ele>
        <time>2018-07-29T12:39:27Z</time>
      </trkpt>
      <trkpt lat="40.472033" lon="-5.222250">
        <ele>2321.0</ele>
        <time>2018-07-29T12:39:28Z</time>
      </trkpt>
      <trkpt lat="40.472050" lon="-5.222283">
        <ele>2322.0</ele>
        <time>2018-07-29T12:39:29Z</time>
      </trkpt>
      <trkpt lat="40.472067" lon="-5.222333">
        <ele>2323.0</ele>
        <time>2018-07-29T12:39:30Z</time>
      </trkpt>
      <trkpt lat="40.472100" lon="-5.222367">
        <ele>2323.0</ele>
        <time>2018-07-29T12:39:31Z</time>
      </trkpt>
      <trkpt lat="40.472117" lon="-5.222417">
        <ele>2323.0</ele>
        <time>2018-07-29T12:39:32Z</time>
      </trkpt>
      <trkpt lat="40.472150" lon="-5.222467">
        <ele>2323.0</ele>
        <time>2018-07-29T12:39:33Z</time>
      </trkpt>
      <trkpt lat="40.472167" lon="-5.222517">
        <ele>2323.0</ele>
        <time>2018-07-29T12:39:34Z</time>
      </trkpt>
      <trkpt lat="40.472183" lon="-5.222550">
        <ele>2323.0</ele>
        <time>2018-07-29T12:39:35Z</time>
      </trkpt>
      <trkpt lat="40.472200" lon="-5.222583">
        <ele>2324.0</ele>
        <time>2018-07-29T12:39:36Z</time>
      </trkpt>
      <trkpt lat="40.472233" lon="-5.222617">
        <ele>2323.0</ele>
        <time>2018-07-29T12:39:37Z</time>
      </trkpt>
      <trkpt lat="40.472250" lon="-5.222633">
        <ele>2321.0</ele>
        <time>2018-07-29T12:39:38Z</time>
      </trkpt>
      <trkpt lat="40.472283" lon="-5.222650">
        <ele>2319.0</ele>
        <time>2018-07-29T12:39:39Z</time>
      </trkpt>
      <trkpt lat="40.472283" lon="-5.222700">
        <ele>2317.0</ele>
        <time>2018-07-29T12:39:40Z</time>
      </trkpt>
      <trkpt lat="40.472300" lon="-5.222750">
        <ele>2314.0</ele>
        <time>2018-07-29T12:39:41Z</time>
      </trkpt>
      <trkpt lat="40.472300" lon="-5.222800">
        <ele>2312.0</ele>
        <time>2018-07-29T12:39:42Z</time>
      </trkpt>
      <trkpt lat="40.472283" lon="-5.222850">
        <ele>2311.0</ele>
        <time>2018-07-29T12:39:43Z</time>
      </trkpt>
      <trkpt lat="40.472267" lon="-5.222900">
        <ele>2310.0</ele>
        <time>2018-07-29T12:39:44Z</time>
      </trkpt>
      <trkpt lat="40.472250" lon="-5.222933">
        <ele>2309.0</ele>
        <time>2018-07-29T12:39:45Z</time>
      </trkpt>
      <trkpt lat="40.472233" lon="-5.222967">
        <ele>2307.0</ele>
        <time>2018-07-29T12:39:46Z</time>
      </trkpt>
      <trkpt lat="40.472200" lon="-5.223000">
        <ele>2306.0</ele>
        <time>2018-07-29T12:39:47Z</time>
      </trkpt>
      <trkpt lat="40.472183" lon="-5.223050">
        <ele>2304.0</ele>
        <time>2018-07-29T12:39:48Z</time>
      </trkpt>
      <trkpt lat="40.472167" lon="-5.223100">
        <ele>2302.0</ele>
        <time>2018-07-29T12:39:49Z</time>
      </trkpt>
      <trkpt lat="40.472133" lon="-5.223133">
        <ele>2301.0</ele>
        <time>2018-07-29T12:39:50Z</time>
      </trkpt>
      <trkpt lat="40.472100" lon="-5.223167">
        <ele>2300.0</ele>
        <time>2018-07-29T12:39:51Z</time>
      </trkpt>
      <trkpt lat="40.472067" lon="-5.223200">
        <ele>2299.0</ele>
        <time>2018-07-29T12:39:52Z</time>
      </trkpt>
      <trkpt lat="40.472017" lon="-5.223217">
        <ele>2297.0</ele>
        <time>2018-07-29T12:39:53Z</time>
      </trkpt>
      <trkpt lat="40.471983" lon="-5.223250">
        <ele>2296.0</ele>
        <time>2018-07-29T12:39:54Z</time>
      </trkpt>
      <trkpt lat="40.471967" lon="-5.223283">
        <ele>2294.0</ele>
        <time>2018-07-29T12:39:55Z</time>
      </trkpt>
      <trkpt lat="40.471933" lon="-5.223350">
        <ele>2292.0</ele>
        <time>2018-07-29T12:39:56Z</time>
      </trkpt>
      <trkpt lat="40.471933" lon="-5.223417">
        <ele>2291.0</ele>
        <time>2018-07-29T12:39:57Z</time>
      </trkpt>
      <trkpt lat="40.471917" lon="-5.223467">
        <ele>2290.0</ele>
        <time>2018-07-29T12:39:58Z</time>
      </trkpt>
      <trkpt lat="40.471917" lon="-5.223533">
        <ele>2290.0</ele>
        <time>2018-07-29T12:39:59Z</time>
      </trkpt>
      <trkpt lat="40.471900" lon="-5.223583">
        <ele>2289.0</ele>
        <time>2018-07-29T12:40:00Z</time>
      </trkpt>
      <trkpt lat="40.471867" lon="-5.223650">
        <ele>2288.0</ele>
        <time>2018-07-29T12:40:01Z</time>
      </trkpt>
      <trkpt lat="40.471817" lon="-5.223700">
        <ele>2288.0</ele>
        <time>2018-07-29T12:40:02Z</time>
      </trkpt>
      <trkpt lat="40.471767" lon="-5.223750">
        <ele>2288.0</ele>
        <time>2018-07-29T12:40:03Z</time>
      </trkpt>
      <trkpt lat="40.471717" lon="-5.223783">
        <ele>2288.0</ele>
        <time>2018-07-29T12:40:04Z</time>
      </trkpt>
      <trkpt lat="40.471650" lon="-5.223817">
        <ele>2287.0</ele>
        <time>2018-07-29T12:40:05Z</time>
      </trkpt>
      <trkpt lat="40.471567" lon="-5.223867">
        <ele>2287.0</ele>
        <time>2018-07-29T12:40:06Z</time>
      </trkpt>
      <trkpt lat="40.471500" lon="-5.223900">
        <ele>2288.0</ele>
        <time>2018-07-29T12:40:07Z</time>
      </trkpt>
      <trkpt lat="40.471433" lon="-5.223967">
        <ele>2289.0</ele>
        <time>2018-07-29T12:40:08Z</time>
      </trkpt>
      <trkpt lat="40.471400" lon="-5.224017">
        <ele>2291.0</ele>
        <time>2018-07-29T12:40:09Z</time>
      </trkpt>
      <trkpt lat="40.471367" lon="-5.224083">
        <ele>2292.0</ele>
        <time>2018-07-29T12:40:10Z</time>
      </trkpt>
      <trkpt lat="40.471333" lon="-5.224133">
        <ele>2293.0</ele>
        <time>2018-07-29T12:40:11Z</time>
      </trkpt>
      <trkpt lat="40.471300" lon="-5.224183">
        <ele>2293.0</ele>
        <time>2018-07-29T12:40:12Z</time>
      </trkpt>
      <trkpt lat="40.471233" lon="-5.224250">
        <ele>2292.0</ele>
        <time>2018-07-29T12:40:13Z</time>
      </trkpt>
      <trkpt lat="40.471150" lon="-5.224317">
        <ele>2291.0</ele>
        <time>2018-07-29T12:40:14Z</time>
      </trkpt>
      <trkpt lat="40.471050" lon="-5.224350">
        <ele>2290.0</ele>
        <time>2018-07-29T12:40:15Z</time>
      </trkpt>
      <trkpt lat="40.470917" lon="-5.224367">
        <ele>2291.0</ele>
        <time>2018-07-29T12:40:16Z</time>
      </trkpt>
      <trkpt lat="40.470800" lon="-5.224350">
        <ele>2291.0</ele>
        <time>2018-07-29T12:40:17Z</time>
      </trkpt>
      <trkpt lat="40.470683" lon="-5.224283">
        <ele>2292.0</ele>
        <time>2018-07-29T12:40:18Z</time>
      </trkpt>
      <trkpt lat="40.470550" lon="-5.224200">
        <ele>2293.0</ele>
        <time>2018-07-29T12:40:19Z</time>
      </trkpt>
      <trkpt lat="40.470433" lon="-5.224100">
        <ele>2293.0</ele>
        <time>2018-07-29T12:40:20Z</time>
      </trkpt>
      <trkpt lat="40.470317" lon="-5.223983">
        <ele>2294.0</ele>
        <time>2018-07-29T12:40:21Z</time>
      </trkpt>
      <trkpt lat="40.470233" lon="-5.223817">
        <ele>2296.0</ele>
        <time>2018-07-29T12:40:22Z</time>
      </trkpt>
      <trkpt lat="40.470183" lon="-5.223633">
        <ele>2297.0</ele>
        <time>2018-07-29T12:40:23Z</time>
      </trkpt>
      <trkpt lat="40.470150" lon="-5.223450">
        <ele>2299.0</ele>
        <time>2018-07-29T12:40:24Z</time>
      </trkpt>
      <trkpt lat="40.470150" lon="-5.223250">
        <ele>2300.0</ele>
        <time>2018-07-29T12:40:25Z</time>
      </trkpt>
      <trkpt lat="40.470183" lon="-5.223067">
        <ele>2300.0</ele>
        <time>2018-07-29T12:40:26Z</time>
      </trkpt>
      <trkpt lat="40.470250" lon="-5.222900">
        <ele>2300.0</ele>
        <time>2018-07-29T12:40:27Z</time>
      </trkpt>
      <trkpt lat="40.470333" lon="-5.222767">
        <ele>2301.0</ele>
        <time>2018-07-29T12:40:28Z</time>
      </trkpt>
      <trkpt lat="40.470433" lon="-5.222667">
        <ele>2302.0</ele>
        <time>2018-07-29T12:40:29Z</time>
      </trkpt>
      <trkpt lat="40.470517" lon="-5.222617">
        <ele>2304.0</ele>
        <time>2018-07-29T12:40:30Z</time>
      </trkpt>
      <trkpt lat="40.470600" lon="-5.222600">
        <ele>2306.0</ele>
        <time>2018-07-29T12:40:31Z</time>
      </trkpt>
      <trkpt lat="40.470650" lon="-5.222583">
        <ele>2308.0</ele>
        <time>2018-07-29T12:40:32Z</time>
      </trkpt>
      <trkpt lat="40.470700" lon="-5.222617">
        <ele>2309.0</ele>
        <time>2018-07-29T12:40:33Z</time>
      </trkpt>
      <trkpt lat="40.470733" lon="-5.222667">
        <ele>2309.0</ele>
        <time>2018-07-29T12:40:34Z</time>
      </trkpt>
      <trkpt lat="40.470733" lon="-5.222733">
        <ele>2309.0</ele>
        <time>2018-07-29T12:40:35Z</time>
      </trkpt>
      <trkpt lat="40.470700" lon="-5.222800">
        <ele>2309.0</ele>
        <time>2018-07-29T12:40:36Z</time>
      </trkpt>
      <trkpt lat="40.470650" lon="-5.222883">
        <ele>2309.0</ele>
        <time>2018-07-29T12:40:37Z</time>
      </trkpt>
      <trkpt lat="40.470583" lon="-5.222933">
        <ele>2310.0</ele>
        <time>2018-07-29T12:40:38Z</time>
      </trkpt>
      <trkpt lat="40.470500" lon="-5.222950">
        <ele>2311.0</ele>
        <time>2018-07-29T12:40:39Z</time>
      </trkpt>
      <trkpt lat="40.470400" lon="-5.222967">
        <ele>2311.0</ele>
        <time>2018-07-29T12:40:40Z</time>
      </trkpt>
      <trkpt lat="40.470283" lon="-5.222933">
        <ele>2311.0</ele>
        <time>2018-07-29T12:40:41Z</time>
      </trkpt>
      <trkpt lat="40.470167" lon="-5.222900">
        <ele>2311.0</ele>
        <time>2018-07-29T12:40:42Z</time>
      </trkpt>
      <trkpt lat="40.470033" lon="-5.222850">
        <ele>2312.0</ele>
        <time>2018-07-29T12:40:43Z</time>
      </trkpt>
      <trkpt lat="40.469933" lon="-5.222750">
        <ele>2312.0</ele>
        <time>2018-07-29T12:40:44Z</time>
      </trkpt>
      <trkpt lat="40.469850" lon="-5.222617">
        <ele>2312.0</ele>
        <time>2018-07-29T12:40:45Z</time>
      </trkpt>
      <trkpt lat="40.469783" lon="-5.222450">
        <ele>2311.0</ele>
        <time>2018-07-29T12:40:46Z</time>
      </trkpt>
      <trkpt lat="40.469717" lon="-5.222267">
        <ele>2311.0</ele>
        <time>2018-07-29T12:40:47Z</time>
      </trkpt>
      <trkpt lat="40.469683" lon="-5.222050">
        <ele>2312.0</ele>
        <time>2018-07-29T12:40:48Z</time>
      </trkpt>
      <trkpt lat="40.469683" lon="-5.221850">
        <ele>2315.0</ele>
        <time>2018-07-29T12:40:49Z</time>
      </trkpt>
      <trkpt lat="40.469700" lon="-5.221667">
        <ele>2317.0</ele>
        <time>2018-07-29T12:40:50Z</time>
      </trkpt>
      <trkpt lat="40.469733" lon="-5.221500">
        <ele>2319.0</ele>
        <time>2018-07-29T12:40:51Z</time>
      </trkpt>
      <trkpt lat="40.469800" lon="-5.221367">
        <ele>2320.0</ele>
        <time>2018-07-29T12:40:52Z</time>
      </trkpt>
      <trkpt lat="40.469867" lon="-5.221233">
        <ele>2321.0</ele>
        <time>2018-07-29T12:40:53Z</time>
      </trkpt>
      <trkpt lat="40.469933" lon="-5.221100">
        <ele>2320.0</ele>
        <time>2018-07-29T12:40:54Z</time>
      </trkpt>
      <trkpt lat="40.470017" lon="-5.221000">
        <ele>2321.0</ele>
        <time>2018-07-29T12:40:55Z</time>
      </trkpt>
      <trkpt lat="40.470117" lon="-5.220917">
        <ele>2321.0</ele>
        <time>2018-07-29T12:40:56Z</time>
      </trkpt>
      <trkpt lat="40.470217" lon="-5.220867">
        <ele>2322.0</ele>
        <time>2018-07-29T12:40:57Z</time>
      </trkpt>
      <trkpt lat="40.470300" lon="-5.220850">
        <ele>2324.0</ele>
        <time>2018-07-29T12:40:58Z</time>
      </trkpt>
      <trkpt lat="40.470383" lon="-5.220850">
        <ele>2326.0</ele>
        <time>2018-07-29T12:40:59Z</time>
      </trkpt>
      <trkpt lat="40.470433" lon="-5.220833">
        <ele>2329.0</ele>
        <time>2018-07-29T12:41:00Z</time>
      </trkpt>
      <trkpt lat="40.470483" lon="-5.220833">
        <ele>2330.0</ele>
        <time>2018-07-29T12:41:01Z</time>
      </trkpt>
      <trkpt lat="40.470533" lon="-5.220833">
        <ele>2329.0</ele>
        <time>2018-07-29T12:41:02Z</time>
      </trkpt>
      <trkpt lat="40.470567" lon="-5.220883">
        <ele>2326.0</ele>
        <time>2018-07-29T12:41:03Z</time>
      </trkpt>
      <trkpt lat="40.470583" lon="-5.220967">
        <ele>2324.0</ele>
        <time>2018-07-29T12:41:04Z</time>
      </trkpt>
      <trkpt lat="40.470583" lon="-5.221050">
        <ele>2324.0</ele>
        <time>2018-07-29T12:41:05Z</time>
      </trkpt>
      <trkpt lat="40.470550" lon="-5.221117">
        <ele>2325.0</ele>
        <time>2018-07-29T12:41:06Z</time>
      </trkpt>
      <trkpt lat="40.470500" lon="-5.221167">
        <ele>2326.0</ele>
        <time>2018-07-29T12:41:07Z</time>
      </trkpt>
      <trkpt lat="40.470433" lon="-5.221200">
        <ele>2326.0</ele>
        <time>2018-07-29T12:41:08Z</time>
      </trkpt>
      <trkpt lat="40.470350" lon="-5.221217">
        <ele>2325.0</ele>
        <time>2018-07-29T12:41:09Z</time>
      </trkpt>
      <trkpt lat="40.470250" lon="-5.221217">
        <ele>2323.0</ele>
        <time>2018-07-29T12:41:10Z</time>
      </trkpt>
      <trkpt lat="40.470133" lon="-5.221217">
        <ele>2322.0</ele>
        <time>2018-07-29T12:41:11Z</time>
      </trkpt>
      <trkpt lat="40.470017" lon="-5.221200">
        <ele>2322.0</ele>
        <time>2018-07-29T12:41:12Z</time>
      </trkpt>
      <trkpt lat="40.469900" lon="-5.221133">
        <ele>2322.0</ele>
        <time>2018-07-29T12:41:13Z</time>
      </trkpt>
      <trkpt lat="40.469800" lon="-5.221050">
        <ele>2323.0</ele>
        <time>2018-07-29T12:41:14Z</time>
      </trkpt>
      <trkpt lat="40.469700" lon="-5.220917">
        <ele>2325.0</ele>
        <time>2018-07-29T12:41:15Z</time>
      </trkpt>
      <trkpt lat="40.469600" lon="-5.220767">
        <ele>2327.0</ele>
        <time>2018-07-29T12:41:16Z</time>
      </trkpt>
      <trkpt lat="40.469533" lon="-5.220617">
        <ele>2330.0</ele>
        <time>2018-07-29T12:41:17Z</time>
      </trkpt>
      <trkpt lat="40.469467" lon="-5.220450">
        <ele>2333.0</ele>
        <time>2018-07-29T12:41:18Z</time>
      </trkpt>
      <trkpt lat="40.469433" lon="-5.220283">
        <ele>2335.0</ele>
        <time>2018-07-29T12:41:19Z</time>
      </trkpt>
      <trkpt lat="40.469400" lon="-5.220117">
        <ele>2338.0</ele>
        <time>2018-07-29T12:41:20Z</time>
      </trkpt>
      <trkpt lat="40.469367" lon="-5.219933">
        <ele>2340.0</ele>
        <time>2018-07-29T12:41:21Z</time>
      </trkpt>
      <trkpt lat="40.469367" lon="-5.219750">
        <ele>2341.0</ele>
        <time>2018-07-29T12:41:22Z</time>
      </trkpt>
      <trkpt lat="40.469383" lon="-5.219567">
        <ele>2342.0</ele>
        <time>2018-07-29T12:41:23Z</time>
      </trkpt>
      <trkpt lat="40.469433" lon="-5.219383">
        <ele>2341.0</ele>
        <time>2018-07-29T12:41:24Z</time>
      </trkpt>
      <trkpt lat="40.469500" lon="-5.219217">
        <ele>2341.0</ele>
        <time>2018-07-29T12:41:25Z</time>
      </trkpt>
      <trkpt lat="40.469583" lon="-5.219067">
        <ele>2341.0</ele>
        <time>2018-07-29T12:41:26Z</time>
      </trkpt>
      <trkpt lat="40.469667" lon="-5.218950">
        <ele>2342.0</ele>
        <time>2018-07-29T12:41:27Z</time>
      </trkpt>
      <trkpt lat="40.469750" lon="-5.218833">
        <ele>2343.0</ele>
        <time>2018-07-29T12:41:28Z</time>
      </trkpt>
      <trkpt lat="40.469817" lon="-5.218717">
        <ele>2345.0</ele>
        <time>2018-07-29T12:41:29Z</time>
      </trkpt>
      <trkpt lat="40.469900" lon="-5.218617">
        <ele>2346.0</ele>
        <time>2018-07-29T12:41:30Z</time>
      </trkpt>
      <trkpt lat="40.469983" lon="-5.218550">
        <ele>2346.0</ele>
        <time>2018-07-29T12:41:31Z</time>
      </trkpt>
      <trkpt lat="40.470083" lon="-5.218500">
        <ele>2346.0</ele>
        <time>2018-07-29T12:41:32Z</time>
      </trkpt>
      <trkpt lat="40.470150" lon="-5.218500">
        <ele>2346.0</ele>
        <time>2018-07-29T12:41:33Z</time>
      </trkpt>
      <trkpt lat="40.470217" lon="-5.218533">
        <ele>2347.0</ele>
        <time>2018-07-29T12:41:34Z</time>
      </trkpt>
      <trkpt lat="40.470233" lon="-5.218583">
        <ele>2347.0</ele>
        <time>2018-07-29T12:41:35Z</time>
      </trkpt>
      <trkpt lat="40.470233" lon="-5.218633">
        <ele>2347.0</ele>
        <time>2018-07-29T12:41:36Z</time>
      </trkpt>
      <trkpt lat="40.470200" lon="-5.218683">
        <ele>2345.0</ele>
        <time>2018-07-29T12:41:37Z</time>
      </trkpt>
      <trkpt lat="40.470150" lon="-5.218750">
        <ele>2344.0</ele>
        <time>2018-07-29T12:41:38Z</time>
      </trkpt>
      <trkpt lat="40.470083" lon="-5.218783">
        <ele>2342.0</ele>
        <time>2018-07-29T12:41:39Z</time>
      </trkpt>
      <trkpt lat="40.469983" lon="-5.218800">
        <ele>2341.0</ele>
        <time>2018-07-29T12:41:40Z</time>
      </trkpt>
      <trkpt lat="40.469867" lon="-5.218767">
        <ele>2340.0</ele>
        <time>2018-07-29T12:41:41Z</time>
      </trkpt>
      <trkpt lat="40.469750" lon="-5.218700">
        <ele>2341.0</ele>
        <time>2018-07-29T12:41:42Z</time>
      </trkpt>
      <trkpt lat="40.469650" lon="-5.218583">
        <ele>2343.0</ele>
        <time>2018-07-29T12:41:43Z</time>
      </trkpt>
      <trkpt lat="40.469567" lon="-5.218433">
        <ele>2346.0</ele>
        <time>2018-07-29T12:41:44Z</time>
      </trkpt>
      <trkpt lat="40.469500" lon="-5.218283">
        <ele>2347.0</ele>
        <time>2018-07-29T12:41:45Z</time>
      </trkpt>
      <trkpt lat="40.469467" lon="-5.218133">
        <ele>2347.0</ele>
        <time>2018-07-29T12:41:46Z</time>
      </trkpt>
      <trkpt lat="40.469450" lon="-5.217967">
        <ele>2346.0</ele>
        <time>2018-07-29T12:41:47Z</time>
      </trkpt>
      <trkpt lat="40.469450" lon="-5.217783">
        <ele>2344.0</ele>
        <time>2018-07-29T12:41:48Z</time>
      </trkpt>
      <trkpt lat="40.469467" lon="-5.217583">
        <ele>2342.0</ele>
        <time>2018-07-29T12:41:49Z</time>
      </trkpt>
      <trkpt lat="40.469500" lon="-5.217400">
        <ele>2341.0</ele>
        <time>2018-07-29T12:41:50Z</time>
      </trkpt>
      <trkpt lat="40.469567" lon="-5.217233">
        <ele>2340.0</ele>
        <time>2018-07-29T12:41:51Z</time>
      </trkpt>
      <trkpt lat="40.469633" lon="-5.217100">
        <ele>2340.0</ele>
        <time>2018-07-29T12:41:52Z</time>
      </trkpt>
      <trkpt lat="40.469717" lon="-5.217000">
        <ele>2340.0</ele>
        <time>2018-07-29T12:41:53Z</time>
      </trkpt>
      <trkpt lat="40.469783" lon="-5.216917">
        <ele>2340.0</ele>
        <time>2018-07-29T12:41:54Z</time>
      </trkpt>
      <trkpt lat="40.469867" lon="-5.216867">
        <ele>2339.0</ele>
        <time>2018-07-29T12:41:55Z</time>
      </trkpt>
      <trkpt lat="40.469933" lon="-5.216833">
        <ele>2338.0</ele>
        <time>2018-07-29T12:41:56Z</time>
      </trkpt>
      <trkpt lat="40.470000" lon="-5.216800">
        <ele>2337.0</ele>
        <time>2018-07-29T12:41:57Z</time>
      </trkpt>
      <trkpt lat="40.470083" lon="-5.216800">
        <ele>2336.0</ele>
        <time>2018-07-29T12:41:58Z</time>
      </trkpt>
      <trkpt lat="40.470150" lon="-5.216800">
        <ele>2335.0</ele>
        <time>2018-07-29T12:41:59Z</time>
      </trkpt>
      <trkpt lat="40.470200" lon="-5.216800">
        <ele>2334.0</ele>
        <time>2018-07-29T12:42:00Z</time>
      </trkpt>
      <trkpt lat="40.470267" lon="-5.216800">
        <ele>2332.0</ele>
        <time>2018-07-29T12:42:01Z</time>
      </trkpt>
      <trkpt lat="40.470333" lon="-5.216817">
        <ele>2329.0</ele>
        <time>2018-07-29T12:42:02Z</time>
      </trkpt>
      <trkpt lat="40.470400" lon="-5.216833">
        <ele>2327.0</ele>
        <time>2018-07-29T12:42:03Z</time>
      </trkpt>
      <trkpt lat="40.470467" lon="-5.216833">
        <ele>2325.0</ele>
        <time>2018-07-29T12:42:04Z</time>
      </trkpt>
      <trkpt lat="40.470533" lon="-5.216833">
        <ele>2325.0</ele>
        <time>2018-07-29T12:42:05Z</time>
      </trkpt>
      <trkpt lat="40.470600" lon="-5.216833">
        <ele>2324.0</ele>
        <time>2018-07-29T12:42:06Z</time>
      </trkpt>
      <trkpt lat="40.470667" lon="-5.216833">
        <ele>2325.0</ele>
        <time>2018-07-29T12:42:07Z</time>
      </trkpt>
      <trkpt lat="40.470700" lon="-5.216850">
        <ele>2325.0</ele>
        <time>2018-07-29T12:42:08Z</time>
      </trkpt>
      <trkpt lat="40.470750" lon="-5.216867">
        <ele>2325.0</ele>
        <time>2018-07-29T12:42:09Z</time>
      </trkpt>
      <trkpt lat="40.470800" lon="-5.216883">
        <ele>2325.0</ele>
        <time>2018-07-29T12:42:10Z</time>
      </trkpt>
      <trkpt lat="40.470867" lon="-5.216900">
        <ele>2326.0</ele>
        <time>2018-07-29T12:42:11Z</time>
      </trkpt>
      <trkpt lat="40.470933" lon="-5.216917">
        <ele>2326.0</ele>
        <time>2018-07-29T12:42:12Z</time>
      </trkpt>
      <trkpt lat="40.471000" lon="-5.216933">
        <ele>2326.0</ele>
        <time>2018-07-29T12:42:13Z</time>
      </trkpt>
      <trkpt lat="40.471067" lon="-5.216917">
        <ele>2326.0</ele>
        <time>2018-07-29T12:42:14Z</time>
      </trkpt>
      <trkpt lat="40.471150" lon="-5.216883">
        <ele>2325.0</ele>
        <time>2018-07-29T12:42:15Z</time>
      </trkpt>
      <trkpt lat="40.471233" lon="-5.216867">
        <ele>2324.0</ele>
        <time>2018-07-29T12:42:16Z</time>
      </trkpt>
      <trkpt lat="40.471317" lon="-5.216850">
        <ele>2323.0</ele>
        <time>2018-07-29T12:42:17Z</time>
      </trkpt>
      <trkpt lat="40.471400" lon="-5.216850">
        <ele>2322.0</ele>
        <time>2018-07-29T12:42:18Z</time>
      </trkpt>
      <trkpt lat="40.471467" lon="-5.216867">
        <ele>2322.0</ele>
        <time>2018-07-29T12:42:19Z</time>
      </trkpt>
      <trkpt lat="40.471550" lon="-5.216867">
        <ele>2322.0</ele>
        <time>2018-07-29T12:42:20Z</time>
      </trkpt>
      <trkpt lat="40.471617" lon="-5.216850">
        <ele>2322.0</ele>
        <time>2018-07-29T12:42:21Z</time>
      </trkpt>
      <trkpt lat="40.471683" lon="-5.216833">
        <ele>2321.0</ele>
        <time>2018-07-29T12:42:22Z</time>
      </trkpt>
      <trkpt lat="40.471767" lon="-5.216817">
        <ele>2318.0</ele>
        <time>2018-07-29T12:42:23Z</time>
      </trkpt>
      <trkpt lat="40.471850" lon="-5.216833">
        <ele>2315.0</ele>
        <time>2018-07-29T12:42:24Z</time>
      </trkpt>
      <trkpt lat="40.471917" lon="-5.216867">
        <ele>2313.0</ele>
        <time>2018-07-29T12:42:25Z</time>
      </trkpt>
      <trkpt lat="40.471967" lon="-5.216933">
        <ele>2311.0</ele>
        <time>2018-07-29T12:42:26Z</time>
      </trkpt>
      <trkpt lat="40.472000" lon="-5.217000">
        <ele>2309.0</ele>
        <time>2018-07-29T12:42:27Z</time>
      </trkpt>
      <trkpt lat="40.472000" lon="-5.217067">
        <ele>2308.0</ele>
        <time>2018-07-29T12:42:28Z</time>
      </trkpt>
      <trkpt lat="40.471983" lon="-5.217133">
        <ele>2305.0</ele>
        <time>2018-07-29T12:42:29Z</time>
      </trkpt>
      <trkpt lat="40.471983" lon="-5.217200">
        <ele>2302.0</ele>
        <time>2018-07-29T12:42:30Z</time>
      </trkpt>
      <trkpt lat="40.472000" lon="-5.217250">
        <ele>2301.0</ele>
        <time>2018-07-29T12:42:31Z</time>
      </trkpt>
      <trkpt lat="40.472017" lon="-5.217317">
        <ele>2299.0</ele>
        <time>2018-07-29T12:42:32Z</time>
      </trkpt>
      <trkpt lat="40.472050" lon="-5.217367">
        <ele>2297.0</ele>
        <time>2018-07-29T12:42:33Z</time>
      </trkpt>
      <trkpt lat="40.472067" lon="-5.217417">
        <ele>2295.0</ele>
        <time>2018-07-29T12:42:34Z</time>
      </trkpt>
      <trkpt lat="40.472100" lon="-5.217483">
        <ele>2294.0</ele>
        <time>2018-07-29T12:42:35Z</time>
      </trkpt>
      <trkpt lat="40.472133" lon="-5.217533">
        <ele>2292.0</ele>
        <time>2018-07-29T12:42:36Z</time>
      </trkpt>
      <trkpt lat="40.472167" lon="-5.217567">
        <ele>2290.0</ele>
        <time>2018-07-29T12:42:37Z</time>
      </trkpt>
      <trkpt lat="40.472200" lon="-5.217617">
        <ele>2288.0</ele>
        <time>2018-07-29T12:42:38Z</time>
      </trkpt>
      <trkpt lat="40.472267" lon="-5.217650">
        <ele>2284.0</ele>
        <time>2018-07-29T12:42:39Z</time>
      </trkpt>
      <trkpt lat="40.472333" lon="-5.217683">
        <ele>2280.0</ele>
        <time>2018-07-29T12:42:40Z</time>
      </trkpt>
      <trkpt lat="40.472433" lon="-5.217717">
        <ele>2277.0</ele>
        <time>2018-07-29T12:42:41Z</time>
      </trkpt>
      <trkpt lat="40.472517" lon="-5.217733">
        <ele>2275.0</ele>
        <time>2018-07-29T12:42:42Z</time>
      </trkpt>
      <trkpt lat="40.472600" lon="-5.217733">
        <ele>2275.0</ele>
        <time>2018-07-29T12:42:43Z</time>
      </trkpt>
      <trkpt lat="40.472683" lon="-5.217717">
        <ele>2275.0</ele>
        <time>2018-07-29T12:42:44Z</time>
      </trkpt>
      <trkpt lat="40.472750" lon="-5.217683">
        <ele>2274.0</ele>
        <time>2018-07-29T12:42:45Z</time>
      </trkpt>
      <trkpt lat="40.472833" lon="-5.217650">
        <ele>2272.0</ele>
        <time>2018-07-29T12:42:46Z</time>
      </trkpt>
      <trkpt lat="40.472917" lon="-5.217600">
        <ele>2268.0</ele>
        <time>2018-07-29T12:42:47Z</time>
      </trkpt>
      <trkpt lat="40.473017" lon="-5.217550">
        <ele>2265.0</ele>
        <time>2018-07-29T12:42:48Z</time>
      </trkpt>
      <trkpt lat="40.473117" lon="-5.217500">
        <ele>2263.0</ele>
        <time>2018-07-29T12:42:49Z</time>
      </trkpt>
      <trkpt lat="40.473233" lon="-5.217467">
        <ele>2261.0</ele>
        <time>2018-07-29T12:42:50Z</time>
      </trkpt>
      <trkpt lat="40.473333" lon="-5.217417">
        <ele>2259.0</ele>
        <time>2018-07-29T12:42:51Z</time>
      </trkpt>
      <trkpt lat="40.473433" lon="-5.217367">
        <ele>2258.0</ele>
        <time>2018-07-29T12:42:52Z</time>
      </trkpt>
      <trkpt lat="40.473517" lon="-5.217300">
        <ele>2256.0</ele>
        <time>2018-07-29T12:42:53Z</time>
      </trkpt>
      <trkpt lat="40.473617" lon="-5.217233">
        <ele>2253.0</ele>
        <time>2018-07-29T12:42:54Z</time>
      </trkpt>
      <trkpt lat="40.473717" lon="-5.217167">
        <ele>2250.0</ele>
        <time>2018-07-29T12:42:55Z</time>
      </trkpt>
      <trkpt lat="40.473800" lon="-5.217117">
        <ele>2248.0</ele>
        <time>2018-07-29T12:42:56Z</time>
      </trkpt>
      <trkpt lat="40.473883" lon="-5.217067">
        <ele>2246.0</ele>
        <time>2018-07-29T12:42:57Z</time>
      </trkpt>
      <trkpt lat="40.473967" lon="-5.217000">
        <ele>2244.0</ele>
        <time>2018-07-29T12:42:58Z</time>
      </trkpt>
      <trkpt lat="40.474067" lon="-5.216933">
        <ele>2240.0</ele>
        <time>2018-07-29T12:42:59Z</time>
      </trkpt>
      <trkpt lat="40.474150" lon="-5.216850">
        <ele>2237.0</ele>
        <time>2018-07-29T12:43:00Z</time>
      </trkpt>
      <trkpt lat="40.474250" lon="-5.216767">
        <ele>2234.0</ele>
        <time>2018-07-29T12:43:01Z</time>
      </trkpt>
      <trkpt lat="40.474350" lon="-5.216683">
        <ele>2231.0</ele>
        <time>2018-07-29T12:43:02Z</time>
      </trkpt>
      <trkpt lat="40.474433" lon="-5.216617">
        <ele>2230.0</ele>
        <time>2018-07-29T12:43:03Z</time>
      </trkpt>
      <trkpt lat="40.474517" lon="-5.216533">
        <ele>2228.0</ele>
        <time>2018-07-29T12:43:04Z</time>
      </trkpt>
      <trkpt lat="40.474600" lon="-5.216450">
        <ele>2226.0</ele>
        <time>2018-07-29T12:43:05Z</time>
      </trkpt>
      <trkpt lat="40.474667" lon="-5.216367">
        <ele>2223.0</ele>
        <time>2018-07-29T12:43:06Z</time>
      </trkpt>
      <trkpt lat="40.474750" lon="-5.216267">
        <ele>2220.0</ele>
        <time>2018-07-29T12:43:07Z</time>
      </trkpt>
      <trkpt lat="40.474833" lon="-5.216183">
        <ele>2217.0</ele>
        <time>2018-07-29T12:43:08Z</time>
      </trkpt>
      <trkpt lat="40.474917" lon="-5.216083">
        <ele>2214.0</ele>
        <time>2018-07-29T12:43:09Z</time>
      </trkpt>
      <trkpt lat="40.475017" lon="-5.216000">
        <ele>2211.0</ele>
        <time>2018-07-29T12:43:10Z</time>
      </trkpt>
      <trkpt lat="40.475100" lon="-5.215917">
        <ele>2209.0</ele>
        <time>2018-07-29T12:43:11Z</time>
      </trkpt>
      <trkpt lat="40.475183" lon="-5.215833">
        <ele>2207.0</ele>
        <time>2018-07-29T12:43:12Z</time>
      </trkpt>
      <trkpt lat="40.475250" lon="-5.215767">
        <ele>2205.0</ele>
        <time>2018-07-29T12:43:13Z</time>
      </trkpt>
      <trkpt lat="40.475333" lon="-5.215683">
        <ele>2202.0</ele>
        <time>2018-07-29T12:43:14Z</time>
      </trkpt>
      <trkpt lat="40.475417" lon="-5.215617">
        <ele>2199.0</ele>
        <time>2018-07-29T12:43:15Z</time>
      </trkpt>
      <trkpt lat="40.475500" lon="-5.215550">
        <ele>2196.0</ele>
        <time>2018-07-29T12:43:16Z</time>
      </trkpt>
      <trkpt lat="40.475583" lon="-5.215483">
        <ele>2193.0</ele>
        <time>2018-07-29T12:43:17Z</time>
      </trkpt>
      <trkpt lat="40.475667" lon="-5.215450">
        <ele>2189.0</ele>
        <time>2018-07-29T12:43:18Z</time>
      </trkpt>
      <trkpt lat="40.475767" lon="-5.215400">
        <ele>2186.0</ele>
        <time>2018-07-29T12:43:19Z</time>
      </trkpt>
      <trkpt lat="40.475867" lon="-5.215333">
        <ele>2183.0</ele>
        <time>2018-07-29T12:43:20Z</time>
      </trkpt>
      <trkpt lat="40.475950" lon="-5.215283">
        <ele>2180.0</ele>
        <time>2018-07-29T12:43:21Z</time>
      </trkpt>
      <trkpt lat="40.476050" lon="-5.215217">
        <ele>2178.0</ele>
        <time>2018-07-29T12:43:22Z</time>
      </trkpt>
      <trkpt lat="40.476150" lon="-5.215167">
        <ele>2175.0</ele>
        <time>2018-07-29T12:43:23Z</time>
      </trkpt>
      <trkpt lat="40.476233" lon="-5.215117">
        <ele>2171.0</ele>
        <time>2018-07-29T12:43:24Z</time>
      </trkpt>
      <trkpt lat="40.476350" lon="-5.215067">
        <ele>2167.0</ele>
        <time>2018-07-29T12:43:25Z</time>
      </trkpt>
      <trkpt lat="40.476450" lon="-5.215017">
        <ele>2162.0</ele>
        <time>2018-07-29T12:43:26Z</time>
      </trkpt>
      <trkpt lat="40.476567" lon="-5.214950">
        <ele>2159.0</ele>
        <time>2018-07-29T12:43:27Z</time>
      </trkpt>
      <trkpt lat="40.476683" lon="-5.214883">
        <ele>2156.0</ele>
        <time>2018-07-29T12:43:28Z</time>
      </trkpt>
      <trkpt lat="40.476783" lon="-5.214817">
        <ele>2154.0</ele>
        <time>2018-07-29T12:43:29Z</time>
      </trkpt>
      <trkpt lat="40.476883" lon="-5.214733">
        <ele>2151.0</ele>
        <time>2018-07-29T12:43:30Z</time>
      </trkpt>
      <trkpt lat="40.476983" lon="-5.214667">
        <ele>2148.0</ele>
        <time>2018-07-29T12:43:31Z</time>
      </trkpt>
      <trkpt lat="40.477083" lon="-5.214567">
        <ele>2145.0</ele>
        <time>2018-07-29T12:43:32Z</time>
      </trkpt>
      <trkpt lat="40.477167" lon="-5.214483">
        <ele>2141.0</ele>
        <time>2018-07-29T12:43:33Z</time>
      </trkpt>
      <trkpt lat="40.477283" lon="-5.214383">
        <ele>2137.0</ele>
        <time>2018-07-29T12:43:34Z</time>
      </trkpt>
      <trkpt lat="40.477383" lon="-5.214300">
        <ele>2135.0</ele>
        <time>2018-07-29T12:43:35Z</time>
      </trkpt>
      <trkpt lat="40.477467" lon="-5.214217">
        <ele>2132.0</ele>
        <time>2018-07-29T12:43:36Z</time>
      </trkpt>
      <trkpt lat="40.477567" lon="-5.214133">
        <ele>2129.0</ele>
        <time>2018-07-29T12:43:37Z</time>
      </trkpt>
      <trkpt lat="40.477667" lon="-5.214033">
        <ele>2125.0</ele>
        <time>2018-07-29T12:43:38Z</time>
      </trkpt>
      <trkpt lat="40.477783" lon="-5.213950">
        <ele>2121.0</ele>
        <time>2018-07-29T12:43:39Z</time>
      </trkpt>
      <trkpt lat="40.477900" lon="-5.213883">
        <ele>2117.0</ele>
        <time>2018-07-29T12:43:40Z</time>
      </trkpt>
      <trkpt lat="40.478017" lon="-5.213817">
        <ele>2115.0</ele>
        <time>2018-07-29T12:43:41Z</time>
      </trkpt>
      <trkpt lat="40.478117" lon="-5.213733">
        <ele>2114.0</ele>
        <time>2018-07-29T12:43:42Z</time>
      </trkpt>
      <trkpt lat="40.478217" lon="-5.213667">
        <ele>2112.0</ele>
        <time>2018-07-29T12:43:43Z</time>
      </trkpt>
      <trkpt lat="40.478317" lon="-5.213600">
        <ele>2110.0</ele>
        <time>2018-07-29T12:43:44Z</time>
      </trkpt>
      <trkpt lat="40.478417" lon="-5.213533">
        <ele>2108.0</ele>
        <time>2018-07-29T12:43:45Z</time>
      </trkpt>
      <trkpt lat="40.478517" lon="-5.213467">
        <ele>2104.0</ele>
        <time>2018-07-29T12:43:46Z</time>
      </trkpt>
      <trkpt lat="40.478633" lon="-5.213417">
        <ele>2101.0</ele>
        <time>2018-07-29T12:43:47Z</time>
      </trkpt>
      <trkpt lat="40.478750" lon="-5.213350">
        <ele>2098.0</ele>
        <time>2018-07-29T12:43:48Z</time>
      </trkpt>
      <trkpt lat="40.478867" lon="-5.213283">
        <ele>2097.0</ele>
        <time>2018-07-29T12:43:49Z</time>
      </trkpt>
      <trkpt lat="40.478967" lon="-5.213217">
        <ele>2096.0</ele>
        <time>2018-07-29T12:43:50Z</time>
      </trkpt>
      <trkpt lat="40.479050" lon="-5.213167">
        <ele>2094.0</ele>
        <time>2018-07-29T12:43:51Z</time>
      </trkpt>
      <trkpt lat="40.479150" lon="-5.213100">
        <ele>2092.0</ele>
        <time>2018-07-29T12:43:52Z</time>
      </trkpt>
      <trkpt lat="40.479233" lon="-5.213050">
        <ele>2090.0</ele>
        <time>2018-07-29T12:43:53Z</time>
      </trkpt>
      <trkpt lat="40.479317" lon="-5.212983">
        <ele>2087.0</ele>
        <time>2018-07-29T12:43:54Z</time>
      </trkpt>
      <trkpt lat="40.479417" lon="-5.212917">
        <ele>2084.0</ele>
        <time>2018-07-29T12:43:55Z</time>
      </trkpt>
      <trkpt lat="40.479500" lon="-5.212850">
        <ele>2081.0</ele>
        <time>2018-07-29T12:43:56Z</time>
      </trkpt>
      <trkpt lat="40.479600" lon="-5.212783">
        <ele>2078.0</ele>
        <time>2018-07-29T12:43:57Z</time>
      </trkpt>
      <trkpt lat="40.479683" lon="-5.212717">
        <ele>2076.0</ele>
        <time>2018-07-29T12:43:58Z</time>
      </trkpt>
      <trkpt lat="40.479783" lon="-5.212650">
        <ele>2073.0</ele>
        <time>2018-07-29T12:43:59Z</time>
      </trkpt>
      <trkpt lat="40.479883" lon="-5.212583">
        <ele>2070.0</ele>
        <time>2018-07-29T12:44:00Z</time>
      </trkpt>
      <trkpt lat="40.479983" lon="-5.212500">
        <ele>2067.0</ele>
        <time>2018-07-29T12:44:01Z</time>
      </trkpt>
      <trkpt lat="40.480067" lon="-5.212433">
        <ele>2065.0</ele>
        <time>2018-07-29T12:44:02Z</time>
      </trkpt>
      <trkpt lat="40.480167" lon="-5.212367">
        <ele>2063.0</ele>
        <time>2018-07-29T12:44:03Z</time>
      </trkpt>
      <trkpt lat="40.480233" lon="-5.212300">
        <ele>2061.0</ele>
        <time>2018-07-29T12:44:04Z</time>
      </trkpt>
      <trkpt lat="40.480317" lon="-5.212233">
        <ele>2059.0</ele>
        <time>2018-07-29T12:44:05Z</time>
      </trkpt>
      <trkpt lat="40.480383" lon="-5.212150">
        <ele>2055.0</ele>
        <time>2018-07-29T12:44:06Z</time>
      </trkpt>
      <trkpt lat="40.480467" lon="-5.212083">
        <ele>2051.0</ele>
        <time>2018-07-29T12:44:07Z</time>
      </trkpt>
      <trkpt lat="40.480567" lon="-5.212017">
        <ele>2047.0</ele>
        <time>2018-07-29T12:44:08Z</time>
      </trkpt>
      <trkpt lat="40.480667" lon="-5.211950">
        <ele>2045.0</ele>
        <time>2018-07-29T12:44:09Z</time>
      </trkpt>
      <trkpt lat="40.480750" lon="-5.211883">
        <ele>2045.0</ele>
        <time>2018-07-29T12:44:10Z</time>
      </trkpt>
      <trkpt lat="40.480833" lon="-5.211817">
        <ele>2045.0</ele>
        <time>2018-07-29T12:44:11Z</time>
      </trkpt>
      <trkpt lat="40.480917" lon="-5.211767">
        <ele>2045.0</ele>
        <time>2018-07-29T12:44:12Z</time>
      </trkpt>
      <trkpt lat="40.480983" lon="-5.211700">
        <ele>2045.0</ele>
        <time>2018-07-29T12:44:13Z</time>
      </trkpt>
      <trkpt lat="40.481067" lon="-5.211667">
        <ele>2045.0</ele>
        <time>2018-07-29T12:44:14Z</time>
      </trkpt>
      <trkpt lat="40.481133" lon="-5.211617">
        <ele>2043.0</ele>
        <time>2018-07-29T12:44:15Z</time>
      </trkpt>
      <trkpt lat="40.481183" lon="-5.211567">
        <ele>2042.0</ele>
        <time>2018-07-29T12:44:16Z</time>
      </trkpt>
      <trkpt lat="40.481250" lon="-5.211517">
        <ele>2040.0</ele>
        <time>2018-07-29T12:44:17Z</time>
      </trkpt>
      <trkpt lat="40.481317" lon="-5.211467">
        <ele>2038.0</ele>
        <time>2018-07-29T12:44:18Z</time>
      </trkpt>
      <trkpt lat="40.481383" lon="-5.211433">
        <ele>2036.0</ele>
        <time>2018-07-29T12:44:19Z</time>
      </trkpt>
      <trkpt lat="40.481467" lon="-5.211400">
        <ele>2035.0</ele>
        <time>2018-07-29T12:44:20Z</time>
      </trkpt>
      <trkpt lat="40.481533" lon="-5.211350">
        <ele>2034.0</ele>
        <time>2018-07-29T12:44:21Z</time>
      </trkpt>
      <trkpt lat="40.481600" lon="-5.211267">
        <ele>2033.0</ele>
        <time>2018-07-29T12:44:22Z</time>
      </trkpt>
      <trkpt lat="40.481667" lon="-5.211183">
        <ele>2032.0</ele>
        <time>2018-07-29T12:44:23Z</time>
      </trkpt>
      <trkpt lat="40.481750" lon="-5.211083">
        <ele>2033.0</ele>
        <time>2018-07-29T12:44:24Z</time>
      </trkpt>
      <trkpt lat="40.481817" lon="-5.211017">
        <ele>2033.0</ele>
        <time>2018-07-29T12:44:25Z</time>
      </trkpt>
      <trkpt lat="40.481883" lon="-5.210950">
        <ele>2034.0</ele>
        <time>2018-07-29T12:44:26Z</time>
      </trkpt>
      <trkpt lat="40.481933" lon="-5.210883">
        <ele>2035.0</ele>
        <time>2018-07-29T12:44:27Z</time>
      </trkpt>
      <trkpt lat="40.482000" lon="-5.210800">
        <ele>2036.0</ele>
        <time>2018-07-29T12:44:28Z</time>
      </trkpt>
      <trkpt lat="40.482050" lon="-5.210717">
        <ele>2038.0</ele>
        <time>2018-07-29T12:44:29Z</time>
      </trkpt>
      <trkpt lat="40.482100" lon="-5.210633">
        <ele>2039.0</ele>
        <time>2018-07-29T12:44:30Z</time>
      </trkpt>
      <trkpt lat="40.482150" lon="-5.210550">
        <ele>2040.0</ele>
        <time>2018-07-29T12:44:31Z</time>
      </trkpt>
      <trkpt lat="40.482200" lon="-5.210483">
        <ele>2040.0</ele>
        <time>2018-07-29T12:44:32Z</time>
      </trkpt>
      <trkpt lat="40.482250" lon="-5.210433">
        <ele>2038.0</ele>
        <time>2018-07-29T12:44:33Z</time>
      </trkpt>
      <trkpt lat="40.482317" lon="-5.210383">
        <ele>2035.0</ele>
        <time>2018-07-29T12:44:34Z</time>
      </trkpt>
      <trkpt lat="40.482383" lon="-5.210333">
        <ele>2033.0</ele>
        <time>2018-07-29T12:44:35Z</time>
      </trkpt>
      <trkpt lat="40.482467" lon="-5.210267">
        <ele>2031.0</ele>
        <time>2018-07-29T12:44:36Z</time>
      </trkpt>
      <trkpt lat="40.482550" lon="-5.210200">
        <ele>2029.0</ele>
        <time>2018-07-29T12:44:37Z</time>
      </trkpt>
      <trkpt lat="40.482633" lon="-5.210133">
        <ele>2028.0</ele>
        <time>2018-07-29T12:44:38Z</time>
      </trkpt>
      <trkpt lat="40.482717" lon="-5.210050">
        <ele>2026.0</ele>
        <time>2018-07-29T12:44:39Z</time>
      </trkpt>
      <trkpt lat="40.482800" lon="-5.209967">
        <ele>2025.0</ele>
        <time>2018-07-29T12:44:40Z</time>
      </trkpt>
      <trkpt lat="40.482900" lon="-5.209900">
        <ele>2025.0</ele>
        <time>2018-07-29T12:44:41Z</time>
      </trkpt>
      <trkpt lat="40.482983" lon="-5.209817">
        <ele>2024.0</ele>
        <time>2018-07-29T12:44:42Z</time>
      </trkpt>
      <trkpt lat="40.483083" lon="-5.209750">
        <ele>2024.0</ele>
        <time>2018-07-29T12:44:43Z</time>
      </trkpt>
      <trkpt lat="40.483150" lon="-5.209667">
        <ele>2024.0</ele>
        <time>2018-07-29T12:44:44Z</time>
      </trkpt>
      <trkpt lat="40.483233" lon="-5.209583">
        <ele>2023.0</ele>
        <time>2018-07-29T12:44:45Z</time>
      </trkpt>
      <trkpt lat="40.483317" lon="-5.209500">
        <ele>2022.0</ele>
        <time>2018-07-29T12:44:46Z</time>
      </trkpt>
      <trkpt lat="40.483400" lon="-5.209433">
        <ele>2020.0</ele>
        <time>2018-07-29T12:44:47Z</time>
      </trkpt>
      <trkpt lat="40.483483" lon="-5.209350">
        <ele>2018.0</ele>
        <time>2018-07-29T12:44:48Z</time>
      </trkpt>
      <trkpt lat="40.483567" lon="-5.209283">
        <ele>2016.0</ele>
        <time>2018-07-29T12:44:49Z</time>
      </trkpt>
      <trkpt lat="40.483667" lon="-5.209200">
        <ele>2014.0</ele>
        <time>2018-07-29T12:44:50Z</time>
      </trkpt>
      <trkpt lat="40.483750" lon="-5.209133">
        <ele>2012.0</ele>
        <time>2018-07-29T12:44:51Z</time>
      </trkpt>
      <trkpt lat="40.483817" lon="-5.209067">
        <ele>2011.0</ele>
        <time>2018-07-29T12:44:52Z</time>
      </trkpt>
      <trkpt lat="40.483900" lon="-5.209000">
        <ele>2009.0</ele>
        <time>2018-07-29T12:44:53Z</time>
      </trkpt>
      <trkpt lat="40.483983" lon="-5.208933">
        <ele>2007.0</ele>
        <time>2018-07-29T12:44:54Z</time>
      </trkpt>
      <trkpt lat="40.484067" lon="-5.208867">
        <ele>2005.0</ele>
        <time>2018-07-29T12:44:55Z</time>
      </trkpt>
      <trkpt lat="40.484150" lon="-5.208783">
        <ele>2003.0</ele>
        <time>2018-07-29T12:44:56Z</time>
      </trkpt>
      <trkpt lat="40.484233" lon="-5.208700">
        <ele>2002.0</ele>
        <time>2018-07-29T12:44:57Z</time>
      </trkpt>
      <trkpt lat="40.484317" lon="-5.208617">
        <ele>2000.0</ele>
        <time>2018-07-29T12:44:58Z</time>
      </trkpt>
      <trkpt lat="40.484383" lon="-5.208550">
        <ele>1998.0</ele>
        <time>2018-07-29T12:44:59Z</time>
      </trkpt>
      <trkpt lat="40.484483" lon="-5.208467">
        <ele>1996.0</ele>
        <time>2018-07-29T12:45:00Z</time>
      </trkpt>
      <trkpt lat="40.484567" lon="-5.208383">
        <ele>1993.0</ele>
        <time>2018-07-29T12:45:01Z</time>
      </trkpt>
      <trkpt lat="40.484650" lon="-5.208300">
        <ele>1991.0</ele>
        <time>2018-07-29T12:45:02Z</time>
      </trkpt>
      <trkpt lat="40.484750" lon="-5.208250">
        <ele>1990.0</ele>
        <time>2018-07-29T12:45:03Z</time>
      </trkpt>
      <trkpt lat="40.484817" lon="-5.208200">
        <ele>1989.0</ele>
        <time>2018-07-29T12:45:04Z</time>
      </trkpt>
      <trkpt lat="40.484900" lon="-5.208150">
        <ele>1988.0</ele>
        <time>2018-07-29T12:45:05Z</time>
      </trkpt>
      <trkpt lat="40.484983" lon="-5.208117">
        <ele>1986.0</ele>
        <time>2018-07-29T12:45:06Z</time>
      </trkpt>
      <trkpt lat="40.485067" lon="-5.208067">
        <ele>1985.0</ele>
        <time>2018-07-29T12:45:07Z</time>
      </trkpt>
      <trkpt lat="40.485167" lon="-5.208017">
        <ele>1983.0</ele>
        <time>2018-07-29T12:45:08Z</time>
      </trkpt>
      <trkpt lat="40.485250" lon="-5.207950">
        <ele>1982.0</ele>
        <time>2018-07-29T12:45:09Z</time>
      </trkpt>
      <trkpt lat="40.485350" lon="-5.207883">
        <ele>1980.0</ele>
        <time>2018-07-29T12:45:10Z</time>
      </trkpt>
      <trkpt lat="40.485433" lon="-5.207800">
        <ele>1978.0</ele>
        <time>2018-07-29T12:45:11Z</time>
      </trkpt>
      <trkpt lat="40.485533" lon="-5.207717">
        <ele>1977.0</ele>
        <time>2018-07-29T12:45:12Z</time>
      </trkpt>
      <trkpt lat="40.485617" lon="-5.207633">
        <ele>1975.0</ele>
        <time>2018-07-29T12:45:13Z</time>
      </trkpt>
      <trkpt lat="40.485700" lon="-5.207550">
        <ele>1974.0</ele>
        <time>2018-07-29T12:45:14Z</time>
      </trkpt>
      <trkpt lat="40.485783" lon="-5.207467">
        <ele>1973.0</ele>
        <time>2018-07-29T12:45:15Z</time>
      </trkpt>
      <trkpt lat="40.485883" lon="-5.207383">
        <ele>1970.0</ele>
        <time>2018-07-29T12:45:16Z</time>
      </trkpt>
      <trkpt lat="40.485967" lon="-5.207300">
        <ele>1968.0</ele>
        <time>2018-07-29T12:45:17Z</time>
      </trkpt>
      <trkpt lat="40.486067" lon="-5.207233">
        <ele>1966.0</ele>
        <time>2018-07-29T12:45:18Z</time>
      </trkpt>
      <trkpt lat="40.486150" lon="-5.207167">
        <ele>1964.0</ele>
        <time>2018-07-29T12:45:19Z</time>
      </trkpt>
      <trkpt lat="40.486250" lon="-5.207117">
        <ele>1962.0</ele>
        <time>2018-07-29T12:45:20Z</time>
      </trkpt>
      <trkpt lat="40.486333" lon="-5.207050">
        <ele>1960.0</ele>
        <time>2018-07-29T12:45:21Z</time>
      </trkpt>
      <trkpt lat="40.486433" lon="-5.206983">
        <ele>1958.0</ele>
        <time>2018-07-29T12:45:22Z</time>
      </trkpt>
      <trkpt lat="40.486533" lon="-5.206900">
        <ele>1955.0</ele>
        <time>2018-07-29T12:45:23Z</time>
      </trkpt>
      <trkpt lat="40.486633" lon="-5.206833">
        <ele>1954.0</ele>
        <time>2018-07-29T12:45:24Z</time>
      </trkpt>
      <trkpt lat="40.486733" lon="-5.206767">
        <ele>1953.0</ele>
        <time>2018-07-29T12:45:25Z</time>
      </trkpt>
      <trkpt lat="40.486833" lon="-5.206700">
        <ele>1953.0</ele>
        <time>2018-07-29T12:45:26Z</time>
      </trkpt>
      <trkpt lat="40.486917" lon="-5.206633">
        <ele>1953.0</ele>
        <time>2018-07-29T12:45:27Z</time>
      </trkpt>
      <trkpt lat="40.487000" lon="-5.206583">
        <ele>1952.0</ele>
        <time>2018-07-29T12:45:28Z</time>
      </trkpt>
      <trkpt lat="40.487083" lon="-5.206517">
        <ele>1951.0</ele>
        <time>2018-07-29T12:45:29Z</time>
      </trkpt>
      <trkpt lat="40.487183" lon="-5.206433">
        <ele>1949.0</ele>
        <time>2018-07-29T12:45:30Z</time>
      </trkpt>
      <trkpt lat="40.487267" lon="-5.206367">
        <ele>1947.0</ele>
        <time>2018-07-29T12:45:31Z</time>
      </trkpt>
      <trkpt lat="40.487367" lon="-5.206300">
        <ele>1945.0</ele>
        <time>2018-07-29T12:45:32Z</time>
      </trkpt>
      <trkpt lat="40.487450" lon="-5.206233">
        <ele>1944.0</ele>
        <time>2018-07-29T12:45:33Z</time>
      </trkpt>
      <trkpt lat="40.487550" lon="-5.206167">
        <ele>1942.0</ele>
        <time>2018-07-29T12:45:34Z</time>
      </trkpt>
      <trkpt lat="40.487633" lon="-5.206100">
        <ele>1940.0</ele>
        <time>2018-07-29T12:45:35Z</time>
      </trkpt>
      <trkpt lat="40.487717" lon="-5.206033">
        <ele>1938.0</ele>
        <time>2018-07-29T12:45:36Z</time>
      </trkpt>
      <trkpt lat="40.487817" lon="-5.205967">
        <ele>1936.0</ele>
        <time>2018-07-29T12:45:37Z</time>
      </trkpt>
      <trkpt lat="40.487900" lon="-5.205900">
        <ele>1934.0</ele>
        <time>2018-07-29T12:45:38Z</time>
      </trkpt>
      <trkpt lat="40.488000" lon="-5.205817">
        <ele>1932.0</ele>
        <time>2018-07-29T12:45:39Z</time>
      </trkpt>
      <trkpt lat="40.488083" lon="-5.205750">
        <ele>1931.0</ele>
        <time>2018-07-29T12:45:40Z</time>
      </trkpt>
      <trkpt lat="40.488183" lon="-5.205683">
        <ele>1929.0</ele>
        <time>2018-07-29T12:45:41Z</time>
      </trkpt>
      <trkpt lat="40.488267" lon="-5.205633">
        <ele>1928.0</ele>
        <time>2018-07-29T12:45:42Z</time>
      </trkpt>
      <trkpt lat="40.488367" lon="-5.205567">
        <ele>1927.0</ele>
        <time>2018-07-29T12:45:43Z</time>
      </trkpt>
      <trkpt lat="40.488450" lon="-5.205500">
        <ele>1925.0</ele>
        <time>2018-07-29T12:45:44Z</time>
      </trkpt>
      <trkpt lat="40.488533" lon="-5.205450">
        <ele>1923.0</ele>
        <time>2018-07-29T12:45:45Z</time>
      </trkpt>
      <trkpt lat="40.488617" lon="-5.205383">
        <ele>1921.0</ele>
        <time>2018-07-29T12:45:46Z</time>
      </trkpt>
      <trkpt lat="40.488717" lon="-5.205317">
        <ele>1919.0</ele>
        <time>2018-07-29T12:45:47Z</time>
      </trkpt>
      <trkpt lat="40.488800" lon="-5.205250">
        <ele>1917.0</ele>
        <time>2018-07-29T12:45:48Z</time>
      </trkpt>
      <trkpt lat="40.488900" lon="-5.205183">
        <ele>1916.0</ele>
        <time>2018-07-29T12:45:49Z</time>
      </trkpt>
      <trkpt lat="40.488983" lon="-5.205100">
        <ele>1914.0</ele>
        <time>2018-07-29T12:45:50Z</time>
      </trkpt>
      <trkpt lat="40.489067" lon="-5.205017">
        <ele>1913.0</ele>
        <time>2018-07-29T12:45:51Z</time>
      </trkpt>
      <trkpt lat="40.489150" lon="-5.204933">
        <ele>1912.0</ele>
        <time>2018-07-29T12:45:52Z</time>
      </trkpt>
      <trkpt lat="40.489233" lon="-5.204850">
        <ele>1910.0</ele>
        <time>2018-07-29T12:45:53Z</time>
      </trkpt>
      <trkpt lat="40.489317" lon="-5.204767">
        <ele>1909.0</ele>
        <time>2018-07-29T12:45:54Z</time>
      </trkpt>
      <trkpt lat="40.489400" lon="-5.204683">
        <ele>1906.0</ele>
        <time>2018-07-29T12:45:55Z</time>
      </trkpt>
      <trkpt lat="40.489500" lon="-5.204600">
        <ele>1905.0</ele>
        <time>2018-07-29T12:45:56Z</time>
      </trkpt>
      <trkpt lat="40.489583" lon="-5.204517">
        <ele>1903.0</ele>
        <time>2018-07-29T12:45:57Z</time>
      </trkpt>
      <trkpt lat="40.489683" lon="-5.204433">
        <ele>1903.0</ele>
        <time>2018-07-29T12:45:58Z</time>
      </trkpt>
      <trkpt lat="40.489767" lon="-5.204350">
        <ele>1902.0</ele>
        <time>2018-07-29T12:45:59Z</time>
      </trkpt>
      <trkpt lat="40.489850" lon="-5.204267">
        <ele>1900.0</ele>
        <time>2018-07-29T12:46:00Z</time>
      </trkpt>
      <trkpt lat="40.489933" lon="-5.204167">
        <ele>1899.0</ele>
        <time>2018-07-29T12:46:01Z</time>
      </trkpt>
      <trkpt lat="40.490017" lon="-5.204083">
        <ele>1897.0</ele>
        <time>2018-07-29T12:46:02Z</time>
      </trkpt>
      <trkpt lat="40.490100" lon="-5.203983">
        <ele>1896.0</ele>
        <time>2018-07-29T12:46:03Z</time>
      </trkpt>
      <trkpt lat="40.490183" lon="-5.203883">
        <ele>1896.0</ele>
        <time>2018-07-29T12:46:04Z</time>
      </trkpt>
      <trkpt lat="40.490250" lon="-5.203783">
        <ele>1895.0</ele>
        <time>2018-07-29T12:46:05Z</time>
      </trkpt>
      <trkpt lat="40.490333" lon="-5.203683">
        <ele>1894.0</ele>
        <time>2018-07-29T12:46:06Z</time>
      </trkpt>
      <trkpt lat="40.490417" lon="-5.203567">
        <ele>1893.0</ele>
        <time>2018-07-29T12:46:07Z</time>
      </trkpt>
      <trkpt lat="40.490500" lon="-5.203467">
        <ele>1892.0</ele>
        <time>2018-07-29T12:46:08Z</time>
      </trkpt>
      <trkpt lat="40.490583" lon="-5.203367">
        <ele>1891.0</ele>
        <time>2018-07-29T12:46:09Z</time>
      </trkpt>
      <trkpt lat="40.490650" lon="-5.203250">
        <ele>1891.0</ele>
        <time>2018-07-29T12:46:10Z</time>
      </trkpt>
      <trkpt lat="40.490733" lon="-5.203150">
        <ele>1890.0</ele>
        <time>2018-07-29T12:46:11Z</time>
      </trkpt>
      <trkpt lat="40.490833" lon="-5.203050">
        <ele>1889.0</ele>
        <time>2018-07-29T12:46:12Z</time>
      </trkpt>
      <trkpt lat="40.490917" lon="-5.202983">
        <ele>1887.0</ele>
        <time>2018-07-29T12:46:13Z</time>
      </trkpt>
      <trkpt lat="40.491017" lon="-5.202900">
        <ele>1886.0</ele>
        <time>2018-07-29T12:46:14Z</time>
      </trkpt>
      <trkpt lat="40.491100" lon="-5.202817">
        <ele>1885.0</ele>
        <time>2018-07-29T12:46:15Z</time>
      </trkpt>
      <trkpt lat="40.491183" lon="-5.202733">
        <ele>1884.0</ele>
        <time>2018-07-29T12:46:16Z</time>
      </trkpt>
      <trkpt lat="40.491283" lon="-5.202633">
        <ele>1883.0</ele>
        <time>2018-07-29T12:46:17Z</time>
      </trkpt>
      <trkpt lat="40.491367" lon="-5.202550">
        <ele>1881.0</ele>
        <time>2018-07-29T12:46:18Z</time>
      </trkpt>
      <trkpt lat="40.491450" lon="-5.202467">
        <ele>1880.0</ele>
        <time>2018-07-29T12:46:19Z</time>
      </trkpt>
      <trkpt lat="40.491550" lon="-5.202383">
        <ele>1878.0</ele>
        <time>2018-07-29T12:46:20Z</time>
      </trkpt>
      <trkpt lat="40.491650" lon="-5.202300">
        <ele>1876.0</ele>
        <time>2018-07-29T12:46:21Z</time>
      </trkpt>
      <trkpt lat="40.491733" lon="-5.202200">
        <ele>1874.0</ele>
        <time>2018-07-29T12:46:22Z</time>
      </trkpt>
      <trkpt lat="40.491833" lon="-5.202117">
        <ele>1872.0</ele>
        <time>2018-07-29T12:46:23Z</time>
      </trkpt>
      <trkpt lat="40.491917" lon="-5.202033">
        <ele>1870.0</ele>
        <time>2018-07-29T12:46:24Z</time>
      </trkpt>
      <trkpt lat="40.492000" lon="-5.201950">
        <ele>1868.0</ele>
        <time>2018-07-29T12:46:25Z</time>
      </trkpt>
      <trkpt lat="40.492100" lon="-5.201850">
        <ele>1866.0</ele>
        <time>2018-07-29T12:46:26Z</time>
      </trkpt>
      <trkpt lat="40.492183" lon="-5.201733">
        <ele>1864.0</ele>
        <time>2018-07-29T12:46:27Z</time>
      </trkpt>
      <trkpt lat="40.492250" lon="-5.201617">
        <ele>1863.0</ele>
        <time>2018-07-29T12:46:28Z</time>
      </trkpt>
      <trkpt lat="40.492317" lon="-5.201517">
        <ele>1861.0</ele>
        <time>2018-07-29T12:46:29Z</time>
      </trkpt>
      <trkpt lat="40.492400" lon="-5.201417">
        <ele>1859.0</ele>
        <time>2018-07-29T12:46:30Z</time>
      </trkpt>
      <trkpt lat="40.492467" lon="-5.201317">
        <ele>1858.0</ele>
        <time>2018-07-29T12:46:31Z</time>
      </trkpt>
      <trkpt lat="40.492567" lon="-5.201233">
        <ele>1857.0</ele>
        <time>2018-07-29T12:46:32Z</time>
      </trkpt>
      <trkpt lat="40.492650" lon="-5.201150">
        <ele>1856.0</ele>
        <time>2018-07-29T12:46:33Z</time>
      </trkpt>
      <trkpt lat="40.492717" lon="-5.201067">
        <ele>1856.0</ele>
        <time>2018-07-29T12:46:34Z</time>
      </trkpt>
      <trkpt lat="40.492783" lon="-5.200967">
        <ele>1856.0</ele>
        <time>2018-07-29T12:46:35Z</time>
      </trkpt>
      <trkpt lat="40.492850" lon="-5.200883">
        <ele>1855.0</ele>
        <time>2018-07-29T12:46:36Z</time>
      </trkpt>
      <trkpt lat="40.492933" lon="-5.200783">
        <ele>1853.0</ele>
        <time>2018-07-29T12:46:37Z</time>
      </trkpt>
      <trkpt lat="40.493000" lon="-5.200667">
        <ele>1851.0</ele>
        <time>2018-07-29T12:46:38Z</time>
      </trkpt>
      <trkpt lat="40.493100" lon="-5.200567">
        <ele>1849.0</ele>
        <time>2018-07-29T12:46:39Z</time>
      </trkpt>
      <trkpt lat="40.493183" lon="-5.200450">
        <ele>1848.0</ele>
        <time>2018-07-29T12:46:40Z</time>
      </trkpt>
      <trkpt lat="40.493283" lon="-5.200333">
        <ele>1847.0</ele>
        <time>2018-07-29T12:46:41Z</time>
      </trkpt>
      <trkpt lat="40.493367" lon="-5.200217">
        <ele>1847.0</ele>
        <time>2018-07-29T12:46:42Z</time>
      </trkpt>
      <trkpt lat="40.493450" lon="-5.200100">
        <ele>1848.0</ele>
        <time>2018-07-29T12:46:43Z</time>
      </trkpt>
      <trkpt lat="40.493533" lon="-5.200000">
        <ele>1849.0</ele>
        <time>2018-07-29T12:46:44Z</time>
      </trkpt>
      <trkpt lat="40.493617" lon="-5.199883">
        <ele>1850.0</ele>
        <time>2018-07-29T12:46:45Z</time>
      </trkpt>
      <trkpt lat="40.493700" lon="-5.199783">
        <ele>1851.0</ele>
        <time>2018-07-29T12:46:46Z</time>
      </trkpt>
      <trkpt lat="40.493767" lon="-5.199683">
        <ele>1851.0</ele>
        <time>2018-07-29T12:46:47Z</time>
      </trkpt>
      <trkpt lat="40.493867" lon="-5.199600">
        <ele>1851.0</ele>
        <time>2018-07-29T12:46:48Z</time>
      </trkpt>
      <trkpt lat="40.493950" lon="-5.199517">
        <ele>1852.0</ele>
        <time>2018-07-29T12:46:49Z</time>
      </trkpt>
      <trkpt lat="40.494050" lon="-5.199433">
        <ele>1853.0</ele>
        <time>2018-07-29T12:46:50Z</time>
      </trkpt>
      <trkpt lat="40.494133" lon="-5.199367">
        <ele>1856.0</ele>
        <time>2018-07-29T12:46:51Z</time>
      </trkpt>
      <trkpt lat="40.494217" lon="-5.199317">
        <ele>1858.0</ele>
        <time>2018-07-29T12:46:52Z</time>
      </trkpt>
      <trkpt lat="40.494300" lon="-5.199283">
        <ele>1859.0</ele>
        <time>2018-07-29T12:46:53Z</time>
      </trkpt>
      <trkpt lat="40.494383" lon="-5.199217">
        <ele>1860.0</ele>
        <time>2018-07-29T12:46:54Z</time>
      </trkpt>
      <trkpt lat="40.494467" lon="-5.199150">
        <ele>1860.0</ele>
        <time>2018-07-29T12:46:55Z</time>
      </trkpt>
      <trkpt lat="40.494550" lon="-5.199067">
        <ele>1860.0</ele>
        <time>2018-07-29T12:46:56Z</time>
      </trkpt>
      <trkpt lat="40.494633" lon="-5.198967">
        <ele>1859.0</ele>
        <time>2018-07-29T12:46:57Z</time>
      </trkpt>
      <trkpt lat="40.494733" lon="-5.198883">
        <ele>1858.0</ele>
        <time>2018-07-29T12:46:58Z</time>
      </trkpt>
      <trkpt lat="40.494833" lon="-5.198783">
        <ele>1858.0</ele>
        <time>2018-07-29T12:46:59Z</time>
      </trkpt>
      <trkpt lat="40.494917" lon="-5.198683">
        <ele>1858.0</ele>
        <time>2018-07-29T12:47:00Z</time>
      </trkpt>
      <trkpt lat="40.495000" lon="-5.198583">
        <ele>1860.0</ele>
        <time>2018-07-29T12:47:01Z</time>
      </trkpt>
      <trkpt lat="40.495083" lon="-5.198483">
        <ele>1861.0</ele>
        <time>2018-07-29T12:47:02Z</time>
      </trkpt>
      <trkpt lat="40.495150" lon="-5.198400">
        <ele>1862.0</ele>
        <time>2018-07-29T12:47:03Z</time>
      </trkpt>
      <trkpt lat="40.495233" lon="-5.198300">
        <ele>1863.0</ele>
        <time>2018-07-29T12:47:04Z</time>
      </trkpt>
      <trkpt lat="40.495317" lon="-5.198233">
        <ele>1863.0</ele>
        <time>2018-07-29T12:47:05Z</time>
      </trkpt>
      <trkpt lat="40.495400" lon="-5.198183">
        <ele>1864.0</ele>
        <time>2018-07-29T12:47:06Z</time>
      </trkpt>
      <trkpt lat="40.495483" lon="-5.198167">
        <ele>1865.0</ele>
        <time>2018-07-29T12:47:07Z</time>
      </trkpt>
      <trkpt lat="40.495550" lon="-5.198167">
        <ele>1865.0</ele>
        <time>2018-07-29T12:47:08Z</time>
      </trkpt>
      <trkpt lat="40.495617" lon="-5.198183">
        <ele>1864.0</ele>
        <time>2018-07-29T12:47:09Z</time>
      </trkpt>
      <trkpt lat="40.495683" lon="-5.198200">
        <ele>1863.0</ele>
        <time>2018-07-29T12:47:10Z</time>
      </trkpt>
      <trkpt lat="40.495767" lon="-5.198217">
        <ele>1863.0</ele>
        <time>2018-07-29T12:47:11Z</time>
      </trkpt>
      <trkpt lat="40.495867" lon="-5.198200">
        <ele>1863.0</ele>
        <time>2018-07-29T12:47:12Z</time>
      </trkpt>
      <trkpt lat="40.495950" lon="-5.198167">
        <ele>1863.0</ele>
        <time>2018-07-29T12:47:13Z</time>
      </trkpt>
      <trkpt lat="40.496050" lon="-5.198133">
        <ele>1864.0</ele>
        <time>2018-07-29T12:47:14Z</time>
      </trkpt>
      <trkpt lat="40.496133" lon="-5.198067">
        <ele>1866.0</ele>
        <time>2018-07-29T12:47:15Z</time>
      </trkpt>
      <trkpt lat="40.496217" lon="-5.197983">
        <ele>1867.0</ele>
        <time>2018-07-29T12:47:16Z</time>
      </trkpt>
      <trkpt lat="40.496300" lon="-5.197883">
        <ele>1869.0</ele>
        <time>2018-07-29T12:47:17Z</time>
      </trkpt>
      <trkpt lat="40.496367" lon="-5.197783">
        <ele>1870.0</ele>
        <time>2018-07-29T12:47:18Z</time>
      </trkpt>
      <trkpt lat="40.496433" lon="-5.197650">
        <ele>1871.0</ele>
        <time>2018-07-29T12:47:19Z</time>
      </trkpt>
      <trkpt lat="40.496483" lon="-5.197483">
        <ele>1873.0</ele>
        <time>2018-07-29T12:47:20Z</time>
      </trkpt>
      <trkpt lat="40.496517" lon="-5.197317">
        <ele>1874.0</ele>
        <time>2018-07-29T12:47:21Z</time>
      </trkpt>
      <trkpt lat="40.496517" lon="-5.197117">
        <ele>1875.0</ele>
        <time>2018-07-29T12:47:22Z</time>
      </trkpt>
      <trkpt lat="40.496483" lon="-5.196950">
        <ele>1877.0</ele>
        <time>2018-07-29T12:47:23Z</time>
      </trkpt>
      <trkpt lat="40.496433" lon="-5.196800">
        <ele>1879.0</ele>
        <time>2018-07-29T12:47:24Z</time>
      </trkpt>
      <trkpt lat="40.496367" lon="-5.196683">
        <ele>1879.0</ele>
        <time>2018-07-29T12:47:25Z</time>
      </trkpt>
      <trkpt lat="40.496267" lon="-5.196583">
        <ele>1879.0</ele>
        <time>2018-07-29T12:47:26Z</time>
      </trkpt>
      <trkpt lat="40.496167" lon="-5.196533">
        <ele>1878.0</ele>
        <time>2018-07-29T12:47:27Z</time>
      </trkpt>
      <trkpt lat="40.496050" lon="-5.196517">
        <ele>1878.0</ele>
        <time>2018-07-29T12:47:28Z</time>
      </trkpt>
      <trkpt lat="40.495950" lon="-5.196533">
        <ele>1878.0</ele>
        <time>2018-07-29T12:47:29Z</time>
      </trkpt>
      <trkpt lat="40.495867" lon="-5.196583">
        <ele>1879.0</ele>
        <time>2018-07-29T12:47:30Z</time>
      </trkpt>
      <trkpt lat="40.495833" lon="-5.196650">
        <ele>1880.0</ele>
        <time>2018-07-29T12:47:31Z</time>
      </trkpt>
      <trkpt lat="40.495817" lon="-5.196733">
        <ele>1880.0</ele>
        <time>2018-07-29T12:47:32Z</time>
      </trkpt>
      <trkpt lat="40.495817" lon="-5.196817">
        <ele>1880.0</ele>
        <time>2018-07-29T12:47:33Z</time>
      </trkpt>
      <trkpt lat="40.495850" lon="-5.196883">
        <ele>1880.0</ele>
        <time>2018-07-29T12:47:34Z</time>
      </trkpt>
      <trkpt lat="40.495883" lon="-5.196950">
        <ele>1880.0</ele>
        <time>2018-07-29T12:47:35Z</time>
      </trkpt>
      <trkpt lat="40.495950" lon="-5.197000">
        <ele>1881.0</ele>
        <time>2018-07-29T12:47:36Z</time>
      </trkpt>
      <trkpt lat="40.496017" lon="-5.197017">
        <ele>1882.0</ele>
        <time>2018-07-29T12:47:37Z</time>
      </trkpt>
      <trkpt lat="40.496100" lon="-5.197017">
        <ele>1884.0</ele>
        <time>2018-07-29T12:47:38Z</time>
      </trkpt>
      <trkpt lat="40.496183" lon="-5.197000">
        <ele>1886.0</ele>
        <time>2018-07-29T12:47:39Z</time>
      </trkpt>
      <trkpt lat="40.496250" lon="-5.196950">
        <ele>1888.0</ele>
        <time>2018-07-29T12:47:40Z</time>
      </trkpt>
      <trkpt lat="40.496333" lon="-5.196900">
        <ele>1889.0</ele>
        <time>2018-07-29T12:47:41Z</time>
      </trkpt>
      <trkpt lat="40.496400" lon="-5.196833">
        <ele>1891.0</ele>
        <time>2018-07-29T12:47:42Z</time>
      </trkpt>
      <trkpt lat="40.496483" lon="-5.196733">
        <ele>1892.0</ele>
        <time>2018-07-29T12:47:43Z</time>
      </trkpt>
      <trkpt lat="40.496550" lon="-5.196633">
        <ele>1893.0</ele>
        <time>2018-07-29T12:47:44Z</time>
      </trkpt>
      <trkpt lat="40.496600" lon="-5.196483">
        <ele>1894.0</ele>
        <time>2018-07-29T12:47:45Z</time>
      </trkpt>
      <trkpt lat="40.496633" lon="-5.196317">
        <ele>1895.0</ele>
        <time>2018-07-29T12:47:46Z</time>
      </trkpt>
      <trkpt lat="40.496650" lon="-5.196133">
        <ele>1895.0</ele>
        <time>2018-07-29T12:47:47Z</time>
      </trkpt>
      <trkpt lat="40.496633" lon="-5.195933">
        <ele>1895.0</ele>
        <time>2018-07-29T12:47:48Z</time>
      </trkpt>
      <trkpt lat="40.496600" lon="-5.195767">
        <ele>1895.0</ele>
        <time>2018-07-29T12:47:49Z</time>
      </trkpt>
      <trkpt lat="40.496517" lon="-5.195600">
        <ele>1895.0</ele>
        <time>2018-07-29T12:47:50Z</time>
      </trkpt>
      <trkpt lat="40.496400" lon="-5.195500">
        <ele>1895.0</ele>
        <time>2018-07-29T12:47:51Z</time>
      </trkpt>
      <trkpt lat="40.496283" lon="-5.195433">
        <ele>1895.0</ele>
        <time>2018-07-29T12:47:52Z</time>
      </trkpt>
      <trkpt lat="40.496167" lon="-5.195400">
        <ele>1896.0</ele>
        <time>2018-07-29T12:47:53Z</time>
      </trkpt>
      <trkpt lat="40.496083" lon="-5.195400">
        <ele>1898.0</ele>
        <time>2018-07-29T12:47:54Z</time>
      </trkpt>
      <trkpt lat="40.496000" lon="-5.195417">
        <ele>1898.0</ele>
        <time>2018-07-29T12:47:55Z</time>
      </trkpt>
      <trkpt lat="40.495933" lon="-5.195467">
        <ele>1897.0</ele>
        <time>2018-07-29T12:47:56Z</time>
      </trkpt>
      <trkpt lat="40.495883" lon="-5.195533">
        <ele>1897.0</ele>
        <time>2018-07-29T12:47:57Z</time>
      </trkpt>
      <trkpt lat="40.495850" lon="-5.195633">
        <ele>1897.0</ele>
        <time>2018-07-29T12:47:58Z</time>
      </trkpt>
      <trkpt lat="40.495850" lon="-5.195717">
        <ele>1897.0</ele>
        <time>2018-07-29T12:47:59Z</time>
      </trkpt>
      <trkpt lat="40.495867" lon="-5.195783">
        <ele>1897.0</ele>
        <time>2018-07-29T12:48:00Z</time>
      </trkpt>
      <trkpt lat="40.495933" lon="-5.195833">
        <ele>1898.0</ele>
        <time>2018-07-29T12:48:01Z</time>
      </trkpt>
      <trkpt lat="40.496000" lon="-5.195850">
        <ele>1899.0</ele>
        <time>2018-07-29T12:48:02Z</time>
      </trkpt>
      <trkpt lat="40.496067" lon="-5.195850">
        <ele>1901.0</ele>
        <time>2018-07-29T12:48:03Z</time>
      </trkpt>
      <trkpt lat="40.496133" lon="-5.195850">
        <ele>1903.0</ele>
        <time>2018-07-29T12:48:04Z</time>
      </trkpt>
      <trkpt lat="40.496200" lon="-5.195817">
        <ele>1904.0</ele>
        <time>2018-07-29T12:48:05Z</time>
      </trkpt>
      <trkpt lat="40.496283" lon="-5.195783">
        <ele>1905.0</ele>
        <time>2018-07-29T12:48:06Z</time>
      </trkpt>
      <trkpt lat="40.496367" lon="-5.195717">
        <ele>1905.0</ele>
        <time>2018-07-29T12:48:07Z</time>
      </trkpt>
      <trkpt lat="40.496450" lon="-5.195617">
        <ele>1905.0</ele>
        <time>2018-07-29T12:48:08Z</time>
      </trkpt>
      <trkpt lat="40.496533" lon="-5.195500">
        <ele>1906.0</ele>
        <time>2018-07-29T12:48:09Z</time>
      </trkpt>
      <trkpt lat="40.496617" lon="-5.195383">
        <ele>1906.0</ele>
        <time>2018-07-29T12:48:10Z</time>
      </trkpt>
      <trkpt lat="40.496700" lon="-5.195250">
        <ele>1906.0</ele>
        <time>2018-07-29T12:48:11Z</time>
      </trkpt>
      <trkpt lat="40.496800" lon="-5.195150">
        <ele>1906.0</ele>
        <time>2018-07-29T12:48:12Z</time>
      </trkpt>
      <trkpt lat="40.496900" lon="-5.195033">
        <ele>1907.0</ele>
        <time>2018-07-29T12:48:13Z</time>
      </trkpt>
      <trkpt lat="40.496983" lon="-5.194900">
        <ele>1908.0</ele>
        <time>2018-07-29T12:48:14Z</time>
      </trkpt>
      <trkpt lat="40.497050" lon="-5.194767">
        <ele>1908.0</ele>
        <time>2018-07-29T12:48:15Z</time>
      </trkpt>
      <trkpt lat="40.497133" lon="-5.194650">
        <ele>1908.0</ele>
        <time>2018-07-29T12:48:16Z</time>
      </trkpt>
      <trkpt lat="40.497217" lon="-5.194550">
        <ele>1907.0</ele>
        <time>2018-07-29T12:48:17Z</time>
      </trkpt>
      <trkpt lat="40.497333" lon="-5.194467">
        <ele>1906.0</ele>
        <time>2018-07-29T12:48:18Z</time>
      </trkpt>
      <trkpt lat="40.497433" lon="-5.194367">
        <ele>1907.0</ele>
        <time>2018-07-29T12:48:19Z</time>
      </trkpt>
      <trkpt lat="40.497533" lon="-5.194283">
        <ele>1908.0</ele>
        <time>2018-07-29T12:48:20Z</time>
      </trkpt>
      <trkpt lat="40.497633" lon="-5.194183">
        <ele>1909.0</ele>
        <time>2018-07-29T12:48:21Z</time>
      </trkpt>
      <trkpt lat="40.497733" lon="-5.194117">
        <ele>1911.0</ele>
        <time>2018-07-29T12:48:22Z</time>
      </trkpt>
      <trkpt lat="40.497833" lon="-5.194033">
        <ele>1912.0</ele>
        <time>2018-07-29T12:48:23Z</time>
      </trkpt>
      <trkpt lat="40.497917" lon="-5.193967">
        <ele>1914.0</ele>
        <time>2018-07-29T12:48:24Z</time>
      </trkpt>
      <trkpt lat="40.498000" lon="-5.193883">
        <ele>1916.0</ele>
        <time>2018-07-29T12:48:25Z</time>
      </trkpt>
      <trkpt lat="40.498083" lon="-5.193800">
        <ele>1917.0</ele>
        <time>2018-07-29T12:48:26Z</time>
      </trkpt>
      <trkpt lat="40.498167" lon="-5.193717">
        <ele>1918.0</ele>
        <time>2018-07-29T12:48:27Z</time>
      </trkpt>
      <trkpt lat="40.498267" lon="-5.193617">
        <ele>1918.0</ele>
        <time>2018-07-29T12:48:28Z</time>
      </trkpt>
      <trkpt lat="40.498350" lon="-5.193483">
        <ele>1919.0</ele>
        <time>2018-07-29T12:48:29Z</time>
      </trkpt>
      <trkpt lat="40.498433" lon="-5.193350">
        <ele>1919.0</ele>
        <time>2018-07-29T12:48:30Z</time>
      </trkpt>
      <trkpt lat="40.498517" lon="-5.193183">
        <ele>1922.0</ele>
        <time>2018-07-29T12:48:31Z</time>
      </trkpt>
      <trkpt lat="40.498583" lon="-5.193033">
        <ele>1924.0</ele>
        <time>2018-07-29T12:48:32Z</time>
      </trkpt>
      <trkpt lat="40.498667" lon="-5.192900">
        <ele>1927.0</ele>
        <time>2018-07-29T12:48:33Z</time>
      </trkpt>
      <trkpt lat="40.498733" lon="-5.192767">
        <ele>1930.0</ele>
        <time>2018-07-29T12:48:34Z</time>
      </trkpt>
      <trkpt lat="40.498800" lon="-5.192633">
        <ele>1933.0</ele>
        <time>2018-07-29T12:48:35Z</time>
      </trkpt>
      <trkpt lat="40.498867" lon="-5.192500">
        <ele>1937.0</ele>
        <time>2018-07-29T12:48:36Z</time>
      </trkpt>
      <trkpt lat="40.498933" lon="-5.192367">
        <ele>1940.0</ele>
        <time>2018-07-29T12:48:37Z</time>
      </trkpt>
      <trkpt lat="40.499000" lon="-5.192283">
        <ele>1942.0</ele>
        <time>2018-07-29T12:48:38Z</time>
      </trkpt>
      <trkpt lat="40.499100" lon="-5.192233">
        <ele>1944.0</ele>
        <time>2018-07-29T12:48:39Z</time>
      </trkpt>
      <trkpt lat="40.499183" lon="-5.192233">
        <ele>1945.0</ele>
        <time>2018-07-29T12:48:40Z</time>
      </trkpt>
      <trkpt lat="40.499250" lon="-5.192283">
        <ele>1947.0</ele>
        <time>2018-07-29T12:48:41Z</time>
      </trkpt>
      <trkpt lat="40.499300" lon="-5.192367">
        <ele>1950.0</ele>
        <time>2018-07-29T12:48:42Z</time>
      </trkpt>
      <trkpt lat="40.499283" lon="-5.192450">
        <ele>1955.0</ele>
        <time>2018-07-29T12:48:43Z</time>
      </trkpt>
      <trkpt lat="40.499250" lon="-5.192483">
        <ele>1959.0</ele>
        <time>2018-07-29T12:48:44Z</time>
      </trkpt>
      <trkpt lat="40.499200" lon="-5.192483">
        <ele>1962.0</ele>
        <time>2018-07-29T12:48:45Z</time>
      </trkpt>
      <trkpt lat="40.499117" lon="-5.192450">
        <ele>1963.0</ele>
        <time>2018-07-29T12:48:46Z</time>
      </trkpt>
      <trkpt lat="40.499033" lon="-5.192383">
        <ele>1965.0</ele>
        <time>2018-07-29T12:48:47Z</time>
      </trkpt>
      <trkpt lat="40.498950" lon="-5.192300">
        <ele>1966.0</ele>
        <time>2018-07-29T12:48:48Z</time>
      </trkpt>
      <trkpt lat="40.498883" lon="-5.192167">
        <ele>1967.0</ele>
        <time>2018-07-29T12:48:49Z</time>
      </trkpt>
      <trkpt lat="40.498817" lon="-5.192000">
        <ele>1968.0</ele>
        <time>2018-07-29T12:48:50Z</time>
      </trkpt>
      <trkpt lat="40.498800" lon="-5.191800">
        <ele>1970.0</ele>
        <time>2018-07-29T12:48:51Z</time>
      </trkpt>
      <trkpt lat="40.498800" lon="-5.191600">
        <ele>1972.0</ele>
        <time>2018-07-29T12:48:52Z</time>
      </trkpt>
      <trkpt lat="40.498833" lon="-5.191400">
        <ele>1975.0</ele>
        <time>2018-07-29T12:48:53Z</time>
      </trkpt>
      <trkpt lat="40.498883" lon="-5.191250">
        <ele>1979.0</ele>
        <time>2018-07-29T12:48:54Z</time>
      </trkpt>
      <trkpt lat="40.498950" lon="-5.191117">
        <ele>1983.0</ele>
        <time>2018-07-29T12:48:55Z</time>
      </trkpt>
      <trkpt lat="40.499017" lon="-5.191017">
        <ele>1985.0</ele>
        <time>2018-07-29T12:48:56Z</time>
      </trkpt>
      <trkpt lat="40.499100" lon="-5.190933">
        <ele>1988.0</ele>
        <time>2018-07-29T12:48:57Z</time>
      </trkpt>
      <trkpt lat="40.499200" lon="-5.190867">
        <ele>1990.0</ele>
        <time>2018-07-29T12:48:58Z</time>
      </trkpt>
      <trkpt lat="40.499300" lon="-5.190833">
        <ele>1992.0</ele>
        <time>2018-07-29T12:48:59Z</time>
      </trkpt>
      <trkpt lat="40.499383" lon="-5.190817">
        <ele>1994.0</ele>
        <time>2018-07-29T12:49:00Z</time>
      </trkpt>
      <trkpt lat="40.499467" lon="-5.190833">
        <ele>1995.0</ele>
        <time>2018-07-29T12:49:01Z</time>
      </trkpt>
      <trkpt lat="40.499533" lon="-5.190883">
        <ele>1996.0</ele>
        <time>2018-07-29T12:49:02Z</time>
      </trkpt>
      <trkpt lat="40.499583" lon="-5.190950">
        <ele>1997.0</ele>
        <time>2018-07-29T12:49:03Z</time>
      </trkpt>
      <trkpt lat="40.499583" lon="-5.191050">
        <ele>2000.0</ele>
        <time>2018-07-29T12:49:04Z</time>
      </trkpt>
      <trkpt lat="40.499550" lon="-5.191117">
        <ele>2004.0</ele>
        <time>2018-07-29T12:49:05Z</time>
      </trkpt>
      <trkpt lat="40.499483" lon="-5.191150">
        <ele>2007.0</ele>
        <time>2018-07-29T12:49:06Z</time>
      </trkpt>
      <trkpt lat="40.499383" lon="-5.191117">
        <ele>2010.0</ele>
        <time>2018-07-29T12:49:07Z</time>
      </trkpt>
      <trkpt lat="40.499300" lon="-5.191033">
        <ele>2012.0</ele>
        <time>2018-07-29T12:49:08Z</time>
      </trkpt>
      <trkpt lat="40.499217" lon="-5.190900">
        <ele>2016.0</ele>
        <time>2018-07-29T12:49:09Z</time>
      </trkpt>
      <trkpt lat="40.499167" lon="-5.190750">
        <ele>2018.0</ele>
        <time>2018-07-29T12:49:10Z</time>
      </trkpt>
      <trkpt lat="40.499150" lon="-5.190583">
        <ele>2020.0</ele>
        <time>2018-07-29T12:49:11Z</time>
      </trkpt>
      <trkpt lat="40.499150" lon="-5.190400">
        <ele>2021.0</ele>
        <time>2018-07-29T12:49:12Z</time>
      </trkpt>
      <trkpt lat="40.499200" lon="-5.190217">
        <ele>2023.0</ele>
        <time>2018-07-29T12:49:13Z</time>
      </trkpt>
      <trkpt lat="40.499267" lon="-5.190067">
        <ele>2026.0</ele>
        <time>2018-07-29T12:49:14Z</time>
      </trkpt>
      <trkpt lat="40.499350" lon="-5.189950">
        <ele>2028.0</ele>
        <time>2018-07-29T12:49:15Z</time>
      </trkpt>
      <trkpt lat="40.499433" lon="-5.189867">
        <ele>2030.0</ele>
        <time>2018-07-29T12:49:16Z</time>
      </trkpt>
      <trkpt lat="40.499533" lon="-5.189800">
        <ele>2034.0</ele>
        <time>2018-07-29T12:49:17Z</time>
      </trkpt>
      <trkpt lat="40.499633" lon="-5.189783">
        <ele>2037.0</ele>
        <time>2018-07-29T12:49:18Z</time>
      </trkpt>
      <trkpt lat="40.499717" lon="-5.189817">
        <ele>2039.0</ele>
        <time>2018-07-29T12:49:19Z</time>
      </trkpt>
      <trkpt lat="40.499767" lon="-5.189867">
        <ele>2042.0</ele>
        <time>2018-07-29T12:49:20Z</time>
      </trkpt>
      <trkpt lat="40.499800" lon="-5.189933">
        <ele>2044.0</ele>
        <time>2018-07-29T12:49:21Z</time>
      </trkpt>
      <trkpt lat="40.499817" lon="-5.190000">
        <ele>2047.0</ele>
        <time>2018-07-29T12:49:22Z</time>
      </trkpt>
      <trkpt lat="40.499783" lon="-5.190067">
        <ele>2049.0</ele>
        <time>2018-07-29T12:49:23Z</time>
      </trkpt>
      <trkpt lat="40.499733" lon="-5.190100">
        <ele>2051.0</ele>
        <time>2018-07-29T12:49:24Z</time>
      </trkpt>
      <trkpt lat="40.499650" lon="-5.190100">
        <ele>2052.0</ele>
        <time>2018-07-29T12:49:25Z</time>
      </trkpt>
      <trkpt lat="40.499567" lon="-5.190067">
        <ele>2054.0</ele>
        <time>2018-07-29T12:49:26Z</time>
      </trkpt>
      <trkpt lat="40.499483" lon="-5.189983">
        <ele>2055.0</ele>
        <time>2018-07-29T12:49:27Z</time>
      </trkpt>
      <trkpt lat="40.499400" lon="-5.189850">
        <ele>2057.0</ele>
        <time>2018-07-29T12:49:28Z</time>
      </trkpt>
      <trkpt lat="40.499350" lon="-5.189700">
        <ele>2058.0</ele>
        <time>2018-07-29T12:49:29Z</time>
      </trkpt>
      <trkpt lat="40.499317" lon="-5.189533">
        <ele>2059.0</ele>
        <time>2018-07-29T12:49:30Z</time>
      </trkpt>
      <trkpt lat="40.499333" lon="-5.189333">
        <ele>2060.0</ele>
        <time>2018-07-29T12:49:31Z</time>
      </trkpt>
      <trkpt lat="40.499350" lon="-5.189133">
        <ele>2063.0</ele>
        <time>2018-07-29T12:49:32Z</time>
      </trkpt>
      <trkpt lat="40.499417" lon="-5.188983">
        <ele>2067.0</ele>
        <time>2018-07-29T12:49:33Z</time>
      </trkpt>
      <trkpt lat="40.499483" lon="-5.188850">
        <ele>2071.0</ele>
        <time>2018-07-29T12:49:34Z</time>
      </trkpt>
      <trkpt lat="40.499550" lon="-5.188733">
        <ele>2074.0</ele>
        <time>2018-07-29T12:49:35Z</time>
      </trkpt>
      <trkpt lat="40.499633" lon="-5.188650">
        <ele>2078.0</ele>
        <time>2018-07-29T12:49:36Z</time>
      </trkpt>
      <trkpt lat="40.499700" lon="-5.188567">
        <ele>2080.0</ele>
        <time>2018-07-29T12:49:37Z</time>
      </trkpt>
      <trkpt lat="40.499783" lon="-5.188500">
        <ele>2082.0</ele>
        <time>2018-07-29T12:49:38Z</time>
      </trkpt>
      <trkpt lat="40.499867" lon="-5.188467">
        <ele>2084.0</ele>
        <time>2018-07-29T12:49:39Z</time>
      </trkpt>
      <trkpt lat="40.499950" lon="-5.188483">
        <ele>2085.0</ele>
        <time>2018-07-29T12:49:40Z</time>
      </trkpt>
      <trkpt lat="40.500033" lon="-5.188533">
        <ele>2085.0</ele>
        <time>2018-07-29T12:49:41Z</time>
      </trkpt>
      <trkpt lat="40.500067" lon="-5.188617">
        <ele>2087.0</ele>
        <time>2018-07-29T12:49:42Z</time>
      </trkpt>
      <trkpt lat="40.500067" lon="-5.188700">
        <ele>2089.0</ele>
        <time>2018-07-29T12:49:43Z</time>
      </trkpt>
      <trkpt lat="40.500017" lon="-5.188783">
        <ele>2093.0</ele>
        <time>2018-07-29T12:49:44Z</time>
      </trkpt>
      <trkpt lat="40.499950" lon="-5.188800">
        <ele>2096.0</ele>
        <time>2018-07-29T12:49:45Z</time>
      </trkpt>
      <trkpt lat="40.499867" lon="-5.188783">
        <ele>2099.0</ele>
        <time>2018-07-29T12:49:46Z</time>
      </trkpt>
      <trkpt lat="40.499800" lon="-5.188717">
        <ele>2100.0</ele>
        <time>2018-07-29T12:49:47Z</time>
      </trkpt>
      <trkpt lat="40.499717" lon="-5.188617">
        <ele>2102.0</ele>
        <time>2018-07-29T12:49:48Z</time>
      </trkpt>
      <trkpt lat="40.499650" lon="-5.188483">
        <ele>2103.0</ele>
        <time>2018-07-29T12:49:49Z</time>
      </trkpt>
      <trkpt lat="40.499617" lon="-5.188317">
        <ele>2106.0</ele>
        <time>2018-07-29T12:49:50Z</time>
      </trkpt>
      <trkpt lat="40.499617" lon="-5.188133">
        <ele>2107.0</ele>
        <time>2018-07-29T12:49:51Z</time>
      </trkpt>
      <trkpt lat="40.499650" lon="-5.187950">
        <ele>2109.0</ele>
        <time>2018-07-29T12:49:52Z</time>
      </trkpt>
      <trkpt lat="40.499717" lon="-5.187800">
        <ele>2111.0</ele>
        <time>2018-07-29T12:49:53Z</time>
      </trkpt>
      <trkpt lat="40.499800" lon="-5.187683">
        <ele>2114.0</ele>
        <time>2018-07-29T12:49:54Z</time>
      </trkpt>
      <trkpt lat="40.499900" lon="-5.187600">
        <ele>2118.0</ele>
        <time>2018-07-29T12:49:55Z</time>
      </trkpt>
      <trkpt lat="40.499983" lon="-5.187567">
        <ele>2122.0</ele>
        <time>2018-07-29T12:49:56Z</time>
      </trkpt>
      <trkpt lat="40.500067" lon="-5.187550">
        <ele>2125.0</ele>
        <time>2018-07-29T12:49:57Z</time>
      </trkpt>
      <trkpt lat="40.500133" lon="-5.187567">
        <ele>2127.0</ele>
        <time>2018-07-29T12:49:58Z</time>
      </trkpt>
      <trkpt lat="40.500200" lon="-5.187617">
        <ele>2128.0</ele>
        <time>2018-07-29T12:49:59Z</time>
      </trkpt>
      <trkpt lat="40.500250" lon="-5.187683">
        <ele>2130.0</ele>
        <time>2018-07-29T12:50:00Z</time>
      </trkpt>
      <trkpt lat="40.500250" lon="-5.187767">
        <ele>2132.0</ele>
        <time>2018-07-29T12:50:01Z</time>
      </trkpt>
      <trkpt lat="40.500233" lon="-5.187833">
        <ele>2134.0</ele>
        <time>2018-07-29T12:50:02Z</time>
      </trkpt>
      <trkpt lat="40.500183" lon="-5.187867">
        <ele>2137.0</ele>
        <time>2018-07-29T12:50:03Z</time>
      </trkpt>
      <trkpt lat="40.500117" lon="-5.187867">
        <ele>2138.0</ele>
        <time>2018-07-29T12:50:04Z</time>
      </trkpt>
      <trkpt lat="40.500033" lon="-5.187833">
        <ele>2139.0</ele>
        <time>2018-07-29T12:50:05Z</time>
      </trkpt>
      <trkpt lat="40.499950" lon="-5.187767">
        <ele>2140.0</ele>
        <time>2018-07-29T12:50:06Z</time>
      </trkpt>
      <trkpt lat="40.499850" lon="-5.187650">
        <ele>2141.0</ele>
        <time>2018-07-29T12:50:07Z</time>
      </trkpt>
      <trkpt lat="40.499783" lon="-5.187483">
        <ele>2142.0</ele>
        <time>2018-07-29T12:50:08Z</time>
      </trkpt>
      <trkpt lat="40.499733" lon="-5.187300">
        <ele>2144.0</ele>
        <time>2018-07-29T12:50:09Z</time>
      </trkpt>
      <trkpt lat="40.499750" lon="-5.187117">
        <ele>2147.0</ele>
        <time>2018-07-29T12:50:10Z</time>
      </trkpt>
      <trkpt lat="40.499783" lon="-5.186933">
        <ele>2149.0</ele>
        <time>2018-07-29T12:50:11Z</time>
      </trkpt>
      <trkpt lat="40.499850" lon="-5.186800">
        <ele>2153.0</ele>
        <time>2018-07-29T12:50:12Z</time>
      </trkpt>
      <trkpt lat="40.499933" lon="-5.186700">
        <ele>2156.0</ele>
        <time>2018-07-29T12:50:13Z</time>
      </trkpt>
      <trkpt lat="40.500017" lon="-5.186633">
        <ele>2159.0</ele>
        <time>2018-07-29T12:50:14Z</time>
      </trkpt>
      <trkpt lat="40.500083" lon="-5.186567">
        <ele>2162.0</ele>
        <time>2018-07-29T12:50:15Z</time>
      </trkpt>
      <trkpt lat="40.500167" lon="-5.186533">
        <ele>2164.0</ele>
        <time>2018-07-29T12:50:16Z</time>
      </trkpt>
      <trkpt lat="40.500250" lon="-5.186517">
        <ele>2165.0</ele>
        <time>2018-07-29T12:50:17Z</time>
      </trkpt>
      <trkpt lat="40.500333" lon="-5.186533">
        <ele>2166.0</ele>
        <time>2018-07-29T12:50:18Z</time>
      </trkpt>
      <trkpt lat="40.500417" lon="-5.186583">
        <ele>2167.0</ele>
        <time>2018-07-29T12:50:19Z</time>
      </trkpt>
      <trkpt lat="40.500467" lon="-5.186650">
        <ele>2168.0</ele>
        <time>2018-07-29T12:50:20Z</time>
      </trkpt>
      <trkpt lat="40.500500" lon="-5.186750">
        <ele>2170.0</ele>
        <time>2018-07-29T12:50:21Z</time>
      </trkpt>
      <trkpt lat="40.500483" lon="-5.186833">
        <ele>2172.0</ele>
        <time>2018-07-29T12:50:22Z</time>
      </trkpt>
      <trkpt lat="40.500450" lon="-5.186883">
        <ele>2174.0</ele>
        <time>2018-07-29T12:50:23Z</time>
      </trkpt>
      <trkpt lat="40.500383" lon="-5.186900">
        <ele>2176.0</ele>
        <time>2018-07-29T12:50:24Z</time>
      </trkpt>
      <trkpt lat="40.500317" lon="-5.186883">
        <ele>2176.0</ele>
        <time>2018-07-29T12:50:25Z</time>
      </trkpt>
      <trkpt lat="40.500217" lon="-5.186817">
        <ele>2175.0</ele>
        <time>2018-07-29T12:50:26Z</time>
      </trkpt>
      <trkpt lat="40.500133" lon="-5.186717">
        <ele>2174.0</ele>
        <time>2018-07-29T12:50:27Z</time>
      </trkpt>
      <trkpt lat="40.500050" lon="-5.186567">
        <ele>2174.0</ele>
        <time>2018-07-29T12:50:28Z</time>
      </trkpt>
      <trkpt lat="40.500000" lon="-5.186367">
        <ele>2175.0</ele>
        <time>2018-07-29T12:50:29Z</time>
      </trkpt>
      <trkpt lat="40.499983" lon="-5.186167">
        <ele>2177.0</ele>
        <time>2018-07-29T12:50:30Z</time>
      </trkpt>
      <trkpt lat="40.500000" lon="-5.186000">
        <ele>2180.0</ele>
        <time>2018-07-29T12:50:31Z</time>
      </trkpt>
      <trkpt lat="40.500050" lon="-5.185833">
        <ele>2182.0</ele>
        <time>2018-07-29T12:50:32Z</time>
      </trkpt>
      <trkpt lat="40.500100" lon="-5.185683">
        <ele>2184.0</ele>
        <time>2018-07-29T12:50:33Z</time>
      </trkpt>
      <trkpt lat="40.500150" lon="-5.185550">
        <ele>2186.0</ele>
        <time>2018-07-29T12:50:34Z</time>
      </trkpt>
      <trkpt lat="40.500233" lon="-5.185417">
        <ele>2188.0</ele>
        <time>2018-07-29T12:50:35Z</time>
      </trkpt>
      <trkpt lat="40.500300" lon="-5.185317">
        <ele>2191.0</ele>
        <time>2018-07-29T12:50:36Z</time>
      </trkpt>
      <trkpt lat="40.500383" lon="-5.185217">
        <ele>2193.0</ele>
        <time>2018-07-29T12:50:37Z</time>
      </trkpt>
      <trkpt lat="40.500450" lon="-5.185133">
        <ele>2195.0</ele>
        <time>2018-07-29T12:50:38Z</time>
      </trkpt>
      <trkpt lat="40.500517" lon="-5.185050">
        <ele>2196.0</ele>
        <time>2018-07-29T12:50:39Z</time>
      </trkpt>
      <trkpt lat="40.500600" lon="-5.185017">
        <ele>2197.0</ele>
        <time>2018-07-29T12:50:40Z</time>
      </trkpt>
      <trkpt lat="40.500683" lon="-5.185017">
        <ele>2196.0</ele>
        <time>2018-07-29T12:50:41Z</time>
      </trkpt>
      <trkpt lat="40.500767" lon="-5.185033">
        <ele>2195.0</ele>
        <time>2018-07-29T12:50:42Z</time>
      </trkpt>
      <trkpt lat="40.500850" lon="-5.185100">
        <ele>2195.0</ele>
        <time>2018-07-29T12:50:43Z</time>
      </trkpt>
      <trkpt lat="40.500933" lon="-5.185183">
        <ele>2197.0</ele>
        <time>2018-07-29T12:50:44Z</time>
      </trkpt>
      <trkpt lat="40.500983" lon="-5.185250">
        <ele>2200.0</ele>
        <time>2018-07-29T12:50:45Z</time>
      </trkpt>
      <trkpt lat="40.501000" lon="-5.185333">
        <ele>2203.0</ele>
        <time>2018-07-29T12:50:46Z</time>
      </trkpt>
      <trkpt lat="40.501000" lon="-5.185383">
        <ele>2205.0</ele>
        <time>2018-07-29T12:50:47Z</time>
      </trkpt>
      <trkpt lat="40.500983" lon="-5.185417">
        <ele>2205.0</ele>
        <time>2018-07-29T12:50:48Z</time>
      </trkpt>
      <trkpt lat="40.500950" lon="-5.185433">
        <ele>2205.0</ele>
        <time>2018-07-29T12:50:49Z</time>
      </trkpt>
      <trkpt lat="40.500883" lon="-5.185433">
        <ele>2204.0</ele>
        <time>2018-07-29T12:50:50Z</time>
      </trkpt>
      <trkpt lat="40.500817" lon="-5.185417">
        <ele>2203.0</ele>
        <time>2018-07-29T12:50:51Z</time>
      </trkpt>
      <trkpt lat="40.500733" lon="-5.185367">
        <ele>2202.0</ele>
        <time>2018-07-29T12:50:52Z</time>
      </trkpt>
      <trkpt lat="40.500633" lon="-5.185267">
        <ele>2201.0</ele>
        <time>2018-07-29T12:50:53Z</time>
      </trkpt>
      <trkpt lat="40.500567" lon="-5.185117">
        <ele>2202.0</ele>
        <time>2018-07-29T12:50:54Z</time>
      </trkpt>
      <trkpt lat="40.500517" lon="-5.184933">
        <ele>2203.0</ele>
        <time>2018-07-29T12:50:55Z</time>
      </trkpt>
      <trkpt lat="40.500500" lon="-5.184750">
        <ele>2204.0</ele>
        <time>2018-07-29T12:50:56Z</time>
      </trkpt>
      <trkpt lat="40.500517" lon="-5.184583">
        <ele>2205.0</ele>
        <time>2018-07-29T12:50:57Z</time>
      </trkpt>
      <trkpt lat="40.500567" lon="-5.184417">
        <ele>2207.0</ele>
        <time>2018-07-29T12:50:58Z</time>
      </trkpt>
      <trkpt lat="40.500633" lon="-5.184267">
        <ele>2207.0</ele>
        <time>2018-07-29T12:50:59Z</time>
      </trkpt>
      <trkpt lat="40.500700" lon="-5.184100">
        <ele>2209.0</ele>
        <time>2018-07-29T12:51:00Z</time>
      </trkpt>
      <trkpt lat="40.500767" lon="-5.183950">
        <ele>2210.0</ele>
        <time>2018-07-29T12:51:01Z</time>
      </trkpt>
      <trkpt lat="40.500833" lon="-5.183800">
        <ele>2211.0</ele>
        <time>2018-07-29T12:51:02Z</time>
      </trkpt>
      <trkpt lat="40.500900" lon="-5.183650">
        <ele>2212.0</ele>
        <time>2018-07-29T12:51:03Z</time>
      </trkpt>
      <trkpt lat="40.500967" lon="-5.183500">
        <ele>2214.0</ele>
        <time>2018-07-29T12:51:04Z</time>
      </trkpt>
      <trkpt lat="40.501033" lon="-5.183367">
        <ele>2215.0</ele>
        <time>2018-07-29T12:51:05Z</time>
      </trkpt>
      <trkpt lat="40.501117" lon="-5.183233">
        <ele>2216.0</ele>
        <time>2018-07-29T12:51:06Z</time>
      </trkpt>
      <trkpt lat="40.501200" lon="-5.183133">
        <ele>2218.0</ele>
        <time>2018-07-29T12:51:07Z</time>
      </trkpt>
      <trkpt lat="40.501283" lon="-5.183017">
        <ele>2219.0</ele>
        <time>2018-07-29T12:51:08Z</time>
      </trkpt>
      <trkpt lat="40.501367" lon="-5.182933">
        <ele>2220.0</ele>
        <time>2018-07-29T12:51:09Z</time>
      </trkpt>
      <trkpt lat="40.501467" lon="-5.182833">
        <ele>2221.0</ele>
        <time>2018-07-29T12:51:10Z</time>
      </trkpt>
      <trkpt lat="40.501550" lon="-5.182750">
        <ele>2223.0</ele>
        <time>2018-07-29T12:51:11Z</time>
      </trkpt>
      <trkpt lat="40.501650" lon="-5.182667">
        <ele>2225.0</ele>
        <time>2018-07-29T12:51:12Z</time>
      </trkpt>
      <trkpt lat="40.501733" lon="-5.182600">
        <ele>2227.0</ele>
        <time>2018-07-29T12:51:13Z</time>
      </trkpt>
      <trkpt lat="40.501833" lon="-5.182533">
        <ele>2229.0</ele>
        <time>2018-07-29T12:51:14Z</time>
      </trkpt>
      <trkpt lat="40.501917" lon="-5.182500">
        <ele>2230.0</ele>
        <time>2018-07-29T12:51:15Z</time>
      </trkpt>
      <trkpt lat="40.502000" lon="-5.182467">
        <ele>2231.0</ele>
        <time>2018-07-29T12:51:16Z</time>
      </trkpt>
      <trkpt lat="40.502083" lon="-5.182467">
        <ele>2232.0</ele>
        <time>2018-07-29T12:51:17Z</time>
      </trkpt>
      <trkpt lat="40.502167" lon="-5.182483">
        <ele>2232.0</ele>
        <time>2018-07-29T12:51:18Z</time>
      </trkpt>
      <trkpt lat="40.502250" lon="-5.182533">
        <ele>2233.0</ele>
        <time>2018-07-29T12:51:19Z</time>
      </trkpt>
      <trkpt lat="40.502283" lon="-5.182600">
        <ele>2234.0</ele>
        <time>2018-07-29T12:51:20Z</time>
      </trkpt>
      <trkpt lat="40.502300" lon="-5.182667">
        <ele>2236.0</ele>
        <time>2018-07-29T12:51:21Z</time>
      </trkpt>
      <trkpt lat="40.502283" lon="-5.182733">
        <ele>2237.0</ele>
        <time>2018-07-29T12:51:22Z</time>
      </trkpt>
      <trkpt lat="40.502233" lon="-5.182767">
        <ele>2238.0</ele>
        <time>2018-07-29T12:51:23Z</time>
      </trkpt>
      <trkpt lat="40.502167" lon="-5.182767">
        <ele>2238.0</ele>
        <time>2018-07-29T12:51:24Z</time>
      </trkpt>
      <trkpt lat="40.502083" lon="-5.182733">
        <ele>2238.0</ele>
        <time>2018-07-29T12:51:25Z</time>
      </trkpt>
      <trkpt lat="40.502017" lon="-5.182667">
        <ele>2238.0</ele>
        <time>2018-07-29T12:51:26Z</time>
      </trkpt>
      <trkpt lat="40.501933" lon="-5.182550">
        <ele>2237.0</ele>
        <time>2018-07-29T12:51:27Z</time>
      </trkpt>
      <trkpt lat="40.501883" lon="-5.182400">
        <ele>2237.0</ele>
        <time>2018-07-29T12:51:28Z</time>
      </trkpt>
      <trkpt lat="40.501850" lon="-5.182217">
        <ele>2237.0</ele>
        <time>2018-07-29T12:51:29Z</time>
      </trkpt>
      <trkpt lat="40.501817" lon="-5.182017">
        <ele>2237.0</ele>
        <time>2018-07-29T12:51:30Z</time>
      </trkpt>
      <trkpt lat="40.501833" lon="-5.181833">
        <ele>2238.0</ele>
        <time>2018-07-29T12:51:31Z</time>
      </trkpt>
      <trkpt lat="40.501850" lon="-5.181667">
        <ele>2239.0</ele>
        <time>2018-07-29T12:51:32Z</time>
      </trkpt>
      <trkpt lat="40.501900" lon="-5.181500">
        <ele>2240.0</ele>
        <time>2018-07-29T12:51:33Z</time>
      </trkpt>
      <trkpt lat="40.501950" lon="-5.181350">
        <ele>2241.0</ele>
        <time>2018-07-29T12:51:34Z</time>
      </trkpt>
      <trkpt lat="40.502017" lon="-5.181217">
        <ele>2241.0</ele>
        <time>2018-07-29T12:51:35Z</time>
      </trkpt>
      <trkpt lat="40.502100" lon="-5.181100">
        <ele>2242.0</ele>
        <time>2018-07-29T12:51:36Z</time>
      </trkpt>
      <trkpt lat="40.502167" lon="-5.181000">
        <ele>2242.0</ele>
        <time>2018-07-29T12:51:37Z</time>
      </trkpt>
      <trkpt lat="40.502250" lon="-5.180933">
        <ele>2242.0</ele>
        <time>2018-07-29T12:51:38Z</time>
      </trkpt>
      <trkpt lat="40.502317" lon="-5.180883">
        <ele>2241.0</ele>
        <time>2018-07-29T12:51:39Z</time>
      </trkpt>
      <trkpt lat="40.502383" lon="-5.180850">
        <ele>2239.0</ele>
        <time>2018-07-29T12:51:40Z</time>
      </trkpt>
      <trkpt lat="40.502467" lon="-5.180833">
        <ele>2236.0</ele>
        <time>2018-07-29T12:51:41Z</time>
      </trkpt>
      <trkpt lat="40.502533" lon="-5.180867">
        <ele>2233.0</ele>
        <time>2018-07-29T12:51:42Z</time>
      </trkpt>
      <trkpt lat="40.502600" lon="-5.180900">
        <ele>2230.0</ele>
        <time>2018-07-29T12:51:43Z</time>
      </trkpt>
      <trkpt lat="40.502650" lon="-5.180967">
        <ele>2228.0</ele>
        <time>2018-07-29T12:51:44Z</time>
      </trkpt>
      <trkpt lat="40.502700" lon="-5.181033">
        <ele>2227.0</ele>
        <time>2018-07-29T12:51:45Z</time>
      </trkpt>
      <trkpt lat="40.502733" lon="-5.181100">
        <ele>2227.0</ele>
        <time>2018-07-29T12:51:46Z</time>
      </trkpt>
      <trkpt lat="40.502767" lon="-5.181167">
        <ele>2227.0</ele>
        <time>2018-07-29T12:51:47Z</time>
      </trkpt>
      <trkpt lat="40.502783" lon="-5.181217">
        <ele>2227.0</ele>
        <time>2018-07-29T12:51:48Z</time>
      </trkpt>
      <trkpt lat="40.502800" lon="-5.181283">
        <ele>2226.0</ele>
        <time>2018-07-29T12:51:49Z</time>
      </trkpt>
      <trkpt lat="40.502783" lon="-5.181367">
        <ele>2224.0</ele>
        <time>2018-07-29T12:51:50Z</time>
      </trkpt>
      <trkpt lat="40.502783" lon="-5.181450">
        <ele>2223.0</ele>
        <time>2018-07-29T12:51:51Z</time>
      </trkpt>
      <trkpt lat="40.502767" lon="-5.181517">
        <ele>2222.0</ele>
        <time>2018-07-29T12:51:52Z</time>
      </trkpt>
      <trkpt lat="40.502750" lon="-5.181583">
        <ele>2222.0</ele>
        <time>2018-07-29T12:51:53Z</time>
      </trkpt>
      <trkpt lat="40.502733" lon="-5.181650">
        <ele>2220.0</ele>
        <time>2018-07-29T12:51:54Z</time>
      </trkpt>
      <trkpt lat="40.502750" lon="-5.181733">
        <ele>2218.0</ele>
        <time>2018-07-29T12:51:55Z</time>
      </trkpt>
      <trkpt lat="40.502767" lon="-5.181817">
        <ele>2216.0</ele>
        <time>2018-07-29T12:51:56Z</time>
      </trkpt>
      <trkpt lat="40.502783" lon="-5.181900">
        <ele>2214.0</ele>
        <time>2018-07-29T12:51:57Z</time>
      </trkpt>
      <trkpt lat="40.502833" lon="-5.181967">
        <ele>2213.0</ele>
        <time>2018-07-29T12:51:58Z</time>
      </trkpt>
      <trkpt lat="40.502867" lon="-5.182050">
        <ele>2212.0</ele>
        <time>2018-07-29T12:51:59Z</time>
      </trkpt>
      <trkpt lat="40.502933" lon="-5.182100">
        <ele>2211.0</ele>
        <time>2018-07-29T12:52:00Z</time>
      </trkpt>
      <trkpt lat="40.502983" lon="-5.182150">
        <ele>2210.0</ele>
        <time>2018-07-29T12:52:01Z</time>
      </trkpt>
      <trkpt lat="40.503050" lon="-5.182183">
        <ele>2208.0</ele>
        <time>2018-07-29T12:52:02Z</time>
      </trkpt>
      <trkpt lat="40.503117" lon="-5.182233">
        <ele>2207.0</ele>
        <time>2018-07-29T12:52:03Z</time>
      </trkpt>
      <trkpt lat="40.503167" lon="-5.182283">
        <ele>2206.0</ele>
        <time>2018-07-29T12:52:04Z</time>
      </trkpt>
      <trkpt lat="40.503217" lon="-5.182350">
        <ele>2205.0</ele>
        <time>2018-07-29T12:52:05Z</time>
      </trkpt>
      <trkpt lat="40.503267" lon="-5.182417">
        <ele>2204.0</ele>
        <time>2018-07-29T12:52:06Z</time>
      </trkpt>
      <trkpt lat="40.503300" lon="-5.182467">
        <ele>2204.0</ele>
        <time>2018-07-29T12:52:07Z</time>
      </trkpt>
      <trkpt lat="40.503333" lon="-5.182500">
        <ele>2204.0</ele>
        <time>2018-07-29T12:52:08Z</time>
      </trkpt>
      <trkpt lat="40.503367" lon="-5.182533">
        <ele>2203.0</ele>
        <time>2018-07-29T12:52:09Z</time>
      </trkpt>
      <trkpt lat="40.503400" lon="-5.182583">
        <ele>2201.0</ele>
        <time>2018-07-29T12:52:10Z</time>
      </trkpt>
      <trkpt lat="40.503417" lon="-5.182633">
        <ele>2199.0</ele>
        <time>2018-07-29T12:52:11Z</time>
      </trkpt>
      <trkpt lat="40.503417" lon="-5.182700">
        <ele>2196.0</ele>
        <time>2018-07-29T12:52:12Z</time>
      </trkpt>
      <trkpt lat="40.503400" lon="-5.182783">
        <ele>2194.0</ele>
        <time>2018-07-29T12:52:13Z</time>
      </trkpt>
      <trkpt lat="40.503400" lon="-5.182850">
        <ele>2192.0</ele>
        <time>2018-07-29T12:52:14Z</time>
      </trkpt>
      <trkpt lat="40.503383" lon="-5.182933">
        <ele>2191.0</ele>
        <time>2018-07-29T12:52:15Z</time>
      </trkpt>
      <trkpt lat="40.503350" lon="-5.183017">
        <ele>2190.0</ele>
        <time>2018-07-29T12:52:16Z</time>
      </trkpt>
      <trkpt lat="40.503317" lon="-5.183083">
        <ele>2190.0</ele>
        <time>2018-07-29T12:52:17Z</time>
      </trkpt>
      <trkpt lat="40.503267" lon="-5.183150">
        <ele>2190.0</ele>
        <time>2018-07-29T12:52:18Z</time>
      </trkpt>
      <trkpt lat="40.503233" lon="-5.183200">
        <ele>2190.0</ele>
        <time>2018-07-29T12:52:19Z</time>
      </trkpt>
      <trkpt lat="40.503167" lon="-5.183250">
        <ele>2189.0</ele>
        <time>2018-07-29T12:52:20Z</time>
      </trkpt>
      <trkpt lat="40.503117" lon="-5.183283">
        <ele>2188.0</ele>
        <time>2018-07-29T12:52:21Z</time>
      </trkpt>
      <trkpt lat="40.503033" lon="-5.183333">
        <ele>2187.0</ele>
        <time>2018-07-29T12:52:22Z</time>
      </trkpt>
      <trkpt lat="40.502950" lon="-5.183367">
        <ele>2185.0</ele>
        <time>2018-07-29T12:52:23Z</time>
      </trkpt>
      <trkpt lat="40.502850" lon="-5.183383">
        <ele>2183.0</ele>
        <time>2018-07-29T12:52:24Z</time>
      </trkpt>
      <trkpt lat="40.502733" lon="-5.183383">
        <ele>2183.0</ele>
        <time>2018-07-29T12:52:25Z</time>
      </trkpt>
      <trkpt lat="40.502633" lon="-5.183367">
        <ele>2182.0</ele>
        <time>2018-07-29T12:52:26Z</time>
      </trkpt>
      <trkpt lat="40.502517" lon="-5.183317">
        <ele>2182.0</ele>
        <time>2018-07-29T12:52:27Z</time>
      </trkpt>
      <trkpt lat="40.502400" lon="-5.183267">
        <ele>2181.0</ele>
        <time>2018-07-29T12:52:28Z</time>
      </trkpt>
      <trkpt lat="40.502283" lon="-5.183217">
        <ele>2180.0</ele>
        <time>2018-07-29T12:52:29Z</time>
      </trkpt>
      <trkpt lat="40.502167" lon="-5.183167">
        <ele>2179.0</ele>
        <time>2018-07-29T12:52:30Z</time>
      </trkpt>
      <trkpt lat="40.502050" lon="-5.183100">
        <ele>2179.0</ele>
        <time>2018-07-29T12:52:31Z</time>
      </trkpt>
      <trkpt lat="40.501950" lon="-5.183000">
        <ele>2178.0</ele>
        <time>2018-07-29T12:52:32Z</time>
      </trkpt>
      <trkpt lat="40.501850" lon="-5.182900">
        <ele>2177.0</ele>
        <time>2018-07-29T12:52:33Z</time>
      </trkpt>
      <trkpt lat="40.501750" lon="-5.182767">
        <ele>2177.0</ele>
        <time>2018-07-29T12:52:34Z</time>
      </trkpt>
      <trkpt lat="40.501667" lon="-5.182617">
        <ele>2176.0</ele>
        <time>2018-07-29T12:52:35Z</time>
      </trkpt>
      <trkpt lat="40.501583" lon="-5.182483">
        <ele>2176.0</ele>
        <time>2018-07-29T12:52:36Z</time>
      </trkpt>
      <trkpt lat="40.501517" lon="-5.182350">
        <ele>2176.0</ele>
        <time>2018-07-29T12:52:37Z</time>
      </trkpt>
      <trkpt lat="40.501450" lon="-5.182200">
        <ele>2175.0</ele>
        <time>2018-07-29T12:52:38Z</time>
      </trkpt>
      <trkpt lat="40.501400" lon="-5.182017">
        <ele>2174.0</ele>
        <time>2018-07-29T12:52:39Z</time>
      </trkpt>
      <trkpt lat="40.501367" lon="-5.181833">
        <ele>2173.0</ele>
        <time>2018-07-29T12:52:40Z</time>
      </trkpt>
      <trkpt lat="40.501333" lon="-5.181650">
        <ele>2174.0</ele>
        <time>2018-07-29T12:52:41Z</time>
      </trkpt>
      <trkpt lat="40.501317" lon="-5.181483">
        <ele>2175.0</ele>
        <time>2018-07-29T12:52:42Z</time>
      </trkpt>
      <trkpt lat="40.501300" lon="-5.181317">
        <ele>2177.0</ele>
        <time>2018-07-29T12:52:43Z</time>
      </trkpt>
      <trkpt lat="40.501267" lon="-5.181133">
        <ele>2178.0</ele>
        <time>2018-07-29T12:52:44Z</time>
      </trkpt>
      <trkpt lat="40.501250" lon="-5.180967">
        <ele>2178.0</ele>
        <time>2018-07-29T12:52:45Z</time>
      </trkpt>
      <trkpt lat="40.501217" lon="-5.180783">
        <ele>2179.0</ele>
        <time>2018-07-29T12:52:46Z</time>
      </trkpt>
      <trkpt lat="40.501183" lon="-5.180583">
        <ele>2181.0</ele>
        <time>2018-07-29T12:52:47Z</time>
      </trkpt>
      <trkpt lat="40.501133" lon="-5.180417">
        <ele>2183.0</ele>
        <time>2018-07-29T12:52:48Z</time>
      </trkpt>
      <trkpt lat="40.501083" lon="-5.180233">
        <ele>2185.0</ele>
        <time>2018-07-29T12:52:49Z</time>
      </trkpt>
      <trkpt lat="40.501050" lon="-5.180083">
        <ele>2186.0</ele>
        <time>2018-07-29T12:52:50Z</time>
      </trkpt>
      <trkpt lat="40.501017" lon="-5.179917">
        <ele>2187.0</ele>
        <time>2018-07-29T12:52:51Z</time>
      </trkpt>
      <trkpt lat="40.501000" lon="-5.179750">
        <ele>2187.0</ele>
        <time>2018-07-29T12:52:52Z</time>
      </trkpt>
      <trkpt lat="40.500983" lon="-5.179583">
        <ele>2187.0</ele>
        <time>2018-07-29T12:52:53Z</time>
      </trkpt>
      <trkpt lat="40.500983" lon="-5.179400">
        <ele>2188.0</ele>
        <time>2018-07-29T12:52:54Z</time>
      </trkpt>
      <trkpt lat="40.501000" lon="-5.179250">
        <ele>2188.0</ele>
        <time>2018-07-29T12:52:55Z</time>
      </trkpt>
      <trkpt lat="40.501033" lon="-5.179100">
        <ele>2189.0</ele>
        <time>2018-07-29T12:52:56Z</time>
      </trkpt>
      <trkpt lat="40.501083" lon="-5.178983">
        <ele>2189.0</ele>
        <time>2018-07-29T12:52:57Z</time>
      </trkpt>
      <trkpt lat="40.501150" lon="-5.178883">
        <ele>2189.0</ele>
        <time>2018-07-29T12:52:58Z</time>
      </trkpt>
      <trkpt lat="40.501233" lon="-5.178800">
        <ele>2190.0</ele>
        <time>2018-07-29T12:52:59Z</time>
      </trkpt>
      <trkpt lat="40.501300" lon="-5.178733">
        <ele>2190.0</ele>
        <time>2018-07-29T12:53:00Z</time>
      </trkpt>
      <trkpt lat="40.501383" lon="-5.178683">
        <ele>2190.0</ele>
        <time>2018-07-29T12:53:01Z</time>
      </trkpt>
      <trkpt lat="40.501450" lon="-5.178650">
        <ele>2189.0</ele>
        <time>2018-07-29T12:53:02Z</time>
      </trkpt>
      <trkpt lat="40.501533" lon="-5.178633">
        <ele>2188.0</ele>
        <time>2018-07-29T12:53:03Z</time>
      </trkpt>
      <trkpt lat="40.501583" lon="-5.178650">
        <ele>2187.0</ele>
        <time>2018-07-29T12:53:04Z</time>
      </trkpt>
      <trkpt lat="40.501650" lon="-5.178667">
        <ele>2186.0</ele>
        <time>2018-07-29T12:53:05Z</time>
      </trkpt>
      <trkpt lat="40.501700" lon="-5.178717">
        <ele>2186.0</ele>
        <time>2018-07-29T12:53:06Z</time>
      </trkpt>
      <trkpt lat="40.501733" lon="-5.178750">
        <ele>2185.0</ele>
        <time>2018-07-29T12:53:07Z</time>
      </trkpt>
      <trkpt lat="40.501767" lon="-5.178800">
        <ele>2184.0</ele>
        <time>2018-07-29T12:53:08Z</time>
      </trkpt>
      <trkpt lat="40.501800" lon="-5.178850">
        <ele>2183.0</ele>
        <time>2018-07-29T12:53:09Z</time>
      </trkpt>
      <trkpt lat="40.501833" lon="-5.178900">
        <ele>2181.0</ele>
        <time>2018-07-29T12:53:10Z</time>
      </trkpt>
      <trkpt lat="40.501883" lon="-5.178933">
        <ele>2179.0</ele>
        <time>2018-07-29T12:53:11Z</time>
      </trkpt>
      <trkpt lat="40.501933" lon="-5.178983">
        <ele>2176.0</ele>
        <time>2018-07-29T12:53:12Z</time>
      </trkpt>
      <trkpt lat="40.501983" lon="-5.179017">
        <ele>2175.0</ele>
        <time>2018-07-29T12:53:13Z</time>
      </trkpt>
      <trkpt lat="40.502050" lon="-5.179017">
        <ele>2175.0</ele>
        <time>2018-07-29T12:53:14Z</time>
      </trkpt>
      <trkpt lat="40.502100" lon="-5.179000">
        <ele>2174.0</ele>
        <time>2018-07-29T12:53:15Z</time>
      </trkpt>
      <trkpt lat="40.502167" lon="-5.178967">
        <ele>2173.0</ele>
        <time>2018-07-29T12:53:16Z</time>
      </trkpt>
      <trkpt lat="40.502217" lon="-5.178933">
        <ele>2170.0</ele>
        <time>2018-07-29T12:53:17Z</time>
      </trkpt>
      <trkpt lat="40.502300" lon="-5.178883">
        <ele>2166.0</ele>
        <time>2018-07-29T12:53:18Z</time>
      </trkpt>
      <trkpt lat="40.502383" lon="-5.178833">
        <ele>2164.0</ele>
        <time>2018-07-29T12:53:19Z</time>
      </trkpt>
      <trkpt lat="40.502467" lon="-5.178767">
        <ele>2163.0</ele>
        <time>2018-07-29T12:53:20Z</time>
      </trkpt>
      <trkpt lat="40.502550" lon="-5.178700">
        <ele>2162.0</ele>
        <time>2018-07-29T12:53:21Z</time>
      </trkpt>
      <trkpt lat="40.502633" lon="-5.178617">
        <ele>2162.0</ele>
        <time>2018-07-29T12:53:22Z</time>
      </trkpt>
      <trkpt lat="40.502700" lon="-5.178533">
        <ele>2161.0</ele>
        <time>2018-07-29T12:53:23Z</time>
      </trkpt>
      <trkpt lat="40.502783" lon="-5.178467">
        <ele>2160.0</ele>
        <time>2018-07-29T12:53:24Z</time>
      </trkpt>
      <trkpt lat="40.502850" lon="-5.178383">
        <ele>2157.0</ele>
        <time>2018-07-29T12:53:25Z</time>
      </trkpt>
      <trkpt lat="40.502933" lon="-5.178317">
        <ele>2155.0</ele>
        <time>2018-07-29T12:53:26Z</time>
      </trkpt>
      <trkpt lat="40.503017" lon="-5.178233">
        <ele>2153.0</ele>
        <time>2018-07-29T12:53:27Z</time>
      </trkpt>
      <trkpt lat="40.503100" lon="-5.178150">
        <ele>2152.0</ele>
        <time>2018-07-29T12:53:28Z</time>
      </trkpt>
      <trkpt lat="40.503183" lon="-5.178083">
        <ele>2152.0</ele>
        <time>2018-07-29T12:53:29Z</time>
      </trkpt>
      <trkpt lat="40.503250" lon="-5.178017">
        <ele>2151.0</ele>
        <time>2018-07-29T12:53:30Z</time>
      </trkpt>
      <trkpt lat="40.503333" lon="-5.177950">
        <ele>2150.0</ele>
        <time>2018-07-29T12:53:31Z</time>
      </trkpt>
      <trkpt lat="40.503400" lon="-5.177867">
        <ele>2148.0</ele>
        <time>2018-07-29T12:53:32Z</time>
      </trkpt>
      <trkpt lat="40.503483" lon="-5.177767">
        <ele>2146.0</ele>
        <time>2018-07-29T12:53:33Z</time>
      </trkpt>
      <trkpt lat="40.503550" lon="-5.177683">
        <ele>2144.0</ele>
        <time>2018-07-29T12:53:34Z</time>
      </trkpt>
      <trkpt lat="40.503633" lon="-5.177583">
        <ele>2143.0</ele>
        <time>2018-07-29T12:53:35Z</time>
      </trkpt>
      <trkpt lat="40.503717" lon="-5.177500">
        <ele>2142.0</ele>
        <time>2018-07-29T12:53:36Z</time>
      </trkpt>
      <trkpt lat="40.503783" lon="-5.177400">
        <ele>2141.0</ele>
        <time>2018-07-29T12:53:37Z</time>
      </trkpt>
      <trkpt lat="40.503867" lon="-5.177317">
        <ele>2140.0</ele>
        <time>2018-07-29T12:53:38Z</time>
      </trkpt>
      <trkpt lat="40.503950" lon="-5.177233">
        <ele>2138.0</ele>
        <time>2018-07-29T12:53:39Z</time>
      </trkpt>
      <trkpt lat="40.504017" lon="-5.177167">
        <ele>2136.0</ele>
        <time>2018-07-29T12:53:40Z</time>
      </trkpt>
      <trkpt lat="40.504100" lon="-5.177117">
        <ele>2134.0</ele>
        <time>2018-07-29T12:53:41Z</time>
      </trkpt>
      <trkpt lat="40.504183" lon="-5.177083">
        <ele>2133.0</ele>
        <time>2018-07-29T12:53:42Z</time>
      </trkpt>
      <trkpt lat="40.504283" lon="-5.177050">
        <ele>2131.0</ele>
        <time>2018-07-29T12:53:43Z</time>
      </trkpt>
      <trkpt lat="40.504367" lon="-5.177017">
        <ele>2130.0</ele>
        <time>2018-07-29T12:53:44Z</time>
      </trkpt>
      <trkpt lat="40.504450" lon="-5.176983">
        <ele>2129.0</ele>
        <time>2018-07-29T12:53:45Z</time>
      </trkpt>
      <trkpt lat="40.504533" lon="-5.176967">
        <ele>2127.0</ele>
        <time>2018-07-29T12:53:46Z</time>
      </trkpt>
      <trkpt lat="40.504600" lon="-5.176933">
        <ele>2126.0</ele>
        <time>2018-07-29T12:53:47Z</time>
      </trkpt>
      <trkpt lat="40.504683" lon="-5.176900">
        <ele>2124.0</ele>
        <time>2018-07-29T12:53:48Z</time>
      </trkpt>
      <trkpt lat="40.504783" lon="-5.176850">
        <ele>2122.0</ele>
        <time>2018-07-29T12:53:49Z</time>
      </trkpt>
      <trkpt lat="40.504867" lon="-5.176800">
        <ele>2121.0</ele>
        <time>2018-07-29T12:53:50Z</time>
      </trkpt>
      <trkpt lat="40.504967" lon="-5.176750">
        <ele>2119.0</ele>
        <time>2018-07-29T12:53:51Z</time>
      </trkpt>
      <trkpt lat="40.505050" lon="-5.176683">
        <ele>2118.0</ele>
        <time>2018-07-29T12:53:52Z</time>
      </trkpt>
      <trkpt lat="40.505150" lon="-5.176583">
        <ele>2117.0</ele>
        <time>2018-07-29T12:53:53Z</time>
      </trkpt>
      <trkpt lat="40.505233" lon="-5.176467">
        <ele>2117.0</ele>
        <time>2018-07-29T12:53:54Z</time>
      </trkpt>
      <trkpt lat="40.505300" lon="-5.176350">
        <ele>2116.0</ele>
        <time>2018-07-29T12:53:55Z</time>
      </trkpt>
      <trkpt lat="40.505383" lon="-5.176233">
        <ele>2115.0</ele>
        <time>2018-07-29T12:53:56Z</time>
      </trkpt>
      <trkpt lat="40.505450" lon="-5.176100">
        <ele>2113.0</ele>
        <time>2018-07-29T12:53:57Z</time>
      </trkpt>
      <trkpt lat="40.505533" lon="-5.175967">
        <ele>2112.0</ele>
        <time>2018-07-29T12:53:58Z</time>
      </trkpt>
      <trkpt lat="40.505600" lon="-5.175817">
        <ele>2110.0</ele>
        <time>2018-07-29T12:53:59Z</time>
      </trkpt>
      <trkpt lat="40.505683" lon="-5.175683">
        <ele>2108.0</ele>
        <time>2018-07-29T12:54:00Z</time>
      </trkpt>
      <trkpt lat="40.505767" lon="-5.175533">
        <ele>2107.0</ele>
        <time>2018-07-29T12:54:01Z</time>
      </trkpt>
      <trkpt lat="40.505850" lon="-5.175400">
        <ele>2106.0</ele>
        <time>2018-07-29T12:54:02Z</time>
      </trkpt>
      <trkpt lat="40.505917" lon="-5.175250">
        <ele>2104.0</ele>
        <time>2018-07-29T12:54:03Z</time>
      </trkpt>
      <trkpt lat="40.505983" lon="-5.175100">
        <ele>2102.0</ele>
        <time>2018-07-29T12:54:04Z</time>
      </trkpt>
      <trkpt lat="40.506050" lon="-5.174950">
        <ele>2099.0</ele>
        <time>2018-07-29T12:54:05Z</time>
      </trkpt>
      <trkpt lat="40.506133" lon="-5.174800">
        <ele>2097.0</ele>
        <time>2018-07-29T12:54:06Z</time>
      </trkpt>
      <trkpt lat="40.506233" lon="-5.174667">
        <ele>2095.0</ele>
        <time>2018-07-29T12:54:07Z</time>
      </trkpt>
      <trkpt lat="40.506333" lon="-5.174550">
        <ele>2093.0</ele>
        <time>2018-07-29T12:54:08Z</time>
      </trkpt>
      <trkpt lat="40.506417" lon="-5.174417">
        <ele>2092.0</ele>
        <time>2018-07-29T12:54:09Z</time>
      </trkpt>
      <trkpt lat="40.506500" lon="-5.174300">
        <ele>2091.0</ele>
        <time>2018-07-29T12:54:10Z</time>
      </trkpt>
      <trkpt lat="40.506600" lon="-5.174183">
        <ele>2090.0</ele>
        <time>2018-07-29T12:54:11Z</time>
      </trkpt>
      <trkpt lat="40.506683" lon="-5.174083">
        <ele>2088.0</ele>
        <time>2018-07-29T12:54:12Z</time>
      </trkpt>
      <trkpt lat="40.506783" lon="-5.173983">
        <ele>2087.0</ele>
        <time>2018-07-29T12:54:13Z</time>
      </trkpt>
      <trkpt lat="40.506883" lon="-5.173867">
        <ele>2086.0</ele>
        <time>2018-07-29T12:54:14Z</time>
      </trkpt>
      <trkpt lat="40.506967" lon="-5.173750">
        <ele>2085.0</ele>
        <time>2018-07-29T12:54:15Z</time>
      </trkpt>
      <trkpt lat="40.507050" lon="-5.173633">
        <ele>2085.0</ele>
        <time>2018-07-29T12:54:16Z</time>
      </trkpt>
      <trkpt lat="40.507133" lon="-5.173517">
        <ele>2084.0</ele>
        <time>2018-07-29T12:54:17Z</time>
      </trkpt>
      <trkpt lat="40.507217" lon="-5.173400">
        <ele>2082.0</ele>
        <time>2018-07-29T12:54:18Z</time>
      </trkpt>
      <trkpt lat="40.507300" lon="-5.173267">
        <ele>2081.0</ele>
        <time>2018-07-29T12:54:19Z</time>
      </trkpt>
      <trkpt lat="40.507383" lon="-5.173133">
        <ele>2079.0</ele>
        <time>2018-07-29T12:54:20Z</time>
      </trkpt>
      <trkpt lat="40.507450" lon="-5.172983">
        <ele>2077.0</ele>
        <time>2018-07-29T12:54:21Z</time>
      </trkpt>
      <trkpt lat="40.507517" lon="-5.172833">
        <ele>2076.0</ele>
        <time>2018-07-29T12:54:22Z</time>
      </trkpt>
      <trkpt lat="40.507583" lon="-5.172683">
        <ele>2075.0</ele>
        <time>2018-07-29T12:54:23Z</time>
      </trkpt>
      <trkpt lat="40.507667" lon="-5.172550">
        <ele>2073.0</ele>
        <time>2018-07-29T12:54:24Z</time>
      </trkpt>
      <trkpt lat="40.507733" lon="-5.172433">
        <ele>2071.0</ele>
        <time>2018-07-29T12:54:25Z</time>
      </trkpt>
      <trkpt lat="40.507833" lon="-5.172300">
        <ele>2069.0</ele>
        <time>2018-07-29T12:54:26Z</time>
      </trkpt>
      <trkpt lat="40.507933" lon="-5.172167">
        <ele>2067.0</ele>
        <time>2018-07-29T12:54:27Z</time>
      </trkpt>
      <trkpt lat="40.508033" lon="-5.172067">
        <ele>2066.0</ele>
        <time>2018-07-29T12:54:28Z</time>
      </trkpt>
      <trkpt lat="40.508133" lon="-5.171967">
        <ele>2065.0</ele>
        <time>2018-07-29T12:54:29Z</time>
      </trkpt>
      <trkpt lat="40.508233" lon="-5.171883">
        <ele>2065.0</ele>
        <time>2018-07-29T12:54:30Z</time>
      </trkpt>
      <trkpt lat="40.508317" lon="-5.171783">
        <ele>2064.0</ele>
        <time>2018-07-29T12:54:31Z</time>
      </trkpt>
      <trkpt lat="40.508417" lon="-5.171683">
        <ele>2062.0</ele>
        <time>2018-07-29T12:54:32Z</time>
      </trkpt>
      <trkpt lat="40.508517" lon="-5.171567">
        <ele>2060.0</ele>
        <time>2018-07-29T12:54:33Z</time>
      </trkpt>
      <trkpt lat="40.508633" lon="-5.171467">
        <ele>2058.0</ele>
        <time>2018-07-29T12:54:34Z</time>
      </trkpt>
      <trkpt lat="40.508733" lon="-5.171350">
        <ele>2057.0</ele>
        <time>2018-07-29T12:54:35Z</time>
      </trkpt>
      <trkpt lat="40.508850" lon="-5.171233">
        <ele>2056.0</ele>
        <time>2018-07-29T12:54:36Z</time>
      </trkpt>
      <trkpt lat="40.508950" lon="-5.171117">
        <ele>2056.0</ele>
        <time>2018-07-29T12:54:37Z</time>
      </trkpt>
      <trkpt lat="40.509050" lon="-5.171017">
        <ele>2056.0</ele>
        <time>2018-07-29T12:54:38Z</time>
      </trkpt>
      <trkpt lat="40.509150" lon="-5.170917">
        <ele>2055.0</ele>
        <time>2018-07-29T12:54:39Z</time>
      </trkpt>
      <trkpt lat="40.509233" lon="-5.170817">
        <ele>2055.0</ele>
        <time>2018-07-29T12:54:40Z</time>
      </trkpt>
      <trkpt lat="40.509333" lon="-5.170700">
        <ele>2054.0</ele>
        <time>2018-07-29T12:54:41Z</time>
      </trkpt>
      <trkpt lat="40.509417" lon="-5.170567">
        <ele>2052.0</ele>
        <time>2018-07-29T12:54:42Z</time>
      </trkpt>
      <trkpt lat="40.509517" lon="-5.170433">
        <ele>2052.0</ele>
        <time>2018-07-29T12:54:43Z</time>
      </trkpt>
      <trkpt lat="40.509600" lon="-5.170300">
        <ele>2051.0</ele>
        <time>2018-07-29T12:54:44Z</time>
      </trkpt>
      <trkpt lat="40.509700" lon="-5.170183">
        <ele>2051.0</ele>
        <time>2018-07-29T12:54:45Z</time>
      </trkpt>
      <trkpt lat="40.509783" lon="-5.170050">
        <ele>2050.0</ele>
        <time>2018-07-29T12:54:46Z</time>
      </trkpt>
      <trkpt lat="40.509867" lon="-5.169917">
        <ele>2048.0</ele>
        <time>2018-07-29T12:54:47Z</time>
      </trkpt>
      <trkpt lat="40.509950" lon="-5.169767">
        <ele>2047.0</ele>
        <time>2018-07-29T12:54:48Z</time>
      </trkpt>
      <trkpt lat="40.510033" lon="-5.169617">
        <ele>2047.0</ele>
        <time>2018-07-29T12:54:49Z</time>
      </trkpt>
      <trkpt lat="40.510133" lon="-5.169500">
        <ele>2047.0</ele>
        <time>2018-07-29T12:54:50Z</time>
      </trkpt>
      <trkpt lat="40.510217" lon="-5.169400">
        <ele>2047.0</ele>
        <time>2018-07-29T12:54:51Z</time>
      </trkpt>
      <trkpt lat="40.510300" lon="-5.169300">
        <ele>2046.0</ele>
        <time>2018-07-29T12:54:52Z</time>
      </trkpt>
      <trkpt lat="40.510383" lon="-5.169183">
        <ele>2045.0</ele>
        <time>2018-07-29T12:54:53Z</time>
      </trkpt>
      <trkpt lat="40.510467" lon="-5.169050">
        <ele>2043.0</ele>
        <time>2018-07-29T12:54:54Z</time>
      </trkpt>
      <trkpt lat="40.510567" lon="-5.168917">
        <ele>2042.0</ele>
        <time>2018-07-29T12:54:55Z</time>
      </trkpt>
      <trkpt lat="40.510650" lon="-5.168767">
        <ele>2043.0</ele>
        <time>2018-07-29T12:54:56Z</time>
      </trkpt>
      <trkpt lat="40.510717" lon="-5.168600">
        <ele>2044.0</ele>
        <time>2018-07-29T12:54:57Z</time>
      </trkpt>
      <trkpt lat="40.510800" lon="-5.168450">
        <ele>2045.0</ele>
        <time>2018-07-29T12:54:58Z</time>
      </trkpt>
      <trkpt lat="40.510867" lon="-5.168300">
        <ele>2047.0</ele>
        <time>2018-07-29T12:54:59Z</time>
      </trkpt>
      <trkpt lat="40.510933" lon="-5.168167">
        <ele>2048.0</ele>
        <time>2018-07-29T12:55:00Z</time>
      </trkpt>
      <trkpt lat="40.511000" lon="-5.168017">
        <ele>2048.0</ele>
        <time>2018-07-29T12:55:01Z</time>
      </trkpt>
      <trkpt lat="40.511067" lon="-5.167883">
        <ele>2049.0</ele>
        <time>2018-07-29T12:55:02Z</time>
      </trkpt>
      <trkpt lat="40.511133" lon="-5.167750">
        <ele>2050.0</ele>
        <time>2018-07-29T12:55:03Z</time>
      </trkpt>
      <trkpt lat="40.511200" lon="-5.167633">
        <ele>2051.0</ele>
        <time>2018-07-29T12:55:04Z</time>
      </trkpt>
      <trkpt lat="40.511267" lon="-5.167500">
        <ele>2051.0</ele>
        <time>2018-07-29T12:55:05Z</time>
      </trkpt>
      <trkpt lat="40.511350" lon="-5.167367">
        <ele>2053.0</ele>
        <time>2018-07-29T12:55:06Z</time>
      </trkpt>
      <trkpt lat="40.511417" lon="-5.167233">
        <ele>2053.0</ele>
        <time>2018-07-29T12:55:07Z</time>
      </trkpt>
      <trkpt lat="40.511483" lon="-5.167100">
        <ele>2053.0</ele>
        <time>2018-07-29T12:55:08Z</time>
      </trkpt>
      <trkpt lat="40.511550" lon="-5.166950">
        <ele>2053.0</ele>
        <time>2018-07-29T12:55:09Z</time>
      </trkpt>
      <trkpt lat="40.511617" lon="-5.166800">
        <ele>2052.0</ele>
        <time>2018-07-29T12:55:10Z</time>
      </trkpt>
      <trkpt lat="40.511683" lon="-5.166650">
        <ele>2052.0</ele>
        <time>2018-07-29T12:55:11Z</time>
      </trkpt>
      <trkpt lat="40.511767" lon="-5.166500">
        <ele>2051.0</ele>
        <time>2018-07-29T12:55:12Z</time>
      </trkpt>
      <trkpt lat="40.511850" lon="-5.166350">
        <ele>2052.0</ele>
        <time>2018-07-29T12:55:13Z</time>
      </trkpt>
      <trkpt lat="40.511950" lon="-5.166217">
        <ele>2054.0</ele>
        <time>2018-07-29T12:55:14Z</time>
      </trkpt>
      <trkpt lat="40.512033" lon="-5.166100">
        <ele>2056.0</ele>
        <time>2018-07-29T12:55:15Z</time>
      </trkpt>
      <trkpt lat="40.512100" lon="-5.165967">
        <ele>2058.0</ele>
        <time>2018-07-29T12:55:16Z</time>
      </trkpt>
      <trkpt lat="40.512183" lon="-5.165850">
        <ele>2059.0</ele>
        <time>2018-07-29T12:55:17Z</time>
      </trkpt>
      <trkpt lat="40.512267" lon="-5.165733">
        <ele>2058.0</ele>
        <time>2018-07-29T12:55:18Z</time>
      </trkpt>
      <trkpt lat="40.512367" lon="-5.165633">
        <ele>2058.0</ele>
        <time>2018-07-29T12:55:19Z</time>
      </trkpt>
      <trkpt lat="40.512467" lon="-5.165567">
        <ele>2057.0</ele>
        <time>2018-07-29T12:55:20Z</time>
      </trkpt>
      <trkpt lat="40.512583" lon="-5.165517">
        <ele>2057.0</ele>
        <time>2018-07-29T12:55:21Z</time>
      </trkpt>
      <trkpt lat="40.512683" lon="-5.165483">
        <ele>2057.0</ele>
        <time>2018-07-29T12:55:22Z</time>
      </trkpt>
      <trkpt lat="40.512783" lon="-5.165467">
        <ele>2058.0</ele>
        <time>2018-07-29T12:55:23Z</time>
      </trkpt>
      <trkpt lat="40.512883" lon="-5.165483">
        <ele>2058.0</ele>
        <time>2018-07-29T12:55:24Z</time>
      </trkpt>
      <trkpt lat="40.512967" lon="-5.165533">
        <ele>2057.0</ele>
        <time>2018-07-29T12:55:25Z</time>
      </trkpt>
      <trkpt lat="40.513033" lon="-5.165583">
        <ele>2057.0</ele>
        <time>2018-07-29T12:55:26Z</time>
      </trkpt>
      <trkpt lat="40.513083" lon="-5.165650">
        <ele>2059.0</ele>
        <time>2018-07-29T12:55:27Z</time>
      </trkpt>
      <trkpt lat="40.513117" lon="-5.165717">
        <ele>2060.0</ele>
        <time>2018-07-29T12:55:28Z</time>
      </trkpt>
      <trkpt lat="40.513133" lon="-5.165783">
        <ele>2062.0</ele>
        <time>2018-07-29T12:55:29Z</time>
      </trkpt>
      <trkpt lat="40.513133" lon="-5.165833">
        <ele>2062.0</ele>
        <time>2018-07-29T12:55:30Z</time>
      </trkpt>
      <trkpt lat="40.513117" lon="-5.165900">
        <ele>2062.0</ele>
        <time>2018-07-29T12:55:31Z</time>
      </trkpt>
      <trkpt lat="40.513067" lon="-5.165933">
        <ele>2061.0</ele>
        <time>2018-07-29T12:55:32Z</time>
      </trkpt>
      <trkpt lat="40.513000" lon="-5.165967">
        <ele>2061.0</ele>
        <time>2018-07-29T12:55:33Z</time>
      </trkpt>
      <trkpt lat="40.512917" lon="-5.165950">
        <ele>2062.0</ele>
        <time>2018-07-29T12:55:34Z</time>
      </trkpt>
      <trkpt lat="40.512817" lon="-5.165900">
        <ele>2063.0</ele>
        <time>2018-07-29T12:55:35Z</time>
      </trkpt>
      <trkpt lat="40.512733" lon="-5.165817">
        <ele>2065.0</ele>
        <time>2018-07-29T12:55:36Z</time>
      </trkpt>
      <trkpt lat="40.512667" lon="-5.165717">
        <ele>2066.0</ele>
        <time>2018-07-29T12:55:37Z</time>
      </trkpt>
      <trkpt lat="40.512617" lon="-5.165583">
        <ele>2066.0</ele>
        <time>2018-07-29T12:55:38Z</time>
      </trkpt>
      <trkpt lat="40.512583" lon="-5.165417">
        <ele>2066.0</ele>
        <time>2018-07-29T12:55:39Z</time>
      </trkpt>
      <trkpt lat="40.512567" lon="-5.165250">
        <ele>2065.0</ele>
        <time>2018-07-29T12:55:40Z</time>
      </trkpt>
      <trkpt lat="40.512583" lon="-5.165067">
        <ele>2065.0</ele>
        <time>2018-07-29T12:55:41Z</time>
      </trkpt>
      <trkpt lat="40.512617" lon="-5.164900">
        <ele>2065.0</ele>
        <time>2018-07-29T12:55:42Z</time>
      </trkpt>
      <trkpt lat="40.512667" lon="-5.164733">
        <ele>2067.0</ele>
        <time>2018-07-29T12:55:43Z</time>
      </trkpt>
      <trkpt lat="40.512733" lon="-5.164600">
        <ele>2068.0</ele>
        <time>2018-07-29T12:55:44Z</time>
      </trkpt>
      <trkpt lat="40.512800" lon="-5.164483">
        <ele>2067.0</ele>
        <time>2018-07-29T12:55:45Z</time>
      </trkpt>
      <trkpt lat="40.512900" lon="-5.164367">
        <ele>2067.0</ele>
        <time>2018-07-29T12:55:46Z</time>
      </trkpt>
      <trkpt lat="40.513000" lon="-5.164283">
        <ele>2067.0</ele>
        <time>2018-07-29T12:55:47Z</time>
      </trkpt>
      <trkpt lat="40.513117" lon="-5.164217">
        <ele>2066.0</ele>
        <time>2018-07-29T12:55:48Z</time>
      </trkpt>
      <trkpt lat="40.513217" lon="-5.164183">
        <ele>2067.0</ele>
        <time>2018-07-29T12:55:49Z</time>
      </trkpt>
      <trkpt lat="40.513317" lon="-5.164167">
        <ele>2067.0</ele>
        <time>2018-07-29T12:55:50Z</time>
      </trkpt>
      <trkpt lat="40.513400" lon="-5.164167">
        <ele>2068.0</ele>
        <time>2018-07-29T12:55:51Z</time>
      </trkpt>
      <trkpt lat="40.513483" lon="-5.164183">
        <ele>2068.0</ele>
        <time>2018-07-29T12:55:52Z</time>
      </trkpt>
      <trkpt lat="40.513567" lon="-5.164200">
        <ele>2068.0</ele>
        <time>2018-07-29T12:55:53Z</time>
      </trkpt>
      <trkpt lat="40.513633" lon="-5.164250">
        <ele>2067.0</ele>
        <time>2018-07-29T12:55:54Z</time>
      </trkpt>
      <trkpt lat="40.513683" lon="-5.164317">
        <ele>2067.0</ele>
        <time>2018-07-29T12:55:55Z</time>
      </trkpt>
      <trkpt lat="40.513717" lon="-5.164400">
        <ele>2067.0</ele>
        <time>2018-07-29T12:55:56Z</time>
      </trkpt>
      <trkpt lat="40.513717" lon="-5.164483">
        <ele>2067.0</ele>
        <time>2018-07-29T12:55:57Z</time>
      </trkpt>
      <trkpt lat="40.513717" lon="-5.164550">
        <ele>2067.0</ele>
        <time>2018-07-29T12:55:58Z</time>
      </trkpt>
      <trkpt lat="40.513683" lon="-5.164617">
        <ele>2067.0</ele>
        <time>2018-07-29T12:55:59Z</time>
      </trkpt>
      <trkpt lat="40.513633" lon="-5.164683">
        <ele>2067.0</ele>
        <time>2018-07-29T12:56:00Z</time>
      </trkpt>
      <trkpt lat="40.513567" lon="-5.164717">
        <ele>2068.0</ele>
        <time>2018-07-29T12:56:01Z</time>
      </trkpt>
      <trkpt lat="40.513483" lon="-5.164733">
        <ele>2069.0</ele>
        <time>2018-07-29T12:56:02Z</time>
      </trkpt>
      <trkpt lat="40.513400" lon="-5.164717">
        <ele>2070.0</ele>
        <time>2018-07-29T12:56:03Z</time>
      </trkpt>
      <trkpt lat="40.513317" lon="-5.164683">
        <ele>2071.0</ele>
        <time>2018-07-29T12:56:04Z</time>
      </trkpt>
      <trkpt lat="40.513217" lon="-5.164633">
        <ele>2072.0</ele>
        <time>2018-07-29T12:56:05Z</time>
      </trkpt>
      <trkpt lat="40.513133" lon="-5.164550">
        <ele>2073.0</ele>
        <time>2018-07-29T12:56:06Z</time>
      </trkpt>
      <trkpt lat="40.513050" lon="-5.164450">
        <ele>2073.0</ele>
        <time>2018-07-29T12:56:07Z</time>
      </trkpt>
      <trkpt lat="40.513000" lon="-5.164317">
        <ele>2074.0</ele>
        <time>2018-07-29T12:56:08Z</time>
      </trkpt>
      <trkpt lat="40.512950" lon="-5.164167">
        <ele>2073.0</ele>
        <time>2018-07-29T12:56:09Z</time>
      </trkpt>
      <trkpt lat="40.512917" lon="-5.164000">
        <ele>2073.0</ele>
        <time>2018-07-29T12:56:10Z</time>
      </trkpt>
      <trkpt lat="40.512917" lon="-5.163833">
        <ele>2073.0</ele>
        <time>2018-07-29T12:56:11Z</time>
      </trkpt>
      <trkpt lat="40.512933" lon="-5.163667">
        <ele>2074.0</ele>
        <time>2018-07-29T12:56:12Z</time>
      </trkpt>
      <trkpt lat="40.512983" lon="-5.163517">
        <ele>2074.0</ele>
        <time>2018-07-29T12:56:13Z</time>
      </trkpt>
      <trkpt lat="40.513050" lon="-5.163383">
        <ele>2075.0</ele>
        <time>2018-07-29T12:56:14Z</time>
      </trkpt>
      <trkpt lat="40.513133" lon="-5.163283">
        <ele>2075.0</ele>
        <time>2018-07-29T12:56:15Z</time>
      </trkpt>
      <trkpt lat="40.513200" lon="-5.163183">
        <ele>2076.0</ele>
        <time>2018-07-29T12:56:16Z</time>
      </trkpt>
      <trkpt lat="40.513300" lon="-5.163133">
        <ele>2076.0</ele>
        <time>2018-07-29T12:56:17Z</time>
      </trkpt>
      <trkpt lat="40.513383" lon="-5.163100">
        <ele>2076.0</ele>
        <time>2018-07-29T12:56:18Z</time>
      </trkpt>
      <trkpt lat="40.513483" lon="-5.163100">
        <ele>2076.0</ele>
        <time>2018-07-29T12:56:19Z</time>
      </trkpt>
      <trkpt lat="40.513567" lon="-5.163133">
        <ele>2076.0</ele>
        <time>2018-07-29T12:56:20Z</time>
      </trkpt>
      <trkpt lat="40.513633" lon="-5.163183">
        <ele>2076.0</ele>
        <time>2018-07-29T12:56:21Z</time>
      </trkpt>
      <trkpt lat="40.513683" lon="-5.163250">
        <ele>2077.0</ele>
        <time>2018-07-29T12:56:22Z</time>
      </trkpt>
      <trkpt lat="40.513717" lon="-5.163317">
        <ele>2078.0</ele>
        <time>2018-07-29T12:56:23Z</time>
      </trkpt>
      <trkpt lat="40.513733" lon="-5.163383">
        <ele>2079.0</ele>
        <time>2018-07-29T12:56:24Z</time>
      </trkpt>
      <trkpt lat="40.513733" lon="-5.163467">
        <ele>2080.0</ele>
        <time>2018-07-29T12:56:25Z</time>
      </trkpt>
      <trkpt lat="40.513700" lon="-5.163533">
        <ele>2080.0</ele>
        <time>2018-07-29T12:56:26Z</time>
      </trkpt>
      <trkpt lat="40.513667" lon="-5.163583">
        <ele>2079.0</ele>
        <time>2018-07-29T12:56:27Z</time>
      </trkpt>
      <trkpt lat="40.513600" lon="-5.163633">
        <ele>2080.0</ele>
        <time>2018-07-29T12:56:28Z</time>
      </trkpt>
      <trkpt lat="40.513517" lon="-5.163650">
        <ele>2081.0</ele>
        <time>2018-07-29T12:56:29Z</time>
      </trkpt>
      <trkpt lat="40.513433" lon="-5.163633">
        <ele>2083.0</ele>
        <time>2018-07-29T12:56:30Z</time>
      </trkpt>
      <trkpt lat="40.513350" lon="-5.163583">
        <ele>2084.0</ele>
        <time>2018-07-29T12:56:31Z</time>
      </trkpt>
      <trkpt lat="40.513283" lon="-5.163500">
        <ele>2085.0</ele>
        <time>2018-07-29T12:56:32Z</time>
      </trkpt>
      <trkpt lat="40.513217" lon="-5.163400">
        <ele>2084.0</ele>
        <time>2018-07-29T12:56:33Z</time>
      </trkpt>
      <trkpt lat="40.513167" lon="-5.163283">
        <ele>2083.0</ele>
        <time>2018-07-29T12:56:34Z</time>
      </trkpt>
      <trkpt lat="40.513100" lon="-5.163150">
        <ele>2082.0</ele>
        <time>2018-07-29T12:56:35Z</time>
      </trkpt>
      <trkpt lat="40.513083" lon="-5.162983">
        <ele>2082.0</ele>
        <time>2018-07-29T12:56:36Z</time>
      </trkpt>
      <trkpt lat="40.513083" lon="-5.162800">
        <ele>2081.0</ele>
        <time>2018-07-29T12:56:37Z</time>
      </trkpt>
      <trkpt lat="40.513117" lon="-5.162650">
        <ele>2081.0</ele>
        <time>2018-07-29T12:56:38Z</time>
      </trkpt>
      <trkpt lat="40.513183" lon="-5.162500">
        <ele>2082.0</ele>
        <time>2018-07-29T12:56:39Z</time>
      </trkpt>
      <trkpt lat="40.513233" lon="-5.162350">
        <ele>2084.0</ele>
        <time>2018-07-29T12:56:40Z</time>
      </trkpt>
      <trkpt lat="40.513300" lon="-5.162233">
        <ele>2085.0</ele>
        <time>2018-07-29T12:56:41Z</time>
      </trkpt>
      <trkpt lat="40.513367" lon="-5.162100">
        <ele>2086.0</ele>
        <time>2018-07-29T12:56:42Z</time>
      </trkpt>
      <trkpt lat="40.513417" lon="-5.161967">
        <ele>2086.0</ele>
        <time>2018-07-29T12:56:43Z</time>
      </trkpt>
      <trkpt lat="40.513483" lon="-5.161817">
        <ele>2086.0</ele>
        <time>2018-07-29T12:56:44Z</time>
      </trkpt>
      <trkpt lat="40.513567" lon="-5.161683">
        <ele>2086.0</ele>
        <time>2018-07-29T12:56:45Z</time>
      </trkpt>
      <trkpt lat="40.513633" lon="-5.161550">
        <ele>2086.0</ele>
        <time>2018-07-29T12:56:46Z</time>
      </trkpt>
      <trkpt lat="40.513700" lon="-5.161417">
        <ele>2087.0</ele>
        <time>2018-07-29T12:56:47Z</time>
      </trkpt>
      <trkpt lat="40.513750" lon="-5.161283">
        <ele>2087.0</ele>
        <time>2018-07-29T12:56:48Z</time>
      </trkpt>
      <trkpt lat="40.513817" lon="-5.161133">
        <ele>2087.0</ele>
        <time>2018-07-29T12:56:49Z</time>
      </trkpt>
      <trkpt lat="40.513883" lon="-5.161000">
        <ele>2088.0</ele>
        <time>2018-07-29T12:56:50Z</time>
      </trkpt>
      <trkpt lat="40.513967" lon="-5.160883">
        <ele>2088.0</ele>
        <time>2018-07-29T12:56:51Z</time>
      </trkpt>
      <trkpt lat="40.514050" lon="-5.160783">
        <ele>2087.0</ele>
        <time>2018-07-29T12:56:52Z</time>
      </trkpt>
      <trkpt lat="40.514133" lon="-5.160717">
        <ele>2087.0</ele>
        <time>2018-07-29T12:56:53Z</time>
      </trkpt>
      <trkpt lat="40.514233" lon="-5.160667">
        <ele>2086.0</ele>
        <time>2018-07-29T12:56:54Z</time>
      </trkpt>
      <trkpt lat="40.514350" lon="-5.160633">
        <ele>2086.0</ele>
        <time>2018-07-29T12:56:55Z</time>
      </trkpt>
      <trkpt lat="40.514450" lon="-5.160600">
        <ele>2086.0</ele>
        <time>2018-07-29T12:56:56Z</time>
      </trkpt>
      <trkpt lat="40.514533" lon="-5.160583">
        <ele>2088.0</ele>
        <time>2018-07-29T12:56:57Z</time>
      </trkpt>
      <trkpt lat="40.514617" lon="-5.160583">
        <ele>2089.0</ele>
        <time>2018-07-29T12:56:58Z</time>
      </trkpt>
      <trkpt lat="40.514700" lon="-5.160567">
        <ele>2089.0</ele>
        <time>2018-07-29T12:56:59Z</time>
      </trkpt>
      <trkpt lat="40.514767" lon="-5.160583">
        <ele>2088.0</ele>
        <time>2018-07-29T12:57:00Z</time>
      </trkpt>
      <trkpt lat="40.514833" lon="-5.160617">
        <ele>2086.0</ele>
        <time>2018-07-29T12:57:01Z</time>
      </trkpt>
      <trkpt lat="40.514900" lon="-5.160667">
        <ele>2085.0</ele>
        <time>2018-07-29T12:57:02Z</time>
      </trkpt>
      <trkpt lat="40.514950" lon="-5.160717">
        <ele>2084.0</ele>
        <time>2018-07-29T12:57:03Z</time>
      </trkpt>
      <trkpt lat="40.514983" lon="-5.160783">
        <ele>2084.0</ele>
        <time>2018-07-29T12:57:04Z</time>
      </trkpt>
      <trkpt lat="40.515000" lon="-5.160867">
        <ele>2084.0</ele>
        <time>2018-07-29T12:57:05Z</time>
      </trkpt>
      <trkpt lat="40.515000" lon="-5.160917">
        <ele>2084.0</ele>
        <time>2018-07-29T12:57:06Z</time>
      </trkpt>
      <trkpt lat="40.515000" lon="-5.160983">
        <ele>2084.0</ele>
        <time>2018-07-29T12:57:07Z</time>
      </trkpt>
      <trkpt lat="40.514967" lon="-5.161033">
        <ele>2083.0</ele>
        <time>2018-07-29T12:57:08Z</time>
      </trkpt>
      <trkpt lat="40.514933" lon="-5.161100">
        <ele>2082.0</ele>
        <time>2018-07-29T12:57:09Z</time>
      </trkpt>
      <trkpt lat="40.514883" lon="-5.161133">
        <ele>2081.0</ele>
        <time>2018-07-29T12:57:10Z</time>
      </trkpt>
      <trkpt lat="40.514817" lon="-5.161167">
        <ele>2081.0</ele>
        <time>2018-07-29T12:57:11Z</time>
      </trkpt>
      <trkpt lat="40.514750" lon="-5.161183">
        <ele>2082.0</ele>
        <time>2018-07-29T12:57:12Z</time>
      </trkpt>
      <trkpt lat="40.514667" lon="-5.161167">
        <ele>2083.0</ele>
        <time>2018-07-29T12:57:13Z</time>
      </trkpt>
      <trkpt lat="40.514583" lon="-5.161117">
        <ele>2083.0</ele>
        <time>2018-07-29T12:57:14Z</time>
      </trkpt>
      <trkpt lat="40.514517" lon="-5.161033">
        <ele>2083.0</ele>
        <time>2018-07-29T12:57:15Z</time>
      </trkpt>
      <trkpt lat="40.514433" lon="-5.160933">
        <ele>2083.0</ele>
        <time>2018-07-29T12:57:16Z</time>
      </trkpt>
      <trkpt lat="40.514367" lon="-5.160800">
        <ele>2082.0</ele>
        <time>2018-07-29T12:57:17Z</time>
      </trkpt>
      <trkpt lat="40.514300" lon="-5.160667">
        <ele>2082.0</ele>
        <time>2018-07-29T12:57:18Z</time>
      </trkpt>
      <trkpt lat="40.514250" lon="-5.160500">
        <ele>2082.0</ele>
        <time>2018-07-29T12:57:19Z</time>
      </trkpt>
      <trkpt lat="40.514233" lon="-5.160333">
        <ele>2082.0</ele>
        <time>2018-07-29T12:57:20Z</time>
      </trkpt>
      <trkpt lat="40.514250" lon="-5.160167">
        <ele>2081.0</ele>
        <time>2018-07-29T12:57:21Z</time>
      </trkpt>
      <trkpt lat="40.514267" lon="-5.160000">
        <ele>2081.0</ele>
        <time>2018-07-29T12:57:22Z</time>
      </trkpt>
      <trkpt lat="40.514333" lon="-5.159850">
        <ele>2081.0</ele>
        <time>2018-07-29T12:57:23Z</time>
      </trkpt>
      <trkpt lat="40.514400" lon="-5.159700">
        <ele>2081.0</ele>
        <time>2018-07-29T12:57:24Z</time>
      </trkpt>
      <trkpt lat="40.514467" lon="-5.159550">
        <ele>2082.0</ele>
        <time>2018-07-29T12:57:25Z</time>
      </trkpt>
      <trkpt lat="40.514550" lon="-5.159417">
        <ele>2083.0</ele>
        <time>2018-07-29T12:57:26Z</time>
      </trkpt>
      <trkpt lat="40.514617" lon="-5.159267">
        <ele>2084.0</ele>
        <time>2018-07-29T12:57:27Z</time>
      </trkpt>
      <trkpt lat="40.514700" lon="-5.159133">
        <ele>2084.0</ele>
        <time>2018-07-29T12:57:28Z</time>
      </trkpt>
      <trkpt lat="40.514767" lon="-5.158983">
        <ele>2083.0</ele>
        <time>2018-07-29T12:57:29Z</time>
      </trkpt>
      <trkpt lat="40.514833" lon="-5.158833">
        <ele>2083.0</ele>
        <time>2018-07-29T12:57:30Z</time>
      </trkpt>
      <trkpt lat="40.514900" lon="-5.158683">
        <ele>2082.0</ele>
        <time>2018-07-29T12:57:31Z</time>
      </trkpt>
      <trkpt lat="40.514967" lon="-5.158517">
        <ele>2082.0</ele>
        <time>2018-07-29T12:57:32Z</time>
      </trkpt>
      <trkpt lat="40.515017" lon="-5.158367">
        <ele>2081.0</ele>
        <time>2018-07-29T12:57:33Z</time>
      </trkpt>
      <trkpt lat="40.515083" lon="-5.158217">
        <ele>2081.0</ele>
        <time>2018-07-29T12:57:34Z</time>
      </trkpt>
      <trkpt lat="40.515150" lon="-5.158067">
        <ele>2080.0</ele>
        <time>2018-07-29T12:57:35Z</time>
      </trkpt>
      <trkpt lat="40.515217" lon="-5.157950">
        <ele>2080.0</ele>
        <time>2018-07-29T12:57:36Z</time>
      </trkpt>
      <trkpt lat="40.515283" lon="-5.157817">
        <ele>2079.0</ele>
        <time>2018-07-29T12:57:37Z</time>
      </trkpt>
      <trkpt lat="40.515367" lon="-5.157683">
        <ele>2078.0</ele>
        <time>2018-07-29T12:57:38Z</time>
      </trkpt>
      <trkpt lat="40.515433" lon="-5.157550">
        <ele>2076.0</ele>
        <time>2018-07-29T12:57:39Z</time>
      </trkpt>
      <trkpt lat="40.515517" lon="-5.157433">
        <ele>2075.0</ele>
        <time>2018-07-29T12:57:40Z</time>
      </trkpt>
      <trkpt lat="40.515600" lon="-5.157317">
        <ele>2074.0</ele>
        <time>2018-07-29T12:57:41Z</time>
      </trkpt>
      <trkpt lat="40.515683" lon="-5.157200">
        <ele>2073.0</ele>
        <time>2018-07-29T12:57:42Z</time>
      </trkpt>
      <trkpt lat="40.515750" lon="-5.157067">
        <ele>2071.0</ele>
        <time>2018-07-29T12:57:43Z</time>
      </trkpt>
      <trkpt lat="40.515850" lon="-5.156950">
        <ele>2069.0</ele>
        <time>2018-07-29T12:57:44Z</time>
      </trkpt>
      <trkpt lat="40.515933" lon="-5.156833">
        <ele>2068.0</ele>
        <time>2018-07-29T12:57:45Z</time>
      </trkpt>
      <trkpt lat="40.516033" lon="-5.156717">
        <ele>2066.0</ele>
        <time>2018-07-29T12:57:46Z</time>
      </trkpt>
      <trkpt lat="40.516133" lon="-5.156617">
        <ele>2065.0</ele>
        <time>2018-07-29T12:57:47Z</time>
      </trkpt>
      <trkpt lat="40.516233" lon="-5.156533">
        <ele>2064.0</ele>
        <time>2018-07-29T12:57:48Z</time>
      </trkpt>
      <trkpt lat="40.516333" lon="-5.156450">
        <ele>2063.0</ele>
        <time>2018-07-29T12:57:49Z</time>
      </trkpt>
      <trkpt lat="40.516433" lon="-5.156367">
        <ele>2063.0</ele>
        <time>2018-07-29T12:57:50Z</time>
      </trkpt>
      <trkpt lat="40.516533" lon="-5.156317">
        <ele>2061.0</ele>
        <time>2018-07-29T12:57:51Z</time>
      </trkpt>
      <trkpt lat="40.516650" lon="-5.156267">
        <ele>2060.0</ele>
        <time>2018-07-29T12:57:52Z</time>
      </trkpt>
      <trkpt lat="40.516750" lon="-5.156217">
        <ele>2058.0</ele>
        <time>2018-07-29T12:57:53Z</time>
      </trkpt>
      <trkpt lat="40.516867" lon="-5.156150">
        <ele>2056.0</ele>
        <time>2018-07-29T12:57:54Z</time>
      </trkpt>
      <trkpt lat="40.516967" lon="-5.156083">
        <ele>2054.0</ele>
        <time>2018-07-29T12:57:55Z</time>
      </trkpt>
      <trkpt lat="40.517083" lon="-5.156017">
        <ele>2053.0</ele>
        <time>2018-07-29T12:57:56Z</time>
      </trkpt>
      <trkpt lat="40.517183" lon="-5.155950">
        <ele>2051.0</ele>
        <time>2018-07-29T12:57:57Z</time>
      </trkpt>
      <trkpt lat="40.517283" lon="-5.155867">
        <ele>2050.0</ele>
        <time>2018-07-29T12:57:58Z</time>
      </trkpt>
      <trkpt lat="40.517383" lon="-5.155767">
        <ele>2049.0</ele>
        <time>2018-07-29T12:57:59Z</time>
      </trkpt>
      <trkpt lat="40.517483" lon="-5.155650">
        <ele>2048.0</ele>
        <time>2018-07-29T12:58:00Z</time>
      </trkpt>
      <trkpt lat="40.517567" lon="-5.155517">
        <ele>2047.0</ele>
        <time>2018-07-29T12:58:01Z</time>
      </trkpt>
      <trkpt lat="40.517650" lon="-5.155383">
        <ele>2046.0</ele>
        <time>2018-07-29T12:58:02Z</time>
      </trkpt>
      <trkpt lat="40.517733" lon="-5.155267">
        <ele>2045.0</ele>
        <time>2018-07-29T12:58:03Z</time>
      </trkpt>
      <trkpt lat="40.517833" lon="-5.155150">
        <ele>2043.0</ele>
        <time>2018-07-29T12:58:04Z</time>
      </trkpt>
      <trkpt lat="40.517917" lon="-5.155017">
        <ele>2040.0</ele>
        <time>2018-07-29T12:58:05Z</time>
      </trkpt>
      <trkpt lat="40.518000" lon="-5.154883">
        <ele>2037.0</ele>
        <time>2018-07-29T12:58:06Z</time>
      </trkpt>
      <trkpt lat="40.518100" lon="-5.154750">
        <ele>2035.0</ele>
        <time>2018-07-29T12:58:07Z</time>
      </trkpt>
      <trkpt lat="40.518217" lon="-5.154650">
        <ele>2033.0</ele>
        <time>2018-07-29T12:58:08Z</time>
      </trkpt>
      <trkpt lat="40.518333" lon="-5.154550">
        <ele>2032.0</ele>
        <time>2018-07-29T12:58:09Z</time>
      </trkpt>
      <trkpt lat="40.518433" lon="-5.154467">
        <ele>2031.0</ele>
        <time>2018-07-29T12:58:10Z</time>
      </trkpt>
      <trkpt lat="40.518550" lon="-5.154383">
        <ele>2030.0</ele>
        <time>2018-07-29T12:58:11Z</time>
      </trkpt>
      <trkpt lat="40.518650" lon="-5.154300">
        <ele>2030.0</ele>
        <time>2018-07-29T12:58:12Z</time>
      </trkpt>
      <trkpt lat="40.518750" lon="-5.154200">
        <ele>2029.0</ele>
        <time>2018-07-29T12:58:13Z</time>
      </trkpt>
      <trkpt lat="40.518867" lon="-5.154117">
        <ele>2030.0</ele>
        <time>2018-07-29T12:58:14Z</time>
      </trkpt>
      <trkpt lat="40.518967" lon="-5.154050">
        <ele>2031.0</ele>
        <time>2018-07-29T12:58:15Z</time>
      </trkpt>
      <trkpt lat="40.519067" lon="-5.153983">
        <ele>2034.0</ele>
        <time>2018-07-29T12:58:16Z</time>
      </trkpt>
      <trkpt lat="40.519133" lon="-5.153917">
        <ele>2035.0</ele>
        <time>2018-07-29T12:58:17Z</time>
      </trkpt>
      <trkpt lat="40.519200" lon="-5.153850">
        <ele>2035.0</ele>
        <time>2018-07-29T12:58:18Z</time>
      </trkpt>
      <trkpt lat="40.519267" lon="-5.153783">
        <ele>2033.0</ele>
        <time>2018-07-29T12:58:19Z</time>
      </trkpt>
      <trkpt lat="40.519350" lon="-5.153700">
        <ele>2031.0</ele>
        <time>2018-07-29T12:58:20Z</time>
      </trkpt>
      <trkpt lat="40.519433" lon="-5.153600">
        <ele>2029.0</ele>
        <time>2018-07-29T12:58:21Z</time>
      </trkpt>
      <trkpt lat="40.519533" lon="-5.153500">
        <ele>2028.0</ele>
        <time>2018-07-29T12:58:22Z</time>
      </trkpt>
      <trkpt lat="40.519617" lon="-5.153367">
        <ele>2028.0</ele>
        <time>2018-07-29T12:58:23Z</time>
      </trkpt>
      <trkpt lat="40.519683" lon="-5.153217">
        <ele>2028.0</ele>
        <time>2018-07-29T12:58:24Z</time>
      </trkpt>
      <trkpt lat="40.519733" lon="-5.153050">
        <ele>2027.0</ele>
        <time>2018-07-29T12:58:25Z</time>
      </trkpt>
      <trkpt lat="40.519767" lon="-5.152867">
        <ele>2026.0</ele>
        <time>2018-07-29T12:58:26Z</time>
      </trkpt>
      <trkpt lat="40.519800" lon="-5.152700">
        <ele>2025.0</ele>
        <time>2018-07-29T12:58:27Z</time>
      </trkpt>
      <trkpt lat="40.519850" lon="-5.152533">
        <ele>2025.0</ele>
        <time>2018-07-29T12:58:28Z</time>
      </trkpt>
      <trkpt lat="40.519900" lon="-5.152367">
        <ele>2025.0</ele>
        <time>2018-07-29T12:58:29Z</time>
      </trkpt>
      <trkpt lat="40.519950" lon="-5.152217">
        <ele>2026.0</ele>
        <time>2018-07-29T12:58:30Z</time>
      </trkpt>
      <trkpt lat="40.519983" lon="-5.152067">
        <ele>2026.0</ele>
        <time>2018-07-29T12:58:31Z</time>
      </trkpt>
      <trkpt lat="40.520017" lon="-5.151917">
        <ele>2026.0</ele>
        <time>2018-07-29T12:58:32Z</time>
      </trkpt>
      <trkpt lat="40.520050" lon="-5.151783">
        <ele>2025.0</ele>
        <time>2018-07-29T12:58:33Z</time>
      </trkpt>
      <trkpt lat="40.520083" lon="-5.151633">
        <ele>2024.0</ele>
        <time>2018-07-29T12:58:34Z</time>
      </trkpt>
      <trkpt lat="40.520133" lon="-5.151483">
        <ele>2023.0</ele>
        <time>2018-07-29T12:58:35Z</time>
      </trkpt>
      <trkpt lat="40.520167" lon="-5.151333">
        <ele>2022.0</ele>
        <time>2018-07-29T12:58:36Z</time>
      </trkpt>
      <trkpt lat="40.520217" lon="-5.151183">
        <ele>2021.0</ele>
        <time>2018-07-29T12:58:37Z</time>
      </trkpt>
      <trkpt lat="40.520267" lon="-5.151033">
        <ele>2020.0</ele>
        <time>2018-07-29T12:58:38Z</time>
      </trkpt>
      <trkpt lat="40.520317" lon="-5.150883">
        <ele>2019.0</ele>
        <time>2018-07-29T12:58:39Z</time>
      </trkpt>
      <trkpt lat="40.520367" lon="-5.150717">
        <ele>2019.0</ele>
        <time>2018-07-29T12:58:40Z</time>
      </trkpt>
      <trkpt lat="40.520417" lon="-5.150567">
        <ele>2019.0</ele>
        <time>2018-07-29T12:58:41Z</time>
      </trkpt>
      <trkpt lat="40.520467" lon="-5.150400">
        <ele>2019.0</ele>
        <time>2018-07-29T12:58:42Z</time>
      </trkpt>
      <trkpt lat="40.520533" lon="-5.150250">
        <ele>2020.0</ele>
        <time>2018-07-29T12:58:43Z</time>
      </trkpt>
      <trkpt lat="40.520600" lon="-5.150117">
        <ele>2021.0</ele>
        <time>2018-07-29T12:58:44Z</time>
      </trkpt>
      <trkpt lat="40.520667" lon="-5.149983">
        <ele>2022.0</ele>
        <time>2018-07-29T12:58:45Z</time>
      </trkpt>
      <trkpt lat="40.520733" lon="-5.149850">
        <ele>2022.0</ele>
        <time>2018-07-29T12:58:46Z</time>
      </trkpt>
      <trkpt lat="40.520783" lon="-5.149717">
        <ele>2023.0</ele>
        <time>2018-07-29T12:58:47Z</time>
      </trkpt>
      <trkpt lat="40.520817" lon="-5.149583">
        <ele>2023.0</ele>
        <time>2018-07-29T12:58:48Z</time>
      </trkpt>
      <trkpt lat="40.520850" lon="-5.149417">
        <ele>2022.0</ele>
        <time>2018-07-29T12:58:49Z</time>
      </trkpt>
      <trkpt lat="40.520867" lon="-5.149250">
        <ele>2022.0</ele>
        <time>2018-07-29T12:58:50Z</time>
      </trkpt>
      <trkpt lat="40.520867" lon="-5.149067">
        <ele>2023.0</ele>
        <time>2018-07-29T12:58:51Z</time>
      </trkpt>
      <trkpt lat="40.520883" lon="-5.148883">
        <ele>2026.0</ele>
        <time>2018-07-29T12:58:52Z</time>
      </trkpt>
      <trkpt lat="40.520900" lon="-5.148717">
        <ele>2029.0</ele>
        <time>2018-07-29T12:58:53Z</time>
      </trkpt>
      <trkpt lat="40.520900" lon="-5.148567">
        <ele>2032.0</ele>
        <time>2018-07-29T12:58:54Z</time>
      </trkpt>
      <trkpt lat="40.520917" lon="-5.148417">
        <ele>2035.0</ele>
        <time>2018-07-29T12:58:55Z</time>
      </trkpt>
      <trkpt lat="40.520883" lon="-5.148283">
        <ele>2036.0</ele>
        <time>2018-07-29T12:58:56Z</time>
      </trkpt>
      <trkpt lat="40.520833" lon="-5.148150">
        <ele>2036.0</ele>
        <time>2018-07-29T12:58:57Z</time>
      </trkpt>
      <trkpt lat="40.520767" lon="-5.148033">
        <ele>2037.0</ele>
        <time>2018-07-29T12:58:58Z</time>
      </trkpt>
      <trkpt lat="40.520667" lon="-5.147950">
        <ele>2038.0</ele>
        <time>2018-07-29T12:58:59Z</time>
      </trkpt>
      <trkpt lat="40.520583" lon="-5.147900">
        <ele>2040.0</ele>
        <time>2018-07-29T12:59:00Z</time>
      </trkpt>
      <trkpt lat="40.520483" lon="-5.147900">
        <ele>2041.0</ele>
        <time>2018-07-29T12:59:01Z</time>
      </trkpt>
      <trkpt lat="40.520433" lon="-5.147950">
        <ele>2041.0</ele>
        <time>2018-07-29T12:59:02Z</time>
      </trkpt>
      <trkpt lat="40.520383" lon="-5.148017">
        <ele>2039.0</ele>
        <time>2018-07-29T12:59:03Z</time>
      </trkpt>
      <trkpt lat="40.520367" lon="-5.148100">
        <ele>2039.0</ele>
        <time>2018-07-29T12:59:04Z</time>
      </trkpt>
      <trkpt lat="40.520383" lon="-5.148183">
        <ele>2039.0</ele>
        <time>2018-07-29T12:59:05Z</time>
      </trkpt>
      <trkpt lat="40.520417" lon="-5.148250">
        <ele>2038.0</ele>
        <time>2018-07-29T12:59:06Z</time>
      </trkpt>
      <trkpt lat="40.520483" lon="-5.148317">
        <ele>2037.0</ele>
        <time>2018-07-29T12:59:07Z</time>
      </trkpt>
      <trkpt lat="40.520567" lon="-5.148333">
        <ele>2036.0</ele>
        <time>2018-07-29T12:59:08Z</time>
      </trkpt>
      <trkpt lat="40.520667" lon="-5.148350">
        <ele>2035.0</ele>
        <time>2018-07-29T12:59:09Z</time>
      </trkpt>
      <trkpt lat="40.520767" lon="-5.148333">
        <ele>2036.0</ele>
        <time>2018-07-29T12:59:10Z</time>
      </trkpt>
      <trkpt lat="40.520867" lon="-5.148300">
        <ele>2038.0</ele>
        <time>2018-07-29T12:59:11Z</time>
      </trkpt>
      <trkpt lat="40.520967" lon="-5.148250">
        <ele>2040.0</ele>
        <time>2018-07-29T12:59:12Z</time>
      </trkpt>
      <trkpt lat="40.521050" lon="-5.148167">
        <ele>2042.0</ele>
        <time>2018-07-29T12:59:13Z</time>
      </trkpt>
      <trkpt lat="40.521133" lon="-5.148083">
        <ele>2044.0</ele>
        <time>2018-07-29T12:59:14Z</time>
      </trkpt>
      <trkpt lat="40.521200" lon="-5.148017">
        <ele>2044.0</ele>
        <time>2018-07-29T12:59:15Z</time>
      </trkpt>
      <trkpt lat="40.521283" lon="-5.147933">
        <ele>2044.0</ele>
        <time>2018-07-29T12:59:16Z</time>
      </trkpt>
      <trkpt lat="40.521367" lon="-5.147833">
        <ele>2044.0</ele>
        <time>2018-07-29T12:59:17Z</time>
      </trkpt>
      <trkpt lat="40.521450" lon="-5.147717">
        <ele>2045.0</ele>
        <time>2018-07-29T12:59:18Z</time>
      </trkpt>
      <trkpt lat="40.521533" lon="-5.147600">
        <ele>2047.0</ele>
        <time>2018-07-29T12:59:19Z</time>
      </trkpt>
      <trkpt lat="40.521583" lon="-5.147500">
        <ele>2049.0</ele>
        <time>2018-07-29T12:59:20Z</time>
      </trkpt>
      <trkpt lat="40.521650" lon="-5.147417">
        <ele>2049.0</ele>
        <time>2018-07-29T12:59:21Z</time>
      </trkpt>
      <trkpt lat="40.521733" lon="-5.147317">
        <ele>2048.0</ele>
        <time>2018-07-29T12:59:22Z</time>
      </trkpt>
      <trkpt lat="40.521800" lon="-5.147183">
        <ele>2047.0</ele>
        <time>2018-07-29T12:59:23Z</time>
      </trkpt>
      <trkpt lat="40.521883" lon="-5.147050">
        <ele>2048.0</ele>
        <time>2018-07-29T12:59:24Z</time>
      </trkpt>
      <trkpt lat="40.521933" lon="-5.146900">
        <ele>2052.0</ele>
        <time>2018-07-29T12:59:25Z</time>
      </trkpt>
      <trkpt lat="40.521983" lon="-5.146800">
        <ele>2058.0</ele>
        <time>2018-07-29T12:59:26Z</time>
      </trkpt>
      <trkpt lat="40.522033" lon="-5.146700">
        <ele>2061.0</ele>
        <time>2018-07-29T12:59:27Z</time>
      </trkpt>
      <trkpt lat="40.522083" lon="-5.146600">
        <ele>2062.0</ele>
        <time>2018-07-29T12:59:28Z</time>
      </trkpt>
      <trkpt lat="40.522133" lon="-5.146500">
        <ele>2061.0</ele>
        <time>2018-07-29T12:59:29Z</time>
      </trkpt>
      <trkpt lat="40.522200" lon="-5.146383">
        <ele>2060.0</ele>
        <time>2018-07-29T12:59:30Z</time>
      </trkpt>
      <trkpt lat="40.522300" lon="-5.146267">
        <ele>2060.0</ele>
        <time>2018-07-29T12:59:31Z</time>
      </trkpt>
      <trkpt lat="40.522417" lon="-5.146167">
        <ele>2061.0</ele>
        <time>2018-07-29T12:59:32Z</time>
      </trkpt>
      <trkpt lat="40.522550" lon="-5.146083">
        <ele>2062.0</ele>
        <time>2018-07-29T12:59:33Z</time>
      </trkpt>
      <trkpt lat="40.522667" lon="-5.146017">
        <ele>2065.0</ele>
        <time>2018-07-29T12:59:34Z</time>
      </trkpt>
      <trkpt lat="40.522783" lon="-5.145967">
        <ele>2067.0</ele>
        <time>2018-07-29T12:59:35Z</time>
      </trkpt>
      <trkpt lat="40.522900" lon="-5.145950">
        <ele>2068.0</ele>
        <time>2018-07-29T12:59:36Z</time>
      </trkpt>
      <trkpt lat="40.523017" lon="-5.145967">
        <ele>2069.0</ele>
        <time>2018-07-29T12:59:37Z</time>
      </trkpt>
      <trkpt lat="40.523117" lon="-5.146017">
        <ele>2070.0</ele>
        <time>2018-07-29T12:59:38Z</time>
      </trkpt>
      <trkpt lat="40.523167" lon="-5.146117">
        <ele>2071.0</ele>
        <time>2018-07-29T12:59:39Z</time>
      </trkpt>
      <trkpt lat="40.523183" lon="-5.146200">
        <ele>2071.0</ele>
        <time>2018-07-29T12:59:40Z</time>
      </trkpt>
      <trkpt lat="40.523167" lon="-5.146283">
        <ele>2072.0</ele>
        <time>2018-07-29T12:59:41Z</time>
      </trkpt>
      <trkpt lat="40.523117" lon="-5.146317">
        <ele>2075.0</ele>
        <time>2018-07-29T12:59:42Z</time>
      </trkpt>
      <trkpt lat="40.523050" lon="-5.146300">
        <ele>2078.0</ele>
        <time>2018-07-29T12:59:43Z</time>
      </trkpt>
      <trkpt lat="40.523000" lon="-5.146233">
        <ele>2082.0</ele>
        <time>2018-07-29T12:59:44Z</time>
      </trkpt>
      <trkpt lat="40.522950" lon="-5.146133">
        <ele>2083.0</ele>
        <time>2018-07-29T12:59:45Z</time>
      </trkpt>
      <trkpt lat="40.522917" lon="-5.146000">
        <ele>2085.0</ele>
        <time>2018-07-29T12:59:46Z</time>
      </trkpt>
      <trkpt lat="40.522867" lon="-5.145867">
        <ele>2086.0</ele>
        <time>2018-07-29T12:59:47Z</time>
      </trkpt>
      <trkpt lat="40.522817" lon="-5.145717">
        <ele>2089.0</ele>
        <time>2018-07-29T12:59:48Z</time>
      </trkpt>
      <trkpt lat="40.522783" lon="-5.145583">
        <ele>2092.0</ele>
        <time>2018-07-29T12:59:49Z</time>
      </trkpt>
      <trkpt lat="40.522783" lon="-5.145450">
        <ele>2095.0</ele>
        <time>2018-07-29T12:59:50Z</time>
      </trkpt>
      <trkpt lat="40.522817" lon="-5.145300">
        <ele>2097.0</ele>
        <time>2018-07-29T12:59:51Z</time>
      </trkpt>
      <trkpt lat="40.522883" lon="-5.145167">
        <ele>2099.0</ele>
        <time>2018-07-29T12:59:52Z</time>
      </trkpt>
      <trkpt lat="40.522967" lon="-5.145033">
        <ele>2100.0</ele>
        <time>2018-07-29T12:59:53Z</time>
      </trkpt>
      <trkpt lat="40.523083" lon="-5.144933">
        <ele>2102.0</ele>
        <time>2018-07-29T12:59:54Z</time>
      </trkpt>
      <trkpt lat="40.523200" lon="-5.144883">
        <ele>2103.0</ele>
        <time>2018-07-29T12:59:55Z</time>
      </trkpt>
      <trkpt lat="40.523317" lon="-5.144900">
        <ele>2105.0</ele>
        <time>2018-07-29T12:59:56Z</time>
      </trkpt>
      <trkpt lat="40.523417" lon="-5.144967">
        <ele>2106.0</ele>
        <time>2018-07-29T12:59:57Z</time>
      </trkpt>
      <trkpt lat="40.523450" lon="-5.145067">
        <ele>2108.0</ele>
        <time>2018-07-29T12:59:58Z</time>
      </trkpt>
      <trkpt lat="40.523467" lon="-5.145150">
        <ele>2109.0</ele>
        <time>2018-07-29T12:59:59Z</time>
      </trkpt>
      <trkpt lat="40.523433" lon="-5.145217">
        <ele>2110.0</ele>
        <time>2018-07-29T13:00:00Z</time>
      </trkpt>
      <trkpt lat="40.523367" lon="-5.145250">
        <ele>2110.0</ele>
        <time>2018-07-29T13:00:01Z</time>
      </trkpt>
      <trkpt lat="40.523300" lon="-5.145250">
        <ele>2110.0</ele>
        <time>2018-07-29T13:00:02Z</time>
      </trkpt>
      <trkpt lat="40.523217" lon="-5.145233">
        <ele>2112.0</ele>
        <time>2018-07-29T13:00:03Z</time>
      </trkpt>
      <trkpt lat="40.523150" lon="-5.145183">
        <ele>2113.0</ele>
        <time>2018-07-29T13:00:04Z</time>
      </trkpt>
      <trkpt lat="40.523083" lon="-5.145117">
        <ele>2115.0</ele>
        <time>2018-07-29T13:00:05Z</time>
      </trkpt>
      <trkpt lat="40.523033" lon="-5.145017">
        <ele>2115.0</ele>
        <time>2018-07-29T13:00:06Z</time>
      </trkpt>
      <trkpt lat="40.523000" lon="-5.144867">
        <ele>2116.0</ele>
        <time>2018-07-29T13:00:07Z</time>
      </trkpt>
      <trkpt lat="40.522983" lon="-5.144700">
        <ele>2116.0</ele>
        <time>2018-07-29T13:00:08Z</time>
      </trkpt>
      <trkpt lat="40.523000" lon="-5.144533">
        <ele>2118.0</ele>
        <time>2018-07-29T13:00:09Z</time>
      </trkpt>
      <trkpt lat="40.523033" lon="-5.144367">
        <ele>2122.0</ele>
        <time>2018-07-29T13:00:10Z</time>
      </trkpt>
      <trkpt lat="40.523083" lon="-5.144200">
        <ele>2126.0</ele>
        <time>2018-07-29T13:00:11Z</time>
      </trkpt>
      <trkpt lat="40.523150" lon="-5.144067">
        <ele>2131.0</ele>
        <time>2018-07-29T13:00:12Z</time>
      </trkpt>
      <trkpt lat="40.523233" lon="-5.143950">
        <ele>2134.0</ele>
        <time>2018-07-29T13:00:13Z</time>
      </trkpt>
      <trkpt lat="40.523300" lon="-5.143833">
        <ele>2136.0</ele>
        <time>2018-07-29T13:00:14Z</time>
      </trkpt>
      <trkpt lat="40.523400" lon="-5.143733">
        <ele>2137.0</ele>
        <time>2018-07-29T13:00:15Z</time>
      </trkpt>
      <trkpt lat="40.523517" lon="-5.143633">
        <ele>2138.0</ele>
        <time>2018-07-29T13:00:16Z</time>
      </trkpt>
      <trkpt lat="40.523650" lon="-5.143583">
        <ele>2140.0</ele>
        <time>2018-07-29T13:00:17Z</time>
      </trkpt>
      <trkpt lat="40.523767" lon="-5.143617">
        <ele>2142.0</ele>
        <time>2018-07-29T13:00:18Z</time>
      </trkpt>
      <trkpt lat="40.523850" lon="-5.143683">
        <ele>2143.0</ele>
        <time>2018-07-29T13:00:19Z</time>
      </trkpt>
      <trkpt lat="40.523900" lon="-5.143800">
        <ele>2144.0</ele>
        <time>2018-07-29T13:00:20Z</time>
      </trkpt>
      <trkpt lat="40.523883" lon="-5.143900">
        <ele>2145.0</ele>
        <time>2018-07-29T13:00:21Z</time>
      </trkpt>
      <trkpt lat="40.523833" lon="-5.143983">
        <ele>2147.0</ele>
        <time>2018-07-29T13:00:22Z</time>
      </trkpt>
      <trkpt lat="40.523750" lon="-5.144000">
        <ele>2148.0</ele>
        <time>2018-07-29T13:00:23Z</time>
      </trkpt>
      <trkpt lat="40.523667" lon="-5.143967">
        <ele>2149.0</ele>
        <time>2018-07-29T13:00:24Z</time>
      </trkpt>
      <trkpt lat="40.523583" lon="-5.143883">
        <ele>2149.0</ele>
        <time>2018-07-29T13:00:25Z</time>
      </trkpt>
      <trkpt lat="40.523517" lon="-5.143767">
        <ele>2151.0</ele>
        <time>2018-07-29T13:00:26Z</time>
      </trkpt>
      <trkpt lat="40.523483" lon="-5.143617">
        <ele>2154.0</ele>
        <time>2018-07-29T13:00:27Z</time>
      </trkpt>
      <trkpt lat="40.523450" lon="-5.143467">
        <ele>2158.0</ele>
        <time>2018-07-29T13:00:28Z</time>
      </trkpt>
      <trkpt lat="40.523450" lon="-5.143333">
        <ele>2161.0</ele>
        <time>2018-07-29T13:00:29Z</time>
      </trkpt>
      <trkpt lat="40.523450" lon="-5.143217">
        <ele>2162.0</ele>
        <time>2018-07-29T13:00:30Z</time>
      </trkpt>
      <trkpt lat="40.523467" lon="-5.143100">
        <ele>2161.0</ele>
        <time>2018-07-29T13:00:31Z</time>
      </trkpt>
      <trkpt lat="40.523500" lon="-5.142967">
        <ele>2160.0</ele>
        <time>2018-07-29T13:00:32Z</time>
      </trkpt>
      <trkpt lat="40.523550" lon="-5.142800">
        <ele>2159.0</ele>
        <time>2018-07-29T13:00:33Z</time>
      </trkpt>
      <trkpt lat="40.523633" lon="-5.142650">
        <ele>2160.0</ele>
        <time>2018-07-29T13:00:34Z</time>
      </trkpt>
      <trkpt lat="40.523750" lon="-5.142533">
        <ele>2161.0</ele>
        <time>2018-07-29T13:00:35Z</time>
      </trkpt>
      <trkpt lat="40.523883" lon="-5.142483">
        <ele>2162.0</ele>
        <time>2018-07-29T13:00:36Z</time>
      </trkpt>
      <trkpt lat="40.524017" lon="-5.142467">
        <ele>2164.0</ele>
        <time>2018-07-29T13:00:37Z</time>
      </trkpt>
      <trkpt lat="40.524133" lon="-5.142483">
        <ele>2166.0</ele>
        <time>2018-07-29T13:00:38Z</time>
      </trkpt>
      <trkpt lat="40.524233" lon="-5.142517">
        <ele>2168.0</ele>
        <time>2018-07-29T13:00:39Z</time>
      </trkpt>
      <trkpt lat="40.524317" lon="-5.142550">
        <ele>2170.0</ele>
        <time>2018-07-29T13:00:40Z</time>
      </trkpt>
      <trkpt lat="40.524400" lon="-5.142600">
        <ele>2172.0</ele>
        <time>2018-07-29T13:00:41Z</time>
      </trkpt>
      <trkpt lat="40.524467" lon="-5.142667">
        <ele>2173.0</ele>
        <time>2018-07-29T13:00:42Z</time>
      </trkpt>
      <trkpt lat="40.524517" lon="-5.142733">
        <ele>2173.0</ele>
        <time>2018-07-29T13:00:43Z</time>
      </trkpt>
      <trkpt lat="40.524550" lon="-5.142817">
        <ele>2174.0</ele>
        <time>2018-07-29T13:00:44Z</time>
      </trkpt>
      <trkpt lat="40.524567" lon="-5.142917">
        <ele>2175.0</ele>
        <time>2018-07-29T13:00:45Z</time>
      </trkpt>
      <trkpt lat="40.524567" lon="-5.143000">
        <ele>2175.0</ele>
        <time>2018-07-29T13:00:46Z</time>
      </trkpt>
      <trkpt lat="40.524517" lon="-5.143050">
        <ele>2175.0</ele>
        <time>2018-07-29T13:00:47Z</time>
      </trkpt>
      <trkpt lat="40.524467" lon="-5.143100">
        <ele>2175.0</ele>
        <time>2018-07-29T13:00:48Z</time>
      </trkpt>
      <trkpt lat="40.524383" lon="-5.143083">
        <ele>2176.0</ele>
        <time>2018-07-29T13:00:49Z</time>
      </trkpt>
      <trkpt lat="40.524317" lon="-5.143050">
        <ele>2176.0</ele>
        <time>2018-07-29T13:00:50Z</time>
      </trkpt>
      <trkpt lat="40.524250" lon="-5.142967">
        <ele>2178.0</ele>
        <time>2018-07-29T13:00:51Z</time>
      </trkpt>
      <trkpt lat="40.524200" lon="-5.142850">
        <ele>2179.0</ele>
        <time>2018-07-29T13:00:52Z</time>
      </trkpt>
      <trkpt lat="40.524150" lon="-5.142700">
        <ele>2179.0</ele>
        <time>2018-07-29T13:00:53Z</time>
      </trkpt>
      <trkpt lat="40.524133" lon="-5.142550">
        <ele>2180.0</ele>
        <time>2018-07-29T13:00:54Z</time>
      </trkpt>
      <trkpt lat="40.524133" lon="-5.142383">
        <ele>2182.0</ele>
        <time>2018-07-29T13:00:55Z</time>
      </trkpt>
      <trkpt lat="40.524167" lon="-5.142217">
        <ele>2183.0</ele>
        <time>2018-07-29T13:00:56Z</time>
      </trkpt>
      <trkpt lat="40.524217" lon="-5.142067">
        <ele>2184.0</ele>
        <time>2018-07-29T13:00:57Z</time>
      </trkpt>
      <trkpt lat="40.524300" lon="-5.141917">
        <ele>2184.0</ele>
        <time>2018-07-29T13:00:58Z</time>
      </trkpt>
      <trkpt lat="40.524400" lon="-5.141783">
        <ele>2184.0</ele>
        <time>2018-07-29T13:00:59Z</time>
      </trkpt>
      <trkpt lat="40.524517" lon="-5.141683">
        <ele>2185.0</ele>
        <time>2018-07-29T13:01:00Z</time>
      </trkpt>
      <trkpt lat="40.524633" lon="-5.141600">
        <ele>2187.0</ele>
        <time>2018-07-29T13:01:01Z</time>
      </trkpt>
      <trkpt lat="40.524750" lon="-5.141567">
        <ele>2189.0</ele>
        <time>2018-07-29T13:01:02Z</time>
      </trkpt>
      <trkpt lat="40.524850" lon="-5.141550">
        <ele>2190.0</ele>
        <time>2018-07-29T13:01:03Z</time>
      </trkpt>
      <trkpt lat="40.524950" lon="-5.141567">
        <ele>2191.0</ele>
        <time>2018-07-29T13:01:04Z</time>
      </trkpt>
      <trkpt lat="40.525050" lon="-5.141617">
        <ele>2192.0</ele>
        <time>2018-07-29T13:01:05Z</time>
      </trkpt>
      <trkpt lat="40.525117" lon="-5.141683">
        <ele>2193.0</ele>
        <time>2018-07-29T13:01:06Z</time>
      </trkpt>
      <trkpt lat="40.525167" lon="-5.141767">
        <ele>2194.0</ele>
        <time>2018-07-29T13:01:07Z</time>
      </trkpt>
      <trkpt lat="40.525183" lon="-5.141850">
        <ele>2194.0</ele>
        <time>2018-07-29T13:01:08Z</time>
      </trkpt>
      <trkpt lat="40.525167" lon="-5.141917">
        <ele>2194.0</ele>
        <time>2018-07-29T13:01:09Z</time>
      </trkpt>
      <trkpt lat="40.525117" lon="-5.141950">
        <ele>2195.0</ele>
        <time>2018-07-29T13:01:10Z</time>
      </trkpt>
      <trkpt lat="40.525067" lon="-5.141950">
        <ele>2195.0</ele>
        <time>2018-07-29T13:01:11Z</time>
      </trkpt>
      <trkpt lat="40.525000" lon="-5.141917">
        <ele>2194.0</ele>
        <time>2018-07-29T13:01:12Z</time>
      </trkpt>
      <trkpt lat="40.524933" lon="-5.141833">
        <ele>2193.0</ele>
        <time>2018-07-29T13:01:13Z</time>
      </trkpt>
      <trkpt lat="40.524883" lon="-5.141700">
        <ele>2192.0</ele>
        <time>2018-07-29T13:01:14Z</time>
      </trkpt>
      <trkpt lat="40.524850" lon="-5.141550">
        <ele>2192.0</ele>
        <time>2018-07-29T13:01:15Z</time>
      </trkpt>
      <trkpt lat="40.524833" lon="-5.141367">
        <ele>2193.0</ele>
        <time>2018-07-29T13:01:16Z</time>
      </trkpt>
      <trkpt lat="40.524833" lon="-5.141183">
        <ele>2195.0</ele>
        <time>2018-07-29T13:01:17Z</time>
      </trkpt>
      <trkpt lat="40.524833" lon="-5.141000">
        <ele>2197.0</ele>
        <time>2018-07-29T13:01:18Z</time>
      </trkpt>
      <trkpt lat="40.524833" lon="-5.140833">
        <ele>2198.0</ele>
        <time>2018-07-29T13:01:19Z</time>
      </trkpt>
      <trkpt lat="40.524833" lon="-5.140667">
        <ele>2199.0</ele>
        <time>2018-07-29T13:01:20Z</time>
      </trkpt>
      <trkpt lat="40.524817" lon="-5.140500">
        <ele>2200.0</ele>
        <time>2018-07-29T13:01:21Z</time>
      </trkpt>
      <trkpt lat="40.524800" lon="-5.140333">
        <ele>2201.0</ele>
        <time>2018-07-29T13:01:22Z</time>
      </trkpt>
      <trkpt lat="40.524800" lon="-5.140167">
        <ele>2202.0</ele>
        <time>2018-07-29T13:01:23Z</time>
      </trkpt>
      <trkpt lat="40.524783" lon="-5.140000">
        <ele>2203.0</ele>
        <time>2018-07-29T13:01:24Z</time>
      </trkpt>
      <trkpt lat="40.524767" lon="-5.139850">
        <ele>2204.0</ele>
        <time>2018-07-29T13:01:25Z</time>
      </trkpt>
      <trkpt lat="40.524733" lon="-5.139700">
        <ele>2206.0</ele>
        <time>2018-07-29T13:01:26Z</time>
      </trkpt>
      <trkpt lat="40.524717" lon="-5.139550">
        <ele>2207.0</ele>
        <time>2018-07-29T13:01:27Z</time>
      </trkpt>
      <trkpt lat="40.524700" lon="-5.139383">
        <ele>2209.0</ele>
        <time>2018-07-29T13:01:28Z</time>
      </trkpt>
      <trkpt lat="40.524700" lon="-5.139233">
        <ele>2211.0</ele>
        <time>2018-07-29T13:01:29Z</time>
      </trkpt>
      <trkpt lat="40.524700" lon="-5.139083">
        <ele>2213.0</ele>
        <time>2018-07-29T13:01:30Z</time>
      </trkpt>
      <trkpt lat="40.524717" lon="-5.138933">
        <ele>2213.0</ele>
        <time>2018-07-29T13:01:31Z</time>
      </trkpt>
      <trkpt lat="40.524767" lon="-5.138783">
        <ele>2212.0</ele>
        <time>2018-07-29T13:01:32Z</time>
      </trkpt>
      <trkpt lat="40.524833" lon="-5.138650">
        <ele>2211.0</ele>
        <time>2018-07-29T13:01:33Z</time>
      </trkpt>
      <trkpt lat="40.524917" lon="-5.138533">
        <ele>2210.0</ele>
        <time>2018-07-29T13:01:34Z</time>
      </trkpt>
      <trkpt lat="40.525017" lon="-5.138417">
        <ele>2211.0</ele>
        <time>2018-07-29T13:01:35Z</time>
      </trkpt>
      <trkpt lat="40.525100" lon="-5.138283">
        <ele>2212.0</ele>
        <time>2018-07-29T13:01:36Z</time>
      </trkpt>
      <trkpt lat="40.525167" lon="-5.138133">
        <ele>2212.0</ele>
        <time>2018-07-29T13:01:37Z</time>
      </trkpt>
      <trkpt lat="40.525217" lon="-5.137950">
        <ele>2213.0</ele>
        <time>2018-07-29T13:01:38Z</time>
      </trkpt>
      <trkpt lat="40.525267" lon="-5.137767">
        <ele>2213.0</ele>
        <time>2018-07-29T13:01:39Z</time>
      </trkpt>
      <trkpt lat="40.525317" lon="-5.137567">
        <ele>2215.0</ele>
        <time>2018-07-29T13:01:40Z</time>
      </trkpt>
      <trkpt lat="40.525350" lon="-5.137383">
        <ele>2217.0</ele>
        <time>2018-07-29T13:01:41Z</time>
      </trkpt>
      <trkpt lat="40.525333" lon="-5.137183">
        <ele>2218.0</ele>
        <time>2018-07-29T13:01:42Z</time>
      </trkpt>
      <trkpt lat="40.525317" lon="-5.136983">
        <ele>2219.0</ele>
        <time>2018-07-29T13:01:43Z</time>
      </trkpt>
      <trkpt lat="40.525283" lon="-5.136800">
        <ele>2219.0</ele>
        <time>2018-07-29T13:01:44Z</time>
      </trkpt>
      <trkpt lat="40.525250" lon="-5.136600">
        <ele>2221.0</ele>
        <time>2018-07-29T13:01:45Z</time>
      </trkpt>
      <trkpt lat="40.525200" lon="-5.136433">
        <ele>2223.0</ele>
        <time>2018-07-29T13:01:46Z</time>
      </trkpt>
      <trkpt lat="40.525150" lon="-5.136283">
        <ele>2224.0</ele>
        <time>2018-07-29T13:01:47Z</time>
      </trkpt>
      <trkpt lat="40.525083" lon="-5.136150">
        <ele>2224.0</ele>
        <time>2018-07-29T13:01:48Z</time>
      </trkpt>
      <trkpt lat="40.525000" lon="-5.136017">
        <ele>2225.0</ele>
        <time>2018-07-29T13:01:49Z</time>
      </trkpt>
      <trkpt lat="40.524900" lon="-5.135900">
        <ele>2228.0</ele>
        <time>2018-07-29T13:01:50Z</time>
      </trkpt>
      <trkpt lat="40.524800" lon="-5.135833">
        <ele>2229.0</ele>
        <time>2018-07-29T13:01:51Z</time>
      </trkpt>
      <trkpt lat="40.524717" lon="-5.135800">
        <ele>2230.0</ele>
        <time>2018-07-29T13:01:52Z</time>
      </trkpt>
      <trkpt lat="40.524617" lon="-5.135800">
        <ele>2231.0</ele>
        <time>2018-07-29T13:01:53Z</time>
      </trkpt>
      <trkpt lat="40.524550" lon="-5.135833">
        <ele>2232.0</ele>
        <time>2018-07-29T13:01:54Z</time>
      </trkpt>
      <trkpt lat="40.524517" lon="-5.135900">
        <ele>2232.0</ele>
        <time>2018-07-29T13:01:55Z</time>
      </trkpt>
      <trkpt lat="40.524517" lon="-5.135983">
        <ele>2232.0</ele>
        <time>2018-07-29T13:01:56Z</time>
      </trkpt>
      <trkpt lat="40.524533" lon="-5.136050">
        <ele>2233.0</ele>
        <time>2018-07-29T13:01:57Z</time>
      </trkpt>
      <trkpt lat="40.524583" lon="-5.136100">
        <ele>2235.0</ele>
        <time>2018-07-29T13:01:58Z</time>
      </trkpt>
      <trkpt lat="40.524650" lon="-5.136117">
        <ele>2236.0</ele>
        <time>2018-07-29T13:01:59Z</time>
      </trkpt>
      <trkpt lat="40.524733" lon="-5.136117">
        <ele>2238.0</ele>
        <time>2018-07-29T13:02:00Z</time>
      </trkpt>
      <trkpt lat="40.524817" lon="-5.136117">
        <ele>2239.0</ele>
        <time>2018-07-29T13:02:01Z</time>
      </trkpt>
      <trkpt lat="40.524900" lon="-5.136083">
        <ele>2241.0</ele>
        <time>2018-07-29T13:02:02Z</time>
      </trkpt>
      <trkpt lat="40.525000" lon="-5.136050">
        <ele>2243.0</ele>
        <time>2018-07-29T13:02:03Z</time>
      </trkpt>
      <trkpt lat="40.525100" lon="-5.135983">
        <ele>2245.0</ele>
        <time>2018-07-29T13:02:04Z</time>
      </trkpt>
      <trkpt lat="40.525200" lon="-5.135900">
        <ele>2246.0</ele>
        <time>2018-07-29T13:02:05Z</time>
      </trkpt>
      <trkpt lat="40.525300" lon="-5.135817">
        <ele>2247.0</ele>
        <time>2018-07-29T13:02:06Z</time>
      </trkpt>
      <trkpt lat="40.525383" lon="-5.135683">
        <ele>2248.0</ele>
        <time>2018-07-29T13:02:07Z</time>
      </trkpt>
      <trkpt lat="40.525467" lon="-5.135533">
        <ele>2249.0</ele>
        <time>2018-07-29T13:02:08Z</time>
      </trkpt>
      <trkpt lat="40.525533" lon="-5.135383">
        <ele>2250.0</ele>
        <time>2018-07-29T13:02:09Z</time>
      </trkpt>
      <trkpt lat="40.525600" lon="-5.135200">
        <ele>2251.0</ele>
        <time>2018-07-29T13:02:10Z</time>
      </trkpt>
      <trkpt lat="40.525650" lon="-5.135000">
        <ele>2252.0</ele>
        <time>2018-07-29T13:02:11Z</time>
      </trkpt>
      <trkpt lat="40.525683" lon="-5.134800">
        <ele>2252.0</ele>
        <time>2018-07-29T13:02:12Z</time>
      </trkpt>
      <trkpt lat="40.525683" lon="-5.134600">
        <ele>2253.0</ele>
        <time>2018-07-29T13:02:13Z</time>
      </trkpt>
      <trkpt lat="40.525650" lon="-5.134400">
        <ele>2254.0</ele>
        <time>2018-07-29T13:02:14Z</time>
      </trkpt>
      <trkpt lat="40.525600" lon="-5.134217">
        <ele>2256.0</ele>
        <time>2018-07-29T13:02:15Z</time>
      </trkpt>
      <trkpt lat="40.525550" lon="-5.134050">
        <ele>2259.0</ele>
        <time>2018-07-29T13:02:16Z</time>
      </trkpt>
      <trkpt lat="40.525500" lon="-5.133917">
        <ele>2261.0</ele>
        <time>2018-07-29T13:02:17Z</time>
      </trkpt>
      <trkpt lat="40.525450" lon="-5.133817">
        <ele>2263.0</ele>
        <time>2018-07-29T13:02:18Z</time>
      </trkpt>
      <trkpt lat="40.525383" lon="-5.133733">
        <ele>2263.0</ele>
        <time>2018-07-29T13:02:19Z</time>
      </trkpt>
      <trkpt lat="40.525300" lon="-5.133683">
        <ele>2262.0</ele>
        <time>2018-07-29T13:02:20Z</time>
      </trkpt>
      <trkpt lat="40.525217" lon="-5.133633">
        <ele>2261.0</ele>
        <time>2018-07-29T13:02:21Z</time>
      </trkpt>
      <trkpt lat="40.525133" lon="-5.133600">
        <ele>2261.0</ele>
        <time>2018-07-29T13:02:22Z</time>
      </trkpt>
      <trkpt lat="40.525050" lon="-5.133600">
        <ele>2261.0</ele>
        <time>2018-07-29T13:02:23Z</time>
      </trkpt>
      <trkpt lat="40.524983" lon="-5.133600">
        <ele>2262.0</ele>
        <time>2018-07-29T13:02:24Z</time>
      </trkpt>
      <trkpt lat="40.524933" lon="-5.133633">
        <ele>2262.0</ele>
        <time>2018-07-29T13:02:25Z</time>
      </trkpt>
      <trkpt lat="40.524900" lon="-5.133700">
        <ele>2261.0</ele>
        <time>2018-07-29T13:02:26Z</time>
      </trkpt>
      <trkpt lat="40.524883" lon="-5.133767">
        <ele>2261.0</ele>
        <time>2018-07-29T13:02:27Z</time>
      </trkpt>
      <trkpt lat="40.524900" lon="-5.133833">
        <ele>2261.0</ele>
        <time>2018-07-29T13:02:28Z</time>
      </trkpt>
      <trkpt lat="40.524933" lon="-5.133900">
        <ele>2262.0</ele>
        <time>2018-07-29T13:02:29Z</time>
      </trkpt>
      <trkpt lat="40.524983" lon="-5.133950">
        <ele>2262.0</ele>
        <time>2018-07-29T13:02:30Z</time>
      </trkpt>
      <trkpt lat="40.525067" lon="-5.133983">
        <ele>2262.0</ele>
        <time>2018-07-29T13:02:31Z</time>
      </trkpt>
      <trkpt lat="40.525167" lon="-5.134017">
        <ele>2263.0</ele>
        <time>2018-07-29T13:02:32Z</time>
      </trkpt>
      <trkpt lat="40.525267" lon="-5.134033">
        <ele>2264.0</ele>
        <time>2018-07-29T13:02:33Z</time>
      </trkpt>
      <trkpt lat="40.525383" lon="-5.134033">
        <ele>2265.0</ele>
        <time>2018-07-29T13:02:34Z</time>
      </trkpt>
      <trkpt lat="40.525483" lon="-5.134017">
        <ele>2268.0</ele>
        <time>2018-07-29T13:02:35Z</time>
      </trkpt>
      <trkpt lat="40.525600" lon="-5.133967">
        <ele>2271.0</ele>
        <time>2018-07-29T13:02:36Z</time>
      </trkpt>
      <trkpt lat="40.525717" lon="-5.133933">
        <ele>2275.0</ele>
        <time>2018-07-29T13:02:37Z</time>
      </trkpt>
      <trkpt lat="40.525817" lon="-5.133883">
        <ele>2277.0</ele>
        <time>2018-07-29T13:02:38Z</time>
      </trkpt>
      <trkpt lat="40.525917" lon="-5.133833">
        <ele>2278.0</ele>
        <time>2018-07-29T13:02:39Z</time>
      </trkpt>
      <trkpt lat="40.526017" lon="-5.133767">
        <ele>2279.0</ele>
        <time>2018-07-29T13:02:40Z</time>
      </trkpt>
      <trkpt lat="40.526133" lon="-5.133683">
        <ele>2278.0</ele>
        <time>2018-07-29T13:02:41Z</time>
      </trkpt>
      <trkpt lat="40.526233" lon="-5.133567">
        <ele>2278.0</ele>
        <time>2018-07-29T13:02:42Z</time>
      </trkpt>
      <trkpt lat="40.526333" lon="-5.133433">
        <ele>2279.0</ele>
        <time>2018-07-29T13:02:43Z</time>
      </trkpt>
      <trkpt lat="40.526417" lon="-5.133267">
        <ele>2280.0</ele>
        <time>2018-07-29T13:02:44Z</time>
      </trkpt>
      <trkpt lat="40.526483" lon="-5.133100">
        <ele>2279.0</ele>
        <time>2018-07-29T13:02:45Z</time>
      </trkpt>
      <trkpt lat="40.526550" lon="-5.132933">
        <ele>2279.0</ele>
        <time>2018-07-29T13:02:46Z</time>
      </trkpt>
      <trkpt lat="40.526600" lon="-5.132750">
        <ele>2279.0</ele>
        <time>2018-07-29T13:02:47Z</time>
      </trkpt>
      <trkpt lat="40.526650" lon="-5.132550">
        <ele>2278.0</ele>
        <time>2018-07-29T13:02:48Z</time>
      </trkpt>
      <trkpt lat="40.526683" lon="-5.132350">
        <ele>2278.0</ele>
        <time>2018-07-29T13:02:49Z</time>
      </trkpt>
      <trkpt lat="40.526700" lon="-5.132167">
        <ele>2278.0</ele>
        <time>2018-07-29T13:02:50Z</time>
      </trkpt>
      <trkpt lat="40.526683" lon="-5.131967">
        <ele>2277.0</ele>
        <time>2018-07-29T13:02:51Z</time>
      </trkpt>
      <trkpt lat="40.526650" lon="-5.131767">
        <ele>2278.0</ele>
        <time>2018-07-29T13:02:52Z</time>
      </trkpt>
      <trkpt lat="40.526617" lon="-5.131600">
        <ele>2279.0</ele>
        <time>2018-07-29T13:02:53Z</time>
      </trkpt>
      <trkpt lat="40.526583" lon="-5.131450">
        <ele>2280.0</ele>
        <time>2018-07-29T13:02:54Z</time>
      </trkpt>
      <trkpt lat="40.526533" lon="-5.131300">
        <ele>2280.0</ele>
        <time>2018-07-29T13:02:55Z</time>
      </trkpt>
      <trkpt lat="40.526467" lon="-5.131167">
        <ele>2281.0</ele>
        <time>2018-07-29T13:02:56Z</time>
      </trkpt>
      <trkpt lat="40.526400" lon="-5.131067">
        <ele>2282.0</ele>
        <time>2018-07-29T13:02:57Z</time>
      </trkpt>
      <trkpt lat="40.526333" lon="-5.130967">
        <ele>2283.0</ele>
        <time>2018-07-29T13:02:58Z</time>
      </trkpt>
      <trkpt lat="40.526250" lon="-5.130900">
        <ele>2283.0</ele>
        <time>2018-07-29T13:02:59Z</time>
      </trkpt>
      <trkpt lat="40.526183" lon="-5.130850">
        <ele>2284.0</ele>
        <time>2018-07-29T13:03:00Z</time>
      </trkpt>
      <trkpt lat="40.526100" lon="-5.130833">
        <ele>2285.0</ele>
        <time>2018-07-29T13:03:01Z</time>
      </trkpt>
      <trkpt lat="40.526017" lon="-5.130817">
        <ele>2286.0</ele>
        <time>2018-07-29T13:03:02Z</time>
      </trkpt>
      <trkpt lat="40.525933" lon="-5.130817">
        <ele>2288.0</ele>
        <time>2018-07-29T13:03:03Z</time>
      </trkpt>
      <trkpt lat="40.525867" lon="-5.130817">
        <ele>2290.0</ele>
        <time>2018-07-29T13:03:04Z</time>
      </trkpt>
      <trkpt lat="40.525817" lon="-5.130833">
        <ele>2291.0</ele>
        <time>2018-07-29T13:03:05Z</time>
      </trkpt>
      <trkpt lat="40.525783" lon="-5.130867">
        <ele>2291.0</ele>
        <time>2018-07-29T13:03:06Z</time>
      </trkpt>
      <trkpt lat="40.525750" lon="-5.130917">
        <ele>2289.0</ele>
        <time>2018-07-29T13:03:07Z</time>
      </trkpt>
      <trkpt lat="40.525717" lon="-5.130983">
        <ele>2287.0</ele>
        <time>2018-07-29T13:03:08Z</time>
      </trkpt>
      <trkpt lat="40.525717" lon="-5.131050">
        <ele>2286.0</ele>
        <time>2018-07-29T13:03:09Z</time>
      </trkpt>
      <trkpt lat="40.525733" lon="-5.131117">
        <ele>2285.0</ele>
        <time>2018-07-29T13:03:10Z</time>
      </trkpt>
      <trkpt lat="40.525783" lon="-5.131183">
        <ele>2284.0</ele>
        <time>2018-07-29T13:03:11Z</time>
      </trkpt>
      <trkpt lat="40.525833" lon="-5.131250">
        <ele>2285.0</ele>
        <time>2018-07-29T13:03:12Z</time>
      </trkpt>
      <trkpt lat="40.525900" lon="-5.131300">
        <ele>2287.0</ele>
        <time>2018-07-29T13:03:13Z</time>
      </trkpt>
      <trkpt lat="40.525967" lon="-5.131317">
        <ele>2289.0</ele>
        <time>2018-07-29T13:03:14Z</time>
      </trkpt>
      <trkpt lat="40.526050" lon="-5.131333">
        <ele>2290.0</ele>
        <time>2018-07-29T13:03:15Z</time>
      </trkpt>
      <trkpt lat="40.526133" lon="-5.131333">
        <ele>2291.0</ele>
        <time>2018-07-29T13:03:16Z</time>
      </trkpt>
      <trkpt lat="40.526217" lon="-5.131350">
        <ele>2291.0</ele>
        <time>2018-07-29T13:03:17Z</time>
      </trkpt>
      <trkpt lat="40.526317" lon="-5.131350">
        <ele>2292.0</ele>
        <time>2018-07-29T13:03:18Z</time>
      </trkpt>
      <trkpt lat="40.526417" lon="-5.131333">
        <ele>2292.0</ele>
        <time>2018-07-29T13:03:19Z</time>
      </trkpt>
      <trkpt lat="40.526517" lon="-5.131300">
        <ele>2293.0</ele>
        <time>2018-07-29T13:03:20Z</time>
      </trkpt>
      <trkpt lat="40.526633" lon="-5.131233">
        <ele>2293.0</ele>
        <time>2018-07-29T13:03:21Z</time>
      </trkpt>
      <trkpt lat="40.526750" lon="-5.131150">
        <ele>2293.0</ele>
        <time>2018-07-29T13:03:22Z</time>
      </trkpt>
      <trkpt lat="40.526867" lon="-5.131067">
        <ele>2294.0</ele>
        <time>2018-07-29T13:03:23Z</time>
      </trkpt>
      <trkpt lat="40.526983" lon="-5.130983">
        <ele>2295.0</ele>
        <time>2018-07-29T13:03:24Z</time>
      </trkpt>
      <trkpt lat="40.527100" lon="-5.130900">
        <ele>2296.0</ele>
        <time>2018-07-29T13:03:25Z</time>
      </trkpt>
      <trkpt lat="40.527217" lon="-5.130833">
        <ele>2297.0</ele>
        <time>2018-07-29T13:03:26Z</time>
      </trkpt>
      <trkpt lat="40.527350" lon="-5.130767">
        <ele>2298.0</ele>
        <time>2018-07-29T13:03:27Z</time>
      </trkpt>
      <trkpt lat="40.527467" lon="-5.130683">
        <ele>2298.0</ele>
        <time>2018-07-29T13:03:28Z</time>
      </trkpt>
      <trkpt lat="40.527583" lon="-5.130567">
        <ele>2297.0</ele>
        <time>2018-07-29T13:03:29Z</time>
      </trkpt>
      <trkpt lat="40.527683" lon="-5.130450">
        <ele>2298.0</ele>
        <time>2018-07-29T13:03:30Z</time>
      </trkpt>
      <trkpt lat="40.527783" lon="-5.130300">
        <ele>2298.0</ele>
        <time>2018-07-29T13:03:31Z</time>
      </trkpt>
      <trkpt lat="40.527867" lon="-5.130150">
        <ele>2299.0</ele>
        <time>2018-07-29T13:03:32Z</time>
      </trkpt>
      <trkpt lat="40.527933" lon="-5.129983">
        <ele>2299.0</ele>
        <time>2018-07-29T13:03:33Z</time>
      </trkpt>
      <trkpt lat="40.527983" lon="-5.129800">
        <ele>2299.0</ele>
        <time>2018-07-29T13:03:34Z</time>
      </trkpt>
      <trkpt lat="40.528050" lon="-5.129600">
        <ele>2300.0</ele>
        <time>2018-07-29T13:03:35Z</time>
      </trkpt>
      <trkpt lat="40.528083" lon="-5.129417">
        <ele>2301.0</ele>
        <time>2018-07-29T13:03:36Z</time>
      </trkpt>
      <trkpt lat="40.528083" lon="-5.129233">
        <ele>2303.0</ele>
        <time>2018-07-29T13:03:37Z</time>
      </trkpt>
      <trkpt lat="40.528067" lon="-5.129067">
        <ele>2303.0</ele>
        <time>2018-07-29T13:03:38Z</time>
      </trkpt>
      <trkpt lat="40.528033" lon="-5.128917">
        <ele>2302.0</ele>
        <time>2018-07-29T13:03:39Z</time>
      </trkpt>
      <trkpt lat="40.527983" lon="-5.128767">
        <ele>2301.0</ele>
        <time>2018-07-29T13:03:40Z</time>
      </trkpt>
      <trkpt lat="40.527933" lon="-5.128617">
        <ele>2301.0</ele>
        <time>2018-07-29T13:03:41Z</time>
      </trkpt>
      <trkpt lat="40.527867" lon="-5.128483">
        <ele>2300.0</ele>
        <time>2018-07-29T13:03:42Z</time>
      </trkpt>
      <trkpt lat="40.527783" lon="-5.128367">
        <ele>2299.0</ele>
        <time>2018-07-29T13:03:43Z</time>
      </trkpt>
      <trkpt lat="40.527700" lon="-5.128300">
        <ele>2298.0</ele>
        <time>2018-07-29T13:03:44Z</time>
      </trkpt>
      <trkpt lat="40.527633" lon="-5.128267">
        <ele>2298.0</ele>
        <time>2018-07-29T13:03:45Z</time>
      </trkpt>
      <trkpt lat="40.527550" lon="-5.128250">
        <ele>2299.0</ele>
        <time>2018-07-29T13:03:46Z</time>
      </trkpt>
      <trkpt lat="40.527483" lon="-5.128233">
        <ele>2299.0</ele>
        <time>2018-07-29T13:03:47Z</time>
      </trkpt>
      <trkpt lat="40.527400" lon="-5.128217">
        <ele>2301.0</ele>
        <time>2018-07-29T13:03:48Z</time>
      </trkpt>
      <trkpt lat="40.527317" lon="-5.128200">
        <ele>2302.0</ele>
        <time>2018-07-29T13:03:49Z</time>
      </trkpt>
      <trkpt lat="40.527250" lon="-5.128183">
        <ele>2304.0</ele>
        <time>2018-07-29T13:03:50Z</time>
      </trkpt>
      <trkpt lat="40.527183" lon="-5.128167">
        <ele>2305.0</ele>
        <time>2018-07-29T13:03:51Z</time>
      </trkpt>
      <trkpt lat="40.527117" lon="-5.128150">
        <ele>2306.0</ele>
        <time>2018-07-29T13:03:52Z</time>
      </trkpt>
      <trkpt lat="40.527050" lon="-5.128167">
        <ele>2307.0</ele>
        <time>2018-07-29T13:03:53Z</time>
      </trkpt>
      <trkpt lat="40.527017" lon="-5.128183">
        <ele>2307.0</ele>
        <time>2018-07-29T13:03:54Z</time>
      </trkpt>
      <trkpt lat="40.526983" lon="-5.128233">
        <ele>2308.0</ele>
        <time>2018-07-29T13:03:55Z</time>
      </trkpt>
      <trkpt lat="40.526950" lon="-5.128283">
        <ele>2308.0</ele>
        <time>2018-07-29T13:03:56Z</time>
      </trkpt>
      <trkpt lat="40.526933" lon="-5.128350">
        <ele>2308.0</ele>
        <time>2018-07-29T13:03:57Z</time>
      </trkpt>
      <trkpt lat="40.526900" lon="-5.128400">
        <ele>2308.0</ele>
        <time>2018-07-29T13:03:58Z</time>
      </trkpt>
      <trkpt lat="40.526883" lon="-5.128483">
        <ele>2308.0</ele>
        <time>2018-07-29T13:03:59Z</time>
      </trkpt>
      <trkpt lat="40.526867" lon="-5.128550">
        <ele>2307.0</ele>
        <time>2018-07-29T13:04:00Z</time>
      </trkpt>
      <trkpt lat="40.526867" lon="-5.128617">
        <ele>2308.0</ele>
        <time>2018-07-29T13:04:01Z</time>
      </trkpt>
      <trkpt lat="40.526850" lon="-5.128700">
        <ele>2308.0</ele>
        <time>2018-07-29T13:04:02Z</time>
      </trkpt>
      <trkpt lat="40.526817" lon="-5.128767">
        <ele>2308.0</ele>
        <time>2018-07-29T13:04:03Z</time>
      </trkpt>
      <trkpt lat="40.526800" lon="-5.128817">
        <ele>2308.0</ele>
        <time>2018-07-29T13:04:04Z</time>
      </trkpt>
      <trkpt lat="40.526767" lon="-5.128883">
        <ele>2306.0</ele>
        <time>2018-07-29T13:04:05Z</time>
      </trkpt>
      <trkpt lat="40.526733" lon="-5.128967">
        <ele>2305.0</ele>
        <time>2018-07-29T13:04:06Z</time>
      </trkpt>
      <trkpt lat="40.526700" lon="-5.129050">
        <ele>2305.0</ele>
        <time>2018-07-29T13:04:07Z</time>
      </trkpt>
      <trkpt lat="40.526683" lon="-5.129133">
        <ele>2305.0</ele>
        <time>2018-07-29T13:04:08Z</time>
      </trkpt>
      <trkpt lat="40.526683" lon="-5.129250">
        <ele>2306.0</ele>
        <time>2018-07-29T13:04:09Z</time>
      </trkpt>
      <trkpt lat="40.526683" lon="-5.129333">
        <ele>2308.0</ele>
        <time>2018-07-29T13:04:10Z</time>
      </trkpt>
      <trkpt lat="40.526667" lon="-5.129417">
        <ele>2310.0</ele>
        <time>2018-07-29T13:04:11Z</time>
      </trkpt>
      <trkpt lat="40.526667" lon="-5.129500">
        <ele>2311.0</ele>
        <time>2018-07-29T13:04:12Z</time>
      </trkpt>
      <trkpt lat="40.526650" lon="-5.129567">
        <ele>2312.0</ele>
        <time>2018-07-29T13:04:13Z</time>
      </trkpt>
      <trkpt lat="40.526633" lon="-5.129650">
        <ele>2313.0</ele>
        <time>2018-07-29T13:04:14Z</time>
      </trkpt>
      <trkpt lat="40.526617" lon="-5.129717">
        <ele>2315.0</ele>
        <time>2018-07-29T13:04:15Z</time>
      </trkpt>
      <trkpt lat="40.526633" lon="-5.129817">
        <ele>2317.0</ele>
        <time>2018-07-29T13:04:16Z</time>
      </trkpt>
      <trkpt lat="40.526650" lon="-5.129933">
        <ele>2320.0</ele>
        <time>2018-07-29T13:04:17Z</time>
      </trkpt>
      <trkpt lat="40.526683" lon="-5.130033">
        <ele>2324.0</ele>
        <time>2018-07-29T13:04:18Z</time>
      </trkpt>
      <trkpt lat="40.526717" lon="-5.130117">
        <ele>2329.0</ele>
        <time>2018-07-29T13:04:19Z</time>
      </trkpt>
      <trkpt lat="40.526733" lon="-5.130183">
        <ele>2334.0</ele>
        <time>2018-07-29T13:04:20Z</time>
      </trkpt>
      <trkpt lat="40.526767" lon="-5.130250">
        <ele>2338.0</ele>
        <time>2018-07-29T13:04:21Z</time>
      </trkpt>
      <trkpt lat="40.526833" lon="-5.130300">
        <ele>2342.0</ele>
        <time>2018-07-29T13:04:22Z</time>
      </trkpt>
      <trkpt lat="40.526933" lon="-5.130333">
        <ele>2345.0</ele>
        <time>2018-07-29T13:04:23Z</time>
      </trkpt>
      <trkpt lat="40.527033" lon="-5.130350">
        <ele>2348.0</ele>
        <time>2018-07-29T13:04:24Z</time>
      </trkpt>
      <trkpt lat="40.527133" lon="-5.130317">
        <ele>2351.0</ele>
        <time>2018-07-29T13:04:25Z</time>
      </trkpt>
      <trkpt lat="40.527250" lon="-5.130233">
        <ele>2352.0</ele>
        <time>2018-07-29T13:04:26Z</time>
      </trkpt>
      <trkpt lat="40.527350" lon="-5.130117">
        <ele>2352.0</ele>
        <time>2018-07-29T13:04:27Z</time>
      </trkpt>
      <trkpt lat="40.527450" lon="-5.129983">
        <ele>2353.0</ele>
        <time>2018-07-29T13:04:28Z</time>
      </trkpt>
      <trkpt lat="40.527567" lon="-5.129833">
        <ele>2355.0</ele>
        <time>2018-07-29T13:04:29Z</time>
      </trkpt>
      <trkpt lat="40.527650" lon="-5.129683">
        <ele>2358.0</ele>
        <time>2018-07-29T13:04:30Z</time>
      </trkpt>
      <trkpt lat="40.527717" lon="-5.129517">
        <ele>2361.0</ele>
        <time>2018-07-29T13:04:31Z</time>
      </trkpt>
      <trkpt lat="40.527767" lon="-5.129333">
        <ele>2361.0</ele>
        <time>2018-07-29T13:04:32Z</time>
      </trkpt>
      <trkpt lat="40.527783" lon="-5.129133">
        <ele>2362.0</ele>
        <time>2018-07-29T13:04:33Z</time>
      </trkpt>
      <trkpt lat="40.527783" lon="-5.128917">
        <ele>2364.0</ele>
        <time>2018-07-29T13:04:34Z</time>
      </trkpt>
      <trkpt lat="40.527767" lon="-5.128733">
        <ele>2367.0</ele>
        <time>2018-07-29T13:04:35Z</time>
      </trkpt>
      <trkpt lat="40.527733" lon="-5.128550">
        <ele>2372.0</ele>
        <time>2018-07-29T13:04:36Z</time>
      </trkpt>
      <trkpt lat="40.527683" lon="-5.128383">
        <ele>2376.0</ele>
        <time>2018-07-29T13:04:37Z</time>
      </trkpt>
      <trkpt lat="40.527617" lon="-5.128267">
        <ele>2381.0</ele>
        <time>2018-07-29T13:04:38Z</time>
      </trkpt>
      <trkpt lat="40.527550" lon="-5.128183">
        <ele>2384.0</ele>
        <time>2018-07-29T13:04:39Z</time>
      </trkpt>
      <trkpt lat="40.527483" lon="-5.128150">
        <ele>2388.0</ele>
        <time>2018-07-29T13:04:40Z</time>
      </trkpt>
      <trkpt lat="40.527417" lon="-5.128150">
        <ele>2392.0</ele>
        <time>2018-07-29T13:04:41Z</time>
      </trkpt>
      <trkpt lat="40.527367" lon="-5.128167">
        <ele>2393.0</ele>
        <time>2018-07-29T13:04:42Z</time>
      </trkpt>
      <trkpt lat="40.527333" lon="-5.128217">
        <ele>2394.0</ele>
        <time>2018-07-29T13:04:43Z</time>
      </trkpt>
      <trkpt lat="40.527317" lon="-5.128300">
        <ele>2395.0</ele>
        <time>2018-07-29T13:04:44Z</time>
      </trkpt>
      <trkpt lat="40.527333" lon="-5.128383">
        <ele>2396.0</ele>
        <time>2018-07-29T13:04:45Z</time>
      </trkpt>
      <trkpt lat="40.527367" lon="-5.128483">
        <ele>2400.0</ele>
        <time>2018-07-29T13:04:46Z</time>
      </trkpt>
      <trkpt lat="40.527433" lon="-5.128550">
        <ele>2404.0</ele>
        <time>2018-07-29T13:04:47Z</time>
      </trkpt>
      <trkpt lat="40.527517" lon="-5.128567">
        <ele>2408.0</ele>
        <time>2018-07-29T13:04:48Z</time>
      </trkpt>
      <trkpt lat="40.527617" lon="-5.128550">
        <ele>2412.0</ele>
        <time>2018-07-29T13:04:49Z</time>
      </trkpt>
      <trkpt lat="40.527717" lon="-5.128533">
        <ele>2414.0</ele>
        <time>2018-07-29T13:04:50Z</time>
      </trkpt>
      <trkpt lat="40.527800" lon="-5.128517">
        <ele>2415.0</ele>
        <time>2018-07-29T13:04:51Z</time>
      </trkpt>
      <trkpt lat="40.527917" lon="-5.128483">
        <ele>2416.0</ele>
        <time>2018-07-29T13:04:52Z</time>
      </trkpt>
      <trkpt lat="40.528017" lon="-5.128417">
        <ele>2417.0</ele>
        <time>2018-07-29T13:04:53Z</time>
      </trkpt>
      <trkpt lat="40.528133" lon="-5.128317">
        <ele>2418.0</ele>
        <time>2018-07-29T13:04:54Z</time>
      </trkpt>
      <trkpt lat="40.528250" lon="-5.128183">
        <ele>2420.0</ele>
        <time>2018-07-29T13:04:55Z</time>
      </trkpt>
      <trkpt lat="40.528367" lon="-5.128050">
        <ele>2422.0</ele>
        <time>2018-07-29T13:04:56Z</time>
      </trkpt>
      <trkpt lat="40.528483" lon="-5.127917">
        <ele>2424.0</ele>
        <time>2018-07-29T13:04:57Z</time>
      </trkpt>
      <trkpt lat="40.528583" lon="-5.127783">
        <ele>2427.0</ele>
        <time>2018-07-29T13:04:58Z</time>
      </trkpt>
      <trkpt lat="40.528683" lon="-5.127650">
        <ele>2431.0</ele>
        <time>2018-07-29T13:04:59Z</time>
      </trkpt>
      <trkpt lat="40.528750" lon="-5.127500">
        <ele>2434.0</ele>
        <time>2018-07-29T13:05:00Z</time>
      </trkpt>
      <trkpt lat="40.528800" lon="-5.127350">
        <ele>2435.0</ele>
        <time>2018-07-29T13:05:01Z</time>
      </trkpt>
      <trkpt lat="40.528817" lon="-5.127183">
        <ele>2436.0</ele>
        <time>2018-07-29T13:05:02Z</time>
      </trkpt>
      <trkpt lat="40.528817" lon="-5.127017">
        <ele>2437.0</ele>
        <time>2018-07-29T13:05:03Z</time>
      </trkpt>
      <trkpt lat="40.528817" lon="-5.126833">
        <ele>2438.0</ele>
        <time>2018-07-29T13:05:04Z</time>
      </trkpt>
      <trkpt lat="40.528800" lon="-5.126667">
        <ele>2438.0</ele>
        <time>2018-07-29T13:05:05Z</time>
      </trkpt>
      <trkpt lat="40.528767" lon="-5.126500">
        <ele>2439.0</ele>
        <time>2018-07-29T13:05:06Z</time>
      </trkpt>
      <trkpt lat="40.528700" lon="-5.126367">
        <ele>2439.0</ele>
        <time>2018-07-29T13:05:07Z</time>
      </trkpt>
      <trkpt lat="40.528633" lon="-5.126250">
        <ele>2441.0</ele>
        <time>2018-07-29T13:05:08Z</time>
      </trkpt>
      <trkpt lat="40.528550" lon="-5.126183">
        <ele>2444.0</ele>
        <time>2018-07-29T13:05:09Z</time>
      </trkpt>
      <trkpt lat="40.528467" lon="-5.126150">
        <ele>2447.0</ele>
        <time>2018-07-29T13:05:10Z</time>
      </trkpt>
      <trkpt lat="40.528400" lon="-5.126133">
        <ele>2449.0</ele>
        <time>2018-07-29T13:05:11Z</time>
      </trkpt>
      <trkpt lat="40.528350" lon="-5.126133">
        <ele>2452.0</ele>
        <time>2018-07-29T13:05:12Z</time>
      </trkpt>
      <trkpt lat="40.528283" lon="-5.126167">
        <ele>2453.0</ele>
        <time>2018-07-29T13:05:13Z</time>
      </trkpt>
      <trkpt lat="40.528250" lon="-5.126200">
        <ele>2454.0</ele>
        <time>2018-07-29T13:05:14Z</time>
      </trkpt>
      <trkpt lat="40.528233" lon="-5.126283">
        <ele>2455.0</ele>
        <time>2018-07-29T13:05:15Z</time>
      </trkpt>
      <trkpt lat="40.528250" lon="-5.126367">
        <ele>2457.0</ele>
        <time>2018-07-29T13:05:16Z</time>
      </trkpt>
      <trkpt lat="40.528283" lon="-5.126450">
        <ele>2459.0</ele>
        <time>2018-07-29T13:05:17Z</time>
      </trkpt>
      <trkpt lat="40.528333" lon="-5.126517">
        <ele>2463.0</ele>
        <time>2018-07-29T13:05:18Z</time>
      </trkpt>
      <trkpt lat="40.528400" lon="-5.126567">
        <ele>2466.0</ele>
        <time>2018-07-29T13:05:19Z</time>
      </trkpt>
      <trkpt lat="40.528483" lon="-5.126600">
        <ele>2469.0</ele>
        <time>2018-07-29T13:05:20Z</time>
      </trkpt>
      <trkpt lat="40.528600" lon="-5.126600">
        <ele>2470.0</ele>
        <time>2018-07-29T13:05:21Z</time>
      </trkpt>
      <trkpt lat="40.528717" lon="-5.126600">
        <ele>2471.0</ele>
        <time>2018-07-29T13:05:22Z</time>
      </trkpt>
      <trkpt lat="40.528850" lon="-5.126583">
        <ele>2473.0</ele>
        <time>2018-07-29T13:05:23Z</time>
      </trkpt>
      <trkpt lat="40.528967" lon="-5.126517">
        <ele>2475.0</ele>
        <time>2018-07-29T13:05:24Z</time>
      </trkpt>
      <trkpt lat="40.529067" lon="-5.126400">
        <ele>2476.0</ele>
        <time>2018-07-29T13:05:25Z</time>
      </trkpt>
      <trkpt lat="40.529167" lon="-5.126250">
        <ele>2477.0</ele>
        <time>2018-07-29T13:05:26Z</time>
      </trkpt>
      <trkpt lat="40.529233" lon="-5.126067">
        <ele>2478.0</ele>
        <time>2018-07-29T13:05:27Z</time>
      </trkpt>
      <trkpt lat="40.529283" lon="-5.125883">
        <ele>2480.0</ele>
        <time>2018-07-29T13:05:28Z</time>
      </trkpt>
      <trkpt lat="40.529300" lon="-5.125717">
        <ele>2482.0</ele>
        <time>2018-07-29T13:05:29Z</time>
      </trkpt>
      <trkpt lat="40.529283" lon="-5.125533">
        <ele>2483.0</ele>
        <time>2018-07-29T13:05:30Z</time>
      </trkpt>
      <trkpt lat="40.529267" lon="-5.125367">
        <ele>2485.0</ele>
        <time>2018-07-29T13:05:31Z</time>
      </trkpt>
      <trkpt lat="40.529233" lon="-5.125200">
        <ele>2486.0</ele>
        <time>2018-07-29T13:05:32Z</time>
      </trkpt>
      <trkpt lat="40.529200" lon="-5.125050">
        <ele>2486.0</ele>
        <time>2018-07-29T13:05:33Z</time>
      </trkpt>
      <trkpt lat="40.529133" lon="-5.124917">
        <ele>2488.0</ele>
        <time>2018-07-29T13:05:34Z</time>
      </trkpt>
      <trkpt lat="40.529067" lon="-5.124817">
        <ele>2489.0</ele>
        <time>2018-07-29T13:05:35Z</time>
      </trkpt>
      <trkpt lat="40.528983" lon="-5.124750">
        <ele>2491.0</ele>
        <time>2018-07-29T13:05:36Z</time>
      </trkpt>
      <trkpt lat="40.528917" lon="-5.124700">
        <ele>2493.0</ele>
        <time>2018-07-29T13:05:37Z</time>
      </trkpt>
      <trkpt lat="40.528850" lon="-5.124683">
        <ele>2495.0</ele>
        <time>2018-07-29T13:05:38Z</time>
      </trkpt>
      <trkpt lat="40.528783" lon="-5.124683">
        <ele>2497.0</ele>
        <time>2018-07-29T13:05:39Z</time>
      </trkpt>
      <trkpt lat="40.528717" lon="-5.124683">
        <ele>2499.0</ele>
        <time>2018-07-29T13:05:40Z</time>
      </trkpt>
      <trkpt lat="40.528683" lon="-5.124700">
        <ele>2501.0</ele>
        <time>2018-07-29T13:05:41Z</time>
      </trkpt>
      <trkpt lat="40.528650" lon="-5.124750">
        <ele>2501.0</ele>
        <time>2018-07-29T13:05:42Z</time>
      </trkpt>
      <trkpt lat="40.528650" lon="-5.124817">
        <ele>2503.0</ele>
        <time>2018-07-29T13:05:43Z</time>
      </trkpt>
      <trkpt lat="40.528650" lon="-5.124900">
        <ele>2504.0</ele>
        <time>2018-07-29T13:05:44Z</time>
      </trkpt>
      <trkpt lat="40.528683" lon="-5.124983">
        <ele>2507.0</ele>
        <time>2018-07-29T13:05:45Z</time>
      </trkpt>
      <trkpt lat="40.528717" lon="-5.125050">
        <ele>2509.0</ele>
        <time>2018-07-29T13:05:46Z</time>
      </trkpt>
      <trkpt lat="40.528767" lon="-5.125117">
        <ele>2512.0</ele>
        <time>2018-07-29T13:05:47Z</time>
      </trkpt>
      <trkpt lat="40.528833" lon="-5.125167">
        <ele>2513.0</ele>
        <time>2018-07-29T13:05:48Z</time>
      </trkpt>
      <trkpt lat="40.528933" lon="-5.125200">
        <ele>2514.0</ele>
        <time>2018-07-29T13:05:49Z</time>
      </trkpt>
      <trkpt lat="40.529033" lon="-5.125217">
        <ele>2515.0</ele>
        <time>2018-07-29T13:05:50Z</time>
      </trkpt>
      <trkpt lat="40.529150" lon="-5.125233">
        <ele>2516.0</ele>
        <time>2018-07-29T13:05:51Z</time>
      </trkpt>
      <trkpt lat="40.529267" lon="-5.125217">
        <ele>2517.0</ele>
        <time>2018-07-29T13:05:52Z</time>
      </trkpt>
      <trkpt lat="40.529400" lon="-5.125200">
        <ele>2518.0</ele>
        <time>2018-07-29T13:05:53Z</time>
      </trkpt>
      <trkpt lat="40.529533" lon="-5.125167">
        <ele>2520.0</ele>
        <time>2018-07-29T13:05:54Z</time>
      </trkpt>
      <trkpt lat="40.529650" lon="-5.125083">
        <ele>2522.0</ele>
        <time>2018-07-29T13:05:55Z</time>
      </trkpt>
      <trkpt lat="40.529767" lon="-5.124967">
        <ele>2524.0</ele>
        <time>2018-07-29T13:05:56Z</time>
      </trkpt>
      <trkpt lat="40.529867" lon="-5.124817">
        <ele>2524.0</ele>
        <time>2018-07-29T13:05:57Z</time>
      </trkpt>
      <trkpt lat="40.529933" lon="-5.124650">
        <ele>2525.0</ele>
        <time>2018-07-29T13:05:58Z</time>
      </trkpt>
      <trkpt lat="40.530000" lon="-5.124483">
        <ele>2526.0</ele>
        <time>2018-07-29T13:05:59Z</time>
      </trkpt>
      <trkpt lat="40.530033" lon="-5.124317">
        <ele>2528.0</ele>
        <time>2018-07-29T13:06:00Z</time>
      </trkpt>
      <trkpt lat="40.530083" lon="-5.124150">
        <ele>2528.0</ele>
        <time>2018-07-29T13:06:01Z</time>
      </trkpt>
      <trkpt lat="40.530117" lon="-5.123983">
        <ele>2529.0</ele>
        <time>2018-07-29T13:06:02Z</time>
      </trkpt>
      <trkpt lat="40.530117" lon="-5.123800">
        <ele>2529.0</ele>
        <time>2018-07-29T13:06:03Z</time>
      </trkpt>
      <trkpt lat="40.530100" lon="-5.123633">
        <ele>2528.0</ele>
        <time>2018-07-29T13:06:04Z</time>
      </trkpt>
      <trkpt lat="40.530067" lon="-5.123467">
        <ele>2527.0</ele>
        <time>2018-07-29T13:06:05Z</time>
      </trkpt>
      <trkpt lat="40.530000" lon="-5.123317">
        <ele>2527.0</ele>
        <time>2018-07-29T13:06:06Z</time>
      </trkpt>
      <trkpt lat="40.529917" lon="-5.123217">
        <ele>2528.0</ele>
        <time>2018-07-29T13:06:07Z</time>
      </trkpt>
      <trkpt lat="40.529850" lon="-5.123133">
        <ele>2529.0</ele>
        <time>2018-07-29T13:06:08Z</time>
      </trkpt>
      <trkpt lat="40.529767" lon="-5.123083">
        <ele>2530.0</ele>
        <time>2018-07-29T13:06:09Z</time>
      </trkpt>
      <trkpt lat="40.529683" lon="-5.123050">
        <ele>2531.0</ele>
        <time>2018-07-29T13:06:10Z</time>
      </trkpt>
      <trkpt lat="40.529617" lon="-5.123000">
        <ele>2532.0</ele>
        <time>2018-07-29T13:06:11Z</time>
      </trkpt>
      <trkpt lat="40.529533" lon="-5.122967">
        <ele>2534.0</ele>
        <time>2018-07-29T13:06:12Z</time>
      </trkpt>
      <trkpt lat="40.529450" lon="-5.122917">
        <ele>2535.0</ele>
        <time>2018-07-29T13:06:13Z</time>
      </trkpt>
      <trkpt lat="40.529383" lon="-5.122867">
        <ele>2537.0</ele>
        <time>2018-07-29T13:06:14Z</time>
      </trkpt>
      <trkpt lat="40.529317" lon="-5.122850">
        <ele>2538.0</ele>
        <time>2018-07-29T13:06:15Z</time>
      </trkpt>
      <trkpt lat="40.529283" lon="-5.122833">
        <ele>2539.0</ele>
        <time>2018-07-29T13:06:16Z</time>
      </trkpt>
      <trkpt lat="40.529233" lon="-5.122833">
        <ele>2540.0</ele>
        <time>2018-07-29T13:06:17Z</time>
      </trkpt>
      <trkpt lat="40.529183" lon="-5.122833">
        <ele>2542.0</ele>
        <time>2018-07-29T13:06:18Z</time>
      </trkpt>
      <trkpt lat="40.529150" lon="-5.122817">
        <ele>2544.0</ele>
        <time>2018-07-29T13:06:19Z</time>
      </trkpt>
      <trkpt lat="40.529117" lon="-5.122817">
        <ele>2546.0</ele>
        <time>2018-07-29T13:06:20Z</time>
      </trkpt>
      <trkpt lat="40.529083" lon="-5.122833">
        <ele>2549.0</ele>
        <time>2018-07-29T13:06:21Z</time>
      </trkpt>
      <trkpt lat="40.529067" lon="-5.122833">
        <ele>2552.0</ele>
        <time>2018-07-29T13:06:22Z</time>
      </trkpt>
      <trkpt lat="40.529050" lon="-5.122867">
        <ele>2554.0</ele>
        <time>2018-07-29T13:06:23Z</time>
      </trkpt>
      <trkpt lat="40.529033" lon="-5.122883">
        <ele>2557.0</ele>
        <time>2018-07-29T13:06:24Z</time>
      </trkpt>
      <trkpt lat="40.529017" lon="-5.122900">
        <ele>2560.0</ele>
        <time>2018-07-29T13:06:25Z</time>
      </trkpt>
      <trkpt lat="40.528983" lon="-5.122917">
        <ele>2560.0</ele>
        <time>2018-07-29T13:06:26Z</time>
      </trkpt>
      <trkpt lat="40.528950" lon="-5.122933">
        <ele>2563.0</ele>
        <time>2018-07-29T13:06:27Z</time>
      </trkpt>
      <trkpt lat="40.528917" lon="-5.122967">
        <ele>2565.0</ele>
        <time>2018-07-29T13:06:28Z</time>
      </trkpt>
      <trkpt lat="40.528900" lon="-5.123017">
        <ele>2570.0</ele>
        <time>2018-07-29T13:06:29Z</time>
      </trkpt>
      <trkpt lat="40.528900" lon="-5.123083">
        <ele>2573.0</ele>
        <time>2018-07-29T13:06:30Z</time>
      </trkpt>
      <trkpt lat="40.528917" lon="-5.123167">
        <ele>2576.0</ele>
        <time>2018-07-29T13:06:31Z</time>
      </trkpt>
      <trkpt lat="40.528967" lon="-5.123217">
        <ele>2580.0</ele>
        <time>2018-07-29T13:06:32Z</time>
      </trkpt>
      <trkpt lat="40.529033" lon="-5.123267">
        <ele>2584.0</ele>
        <time>2018-07-29T13:06:33Z</time>
      </trkpt>
      <trkpt lat="40.529117" lon="-5.123317">
        <ele>2587.0</ele>
        <time>2018-07-29T13:06:34Z</time>
      </trkpt>
      <trkpt lat="40.529233" lon="-5.123350">
        <ele>2590.0</ele>
        <time>2018-07-29T13:06:35Z</time>
      </trkpt>
      <trkpt lat="40.529350" lon="-5.123367">
        <ele>2593.0</ele>
        <time>2018-07-29T13:06:36Z</time>
      </trkpt>
      <trkpt lat="40.529483" lon="-5.123333">
        <ele>2595.0</ele>
        <time>2018-07-29T13:06:37Z</time>
      </trkpt>
      <trkpt lat="40.529617" lon="-5.123267">
        <ele>2598.0</ele>
        <time>2018-07-29T13:06:38Z</time>
      </trkpt>
      <trkpt lat="40.529750" lon="-5.123167">
        <ele>2601.0</ele>
        <time>2018-07-29T13:06:39Z</time>
      </trkpt>
      <trkpt lat="40.529850" lon="-5.123050">
        <ele>2605.0</ele>
        <time>2018-07-29T13:06:40Z</time>
      </trkpt>
      <trkpt lat="40.529950" lon="-5.122933">
        <ele>2608.0</ele>
        <time>2018-07-29T13:06:41Z</time>
      </trkpt>
      <trkpt lat="40.530017" lon="-5.122767">
        <ele>2609.0</ele>
        <time>2018-07-29T13:06:42Z</time>
      </trkpt>
      <trkpt lat="40.530067" lon="-5.122600">
        <ele>2610.0</ele>
        <time>2018-07-29T13:06:43Z</time>
      </trkpt>
      <trkpt lat="40.530117" lon="-5.122417">
        <ele>2610.0</ele>
        <time>2018-07-29T13:06:44Z</time>
      </trkpt>
      <trkpt lat="40.530150" lon="-5.122233">
        <ele>2610.0</ele>
        <time>2018-07-29T13:06:45Z</time>
      </trkpt>
      <trkpt lat="40.530150" lon="-5.122067">
        <ele>2609.0</ele>
        <time>2018-07-29T13:06:46Z</time>
      </trkpt>
      <trkpt lat="40.530150" lon="-5.121883">
        <ele>2608.0</ele>
        <time>2018-07-29T13:06:47Z</time>
      </trkpt>
      <trkpt lat="40.530133" lon="-5.121717">
        <ele>2607.0</ele>
        <time>2018-07-29T13:06:48Z</time>
      </trkpt>
      <trkpt lat="40.530083" lon="-5.121567">
        <ele>2606.0</ele>
        <time>2018-07-29T13:06:49Z</time>
      </trkpt>
      <trkpt lat="40.530017" lon="-5.121417">
        <ele>2605.0</ele>
        <time>2018-07-29T13:06:50Z</time>
      </trkpt>
      <trkpt lat="40.529933" lon="-5.121300">
        <ele>2605.0</ele>
        <time>2018-07-29T13:06:51Z</time>
      </trkpt>
      <trkpt lat="40.529850" lon="-5.121200">
        <ele>2605.0</ele>
        <time>2018-07-29T13:06:52Z</time>
      </trkpt>
      <trkpt lat="40.529750" lon="-5.121133">
        <ele>2606.0</ele>
        <time>2018-07-29T13:06:53Z</time>
      </trkpt>
      <trkpt lat="40.529667" lon="-5.121067">
        <ele>2609.0</ele>
        <time>2018-07-29T13:06:54Z</time>
      </trkpt>
      <trkpt lat="40.529583" lon="-5.121000">
        <ele>2613.0</ele>
        <time>2018-07-29T13:06:55Z</time>
      </trkpt>
      <trkpt lat="40.529517" lon="-5.120933">
        <ele>2616.0</ele>
        <time>2018-07-29T13:06:56Z</time>
      </trkpt>
      <trkpt lat="40.529450" lon="-5.120867">
        <ele>2618.0</ele>
        <time>2018-07-29T13:06:57Z</time>
      </trkpt>
      <trkpt lat="40.529383" lon="-5.120817">
        <ele>2618.0</ele>
        <time>2018-07-29T13:06:58Z</time>
      </trkpt>
      <trkpt lat="40.529317" lon="-5.120783">
        <ele>2617.0</ele>
        <time>2018-07-29T13:06:59Z</time>
      </trkpt>
      <trkpt lat="40.529233" lon="-5.120767">
        <ele>2616.0</ele>
        <time>2018-07-29T13:07:00Z</time>
      </trkpt>
      <trkpt lat="40.529150" lon="-5.120750">
        <ele>2615.0</ele>
        <time>2018-07-29T13:07:01Z</time>
      </trkpt>
      <trkpt lat="40.529067" lon="-5.120750">
        <ele>2615.0</ele>
        <time>2018-07-29T13:07:02Z</time>
      </trkpt>
      <trkpt lat="40.528983" lon="-5.120750">
        <ele>2616.0</ele>
        <time>2018-07-29T13:07:03Z</time>
      </trkpt>
      <trkpt lat="40.528900" lon="-5.120733">
        <ele>2619.0</ele>
        <time>2018-07-29T13:07:04Z</time>
      </trkpt>
      <trkpt lat="40.528833" lon="-5.120733">
        <ele>2624.0</ele>
        <time>2018-07-29T13:07:05Z</time>
      </trkpt>
      <trkpt lat="40.528767" lon="-5.120733">
        <ele>2629.0</ele>
        <time>2018-07-29T13:07:06Z</time>
      </trkpt>
      <trkpt lat="40.528700" lon="-5.120717">
        <ele>2634.0</ele>
        <time>2018-07-29T13:07:07Z</time>
      </trkpt>
      <trkpt lat="40.528650" lon="-5.120683">
        <ele>2639.0</ele>
        <time>2018-07-29T13:07:08Z</time>
      </trkpt>
      <trkpt lat="40.528600" lon="-5.120650">
        <ele>2642.0</ele>
        <time>2018-07-29T13:07:09Z</time>
      </trkpt>
      <trkpt lat="40.528550" lon="-5.120617">
        <ele>2643.0</ele>
        <time>2018-07-29T13:07:10Z</time>
      </trkpt>
      <trkpt lat="40.528500" lon="-5.120617">
        <ele>2644.0</ele>
        <time>2018-07-29T13:07:11Z</time>
      </trkpt>
      <trkpt lat="40.528433" lon="-5.120617">
        <ele>2644.0</ele>
        <time>2018-07-29T13:07:12Z</time>
      </trkpt>
      <trkpt lat="40.528367" lon="-5.120633">
        <ele>2645.0</ele>
        <time>2018-07-29T13:07:13Z</time>
      </trkpt>
      <trkpt lat="40.528300" lon="-5.120683">
        <ele>2645.0</ele>
        <time>2018-07-29T13:07:14Z</time>
      </trkpt>
      <trkpt lat="40.528250" lon="-5.120750">
        <ele>2647.0</ele>
        <time>2018-07-29T13:07:15Z</time>
      </trkpt>
      <trkpt lat="40.528233" lon="-5.120833">
        <ele>2649.0</ele>
        <time>2018-07-29T13:07:16Z</time>
      </trkpt>
      <trkpt lat="40.528217" lon="-5.120933">
        <ele>2651.0</ele>
        <time>2018-07-29T13:07:17Z</time>
      </trkpt>
      <trkpt lat="40.528233" lon="-5.121033">
        <ele>2651.0</ele>
        <time>2018-07-29T13:07:18Z</time>
      </trkpt>
      <trkpt lat="40.528267" lon="-5.121133">
        <ele>2650.0</ele>
        <time>2018-07-29T13:07:19Z</time>
      </trkpt>
      <trkpt lat="40.528317" lon="-5.121217">
        <ele>2649.0</ele>
        <time>2018-07-29T13:07:20Z</time>
      </trkpt>
      <trkpt lat="40.528400" lon="-5.121300">
        <ele>2647.0</ele>
        <time>2018-07-29T13:07:21Z</time>
      </trkpt>
      <trkpt lat="40.528500" lon="-5.121367">
        <ele>2646.0</ele>
        <time>2018-07-29T13:07:22Z</time>
      </trkpt>
      <trkpt lat="40.528617" lon="-5.121433">
        <ele>2645.0</ele>
        <time>2018-07-29T13:07:23Z</time>
      </trkpt>
      <trkpt lat="40.528733" lon="-5.121483">
        <ele>2646.0</ele>
        <time>2018-07-29T13:07:24Z</time>
      </trkpt>
      <trkpt lat="40.528850" lon="-5.121517">
        <ele>2647.0</ele>
        <time>2018-07-29T13:07:25Z</time>
      </trkpt>
      <trkpt lat="40.528950" lon="-5.121533">
        <ele>2648.0</ele>
        <time>2018-07-29T13:07:26Z</time>
      </trkpt>
      <trkpt lat="40.529067" lon="-5.121517">
        <ele>2648.0</ele>
        <time>2018-07-29T13:07:27Z</time>
      </trkpt>
      <trkpt lat="40.529167" lon="-5.121467">
        <ele>2647.0</ele>
        <time>2018-07-29T13:07:28Z</time>
      </trkpt>
      <trkpt lat="40.529267" lon="-5.121383">
        <ele>2646.0</ele>
        <time>2018-07-29T13:07:29Z</time>
      </trkpt>
      <trkpt lat="40.529367" lon="-5.121283">
        <ele>2645.0</ele>
        <time>2018-07-29T13:07:30Z</time>
      </trkpt>
      <trkpt lat="40.529450" lon="-5.121167">
        <ele>2645.0</ele>
        <time>2018-07-29T13:07:31Z</time>
      </trkpt>
      <trkpt lat="40.529517" lon="-5.121050">
        <ele>2645.0</ele>
        <time>2018-07-29T13:07:32Z</time>
      </trkpt>
      <trkpt lat="40.529583" lon="-5.120933">
        <ele>2643.0</ele>
        <time>2018-07-29T13:07:33Z</time>
      </trkpt>
      <trkpt lat="40.529617" lon="-5.120800">
        <ele>2642.0</ele>
        <time>2018-07-29T13:07:34Z</time>
      </trkpt>
      <trkpt lat="40.529650" lon="-5.120650">
        <ele>2640.0</ele>
        <time>2018-07-29T13:07:35Z</time>
      </trkpt>
      <trkpt lat="40.529683" lon="-5.120500">
        <ele>2639.0</ele>
        <time>2018-07-29T13:07:36Z</time>
      </trkpt>
      <trkpt lat="40.529700" lon="-5.120333">
        <ele>2640.0</ele>
        <time>2018-07-29T13:07:37Z</time>
      </trkpt>
      <trkpt lat="40.529700" lon="-5.120200">
        <ele>2641.0</ele>
        <time>2018-07-29T13:07:38Z</time>
      </trkpt>
      <trkpt lat="40.529700" lon="-5.120067">
        <ele>2641.0</ele>
        <time>2018-07-29T13:07:39Z</time>
      </trkpt>
      <trkpt lat="40.529667" lon="-5.119933">
        <ele>2641.0</ele>
        <time>2018-07-29T13:07:40Z</time>
      </trkpt>
      <trkpt lat="40.529650" lon="-5.119800">
        <ele>2641.0</ele>
        <time>2018-07-29T13:07:41Z</time>
      </trkpt>
      <trkpt lat="40.529617" lon="-5.119667">
        <ele>2640.0</ele>
        <time>2018-07-29T13:07:42Z</time>
      </trkpt>
      <trkpt lat="40.529567" lon="-5.119517">
        <ele>2640.0</ele>
        <time>2018-07-29T13:07:43Z</time>
      </trkpt>
      <trkpt lat="40.529500" lon="-5.119400">
        <ele>2641.0</ele>
        <time>2018-07-29T13:07:44Z</time>
      </trkpt>
      <trkpt lat="40.529433" lon="-5.119317">
        <ele>2642.0</ele>
        <time>2018-07-29T13:07:45Z</time>
      </trkpt>
      <trkpt lat="40.529367" lon="-5.119267">
        <ele>2643.0</ele>
        <time>2018-07-29T13:07:46Z</time>
      </trkpt>
      <trkpt lat="40.529300" lon="-5.119250">
        <ele>2644.0</ele>
        <time>2018-07-29T13:07:47Z</time>
      </trkpt>
      <trkpt lat="40.529217" lon="-5.119250">
        <ele>2645.0</ele>
        <time>2018-07-29T13:07:48Z</time>
      </trkpt>
      <trkpt lat="40.529150" lon="-5.119233">
        <ele>2648.0</ele>
        <time>2018-07-29T13:07:49Z</time>
      </trkpt>
      <trkpt lat="40.529083" lon="-5.119183">
        <ele>2650.0</ele>
        <time>2018-07-29T13:07:50Z</time>
      </trkpt>
      <trkpt lat="40.529017" lon="-5.119133">
        <ele>2653.0</ele>
        <time>2018-07-29T13:07:51Z</time>
      </trkpt>
      <trkpt lat="40.528967" lon="-5.119100">
        <ele>2655.0</ele>
        <time>2018-07-29T13:07:52Z</time>
      </trkpt>
      <trkpt lat="40.528900" lon="-5.119083">
        <ele>2657.0</ele>
        <time>2018-07-29T13:07:53Z</time>
      </trkpt>
      <trkpt lat="40.528850" lon="-5.119067">
        <ele>2657.0</ele>
        <time>2018-07-29T13:07:54Z</time>
      </trkpt>
      <trkpt lat="40.528800" lon="-5.119067">
        <ele>2657.0</ele>
        <time>2018-07-29T13:07:55Z</time>
      </trkpt>
      <trkpt lat="40.528733" lon="-5.119067">
        <ele>2656.0</ele>
        <time>2018-07-29T13:07:56Z</time>
      </trkpt>
      <trkpt lat="40.528683" lon="-5.119083">
        <ele>2656.0</ele>
        <time>2018-07-29T13:07:57Z</time>
      </trkpt>
      <trkpt lat="40.528633" lon="-5.119133">
        <ele>2655.0</ele>
        <time>2018-07-29T13:07:58Z</time>
      </trkpt>
      <trkpt lat="40.528600" lon="-5.119183">
        <ele>2655.0</ele>
        <time>2018-07-29T13:07:59Z</time>
      </trkpt>
      <trkpt lat="40.528600" lon="-5.119250">
        <ele>2657.0</ele>
        <time>2018-07-29T13:08:00Z</time>
      </trkpt>
      <trkpt lat="40.528600" lon="-5.119317">
        <ele>2657.0</ele>
        <time>2018-07-29T13:08:01Z</time>
      </trkpt>
      <trkpt lat="40.528600" lon="-5.119367">
        <ele>2654.0</ele>
        <time>2018-07-29T13:08:02Z</time>
      </trkpt>
      <trkpt lat="40.528617" lon="-5.119417">
        <ele>2650.0</ele>
        <time>2018-07-29T13:08:03Z</time>
      </trkpt>
      <trkpt lat="40.528617" lon="-5.119467">
        <ele>2644.0</ele>
        <time>2018-07-29T13:08:04Z</time>
      </trkpt>
      <trkpt lat="40.528633" lon="-5.119550">
        <ele>2639.0</ele>
        <time>2018-07-29T13:08:05Z</time>
      </trkpt>
      <trkpt lat="40.528667" lon="-5.119633">
        <ele>2633.0</ele>
        <time>2018-07-29T13:08:06Z</time>
      </trkpt>
      <trkpt lat="40.528733" lon="-5.119717">
        <ele>2629.0</ele>
        <time>2018-07-29T13:08:07Z</time>
      </trkpt>
      <trkpt lat="40.528833" lon="-5.119800">
        <ele>2627.0</ele>
        <time>2018-07-29T13:08:08Z</time>
      </trkpt>
      <trkpt lat="40.528933" lon="-5.119833">
        <ele>2626.0</ele>
        <time>2018-07-29T13:08:09Z</time>
      </trkpt>
      <trkpt lat="40.529050" lon="-5.119833">
        <ele>2625.0</ele>
        <time>2018-07-29T13:08:10Z</time>
      </trkpt>
      <trkpt lat="40.529183" lon="-5.119850">
        <ele>2624.0</ele>
        <time>2018-07-29T13:08:11Z</time>
      </trkpt>
      <trkpt lat="40.529300" lon="-5.119833">
        <ele>2623.0</ele>
        <time>2018-07-29T13:08:12Z</time>
      </trkpt>
      <trkpt lat="40.529417" lon="-5.119800">
        <ele>2622.0</ele>
        <time>2018-07-29T13:08:13Z</time>
      </trkpt>
      <trkpt lat="40.529533" lon="-5.119750">
        <ele>2621.0</ele>
        <time>2018-07-29T13:08:14Z</time>
      </trkpt>
      <trkpt lat="40.529617" lon="-5.119667">
        <ele>2620.0</ele>
        <time>2018-07-29T13:08:15Z</time>
      </trkpt>
      <trkpt lat="40.529717" lon="-5.119583">
        <ele>2618.0</ele>
        <time>2018-07-29T13:08:16Z</time>
      </trkpt>
      <trkpt lat="40.529817" lon="-5.119517">
        <ele>2616.0</ele>
        <time>2018-07-29T13:08:17Z</time>
      </trkpt>
      <trkpt lat="40.529917" lon="-5.119417">
        <ele>2612.0</ele>
        <time>2018-07-29T13:08:18Z</time>
      </trkpt>
      <trkpt lat="40.530017" lon="-5.119317">
        <ele>2609.0</ele>
        <time>2018-07-29T13:08:19Z</time>
      </trkpt>
      <trkpt lat="40.530100" lon="-5.119183">
        <ele>2605.0</ele>
        <time>2018-07-29T13:08:20Z</time>
      </trkpt>
      <trkpt lat="40.530183" lon="-5.119033">
        <ele>2601.0</ele>
        <time>2018-07-29T13:08:21Z</time>
      </trkpt>
      <trkpt lat="40.530250" lon="-5.118867">
        <ele>2598.0</ele>
        <time>2018-07-29T13:08:22Z</time>
      </trkpt>
      <trkpt lat="40.530300" lon="-5.118717">
        <ele>2596.0</ele>
        <time>2018-07-29T13:08:23Z</time>
      </trkpt>
      <trkpt lat="40.530367" lon="-5.118567">
        <ele>2593.0</ele>
        <time>2018-07-29T13:08:24Z</time>
      </trkpt>
      <trkpt lat="40.530417" lon="-5.118400">
        <ele>2590.0</ele>
        <time>2018-07-29T13:08:25Z</time>
      </trkpt>
      <trkpt lat="40.530467" lon="-5.118200">
        <ele>2586.0</ele>
        <time>2018-07-29T13:08:26Z</time>
      </trkpt>
      <trkpt lat="40.530500" lon="-5.117983">
        <ele>2584.0</ele>
        <time>2018-07-29T13:08:27Z</time>
      </trkpt>
      <trkpt lat="40.530550" lon="-5.117750">
        <ele>2584.0</ele>
        <time>2018-07-29T13:08:28Z</time>
      </trkpt>
      <trkpt lat="40.530583" lon="-5.117550">
        <ele>2585.0</ele>
        <time>2018-07-29T13:08:29Z</time>
      </trkpt>
      <trkpt lat="40.530617" lon="-5.117350">
        <ele>2587.0</ele>
        <time>2018-07-29T13:08:30Z</time>
      </trkpt>
      <trkpt lat="40.530667" lon="-5.117150">
        <ele>2589.0</ele>
        <time>2018-07-29T13:08:31Z</time>
      </trkpt>
      <trkpt lat="40.530700" lon="-5.116950">
        <ele>2589.0</ele>
        <time>2018-07-29T13:08:32Z</time>
      </trkpt>
      <trkpt lat="40.530733" lon="-5.116750">
        <ele>2589.0</ele>
        <time>2018-07-29T13:08:33Z</time>
      </trkpt>
      <trkpt lat="40.530767" lon="-5.116550">
        <ele>2589.0</ele>
        <time>2018-07-29T13:08:34Z</time>
      </trkpt>
      <trkpt lat="40.530783" lon="-5.116317">
        <ele>2588.0</ele>
        <time>2018-07-29T13:08:35Z</time>
      </trkpt>
      <trkpt lat="40.530800" lon="-5.116083">
        <ele>2588.0</ele>
        <time>2018-07-29T13:08:36Z</time>
      </trkpt>
      <trkpt lat="40.530817" lon="-5.115833">
        <ele>2588.0</ele>
        <time>2018-07-29T13:08:37Z</time>
      </trkpt>
      <trkpt lat="40.530833" lon="-5.115600">
        <ele>2589.0</ele>
        <time>2018-07-29T13:08:38Z</time>
      </trkpt>
      <trkpt lat="40.530850" lon="-5.115383">
        <ele>2592.0</ele>
        <time>2018-07-29T13:08:39Z</time>
      </trkpt>
      <trkpt lat="40.530850" lon="-5.115183">
        <ele>2594.0</ele>
        <time>2018-07-29T13:08:40Z</time>
      </trkpt>
      <trkpt lat="40.530850" lon="-5.115017">
        <ele>2594.0</ele>
        <time>2018-07-29T13:08:41Z</time>
      </trkpt>
      <trkpt lat="40.530867" lon="-5.114850">
        <ele>2592.0</ele>
        <time>2018-07-29T13:08:42Z</time>
      </trkpt>
      <trkpt lat="40.530883" lon="-5.114667">
        <ele>2589.0</ele>
        <time>2018-07-29T13:08:43Z</time>
      </trkpt>
      <trkpt lat="40.530900" lon="-5.114450">
        <ele>2584.0</ele>
        <time>2018-07-29T13:08:44Z</time>
      </trkpt>
      <trkpt lat="40.530917" lon="-5.114233">
        <ele>2580.0</ele>
        <time>2018-07-29T13:08:45Z</time>
      </trkpt>
      <trkpt lat="40.530933" lon="-5.114000">
        <ele>2578.0</ele>
        <time>2018-07-29T13:08:46Z</time>
      </trkpt>
      <trkpt lat="40.530950" lon="-5.113783">
        <ele>2578.0</ele>
        <time>2018-07-29T13:08:47Z</time>
      </trkpt>
      <trkpt lat="40.530933" lon="-5.113583">
        <ele>2578.0</ele>
        <time>2018-07-29T13:08:48Z</time>
      </trkpt>
      <trkpt lat="40.530900" lon="-5.113400">
        <ele>2579.0</ele>
        <time>2018-07-29T13:08:49Z</time>
      </trkpt>
      <trkpt lat="40.530867" lon="-5.113267">
        <ele>2581.0</ele>
        <time>2018-07-29T13:08:50Z</time>
      </trkpt>
      <trkpt lat="40.530833" lon="-5.113117">
        <ele>2581.0</ele>
        <time>2018-07-29T13:08:51Z</time>
      </trkpt>
      <trkpt lat="40.530817" lon="-5.112967">
        <ele>2580.0</ele>
        <time>2018-07-29T13:08:52Z</time>
      </trkpt>
      <trkpt lat="40.530817" lon="-5.112783">
        <ele>2578.0</ele>
        <time>2018-07-29T13:08:53Z</time>
      </trkpt>
      <trkpt lat="40.530817" lon="-5.112617">
        <ele>2576.0</ele>
        <time>2018-07-29T13:08:54Z</time>
      </trkpt>
      <trkpt lat="40.530817" lon="-5.112417">
        <ele>2574.0</ele>
        <time>2018-07-29T13:08:55Z</time>
      </trkpt>
      <trkpt lat="40.530817" lon="-5.112233">
        <ele>2572.0</ele>
        <time>2018-07-29T13:08:56Z</time>
      </trkpt>
      <trkpt lat="40.530833" lon="-5.112050">
        <ele>2570.0</ele>
        <time>2018-07-29T13:08:57Z</time>
      </trkpt>
      <trkpt lat="40.530850" lon="-5.111883">
        <ele>2569.0</ele>
        <time>2018-07-29T13:08:58Z</time>
      </trkpt>
      <trkpt lat="40.530867" lon="-5.111750">
        <ele>2566.0</ele>
        <time>2018-07-29T13:08:59Z</time>
      </trkpt>
      <trkpt lat="40.530867" lon="-5.111600">
        <ele>2562.0</ele>
        <time>2018-07-29T13:09:00Z</time>
      </trkpt>
      <trkpt lat="40.530900" lon="-5.111433">
        <ele>2556.0</ele>
        <time>2018-07-29T13:09:01Z</time>
      </trkpt>
      <trkpt lat="40.530933" lon="-5.111233">
        <ele>2550.0</ele>
        <time>2018-07-29T13:09:02Z</time>
      </trkpt>
      <trkpt lat="40.530983" lon="-5.111033">
        <ele>2545.0</ele>
        <time>2018-07-29T13:09:03Z</time>
      </trkpt>
      <trkpt lat="40.531050" lon="-5.110817">
        <ele>2542.0</ele>
        <time>2018-07-29T13:09:04Z</time>
      </trkpt>
      <trkpt lat="40.531117" lon="-5.110633">
        <ele>2541.0</ele>
        <time>2018-07-29T13:09:05Z</time>
      </trkpt>
      <trkpt lat="40.531183" lon="-5.110450">
        <ele>2540.0</ele>
        <time>2018-07-29T13:09:06Z</time>
      </trkpt>
      <trkpt lat="40.531233" lon="-5.110267">
        <ele>2537.0</ele>
        <time>2018-07-29T13:09:07Z</time>
      </trkpt>
      <trkpt lat="40.531267" lon="-5.110100">
        <ele>2533.0</ele>
        <time>2018-07-29T13:09:08Z</time>
      </trkpt>
      <trkpt lat="40.531317" lon="-5.109900">
        <ele>2528.0</ele>
        <time>2018-07-29T13:09:09Z</time>
      </trkpt>
      <trkpt lat="40.531367" lon="-5.109700">
        <ele>2523.0</ele>
        <time>2018-07-29T13:09:10Z</time>
      </trkpt>
      <trkpt lat="40.531417" lon="-5.109500">
        <ele>2519.0</ele>
        <time>2018-07-29T13:09:11Z</time>
      </trkpt>
      <trkpt lat="40.531467" lon="-5.109300">
        <ele>2516.0</ele>
        <time>2018-07-29T13:09:12Z</time>
      </trkpt>
      <trkpt lat="40.531517" lon="-5.109083">
        <ele>2514.0</ele>
        <time>2018-07-29T13:09:13Z</time>
      </trkpt>
      <trkpt lat="40.531567" lon="-5.108883">
        <ele>2512.0</ele>
        <time>2018-07-29T13:09:14Z</time>
      </trkpt>
      <trkpt lat="40.531600" lon="-5.108683">
        <ele>2510.0</ele>
        <time>2018-07-29T13:09:15Z</time>
      </trkpt>
      <trkpt lat="40.531650" lon="-5.108483">
        <ele>2507.0</ele>
        <time>2018-07-29T13:09:16Z</time>
      </trkpt>
      <trkpt lat="40.531700" lon="-5.108300">
        <ele>2504.0</ele>
        <time>2018-07-29T13:09:17Z</time>
      </trkpt>
      <trkpt lat="40.531733" lon="-5.108100">
        <ele>2501.0</ele>
        <time>2018-07-29T13:09:18Z</time>
      </trkpt>
      <trkpt lat="40.531767" lon="-5.107900">
        <ele>2497.0</ele>
        <time>2018-07-29T13:09:19Z</time>
      </trkpt>
      <trkpt lat="40.531783" lon="-5.107700">
        <ele>2494.0</ele>
        <time>2018-07-29T13:09:20Z</time>
      </trkpt>
      <trkpt lat="40.531833" lon="-5.107483">
        <ele>2491.0</ele>
        <time>2018-07-29T13:09:21Z</time>
      </trkpt>
      <trkpt lat="40.531883" lon="-5.107283">
        <ele>2488.0</ele>
        <time>2018-07-29T13:09:22Z</time>
      </trkpt>
      <trkpt lat="40.531917" lon="-5.107083">
        <ele>2486.0</ele>
        <time>2018-07-29T13:09:23Z</time>
      </trkpt>
      <trkpt lat="40.531950" lon="-5.106900">
        <ele>2485.0</ele>
        <time>2018-07-29T13:09:24Z</time>
      </trkpt>
      <trkpt lat="40.531983" lon="-5.106717">
        <ele>2483.0</ele>
        <time>2018-07-29T13:09:25Z</time>
      </trkpt>
      <trkpt lat="40.532017" lon="-5.106567">
        <ele>2481.0</ele>
        <time>2018-07-29T13:09:26Z</time>
      </trkpt>
      <trkpt lat="40.532067" lon="-5.106400">
        <ele>2479.0</ele>
        <time>2018-07-29T13:09:27Z</time>
      </trkpt>
      <trkpt lat="40.532133" lon="-5.106233">
        <ele>2476.0</ele>
        <time>2018-07-29T13:09:28Z</time>
      </trkpt>
      <trkpt lat="40.532183" lon="-5.106067">
        <ele>2474.0</ele>
        <time>2018-07-29T13:09:29Z</time>
      </trkpt>
      <trkpt lat="40.532233" lon="-5.105900">
        <ele>2472.0</ele>
        <time>2018-07-29T13:09:30Z</time>
      </trkpt>
      <trkpt lat="40.532283" lon="-5.105750">
        <ele>2470.0</ele>
        <time>2018-07-29T13:09:31Z</time>
      </trkpt>
      <trkpt lat="40.532333" lon="-5.105600">
        <ele>2468.0</ele>
        <time>2018-07-29T13:09:32Z</time>
      </trkpt>
      <trkpt lat="40.532383" lon="-5.105450">
        <ele>2465.0</ele>
        <time>2018-07-29T13:09:33Z</time>
      </trkpt>
      <trkpt lat="40.532433" lon="-5.105283">
        <ele>2462.0</ele>
        <time>2018-07-29T13:09:34Z</time>
      </trkpt>
      <trkpt lat="40.532500" lon="-5.105117">
        <ele>2458.0</ele>
        <time>2018-07-29T13:09:35Z</time>
      </trkpt>
      <trkpt lat="40.532550" lon="-5.104950">
        <ele>2456.0</ele>
        <time>2018-07-29T13:09:36Z</time>
      </trkpt>
      <trkpt lat="40.532617" lon="-5.104800">
        <ele>2455.0</ele>
        <time>2018-07-29T13:09:37Z</time>
      </trkpt>
      <trkpt lat="40.532683" lon="-5.104667">
        <ele>2454.0</ele>
        <time>2018-07-29T13:09:38Z</time>
      </trkpt>
      <trkpt lat="40.532750" lon="-5.104533">
        <ele>2453.0</ele>
        <time>2018-07-29T13:09:39Z</time>
      </trkpt>
      <trkpt lat="40.532817" lon="-5.104400">
        <ele>2450.0</ele>
        <time>2018-07-29T13:09:40Z</time>
      </trkpt>
      <trkpt lat="40.532883" lon="-5.104267">
        <ele>2447.0</ele>
        <time>2018-07-29T13:09:41Z</time>
      </trkpt>
      <trkpt lat="40.532950" lon="-5.104117">
        <ele>2444.0</ele>
        <time>2018-07-29T13:09:42Z</time>
      </trkpt>
      <trkpt lat="40.533017" lon="-5.103983">
        <ele>2441.0</ele>
        <time>2018-07-29T13:09:43Z</time>
      </trkpt>
      <trkpt lat="40.533100" lon="-5.103850">
        <ele>2439.0</ele>
        <time>2018-07-29T13:09:44Z</time>
      </trkpt>
      <trkpt lat="40.533183" lon="-5.103700">
        <ele>2437.0</ele>
        <time>2018-07-29T13:09:45Z</time>
      </trkpt>
      <trkpt lat="40.533233" lon="-5.103533">
        <ele>2435.0</ele>
        <time>2018-07-29T13:09:46Z</time>
      </trkpt>
      <trkpt lat="40.533267" lon="-5.103350">
        <ele>2433.0</ele>
        <time>2018-07-29T13:09:47Z</time>
      </trkpt>
      <trkpt lat="40.533300" lon="-5.103167">
        <ele>2432.0</ele>
        <time>2018-07-29T13:09:48Z</time>
      </trkpt>
      <trkpt lat="40.533317" lon="-5.103000">
        <ele>2432.0</ele>
        <time>2018-07-29T13:09:49Z</time>
      </trkpt>
      <trkpt lat="40.533350" lon="-5.102850">
        <ele>2433.0</ele>
        <time>2018-07-29T13:09:50Z</time>
      </trkpt>
      <trkpt lat="40.533383" lon="-5.102700">
        <ele>2433.0</ele>
        <time>2018-07-29T13:09:51Z</time>
      </trkpt>
      <trkpt lat="40.533417" lon="-5.102567">
        <ele>2432.0</ele>
        <time>2018-07-29T13:09:52Z</time>
      </trkpt>
      <trkpt lat="40.533433" lon="-5.102417">
        <ele>2430.0</ele>
        <time>2018-07-29T13:09:53Z</time>
      </trkpt>
      <trkpt lat="40.533483" lon="-5.102250">
        <ele>2428.0</ele>
        <time>2018-07-29T13:09:54Z</time>
      </trkpt>
      <trkpt lat="40.533517" lon="-5.102083">
        <ele>2425.0</ele>
        <time>2018-07-29T13:09:55Z</time>
      </trkpt>
      <trkpt lat="40.533583" lon="-5.101917">
        <ele>2424.0</ele>
        <time>2018-07-29T13:09:56Z</time>
      </trkpt>
      <trkpt lat="40.533633" lon="-5.101767">
        <ele>2424.0</ele>
        <time>2018-07-29T13:09:57Z</time>
      </trkpt>
      <trkpt lat="40.533683" lon="-5.101617">
        <ele>2424.0</ele>
        <time>2018-07-29T13:09:58Z</time>
      </trkpt>
      <trkpt lat="40.533750" lon="-5.101483">
        <ele>2424.0</ele>
        <time>2018-07-29T13:09:59Z</time>
      </trkpt>
      <trkpt lat="40.533800" lon="-5.101350">
        <ele>2422.0</ele>
        <time>2018-07-29T13:10:00Z</time>
      </trkpt>
      <trkpt lat="40.533850" lon="-5.101217">
        <ele>2419.0</ele>
        <time>2018-07-29T13:10:01Z</time>
      </trkpt>
      <trkpt lat="40.533917" lon="-5.101067">
        <ele>2417.0</ele>
        <time>2018-07-29T13:10:02Z</time>
      </trkpt>
      <trkpt lat="40.533967" lon="-5.100900">
        <ele>2414.0</ele>
        <time>2018-07-29T13:10:03Z</time>
      </trkpt>
      <trkpt lat="40.534017" lon="-5.100750">
        <ele>2413.0</ele>
        <time>2018-07-29T13:10:04Z</time>
      </trkpt>
      <trkpt lat="40.534067" lon="-5.100583">
        <ele>2412.0</ele>
        <time>2018-07-29T13:10:05Z</time>
      </trkpt>
      <trkpt lat="40.534117" lon="-5.100417">
        <ele>2413.0</ele>
        <time>2018-07-29T13:10:06Z</time>
      </trkpt>
      <trkpt lat="40.534150" lon="-5.100267">
        <ele>2414.0</ele>
        <time>2018-07-29T13:10:07Z</time>
      </trkpt>
      <trkpt lat="40.534183" lon="-5.100117">
        <ele>2415.0</ele>
        <time>2018-07-29T13:10:08Z</time>
      </trkpt>
      <trkpt lat="40.534217" lon="-5.099983">
        <ele>2417.0</ele>
        <time>2018-07-29T13:10:09Z</time>
      </trkpt>
      <trkpt lat="40.534250" lon="-5.099850">
        <ele>2417.0</ele>
        <time>2018-07-29T13:10:10Z</time>
      </trkpt>
      <trkpt lat="40.534283" lon="-5.099733">
        <ele>2416.0</ele>
        <time>2018-07-29T13:10:11Z</time>
      </trkpt>
      <trkpt lat="40.534317" lon="-5.099600">
        <ele>2415.0</ele>
        <time>2018-07-29T13:10:12Z</time>
      </trkpt>
      <trkpt lat="40.534333" lon="-5.099450">
        <ele>2413.0</ele>
        <time>2018-07-29T13:10:13Z</time>
      </trkpt>
      <trkpt lat="40.534350" lon="-5.099300">
        <ele>2411.0</ele>
        <time>2018-07-29T13:10:14Z</time>
      </trkpt>
      <trkpt lat="40.534350" lon="-5.099117">
        <ele>2410.0</ele>
        <time>2018-07-29T13:10:15Z</time>
      </trkpt>
      <trkpt lat="40.534367" lon="-5.098950">
        <ele>2409.0</ele>
        <time>2018-07-29T13:10:16Z</time>
      </trkpt>
      <trkpt lat="40.534400" lon="-5.098783">
        <ele>2408.0</ele>
        <time>2018-07-29T13:10:17Z</time>
      </trkpt>
      <trkpt lat="40.534417" lon="-5.098617">
        <ele>2408.0</ele>
        <time>2018-07-29T13:10:18Z</time>
      </trkpt>
      <trkpt lat="40.534450" lon="-5.098467">
        <ele>2407.0</ele>
        <time>2018-07-29T13:10:19Z</time>
      </trkpt>
      <trkpt lat="40.534483" lon="-5.098333">
        <ele>2404.0</ele>
        <time>2018-07-29T13:10:20Z</time>
      </trkpt>
      <trkpt lat="40.534500" lon="-5.098200">
        <ele>2400.0</ele>
        <time>2018-07-29T13:10:21Z</time>
      </trkpt>
      <trkpt lat="40.534533" lon="-5.098050">
        <ele>2396.0</ele>
        <time>2018-07-29T13:10:22Z</time>
      </trkpt>
      <trkpt lat="40.534550" lon="-5.097900">
        <ele>2391.0</ele>
        <time>2018-07-29T13:10:23Z</time>
      </trkpt>
      <trkpt lat="40.534583" lon="-5.097750">
        <ele>2387.0</ele>
        <time>2018-07-29T13:10:24Z</time>
      </trkpt>
      <trkpt lat="40.534617" lon="-5.097583">
        <ele>2383.0</ele>
        <time>2018-07-29T13:10:25Z</time>
      </trkpt>
      <trkpt lat="40.534650" lon="-5.097417">
        <ele>2380.0</ele>
        <time>2018-07-29T13:10:26Z</time>
      </trkpt>
      <trkpt lat="40.534700" lon="-5.097267">
        <ele>2378.0</ele>
        <time>2018-07-29T13:10:27Z</time>
      </trkpt>
      <trkpt lat="40.534733" lon="-5.097100">
        <ele>2376.0</ele>
        <time>2018-07-29T13:10:28Z</time>
      </trkpt>
      <trkpt lat="40.534767" lon="-5.096950">
        <ele>2374.0</ele>
        <time>2018-07-29T13:10:29Z</time>
      </trkpt>
      <trkpt lat="40.534783" lon="-5.096783">
        <ele>2371.0</ele>
        <time>2018-07-29T13:10:30Z</time>
      </trkpt>
      <trkpt lat="40.534783" lon="-5.096617">
        <ele>2369.0</ele>
        <time>2018-07-29T13:10:31Z</time>
      </trkpt>
      <trkpt lat="40.534767" lon="-5.096450">
        <ele>2366.0</ele>
        <time>2018-07-29T13:10:32Z</time>
      </trkpt>
      <trkpt lat="40.534750" lon="-5.096300">
        <ele>2365.0</ele>
        <time>2018-07-29T13:10:33Z</time>
      </trkpt>
      <trkpt lat="40.534733" lon="-5.096133">
        <ele>2365.0</ele>
        <time>2018-07-29T13:10:34Z</time>
      </trkpt>
      <trkpt lat="40.534717" lon="-5.095983">
        <ele>2365.0</ele>
        <time>2018-07-29T13:10:35Z</time>
      </trkpt>
      <trkpt lat="40.534700" lon="-5.095833">
        <ele>2366.0</ele>
        <time>2018-07-29T13:10:36Z</time>
      </trkpt>
      <trkpt lat="40.534700" lon="-5.095700">
        <ele>2365.0</ele>
        <time>2018-07-29T13:10:37Z</time>
      </trkpt>
      <trkpt lat="40.534700" lon="-5.095550">
        <ele>2363.0</ele>
        <time>2018-07-29T13:10:38Z</time>
      </trkpt>
      <trkpt lat="40.534683" lon="-5.095400">
        <ele>2361.0</ele>
        <time>2018-07-29T13:10:39Z</time>
      </trkpt>
      <trkpt lat="40.534683" lon="-5.095233">
        <ele>2358.0</ele>
        <time>2018-07-29T13:10:40Z</time>
      </trkpt>
      <trkpt lat="40.534683" lon="-5.095067">
        <ele>2356.0</ele>
        <time>2018-07-29T13:10:41Z</time>
      </trkpt>
      <trkpt lat="40.534683" lon="-5.094883">
        <ele>2355.0</ele>
        <time>2018-07-29T13:10:42Z</time>
      </trkpt>
      <trkpt lat="40.534700" lon="-5.094717">
        <ele>2355.0</ele>
        <time>2018-07-29T13:10:43Z</time>
      </trkpt>
      <trkpt lat="40.534717" lon="-5.094550">
        <ele>2356.0</ele>
        <time>2018-07-29T13:10:44Z</time>
      </trkpt>
      <trkpt lat="40.534717" lon="-5.094383">
        <ele>2355.0</ele>
        <time>2018-07-29T13:10:45Z</time>
      </trkpt>
      <trkpt lat="40.534717" lon="-5.094217">
        <ele>2354.0</ele>
        <time>2018-07-29T13:10:46Z</time>
      </trkpt>
      <trkpt lat="40.534717" lon="-5.094033">
        <ele>2354.0</ele>
        <time>2018-07-29T13:10:47Z</time>
      </trkpt>
      <trkpt lat="40.534717" lon="-5.093867">
        <ele>2353.0</ele>
        <time>2018-07-29T13:10:48Z</time>
      </trkpt>
      <trkpt lat="40.534700" lon="-5.093683">
        <ele>2353.0</ele>
        <time>2018-07-29T13:10:49Z</time>
      </trkpt>
      <trkpt lat="40.534700" lon="-5.093517">
        <ele>2354.0</ele>
        <time>2018-07-29T13:10:50Z</time>
      </trkpt>
      <trkpt lat="40.534717" lon="-5.093367">
        <ele>2355.0</ele>
        <time>2018-07-29T13:10:51Z</time>
      </trkpt>
      <trkpt lat="40.534717" lon="-5.093200">
        <ele>2355.0</ele>
        <time>2018-07-29T13:10:52Z</time>
      </trkpt>
      <trkpt lat="40.534717" lon="-5.093050">
        <ele>2355.0</ele>
        <time>2018-07-29T13:10:53Z</time>
      </trkpt>
      <trkpt lat="40.534717" lon="-5.092900">
        <ele>2355.0</ele>
        <time>2018-07-29T13:10:54Z</time>
      </trkpt>
      <trkpt lat="40.534717" lon="-5.092750">
        <ele>2355.0</ele>
        <time>2018-07-29T13:10:55Z</time>
      </trkpt>
      <trkpt lat="40.534717" lon="-5.092583">
        <ele>2355.0</ele>
        <time>2018-07-29T13:10:56Z</time>
      </trkpt>
      <trkpt lat="40.534700" lon="-5.092433">
        <ele>2354.0</ele>
        <time>2018-07-29T13:10:57Z</time>
      </trkpt>
      <trkpt lat="40.534683" lon="-5.092267">
        <ele>2353.0</ele>
        <time>2018-07-29T13:10:58Z</time>
      </trkpt>
      <trkpt lat="40.534683" lon="-5.092100">
        <ele>2353.0</ele>
        <time>2018-07-29T13:10:59Z</time>
      </trkpt>
      <trkpt lat="40.534683" lon="-5.091933">
        <ele>2353.0</ele>
        <time>2018-07-29T13:11:00Z</time>
      </trkpt>
      <trkpt lat="40.534683" lon="-5.091783">
        <ele>2354.0</ele>
        <time>2018-07-29T13:11:01Z</time>
      </trkpt>
      <trkpt lat="40.534683" lon="-5.091633">
        <ele>2354.0</ele>
        <time>2018-07-29T13:11:02Z</time>
      </trkpt>
      <trkpt lat="40.534683" lon="-5.091483">
        <ele>2353.0</ele>
        <time>2018-07-29T13:11:03Z</time>
      </trkpt>
      <trkpt lat="40.534683" lon="-5.091333">
        <ele>2352.0</ele>
        <time>2018-07-29T13:11:04Z</time>
      </trkpt>
      <trkpt lat="40.534700" lon="-5.091183">
        <ele>2350.0</ele>
        <time>2018-07-29T13:11:05Z</time>
      </trkpt>
      <trkpt lat="40.534733" lon="-5.091017">
        <ele>2349.0</ele>
        <time>2018-07-29T13:11:06Z</time>
      </trkpt>
      <trkpt lat="40.534767" lon="-5.090867">
        <ele>2348.0</ele>
        <time>2018-07-29T13:11:07Z</time>
      </trkpt>
      <trkpt lat="40.534800" lon="-5.090700">
        <ele>2348.0</ele>
        <time>2018-07-29T13:11:08Z</time>
      </trkpt>
      <trkpt lat="40.534850" lon="-5.090550">
        <ele>2347.0</ele>
        <time>2018-07-29T13:11:09Z</time>
      </trkpt>
      <trkpt lat="40.534900" lon="-5.090417">
        <ele>2346.0</ele>
        <time>2018-07-29T13:11:10Z</time>
      </trkpt>
      <trkpt lat="40.534950" lon="-5.090267">
        <ele>2346.0</ele>
        <time>2018-07-29T13:11:11Z</time>
      </trkpt>
      <trkpt lat="40.535000" lon="-5.090117">
        <ele>2344.0</ele>
        <time>2018-07-29T13:11:12Z</time>
      </trkpt>
      <trkpt lat="40.535050" lon="-5.089967">
        <ele>2343.0</ele>
        <time>2018-07-29T13:11:13Z</time>
      </trkpt>
      <trkpt lat="40.535100" lon="-5.089817">
        <ele>2342.0</ele>
        <time>2018-07-29T13:11:14Z</time>
      </trkpt>
      <trkpt lat="40.535117" lon="-5.089650">
        <ele>2341.0</ele>
        <time>2018-07-29T13:11:15Z</time>
      </trkpt>
      <trkpt lat="40.535117" lon="-5.089483">
        <ele>2340.0</ele>
        <time>2018-07-29T13:11:16Z</time>
      </trkpt>
      <trkpt lat="40.535117" lon="-5.089317">
        <ele>2340.0</ele>
        <time>2018-07-29T13:11:17Z</time>
      </trkpt>
      <trkpt lat="40.535100" lon="-5.089167">
        <ele>2339.0</ele>
        <time>2018-07-29T13:11:18Z</time>
      </trkpt>
      <trkpt lat="40.535083" lon="-5.089000">
        <ele>2339.0</ele>
        <time>2018-07-29T13:11:19Z</time>
      </trkpt>
      <trkpt lat="40.535050" lon="-5.088850">
        <ele>2339.0</ele>
        <time>2018-07-29T13:11:20Z</time>
      </trkpt>
      <trkpt lat="40.535033" lon="-5.088700">
        <ele>2338.0</ele>
        <time>2018-07-29T13:11:21Z</time>
      </trkpt>
      <trkpt lat="40.535000" lon="-5.088533">
        <ele>2337.0</ele>
        <time>2018-07-29T13:11:22Z</time>
      </trkpt>
      <trkpt lat="40.534967" lon="-5.088383">
        <ele>2336.0</ele>
        <time>2018-07-29T13:11:23Z</time>
      </trkpt>
      <trkpt lat="40.534950" lon="-5.088217">
        <ele>2335.0</ele>
        <time>2018-07-29T13:11:24Z</time>
      </trkpt>
      <trkpt lat="40.534933" lon="-5.088050">
        <ele>2335.0</ele>
        <time>2018-07-29T13:11:25Z</time>
      </trkpt>
      <trkpt lat="40.534917" lon="-5.087900">
        <ele>2334.0</ele>
        <time>2018-07-29T13:11:26Z</time>
      </trkpt>
      <trkpt lat="40.534900" lon="-5.087733">
        <ele>2333.0</ele>
        <time>2018-07-29T13:11:27Z</time>
      </trkpt>
      <trkpt lat="40.534883" lon="-5.087583">
        <ele>2332.0</ele>
        <time>2018-07-29T13:11:28Z</time>
      </trkpt>
      <trkpt lat="40.534867" lon="-5.087433">
        <ele>2331.0</ele>
        <time>2018-07-29T13:11:29Z</time>
      </trkpt>
      <trkpt lat="40.534867" lon="-5.087267">
        <ele>2330.0</ele>
        <time>2018-07-29T13:11:30Z</time>
      </trkpt>
      <trkpt lat="40.534867" lon="-5.087100">
        <ele>2329.0</ele>
        <time>2018-07-29T13:11:31Z</time>
      </trkpt>
      <trkpt lat="40.534867" lon="-5.086933">
        <ele>2328.0</ele>
        <time>2018-07-29T13:11:32Z</time>
      </trkpt>
      <trkpt lat="40.534867" lon="-5.086767">
        <ele>2327.0</ele>
        <time>2018-07-29T13:11:33Z</time>
      </trkpt>
      <trkpt lat="40.534883" lon="-5.086600">
        <ele>2326.0</ele>
        <time>2018-07-29T13:11:34Z</time>
      </trkpt>
      <trkpt lat="40.534900" lon="-5.086433">
        <ele>2324.0</ele>
        <time>2018-07-29T13:11:35Z</time>
      </trkpt>
      <trkpt lat="40.534917" lon="-5.086250">
        <ele>2323.0</ele>
        <time>2018-07-29T13:11:36Z</time>
      </trkpt>
      <trkpt lat="40.534933" lon="-5.086067">
        <ele>2321.0</ele>
        <time>2018-07-29T13:11:37Z</time>
      </trkpt>
      <trkpt lat="40.534950" lon="-5.085883">
        <ele>2320.0</ele>
        <time>2018-07-29T13:11:38Z</time>
      </trkpt>
      <trkpt lat="40.534983" lon="-5.085700">
        <ele>2319.0</ele>
        <time>2018-07-29T13:11:39Z</time>
      </trkpt>
      <trkpt lat="40.535017" lon="-5.085533">
        <ele>2319.0</ele>
        <time>2018-07-29T13:11:40Z</time>
      </trkpt>
      <trkpt lat="40.535033" lon="-5.085367">
        <ele>2318.0</ele>
        <time>2018-07-29T13:11:41Z</time>
      </trkpt>
      <trkpt lat="40.535067" lon="-5.085200">
        <ele>2317.0</ele>
        <time>2018-07-29T13:11:42Z</time>
      </trkpt>
      <trkpt lat="40.535100" lon="-5.085033">
        <ele>2316.0</ele>
        <time>2018-07-29T13:11:43Z</time>
      </trkpt>
      <trkpt lat="40.535133" lon="-5.084850">
        <ele>2315.0</ele>
        <time>2018-07-29T13:11:44Z</time>
      </trkpt>
      <trkpt lat="40.535167" lon="-5.084683">
        <ele>2314.0</ele>
        <time>2018-07-29T13:11:45Z</time>
      </trkpt>
      <trkpt lat="40.535200" lon="-5.084500">
        <ele>2313.0</ele>
        <time>2018-07-29T13:11:46Z</time>
      </trkpt>
      <trkpt lat="40.535233" lon="-5.084333">
        <ele>2312.0</ele>
        <time>2018-07-29T13:11:47Z</time>
      </trkpt>
      <trkpt lat="40.535250" lon="-5.084167">
        <ele>2312.0</ele>
        <time>2018-07-29T13:11:48Z</time>
      </trkpt>
      <trkpt lat="40.535267" lon="-5.083983">
        <ele>2311.0</ele>
        <time>2018-07-29T13:11:49Z</time>
      </trkpt>
      <trkpt lat="40.535300" lon="-5.083817">
        <ele>2310.0</ele>
        <time>2018-07-29T13:11:50Z</time>
      </trkpt>
      <trkpt lat="40.535317" lon="-5.083650">
        <ele>2308.0</ele>
        <time>2018-07-29T13:11:51Z</time>
      </trkpt>
      <trkpt lat="40.535350" lon="-5.083483">
        <ele>2306.0</ele>
        <time>2018-07-29T13:11:52Z</time>
      </trkpt>
      <trkpt lat="40.535383" lon="-5.083300">
        <ele>2305.0</ele>
        <time>2018-07-29T13:11:53Z</time>
      </trkpt>
      <trkpt lat="40.535417" lon="-5.083133">
        <ele>2304.0</ele>
        <time>2018-07-29T13:11:54Z</time>
      </trkpt>
      <trkpt lat="40.535450" lon="-5.082950">
        <ele>2303.0</ele>
        <time>2018-07-29T13:11:55Z</time>
      </trkpt>
      <trkpt lat="40.535467" lon="-5.082783">
        <ele>2302.0</ele>
        <time>2018-07-29T13:11:56Z</time>
      </trkpt>
      <trkpt lat="40.535517" lon="-5.082617">
        <ele>2301.0</ele>
        <time>2018-07-29T13:11:57Z</time>
      </trkpt>
      <trkpt lat="40.535550" lon="-5.082433">
        <ele>2300.0</ele>
        <time>2018-07-29T13:11:58Z</time>
      </trkpt>
      <trkpt lat="40.535600" lon="-5.082267">
        <ele>2299.0</ele>
        <time>2018-07-29T13:11:59Z</time>
      </trkpt>
      <trkpt lat="40.535633" lon="-5.082117">
        <ele>2297.0</ele>
        <time>2018-07-29T13:12:00Z</time>
      </trkpt>
      <trkpt lat="40.535683" lon="-5.081950">
        <ele>2296.0</ele>
        <time>2018-07-29T13:12:01Z</time>
      </trkpt>
      <trkpt lat="40.535750" lon="-5.081783">
        <ele>2294.0</ele>
        <time>2018-07-29T13:12:02Z</time>
      </trkpt>
      <trkpt lat="40.535800" lon="-5.081633">
        <ele>2293.0</ele>
        <time>2018-07-29T13:12:03Z</time>
      </trkpt>
      <trkpt lat="40.535883" lon="-5.081483">
        <ele>2291.0</ele>
        <time>2018-07-29T13:12:04Z</time>
      </trkpt>
      <trkpt lat="40.535950" lon="-5.081333">
        <ele>2290.0</ele>
        <time>2018-07-29T13:12:05Z</time>
      </trkpt>
      <trkpt lat="40.536017" lon="-5.081183">
        <ele>2288.0</ele>
        <time>2018-07-29T13:12:06Z</time>
      </trkpt>
      <trkpt lat="40.536083" lon="-5.081033">
        <ele>2287.0</ele>
        <time>2018-07-29T13:12:07Z</time>
      </trkpt>
      <trkpt lat="40.536167" lon="-5.080883">
        <ele>2285.0</ele>
        <time>2018-07-29T13:12:08Z</time>
      </trkpt>
      <trkpt lat="40.536250" lon="-5.080733">
        <ele>2282.0</ele>
        <time>2018-07-29T13:12:09Z</time>
      </trkpt>
      <trkpt lat="40.536333" lon="-5.080600">
        <ele>2280.0</ele>
        <time>2018-07-29T13:12:10Z</time>
      </trkpt>
      <trkpt lat="40.536417" lon="-5.080450">
        <ele>2278.0</ele>
        <time>2018-07-29T13:12:11Z</time>
      </trkpt>
      <trkpt lat="40.536483" lon="-5.080283">
        <ele>2277.0</ele>
        <time>2018-07-29T13:12:12Z</time>
      </trkpt>
      <trkpt lat="40.536567" lon="-5.080117">
        <ele>2275.0</ele>
        <time>2018-07-29T13:12:13Z</time>
      </trkpt>
      <trkpt lat="40.536617" lon="-5.079950">
        <ele>2273.0</ele>
        <time>2018-07-29T13:12:14Z</time>
      </trkpt>
      <trkpt lat="40.536683" lon="-5.079767">
        <ele>2272.0</ele>
        <time>2018-07-29T13:12:15Z</time>
      </trkpt>
      <trkpt lat="40.536733" lon="-5.079600">
        <ele>2271.0</ele>
        <time>2018-07-29T13:12:16Z</time>
      </trkpt>
      <trkpt lat="40.536767" lon="-5.079417">
        <ele>2270.0</ele>
        <time>2018-07-29T13:12:17Z</time>
      </trkpt>
      <trkpt lat="40.536817" lon="-5.079250">
        <ele>2268.0</ele>
        <time>2018-07-29T13:12:18Z</time>
      </trkpt>
      <trkpt lat="40.536833" lon="-5.079067">
        <ele>2266.0</ele>
        <time>2018-07-29T13:12:19Z</time>
      </trkpt>
      <trkpt lat="40.536867" lon="-5.078883">
        <ele>2263.0</ele>
        <time>2018-07-29T13:12:20Z</time>
      </trkpt>
      <trkpt lat="40.536883" lon="-5.078683">
        <ele>2261.0</ele>
        <time>2018-07-29T13:12:21Z</time>
      </trkpt>
      <trkpt lat="40.536900" lon="-5.078500">
        <ele>2260.0</ele>
        <time>2018-07-29T13:12:22Z</time>
      </trkpt>
      <trkpt lat="40.536917" lon="-5.078317">
        <ele>2258.0</ele>
        <time>2018-07-29T13:12:23Z</time>
      </trkpt>
      <trkpt lat="40.536933" lon="-5.078133">
        <ele>2257.0</ele>
        <time>2018-07-29T13:12:24Z</time>
      </trkpt>
      <trkpt lat="40.536967" lon="-5.077950">
        <ele>2256.0</ele>
        <time>2018-07-29T13:12:25Z</time>
      </trkpt>
      <trkpt lat="40.536983" lon="-5.077783">
        <ele>2255.0</ele>
        <time>2018-07-29T13:12:26Z</time>
      </trkpt>
      <trkpt lat="40.537017" lon="-5.077617">
        <ele>2253.0</ele>
        <time>2018-07-29T13:12:27Z</time>
      </trkpt>
      <trkpt lat="40.537050" lon="-5.077433">
        <ele>2252.0</ele>
        <time>2018-07-29T13:12:28Z</time>
      </trkpt>
      <trkpt lat="40.537083" lon="-5.077250">
        <ele>2250.0</ele>
        <time>2018-07-29T13:12:29Z</time>
      </trkpt>
      <trkpt lat="40.537133" lon="-5.077083">
        <ele>2249.0</ele>
        <time>2018-07-29T13:12:30Z</time>
      </trkpt>
      <trkpt lat="40.537200" lon="-5.076917">
        <ele>2248.0</ele>
        <time>2018-07-29T13:12:31Z</time>
      </trkpt>
      <trkpt lat="40.537267" lon="-5.076767">
        <ele>2248.0</ele>
        <time>2018-07-29T13:12:32Z</time>
      </trkpt>
      <trkpt lat="40.537317" lon="-5.076617">
        <ele>2248.0</ele>
        <time>2018-07-29T13:12:33Z</time>
      </trkpt>
      <trkpt lat="40.537383" lon="-5.076467">
        <ele>2247.0</ele>
        <time>2018-07-29T13:12:34Z</time>
      </trkpt>
      <trkpt lat="40.537433" lon="-5.076317">
        <ele>2245.0</ele>
        <time>2018-07-29T13:12:35Z</time>
      </trkpt>
      <trkpt lat="40.537483" lon="-5.076150">
        <ele>2243.0</ele>
        <time>2018-07-29T13:12:36Z</time>
      </trkpt>
      <trkpt lat="40.537533" lon="-5.075983">
        <ele>2241.0</ele>
        <time>2018-07-29T13:12:37Z</time>
      </trkpt>
      <trkpt lat="40.537600" lon="-5.075833">
        <ele>2239.0</ele>
        <time>2018-07-29T13:12:38Z</time>
      </trkpt>
      <trkpt lat="40.537650" lon="-5.075667">
        <ele>2236.0</ele>
        <time>2018-07-29T13:12:39Z</time>
      </trkpt>
      <trkpt lat="40.537717" lon="-5.075500">
        <ele>2235.0</ele>
        <time>2018-07-29T13:12:40Z</time>
      </trkpt>
      <trkpt lat="40.537783" lon="-5.075333">
        <ele>2233.0</ele>
        <time>2018-07-29T13:12:41Z</time>
      </trkpt>
      <trkpt lat="40.537850" lon="-5.075183">
        <ele>2233.0</ele>
        <time>2018-07-29T13:12:42Z</time>
      </trkpt>
      <trkpt lat="40.537917" lon="-5.075017">
        <ele>2232.0</ele>
        <time>2018-07-29T13:12:43Z</time>
      </trkpt>
      <trkpt lat="40.537967" lon="-5.074850">
        <ele>2232.0</ele>
        <time>2018-07-29T13:12:44Z</time>
      </trkpt>
      <trkpt lat="40.538033" lon="-5.074683">
        <ele>2231.0</ele>
        <time>2018-07-29T13:12:45Z</time>
      </trkpt>
      <trkpt lat="40.538083" lon="-5.074517">
        <ele>2231.0</ele>
        <time>2018-07-29T13:12:46Z</time>
      </trkpt>
      <trkpt lat="40.538133" lon="-5.074350">
        <ele>2229.0</ele>
        <time>2018-07-29T13:12:47Z</time>
      </trkpt>
      <trkpt lat="40.538200" lon="-5.074183">
        <ele>2228.0</ele>
        <time>2018-07-29T13:12:48Z</time>
      </trkpt>
      <trkpt lat="40.538233" lon="-5.074017">
        <ele>2227.0</ele>
        <time>2018-07-29T13:12:49Z</time>
      </trkpt>
      <trkpt lat="40.538283" lon="-5.073833">
        <ele>2226.0</ele>
        <time>2018-07-29T13:12:50Z</time>
      </trkpt>
      <trkpt lat="40.538333" lon="-5.073667">
        <ele>2225.0</ele>
        <time>2018-07-29T13:12:51Z</time>
      </trkpt>
      <trkpt lat="40.538400" lon="-5.073517">
        <ele>2223.0</ele>
        <time>2018-07-29T13:12:52Z</time>
      </trkpt>
      <trkpt lat="40.538450" lon="-5.073350">
        <ele>2221.0</ele>
        <time>2018-07-29T13:12:53Z</time>
      </trkpt>
      <trkpt lat="40.538500" lon="-5.073183">
        <ele>2218.0</ele>
        <time>2018-07-29T13:12:54Z</time>
      </trkpt>
      <trkpt lat="40.538550" lon="-5.073000">
        <ele>2215.0</ele>
        <time>2018-07-29T13:12:55Z</time>
      </trkpt>
      <trkpt lat="40.538583" lon="-5.072817">
        <ele>2212.0</ele>
        <time>2018-07-29T13:12:56Z</time>
      </trkpt>
      <trkpt lat="40.538617" lon="-5.072633">
        <ele>2209.0</ele>
        <time>2018-07-29T13:12:57Z</time>
      </trkpt>
      <trkpt lat="40.538633" lon="-5.072433">
        <ele>2207.0</ele>
        <time>2018-07-29T13:12:58Z</time>
      </trkpt>
      <trkpt lat="40.538650" lon="-5.072250">
        <ele>2206.0</ele>
        <time>2018-07-29T13:12:59Z</time>
      </trkpt>
      <trkpt lat="40.538683" lon="-5.072067">
        <ele>2204.0</ele>
        <time>2018-07-29T13:13:00Z</time>
      </trkpt>
      <trkpt lat="40.538700" lon="-5.071900">
        <ele>2203.0</ele>
        <time>2018-07-29T13:13:01Z</time>
      </trkpt>
      <trkpt lat="40.538717" lon="-5.071750">
        <ele>2201.0</ele>
        <time>2018-07-29T13:13:02Z</time>
      </trkpt>
      <trkpt lat="40.538733" lon="-5.071583">
        <ele>2197.0</ele>
        <time>2018-07-29T13:13:03Z</time>
      </trkpt>
      <trkpt lat="40.538750" lon="-5.071417">
        <ele>2194.0</ele>
        <time>2018-07-29T13:13:04Z</time>
      </trkpt>
      <trkpt lat="40.538767" lon="-5.071233">
        <ele>2190.0</ele>
        <time>2018-07-29T13:13:05Z</time>
      </trkpt>
      <trkpt lat="40.538800" lon="-5.071033">
        <ele>2187.0</ele>
        <time>2018-07-29T13:13:06Z</time>
      </trkpt>
      <trkpt lat="40.538817" lon="-5.070833">
        <ele>2184.0</ele>
        <time>2018-07-29T13:13:07Z</time>
      </trkpt>
      <trkpt lat="40.538833" lon="-5.070633">
        <ele>2181.0</ele>
        <time>2018-07-29T13:13:08Z</time>
      </trkpt>
      <trkpt lat="40.538850" lon="-5.070450">
        <ele>2179.0</ele>
        <time>2018-07-29T13:13:09Z</time>
      </trkpt>
      <trkpt lat="40.538867" lon="-5.070267">
        <ele>2177.0</ele>
        <time>2018-07-29T13:13:10Z</time>
      </trkpt>
      <trkpt lat="40.538883" lon="-5.070067">
        <ele>2174.0</ele>
        <time>2018-07-29T13:13:11Z</time>
      </trkpt>
      <trkpt lat="40.538883" lon="-5.069867">
        <ele>2170.0</ele>
        <time>2018-07-29T13:13:12Z</time>
      </trkpt>
      <trkpt lat="40.538883" lon="-5.069667">
        <ele>2168.0</ele>
        <time>2018-07-29T13:13:13Z</time>
      </trkpt>
      <trkpt lat="40.538900" lon="-5.069450">
        <ele>2166.0</ele>
        <time>2018-07-29T13:13:14Z</time>
      </trkpt>
      <trkpt lat="40.538900" lon="-5.069250">
        <ele>2165.0</ele>
        <time>2018-07-29T13:13:15Z</time>
      </trkpt>
      <trkpt lat="40.538917" lon="-5.069067">
        <ele>2164.0</ele>
        <time>2018-07-29T13:13:16Z</time>
      </trkpt>
      <trkpt lat="40.538917" lon="-5.068883">
        <ele>2162.0</ele>
        <time>2018-07-29T13:13:17Z</time>
      </trkpt>
      <trkpt lat="40.538933" lon="-5.068683">
        <ele>2160.0</ele>
        <time>2018-07-29T13:13:18Z</time>
      </trkpt>
      <trkpt lat="40.538933" lon="-5.068500">
        <ele>2158.0</ele>
        <time>2018-07-29T13:13:19Z</time>
      </trkpt>
      <trkpt lat="40.538950" lon="-5.068333">
        <ele>2156.0</ele>
        <time>2018-07-29T13:13:20Z</time>
      </trkpt>
      <trkpt lat="40.538967" lon="-5.068150">
        <ele>2153.0</ele>
        <time>2018-07-29T13:13:21Z</time>
      </trkpt>
      <trkpt lat="40.538983" lon="-5.067967">
        <ele>2149.0</ele>
        <time>2018-07-29T13:13:22Z</time>
      </trkpt>
      <trkpt lat="40.539000" lon="-5.067767">
        <ele>2146.0</ele>
        <time>2018-07-29T13:13:23Z</time>
      </trkpt>
      <trkpt lat="40.539000" lon="-5.067567">
        <ele>2142.0</ele>
        <time>2018-07-29T13:13:24Z</time>
      </trkpt>
      <trkpt lat="40.539033" lon="-5.067383">
        <ele>2140.0</ele>
        <time>2018-07-29T13:13:25Z</time>
      </trkpt>
      <trkpt lat="40.539050" lon="-5.067200">
        <ele>2137.0</ele>
        <time>2018-07-29T13:13:26Z</time>
      </trkpt>
      <trkpt lat="40.539067" lon="-5.067000">
        <ele>2134.0</ele>
        <time>2018-07-29T13:13:27Z</time>
      </trkpt>
      <trkpt lat="40.539100" lon="-5.066817">
        <ele>2132.0</ele>
        <time>2018-07-29T13:13:28Z</time>
      </trkpt>
      <trkpt lat="40.539117" lon="-5.066633">
        <ele>2129.0</ele>
        <time>2018-07-29T13:13:29Z</time>
      </trkpt>
      <trkpt lat="40.539133" lon="-5.066450">
        <ele>2126.0</ele>
        <time>2018-07-29T13:13:30Z</time>
      </trkpt>
      <trkpt lat="40.539150" lon="-5.066250">
        <ele>2124.0</ele>
        <time>2018-07-29T13:13:31Z</time>
      </trkpt>
      <trkpt lat="40.539167" lon="-5.066067">
        <ele>2121.0</ele>
        <time>2018-07-29T13:13:32Z</time>
      </trkpt>
      <trkpt lat="40.539183" lon="-5.065883">
        <ele>2119.0</ele>
        <time>2018-07-29T13:13:33Z</time>
      </trkpt>
      <trkpt lat="40.539183" lon="-5.065683">
        <ele>2116.0</ele>
        <time>2018-07-29T13:13:34Z</time>
      </trkpt>
      <trkpt lat="40.539200" lon="-5.065483">
        <ele>2113.0</ele>
        <time>2018-07-29T13:13:35Z</time>
      </trkpt>
      <trkpt lat="40.539217" lon="-5.065283">
        <ele>2111.0</ele>
        <time>2018-07-29T13:13:36Z</time>
      </trkpt>
      <trkpt lat="40.539233" lon="-5.065100">
        <ele>2109.0</ele>
        <time>2018-07-29T13:13:37Z</time>
      </trkpt>
      <trkpt lat="40.539233" lon="-5.064917">
        <ele>2107.0</ele>
        <time>2018-07-29T13:13:38Z</time>
      </trkpt>
      <trkpt lat="40.539250" lon="-5.064733">
        <ele>2105.0</ele>
        <time>2018-07-29T13:13:39Z</time>
      </trkpt>
      <trkpt lat="40.539283" lon="-5.064550">
        <ele>2102.0</ele>
        <time>2018-07-29T13:13:40Z</time>
      </trkpt>
      <trkpt lat="40.539300" lon="-5.064367">
        <ele>2099.0</ele>
        <time>2018-07-29T13:13:41Z</time>
      </trkpt>
      <trkpt lat="40.539333" lon="-5.064167">
        <ele>2095.0</ele>
        <time>2018-07-29T13:13:42Z</time>
      </trkpt>
      <trkpt lat="40.539367" lon="-5.063967">
        <ele>2092.0</ele>
        <time>2018-07-29T13:13:43Z</time>
      </trkpt>
      <trkpt lat="40.539400" lon="-5.063767">
        <ele>2090.0</ele>
        <time>2018-07-29T13:13:44Z</time>
      </trkpt>
      <trkpt lat="40.539433" lon="-5.063583">
        <ele>2087.0</ele>
        <time>2018-07-29T13:13:45Z</time>
      </trkpt>
      <trkpt lat="40.539467" lon="-5.063383">
        <ele>2085.0</ele>
        <time>2018-07-29T13:13:46Z</time>
      </trkpt>
      <trkpt lat="40.539483" lon="-5.063200">
        <ele>2082.0</ele>
        <time>2018-07-29T13:13:47Z</time>
      </trkpt>
      <trkpt lat="40.539533" lon="-5.063017">
        <ele>2079.0</ele>
        <time>2018-07-29T13:13:48Z</time>
      </trkpt>
      <trkpt lat="40.539567" lon="-5.062817">
        <ele>2075.0</ele>
        <time>2018-07-29T13:13:49Z</time>
      </trkpt>
      <trkpt lat="40.539583" lon="-5.062617">
        <ele>2072.0</ele>
        <time>2018-07-29T13:13:50Z</time>
      </trkpt>
      <trkpt lat="40.539600" lon="-5.062400">
        <ele>2068.0</ele>
        <time>2018-07-29T13:13:51Z</time>
      </trkpt>
      <trkpt lat="40.539617" lon="-5.062183">
        <ele>2066.0</ele>
        <time>2018-07-29T13:13:52Z</time>
      </trkpt>
      <trkpt lat="40.539633" lon="-5.061967">
        <ele>2064.0</ele>
        <time>2018-07-29T13:13:53Z</time>
      </trkpt>
      <trkpt lat="40.539633" lon="-5.061750">
        <ele>2062.0</ele>
        <time>2018-07-29T13:13:54Z</time>
      </trkpt>
      <trkpt lat="40.539633" lon="-5.061550">
        <ele>2061.0</ele>
        <time>2018-07-29T13:13:55Z</time>
      </trkpt>
      <trkpt lat="40.539633" lon="-5.061333">
        <ele>2059.0</ele>
        <time>2018-07-29T13:13:56Z</time>
      </trkpt>
      <trkpt lat="40.539617" lon="-5.061133">
        <ele>2057.0</ele>
        <time>2018-07-29T13:13:57Z</time>
      </trkpt>
      <trkpt lat="40.539617" lon="-5.060950">
        <ele>2056.0</ele>
        <time>2018-07-29T13:13:58Z</time>
      </trkpt>
      <trkpt lat="40.539600" lon="-5.060750">
        <ele>2053.0</ele>
        <time>2018-07-29T13:13:59Z</time>
      </trkpt>
      <trkpt lat="40.539600" lon="-5.060567">
        <ele>2050.0</ele>
        <time>2018-07-29T13:14:00Z</time>
      </trkpt>
      <trkpt lat="40.539600" lon="-5.060367">
        <ele>2046.0</ele>
        <time>2018-07-29T13:14:01Z</time>
      </trkpt>
      <trkpt lat="40.539583" lon="-5.060167">
        <ele>2042.0</ele>
        <time>2018-07-29T13:14:02Z</time>
      </trkpt>
      <trkpt lat="40.539567" lon="-5.059967">
        <ele>2039.0</ele>
        <time>2018-07-29T13:14:03Z</time>
      </trkpt>
      <trkpt lat="40.539567" lon="-5.059750">
        <ele>2036.0</ele>
        <time>2018-07-29T13:14:04Z</time>
      </trkpt>
      <trkpt lat="40.539567" lon="-5.059533">
        <ele>2033.0</ele>
        <time>2018-07-29T13:14:05Z</time>
      </trkpt>
      <trkpt lat="40.539583" lon="-5.059317">
        <ele>2032.0</ele>
        <time>2018-07-29T13:14:06Z</time>
      </trkpt>
      <trkpt lat="40.539583" lon="-5.059117">
        <ele>2031.0</ele>
        <time>2018-07-29T13:14:07Z</time>
      </trkpt>
      <trkpt lat="40.539567" lon="-5.058917">
        <ele>2029.0</ele>
        <time>2018-07-29T13:14:08Z</time>
      </trkpt>
      <trkpt lat="40.539567" lon="-5.058700">
        <ele>2027.0</ele>
        <time>2018-07-29T13:14:09Z</time>
      </trkpt>
      <trkpt lat="40.539567" lon="-5.058483">
        <ele>2025.0</ele>
        <time>2018-07-29T13:14:10Z</time>
      </trkpt>
      <trkpt lat="40.539567" lon="-5.058267">
        <ele>2024.0</ele>
        <time>2018-07-29T13:14:11Z</time>
      </trkpt>
      <trkpt lat="40.539583" lon="-5.058033">
        <ele>2023.0</ele>
        <time>2018-07-29T13:14:12Z</time>
      </trkpt>
      <trkpt lat="40.539567" lon="-5.057817">
        <ele>2023.0</ele>
        <time>2018-07-29T13:14:13Z</time>
      </trkpt>
      <trkpt lat="40.539550" lon="-5.057583">
        <ele>2022.0</ele>
        <time>2018-07-29T13:14:14Z</time>
      </trkpt>
      <trkpt lat="40.539533" lon="-5.057350">
        <ele>2022.0</ele>
        <time>2018-07-29T13:14:15Z</time>
      </trkpt>
      <trkpt lat="40.539517" lon="-5.057133">
        <ele>2022.0</ele>
        <time>2018-07-29T13:14:16Z</time>
      </trkpt>
      <trkpt lat="40.539500" lon="-5.056917">
        <ele>2021.0</ele>
        <time>2018-07-29T13:14:17Z</time>
      </trkpt>
      <trkpt lat="40.539483" lon="-5.056700">
        <ele>2020.0</ele>
        <time>2018-07-29T13:14:18Z</time>
      </trkpt>
      <trkpt lat="40.539483" lon="-5.056500">
        <ele>2019.0</ele>
        <time>2018-07-29T13:14:19Z</time>
      </trkpt>
      <trkpt lat="40.539483" lon="-5.056283">
        <ele>2017.0</ele>
        <time>2018-07-29T13:14:20Z</time>
      </trkpt>
      <trkpt lat="40.539483" lon="-5.056067">
        <ele>2014.0</ele>
        <time>2018-07-29T13:14:21Z</time>
      </trkpt>
      <trkpt lat="40.539467" lon="-5.055867">
        <ele>2011.0</ele>
        <time>2018-07-29T13:14:22Z</time>
      </trkpt>
      <trkpt lat="40.539467" lon="-5.055667">
        <ele>2010.0</ele>
        <time>2018-07-29T13:14:23Z</time>
      </trkpt>
      <trkpt lat="40.539450" lon="-5.055467">
        <ele>2007.0</ele>
        <time>2018-07-29T13:14:24Z</time>
      </trkpt>
      <trkpt lat="40.539433" lon="-5.055267">
        <ele>2005.0</ele>
        <time>2018-07-29T13:14:25Z</time>
      </trkpt>
      <trkpt lat="40.539433" lon="-5.055067">
        <ele>2001.0</ele>
        <time>2018-07-29T13:14:26Z</time>
      </trkpt>
      <trkpt lat="40.539433" lon="-5.054850">
        <ele>1998.0</ele>
        <time>2018-07-29T13:14:27Z</time>
      </trkpt>
      <trkpt lat="40.539433" lon="-5.054633">
        <ele>1995.0</ele>
        <time>2018-07-29T13:14:28Z</time>
      </trkpt>
      <trkpt lat="40.539433" lon="-5.054417">
        <ele>1993.0</ele>
        <time>2018-07-29T13:14:29Z</time>
      </trkpt>
      <trkpt lat="40.539450" lon="-5.054217">
        <ele>1991.0</ele>
        <time>2018-07-29T13:14:30Z</time>
      </trkpt>
      <trkpt lat="40.539450" lon="-5.054000">
        <ele>1989.0</ele>
        <time>2018-07-29T13:14:31Z</time>
      </trkpt>
      <trkpt lat="40.539433" lon="-5.053783">
        <ele>1986.0</ele>
        <time>2018-07-29T13:14:32Z</time>
      </trkpt>
      <trkpt lat="40.539417" lon="-5.053567">
        <ele>1984.0</ele>
        <time>2018-07-29T13:14:33Z</time>
      </trkpt>
      <trkpt lat="40.539400" lon="-5.053367">
        <ele>1983.0</ele>
        <time>2018-07-29T13:14:34Z</time>
      </trkpt>
      <trkpt lat="40.539367" lon="-5.053150">
        <ele>1981.0</ele>
        <time>2018-07-29T13:14:35Z</time>
      </trkpt>
      <trkpt lat="40.539333" lon="-5.052950">
        <ele>1980.0</ele>
        <time>2018-07-29T13:14:36Z</time>
      </trkpt>
      <trkpt lat="40.539300" lon="-5.052767">
        <ele>1978.0</ele>
        <time>2018-07-29T13:14:37Z</time>
      </trkpt>
      <trkpt lat="40.539250" lon="-5.052567">
        <ele>1975.0</ele>
        <time>2018-07-29T13:14:38Z</time>
      </trkpt>
      <trkpt lat="40.539217" lon="-5.052350">
        <ele>1972.0</ele>
        <time>2018-07-29T13:14:39Z</time>
      </trkpt>
      <trkpt lat="40.539183" lon="-5.052150">
        <ele>1970.0</ele>
        <time>2018-07-29T13:14:40Z</time>
      </trkpt>
      <trkpt lat="40.539150" lon="-5.051933">
        <ele>1967.0</ele>
        <time>2018-07-29T13:14:41Z</time>
      </trkpt>
      <trkpt lat="40.539117" lon="-5.051733">
        <ele>1965.0</ele>
        <time>2018-07-29T13:14:42Z</time>
      </trkpt>
      <trkpt lat="40.539100" lon="-5.051533">
        <ele>1963.0</ele>
        <time>2018-07-29T13:14:43Z</time>
      </trkpt>
      <trkpt lat="40.539083" lon="-5.051317">
        <ele>1960.0</ele>
        <time>2018-07-29T13:14:44Z</time>
      </trkpt>
      <trkpt lat="40.539067" lon="-5.051100">
        <ele>1957.0</ele>
        <time>2018-07-29T13:14:45Z</time>
      </trkpt>
      <trkpt lat="40.539067" lon="-5.050900">
        <ele>1955.0</ele>
        <time>2018-07-29T13:14:46Z</time>
      </trkpt>
      <trkpt lat="40.539050" lon="-5.050683">
        <ele>1953.0</ele>
        <time>2018-07-29T13:14:47Z</time>
      </trkpt>
      <trkpt lat="40.539017" lon="-5.050483">
        <ele>1951.0</ele>
        <time>2018-07-29T13:14:48Z</time>
      </trkpt>
      <trkpt lat="40.539000" lon="-5.050283">
        <ele>1949.0</ele>
        <time>2018-07-29T13:14:49Z</time>
      </trkpt>
      <trkpt lat="40.538983" lon="-5.050083">
        <ele>1947.0</ele>
        <time>2018-07-29T13:14:50Z</time>
      </trkpt>
      <trkpt lat="40.538950" lon="-5.049883">
        <ele>1945.0</ele>
        <time>2018-07-29T13:14:51Z</time>
      </trkpt>
      <trkpt lat="40.538933" lon="-5.049700">
        <ele>1943.0</ele>
        <time>2018-07-29T13:14:52Z</time>
      </trkpt>
      <trkpt lat="40.538900" lon="-5.049500">
        <ele>1941.0</ele>
        <time>2018-07-29T13:14:53Z</time>
      </trkpt>
      <trkpt lat="40.538883" lon="-5.049300">
        <ele>1939.0</ele>
        <time>2018-07-29T13:14:54Z</time>
      </trkpt>
      <trkpt lat="40.538850" lon="-5.049100">
        <ele>1937.0</ele>
        <time>2018-07-29T13:14:55Z</time>
      </trkpt>
      <trkpt lat="40.538833" lon="-5.048917">
        <ele>1936.0</ele>
        <time>2018-07-29T13:14:56Z</time>
      </trkpt>
      <trkpt lat="40.538800" lon="-5.048717">
        <ele>1934.0</ele>
        <time>2018-07-29T13:14:57Z</time>
      </trkpt>
      <trkpt lat="40.538767" lon="-5.048533">
        <ele>1932.0</ele>
        <time>2018-07-29T13:14:58Z</time>
      </trkpt>
      <trkpt lat="40.538750" lon="-5.048333">
        <ele>1930.0</ele>
        <time>2018-07-29T13:14:59Z</time>
      </trkpt>
      <trkpt lat="40.538700" lon="-5.048133">
        <ele>1928.0</ele>
        <time>2018-07-29T13:15:00Z</time>
      </trkpt>
      <trkpt lat="40.538667" lon="-5.047933">
        <ele>1926.0</ele>
        <time>2018-07-29T13:15:01Z</time>
      </trkpt>
      <trkpt lat="40.538617" lon="-5.047733">
        <ele>1924.0</ele>
        <time>2018-07-29T13:15:02Z</time>
      </trkpt>
      <trkpt lat="40.538583" lon="-5.047533">
        <ele>1923.0</ele>
        <time>2018-07-29T13:15:03Z</time>
      </trkpt>
      <trkpt lat="40.538550" lon="-5.047333">
        <ele>1921.0</ele>
        <time>2018-07-29T13:15:04Z</time>
      </trkpt>
      <trkpt lat="40.538517" lon="-5.047133">
        <ele>1919.0</ele>
        <time>2018-07-29T13:15:05Z</time>
      </trkpt>
      <trkpt lat="40.538483" lon="-5.046917">
        <ele>1917.0</ele>
        <time>2018-07-29T13:15:06Z</time>
      </trkpt>
      <trkpt lat="40.538467" lon="-5.046717">
        <ele>1915.0</ele>
        <time>2018-07-29T13:15:07Z</time>
      </trkpt>
      <trkpt lat="40.538433" lon="-5.046517">
        <ele>1914.0</ele>
        <time>2018-07-29T13:15:08Z</time>
      </trkpt>
      <trkpt lat="40.538417" lon="-5.046317">
        <ele>1912.0</ele>
        <time>2018-07-29T13:15:09Z</time>
      </trkpt>
      <trkpt lat="40.538383" lon="-5.046100">
        <ele>1911.0</ele>
        <time>2018-07-29T13:15:10Z</time>
      </trkpt>
      <trkpt lat="40.538367" lon="-5.045883">
        <ele>1909.0</ele>
        <time>2018-07-29T13:15:11Z</time>
      </trkpt>
      <trkpt lat="40.538350" lon="-5.045683">
        <ele>1907.0</ele>
        <time>2018-07-29T13:15:12Z</time>
      </trkpt>
      <trkpt lat="40.538333" lon="-5.045467">
        <ele>1906.0</ele>
        <time>2018-07-29T13:15:13Z</time>
      </trkpt>
      <trkpt lat="40.538317" lon="-5.045267">
        <ele>1905.0</ele>
        <time>2018-07-29T13:15:14Z</time>
      </trkpt>
      <trkpt lat="40.538267" lon="-5.045067">
        <ele>1904.0</ele>
        <time>2018-07-29T13:15:15Z</time>
      </trkpt>
      <trkpt lat="40.538233" lon="-5.044883">
        <ele>1902.0</ele>
        <time>2018-07-29T13:15:16Z</time>
      </trkpt>
      <trkpt lat="40.538183" lon="-5.044683">
        <ele>1901.0</ele>
        <time>2018-07-29T13:15:17Z</time>
      </trkpt>
      <trkpt lat="40.538133" lon="-5.044483">
        <ele>1899.0</ele>
        <time>2018-07-29T13:15:18Z</time>
      </trkpt>
      <trkpt lat="40.538100" lon="-5.044283">
        <ele>1898.0</ele>
        <time>2018-07-29T13:15:19Z</time>
      </trkpt>
      <trkpt lat="40.538067" lon="-5.044100">
        <ele>1896.0</ele>
        <time>2018-07-29T13:15:20Z</time>
      </trkpt>
      <trkpt lat="40.538033" lon="-5.043900">
        <ele>1893.0</ele>
        <time>2018-07-29T13:15:21Z</time>
      </trkpt>
      <trkpt lat="40.538000" lon="-5.043683">
        <ele>1891.0</ele>
        <time>2018-07-29T13:15:22Z</time>
      </trkpt>
      <trkpt lat="40.537967" lon="-5.043467">
        <ele>1889.0</ele>
        <time>2018-07-29T13:15:23Z</time>
      </trkpt>
      <trkpt lat="40.537950" lon="-5.043267">
        <ele>1887.0</ele>
        <time>2018-07-29T13:15:24Z</time>
      </trkpt>
      <trkpt lat="40.537933" lon="-5.043050">
        <ele>1885.0</ele>
        <time>2018-07-29T13:15:25Z</time>
      </trkpt>
      <trkpt lat="40.537917" lon="-5.042850">
        <ele>1883.0</ele>
        <time>2018-07-29T13:15:26Z</time>
      </trkpt>
      <trkpt lat="40.537883" lon="-5.042650">
        <ele>1881.0</ele>
        <time>2018-07-29T13:15:27Z</time>
      </trkpt>
      <trkpt lat="40.537850" lon="-5.042450">
        <ele>1879.0</ele>
        <time>2018-07-29T13:15:28Z</time>
      </trkpt>
      <trkpt lat="40.537817" lon="-5.042250">
        <ele>1877.0</ele>
        <time>2018-07-29T13:15:29Z</time>
      </trkpt>
      <trkpt lat="40.537783" lon="-5.042033">
        <ele>1875.0</ele>
        <time>2018-07-29T13:15:30Z</time>
      </trkpt>
      <trkpt lat="40.537750" lon="-5.041833">
        <ele>1873.0</ele>
        <time>2018-07-29T13:15:31Z</time>
      </trkpt>
      <trkpt lat="40.537717" lon="-5.041617">
        <ele>1870.0</ele>
        <time>2018-07-29T13:15:32Z</time>
      </trkpt>
      <trkpt lat="40.537683" lon="-5.041400">
        <ele>1868.0</ele>
        <time>2018-07-29T13:15:33Z</time>
      </trkpt>
      <trkpt lat="40.537633" lon="-5.041200">
        <ele>1865.0</ele>
        <time>2018-07-29T13:15:34Z</time>
      </trkpt>
      <trkpt lat="40.537600" lon="-5.040983">
        <ele>1863.0</ele>
        <time>2018-07-29T13:15:35Z</time>
      </trkpt>
      <trkpt lat="40.537550" lon="-5.040767">
        <ele>1861.0</ele>
        <time>2018-07-29T13:15:36Z</time>
      </trkpt>
      <trkpt lat="40.537517" lon="-5.040567">
        <ele>1859.0</ele>
        <time>2018-07-29T13:15:37Z</time>
      </trkpt>
      <trkpt lat="40.537483" lon="-5.040350">
        <ele>1857.0</ele>
        <time>2018-07-29T13:15:38Z</time>
      </trkpt>
      <trkpt lat="40.537467" lon="-5.040117">
        <ele>1854.0</ele>
        <time>2018-07-29T13:15:39Z</time>
      </trkpt>
      <trkpt lat="40.537450" lon="-5.039883">
        <ele>1851.0</ele>
        <time>2018-07-29T13:15:40Z</time>
      </trkpt>
      <trkpt lat="40.537433" lon="-5.039650">
        <ele>1850.0</ele>
        <time>2018-07-29T13:15:41Z</time>
      </trkpt>
      <trkpt lat="40.537417" lon="-5.039417">
        <ele>1848.0</ele>
        <time>2018-07-29T13:15:42Z</time>
      </trkpt>
      <trkpt lat="40.537400" lon="-5.039200">
        <ele>1847.0</ele>
        <time>2018-07-29T13:15:43Z</time>
      </trkpt>
      <trkpt lat="40.537383" lon="-5.038967">
        <ele>1846.0</ele>
        <time>2018-07-29T13:15:44Z</time>
      </trkpt>
      <trkpt lat="40.537350" lon="-5.038733">
        <ele>1845.0</ele>
        <time>2018-07-29T13:15:45Z</time>
      </trkpt>
      <trkpt lat="40.537317" lon="-5.038517">
        <ele>1844.0</ele>
        <time>2018-07-29T13:15:46Z</time>
      </trkpt>
      <trkpt lat="40.537267" lon="-5.038300">
        <ele>1843.0</ele>
        <time>2018-07-29T13:15:47Z</time>
      </trkpt>
      <trkpt lat="40.537217" lon="-5.038100">
        <ele>1841.0</ele>
        <time>2018-07-29T13:15:48Z</time>
      </trkpt>
      <trkpt lat="40.537150" lon="-5.037917">
        <ele>1840.0</ele>
        <time>2018-07-29T13:15:49Z</time>
      </trkpt>
      <trkpt lat="40.537067" lon="-5.037733">
        <ele>1838.0</ele>
        <time>2018-07-29T13:15:50Z</time>
      </trkpt>
      <trkpt lat="40.536983" lon="-5.037567">
        <ele>1837.0</ele>
        <time>2018-07-29T13:15:51Z</time>
      </trkpt>
      <trkpt lat="40.536883" lon="-5.037400">
        <ele>1837.0</ele>
        <time>2018-07-29T13:15:52Z</time>
      </trkpt>
      <trkpt lat="40.536800" lon="-5.037267">
        <ele>1838.0</ele>
        <time>2018-07-29T13:15:53Z</time>
      </trkpt>
      <trkpt lat="40.536717" lon="-5.037133">
        <ele>1838.0</ele>
        <time>2018-07-29T13:15:54Z</time>
      </trkpt>
      <trkpt lat="40.536633" lon="-5.037017">
        <ele>1837.0</ele>
        <time>2018-07-29T13:15:55Z</time>
      </trkpt>
      <trkpt lat="40.536550" lon="-5.036917">
        <ele>1835.0</ele>
        <time>2018-07-29T13:15:56Z</time>
      </trkpt>
      <trkpt lat="40.536450" lon="-5.036817">
        <ele>1833.0</ele>
        <time>2018-07-29T13:15:57Z</time>
      </trkpt>
      <trkpt lat="40.536350" lon="-5.036733">
        <ele>1831.0</ele>
        <time>2018-07-29T13:15:58Z</time>
      </trkpt>
      <trkpt lat="40.536250" lon="-5.036650">
        <ele>1829.0</ele>
        <time>2018-07-29T13:15:59Z</time>
      </trkpt>
      <trkpt lat="40.536133" lon="-5.036567">
        <ele>1829.0</ele>
        <time>2018-07-29T13:16:00Z</time>
      </trkpt>
      <trkpt lat="40.536033" lon="-5.036483">
        <ele>1828.0</ele>
        <time>2018-07-29T13:16:01Z</time>
      </trkpt>
      <trkpt lat="40.535933" lon="-5.036400">
        <ele>1826.0</ele>
        <time>2018-07-29T13:16:02Z</time>
      </trkpt>
      <trkpt lat="40.535833" lon="-5.036317">
        <ele>1825.0</ele>
        <time>2018-07-29T13:16:03Z</time>
      </trkpt>
      <trkpt lat="40.535733" lon="-5.036217">
        <ele>1823.0</ele>
        <time>2018-07-29T13:16:04Z</time>
      </trkpt>
      <trkpt lat="40.535633" lon="-5.036117">
        <ele>1822.0</ele>
        <time>2018-07-29T13:16:05Z</time>
      </trkpt>
      <trkpt lat="40.535533" lon="-5.036033">
        <ele>1820.0</ele>
        <time>2018-07-29T13:16:06Z</time>
      </trkpt>
      <trkpt lat="40.535417" lon="-5.035950">
        <ele>1819.0</ele>
        <time>2018-07-29T13:16:07Z</time>
      </trkpt>
      <trkpt lat="40.535317" lon="-5.035867">
        <ele>1818.0</ele>
        <time>2018-07-29T13:16:08Z</time>
      </trkpt>
      <trkpt lat="40.535217" lon="-5.035783">
        <ele>1817.0</ele>
        <time>2018-07-29T13:16:09Z</time>
      </trkpt>
      <trkpt lat="40.535100" lon="-5.035700">
        <ele>1815.0</ele>
        <time>2018-07-29T13:16:10Z</time>
      </trkpt>
      <trkpt lat="40.535000" lon="-5.035600">
        <ele>1814.0</ele>
        <time>2018-07-29T13:16:11Z</time>
      </trkpt>
      <trkpt lat="40.534883" lon="-5.035517">
        <ele>1813.0</ele>
        <time>2018-07-29T13:16:12Z</time>
      </trkpt>
      <trkpt lat="40.534783" lon="-5.035433">
        <ele>1811.0</ele>
        <time>2018-07-29T13:16:13Z</time>
      </trkpt>
      <trkpt lat="40.534667" lon="-5.035333">
        <ele>1810.0</ele>
        <time>2018-07-29T13:16:14Z</time>
      </trkpt>
      <trkpt lat="40.534567" lon="-5.035233">
        <ele>1809.0</ele>
        <time>2018-07-29T13:16:15Z</time>
      </trkpt>
      <trkpt lat="40.534467" lon="-5.035150">
        <ele>1808.0</ele>
        <time>2018-07-29T13:16:16Z</time>
      </trkpt>
      <trkpt lat="40.534367" lon="-5.035067">
        <ele>1807.0</ele>
        <time>2018-07-29T13:16:17Z</time>
      </trkpt>
      <trkpt lat="40.534250" lon="-5.035000">
        <ele>1806.0</ele>
        <time>2018-07-29T13:16:18Z</time>
      </trkpt>
      <trkpt lat="40.534150" lon="-5.034933">
        <ele>1806.0</ele>
        <time>2018-07-29T13:16:19Z</time>
      </trkpt>
      <trkpt lat="40.534067" lon="-5.034883">
        <ele>1806.0</ele>
        <time>2018-07-29T13:16:20Z</time>
      </trkpt>
      <trkpt lat="40.533967" lon="-5.034817">
        <ele>1806.0</ele>
        <time>2018-07-29T13:16:21Z</time>
      </trkpt>
      <trkpt lat="40.533867" lon="-5.034733">
        <ele>1805.0</ele>
        <time>2018-07-29T13:16:22Z</time>
      </trkpt>
      <trkpt lat="40.533750" lon="-5.034650">
        <ele>1804.0</ele>
        <time>2018-07-29T13:16:23Z</time>
      </trkpt>
      <trkpt lat="40.533617" lon="-5.034567">
        <ele>1804.0</ele>
        <time>2018-07-29T13:16:24Z</time>
      </trkpt>
      <trkpt lat="40.533517" lon="-5.034483">
        <ele>1805.0</ele>
        <time>2018-07-29T13:16:25Z</time>
      </trkpt>
      <trkpt lat="40.533417" lon="-5.034417">
        <ele>1805.0</ele>
        <time>2018-07-29T13:16:26Z</time>
      </trkpt>
      <trkpt lat="40.533300" lon="-5.034333">
        <ele>1804.0</ele>
        <time>2018-07-29T13:16:27Z</time>
      </trkpt>
      <trkpt lat="40.533200" lon="-5.034233">
        <ele>1803.0</ele>
        <time>2018-07-29T13:16:28Z</time>
      </trkpt>
      <trkpt lat="40.533083" lon="-5.034133">
        <ele>1801.0</ele>
        <time>2018-07-29T13:16:29Z</time>
      </trkpt>
      <trkpt lat="40.532967" lon="-5.034033">
        <ele>1799.0</ele>
        <time>2018-07-29T13:16:30Z</time>
      </trkpt>
      <trkpt lat="40.532867" lon="-5.033917">
        <ele>1798.0</ele>
        <time>2018-07-29T13:16:31Z</time>
      </trkpt>
      <trkpt lat="40.532750" lon="-5.033783">
        <ele>1797.0</ele>
        <time>2018-07-29T13:16:32Z</time>
      </trkpt>
      <trkpt lat="40.532650" lon="-5.033650">
        <ele>1795.0</ele>
        <time>2018-07-29T13:16:33Z</time>
      </trkpt>
      <trkpt lat="40.532533" lon="-5.033517">
        <ele>1794.0</ele>
        <time>2018-07-29T13:16:34Z</time>
      </trkpt>
      <trkpt lat="40.532417" lon="-5.033383">
        <ele>1792.0</ele>
        <time>2018-07-29T13:16:35Z</time>
      </trkpt>
      <trkpt lat="40.532317" lon="-5.033233">
        <ele>1791.0</ele>
        <time>2018-07-29T13:16:36Z</time>
      </trkpt>
      <trkpt lat="40.532200" lon="-5.033100">
        <ele>1791.0</ele>
        <time>2018-07-29T13:16:37Z</time>
      </trkpt>
      <trkpt lat="40.532100" lon="-5.032967">
        <ele>1791.0</ele>
        <time>2018-07-29T13:16:38Z</time>
      </trkpt>
      <trkpt lat="40.532000" lon="-5.032833">
        <ele>1791.0</ele>
        <time>2018-07-29T13:16:39Z</time>
      </trkpt>
      <trkpt lat="40.531900" lon="-5.032683">
        <ele>1791.0</ele>
        <time>2018-07-29T13:16:40Z</time>
      </trkpt>
      <trkpt lat="40.531817" lon="-5.032533">
        <ele>1789.0</ele>
        <time>2018-07-29T13:16:41Z</time>
      </trkpt>
      <trkpt lat="40.531717" lon="-5.032367">
        <ele>1787.0</ele>
        <time>2018-07-29T13:16:42Z</time>
      </trkpt>
      <trkpt lat="40.531617" lon="-5.032200">
        <ele>1785.0</ele>
        <time>2018-07-29T13:16:43Z</time>
      </trkpt>
      <trkpt lat="40.531517" lon="-5.032050">
        <ele>1783.0</ele>
        <time>2018-07-29T13:16:44Z</time>
      </trkpt>
      <trkpt lat="40.531417" lon="-5.031900">
        <ele>1782.0</ele>
        <time>2018-07-29T13:16:45Z</time>
      </trkpt>
      <trkpt lat="40.531317" lon="-5.031750">
        <ele>1781.0</ele>
        <time>2018-07-29T13:16:46Z</time>
      </trkpt>
      <trkpt lat="40.531233" lon="-5.031600">
        <ele>1780.0</ele>
        <time>2018-07-29T13:16:47Z</time>
      </trkpt>
      <trkpt lat="40.531133" lon="-5.031450">
        <ele>1778.0</ele>
        <time>2018-07-29T13:16:48Z</time>
      </trkpt>
      <trkpt lat="40.531033" lon="-5.031300">
        <ele>1776.0</ele>
        <time>2018-07-29T13:16:49Z</time>
      </trkpt>
      <trkpt lat="40.530917" lon="-5.031167">
        <ele>1774.0</ele>
        <time>2018-07-29T13:16:50Z</time>
      </trkpt>
      <trkpt lat="40.530800" lon="-5.031050">
        <ele>1772.0</ele>
        <time>2018-07-29T13:16:51Z</time>
      </trkpt>
      <trkpt lat="40.530683" lon="-5.030933">
        <ele>1771.0</ele>
        <time>2018-07-29T13:16:52Z</time>
      </trkpt>
      <trkpt lat="40.530550" lon="-5.030833">
        <ele>1770.0</ele>
        <time>2018-07-29T13:16:53Z</time>
      </trkpt>
      <trkpt lat="40.530433" lon="-5.030733">
        <ele>1770.0</ele>
        <time>2018-07-29T13:16:54Z</time>
      </trkpt>
      <trkpt lat="40.530317" lon="-5.030650">
        <ele>1770.0</ele>
        <time>2018-07-29T13:16:55Z</time>
      </trkpt>
      <trkpt lat="40.530200" lon="-5.030567">
        <ele>1769.0</ele>
        <time>2018-07-29T13:16:56Z</time>
      </trkpt>
      <trkpt lat="40.530083" lon="-5.030467">
        <ele>1769.0</ele>
        <time>2018-07-29T13:16:57Z</time>
      </trkpt>
      <trkpt lat="40.529983" lon="-5.030367">
        <ele>1768.0</ele>
        <time>2018-07-29T13:16:58Z</time>
      </trkpt>
      <trkpt lat="40.529867" lon="-5.030233">
        <ele>1767.0</ele>
        <time>2018-07-29T13:16:59Z</time>
      </trkpt>
      <trkpt lat="40.529750" lon="-5.030100">
        <ele>1766.0</ele>
        <time>2018-07-29T13:17:00Z</time>
      </trkpt>
      <trkpt lat="40.529633" lon="-5.029983">
        <ele>1765.0</ele>
        <time>2018-07-29T13:17:01Z</time>
      </trkpt>
      <trkpt lat="40.529517" lon="-5.029850">
        <ele>1765.0</ele>
        <time>2018-07-29T13:17:02Z</time>
      </trkpt>
      <trkpt lat="40.529417" lon="-5.029717">
        <ele>1766.0</ele>
        <time>2018-07-29T13:17:03Z</time>
      </trkpt>
      <trkpt lat="40.529300" lon="-5.029567">
        <ele>1765.0</ele>
        <time>2018-07-29T13:17:04Z</time>
      </trkpt>
      <trkpt lat="40.529200" lon="-5.029417">
        <ele>1765.0</ele>
        <time>2018-07-29T13:17:05Z</time>
      </trkpt>
      <trkpt lat="40.529100" lon="-5.029250">
        <ele>1764.0</ele>
        <time>2018-07-29T13:17:06Z</time>
      </trkpt>
      <trkpt lat="40.529000" lon="-5.029083">
        <ele>1763.0</ele>
        <time>2018-07-29T13:17:07Z</time>
      </trkpt>
      <trkpt lat="40.528883" lon="-5.028917">
        <ele>1761.0</ele>
        <time>2018-07-29T13:17:08Z</time>
      </trkpt>
      <trkpt lat="40.528783" lon="-5.028750">
        <ele>1760.0</ele>
        <time>2018-07-29T13:17:09Z</time>
      </trkpt>
      <trkpt lat="40.528683" lon="-5.028583">
        <ele>1759.0</ele>
        <time>2018-07-29T13:17:10Z</time>
      </trkpt>
      <trkpt lat="40.528583" lon="-5.028417">
        <ele>1758.0</ele>
        <time>2018-07-29T13:17:11Z</time>
      </trkpt>
      <trkpt lat="40.528483" lon="-5.028250">
        <ele>1757.0</ele>
        <time>2018-07-29T13:17:12Z</time>
      </trkpt>
      <trkpt lat="40.528367" lon="-5.028083">
        <ele>1757.0</ele>
        <time>2018-07-29T13:17:13Z</time>
      </trkpt>
      <trkpt lat="40.528267" lon="-5.027917">
        <ele>1757.0</ele>
        <time>2018-07-29T13:17:14Z</time>
      </trkpt>
      <trkpt lat="40.528167" lon="-5.027767">
        <ele>1758.0</ele>
        <time>2018-07-29T13:17:15Z</time>
      </trkpt>
      <trkpt lat="40.528067" lon="-5.027617">
        <ele>1758.0</ele>
        <time>2018-07-29T13:17:16Z</time>
      </trkpt>
      <trkpt lat="40.527967" lon="-5.027483">
        <ele>1757.0</ele>
        <time>2018-07-29T13:17:17Z</time>
      </trkpt>
      <trkpt lat="40.527850" lon="-5.027350">
        <ele>1756.0</ele>
        <time>2018-07-29T13:17:18Z</time>
      </trkpt>
      <trkpt lat="40.527750" lon="-5.027200">
        <ele>1755.0</ele>
        <time>2018-07-29T13:17:19Z</time>
      </trkpt>
      <trkpt lat="40.527650" lon="-5.027050">
        <ele>1754.0</ele>
        <time>2018-07-29T13:17:20Z</time>
      </trkpt>
      <trkpt lat="40.527567" lon="-5.026883">
        <ele>1753.0</ele>
        <time>2018-07-29T13:17:21Z</time>
      </trkpt>
      <trkpt lat="40.527467" lon="-5.026733">
        <ele>1752.0</ele>
        <time>2018-07-29T13:17:22Z</time>
      </trkpt>
      <trkpt lat="40.527367" lon="-5.026567">
        <ele>1750.0</ele>
        <time>2018-07-29T13:17:23Z</time>
      </trkpt>
      <trkpt lat="40.527283" lon="-5.026400">
        <ele>1748.0</ele>
        <time>2018-07-29T13:17:24Z</time>
      </trkpt>
      <trkpt lat="40.527183" lon="-5.026233">
        <ele>1747.0</ele>
        <time>2018-07-29T13:17:25Z</time>
      </trkpt>
      <trkpt lat="40.527083" lon="-5.026050">
        <ele>1745.0</ele>
        <time>2018-07-29T13:17:26Z</time>
      </trkpt>
      <trkpt lat="40.526983" lon="-5.025867">
        <ele>1745.0</ele>
        <time>2018-07-29T13:17:27Z</time>
      </trkpt>
      <trkpt lat="40.526900" lon="-5.025700">
        <ele>1745.0</ele>
        <time>2018-07-29T13:17:28Z</time>
      </trkpt>
      <trkpt lat="40.526817" lon="-5.025517">
        <ele>1744.0</ele>
        <time>2018-07-29T13:17:29Z</time>
      </trkpt>
      <trkpt lat="40.526733" lon="-5.025350">
        <ele>1743.0</ele>
        <time>2018-07-29T13:17:30Z</time>
      </trkpt>
      <trkpt lat="40.526633" lon="-5.025183">
        <ele>1741.0</ele>
        <time>2018-07-29T13:17:31Z</time>
      </trkpt>
      <trkpt lat="40.526550" lon="-5.025000">
        <ele>1739.0</ele>
        <time>2018-07-29T13:17:32Z</time>
      </trkpt>
      <trkpt lat="40.526450" lon="-5.024833">
        <ele>1738.0</ele>
        <time>2018-07-29T13:17:33Z</time>
      </trkpt>
      <trkpt lat="40.526350" lon="-5.024667">
        <ele>1737.0</ele>
        <time>2018-07-29T13:17:34Z</time>
      </trkpt>
      <trkpt lat="40.526250" lon="-5.024517">
        <ele>1736.0</ele>
        <time>2018-07-29T13:17:35Z</time>
      </trkpt>
      <trkpt lat="40.526150" lon="-5.024367">
        <ele>1736.0</ele>
        <time>2018-07-29T13:17:36Z</time>
      </trkpt>
      <trkpt lat="40.526067" lon="-5.024217">
        <ele>1736.0</ele>
        <time>2018-07-29T13:17:37Z</time>
      </trkpt>
      <trkpt lat="40.525983" lon="-5.024067">
        <ele>1734.0</ele>
        <time>2018-07-29T13:17:38Z</time>
      </trkpt>
      <trkpt lat="40.525900" lon="-5.023900">
        <ele>1732.0</ele>
        <time>2018-07-29T13:17:39Z</time>
      </trkpt>
      <trkpt lat="40.525817" lon="-5.023733">
        <ele>1729.0</ele>
        <time>2018-07-29T13:17:40Z</time>
      </trkpt>
      <trkpt lat="40.525733" lon="-5.023533">
        <ele>1727.0</ele>
        <time>2018-07-29T13:17:41Z</time>
      </trkpt>
      <trkpt lat="40.525650" lon="-5.023350">
        <ele>1725.0</ele>
        <time>2018-07-29T13:17:42Z</time>
      </trkpt>
      <trkpt lat="40.525567" lon="-5.023167">
        <ele>1724.0</ele>
        <time>2018-07-29T13:17:43Z</time>
      </trkpt>
      <trkpt lat="40.525483" lon="-5.023000">
        <ele>1724.0</ele>
        <time>2018-07-29T13:17:44Z</time>
      </trkpt>
      <trkpt lat="40.525400" lon="-5.022817">
        <ele>1723.0</ele>
        <time>2018-07-29T13:17:45Z</time>
      </trkpt>
      <trkpt lat="40.525317" lon="-5.022650">
        <ele>1722.0</ele>
        <time>2018-07-29T13:17:46Z</time>
      </trkpt>
      <trkpt lat="40.525233" lon="-5.022450">
        <ele>1722.0</ele>
        <time>2018-07-29T13:17:47Z</time>
      </trkpt>
      <trkpt lat="40.525150" lon="-5.022267">
        <ele>1722.0</ele>
        <time>2018-07-29T13:17:48Z</time>
      </trkpt>
      <trkpt lat="40.525067" lon="-5.022083">
        <ele>1721.0</ele>
        <time>2018-07-29T13:17:49Z</time>
      </trkpt>
      <trkpt lat="40.524983" lon="-5.021917">
        <ele>1721.0</ele>
        <time>2018-07-29T13:17:50Z</time>
      </trkpt>
      <trkpt lat="40.524883" lon="-5.021733">
        <ele>1720.0</ele>
        <time>2018-07-29T13:17:51Z</time>
      </trkpt>
      <trkpt lat="40.524817" lon="-5.021550">
        <ele>1719.0</ele>
        <time>2018-07-29T13:17:52Z</time>
      </trkpt>
      <trkpt lat="40.524733" lon="-5.021367">
        <ele>1719.0</ele>
        <time>2018-07-29T13:17:53Z</time>
      </trkpt>
      <trkpt lat="40.524667" lon="-5.021200">
        <ele>1718.0</ele>
        <time>2018-07-29T13:17:54Z</time>
      </trkpt>
      <trkpt lat="40.524600" lon="-5.021017">
        <ele>1717.0</ele>
        <time>2018-07-29T13:17:55Z</time>
      </trkpt>
      <trkpt lat="40.524533" lon="-5.020833">
        <ele>1716.0</ele>
        <time>2018-07-29T13:17:56Z</time>
      </trkpt>
      <trkpt lat="40.524467" lon="-5.020650">
        <ele>1716.0</ele>
        <time>2018-07-29T13:17:57Z</time>
      </trkpt>
      <trkpt lat="40.524400" lon="-5.020467">
        <ele>1715.0</ele>
        <time>2018-07-29T13:17:58Z</time>
      </trkpt>
      <trkpt lat="40.524333" lon="-5.020283">
        <ele>1715.0</ele>
        <time>2018-07-29T13:17:59Z</time>
      </trkpt>
      <trkpt lat="40.524283" lon="-5.020117">
        <ele>1715.0</ele>
        <time>2018-07-29T13:18:00Z</time>
      </trkpt>
      <trkpt lat="40.524217" lon="-5.019950">
        <ele>1714.0</ele>
        <time>2018-07-29T13:18:01Z</time>
      </trkpt>
      <trkpt lat="40.524167" lon="-5.019783">
        <ele>1712.0</ele>
        <time>2018-07-29T13:18:02Z</time>
      </trkpt>
      <trkpt lat="40.524100" lon="-5.019600">
        <ele>1711.0</ele>
        <time>2018-07-29T13:18:03Z</time>
      </trkpt>
      <trkpt lat="40.524067" lon="-5.019417">
        <ele>1709.0</ele>
        <time>2018-07-29T13:18:04Z</time>
      </trkpt>
      <trkpt lat="40.524017" lon="-5.019217">
        <ele>1708.0</ele>
        <time>2018-07-29T13:18:05Z</time>
      </trkpt>
      <trkpt lat="40.523983" lon="-5.019033">
        <ele>1708.0</ele>
        <time>2018-07-29T13:18:06Z</time>
      </trkpt>
      <trkpt lat="40.523950" lon="-5.018850">
        <ele>1708.0</ele>
        <time>2018-07-29T13:18:07Z</time>
      </trkpt>
      <trkpt lat="40.523900" lon="-5.018683">
        <ele>1707.0</ele>
        <time>2018-07-29T13:18:08Z</time>
      </trkpt>
      <trkpt lat="40.523867" lon="-5.018500">
        <ele>1707.0</ele>
        <time>2018-07-29T13:18:09Z</time>
      </trkpt>
      <trkpt lat="40.523833" lon="-5.018333">
        <ele>1705.0</ele>
        <time>2018-07-29T13:18:10Z</time>
      </trkpt>
      <trkpt lat="40.523783" lon="-5.018133">
        <ele>1703.0</ele>
        <time>2018-07-29T13:18:11Z</time>
      </trkpt>
      <trkpt lat="40.523733" lon="-5.017933">
        <ele>1702.0</ele>
        <time>2018-07-29T13:18:12Z</time>
      </trkpt>
      <trkpt lat="40.523683" lon="-5.017750">
        <ele>1701.0</ele>
        <time>2018-07-29T13:18:13Z</time>
      </trkpt>
      <trkpt lat="40.523617" lon="-5.017550">
        <ele>1701.0</ele>
        <time>2018-07-29T13:18:14Z</time>
      </trkpt>
      <trkpt lat="40.523550" lon="-5.017367">
        <ele>1701.0</ele>
        <time>2018-07-29T13:18:15Z</time>
      </trkpt>
      <trkpt lat="40.523483" lon="-5.017200">
        <ele>1700.0</ele>
        <time>2018-07-29T13:18:16Z</time>
      </trkpt>
      <trkpt lat="40.523417" lon="-5.017033">
        <ele>1699.0</ele>
        <time>2018-07-29T13:18:17Z</time>
      </trkpt>
      <trkpt lat="40.523333" lon="-5.016850">
        <ele>1698.0</ele>
        <time>2018-07-29T13:18:18Z</time>
      </trkpt>
      <trkpt lat="40.523267" lon="-5.016683">
        <ele>1698.0</ele>
        <time>2018-07-29T13:18:19Z</time>
      </trkpt>
      <trkpt lat="40.523183" lon="-5.016500">
        <ele>1697.0</ele>
        <time>2018-07-29T13:18:20Z</time>
      </trkpt>
      <trkpt lat="40.523100" lon="-5.016300">
        <ele>1696.0</ele>
        <time>2018-07-29T13:18:21Z</time>
      </trkpt>
      <trkpt lat="40.523033" lon="-5.016117">
        <ele>1697.0</ele>
        <time>2018-07-29T13:18:22Z</time>
      </trkpt>
      <trkpt lat="40.522967" lon="-5.015933">
        <ele>1697.0</ele>
        <time>2018-07-29T13:18:23Z</time>
      </trkpt>
      <trkpt lat="40.522900" lon="-5.015750">
        <ele>1696.0</ele>
        <time>2018-07-29T13:18:24Z</time>
      </trkpt>
      <trkpt lat="40.522833" lon="-5.015567">
        <ele>1696.0</ele>
        <time>2018-07-29T13:18:25Z</time>
      </trkpt>
      <trkpt lat="40.522783" lon="-5.015367">
        <ele>1695.0</ele>
        <time>2018-07-29T13:18:26Z</time>
      </trkpt>
      <trkpt lat="40.522733" lon="-5.015183">
        <ele>1694.0</ele>
        <time>2018-07-29T13:18:27Z</time>
      </trkpt>
      <trkpt lat="40.522667" lon="-5.014983">
        <ele>1694.0</ele>
        <time>2018-07-29T13:18:28Z</time>
      </trkpt>
      <trkpt lat="40.522617" lon="-5.014800">
        <ele>1693.0</ele>
        <time>2018-07-29T13:18:29Z</time>
      </trkpt>
      <trkpt lat="40.522567" lon="-5.014633">
        <ele>1692.0</ele>
        <time>2018-07-29T13:18:30Z</time>
      </trkpt>
      <trkpt lat="40.522500" lon="-5.014433">
        <ele>1691.0</ele>
        <time>2018-07-29T13:18:31Z</time>
      </trkpt>
      <trkpt lat="40.522450" lon="-5.014233">
        <ele>1690.0</ele>
        <time>2018-07-29T13:18:32Z</time>
      </trkpt>
      <trkpt lat="40.522383" lon="-5.014033">
        <ele>1690.0</ele>
        <time>2018-07-29T13:18:33Z</time>
      </trkpt>
      <trkpt lat="40.522300" lon="-5.013817">
        <ele>1689.0</ele>
        <time>2018-07-29T13:18:34Z</time>
      </trkpt>
      <trkpt lat="40.522200" lon="-5.013617">
        <ele>1690.0</ele>
        <time>2018-07-29T13:18:35Z</time>
      </trkpt>
      <trkpt lat="40.522117" lon="-5.013417">
        <ele>1690.0</ele>
        <time>2018-07-29T13:18:36Z</time>
      </trkpt>
      <trkpt lat="40.522033" lon="-5.013217">
        <ele>1691.0</ele>
        <time>2018-07-29T13:18:37Z</time>
      </trkpt>
      <trkpt lat="40.521950" lon="-5.013017">
        <ele>1691.0</ele>
        <time>2018-07-29T13:18:38Z</time>
      </trkpt>
      <trkpt lat="40.521867" lon="-5.012833">
        <ele>1691.0</ele>
        <time>2018-07-29T13:18:39Z</time>
      </trkpt>
      <trkpt lat="40.521783" lon="-5.012633">
        <ele>1691.0</ele>
        <time>2018-07-29T13:18:40Z</time>
      </trkpt>
      <trkpt lat="40.521717" lon="-5.012417">
        <ele>1691.0</ele>
        <time>2018-07-29T13:18:41Z</time>
      </trkpt>
      <trkpt lat="40.521633" lon="-5.012217">
        <ele>1690.0</ele>
        <time>2018-07-29T13:18:42Z</time>
      </trkpt>
      <trkpt lat="40.521567" lon="-5.012017">
        <ele>1690.0</ele>
        <time>2018-07-29T13:18:43Z</time>
      </trkpt>
      <trkpt lat="40.521483" lon="-5.011800">
        <ele>1690.0</ele>
        <time>2018-07-29T13:18:44Z</time>
      </trkpt>
      <trkpt lat="40.521417" lon="-5.011600">
        <ele>1690.0</ele>
        <time>2018-07-29T13:18:45Z</time>
      </trkpt>
      <trkpt lat="40.521350" lon="-5.011400">
        <ele>1691.0</ele>
        <time>2018-07-29T13:18:46Z</time>
      </trkpt>
      <trkpt lat="40.521283" lon="-5.011200">
        <ele>1692.0</ele>
        <time>2018-07-29T13:18:47Z</time>
      </trkpt>
      <trkpt lat="40.521217" lon="-5.011017">
        <ele>1692.0</ele>
        <time>2018-07-29T13:18:48Z</time>
      </trkpt>
      <trkpt lat="40.521150" lon="-5.010850">
        <ele>1692.0</ele>
        <time>2018-07-29T13:18:49Z</time>
      </trkpt>
      <trkpt lat="40.521067" lon="-5.010683">
        <ele>1691.0</ele>
        <time>2018-07-29T13:18:50Z</time>
      </trkpt>
      <trkpt lat="40.520983" lon="-5.010517">
        <ele>1690.0</ele>
        <time>2018-07-29T13:18:51Z</time>
      </trkpt>
      <trkpt lat="40.520883" lon="-5.010350">
        <ele>1688.0</ele>
        <time>2018-07-29T13:18:52Z</time>
      </trkpt>
      <trkpt lat="40.520800" lon="-5.010150">
        <ele>1687.0</ele>
        <time>2018-07-29T13:18:53Z</time>
      </trkpt>
      <trkpt lat="40.520717" lon="-5.009950">
        <ele>1686.0</ele>
        <time>2018-07-29T13:18:54Z</time>
      </trkpt>
      <trkpt lat="40.520633" lon="-5.009733">
        <ele>1685.0</ele>
        <time>2018-07-29T13:18:55Z</time>
      </trkpt>
      <trkpt lat="40.520567" lon="-5.009517">
        <ele>1686.0</ele>
        <time>2018-07-29T13:18:56Z</time>
      </trkpt>
      <trkpt lat="40.520467" lon="-5.009317">
        <ele>1686.0</ele>
        <time>2018-07-29T13:18:57Z</time>
      </trkpt>
      <trkpt lat="40.520383" lon="-5.009100">
        <ele>1687.0</ele>
        <time>2018-07-29T13:18:58Z</time>
      </trkpt>
      <trkpt lat="40.520283" lon="-5.008900">
        <ele>1689.0</ele>
        <time>2018-07-29T13:18:59Z</time>
      </trkpt>
      <trkpt lat="40.520200" lon="-5.008717">
        <ele>1691.0</ele>
        <time>2018-07-29T13:19:00Z</time>
      </trkpt>
      <trkpt lat="40.520133" lon="-5.008550">
        <ele>1692.0</ele>
        <time>2018-07-29T13:19:01Z</time>
      </trkpt>
      <trkpt lat="40.520050" lon="-5.008367">
        <ele>1692.0</ele>
        <time>2018-07-29T13:19:02Z</time>
      </trkpt>
      <trkpt lat="40.520000" lon="-5.008200">
        <ele>1691.0</ele>
        <time>2018-07-29T13:19:03Z</time>
      </trkpt>
      <trkpt lat="40.519950" lon="-5.008017">
        <ele>1690.0</ele>
        <time>2018-07-29T13:19:04Z</time>
      </trkpt>
      <trkpt lat="40.519900" lon="-5.007817">
        <ele>1689.0</ele>
        <time>2018-07-29T13:19:05Z</time>
      </trkpt>
      <trkpt lat="40.519867" lon="-5.007633">
        <ele>1688.0</ele>
        <time>2018-07-29T13:19:06Z</time>
      </trkpt>
      <trkpt lat="40.519833" lon="-5.007433">
        <ele>1687.0</ele>
        <time>2018-07-29T13:19:07Z</time>
      </trkpt>
      <trkpt lat="40.519817" lon="-5.007267">
        <ele>1687.0</ele>
        <time>2018-07-29T13:19:08Z</time>
      </trkpt>
      <trkpt lat="40.519800" lon="-5.007100">
        <ele>1687.0</ele>
        <time>2018-07-29T13:19:09Z</time>
      </trkpt>
      <trkpt lat="40.519783" lon="-5.006950">
        <ele>1686.0</ele>
        <time>2018-07-29T13:19:10Z</time>
      </trkpt>
      <trkpt lat="40.519783" lon="-5.006783">
        <ele>1684.0</ele>
        <time>2018-07-29T13:19:11Z</time>
      </trkpt>
      <trkpt lat="40.519783" lon="-5.006633">
        <ele>1682.0</ele>
        <time>2018-07-29T13:19:12Z</time>
      </trkpt>
      <trkpt lat="40.519783" lon="-5.006467">
        <ele>1681.0</ele>
        <time>2018-07-29T13:19:13Z</time>
      </trkpt>
      <trkpt lat="40.519783" lon="-5.006300">
        <ele>1680.0</ele>
        <time>2018-07-29T13:19:14Z</time>
      </trkpt>
      <trkpt lat="40.519783" lon="-5.006133">
        <ele>1679.0</ele>
        <time>2018-07-29T13:19:15Z</time>
      </trkpt>
      <trkpt lat="40.519783" lon="-5.005967">
        <ele>1678.0</ele>
        <time>2018-07-29T13:19:16Z</time>
      </trkpt>
      <trkpt lat="40.519783" lon="-5.005800">
        <ele>1678.0</ele>
        <time>2018-07-29T13:19:17Z</time>
      </trkpt>
      <trkpt lat="40.519767" lon="-5.005617">
        <ele>1677.0</ele>
        <time>2018-07-29T13:19:18Z</time>
      </trkpt>
      <trkpt lat="40.519767" lon="-5.005433">
        <ele>1676.0</ele>
        <time>2018-07-29T13:19:19Z</time>
      </trkpt>
      <trkpt lat="40.519783" lon="-5.005267">
        <ele>1674.0</ele>
        <time>2018-07-29T13:19:20Z</time>
      </trkpt>
      <trkpt lat="40.519800" lon="-5.005083">
        <ele>1673.0</ele>
        <time>2018-07-29T13:19:21Z</time>
      </trkpt>
      <trkpt lat="40.519800" lon="-5.004900">
        <ele>1672.0</ele>
        <time>2018-07-29T13:19:22Z</time>
      </trkpt>
      <trkpt lat="40.519800" lon="-5.004717">
        <ele>1672.0</ele>
        <time>2018-07-29T13:19:23Z</time>
      </trkpt>
      <trkpt lat="40.519817" lon="-5.004517">
        <ele>1671.0</ele>
        <time>2018-07-29T13:19:24Z</time>
      </trkpt>
      <trkpt lat="40.519817" lon="-5.004350">
        <ele>1670.0</ele>
        <time>2018-07-29T13:19:25Z</time>
      </trkpt>
      <trkpt lat="40.519850" lon="-5.004183">
        <ele>1668.0</ele>
        <time>2018-07-29T13:19:26Z</time>
      </trkpt>
      <trkpt lat="40.519867" lon="-5.004033">
        <ele>1667.0</ele>
        <time>2018-07-29T13:19:27Z</time>
      </trkpt>
      <trkpt lat="40.519900" lon="-5.003867">
        <ele>1665.0</ele>
        <time>2018-07-29T13:19:28Z</time>
      </trkpt>
      <trkpt lat="40.519933" lon="-5.003717">
        <ele>1663.0</ele>
        <time>2018-07-29T13:19:29Z</time>
      </trkpt>
      <trkpt lat="40.519983" lon="-5.003583">
        <ele>1661.0</ele>
        <time>2018-07-29T13:19:30Z</time>
      </trkpt>
      <trkpt lat="40.520033" lon="-5.003483">
        <ele>1659.0</ele>
        <time>2018-07-29T13:19:31Z</time>
      </trkpt>
      <trkpt lat="40.520083" lon="-5.003400">
        <ele>1658.0</ele>
        <time>2018-07-29T13:19:32Z</time>
      </trkpt>
      <trkpt lat="40.520133" lon="-5.003333">
        <ele>1657.0</ele>
        <time>2018-07-29T13:19:33Z</time>
      </trkpt>
      <trkpt lat="40.520183" lon="-5.003267">
        <ele>1656.0</ele>
        <time>2018-07-29T13:19:34Z</time>
      </trkpt>
      <trkpt lat="40.520233" lon="-5.003183">
        <ele>1655.0</ele>
        <time>2018-07-29T13:19:35Z</time>
      </trkpt>
      <trkpt lat="40.520267" lon="-5.003117">
        <ele>1654.0</ele>
        <time>2018-07-29T13:19:36Z</time>
      </trkpt>
      <trkpt lat="40.520317" lon="-5.003033">
        <ele>1652.0</ele>
        <time>2018-07-29T13:19:37Z</time>
      </trkpt>
      <trkpt lat="40.520350" lon="-5.002967">
        <ele>1650.0</ele>
        <time>2018-07-29T13:19:38Z</time>
      </trkpt>
      <trkpt lat="40.520400" lon="-5.002867">
        <ele>1647.0</ele>
        <time>2018-07-29T13:19:39Z</time>
      </trkpt>
      <trkpt lat="40.520433" lon="-5.002733">
        <ele>1644.0</ele>
        <time>2018-07-29T13:19:40Z</time>
      </trkpt>
      <trkpt lat="40.520483" lon="-5.002600">
        <ele>1642.0</ele>
        <time>2018-07-29T13:19:41Z</time>
      </trkpt>
      <trkpt lat="40.520500" lon="-5.002450">
        <ele>1641.0</ele>
        <time>2018-07-29T13:19:42Z</time>
      </trkpt>
      <trkpt lat="40.520517" lon="-5.002300">
        <ele>1640.0</ele>
        <time>2018-07-29T13:19:43Z</time>
      </trkpt>
      <trkpt lat="40.520500" lon="-5.002150">
        <ele>1637.0</ele>
        <time>2018-07-29T13:19:44Z</time>
      </trkpt>
      <trkpt lat="40.520500" lon="-5.001983">
        <ele>1635.0</ele>
        <time>2018-07-29T13:19:45Z</time>
      </trkpt>
      <trkpt lat="40.520500" lon="-5.001800">
        <ele>1632.0</ele>
        <time>2018-07-29T13:19:46Z</time>
      </trkpt>
      <trkpt lat="40.520483" lon="-5.001600">
        <ele>1630.0</ele>
        <time>2018-07-29T13:19:47Z</time>
      </trkpt>
      <trkpt lat="40.520500" lon="-5.001400">
        <ele>1628.0</ele>
        <time>2018-07-29T13:19:48Z</time>
      </trkpt>
      <trkpt lat="40.520500" lon="-5.001217">
        <ele>1626.0</ele>
        <time>2018-07-29T13:19:49Z</time>
      </trkpt>
      <trkpt lat="40.520500" lon="-5.001033">
        <ele>1624.0</ele>
        <time>2018-07-29T13:19:50Z</time>
      </trkpt>
      <trkpt lat="40.520500" lon="-5.000867">
        <ele>1622.0</ele>
        <time>2018-07-29T13:19:51Z</time>
      </trkpt>
      <trkpt lat="40.520483" lon="-5.000667">
        <ele>1619.0</ele>
        <time>2018-07-29T13:19:52Z</time>
      </trkpt>
      <trkpt lat="40.520483" lon="-5.000467">
        <ele>1616.0</ele>
        <time>2018-07-29T13:19:53Z</time>
      </trkpt>
      <trkpt lat="40.520467" lon="-5.000267">
        <ele>1614.0</ele>
        <time>2018-07-29T13:19:54Z</time>
      </trkpt>
      <trkpt lat="40.520450" lon="-5.000067">
        <ele>1612.0</ele>
        <time>2018-07-29T13:19:55Z</time>
      </trkpt>
      <trkpt lat="40.520433" lon="-4.999867">
        <ele>1609.0</ele>
        <time>2018-07-29T13:19:56Z</time>
      </trkpt>
      <trkpt lat="40.520417" lon="-4.999650">
        <ele>1606.0</ele>
        <time>2018-07-29T13:19:57Z</time>
      </trkpt>
      <trkpt lat="40.520383" lon="-4.999450">
        <ele>1603.0</ele>
        <time>2018-07-29T13:19:58Z</time>
      </trkpt>
      <trkpt lat="40.520350" lon="-4.999233">
        <ele>1600.0</ele>
        <time>2018-07-29T13:19:59Z</time>
      </trkpt>
      <trkpt lat="40.520317" lon="-4.999017">
        <ele>1597.0</ele>
        <time>2018-07-29T13:20:00Z</time>
      </trkpt>
      <trkpt lat="40.520283" lon="-4.998817">
        <ele>1594.0</ele>
        <time>2018-07-29T13:20:01Z</time>
      </trkpt>
      <trkpt lat="40.520233" lon="-4.998600">
        <ele>1592.0</ele>
        <time>2018-07-29T13:20:02Z</time>
      </trkpt>
      <trkpt lat="40.520183" lon="-4.998383">
        <ele>1590.0</ele>
        <time>2018-07-29T13:20:03Z</time>
      </trkpt>
      <trkpt lat="40.520133" lon="-4.998167">
        <ele>1589.0</ele>
        <time>2018-07-29T13:20:04Z</time>
      </trkpt>
      <trkpt lat="40.520083" lon="-4.997967">
        <ele>1587.0</ele>
        <time>2018-07-29T13:20:05Z</time>
      </trkpt>
      <trkpt lat="40.520017" lon="-4.997767">
        <ele>1584.0</ele>
        <time>2018-07-29T13:20:06Z</time>
      </trkpt>
      <trkpt lat="40.519967" lon="-4.997550">
        <ele>1581.0</ele>
        <time>2018-07-29T13:20:07Z</time>
      </trkpt>
      <trkpt lat="40.519900" lon="-4.997350">
        <ele>1577.0</ele>
        <time>2018-07-29T13:20:08Z</time>
      </trkpt>
      <trkpt lat="40.519850" lon="-4.997133">
        <ele>1574.0</ele>
        <time>2018-07-29T13:20:09Z</time>
      </trkpt>
      <trkpt lat="40.519817" lon="-4.996900">
        <ele>1572.0</ele>
        <time>2018-07-29T13:20:10Z</time>
      </trkpt>
      <trkpt lat="40.519767" lon="-4.996683">
        <ele>1570.0</ele>
        <time>2018-07-29T13:20:11Z</time>
      </trkpt>
      <trkpt lat="40.519750" lon="-4.996467">
        <ele>1568.0</ele>
        <time>2018-07-29T13:20:12Z</time>
      </trkpt>
      <trkpt lat="40.519717" lon="-4.996267">
        <ele>1567.0</ele>
        <time>2018-07-29T13:20:13Z</time>
      </trkpt>
      <trkpt lat="40.519700" lon="-4.996067">
        <ele>1565.0</ele>
        <time>2018-07-29T13:20:14Z</time>
      </trkpt>
      <trkpt lat="40.519683" lon="-4.995867">
        <ele>1563.0</ele>
        <time>2018-07-29T13:20:15Z</time>
      </trkpt>
      <trkpt lat="40.519667" lon="-4.995650">
        <ele>1561.0</ele>
        <time>2018-07-29T13:20:16Z</time>
      </trkpt>
      <trkpt lat="40.519650" lon="-4.995450">
        <ele>1559.0</ele>
        <time>2018-07-29T13:20:17Z</time>
      </trkpt>
      <trkpt lat="40.519633" lon="-4.995267">
        <ele>1557.0</ele>
        <time>2018-07-29T13:20:18Z</time>
      </trkpt>
      <trkpt lat="40.519617" lon="-4.995083">
        <ele>1556.0</ele>
        <time>2018-07-29T13:20:19Z</time>
      </trkpt>
      <trkpt lat="40.519600" lon="-4.994900">
        <ele>1555.0</ele>
        <time>2018-07-29T13:20:20Z</time>
      </trkpt>
      <trkpt lat="40.519583" lon="-4.994717">
        <ele>1552.0</ele>
        <time>2018-07-29T13:20:21Z</time>
      </trkpt>
      <trkpt lat="40.519550" lon="-4.994533">
        <ele>1549.0</ele>
        <time>2018-07-29T13:20:22Z</time>
      </trkpt>
      <trkpt lat="40.519517" lon="-4.994317">
        <ele>1546.0</ele>
        <time>2018-07-29T13:20:23Z</time>
      </trkpt>
      <trkpt lat="40.519500" lon="-4.994100">
        <ele>1543.0</ele>
        <time>2018-07-29T13:20:24Z</time>
      </trkpt>
      <trkpt lat="40.519467" lon="-4.993900">
        <ele>1540.0</ele>
        <time>2018-07-29T13:20:25Z</time>
      </trkpt>
      <trkpt lat="40.519433" lon="-4.993683">
        <ele>1538.0</ele>
        <time>2018-07-29T13:20:26Z</time>
      </trkpt>
      <trkpt lat="40.519417" lon="-4.993483">
        <ele>1536.0</ele>
        <time>2018-07-29T13:20:27Z</time>
      </trkpt>
      <trkpt lat="40.519383" lon="-4.993283">
        <ele>1533.0</ele>
        <time>2018-07-29T13:20:28Z</time>
      </trkpt>
      <trkpt lat="40.519367" lon="-4.993067">
        <ele>1529.0</ele>
        <time>2018-07-29T13:20:29Z</time>
      </trkpt>
      <trkpt lat="40.519350" lon="-4.992850">
        <ele>1526.0</ele>
        <time>2018-07-29T13:20:30Z</time>
      </trkpt>
      <trkpt lat="40.519317" lon="-4.992633">
        <ele>1525.0</ele>
        <time>2018-07-29T13:20:31Z</time>
      </trkpt>
      <trkpt lat="40.519300" lon="-4.992433">
        <ele>1523.0</ele>
        <time>2018-07-29T13:20:32Z</time>
      </trkpt>
      <trkpt lat="40.519267" lon="-4.992233">
        <ele>1522.0</ele>
        <time>2018-07-29T13:20:33Z</time>
      </trkpt>
      <trkpt lat="40.519250" lon="-4.992050">
        <ele>1520.0</ele>
        <time>2018-07-29T13:20:34Z</time>
      </trkpt>
      <trkpt lat="40.519217" lon="-4.991867">
        <ele>1517.0</ele>
        <time>2018-07-29T13:20:35Z</time>
      </trkpt>
      <trkpt lat="40.519200" lon="-4.991667">
        <ele>1512.0</ele>
        <time>2018-07-29T13:20:36Z</time>
      </trkpt>
      <trkpt lat="40.519183" lon="-4.991450">
        <ele>1507.0</ele>
        <time>2018-07-29T13:20:37Z</time>
      </trkpt>
      <trkpt lat="40.519150" lon="-4.991233">
        <ele>1504.0</ele>
        <time>2018-07-29T13:20:38Z</time>
      </trkpt>
      <trkpt lat="40.519133" lon="-4.991000">
        <ele>1503.0</ele>
        <time>2018-07-29T13:20:39Z</time>
      </trkpt>
      <trkpt lat="40.519100" lon="-4.990817">
        <ele>1504.0</ele>
        <time>2018-07-29T13:20:40Z</time>
      </trkpt>
      <trkpt lat="40.519083" lon="-4.990633">
        <ele>1503.0</ele>
        <time>2018-07-29T13:20:41Z</time>
      </trkpt>
      <trkpt lat="40.519067" lon="-4.990467">
        <ele>1502.0</ele>
        <time>2018-07-29T13:20:42Z</time>
      </trkpt>
      <trkpt lat="40.519067" lon="-4.990283">
        <ele>1499.0</ele>
        <time>2018-07-29T13:20:43Z</time>
      </trkpt>
      <trkpt lat="40.519050" lon="-4.990100">
        <ele>1497.0</ele>
        <time>2018-07-29T13:20:44Z</time>
      </trkpt>
      <trkpt lat="40.519050" lon="-4.989900">
        <ele>1495.0</ele>
        <time>2018-07-29T13:20:45Z</time>
      </trkpt>
      <trkpt lat="40.519067" lon="-4.989717">
        <ele>1493.0</ele>
        <time>2018-07-29T13:20:46Z</time>
      </trkpt>
      <trkpt lat="40.519067" lon="-4.989533">
        <ele>1493.0</ele>
        <time>2018-07-29T13:20:47Z</time>
      </trkpt>
      <trkpt lat="40.519067" lon="-4.989350">
        <ele>1492.0</ele>
        <time>2018-07-29T13:20:48Z</time>
      </trkpt>
      <trkpt lat="40.519050" lon="-4.989183">
        <ele>1491.0</ele>
        <time>2018-07-29T13:20:49Z</time>
      </trkpt>
      <trkpt lat="40.519033" lon="-4.989000">
        <ele>1490.0</ele>
        <time>2018-07-29T13:20:50Z</time>
      </trkpt>
      <trkpt lat="40.519033" lon="-4.988817">
        <ele>1488.0</ele>
        <time>2018-07-29T13:20:51Z</time>
      </trkpt>
      <trkpt lat="40.519033" lon="-4.988633">
        <ele>1487.0</ele>
        <time>2018-07-29T13:20:52Z</time>
      </trkpt>
      <trkpt lat="40.519033" lon="-4.988433">
        <ele>1485.0</ele>
        <time>2018-07-29T13:20:53Z</time>
      </trkpt>
      <trkpt lat="40.519033" lon="-4.988250">
        <ele>1484.0</ele>
        <time>2018-07-29T13:20:54Z</time>
      </trkpt>
      <trkpt lat="40.519017" lon="-4.988067">
        <ele>1483.0</ele>
        <time>2018-07-29T13:20:55Z</time>
      </trkpt>
      <trkpt lat="40.519017" lon="-4.987883">
        <ele>1481.0</ele>
        <time>2018-07-29T13:20:56Z</time>
      </trkpt>
      <trkpt lat="40.519000" lon="-4.987700">
        <ele>1479.0</ele>
        <time>2018-07-29T13:20:57Z</time>
      </trkpt>
      <trkpt lat="40.518983" lon="-4.987500">
        <ele>1477.0</ele>
        <time>2018-07-29T13:20:58Z</time>
      </trkpt>
      <trkpt lat="40.519000" lon="-4.987317">
        <ele>1475.0</ele>
        <time>2018-07-29T13:20:59Z</time>
      </trkpt>
      <trkpt lat="40.519000" lon="-4.987133">
        <ele>1473.0</ele>
        <time>2018-07-29T13:21:00Z</time>
      </trkpt>
      <trkpt lat="40.519000" lon="-4.986950">
        <ele>1473.0</ele>
        <time>2018-07-29T13:21:01Z</time>
      </trkpt>
      <trkpt lat="40.519017" lon="-4.986783">
        <ele>1471.0</ele>
        <time>2018-07-29T13:21:02Z</time>
      </trkpt>
      <trkpt lat="40.519050" lon="-4.986617">
        <ele>1470.0</ele>
        <time>2018-07-29T13:21:03Z</time>
      </trkpt>
      <trkpt lat="40.519083" lon="-4.986467">
        <ele>1468.0</ele>
        <time>2018-07-29T13:21:04Z</time>
      </trkpt>
      <trkpt lat="40.519133" lon="-4.986333">
        <ele>1466.0</ele>
        <time>2018-07-29T13:21:05Z</time>
      </trkpt>
      <trkpt lat="40.519200" lon="-4.986200">
        <ele>1464.0</ele>
        <time>2018-07-29T13:21:06Z</time>
      </trkpt>
      <trkpt lat="40.519250" lon="-4.986083">
        <ele>1462.0</ele>
        <time>2018-07-29T13:21:07Z</time>
      </trkpt>
      <trkpt lat="40.519300" lon="-4.985967">
        <ele>1460.0</ele>
        <time>2018-07-29T13:21:08Z</time>
      </trkpt>
      <trkpt lat="40.519367" lon="-4.985850">
        <ele>1458.0</ele>
        <time>2018-07-29T13:21:09Z</time>
      </trkpt>
      <trkpt lat="40.519417" lon="-4.985733">
        <ele>1456.0</ele>
        <time>2018-07-29T13:21:10Z</time>
      </trkpt>
      <trkpt lat="40.519467" lon="-4.985617">
        <ele>1454.0</ele>
        <time>2018-07-29T13:21:11Z</time>
      </trkpt>
      <trkpt lat="40.519533" lon="-4.985500">
        <ele>1452.0</ele>
        <time>2018-07-29T13:21:12Z</time>
      </trkpt>
      <trkpt lat="40.519600" lon="-4.985383">
        <ele>1451.0</ele>
        <time>2018-07-29T13:21:13Z</time>
      </trkpt>
      <trkpt lat="40.519667" lon="-4.985267">
        <ele>1450.0</ele>
        <time>2018-07-29T13:21:14Z</time>
      </trkpt>
      <trkpt lat="40.519717" lon="-4.985150">
        <ele>1448.0</ele>
        <time>2018-07-29T13:21:15Z</time>
      </trkpt>
      <trkpt lat="40.519767" lon="-4.985017">
        <ele>1447.0</ele>
        <time>2018-07-29T13:21:16Z</time>
      </trkpt>
      <trkpt lat="40.519833" lon="-4.984900">
        <ele>1445.0</ele>
        <time>2018-07-29T13:21:17Z</time>
      </trkpt>
      <trkpt lat="40.519900" lon="-4.984783">
        <ele>1443.0</ele>
        <time>2018-07-29T13:21:18Z</time>
      </trkpt>
      <trkpt lat="40.519967" lon="-4.984667">
        <ele>1441.0</ele>
        <time>2018-07-29T13:21:19Z</time>
      </trkpt>
      <trkpt lat="40.520033" lon="-4.984550">
        <ele>1440.0</ele>
        <time>2018-07-29T13:21:20Z</time>
      </trkpt>
      <trkpt lat="40.520100" lon="-4.984417">
        <ele>1439.0</ele>
        <time>2018-07-29T13:21:21Z</time>
      </trkpt>
      <trkpt lat="40.520150" lon="-4.984300">
        <ele>1438.0</ele>
        <time>2018-07-29T13:21:22Z</time>
      </trkpt>
      <trkpt lat="40.520217" lon="-4.984167">
        <ele>1436.0</ele>
        <time>2018-07-29T13:21:23Z</time>
      </trkpt>
      <trkpt lat="40.520267" lon="-4.984017">
        <ele>1435.0</ele>
        <time>2018-07-29T13:21:24Z</time>
      </trkpt>
      <trkpt lat="40.520333" lon="-4.983900">
        <ele>1434.0</ele>
        <time>2018-07-29T13:21:25Z</time>
      </trkpt>
      <trkpt lat="40.520383" lon="-4.983767">
        <ele>1433.0</ele>
        <time>2018-07-29T13:21:26Z</time>
      </trkpt>
      <trkpt lat="40.520450" lon="-4.983650">
        <ele>1433.0</ele>
        <time>2018-07-29T13:21:27Z</time>
      </trkpt>
      <trkpt lat="40.520500" lon="-4.983533">
        <ele>1432.0</ele>
        <time>2018-07-29T13:21:28Z</time>
      </trkpt>
      <trkpt lat="40.520567" lon="-4.983433">
        <ele>1431.0</ele>
        <time>2018-07-29T13:21:29Z</time>
      </trkpt>
      <trkpt lat="40.520617" lon="-4.983333">
        <ele>1431.0</ele>
        <time>2018-07-29T13:21:30Z</time>
      </trkpt>
      <trkpt lat="40.520683" lon="-4.983233">
        <ele>1432.0</ele>
        <time>2018-07-29T13:21:31Z</time>
      </trkpt>
      <trkpt lat="40.520750" lon="-4.983150">
        <ele>1432.0</ele>
        <time>2018-07-29T13:21:32Z</time>
      </trkpt>
      <trkpt lat="40.520800" lon="-4.983050">
        <ele>1433.0</ele>
        <time>2018-07-29T13:21:33Z</time>
      </trkpt>
      <trkpt lat="40.520867" lon="-4.982967">
        <ele>1433.0</ele>
        <time>2018-07-29T13:21:34Z</time>
      </trkpt>
      <trkpt lat="40.520917" lon="-4.982867">
        <ele>1433.0</ele>
        <time>2018-07-29T13:21:35Z</time>
      </trkpt>
      <trkpt lat="40.520983" lon="-4.982800">
        <ele>1433.0</ele>
        <time>2018-07-29T13:21:36Z</time>
      </trkpt>
      <trkpt lat="40.521033" lon="-4.982750">
        <ele>1432.0</ele>
        <time>2018-07-29T13:21:37Z</time>
      </trkpt>
      <trkpt lat="40.521083" lon="-4.982733">
        <ele>1431.0</ele>
        <time>2018-07-29T13:21:38Z</time>
      </trkpt>
      <trkpt lat="40.521133" lon="-4.982717">
        <ele>1429.0</ele>
        <time>2018-07-29T13:21:39Z</time>
      </trkpt>
      <trkpt lat="40.521183" lon="-4.982700">
        <ele>1430.0</ele>
        <time>2018-07-29T13:21:40Z</time>
      </trkpt>
      <trkpt lat="40.521233" lon="-4.982667">
        <ele>1430.0</ele>
        <time>2018-07-29T13:21:41Z</time>
      </trkpt>
      <trkpt lat="40.521283" lon="-4.982600">
        <ele>1429.0</ele>
        <time>2018-07-29T13:21:42Z</time>
      </trkpt>
      <trkpt lat="40.521333" lon="-4.982517">
        <ele>1428.0</ele>
        <time>2018-07-29T13:21:43Z</time>
      </trkpt>
      <trkpt lat="40.521400" lon="-4.982433">
        <ele>1426.0</ele>
        <time>2018-07-29T13:21:44Z</time>
      </trkpt>
      <trkpt lat="40.521467" lon="-4.982367">
        <ele>1426.0</ele>
        <time>2018-07-29T13:21:45Z</time>
      </trkpt>
      <trkpt lat="40.521533" lon="-4.982283">
        <ele>1425.0</ele>
        <time>2018-07-29T13:21:46Z</time>
      </trkpt>
      <trkpt lat="40.521600" lon="-4.982183">
        <ele>1424.0</ele>
        <time>2018-07-29T13:21:47Z</time>
      </trkpt>
      <trkpt lat="40.521650" lon="-4.982083">
        <ele>1424.0</ele>
        <time>2018-07-29T13:21:48Z</time>
      </trkpt>
      <trkpt lat="40.521717" lon="-4.981967">
        <ele>1423.0</ele>
        <time>2018-07-29T13:21:49Z</time>
      </trkpt>
      <trkpt lat="40.521783" lon="-4.981850">
        <ele>1422.0</ele>
        <time>2018-07-29T13:21:50Z</time>
      </trkpt>
      <trkpt lat="40.521833" lon="-4.981750">
        <ele>1421.0</ele>
        <time>2018-07-29T13:21:51Z</time>
      </trkpt>
      <trkpt lat="40.521900" lon="-4.981667">
        <ele>1419.0</ele>
        <time>2018-07-29T13:21:52Z</time>
      </trkpt>
      <trkpt lat="40.521950" lon="-4.981583">
        <ele>1418.0</ele>
        <time>2018-07-29T13:21:53Z</time>
      </trkpt>
      <trkpt lat="40.522017" lon="-4.981517">
        <ele>1416.0</ele>
        <time>2018-07-29T13:21:54Z</time>
      </trkpt>
      <trkpt lat="40.522083" lon="-4.981450">
        <ele>1414.0</ele>
        <time>2018-07-29T13:21:55Z</time>
      </trkpt>
      <trkpt lat="40.522150" lon="-4.981400">
        <ele>1412.0</ele>
        <time>2018-07-29T13:21:56Z</time>
      </trkpt>
      <trkpt lat="40.522200" lon="-4.981367">
        <ele>1410.0</ele>
        <time>2018-07-29T13:21:57Z</time>
      </trkpt>
      <trkpt lat="40.522267" lon="-4.981333">
        <ele>1407.0</ele>
        <time>2018-07-29T13:21:58Z</time>
      </trkpt>
      <trkpt lat="40.522333" lon="-4.981300">
        <ele>1405.0</ele>
        <time>2018-07-29T13:21:59Z</time>
      </trkpt>
      <trkpt lat="40.522400" lon="-4.981267">
        <ele>1403.0</ele>
        <time>2018-07-29T13:22:00Z</time>
      </trkpt>
      <trkpt lat="40.522467" lon="-4.981250">
        <ele>1401.0</ele>
        <time>2018-07-29T13:22:01Z</time>
      </trkpt>
      <trkpt lat="40.522533" lon="-4.981233">
        <ele>1399.0</ele>
        <time>2018-07-29T13:22:02Z</time>
      </trkpt>
      <trkpt lat="40.522583" lon="-4.981233">
        <ele>1397.0</ele>
        <time>2018-07-29T13:22:03Z</time>
      </trkpt>
      <trkpt lat="40.522650" lon="-4.981217">
        <ele>1395.0</ele>
        <time>2018-07-29T13:22:04Z</time>
      </trkpt>
      <trkpt lat="40.522700" lon="-4.981200">
        <ele>1392.0</ele>
        <time>2018-07-29T13:22:05Z</time>
      </trkpt>
      <trkpt lat="40.522750" lon="-4.981183">
        <ele>1390.0</ele>
        <time>2018-07-29T13:22:06Z</time>
      </trkpt>
      <trkpt lat="40.522817" lon="-4.981167">
        <ele>1387.0</ele>
        <time>2018-07-29T13:22:07Z</time>
      </trkpt>
      <trkpt lat="40.522867" lon="-4.981167">
        <ele>1385.0</ele>
        <time>2018-07-29T13:22:08Z</time>
      </trkpt>
      <trkpt lat="40.522917" lon="-4.981183">
        <ele>1383.0</ele>
        <time>2018-07-29T13:22:09Z</time>
      </trkpt>
      <trkpt lat="40.522967" lon="-4.981183">
        <ele>1382.0</ele>
        <time>2018-07-29T13:22:10Z</time>
      </trkpt>
      <trkpt lat="40.523017" lon="-4.981200">
        <ele>1380.0</ele>
        <time>2018-07-29T13:22:11Z</time>
      </trkpt>
      <trkpt lat="40.523033" lon="-4.981217">
        <ele>1379.0</ele>
        <time>2018-07-29T13:22:12Z</time>
      </trkpt>
      <trkpt lat="40.523067" lon="-4.981250">
        <ele>1377.0</ele>
        <time>2018-07-29T13:22:13Z</time>
      </trkpt>
      <trkpt lat="40.523083" lon="-4.981283">
        <ele>1375.0</ele>
        <time>2018-07-29T13:22:14Z</time>
      </trkpt>
      <trkpt lat="40.523100" lon="-4.981317">
        <ele>1373.0</ele>
        <time>2018-07-29T13:22:15Z</time>
      </trkpt>
      <trkpt lat="40.523133" lon="-4.981367">
        <ele>1372.0</ele>
        <time>2018-07-29T13:22:16Z</time>
      </trkpt>
      <trkpt lat="40.523150" lon="-4.981400">
        <ele>1371.0</ele>
        <time>2018-07-29T13:22:17Z</time>
      </trkpt>
      <trkpt lat="40.523167" lon="-4.981417">
        <ele>1370.0</ele>
        <time>2018-07-29T13:22:18Z</time>
      </trkpt>
      <trkpt lat="40.523167" lon="-4.981450">
        <ele>1369.0</ele>
        <time>2018-07-29T13:22:19Z</time>
      </trkpt>
      <trkpt lat="40.523183" lon="-4.981483">
        <ele>1368.0</ele>
        <time>2018-07-29T13:22:20Z</time>
      </trkpt>
      <trkpt lat="40.523217" lon="-4.981483">
        <ele>1366.0</ele>
        <time>2018-07-29T13:22:21Z</time>
      </trkpt>
      <trkpt lat="40.523267" lon="-4.981483">
        <ele>1364.0</ele>
        <time>2018-07-29T13:22:22Z</time>
      </trkpt>
      <trkpt lat="40.523333" lon="-4.981433">
        <ele>1363.0</ele>
        <time>2018-07-29T13:22:23Z</time>
      </trkpt>
      <trkpt lat="40.523383" lon="-4.981383">
        <ele>1362.0</ele>
        <time>2018-07-29T13:22:24Z</time>
      </trkpt>
      <trkpt lat="40.523450" lon="-4.981300">
        <ele>1361.0</ele>
        <time>2018-07-29T13:22:25Z</time>
      </trkpt>
      <trkpt lat="40.523500" lon="-4.981200">
        <ele>1359.0</ele>
        <time>2018-07-29T13:22:26Z</time>
      </trkpt>
      <trkpt lat="40.523533" lon="-4.981083">
        <ele>1356.0</ele>
        <time>2018-07-29T13:22:27Z</time>
      </trkpt>
      <trkpt lat="40.523583" lon="-4.980950">
        <ele>1354.0</ele>
        <time>2018-07-29T13:22:28Z</time>
      </trkpt>
      <trkpt lat="40.523617" lon="-4.980783">
        <ele>1352.0</ele>
        <time>2018-07-29T13:22:29Z</time>
      </trkpt>
      <trkpt lat="40.523650" lon="-4.980600">
        <ele>1351.0</ele>
        <time>2018-07-29T13:22:30Z</time>
      </trkpt>
      <trkpt lat="40.523683" lon="-4.980433">
        <ele>1350.0</ele>
        <time>2018-07-29T13:22:31Z</time>
      </trkpt>
      <trkpt lat="40.523717" lon="-4.980283">
        <ele>1347.0</ele>
        <time>2018-07-29T13:22:32Z</time>
      </trkpt>
      <trkpt lat="40.523733" lon="-4.980117">
        <ele>1345.0</ele>
        <time>2018-07-29T13:22:33Z</time>
      </trkpt>
      <trkpt lat="40.523750" lon="-4.979950">
        <ele>1342.0</ele>
        <time>2018-07-29T13:22:34Z</time>
      </trkpt>
      <trkpt lat="40.523767" lon="-4.979767">
        <ele>1339.0</ele>
        <time>2018-07-29T13:22:35Z</time>
      </trkpt>
      <trkpt lat="40.523800" lon="-4.979600">
        <ele>1336.0</ele>
        <time>2018-07-29T13:22:36Z</time>
      </trkpt>
      <trkpt lat="40.523833" lon="-4.979450">
        <ele>1333.0</ele>
        <time>2018-07-29T13:22:37Z</time>
      </trkpt>
      <trkpt lat="40.523883" lon="-4.979283">
        <ele>1330.0</ele>
        <time>2018-07-29T13:22:38Z</time>
      </trkpt>
      <trkpt lat="40.523933" lon="-4.979133">
        <ele>1326.0</ele>
        <time>2018-07-29T13:22:39Z</time>
      </trkpt>
      <trkpt lat="40.523983" lon="-4.978967">
        <ele>1324.0</ele>
        <time>2018-07-29T13:22:40Z</time>
      </trkpt>
      <trkpt lat="40.524017" lon="-4.978800">
        <ele>1322.0</ele>
        <time>2018-07-29T13:22:41Z</time>
      </trkpt>
      <trkpt lat="40.524067" lon="-4.978617">
        <ele>1320.0</ele>
        <time>2018-07-29T13:22:42Z</time>
      </trkpt>
      <trkpt lat="40.524117" lon="-4.978450">
        <ele>1319.0</ele>
        <time>2018-07-29T13:22:43Z</time>
      </trkpt>
      <trkpt lat="40.524150" lon="-4.978267">
        <ele>1318.0</ele>
        <time>2018-07-29T13:22:44Z</time>
      </trkpt>
      <trkpt lat="40.524183" lon="-4.978083">
        <ele>1318.0</ele>
        <time>2018-07-29T13:22:45Z</time>
      </trkpt>
      <trkpt lat="40.524183" lon="-4.977900">
        <ele>1317.0</ele>
        <time>2018-07-29T13:22:46Z</time>
      </trkpt>
      <trkpt lat="40.524200" lon="-4.977717">
        <ele>1316.0</ele>
        <time>2018-07-29T13:22:47Z</time>
      </trkpt>
      <trkpt lat="40.524200" lon="-4.977550">
        <ele>1313.0</ele>
        <time>2018-07-29T13:22:48Z</time>
      </trkpt>
      <trkpt lat="40.524217" lon="-4.977367">
        <ele>1311.0</ele>
        <time>2018-07-29T13:22:49Z</time>
      </trkpt>
      <trkpt lat="40.524233" lon="-4.977183">
        <ele>1309.0</ele>
        <time>2018-07-29T13:22:50Z</time>
      </trkpt>
      <trkpt lat="40.524250" lon="-4.976983">
        <ele>1309.0</ele>
        <time>2018-07-29T13:22:51Z</time>
      </trkpt>
      <trkpt lat="40.524283" lon="-4.976800">
        <ele>1310.0</ele>
        <time>2018-07-29T13:22:52Z</time>
      </trkpt>
      <trkpt lat="40.524300" lon="-4.976617">
        <ele>1312.0</ele>
        <time>2018-07-29T13:22:53Z</time>
      </trkpt>
      <trkpt lat="40.524333" lon="-4.976450">
        <ele>1316.0</ele>
        <time>2018-07-29T13:22:54Z</time>
      </trkpt>
      <trkpt lat="40.524333" lon="-4.976300">
        <ele>1320.0</ele>
        <time>2018-07-29T13:22:55Z</time>
      </trkpt>
      <trkpt lat="40.524300" lon="-4.976150">
        <ele>1323.0</ele>
        <time>2018-07-29T13:22:56Z</time>
      </trkpt>
      <trkpt lat="40.524250" lon="-4.976000">
        <ele>1323.0</ele>
        <time>2018-07-29T13:22:57Z</time>
      </trkpt>
      <trkpt lat="40.524150" lon="-4.975850">
        <ele>1322.0</ele>
        <time>2018-07-29T13:22:58Z</time>
      </trkpt>
      <trkpt lat="40.524033" lon="-4.975667">
        <ele>1322.0</ele>
        <time>2018-07-29T13:22:59Z</time>
      </trkpt>
      <trkpt lat="40.523917" lon="-4.975483">
        <ele>1325.0</ele>
        <time>2018-07-29T13:23:00Z</time>
      </trkpt>
      <trkpt lat="40.523800" lon="-4.975367">
        <ele>1330.0</ele>
        <time>2018-07-29T13:23:01Z</time>
      </trkpt>
      <trkpt lat="40.523683" lon="-4.975300">
        <ele>1332.0</ele>
        <time>2018-07-29T13:23:02Z</time>
      </trkpt>
      <trkpt lat="40.523600" lon="-4.975317">
        <ele>1331.0</ele>
        <time>2018-07-29T13:23:03Z</time>
      </trkpt>
      <trkpt lat="40.523533" lon="-4.975367">
        <ele>1330.0</ele>
        <time>2018-07-29T13:23:04Z</time>
      </trkpt>
      <trkpt lat="40.523500" lon="-4.975433">
        <ele>1330.0</ele>
        <time>2018-07-29T13:23:05Z</time>
      </trkpt>
      <trkpt lat="40.523500" lon="-4.975483">
        <ele>1330.0</ele>
        <time>2018-07-29T13:23:06Z</time>
      </trkpt>
      <trkpt lat="40.523517" lon="-4.975533">
        <ele>1330.0</ele>
        <time>2018-07-29T13:23:07Z</time>
      </trkpt>
      <trkpt lat="40.523550" lon="-4.975550">
        <ele>1332.0</ele>
        <time>2018-07-29T13:23:08Z</time>
      </trkpt>
      <trkpt lat="40.523583" lon="-4.975550">
        <ele>1336.0</ele>
        <time>2018-07-29T13:23:09Z</time>
      </trkpt>
      <trkpt lat="40.523600" lon="-4.975533">
        <ele>1339.0</ele>
        <time>2018-07-29T13:23:10Z</time>
      </trkpt>
      <trkpt lat="40.523617" lon="-4.975483">
        <ele>1341.0</ele>
        <time>2018-07-29T13:23:11Z</time>
      </trkpt>
      <trkpt lat="40.523633" lon="-4.975433">
        <ele>1343.0</ele>
        <time>2018-07-29T13:23:12Z</time>
      </trkpt>
      <trkpt lat="40.523667" lon="-4.975383">
        <ele>1343.0</ele>
        <time>2018-07-29T13:23:13Z</time>
      </trkpt>
      <trkpt lat="40.523717" lon="-4.975333">
        <ele>1344.0</ele>
        <time>2018-07-29T13:23:14Z</time>
      </trkpt>
      <trkpt lat="40.523767" lon="-4.975267">
        <ele>1344.0</ele>
        <time>2018-07-29T13:23:15Z</time>
      </trkpt>
      <trkpt lat="40.523800" lon="-4.975200">
        <ele>1346.0</ele>
        <time>2018-07-29T13:23:16Z</time>
      </trkpt>
      <trkpt lat="40.523817" lon="-4.975083">
        <ele>1346.0</ele>
        <time>2018-07-29T13:23:17Z</time>
      </trkpt>
      <trkpt lat="40.523850" lon="-4.974967">
        <ele>1346.0</ele>
        <time>2018-07-29T13:23:18Z</time>
      </trkpt>
      <trkpt lat="40.523850" lon="-4.974833">
        <ele>1346.0</ele>
        <time>2018-07-29T13:23:19Z</time>
      </trkpt>
      <trkpt lat="40.523850" lon="-4.974683">
        <ele>1346.0</ele>
        <time>2018-07-29T13:23:20Z</time>
      </trkpt>
      <trkpt lat="40.523833" lon="-4.974533">
        <ele>1346.0</ele>
        <time>2018-07-29T13:23:21Z</time>
      </trkpt>
      <trkpt lat="40.523817" lon="-4.974367">
        <ele>1345.0</ele>
        <time>2018-07-29T13:23:22Z</time>
      </trkpt>
      <trkpt lat="40.523783" lon="-4.974183">
        <ele>1346.0</ele>
        <time>2018-07-29T13:23:23Z</time>
      </trkpt>
      <trkpt lat="40.523733" lon="-4.973983">
        <ele>1347.0</ele>
        <time>2018-07-29T13:23:24Z</time>
      </trkpt>
      <trkpt lat="40.523683" lon="-4.973800">
        <ele>1349.0</ele>
        <time>2018-07-29T13:23:25Z</time>
      </trkpt>
      <trkpt lat="40.523600" lon="-4.973617">
        <ele>1351.0</ele>
        <time>2018-07-29T13:23:26Z</time>
      </trkpt>
      <trkpt lat="40.523517" lon="-4.973467">
        <ele>1352.0</ele>
        <time>2018-07-29T13:23:27Z</time>
      </trkpt>
      <trkpt lat="40.523400" lon="-4.973350">
        <ele>1354.0</ele>
        <time>2018-07-29T13:23:28Z</time>
      </trkpt>
      <trkpt lat="40.523283" lon="-4.973250">
        <ele>1355.0</ele>
        <time>2018-07-29T13:23:29Z</time>
      </trkpt>
      <trkpt lat="40.523167" lon="-4.973150">
        <ele>1358.0</ele>
        <time>2018-07-29T13:23:30Z</time>
      </trkpt>
      <trkpt lat="40.523067" lon="-4.973100">
        <ele>1360.0</ele>
        <time>2018-07-29T13:23:31Z</time>
      </trkpt>
      <trkpt lat="40.522950" lon="-4.973067">
        <ele>1361.0</ele>
        <time>2018-07-29T13:23:32Z</time>
      </trkpt>
      <trkpt lat="40.522867" lon="-4.973067">
        <ele>1361.0</ele>
        <time>2018-07-29T13:23:33Z</time>
      </trkpt>
      <trkpt lat="40.522783" lon="-4.973100">
        <ele>1362.0</ele>
        <time>2018-07-29T13:23:34Z</time>
      </trkpt>
      <trkpt lat="40.522733" lon="-4.973150">
        <ele>1362.0</ele>
        <time>2018-07-29T13:23:35Z</time>
      </trkpt>
      <trkpt lat="40.522700" lon="-4.973200">
        <ele>1362.0</ele>
        <time>2018-07-29T13:23:36Z</time>
      </trkpt>
      <trkpt lat="40.522700" lon="-4.973267">
        <ele>1361.0</ele>
        <time>2018-07-29T13:23:37Z</time>
      </trkpt>
      <trkpt lat="40.522717" lon="-4.973333">
        <ele>1361.0</ele>
        <time>2018-07-29T13:23:38Z</time>
      </trkpt>
      <trkpt lat="40.522733" lon="-4.973383">
        <ele>1364.0</ele>
        <time>2018-07-29T13:23:39Z</time>
      </trkpt>
      <trkpt lat="40.522767" lon="-4.973400">
        <ele>1368.0</ele>
        <time>2018-07-29T13:23:40Z</time>
      </trkpt>
      <trkpt lat="40.522767" lon="-4.973400">
        <ele>1373.0</ele>
        <time>2018-07-29T13:23:41Z</time>
      </trkpt>
      <trkpt lat="40.522767" lon="-4.973350">
        <ele>1375.0</ele>
        <time>2018-07-29T13:23:42Z</time>
      </trkpt>
      <trkpt lat="40.522767" lon="-4.973317">
        <ele>1375.0</ele>
        <time>2018-07-29T13:23:43Z</time>
      </trkpt>
      <trkpt lat="40.522767" lon="-4.973300">
        <ele>1375.0</ele>
        <time>2018-07-29T13:23:44Z</time>
      </trkpt>
      <trkpt lat="40.522800" lon="-4.973283">
        <ele>1373.0</ele>
        <time>2018-07-29T13:23:45Z</time>
      </trkpt>
      <trkpt lat="40.522850" lon="-4.973267">
        <ele>1372.0</ele>
        <time>2018-07-29T13:23:46Z</time>
      </trkpt>
      <trkpt lat="40.522900" lon="-4.973183">
        <ele>1372.0</ele>
        <time>2018-07-29T13:23:47Z</time>
      </trkpt>
      <trkpt lat="40.522967" lon="-4.973067">
        <ele>1371.0</ele>
        <time>2018-07-29T13:23:48Z</time>
      </trkpt>
      <trkpt lat="40.523017" lon="-4.972933">
        <ele>1372.0</ele>
        <time>2018-07-29T13:23:49Z</time>
      </trkpt>
      <trkpt lat="40.523067" lon="-4.972833">
        <ele>1375.0</ele>
        <time>2018-07-29T13:23:50Z</time>
      </trkpt>
      <trkpt lat="40.523100" lon="-4.972733">
        <ele>1380.0</ele>
        <time>2018-07-29T13:23:51Z</time>
      </trkpt>
      <trkpt lat="40.523100" lon="-4.972650">
        <ele>1384.0</ele>
        <time>2018-07-29T13:23:52Z</time>
      </trkpt>
      <trkpt lat="40.523083" lon="-4.972533">
        <ele>1385.0</ele>
        <time>2018-07-29T13:23:53Z</time>
      </trkpt>
      <trkpt lat="40.523083" lon="-4.972417">
        <ele>1384.0</ele>
        <time>2018-07-29T13:23:54Z</time>
      </trkpt>
      <trkpt lat="40.523100" lon="-4.972283">
        <ele>1382.0</ele>
        <time>2018-07-29T13:23:55Z</time>
      </trkpt>
      <trkpt lat="40.523133" lon="-4.972150">
        <ele>1380.0</ele>
        <time>2018-07-29T13:23:56Z</time>
      </trkpt>
      <trkpt lat="40.523167" lon="-4.972033">
        <ele>1379.0</ele>
        <time>2018-07-29T13:23:57Z</time>
      </trkpt>
      <trkpt lat="40.523183" lon="-4.971867">
        <ele>1378.0</ele>
        <time>2018-07-29T13:23:58Z</time>
      </trkpt>
      <trkpt lat="40.523183" lon="-4.971683">
        <ele>1377.0</ele>
        <time>2018-07-29T13:23:59Z</time>
      </trkpt>
      <trkpt lat="40.523150" lon="-4.971500">
        <ele>1376.0</ele>
        <time>2018-07-29T13:24:00Z</time>
      </trkpt>
      <trkpt lat="40.523100" lon="-4.971317">
        <ele>1375.0</ele>
        <time>2018-07-29T13:24:01Z</time>
      </trkpt>
      <trkpt lat="40.523017" lon="-4.971133">
        <ele>1374.0</ele>
        <time>2018-07-29T13:24:02Z</time>
      </trkpt>
      <trkpt lat="40.522917" lon="-4.970967">
        <ele>1374.0</ele>
        <time>2018-07-29T13:24:03Z</time>
      </trkpt>
      <trkpt lat="40.522800" lon="-4.970833">
        <ele>1375.0</ele>
        <time>2018-07-29T13:24:04Z</time>
      </trkpt>
      <trkpt lat="40.522683" lon="-4.970733">
        <ele>1377.0</ele>
        <time>2018-07-29T13:24:05Z</time>
      </trkpt>
      <trkpt lat="40.522583" lon="-4.970667">
        <ele>1381.0</ele>
        <time>2018-07-29T13:24:06Z</time>
      </trkpt>
      <trkpt lat="40.522500" lon="-4.970633">
        <ele>1384.0</ele>
        <time>2018-07-29T13:24:07Z</time>
      </trkpt>
      <trkpt lat="40.522417" lon="-4.970583">
        <ele>1387.0</ele>
        <time>2018-07-29T13:24:08Z</time>
      </trkpt>
      <trkpt lat="40.522350" lon="-4.970550">
        <ele>1388.0</ele>
        <time>2018-07-29T13:24:09Z</time>
      </trkpt>
      <trkpt lat="40.522250" lon="-4.970533">
        <ele>1389.0</ele>
        <time>2018-07-29T13:24:10Z</time>
      </trkpt>
      <trkpt lat="40.522183" lon="-4.970533">
        <ele>1388.0</ele>
        <time>2018-07-29T13:24:11Z</time>
      </trkpt>
      <trkpt lat="40.522117" lon="-4.970583">
        <ele>1387.0</ele>
        <time>2018-07-29T13:24:12Z</time>
      </trkpt>
      <trkpt lat="40.522067" lon="-4.970650">
        <ele>1388.0</ele>
        <time>2018-07-29T13:24:13Z</time>
      </trkpt>
      <trkpt lat="40.522017" lon="-4.970700">
        <ele>1389.0</ele>
        <time>2018-07-29T13:24:14Z</time>
      </trkpt>
      <trkpt lat="40.521967" lon="-4.970750">
        <ele>1391.0</ele>
        <time>2018-07-29T13:24:15Z</time>
      </trkpt>
      <trkpt lat="40.521917" lon="-4.970783">
        <ele>1393.0</ele>
        <time>2018-07-29T13:24:16Z</time>
      </trkpt>
      <trkpt lat="40.521867" lon="-4.970833">
        <ele>1395.0</ele>
        <time>2018-07-29T13:24:17Z</time>
      </trkpt>
      <trkpt lat="40.521817" lon="-4.970883">
        <ele>1396.0</ele>
        <time>2018-07-29T13:24:18Z</time>
      </trkpt>
      <trkpt lat="40.521800" lon="-4.970933">
        <ele>1397.0</ele>
        <time>2018-07-29T13:24:19Z</time>
      </trkpt>
      <trkpt lat="40.521817" lon="-4.970967">
        <ele>1399.0</ele>
        <time>2018-07-29T13:24:20Z</time>
      </trkpt>
      <trkpt lat="40.521833" lon="-4.971000">
        <ele>1400.0</ele>
        <time>2018-07-29T13:24:21Z</time>
      </trkpt>
      <trkpt lat="40.521883" lon="-4.971000">
        <ele>1401.0</ele>
        <time>2018-07-29T13:24:22Z</time>
      </trkpt>
      <trkpt lat="40.521917" lon="-4.970983">
        <ele>1403.0</ele>
        <time>2018-07-29T13:24:23Z</time>
      </trkpt>
      <trkpt lat="40.521950" lon="-4.970950">
        <ele>1405.0</ele>
        <time>2018-07-29T13:24:24Z</time>
      </trkpt>
      <trkpt lat="40.522000" lon="-4.970867">
        <ele>1406.0</ele>
        <time>2018-07-29T13:24:25Z</time>
      </trkpt>
      <trkpt lat="40.522050" lon="-4.970717">
        <ele>1405.0</ele>
        <time>2018-07-29T13:24:26Z</time>
      </trkpt>
      <trkpt lat="40.522083" lon="-4.970517">
        <ele>1405.0</ele>
        <time>2018-07-29T13:24:27Z</time>
      </trkpt>
      <trkpt lat="40.522050" lon="-4.970300">
        <ele>1407.0</ele>
        <time>2018-07-29T13:24:28Z</time>
      </trkpt>
      <trkpt lat="40.521983" lon="-4.970100">
        <ele>1409.0</ele>
        <time>2018-07-29T13:24:29Z</time>
      </trkpt>
      <trkpt lat="40.521867" lon="-4.969933">
        <ele>1412.0</ele>
        <time>2018-07-29T13:24:30Z</time>
      </trkpt>
      <trkpt lat="40.521767" lon="-4.969800">
        <ele>1415.0</ele>
        <time>2018-07-29T13:24:31Z</time>
      </trkpt>
      <trkpt lat="40.521650" lon="-4.969717">
        <ele>1417.0</ele>
        <time>2018-07-29T13:24:32Z</time>
      </trkpt>
      <trkpt lat="40.521533" lon="-4.969650">
        <ele>1418.0</ele>
        <time>2018-07-29T13:24:33Z</time>
      </trkpt>
      <trkpt lat="40.521417" lon="-4.969617">
        <ele>1418.0</ele>
        <time>2018-07-29T13:24:34Z</time>
      </trkpt>
      <trkpt lat="40.521283" lon="-4.969617">
        <ele>1419.0</ele>
        <time>2018-07-29T13:24:35Z</time>
      </trkpt>
      <trkpt lat="40.521183" lon="-4.969633">
        <ele>1420.0</ele>
        <time>2018-07-29T13:24:36Z</time>
      </trkpt>
      <trkpt lat="40.521100" lon="-4.969683">
        <ele>1420.0</ele>
        <time>2018-07-29T13:24:37Z</time>
      </trkpt>
      <trkpt lat="40.521050" lon="-4.969750">
        <ele>1421.0</ele>
        <time>2018-07-29T13:24:38Z</time>
      </trkpt>
      <trkpt lat="40.521017" lon="-4.969817">
        <ele>1422.0</ele>
        <time>2018-07-29T13:24:39Z</time>
      </trkpt>
      <trkpt lat="40.521000" lon="-4.969867">
        <ele>1423.0</ele>
        <time>2018-07-29T13:24:40Z</time>
      </trkpt>
      <trkpt lat="40.521000" lon="-4.969900">
        <ele>1425.0</ele>
        <time>2018-07-29T13:24:41Z</time>
      </trkpt>
      <trkpt lat="40.521017" lon="-4.969917">
        <ele>1428.0</ele>
        <time>2018-07-29T13:24:42Z</time>
      </trkpt>
      <trkpt lat="40.521033" lon="-4.969867">
        <ele>1430.0</ele>
        <time>2018-07-29T13:24:43Z</time>
      </trkpt>
      <trkpt lat="40.521067" lon="-4.969817">
        <ele>1430.0</ele>
        <time>2018-07-29T13:24:44Z</time>
      </trkpt>
      <trkpt lat="40.521100" lon="-4.969733">
        <ele>1429.0</ele>
        <time>2018-07-29T13:24:45Z</time>
      </trkpt>
      <trkpt lat="40.521133" lon="-4.969633">
        <ele>1428.0</ele>
        <time>2018-07-29T13:24:46Z</time>
      </trkpt>
      <trkpt lat="40.521183" lon="-4.969483">
        <ele>1428.0</ele>
        <time>2018-07-29T13:24:47Z</time>
      </trkpt>
      <trkpt lat="40.521183" lon="-4.969317">
        <ele>1428.0</ele>
        <time>2018-07-29T13:24:48Z</time>
      </trkpt>
      <trkpt lat="40.521167" lon="-4.969117">
        <ele>1429.0</ele>
        <time>2018-07-29T13:24:49Z</time>
      </trkpt>
      <trkpt lat="40.521117" lon="-4.968933">
        <ele>1431.0</ele>
        <time>2018-07-29T13:24:50Z</time>
      </trkpt>
      <trkpt lat="40.521017" lon="-4.968767">
        <ele>1433.0</ele>
        <time>2018-07-29T13:24:51Z</time>
      </trkpt>
      <trkpt lat="40.520917" lon="-4.968633">
        <ele>1434.0</ele>
        <time>2018-07-29T13:24:52Z</time>
      </trkpt>
      <trkpt lat="40.520783" lon="-4.968533">
        <ele>1435.0</ele>
        <time>2018-07-29T13:24:53Z</time>
      </trkpt>
      <trkpt lat="40.520650" lon="-4.968450">
        <ele>1436.0</ele>
        <time>2018-07-29T13:24:54Z</time>
      </trkpt>
      <trkpt lat="40.520533" lon="-4.968417">
        <ele>1437.0</ele>
        <time>2018-07-29T13:24:55Z</time>
      </trkpt>
      <trkpt lat="40.520417" lon="-4.968417">
        <ele>1436.0</ele>
        <time>2018-07-29T13:24:56Z</time>
      </trkpt>
      <trkpt lat="40.520333" lon="-4.968450">
        <ele>1436.0</ele>
        <time>2018-07-29T13:24:57Z</time>
      </trkpt>
      <trkpt lat="40.520267" lon="-4.968500">
        <ele>1436.0</ele>
        <time>2018-07-29T13:24:58Z</time>
      </trkpt>
      <trkpt lat="40.520233" lon="-4.968533">
        <ele>1436.0</ele>
        <time>2018-07-29T13:24:59Z</time>
      </trkpt>
      <trkpt lat="40.520217" lon="-4.968550">
        <ele>1436.0</ele>
        <time>2018-07-29T13:25:00Z</time>
      </trkpt>
      <trkpt lat="40.520217" lon="-4.968567">
        <ele>1435.0</ele>
        <time>2018-07-29T13:25:01Z</time>
      </trkpt>
      <trkpt lat="40.520233" lon="-4.968567">
        <ele>1435.0</ele>
        <time>2018-07-29T13:25:02Z</time>
      </trkpt>
      <trkpt lat="40.520267" lon="-4.968567">
        <ele>1434.0</ele>
        <time>2018-07-29T13:25:03Z</time>
      </trkpt>
      <trkpt lat="40.520317" lon="-4.968550">
        <ele>1433.0</ele>
        <time>2018-07-29T13:25:04Z</time>
      </trkpt>
      <trkpt lat="40.520367" lon="-4.968550">
        <ele>1433.0</ele>
        <time>2018-07-29T13:25:05Z</time>
      </trkpt>
      <trkpt lat="40.520433" lon="-4.968517">
        <ele>1434.0</ele>
        <time>2018-07-29T13:25:06Z</time>
      </trkpt>
      <trkpt lat="40.520483" lon="-4.968500">
        <ele>1436.0</ele>
        <time>2018-07-29T13:25:07Z</time>
      </trkpt>
      <trkpt lat="40.520533" lon="-4.968483">
        <ele>1438.0</ele>
        <time>2018-07-29T13:25:08Z</time>
      </trkpt>
      <trkpt lat="40.520583" lon="-4.968450">
        <ele>1440.0</ele>
        <time>2018-07-29T13:25:09Z</time>
      </trkpt>
      <trkpt lat="40.520617" lon="-4.968417">
        <ele>1442.0</ele>
        <time>2018-07-29T13:25:10Z</time>
      </trkpt>
      <trkpt lat="40.520667" lon="-4.968383">
        <ele>1444.0</ele>
        <time>2018-07-29T13:25:11Z</time>
      </trkpt>
      <trkpt lat="40.520717" lon="-4.968333">
        <ele>1445.0</ele>
        <time>2018-07-29T13:25:12Z</time>
      </trkpt>
      <trkpt lat="40.520783" lon="-4.968250">
        <ele>1446.0</ele>
        <time>2018-07-29T13:25:13Z</time>
      </trkpt>
      <trkpt lat="40.520850" lon="-4.968150">
        <ele>1446.0</ele>
        <time>2018-07-29T13:25:14Z</time>
      </trkpt>
      <trkpt lat="40.520900" lon="-4.968017">
        <ele>1448.0</ele>
        <time>2018-07-29T13:25:15Z</time>
      </trkpt>
      <trkpt lat="40.520933" lon="-4.967867">
        <ele>1450.0</ele>
        <time>2018-07-29T13:25:16Z</time>
      </trkpt>
      <trkpt lat="40.520933" lon="-4.967717">
        <ele>1452.0</ele>
        <time>2018-07-29T13:25:17Z</time>
      </trkpt>
      <trkpt lat="40.520917" lon="-4.967533">
        <ele>1453.0</ele>
        <time>2018-07-29T13:25:18Z</time>
      </trkpt>
      <trkpt lat="40.520867" lon="-4.967333">
        <ele>1453.0</ele>
        <time>2018-07-29T13:25:19Z</time>
      </trkpt>
      <trkpt lat="40.520800" lon="-4.967150">
        <ele>1453.0</ele>
        <time>2018-07-29T13:25:20Z</time>
      </trkpt>
      <trkpt lat="40.520683" lon="-4.967000">
        <ele>1454.0</ele>
        <time>2018-07-29T13:25:21Z</time>
      </trkpt>
      <trkpt lat="40.520550" lon="-4.966900">
        <ele>1455.0</ele>
        <time>2018-07-29T13:25:22Z</time>
      </trkpt>
      <trkpt lat="40.520417" lon="-4.966867">
        <ele>1458.0</ele>
        <time>2018-07-29T13:25:23Z</time>
      </trkpt>
      <trkpt lat="40.520317" lon="-4.966883">
        <ele>1462.0</ele>
        <time>2018-07-29T13:25:24Z</time>
      </trkpt>
      <trkpt lat="40.520267" lon="-4.966933">
        <ele>1465.0</ele>
        <time>2018-07-29T13:25:25Z</time>
      </trkpt>
      <trkpt lat="40.520250" lon="-4.967000">
        <ele>1467.0</ele>
        <time>2018-07-29T13:25:26Z</time>
      </trkpt>
      <trkpt lat="40.520267" lon="-4.967050">
        <ele>1467.0</ele>
        <time>2018-07-29T13:25:27Z</time>
      </trkpt>
      <trkpt lat="40.520283" lon="-4.967083">
        <ele>1469.0</ele>
        <time>2018-07-29T13:25:28Z</time>
      </trkpt>
      <trkpt lat="40.520333" lon="-4.967100">
        <ele>1471.0</ele>
        <time>2018-07-29T13:25:29Z</time>
      </trkpt>
      <trkpt lat="40.520400" lon="-4.967067">
        <ele>1473.0</ele>
        <time>2018-07-29T13:25:30Z</time>
      </trkpt>
      <trkpt lat="40.520450" lon="-4.967000">
        <ele>1474.0</ele>
        <time>2018-07-29T13:25:31Z</time>
      </trkpt>
      <trkpt lat="40.520517" lon="-4.966867">
        <ele>1475.0</ele>
        <time>2018-07-29T13:25:32Z</time>
      </trkpt>
      <trkpt lat="40.520550" lon="-4.966733">
        <ele>1477.0</ele>
        <time>2018-07-29T13:25:33Z</time>
      </trkpt>
      <trkpt lat="40.520567" lon="-4.966567">
        <ele>1478.0</ele>
        <time>2018-07-29T13:25:34Z</time>
      </trkpt>
      <trkpt lat="40.520567" lon="-4.966383">
        <ele>1478.0</ele>
        <time>2018-07-29T13:25:35Z</time>
      </trkpt>
      <trkpt lat="40.520550" lon="-4.966200">
        <ele>1478.0</ele>
        <time>2018-07-29T13:25:36Z</time>
      </trkpt>
      <trkpt lat="40.520517" lon="-4.966000">
        <ele>1477.0</ele>
        <time>2018-07-29T13:25:37Z</time>
      </trkpt>
      <trkpt lat="40.520433" lon="-4.965800">
        <ele>1475.0</ele>
        <time>2018-07-29T13:25:38Z</time>
      </trkpt>
      <trkpt lat="40.520317" lon="-4.965650">
        <ele>1473.0</ele>
        <time>2018-07-29T13:25:39Z</time>
      </trkpt>
      <trkpt lat="40.520183" lon="-4.965550">
        <ele>1472.0</ele>
        <time>2018-07-29T13:25:40Z</time>
      </trkpt>
      <trkpt lat="40.520033" lon="-4.965533">
        <ele>1470.0</ele>
        <time>2018-07-29T13:25:41Z</time>
      </trkpt>
      <trkpt lat="40.519917" lon="-4.965583">
        <ele>1470.0</ele>
        <time>2018-07-29T13:25:42Z</time>
      </trkpt>
      <trkpt lat="40.519833" lon="-4.965617">
        <ele>1472.0</ele>
        <time>2018-07-29T13:25:43Z</time>
      </trkpt>
      <trkpt lat="40.519767" lon="-4.965650">
        <ele>1476.0</ele>
        <time>2018-07-29T13:25:44Z</time>
      </trkpt>
      <trkpt lat="40.519717" lon="-4.965667">
        <ele>1479.0</ele>
        <time>2018-07-29T13:25:45Z</time>
      </trkpt>
      <trkpt lat="40.519650" lon="-4.965683">
        <ele>1481.0</ele>
        <time>2018-07-29T13:25:46Z</time>
      </trkpt>
      <trkpt lat="40.519600" lon="-4.965717">
        <ele>1482.0</ele>
        <time>2018-07-29T13:25:47Z</time>
      </trkpt>
      <trkpt lat="40.519550" lon="-4.965767">
        <ele>1482.0</ele>
        <time>2018-07-29T13:25:48Z</time>
      </trkpt>
      <trkpt lat="40.519517" lon="-4.965833">
        <ele>1483.0</ele>
        <time>2018-07-29T13:25:49Z</time>
      </trkpt>
      <trkpt lat="40.519500" lon="-4.965883">
        <ele>1485.0</ele>
        <time>2018-07-29T13:25:50Z</time>
      </trkpt>
      <trkpt lat="40.519467" lon="-4.965933">
        <ele>1486.0</ele>
        <time>2018-07-29T13:25:51Z</time>
      </trkpt>
      <trkpt lat="40.519450" lon="-4.965983">
        <ele>1489.0</ele>
        <time>2018-07-29T13:25:52Z</time>
      </trkpt>
      <trkpt lat="40.519417" lon="-4.966017">
        <ele>1491.0</ele>
        <time>2018-07-29T13:25:53Z</time>
      </trkpt>
      <trkpt lat="40.519383" lon="-4.966067">
        <ele>1493.0</ele>
        <time>2018-07-29T13:25:54Z</time>
      </trkpt>
      <trkpt lat="40.519383" lon="-4.966100">
        <ele>1495.0</ele>
        <time>2018-07-29T13:25:55Z</time>
      </trkpt>
      <trkpt lat="40.519400" lon="-4.966117">
        <ele>1496.0</ele>
        <time>2018-07-29T13:25:56Z</time>
      </trkpt>
      <trkpt lat="40.519467" lon="-4.966117">
        <ele>1495.0</ele>
        <time>2018-07-29T13:25:57Z</time>
      </trkpt>
      <trkpt lat="40.519550" lon="-4.966083">
        <ele>1495.0</ele>
        <time>2018-07-29T13:25:58Z</time>
      </trkpt>
      <trkpt lat="40.519617" lon="-4.966033">
        <ele>1495.0</ele>
        <time>2018-07-29T13:25:59Z</time>
      </trkpt>
      <trkpt lat="40.519683" lon="-4.965950">
        <ele>1496.0</ele>
        <time>2018-07-29T13:26:00Z</time>
      </trkpt>
      <trkpt lat="40.519750" lon="-4.965833">
        <ele>1498.0</ele>
        <time>2018-07-29T13:26:01Z</time>
      </trkpt>
      <trkpt lat="40.519783" lon="-4.965717">
        <ele>1499.0</ele>
        <time>2018-07-29T13:26:02Z</time>
      </trkpt>
      <trkpt lat="40.519800" lon="-4.965567">
        <ele>1499.0</ele>
        <time>2018-07-29T13:26:03Z</time>
      </trkpt>
      <trkpt lat="40.519800" lon="-4.965400">
        <ele>1500.0</ele>
        <time>2018-07-29T13:26:04Z</time>
      </trkpt>
      <trkpt lat="40.519783" lon="-4.965217">
        <ele>1499.0</ele>
        <time>2018-07-29T13:26:05Z</time>
      </trkpt>
      <trkpt lat="40.519733" lon="-4.965050">
        <ele>1498.0</ele>
        <time>2018-07-29T13:26:06Z</time>
      </trkpt>
      <trkpt lat="40.519650" lon="-4.964900">
        <ele>1498.0</ele>
        <time>2018-07-29T13:26:07Z</time>
      </trkpt>
      <trkpt lat="40.519550" lon="-4.964750">
        <ele>1497.0</ele>
        <time>2018-07-29T13:26:08Z</time>
      </trkpt>
      <trkpt lat="40.519433" lon="-4.964633">
        <ele>1498.0</ele>
        <time>2018-07-29T13:26:09Z</time>
      </trkpt>
      <trkpt lat="40.519333" lon="-4.964533">
        <ele>1499.0</ele>
        <time>2018-07-29T13:26:10Z</time>
      </trkpt>
      <trkpt lat="40.519217" lon="-4.964467">
        <ele>1500.0</ele>
        <time>2018-07-29T13:26:11Z</time>
      </trkpt>
      <trkpt lat="40.519117" lon="-4.964417">
        <ele>1502.0</ele>
        <time>2018-07-29T13:26:12Z</time>
      </trkpt>
      <trkpt lat="40.519017" lon="-4.964400">
        <ele>1504.0</ele>
        <time>2018-07-29T13:26:13Z</time>
      </trkpt>
      <trkpt lat="40.518917" lon="-4.964400">
        <ele>1506.0</ele>
        <time>2018-07-29T13:26:14Z</time>
      </trkpt>
      <trkpt lat="40.518833" lon="-4.964417">
        <ele>1508.0</ele>
        <time>2018-07-29T13:26:15Z</time>
      </trkpt>
      <trkpt lat="40.518750" lon="-4.964433">
        <ele>1509.0</ele>
        <time>2018-07-29T13:26:16Z</time>
      </trkpt>
      <trkpt lat="40.518667" lon="-4.964483">
        <ele>1511.0</ele>
        <time>2018-07-29T13:26:17Z</time>
      </trkpt>
      <trkpt lat="40.518600" lon="-4.964517">
        <ele>1512.0</ele>
        <time>2018-07-29T13:26:18Z</time>
      </trkpt>
      <trkpt lat="40.518533" lon="-4.964567">
        <ele>1514.0</ele>
        <time>2018-07-29T13:26:19Z</time>
      </trkpt>
      <trkpt lat="40.518483" lon="-4.964600">
        <ele>1517.0</ele>
        <time>2018-07-29T13:26:20Z</time>
      </trkpt>
      <trkpt lat="40.518417" lon="-4.964600">
        <ele>1519.0</ele>
        <time>2018-07-29T13:26:21Z</time>
      </trkpt>
      <trkpt lat="40.518367" lon="-4.964617">
        <ele>1521.0</ele>
        <time>2018-07-29T13:26:22Z</time>
      </trkpt>
      <trkpt lat="40.518300" lon="-4.964633">
        <ele>1521.0</ele>
        <time>2018-07-29T13:26:23Z</time>
      </trkpt>
      <trkpt lat="40.518283" lon="-4.964667">
        <ele>1520.0</ele>
        <time>2018-07-29T13:26:24Z</time>
      </trkpt>
      <trkpt lat="40.518283" lon="-4.964700">
        <ele>1518.0</ele>
        <time>2018-07-29T13:26:25Z</time>
      </trkpt>
      <trkpt lat="40.518300" lon="-4.964733">
        <ele>1517.0</ele>
        <time>2018-07-29T13:26:26Z</time>
      </trkpt>
      <trkpt lat="40.518350" lon="-4.964733">
        <ele>1516.0</ele>
        <time>2018-07-29T13:26:27Z</time>
      </trkpt>
      <trkpt lat="40.518400" lon="-4.964700">
        <ele>1516.0</ele>
        <time>2018-07-29T13:26:28Z</time>
      </trkpt>
      <trkpt lat="40.518467" lon="-4.964633">
        <ele>1516.0</ele>
        <time>2018-07-29T13:26:29Z</time>
      </trkpt>
      <trkpt lat="40.518517" lon="-4.964550">
        <ele>1517.0</ele>
        <time>2018-07-29T13:26:30Z</time>
      </trkpt>
      <trkpt lat="40.518550" lon="-4.964433">
        <ele>1516.0</ele>
        <time>2018-07-29T13:26:31Z</time>
      </trkpt>
      <trkpt lat="40.518583" lon="-4.964283">
        <ele>1515.0</ele>
        <time>2018-07-29T13:26:32Z</time>
      </trkpt>
      <trkpt lat="40.518600" lon="-4.964117">
        <ele>1513.0</ele>
        <time>2018-07-29T13:26:33Z</time>
      </trkpt>
      <trkpt lat="40.518617" lon="-4.963933">
        <ele>1511.0</ele>
        <time>2018-07-29T13:26:34Z</time>
      </trkpt>
      <trkpt lat="40.518583" lon="-4.963750">
        <ele>1510.0</ele>
        <time>2018-07-29T13:26:35Z</time>
      </trkpt>
      <trkpt lat="40.518550" lon="-4.963550">
        <ele>1509.0</ele>
        <time>2018-07-29T13:26:36Z</time>
      </trkpt>
      <trkpt lat="40.518483" lon="-4.963350">
        <ele>1508.0</ele>
        <time>2018-07-29T13:26:37Z</time>
      </trkpt>
      <trkpt lat="40.518417" lon="-4.963167">
        <ele>1508.0</ele>
        <time>2018-07-29T13:26:38Z</time>
      </trkpt>
      <trkpt lat="40.518333" lon="-4.963017">
        <ele>1509.0</ele>
        <time>2018-07-29T13:26:39Z</time>
      </trkpt>
      <trkpt lat="40.518233" lon="-4.962883">
        <ele>1511.0</ele>
        <time>2018-07-29T13:26:40Z</time>
      </trkpt>
      <trkpt lat="40.518117" lon="-4.962783">
        <ele>1513.0</ele>
        <time>2018-07-29T13:26:41Z</time>
      </trkpt>
      <trkpt lat="40.518017" lon="-4.962683">
        <ele>1516.0</ele>
        <time>2018-07-29T13:26:42Z</time>
      </trkpt>
      <trkpt lat="40.517917" lon="-4.962583">
        <ele>1518.0</ele>
        <time>2018-07-29T13:26:43Z</time>
      </trkpt>
      <trkpt lat="40.517833" lon="-4.962483">
        <ele>1520.0</ele>
        <time>2018-07-29T13:26:44Z</time>
      </trkpt>
      <trkpt lat="40.517733" lon="-4.962383">
        <ele>1522.0</ele>
        <time>2018-07-29T13:26:45Z</time>
      </trkpt>
      <trkpt lat="40.517633" lon="-4.962283">
        <ele>1522.0</ele>
        <time>2018-07-29T13:26:46Z</time>
      </trkpt>
      <trkpt lat="40.517517" lon="-4.962217">
        <ele>1522.0</ele>
        <time>2018-07-29T13:26:47Z</time>
      </trkpt>
      <trkpt lat="40.517383" lon="-4.962183">
        <ele>1522.0</ele>
        <time>2018-07-29T13:26:48Z</time>
      </trkpt>
      <trkpt lat="40.517267" lon="-4.962183">
        <ele>1521.0</ele>
        <time>2018-07-29T13:26:49Z</time>
      </trkpt>
      <trkpt lat="40.517167" lon="-4.962200">
        <ele>1521.0</ele>
        <time>2018-07-29T13:26:50Z</time>
      </trkpt>
      <trkpt lat="40.517100" lon="-4.962217">
        <ele>1521.0</ele>
        <time>2018-07-29T13:26:51Z</time>
      </trkpt>
      <trkpt lat="40.517033" lon="-4.962233">
        <ele>1521.0</ele>
        <time>2018-07-29T13:26:52Z</time>
      </trkpt>
      <trkpt lat="40.517000" lon="-4.962267">
        <ele>1521.0</ele>
        <time>2018-07-29T13:26:53Z</time>
      </trkpt>
      <trkpt lat="40.516950" lon="-4.962300">
        <ele>1520.0</ele>
        <time>2018-07-29T13:26:54Z</time>
      </trkpt>
      <trkpt lat="40.516933" lon="-4.962367">
        <ele>1520.0</ele>
        <time>2018-07-29T13:26:55Z</time>
      </trkpt>
      <trkpt lat="40.516917" lon="-4.962417">
        <ele>1519.0</ele>
        <time>2018-07-29T13:26:56Z</time>
      </trkpt>
      <trkpt lat="40.516933" lon="-4.962467">
        <ele>1520.0</ele>
        <time>2018-07-29T13:26:57Z</time>
      </trkpt>
      <trkpt lat="40.516950" lon="-4.962500">
        <ele>1521.0</ele>
        <time>2018-07-29T13:26:58Z</time>
      </trkpt>
      <trkpt lat="40.516983" lon="-4.962533">
        <ele>1523.0</ele>
        <time>2018-07-29T13:26:59Z</time>
      </trkpt>
      <trkpt lat="40.517000" lon="-4.962550">
        <ele>1524.0</ele>
        <time>2018-07-29T13:27:00Z</time>
      </trkpt>
      <trkpt lat="40.517033" lon="-4.962567">
        <ele>1525.0</ele>
        <time>2018-07-29T13:27:01Z</time>
      </trkpt>
      <trkpt lat="40.517067" lon="-4.962583">
        <ele>1525.0</ele>
        <time>2018-07-29T13:27:02Z</time>
      </trkpt>
      <trkpt lat="40.517117" lon="-4.962617">
        <ele>1526.0</ele>
        <time>2018-07-29T13:27:03Z</time>
      </trkpt>
      <trkpt lat="40.517167" lon="-4.962617">
        <ele>1526.0</ele>
        <time>2018-07-29T13:27:04Z</time>
      </trkpt>
      <trkpt lat="40.517200" lon="-4.962617">
        <ele>1526.0</ele>
        <time>2018-07-29T13:27:05Z</time>
      </trkpt>
      <trkpt lat="40.517233" lon="-4.962633">
        <ele>1527.0</ele>
        <time>2018-07-29T13:27:06Z</time>
      </trkpt>
      <trkpt lat="40.517250" lon="-4.962633">
        <ele>1527.0</ele>
        <time>2018-07-29T13:27:07Z</time>
      </trkpt>
      <trkpt lat="40.517283" lon="-4.962650">
        <ele>1526.0</ele>
        <time>2018-07-29T13:27:08Z</time>
      </trkpt>
      <trkpt lat="40.517317" lon="-4.962650">
        <ele>1524.0</ele>
        <time>2018-07-29T13:27:09Z</time>
      </trkpt>
      <trkpt lat="40.517383" lon="-4.962617">
        <ele>1521.0</ele>
        <time>2018-07-29T13:27:10Z</time>
      </trkpt>
      <trkpt lat="40.517450" lon="-4.962567">
        <ele>1518.0</ele>
        <time>2018-07-29T13:27:11Z</time>
      </trkpt>
      <trkpt lat="40.517533" lon="-4.962483">
        <ele>1515.0</ele>
        <time>2018-07-29T13:27:12Z</time>
      </trkpt>
      <trkpt lat="40.517600" lon="-4.962400">
        <ele>1513.0</ele>
        <time>2018-07-29T13:27:13Z</time>
      </trkpt>
      <trkpt lat="40.517667" lon="-4.962317">
        <ele>1512.0</ele>
        <time>2018-07-29T13:27:14Z</time>
      </trkpt>
      <trkpt lat="40.517733" lon="-4.962250">
        <ele>1511.0</ele>
        <time>2018-07-29T13:27:15Z</time>
      </trkpt>
      <trkpt lat="40.517783" lon="-4.962200">
        <ele>1510.0</ele>
        <time>2018-07-29T13:27:16Z</time>
      </trkpt>
      <trkpt lat="40.517850" lon="-4.962167">
        <ele>1508.0</ele>
        <time>2018-07-29T13:27:17Z</time>
      </trkpt>
      <trkpt lat="40.517900" lon="-4.962150">
        <ele>1506.0</ele>
        <time>2018-07-29T13:27:18Z</time>
      </trkpt>
      <trkpt lat="40.517950" lon="-4.962150">
        <ele>1504.0</ele>
        <time>2018-07-29T13:27:19Z</time>
      </trkpt>
      <trkpt lat="40.518017" lon="-4.962133">
        <ele>1502.0</ele>
        <time>2018-07-29T13:27:20Z</time>
      </trkpt>
      <trkpt lat="40.518067" lon="-4.962133">
        <ele>1500.0</ele>
        <time>2018-07-29T13:27:21Z</time>
      </trkpt>
      <trkpt lat="40.518133" lon="-4.962083">
        <ele>1500.0</ele>
        <time>2018-07-29T13:27:22Z</time>
      </trkpt>
      <trkpt lat="40.518200" lon="-4.962033">
        <ele>1499.0</ele>
        <time>2018-07-29T13:27:23Z</time>
      </trkpt>
      <trkpt lat="40.518250" lon="-4.961950">
        <ele>1497.0</ele>
        <time>2018-07-29T13:27:24Z</time>
      </trkpt>
      <trkpt lat="40.518317" lon="-4.961850">
        <ele>1495.0</ele>
        <time>2018-07-29T13:27:25Z</time>
      </trkpt>
      <trkpt lat="40.518383" lon="-4.961767">
        <ele>1494.0</ele>
        <time>2018-07-29T13:27:26Z</time>
      </trkpt>
      <trkpt lat="40.518450" lon="-4.961683">
        <ele>1492.0</ele>
        <time>2018-07-29T13:27:27Z</time>
      </trkpt>
      <trkpt lat="40.518533" lon="-4.961600">
        <ele>1491.0</ele>
        <time>2018-07-29T13:27:28Z</time>
      </trkpt>
      <trkpt lat="40.518600" lon="-4.961517">
        <ele>1490.0</ele>
        <time>2018-07-29T13:27:29Z</time>
      </trkpt>
      <trkpt lat="40.518667" lon="-4.961417">
        <ele>1489.0</ele>
        <time>2018-07-29T13:27:30Z</time>
      </trkpt>
      <trkpt lat="40.518717" lon="-4.961300">
        <ele>1488.0</ele>
        <time>2018-07-29T13:27:31Z</time>
      </trkpt>
      <trkpt lat="40.518767" lon="-4.961167">
        <ele>1487.0</ele>
        <time>2018-07-29T13:27:32Z</time>
      </trkpt>
      <trkpt lat="40.518817" lon="-4.961017">
        <ele>1486.0</ele>
        <time>2018-07-29T13:27:33Z</time>
      </trkpt>
      <trkpt lat="40.518883" lon="-4.960883">
        <ele>1485.0</ele>
        <time>2018-07-29T13:27:34Z</time>
      </trkpt>
      <trkpt lat="40.518967" lon="-4.960767">
        <ele>1485.0</ele>
        <time>2018-07-29T13:27:35Z</time>
      </trkpt>
      <trkpt lat="40.519033" lon="-4.960667">
        <ele>1485.0</ele>
        <time>2018-07-29T13:27:36Z</time>
      </trkpt>
      <trkpt lat="40.519083" lon="-4.960583">
        <ele>1485.0</ele>
        <time>2018-07-29T13:27:37Z</time>
      </trkpt>
      <trkpt lat="40.519133" lon="-4.960500">
        <ele>1485.0</ele>
        <time>2018-07-29T13:27:38Z</time>
      </trkpt>
      <trkpt lat="40.519167" lon="-4.960400">
        <ele>1485.0</ele>
        <time>2018-07-29T13:27:39Z</time>
      </trkpt>
      <trkpt lat="40.519183" lon="-4.960300">
        <ele>1484.0</ele>
        <time>2018-07-29T13:27:40Z</time>
      </trkpt>
      <trkpt lat="40.519217" lon="-4.960200">
        <ele>1483.0</ele>
        <time>2018-07-29T13:27:41Z</time>
      </trkpt>
      <trkpt lat="40.519267" lon="-4.960083">
        <ele>1482.0</ele>
        <time>2018-07-29T13:27:42Z</time>
      </trkpt>
      <trkpt lat="40.519300" lon="-4.959983">
        <ele>1480.0</ele>
        <time>2018-07-29T13:27:43Z</time>
      </trkpt>
      <trkpt lat="40.519350" lon="-4.959900">
        <ele>1479.0</ele>
        <time>2018-07-29T13:27:44Z</time>
      </trkpt>
      <trkpt lat="40.519417" lon="-4.959817">
        <ele>1478.0</ele>
        <time>2018-07-29T13:27:45Z</time>
      </trkpt>
      <trkpt lat="40.519467" lon="-4.959750">
        <ele>1477.0</ele>
        <time>2018-07-29T13:27:46Z</time>
      </trkpt>
      <trkpt lat="40.519533" lon="-4.959700">
        <ele>1476.0</ele>
        <time>2018-07-29T13:27:47Z</time>
      </trkpt>
      <trkpt lat="40.519583" lon="-4.959633">
        <ele>1474.0</ele>
        <time>2018-07-29T13:27:48Z</time>
      </trkpt>
      <trkpt lat="40.519633" lon="-4.959550">
        <ele>1473.0</ele>
        <time>2018-07-29T13:27:49Z</time>
      </trkpt>
      <trkpt lat="40.519700" lon="-4.959483">
        <ele>1471.0</ele>
        <time>2018-07-29T13:27:50Z</time>
      </trkpt>
      <trkpt lat="40.519767" lon="-4.959417">
        <ele>1469.0</ele>
        <time>2018-07-29T13:27:51Z</time>
      </trkpt>
      <trkpt lat="40.519817" lon="-4.959333">
        <ele>1467.0</ele>
        <time>2018-07-29T13:27:52Z</time>
      </trkpt>
      <trkpt lat="40.519883" lon="-4.959233">
        <ele>1465.0</ele>
        <time>2018-07-29T13:27:53Z</time>
      </trkpt>
      <trkpt lat="40.519950" lon="-4.959150">
        <ele>1463.0</ele>
        <time>2018-07-29T13:27:54Z</time>
      </trkpt>
      <trkpt lat="40.520017" lon="-4.959033">
        <ele>1461.0</ele>
        <time>2018-07-29T13:27:55Z</time>
      </trkpt>
      <trkpt lat="40.520067" lon="-4.958933">
        <ele>1459.0</ele>
        <time>2018-07-29T13:27:56Z</time>
      </trkpt>
      <trkpt lat="40.520117" lon="-4.958817">
        <ele>1457.0</ele>
        <time>2018-07-29T13:27:57Z</time>
      </trkpt>
      <trkpt lat="40.520183" lon="-4.958700">
        <ele>1456.0</ele>
        <time>2018-07-29T13:27:58Z</time>
      </trkpt>
      <trkpt lat="40.520267" lon="-4.958617">
        <ele>1454.0</ele>
        <time>2018-07-29T13:27:59Z</time>
      </trkpt>
      <trkpt lat="40.520333" lon="-4.958533">
        <ele>1453.0</ele>
        <time>2018-07-29T13:28:00Z</time>
      </trkpt>
      <trkpt lat="40.520417" lon="-4.958467">
        <ele>1451.0</ele>
        <time>2018-07-29T13:28:01Z</time>
      </trkpt>
      <trkpt lat="40.520483" lon="-4.958400">
        <ele>1449.0</ele>
        <time>2018-07-29T13:28:02Z</time>
      </trkpt>
      <trkpt lat="40.520567" lon="-4.958317">
        <ele>1447.0</ele>
        <time>2018-07-29T13:28:03Z</time>
      </trkpt>
      <trkpt lat="40.520633" lon="-4.958250">
        <ele>1446.0</ele>
        <time>2018-07-29T13:28:04Z</time>
      </trkpt>
      <trkpt lat="40.520700" lon="-4.958167">
        <ele>1445.0</ele>
        <time>2018-07-29T13:28:05Z</time>
      </trkpt>
      <trkpt lat="40.520767" lon="-4.958100">
        <ele>1443.0</ele>
        <time>2018-07-29T13:28:06Z</time>
      </trkpt>
      <trkpt lat="40.520833" lon="-4.958000">
        <ele>1442.0</ele>
        <time>2018-07-29T13:28:07Z</time>
      </trkpt>
      <trkpt lat="40.520900" lon="-4.957883">
        <ele>1441.0</ele>
        <time>2018-07-29T13:28:08Z</time>
      </trkpt>
      <trkpt lat="40.520967" lon="-4.957767">
        <ele>1439.0</ele>
        <time>2018-07-29T13:28:09Z</time>
      </trkpt>
      <trkpt lat="40.521033" lon="-4.957650">
        <ele>1438.0</ele>
        <time>2018-07-29T13:28:10Z</time>
      </trkpt>
      <trkpt lat="40.521083" lon="-4.957533">
        <ele>1438.0</ele>
        <time>2018-07-29T13:28:11Z</time>
      </trkpt>
      <trkpt lat="40.521133" lon="-4.957400">
        <ele>1437.0</ele>
        <time>2018-07-29T13:28:12Z</time>
      </trkpt>
      <trkpt lat="40.521200" lon="-4.957283">
        <ele>1437.0</ele>
        <time>2018-07-29T13:28:13Z</time>
      </trkpt>
      <trkpt lat="40.521250" lon="-4.957150">
        <ele>1435.0</ele>
        <time>2018-07-29T13:28:14Z</time>
      </trkpt>
      <trkpt lat="40.521317" lon="-4.957017">
        <ele>1433.0</ele>
        <time>2018-07-29T13:28:15Z</time>
      </trkpt>
      <trkpt lat="40.521383" lon="-4.956900">
        <ele>1432.0</ele>
        <time>2018-07-29T13:28:16Z</time>
      </trkpt>
      <trkpt lat="40.521450" lon="-4.956783">
        <ele>1431.0</ele>
        <time>2018-07-29T13:28:17Z</time>
      </trkpt>
      <trkpt lat="40.521517" lon="-4.956667">
        <ele>1430.0</ele>
        <time>2018-07-29T13:28:18Z</time>
      </trkpt>
      <trkpt lat="40.521583" lon="-4.956567">
        <ele>1429.0</ele>
        <time>2018-07-29T13:28:19Z</time>
      </trkpt>
      <trkpt lat="40.521650" lon="-4.956450">
        <ele>1428.0</ele>
        <time>2018-07-29T13:28:20Z</time>
      </trkpt>
      <trkpt lat="40.521717" lon="-4.956350">
        <ele>1426.0</ele>
        <time>2018-07-29T13:28:21Z</time>
      </trkpt>
      <trkpt lat="40.521800" lon="-4.956250">
        <ele>1425.0</ele>
        <time>2018-07-29T13:28:22Z</time>
      </trkpt>
      <trkpt lat="40.521867" lon="-4.956183">
        <ele>1424.0</ele>
        <time>2018-07-29T13:28:23Z</time>
      </trkpt>
      <trkpt lat="40.521917" lon="-4.956100">
        <ele>1424.0</ele>
        <time>2018-07-29T13:28:24Z</time>
      </trkpt>
      <trkpt lat="40.521983" lon="-4.956033">
        <ele>1424.0</ele>
        <time>2018-07-29T13:28:25Z</time>
      </trkpt>
      <trkpt lat="40.522033" lon="-4.955950">
        <ele>1423.0</ele>
        <time>2018-07-29T13:28:26Z</time>
      </trkpt>
      <trkpt lat="40.522100" lon="-4.955867">
        <ele>1423.0</ele>
        <time>2018-07-29T13:28:27Z</time>
      </trkpt>
      <trkpt lat="40.522167" lon="-4.955800">
        <ele>1424.0</ele>
        <time>2018-07-29T13:28:28Z</time>
      </trkpt>
      <trkpt lat="40.522250" lon="-4.955750">
        <ele>1424.0</ele>
        <time>2018-07-29T13:28:29Z</time>
      </trkpt>
      <trkpt lat="40.522317" lon="-4.955717">
        <ele>1426.0</ele>
        <time>2018-07-29T13:28:30Z</time>
      </trkpt>
      <trkpt lat="40.522400" lon="-4.955650">
        <ele>1428.0</ele>
        <time>2018-07-29T13:28:31Z</time>
      </trkpt>
      <trkpt lat="40.522467" lon="-4.955583">
        <ele>1430.0</ele>
        <time>2018-07-29T13:28:32Z</time>
      </trkpt>
      <trkpt lat="40.522533" lon="-4.955500">
        <ele>1433.0</ele>
        <time>2018-07-29T13:28:33Z</time>
      </trkpt>
      <trkpt lat="40.522583" lon="-4.955383">
        <ele>1435.0</ele>
        <time>2018-07-29T13:28:34Z</time>
      </trkpt>
      <trkpt lat="40.522617" lon="-4.955250">
        <ele>1435.0</ele>
        <time>2018-07-29T13:28:35Z</time>
      </trkpt>
      <trkpt lat="40.522633" lon="-4.955083">
        <ele>1434.0</ele>
        <time>2018-07-29T13:28:36Z</time>
      </trkpt>
      <trkpt lat="40.522617" lon="-4.954900">
        <ele>1433.0</ele>
        <time>2018-07-29T13:28:37Z</time>
      </trkpt>
      <trkpt lat="40.522583" lon="-4.954717">
        <ele>1431.0</ele>
        <time>2018-07-29T13:28:38Z</time>
      </trkpt>
      <trkpt lat="40.522533" lon="-4.954533">
        <ele>1431.0</ele>
        <time>2018-07-29T13:28:39Z</time>
      </trkpt>
      <trkpt lat="40.522467" lon="-4.954367">
        <ele>1430.0</ele>
        <time>2018-07-29T13:28:40Z</time>
      </trkpt>
      <trkpt lat="40.522367" lon="-4.954233">
        <ele>1430.0</ele>
        <time>2018-07-29T13:28:41Z</time>
      </trkpt>
      <trkpt lat="40.522250" lon="-4.954133">
        <ele>1429.0</ele>
        <time>2018-07-29T13:28:42Z</time>
      </trkpt>
      <trkpt lat="40.522133" lon="-4.954083">
        <ele>1430.0</ele>
        <time>2018-07-29T13:28:43Z</time>
      </trkpt>
      <trkpt lat="40.522017" lon="-4.954050">
        <ele>1432.0</ele>
        <time>2018-07-29T13:28:44Z</time>
      </trkpt>
      <trkpt lat="40.521900" lon="-4.954050">
        <ele>1434.0</ele>
        <time>2018-07-29T13:28:45Z</time>
      </trkpt>
      <trkpt lat="40.521800" lon="-4.954067">
        <ele>1434.0</ele>
        <time>2018-07-29T13:28:46Z</time>
      </trkpt>
      <trkpt lat="40.521683" lon="-4.954083">
        <ele>1435.0</ele>
        <time>2018-07-29T13:28:47Z</time>
      </trkpt>
      <trkpt lat="40.521583" lon="-4.954117">
        <ele>1435.0</ele>
        <time>2018-07-29T13:28:48Z</time>
      </trkpt>
      <trkpt lat="40.521500" lon="-4.954167">
        <ele>1435.0</ele>
        <time>2018-07-29T13:28:49Z</time>
      </trkpt>
      <trkpt lat="40.521450" lon="-4.954233">
        <ele>1434.0</ele>
        <time>2018-07-29T13:28:50Z</time>
      </trkpt>
      <trkpt lat="40.521433" lon="-4.954300">
        <ele>1435.0</ele>
        <time>2018-07-29T13:28:51Z</time>
      </trkpt>
      <trkpt lat="40.521450" lon="-4.954367">
        <ele>1435.0</ele>
        <time>2018-07-29T13:28:52Z</time>
      </trkpt>
      <trkpt lat="40.521500" lon="-4.954417">
        <ele>1437.0</ele>
        <time>2018-07-29T13:28:53Z</time>
      </trkpt>
      <trkpt lat="40.521550" lon="-4.954450">
        <ele>1439.0</ele>
        <time>2018-07-29T13:28:54Z</time>
      </trkpt>
      <trkpt lat="40.521600" lon="-4.954433">
        <ele>1442.0</ele>
        <time>2018-07-29T13:28:55Z</time>
      </trkpt>
      <trkpt lat="40.521650" lon="-4.954400">
        <ele>1445.0</ele>
        <time>2018-07-29T13:28:56Z</time>
      </trkpt>
      <trkpt lat="40.521700" lon="-4.954350">
        <ele>1447.0</ele>
        <time>2018-07-29T13:28:57Z</time>
      </trkpt>
      <trkpt lat="40.521750" lon="-4.954283">
        <ele>1448.0</ele>
        <time>2018-07-29T13:28:58Z</time>
      </trkpt>
      <trkpt lat="40.521817" lon="-4.954217">
        <ele>1448.0</ele>
        <time>2018-07-29T13:28:59Z</time>
      </trkpt>
      <trkpt lat="40.521883" lon="-4.954150">
        <ele>1448.0</ele>
        <time>2018-07-29T13:29:00Z</time>
      </trkpt>
      <trkpt lat="40.521950" lon="-4.954100">
        <ele>1447.0</ele>
        <time>2018-07-29T13:29:01Z</time>
      </trkpt>
      <trkpt lat="40.522033" lon="-4.954067">
        <ele>1447.0</ele>
        <time>2018-07-29T13:29:02Z</time>
      </trkpt>
      <trkpt lat="40.522100" lon="-4.954017">
        <ele>1447.0</ele>
        <time>2018-07-29T13:29:03Z</time>
      </trkpt>
      <trkpt lat="40.522150" lon="-4.953967">
        <ele>1448.0</ele>
        <time>2018-07-29T13:29:04Z</time>
      </trkpt>
      <trkpt lat="40.522200" lon="-4.953917">
        <ele>1448.0</ele>
        <time>2018-07-29T13:29:05Z</time>
      </trkpt>
      <trkpt lat="40.522250" lon="-4.953850">
        <ele>1447.0</ele>
        <time>2018-07-29T13:29:06Z</time>
      </trkpt>
      <trkpt lat="40.522300" lon="-4.953767">
        <ele>1445.0</ele>
        <time>2018-07-29T13:29:07Z</time>
      </trkpt>
      <trkpt lat="40.522350" lon="-4.953633">
        <ele>1442.0</ele>
        <time>2018-07-29T13:29:08Z</time>
      </trkpt>
      <trkpt lat="40.522400" lon="-4.953467">
        <ele>1438.0</ele>
        <time>2018-07-29T13:29:09Z</time>
      </trkpt>
      <trkpt lat="40.522417" lon="-4.953300">
        <ele>1436.0</ele>
        <time>2018-07-29T13:29:10Z</time>
      </trkpt>
      <trkpt lat="40.522400" lon="-4.953133">
        <ele>1436.0</ele>
        <time>2018-07-29T13:29:11Z</time>
      </trkpt>
      <trkpt lat="40.522383" lon="-4.952983">
        <ele>1437.0</ele>
        <time>2018-07-29T13:29:12Z</time>
      </trkpt>
      <trkpt lat="40.522383" lon="-4.952833">
        <ele>1436.0</ele>
        <time>2018-07-29T13:29:13Z</time>
      </trkpt>
      <trkpt lat="40.522383" lon="-4.952683">
        <ele>1434.0</ele>
        <time>2018-07-29T13:29:14Z</time>
      </trkpt>
      <trkpt lat="40.522400" lon="-4.952550">
        <ele>1431.0</ele>
        <time>2018-07-29T13:29:15Z</time>
      </trkpt>
      <trkpt lat="40.522433" lon="-4.952400">
        <ele>1429.0</ele>
        <time>2018-07-29T13:29:16Z</time>
      </trkpt>
      <trkpt lat="40.522483" lon="-4.952283">
        <ele>1428.0</ele>
        <time>2018-07-29T13:29:17Z</time>
      </trkpt>
      <trkpt lat="40.522533" lon="-4.952183">
        <ele>1427.0</ele>
        <time>2018-07-29T13:29:18Z</time>
      </trkpt>
      <trkpt lat="40.522583" lon="-4.952083">
        <ele>1426.0</ele>
        <time>2018-07-29T13:29:19Z</time>
      </trkpt>
      <trkpt lat="40.522650" lon="-4.952017">
        <ele>1425.0</ele>
        <time>2018-07-29T13:29:20Z</time>
      </trkpt>
      <trkpt lat="40.522700" lon="-4.951950">
        <ele>1423.0</ele>
        <time>2018-07-29T13:29:21Z</time>
      </trkpt>
      <trkpt lat="40.522767" lon="-4.951883">
        <ele>1422.0</ele>
        <time>2018-07-29T13:29:22Z</time>
      </trkpt>
      <trkpt lat="40.522850" lon="-4.951833">
        <ele>1420.0</ele>
        <time>2018-07-29T13:29:23Z</time>
      </trkpt>
      <trkpt lat="40.522917" lon="-4.951783">
        <ele>1419.0</ele>
        <time>2018-07-29T13:29:24Z</time>
      </trkpt>
      <trkpt lat="40.523000" lon="-4.951717">
        <ele>1418.0</ele>
        <time>2018-07-29T13:29:25Z</time>
      </trkpt>
      <trkpt lat="40.523083" lon="-4.951667">
        <ele>1418.0</ele>
        <time>2018-07-29T13:29:26Z</time>
      </trkpt>
      <trkpt lat="40.523150" lon="-4.951600">
        <ele>1418.0</ele>
        <time>2018-07-29T13:29:27Z</time>
      </trkpt>
      <trkpt lat="40.523217" lon="-4.951517">
        <ele>1417.0</ele>
        <time>2018-07-29T13:29:28Z</time>
      </trkpt>
      <trkpt lat="40.523267" lon="-4.951433">
        <ele>1416.0</ele>
        <time>2018-07-29T13:29:29Z</time>
      </trkpt>
      <trkpt lat="40.523333" lon="-4.951333">
        <ele>1415.0</ele>
        <time>2018-07-29T13:29:30Z</time>
      </trkpt>
      <trkpt lat="40.523400" lon="-4.951233">
        <ele>1413.0</ele>
        <time>2018-07-29T13:29:31Z</time>
      </trkpt>
      <trkpt lat="40.523467" lon="-4.951117">
        <ele>1411.0</ele>
        <time>2018-07-29T13:29:32Z</time>
      </trkpt>
      <trkpt lat="40.523533" lon="-4.951017">
        <ele>1410.0</ele>
        <time>2018-07-29T13:29:33Z</time>
      </trkpt>
      <trkpt lat="40.523617" lon="-4.950917">
        <ele>1410.0</ele>
        <time>2018-07-29T13:29:34Z</time>
      </trkpt>
      <trkpt lat="40.523700" lon="-4.950817">
        <ele>1410.0</ele>
        <time>2018-07-29T13:29:35Z</time>
      </trkpt>
      <trkpt lat="40.523767" lon="-4.950700">
        <ele>1411.0</ele>
        <time>2018-07-29T13:29:36Z</time>
      </trkpt>
      <trkpt lat="40.523833" lon="-4.950600">
        <ele>1411.0</ele>
        <time>2018-07-29T13:29:37Z</time>
      </trkpt>
      <trkpt lat="40.523900" lon="-4.950483">
        <ele>1411.0</ele>
        <time>2018-07-29T13:29:38Z</time>
      </trkpt>
      <trkpt lat="40.523983" lon="-4.950383">
        <ele>1411.0</ele>
        <time>2018-07-29T13:29:39Z</time>
      </trkpt>
      <trkpt lat="40.524050" lon="-4.950283">
        <ele>1410.0</ele>
        <time>2018-07-29T13:29:40Z</time>
      </trkpt>
      <trkpt lat="40.524133" lon="-4.950167">
        <ele>1410.0</ele>
        <time>2018-07-29T13:29:41Z</time>
      </trkpt>
      <trkpt lat="40.524217" lon="-4.950050">
        <ele>1409.0</ele>
        <time>2018-07-29T13:29:42Z</time>
      </trkpt>
      <trkpt lat="40.524300" lon="-4.949900">
        <ele>1408.0</ele>
        <time>2018-07-29T13:29:43Z</time>
      </trkpt>
      <trkpt lat="40.524367" lon="-4.949750">
        <ele>1407.0</ele>
        <time>2018-07-29T13:29:44Z</time>
      </trkpt>
      <trkpt lat="40.524433" lon="-4.949600">
        <ele>1406.0</ele>
        <time>2018-07-29T13:29:45Z</time>
      </trkpt>
      <trkpt lat="40.524500" lon="-4.949450">
        <ele>1407.0</ele>
        <time>2018-07-29T13:29:46Z</time>
      </trkpt>
      <trkpt lat="40.524533" lon="-4.949317">
        <ele>1408.0</ele>
        <time>2018-07-29T13:29:47Z</time>
      </trkpt>
      <trkpt lat="40.524567" lon="-4.949167">
        <ele>1408.0</ele>
        <time>2018-07-29T13:29:48Z</time>
      </trkpt>
      <trkpt lat="40.524617" lon="-4.949017">
        <ele>1406.0</ele>
        <time>2018-07-29T13:29:49Z</time>
      </trkpt>
      <trkpt lat="40.524667" lon="-4.948867">
        <ele>1404.0</ele>
        <time>2018-07-29T13:29:50Z</time>
      </trkpt>
      <trkpt lat="40.524733" lon="-4.948700">
        <ele>1402.0</ele>
        <time>2018-07-29T13:29:51Z</time>
      </trkpt>
      <trkpt lat="40.524817" lon="-4.948550">
        <ele>1400.0</ele>
        <time>2018-07-29T13:29:52Z</time>
      </trkpt>
      <trkpt lat="40.524883" lon="-4.948383">
        <ele>1399.0</ele>
        <time>2018-07-29T13:29:53Z</time>
      </trkpt>
      <trkpt lat="40.524950" lon="-4.948233">
        <ele>1400.0</ele>
        <time>2018-07-29T13:29:54Z</time>
      </trkpt>
      <trkpt lat="40.525017" lon="-4.948067">
        <ele>1402.0</ele>
        <time>2018-07-29T13:29:55Z</time>
      </trkpt>
      <trkpt lat="40.525067" lon="-4.947917">
        <ele>1404.0</ele>
        <time>2018-07-29T13:29:56Z</time>
      </trkpt>
      <trkpt lat="40.525117" lon="-4.947767">
        <ele>1405.0</ele>
        <time>2018-07-29T13:29:57Z</time>
      </trkpt>
      <trkpt lat="40.525167" lon="-4.947633">
        <ele>1406.0</ele>
        <time>2018-07-29T13:29:58Z</time>
      </trkpt>
      <trkpt lat="40.525217" lon="-4.947517">
        <ele>1406.0</ele>
        <time>2018-07-29T13:29:59Z</time>
      </trkpt>
      <trkpt lat="40.525267" lon="-4.947417">
        <ele>1404.0</ele>
        <time>2018-07-29T13:30:00Z</time>
      </trkpt>
      <trkpt lat="40.525333" lon="-4.947283">
        <ele>1402.0</ele>
        <time>2018-07-29T13:30:01Z</time>
      </trkpt>
      <trkpt lat="40.525400" lon="-4.947150">
        <ele>1399.0</ele>
        <time>2018-07-29T13:30:02Z</time>
      </trkpt>
      <trkpt lat="40.525450" lon="-4.946983">
        <ele>1396.0</ele>
        <time>2018-07-29T13:30:03Z</time>
      </trkpt>
      <trkpt lat="40.525500" lon="-4.946800">
        <ele>1394.0</ele>
        <time>2018-07-29T13:30:04Z</time>
      </trkpt>
      <trkpt lat="40.525517" lon="-4.946633">
        <ele>1392.0</ele>
        <time>2018-07-29T13:30:05Z</time>
      </trkpt>
      <trkpt lat="40.525533" lon="-4.946467">
        <ele>1391.0</ele>
        <time>2018-07-29T13:30:06Z</time>
      </trkpt>
      <trkpt lat="40.525550" lon="-4.946300">
        <ele>1390.0</ele>
        <time>2018-07-29T13:30:07Z</time>
      </trkpt>
      <trkpt lat="40.525550" lon="-4.946133">
        <ele>1388.0</ele>
        <time>2018-07-29T13:30:08Z</time>
      </trkpt>
      <trkpt lat="40.525583" lon="-4.945933">
        <ele>1386.0</ele>
        <time>2018-07-29T13:30:09Z</time>
      </trkpt>
      <trkpt lat="40.525600" lon="-4.945750">
        <ele>1385.0</ele>
        <time>2018-07-29T13:30:10Z</time>
      </trkpt>
      <trkpt lat="40.525600" lon="-4.945550">
        <ele>1383.0</ele>
        <time>2018-07-29T13:30:11Z</time>
      </trkpt>
      <trkpt lat="40.525617" lon="-4.945367">
        <ele>1383.0</ele>
        <time>2018-07-29T13:30:12Z</time>
      </trkpt>
      <trkpt lat="40.525617" lon="-4.945183">
        <ele>1384.0</ele>
        <time>2018-07-29T13:30:13Z</time>
      </trkpt>
      <trkpt lat="40.525600" lon="-4.945017">
        <ele>1384.0</ele>
        <time>2018-07-29T13:30:14Z</time>
      </trkpt>
      <trkpt lat="40.525600" lon="-4.944833">
        <ele>1384.0</ele>
        <time>2018-07-29T13:30:15Z</time>
      </trkpt>
      <trkpt lat="40.525583" lon="-4.944650">
        <ele>1383.0</ele>
        <time>2018-07-29T13:30:16Z</time>
      </trkpt>
      <trkpt lat="40.525583" lon="-4.944467">
        <ele>1382.0</ele>
        <time>2018-07-29T13:30:17Z</time>
      </trkpt>
      <trkpt lat="40.525583" lon="-4.944300">
        <ele>1382.0</ele>
        <time>2018-07-29T13:30:18Z</time>
      </trkpt>
      <trkpt lat="40.525583" lon="-4.944117">
        <ele>1381.0</ele>
        <time>2018-07-29T13:30:19Z</time>
      </trkpt>
      <trkpt lat="40.525600" lon="-4.943933">
        <ele>1380.0</ele>
        <time>2018-07-29T13:30:20Z</time>
      </trkpt>
      <trkpt lat="40.525633" lon="-4.943750">
        <ele>1379.0</ele>
        <time>2018-07-29T13:30:21Z</time>
      </trkpt>
      <trkpt lat="40.525667" lon="-4.943567">
        <ele>1378.0</ele>
        <time>2018-07-29T13:30:22Z</time>
      </trkpt>
      <trkpt lat="40.525717" lon="-4.943383">
        <ele>1378.0</ele>
        <time>2018-07-29T13:30:23Z</time>
      </trkpt>
      <trkpt lat="40.525767" lon="-4.943200">
        <ele>1378.0</ele>
        <time>2018-07-29T13:30:24Z</time>
      </trkpt>
      <trkpt lat="40.525817" lon="-4.943033">
        <ele>1379.0</ele>
        <time>2018-07-29T13:30:25Z</time>
      </trkpt>
      <trkpt lat="40.525833" lon="-4.942867">
        <ele>1380.0</ele>
        <time>2018-07-29T13:30:26Z</time>
      </trkpt>
      <trkpt lat="40.525867" lon="-4.942700">
        <ele>1380.0</ele>
        <time>2018-07-29T13:30:27Z</time>
      </trkpt>
      <trkpt lat="40.525883" lon="-4.942533">
        <ele>1379.0</ele>
        <time>2018-07-29T13:30:28Z</time>
      </trkpt>
      <trkpt lat="40.525900" lon="-4.942367">
        <ele>1378.0</ele>
        <time>2018-07-29T13:30:29Z</time>
      </trkpt>
      <trkpt lat="40.525917" lon="-4.942217">
        <ele>1377.0</ele>
        <time>2018-07-29T13:30:30Z</time>
      </trkpt>
      <trkpt lat="40.525933" lon="-4.942050">
        <ele>1375.0</ele>
        <time>2018-07-29T13:30:31Z</time>
      </trkpt>
      <trkpt lat="40.525967" lon="-4.941900">
        <ele>1373.0</ele>
        <time>2018-07-29T13:30:32Z</time>
      </trkpt>
      <trkpt lat="40.526017" lon="-4.941733">
        <ele>1369.0</ele>
        <time>2018-07-29T13:30:33Z</time>
      </trkpt>
      <trkpt lat="40.526067" lon="-4.941567">
        <ele>1367.0</ele>
        <time>2018-07-29T13:30:34Z</time>
      </trkpt>
      <trkpt lat="40.526133" lon="-4.941383">
        <ele>1366.0</ele>
        <time>2018-07-29T13:30:35Z</time>
      </trkpt>
      <trkpt lat="40.526167" lon="-4.941217">
        <ele>1367.0</ele>
        <time>2018-07-29T13:30:36Z</time>
      </trkpt>
      <trkpt lat="40.526167" lon="-4.941067">
        <ele>1368.0</ele>
        <time>2018-07-29T13:30:37Z</time>
      </trkpt>
      <trkpt lat="40.526183" lon="-4.940917">
        <ele>1368.0</ele>
        <time>2018-07-29T13:30:38Z</time>
      </trkpt>
      <trkpt lat="40.526217" lon="-4.940767">
        <ele>1367.0</ele>
        <time>2018-07-29T13:30:39Z</time>
      </trkpt>
      <trkpt lat="40.526233" lon="-4.940600">
        <ele>1365.0</ele>
        <time>2018-07-29T13:30:40Z</time>
      </trkpt>
      <trkpt lat="40.526283" lon="-4.940400">
        <ele>1363.0</ele>
        <time>2018-07-29T13:30:41Z</time>
      </trkpt>
      <trkpt lat="40.526317" lon="-4.940233">
        <ele>1362.0</ele>
        <time>2018-07-29T13:30:42Z</time>
      </trkpt>
      <trkpt lat="40.526333" lon="-4.940067">
        <ele>1364.0</ele>
        <time>2018-07-29T13:30:43Z</time>
      </trkpt>
      <trkpt lat="40.526367" lon="-4.939917">
        <ele>1366.0</ele>
        <time>2018-07-29T13:30:44Z</time>
      </trkpt>
      <trkpt lat="40.526367" lon="-4.939750">
        <ele>1367.0</ele>
        <time>2018-07-29T13:30:45Z</time>
      </trkpt>
      <trkpt lat="40.526383" lon="-4.939583">
        <ele>1367.0</ele>
        <time>2018-07-29T13:30:46Z</time>
      </trkpt>
      <trkpt lat="40.526400" lon="-4.939417">
        <ele>1365.0</ele>
        <time>2018-07-29T13:30:47Z</time>
      </trkpt>
      <trkpt lat="40.526417" lon="-4.939233">
        <ele>1364.0</ele>
        <time>2018-07-29T13:30:48Z</time>
      </trkpt>
      <trkpt lat="40.526433" lon="-4.939033">
        <ele>1362.0</ele>
        <time>2018-07-29T13:30:49Z</time>
      </trkpt>
      <trkpt lat="40.526450" lon="-4.938867">
        <ele>1361.0</ele>
        <time>2018-07-29T13:30:50Z</time>
      </trkpt>
      <trkpt lat="40.526450" lon="-4.938700">
        <ele>1362.0</ele>
        <time>2018-07-29T13:30:51Z</time>
      </trkpt>
      <trkpt lat="40.526467" lon="-4.938533">
        <ele>1362.0</ele>
        <time>2018-07-29T13:30:52Z</time>
      </trkpt>
      <trkpt lat="40.526467" lon="-4.938383">
        <ele>1363.0</ele>
        <time>2018-07-29T13:30:53Z</time>
      </trkpt>
      <trkpt lat="40.526467" lon="-4.938233">
        <ele>1362.0</ele>
        <time>2018-07-29T13:30:54Z</time>
      </trkpt>
      <trkpt lat="40.526467" lon="-4.938067">
        <ele>1361.0</ele>
        <time>2018-07-29T13:30:55Z</time>
      </trkpt>
      <trkpt lat="40.526467" lon="-4.937883">
        <ele>1359.0</ele>
        <time>2018-07-29T13:30:56Z</time>
      </trkpt>
      <trkpt lat="40.526450" lon="-4.937700">
        <ele>1359.0</ele>
        <time>2018-07-29T13:30:57Z</time>
      </trkpt>
      <trkpt lat="40.526450" lon="-4.937533">
        <ele>1360.0</ele>
        <time>2018-07-29T13:30:58Z</time>
      </trkpt>
      <trkpt lat="40.526450" lon="-4.937367">
        <ele>1361.0</ele>
        <time>2018-07-29T13:30:59Z</time>
      </trkpt>
      <trkpt lat="40.526450" lon="-4.937200">
        <ele>1361.0</ele>
        <time>2018-07-29T13:31:00Z</time>
      </trkpt>
      <trkpt lat="40.526450" lon="-4.937033">
        <ele>1361.0</ele>
        <time>2018-07-29T13:31:01Z</time>
      </trkpt>
      <trkpt lat="40.526467" lon="-4.936850">
        <ele>1361.0</ele>
        <time>2018-07-29T13:31:02Z</time>
      </trkpt>
      <trkpt lat="40.526467" lon="-4.936700">
        <ele>1361.0</ele>
        <time>2018-07-29T13:31:03Z</time>
      </trkpt>
      <trkpt lat="40.526500" lon="-4.936567">
        <ele>1362.0</ele>
        <time>2018-07-29T13:31:04Z</time>
      </trkpt>
      <trkpt lat="40.526517" lon="-4.936433">
        <ele>1363.0</ele>
        <time>2018-07-29T13:31:05Z</time>
      </trkpt>
      <trkpt lat="40.526550" lon="-4.936317">
        <ele>1363.0</ele>
        <time>2018-07-29T13:31:06Z</time>
      </trkpt>
      <trkpt lat="40.526583" lon="-4.936183">
        <ele>1362.0</ele>
        <time>2018-07-29T13:31:07Z</time>
      </trkpt>
      <trkpt lat="40.526617" lon="-4.936050">
        <ele>1362.0</ele>
        <time>2018-07-29T13:31:08Z</time>
      </trkpt>
      <trkpt lat="40.526650" lon="-4.935900">
        <ele>1361.0</ele>
        <time>2018-07-29T13:31:09Z</time>
      </trkpt>
      <trkpt lat="40.526683" lon="-4.935750">
        <ele>1360.0</ele>
        <time>2018-07-29T13:31:10Z</time>
      </trkpt>
      <trkpt lat="40.526717" lon="-4.935600">
        <ele>1361.0</ele>
        <time>2018-07-29T13:31:11Z</time>
      </trkpt>
      <trkpt lat="40.526750" lon="-4.935467">
        <ele>1362.0</ele>
        <time>2018-07-29T13:31:12Z</time>
      </trkpt>
      <trkpt lat="40.526783" lon="-4.935333">
        <ele>1363.0</ele>
        <time>2018-07-29T13:31:13Z</time>
      </trkpt>
      <trkpt lat="40.526800" lon="-4.935183">
        <ele>1363.0</ele>
        <time>2018-07-29T13:31:14Z</time>
      </trkpt>
      <trkpt lat="40.526817" lon="-4.935017">
        <ele>1363.0</ele>
        <time>2018-07-29T13:31:15Z</time>
      </trkpt>
      <trkpt lat="40.526850" lon="-4.934850">
        <ele>1362.0</ele>
        <time>2018-07-29T13:31:16Z</time>
      </trkpt>
      <trkpt lat="40.526883" lon="-4.934683">
        <ele>1361.0</ele>
        <time>2018-07-29T13:31:17Z</time>
      </trkpt>
      <trkpt lat="40.526917" lon="-4.934500">
        <ele>1361.0</ele>
        <time>2018-07-29T13:31:18Z</time>
      </trkpt>
      <trkpt lat="40.526950" lon="-4.934317">
        <ele>1361.0</ele>
        <time>2018-07-29T13:31:19Z</time>
      </trkpt>
      <trkpt lat="40.526983" lon="-4.934150">
        <ele>1362.0</ele>
        <time>2018-07-29T13:31:20Z</time>
      </trkpt>
      <trkpt lat="40.527017" lon="-4.934000">
        <ele>1363.0</ele>
        <time>2018-07-29T13:31:21Z</time>
      </trkpt>
      <trkpt lat="40.527050" lon="-4.933867">
        <ele>1364.0</ele>
        <time>2018-07-29T13:31:22Z</time>
      </trkpt>
      <trkpt lat="40.527067" lon="-4.933733">
        <ele>1364.0</ele>
        <time>2018-07-29T13:31:23Z</time>
      </trkpt>
      <trkpt lat="40.527100" lon="-4.933567">
        <ele>1361.0</ele>
        <time>2018-07-29T13:31:24Z</time>
      </trkpt>
      <trkpt lat="40.527117" lon="-4.933400">
        <ele>1359.0</ele>
        <time>2018-07-29T13:31:25Z</time>
      </trkpt>
      <trkpt lat="40.527117" lon="-4.933200">
        <ele>1355.0</ele>
        <time>2018-07-29T13:31:26Z</time>
      </trkpt>
      <trkpt lat="40.527117" lon="-4.933000">
        <ele>1352.0</ele>
        <time>2018-07-29T13:31:27Z</time>
      </trkpt>
      <trkpt lat="40.527117" lon="-4.932800">
        <ele>1351.0</ele>
        <time>2018-07-29T13:31:28Z</time>
      </trkpt>
      <trkpt lat="40.527117" lon="-4.932633">
        <ele>1351.0</ele>
        <time>2018-07-29T13:31:29Z</time>
      </trkpt>
      <trkpt lat="40.527117" lon="-4.932467">
        <ele>1350.0</ele>
        <time>2018-07-29T13:31:30Z</time>
      </trkpt>
      <trkpt lat="40.527117" lon="-4.932317">
        <ele>1349.0</ele>
        <time>2018-07-29T13:31:31Z</time>
      </trkpt>
      <trkpt lat="40.527133" lon="-4.932133">
        <ele>1347.0</ele>
        <time>2018-07-29T13:31:32Z</time>
      </trkpt>
      <trkpt lat="40.527150" lon="-4.931950">
        <ele>1344.0</ele>
        <time>2018-07-29T13:31:33Z</time>
      </trkpt>
      <trkpt lat="40.527183" lon="-4.931750">
        <ele>1341.0</ele>
        <time>2018-07-29T13:31:34Z</time>
      </trkpt>
      <trkpt lat="40.527217" lon="-4.931567">
        <ele>1338.0</ele>
        <time>2018-07-29T13:31:35Z</time>
      </trkpt>
      <trkpt lat="40.527267" lon="-4.931367">
        <ele>1335.0</ele>
        <time>2018-07-29T13:31:36Z</time>
      </trkpt>
      <trkpt lat="40.527317" lon="-4.931217">
        <ele>1335.0</ele>
        <time>2018-07-29T13:31:37Z</time>
      </trkpt>
      <trkpt lat="40.527367" lon="-4.931067">
        <ele>1337.0</ele>
        <time>2018-07-29T13:31:38Z</time>
      </trkpt>
      <trkpt lat="40.527417" lon="-4.930933">
        <ele>1340.0</ele>
        <time>2018-07-29T13:31:39Z</time>
      </trkpt>
      <trkpt lat="40.527450" lon="-4.930800">
        <ele>1341.0</ele>
        <time>2018-07-29T13:31:40Z</time>
      </trkpt>
      <trkpt lat="40.527500" lon="-4.930650">
        <ele>1341.0</ele>
        <time>2018-07-29T13:31:41Z</time>
      </trkpt>
      <trkpt lat="40.527550" lon="-4.930517">
        <ele>1341.0</ele>
        <time>2018-07-29T13:31:42Z</time>
      </trkpt>
      <trkpt lat="40.527617" lon="-4.930417">
        <ele>1341.0</ele>
        <time>2018-07-29T13:31:43Z</time>
      </trkpt>
      <trkpt lat="40.527700" lon="-4.930367">
        <ele>1340.0</ele>
        <time>2018-07-29T13:31:44Z</time>
      </trkpt>
      <trkpt lat="40.527767" lon="-4.930367">
        <ele>1339.0</ele>
        <time>2018-07-29T13:31:45Z</time>
      </trkpt>
      <trkpt lat="40.527800" lon="-4.930400">
        <ele>1338.0</ele>
        <time>2018-07-29T13:31:46Z</time>
      </trkpt>
      <trkpt lat="40.527800" lon="-4.930433">
        <ele>1337.0</ele>
        <time>2018-07-29T13:31:47Z</time>
      </trkpt>
      <trkpt lat="40.527767" lon="-4.930467">
        <ele>1337.0</ele>
        <time>2018-07-29T13:31:48Z</time>
      </trkpt>
      <trkpt lat="40.527700" lon="-4.930467">
        <ele>1336.0</ele>
        <time>2018-07-29T13:31:49Z</time>
      </trkpt>
      <trkpt lat="40.527617" lon="-4.930450">
        <ele>1335.0</ele>
        <time>2018-07-29T13:31:50Z</time>
      </trkpt>
      <trkpt lat="40.527550" lon="-4.930450">
        <ele>1334.0</ele>
        <time>2018-07-29T13:31:51Z</time>
      </trkpt>
      <trkpt lat="40.527483" lon="-4.930467">
        <ele>1334.0</ele>
        <time>2018-07-29T13:31:52Z</time>
      </trkpt>
      <trkpt lat="40.527433" lon="-4.930500">
        <ele>1333.0</ele>
        <time>2018-07-29T13:31:53Z</time>
      </trkpt>
      <trkpt lat="40.527417" lon="-4.930567">
        <ele>1331.0</ele>
        <time>2018-07-29T13:31:54Z</time>
      </trkpt>
      <trkpt lat="40.527433" lon="-4.930617">
        <ele>1330.0</ele>
        <time>2018-07-29T13:31:55Z</time>
      </trkpt>
      <trkpt lat="40.527483" lon="-4.930650">
        <ele>1331.0</ele>
        <time>2018-07-29T13:31:56Z</time>
      </trkpt>
      <trkpt lat="40.527533" lon="-4.930633">
        <ele>1332.0</ele>
        <time>2018-07-29T13:31:57Z</time>
      </trkpt>
      <trkpt lat="40.527600" lon="-4.930600">
        <ele>1333.0</ele>
        <time>2018-07-29T13:31:58Z</time>
      </trkpt>
      <trkpt lat="40.527667" lon="-4.930500">
        <ele>1333.0</ele>
        <time>2018-07-29T13:31:59Z</time>
      </trkpt>
      <trkpt lat="40.527733" lon="-4.930383">
        <ele>1333.0</ele>
        <time>2018-07-29T13:32:00Z</time>
      </trkpt>
      <trkpt lat="40.527800" lon="-4.930250">
        <ele>1332.0</ele>
        <time>2018-07-29T13:32:01Z</time>
      </trkpt>
      <trkpt lat="40.527850" lon="-4.930100">
        <ele>1332.0</ele>
        <time>2018-07-29T13:32:02Z</time>
      </trkpt>
      <trkpt lat="40.527900" lon="-4.929967">
        <ele>1333.0</ele>
        <time>2018-07-29T13:32:03Z</time>
      </trkpt>
      <trkpt lat="40.527950" lon="-4.929817">
        <ele>1333.0</ele>
        <time>2018-07-29T13:32:04Z</time>
      </trkpt>
      <trkpt lat="40.528000" lon="-4.929667">
        <ele>1333.0</ele>
        <time>2018-07-29T13:32:05Z</time>
      </trkpt>
      <trkpt lat="40.528050" lon="-4.929517">
        <ele>1331.0</ele>
        <time>2018-07-29T13:32:06Z</time>
      </trkpt>
      <trkpt lat="40.528100" lon="-4.929350">
        <ele>1330.0</ele>
        <time>2018-07-29T13:32:07Z</time>
      </trkpt>
      <trkpt lat="40.528150" lon="-4.929183">
        <ele>1328.0</ele>
        <time>2018-07-29T13:32:08Z</time>
      </trkpt>
      <trkpt lat="40.528217" lon="-4.929017">
        <ele>1326.0</ele>
        <time>2018-07-29T13:32:09Z</time>
      </trkpt>
      <trkpt lat="40.528267" lon="-4.928850">
        <ele>1326.0</ele>
        <time>2018-07-29T13:32:10Z</time>
      </trkpt>
      <trkpt lat="40.528317" lon="-4.928700">
        <ele>1326.0</ele>
        <time>2018-07-29T13:32:11Z</time>
      </trkpt>
      <trkpt lat="40.528367" lon="-4.928533">
        <ele>1325.0</ele>
        <time>2018-07-29T13:32:12Z</time>
      </trkpt>
      <trkpt lat="40.528400" lon="-4.928367">
        <ele>1324.0</ele>
        <time>2018-07-29T13:32:13Z</time>
      </trkpt>
      <trkpt lat="40.528450" lon="-4.928200">
        <ele>1322.0</ele>
        <time>2018-07-29T13:32:14Z</time>
      </trkpt>
      <trkpt lat="40.528517" lon="-4.928033">
        <ele>1320.0</ele>
        <time>2018-07-29T13:32:15Z</time>
      </trkpt>
      <trkpt lat="40.528583" lon="-4.927867">
        <ele>1317.0</ele>
        <time>2018-07-29T13:32:16Z</time>
      </trkpt>
      <trkpt lat="40.528650" lon="-4.927700">
        <ele>1316.0</ele>
        <time>2018-07-29T13:32:17Z</time>
      </trkpt>
      <trkpt lat="40.528700" lon="-4.927533">
        <ele>1316.0</ele>
        <time>2018-07-29T13:32:18Z</time>
      </trkpt>
      <trkpt lat="40.528733" lon="-4.927367">
        <ele>1316.0</ele>
        <time>2018-07-29T13:32:19Z</time>
      </trkpt>
      <trkpt lat="40.528783" lon="-4.927200">
        <ele>1316.0</ele>
        <time>2018-07-29T13:32:20Z</time>
      </trkpt>
      <trkpt lat="40.528850" lon="-4.927033">
        <ele>1314.0</ele>
        <time>2018-07-29T13:32:21Z</time>
      </trkpt>
      <trkpt lat="40.528917" lon="-4.926883">
        <ele>1312.0</ele>
        <time>2018-07-29T13:32:22Z</time>
      </trkpt>
      <trkpt lat="40.528983" lon="-4.926717">
        <ele>1310.0</ele>
        <time>2018-07-29T13:32:23Z</time>
      </trkpt>
      <trkpt lat="40.529033" lon="-4.926567">
        <ele>1309.0</ele>
        <time>2018-07-29T13:32:24Z</time>
      </trkpt>
      <trkpt lat="40.529100" lon="-4.926433">
        <ele>1307.0</ele>
        <time>2018-07-29T13:32:25Z</time>
      </trkpt>
      <trkpt lat="40.529183" lon="-4.926283">
        <ele>1306.0</ele>
        <time>2018-07-29T13:32:26Z</time>
      </trkpt>
      <trkpt lat="40.529250" lon="-4.926150">
        <ele>1304.0</ele>
        <time>2018-07-29T13:32:27Z</time>
      </trkpt>
      <trkpt lat="40.529333" lon="-4.926033">
        <ele>1304.0</ele>
        <time>2018-07-29T13:32:28Z</time>
      </trkpt>
      <trkpt lat="40.529383" lon="-4.925933">
        <ele>1305.0</ele>
        <time>2018-07-29T13:32:29Z</time>
      </trkpt>
      <trkpt lat="40.529433" lon="-4.925817">
        <ele>1307.0</ele>
        <time>2018-07-29T13:32:30Z</time>
      </trkpt>
      <trkpt lat="40.529483" lon="-4.925700">
        <ele>1307.0</ele>
        <time>2018-07-29T13:32:31Z</time>
      </trkpt>
      <trkpt lat="40.529533" lon="-4.925600">
        <ele>1308.0</ele>
        <time>2018-07-29T13:32:32Z</time>
      </trkpt>
      <trkpt lat="40.529583" lon="-4.925483">
        <ele>1307.0</ele>
        <time>2018-07-29T13:32:33Z</time>
      </trkpt>
      <trkpt lat="40.529650" lon="-4.925367">
        <ele>1305.0</ele>
        <time>2018-07-29T13:32:34Z</time>
      </trkpt>
      <trkpt lat="40.529733" lon="-4.925267">
        <ele>1304.0</ele>
        <time>2018-07-29T13:32:35Z</time>
      </trkpt>
      <trkpt lat="40.529817" lon="-4.925200">
        <ele>1304.0</ele>
        <time>2018-07-29T13:32:36Z</time>
      </trkpt>
      <trkpt lat="40.529917" lon="-4.925133">
        <ele>1305.0</ele>
        <time>2018-07-29T13:32:37Z</time>
      </trkpt>
      <trkpt lat="40.530000" lon="-4.925083">
        <ele>1304.0</ele>
        <time>2018-07-29T13:32:38Z</time>
      </trkpt>
      <trkpt lat="40.530083" lon="-4.925017">
        <ele>1304.0</ele>
        <time>2018-07-29T13:32:39Z</time>
      </trkpt>
      <trkpt lat="40.530167" lon="-4.924950">
        <ele>1305.0</ele>
        <time>2018-07-29T13:32:40Z</time>
      </trkpt>
      <trkpt lat="40.530250" lon="-4.924883">
        <ele>1304.0</ele>
        <time>2018-07-29T13:32:41Z</time>
      </trkpt>
      <trkpt lat="40.530333" lon="-4.924833">
        <ele>1303.0</ele>
        <time>2018-07-29T13:32:42Z</time>
      </trkpt>
      <trkpt lat="40.530433" lon="-4.924783">
        <ele>1302.0</ele>
        <time>2018-07-29T13:32:43Z</time>
      </trkpt>
      <trkpt lat="40.530517" lon="-4.924733">
        <ele>1300.0</ele>
        <time>2018-07-29T13:32:44Z</time>
      </trkpt>
      <trkpt lat="40.530617" lon="-4.924667">
        <ele>1299.0</ele>
        <time>2018-07-29T13:32:45Z</time>
      </trkpt>
      <trkpt lat="40.530700" lon="-4.924600">
        <ele>1298.0</ele>
        <time>2018-07-29T13:32:46Z</time>
      </trkpt>
      <trkpt lat="40.530783" lon="-4.924500">
        <ele>1297.0</ele>
        <time>2018-07-29T13:32:47Z</time>
      </trkpt>
      <trkpt lat="40.530883" lon="-4.924383">
        <ele>1295.0</ele>
        <time>2018-07-29T13:32:48Z</time>
      </trkpt>
      <trkpt lat="40.530983" lon="-4.924300">
        <ele>1294.0</ele>
        <time>2018-07-29T13:32:49Z</time>
      </trkpt>
      <trkpt lat="40.531100" lon="-4.924217">
        <ele>1293.0</ele>
        <time>2018-07-29T13:32:50Z</time>
      </trkpt>
      <trkpt lat="40.531183" lon="-4.924150">
        <ele>1294.0</ele>
        <time>2018-07-29T13:32:51Z</time>
      </trkpt>
      <trkpt lat="40.531267" lon="-4.924100">
        <ele>1296.0</ele>
        <time>2018-07-29T13:32:52Z</time>
      </trkpt>
      <trkpt lat="40.531333" lon="-4.924050">
        <ele>1298.0</ele>
        <time>2018-07-29T13:32:53Z</time>
      </trkpt>
      <trkpt lat="40.531400" lon="-4.924017">
        <ele>1298.0</ele>
        <time>2018-07-29T13:32:54Z</time>
      </trkpt>
      <trkpt lat="40.531467" lon="-4.923967">
        <ele>1297.0</ele>
        <time>2018-07-29T13:32:55Z</time>
      </trkpt>
      <trkpt lat="40.531567" lon="-4.923933">
        <ele>1295.0</ele>
        <time>2018-07-29T13:32:56Z</time>
      </trkpt>
      <trkpt lat="40.531650" lon="-4.923900">
        <ele>1294.0</ele>
        <time>2018-07-29T13:32:57Z</time>
      </trkpt>
      <trkpt lat="40.531733" lon="-4.923883">
        <ele>1294.0</ele>
        <time>2018-07-29T13:32:58Z</time>
      </trkpt>
      <trkpt lat="40.531800" lon="-4.923883">
        <ele>1295.0</ele>
        <time>2018-07-29T13:32:59Z</time>
      </trkpt>
      <trkpt lat="40.531867" lon="-4.923867">
        <ele>1295.0</ele>
        <time>2018-07-29T13:33:00Z</time>
      </trkpt>
      <trkpt lat="40.531933" lon="-4.923867">
        <ele>1294.0</ele>
        <time>2018-07-29T13:33:01Z</time>
      </trkpt>
      <trkpt lat="40.532000" lon="-4.923833">
        <ele>1293.0</ele>
        <time>2018-07-29T13:33:02Z</time>
      </trkpt>
      <trkpt lat="40.532067" lon="-4.923783">
        <ele>1293.0</ele>
        <time>2018-07-29T13:33:03Z</time>
      </trkpt>
      <trkpt lat="40.532133" lon="-4.923750">
        <ele>1293.0</ele>
        <time>2018-07-29T13:33:04Z</time>
      </trkpt>
      <trkpt lat="40.532200" lon="-4.923700">
        <ele>1293.0</ele>
        <time>2018-07-29T13:33:05Z</time>
      </trkpt>
      <trkpt lat="40.532267" lon="-4.923683">
        <ele>1293.0</ele>
        <time>2018-07-29T13:33:06Z</time>
      </trkpt>
      <trkpt lat="40.532333" lon="-4.923633">
        <ele>1293.0</ele>
        <time>2018-07-29T13:33:07Z</time>
      </trkpt>
      <trkpt lat="40.532400" lon="-4.923600">
        <ele>1293.0</ele>
        <time>2018-07-29T13:33:08Z</time>
      </trkpt>
      <trkpt lat="40.532450" lon="-4.923567">
        <ele>1294.0</ele>
        <time>2018-07-29T13:33:09Z</time>
      </trkpt>
      <trkpt lat="40.532483" lon="-4.923550">
        <ele>1297.0</ele>
        <time>2018-07-29T13:33:10Z</time>
      </trkpt>
      <trkpt lat="40.532517" lon="-4.923533">
        <ele>1299.0</ele>
        <time>2018-07-29T13:33:11Z</time>
      </trkpt>
      <trkpt lat="40.532550" lon="-4.923517">
        <ele>1301.0</ele>
        <time>2018-07-29T13:33:12Z</time>
      </trkpt>
      <trkpt lat="40.532583" lon="-4.923517">
        <ele>1302.0</ele>
        <time>2018-07-29T13:33:13Z</time>
      </trkpt>
      <trkpt lat="40.532617" lon="-4.923550">
        <ele>1302.0</ele>
        <time>2018-07-29T13:33:14Z</time>
      </trkpt>
      <trkpt lat="40.532650" lon="-4.923567">
        <ele>1302.0</ele>
        <time>2018-07-29T13:33:15Z</time>
      </trkpt>
      <trkpt lat="40.532700" lon="-4.923550">
        <ele>1303.0</ele>
        <time>2018-07-29T13:33:16Z</time>
      </trkpt>
      <trkpt lat="40.532750" lon="-4.923467">
        <ele>1304.0</ele>
        <time>2018-07-29T13:33:17Z</time>
      </trkpt>
      <trkpt lat="40.532800" lon="-4.923333">
        <ele>1303.0</ele>
        <time>2018-07-29T13:33:18Z</time>
      </trkpt>
      <trkpt lat="40.532833" lon="-4.923167">
        <ele>1303.0</ele>
        <time>2018-07-29T13:33:19Z</time>
      </trkpt>
      <trkpt lat="40.532833" lon="-4.922983">
        <ele>1303.0</ele>
        <time>2018-07-29T13:33:20Z</time>
      </trkpt>
      <trkpt lat="40.532800" lon="-4.922783">
        <ele>1304.0</ele>
        <time>2018-07-29T13:33:21Z</time>
      </trkpt>
      <trkpt lat="40.532717" lon="-4.922600">
        <ele>1305.0</ele>
        <time>2018-07-29T13:33:22Z</time>
      </trkpt>
      <trkpt lat="40.532617" lon="-4.922433">
        <ele>1306.0</ele>
        <time>2018-07-29T13:33:23Z</time>
      </trkpt>
      <trkpt lat="40.532483" lon="-4.922317">
        <ele>1306.0</ele>
        <time>2018-07-29T13:33:24Z</time>
      </trkpt>
      <trkpt lat="40.532367" lon="-4.922233">
        <ele>1306.0</ele>
        <time>2018-07-29T13:33:25Z</time>
      </trkpt>
      <trkpt lat="40.532250" lon="-4.922200">
        <ele>1308.0</ele>
        <time>2018-07-29T13:33:26Z</time>
      </trkpt>
      <trkpt lat="40.532150" lon="-4.922200">
        <ele>1309.0</ele>
        <time>2018-07-29T13:33:27Z</time>
      </trkpt>
      <trkpt lat="40.532050" lon="-4.922217">
        <ele>1310.0</ele>
        <time>2018-07-29T13:33:28Z</time>
      </trkpt>
      <trkpt lat="40.531950" lon="-4.922250">
        <ele>1310.0</ele>
        <time>2018-07-29T13:33:29Z</time>
      </trkpt>
      <trkpt lat="40.531867" lon="-4.922300">
        <ele>1311.0</ele>
        <time>2018-07-29T13:33:30Z</time>
      </trkpt>
      <trkpt lat="40.531800" lon="-4.922350">
        <ele>1312.0</ele>
        <time>2018-07-29T13:33:31Z</time>
      </trkpt>
      <trkpt lat="40.531767" lon="-4.922400">
        <ele>1313.0</ele>
        <time>2018-07-29T13:33:32Z</time>
      </trkpt>
      <trkpt lat="40.531750" lon="-4.922450">
        <ele>1315.0</ele>
        <time>2018-07-29T13:33:33Z</time>
      </trkpt>
      <trkpt lat="40.531750" lon="-4.922483">
        <ele>1316.0</ele>
        <time>2018-07-29T13:33:34Z</time>
      </trkpt>
      <trkpt lat="40.531717" lon="-4.922533">
        <ele>1317.0</ele>
        <time>2018-07-29T13:33:35Z</time>
      </trkpt>
      <trkpt lat="40.531683" lon="-4.922583">
        <ele>1317.0</ele>
        <time>2018-07-29T13:33:36Z</time>
      </trkpt>
      <trkpt lat="40.531633" lon="-4.922650">
        <ele>1318.0</ele>
        <time>2018-07-29T13:33:37Z</time>
      </trkpt>
      <trkpt lat="40.531600" lon="-4.922717">
        <ele>1321.0</ele>
        <time>2018-07-29T13:33:38Z</time>
      </trkpt>
      <trkpt lat="40.531583" lon="-4.922767">
        <ele>1324.0</ele>
        <time>2018-07-29T13:33:39Z</time>
      </trkpt>
      <trkpt lat="40.531583" lon="-4.922817">
        <ele>1326.0</ele>
        <time>2018-07-29T13:33:40Z</time>
      </trkpt>
      <trkpt lat="40.531583" lon="-4.922883">
        <ele>1328.0</ele>
        <time>2018-07-29T13:33:41Z</time>
      </trkpt>
      <trkpt lat="40.531583" lon="-4.922967">
        <ele>1329.0</ele>
        <time>2018-07-29T13:33:42Z</time>
      </trkpt>
      <trkpt lat="40.531600" lon="-4.923033">
        <ele>1331.0</ele>
        <time>2018-07-29T13:33:43Z</time>
      </trkpt>
      <trkpt lat="40.531650" lon="-4.923067">
        <ele>1334.0</ele>
        <time>2018-07-29T13:33:44Z</time>
      </trkpt>
      <trkpt lat="40.531700" lon="-4.923067">
        <ele>1335.0</ele>
        <time>2018-07-29T13:33:45Z</time>
      </trkpt>
      <trkpt lat="40.531783" lon="-4.923000">
        <ele>1336.0</ele>
        <time>2018-07-29T13:33:46Z</time>
      </trkpt>
      <trkpt lat="40.531850" lon="-4.922900">
        <ele>1336.0</ele>
        <time>2018-07-29T13:33:47Z</time>
      </trkpt>
      <trkpt lat="40.531917" lon="-4.922733">
        <ele>1336.0</ele>
        <time>2018-07-29T13:33:48Z</time>
      </trkpt>
      <trkpt lat="40.531933" lon="-4.922550">
        <ele>1337.0</ele>
        <time>2018-07-29T13:33:49Z</time>
      </trkpt>
      <trkpt lat="40.531917" lon="-4.922350">
        <ele>1337.0</ele>
        <time>2018-07-29T13:33:50Z</time>
      </trkpt>
      <trkpt lat="40.531867" lon="-4.922167">
        <ele>1337.0</ele>
        <time>2018-07-29T13:33:51Z</time>
      </trkpt>
      <trkpt lat="40.531783" lon="-4.922000">
        <ele>1338.0</ele>
        <time>2018-07-29T13:33:52Z</time>
      </trkpt>
      <trkpt lat="40.531683" lon="-4.921883">
        <ele>1339.0</ele>
        <time>2018-07-29T13:33:53Z</time>
      </trkpt>
      <trkpt lat="40.531567" lon="-4.921817">
        <ele>1340.0</ele>
        <time>2018-07-29T13:33:54Z</time>
      </trkpt>
      <trkpt lat="40.531450" lon="-4.921783">
        <ele>1340.0</ele>
        <time>2018-07-29T13:33:55Z</time>
      </trkpt>
      <trkpt lat="40.531350" lon="-4.921783">
        <ele>1342.0</ele>
        <time>2018-07-29T13:33:56Z</time>
      </trkpt>
      <trkpt lat="40.531267" lon="-4.921783">
        <ele>1344.0</ele>
        <time>2018-07-29T13:33:57Z</time>
      </trkpt>
      <trkpt lat="40.531200" lon="-4.921783">
        <ele>1347.0</ele>
        <time>2018-07-29T13:33:58Z</time>
      </trkpt>
      <trkpt lat="40.531133" lon="-4.921767">
        <ele>1349.0</ele>
        <time>2018-07-29T13:33:59Z</time>
      </trkpt>
      <trkpt lat="40.531067" lon="-4.921733">
        <ele>1351.0</ele>
        <time>2018-07-29T13:34:00Z</time>
      </trkpt>
      <trkpt lat="40.530983" lon="-4.921700">
        <ele>1351.0</ele>
        <time>2018-07-29T13:34:01Z</time>
      </trkpt>
      <trkpt lat="40.530917" lon="-4.921683">
        <ele>1350.0</ele>
        <time>2018-07-29T13:34:02Z</time>
      </trkpt>
      <trkpt lat="40.530867" lon="-4.921717">
        <ele>1349.0</ele>
        <time>2018-07-29T13:34:03Z</time>
      </trkpt>
      <trkpt lat="40.530850" lon="-4.921767">
        <ele>1347.0</ele>
        <time>2018-07-29T13:34:04Z</time>
      </trkpt>
      <trkpt lat="40.530833" lon="-4.921833">
        <ele>1345.0</ele>
        <time>2018-07-29T13:34:05Z</time>
      </trkpt>
      <trkpt lat="40.530850" lon="-4.921917">
        <ele>1346.0</ele>
        <time>2018-07-29T13:34:06Z</time>
      </trkpt>
      <trkpt lat="40.530883" lon="-4.921983">
        <ele>1348.0</ele>
        <time>2018-07-29T13:34:07Z</time>
      </trkpt>
      <trkpt lat="40.530900" lon="-4.922033">
        <ele>1351.0</ele>
        <time>2018-07-29T13:34:08Z</time>
      </trkpt>
      <trkpt lat="40.530917" lon="-4.922083">
        <ele>1354.0</ele>
        <time>2018-07-29T13:34:09Z</time>
      </trkpt>
      <trkpt lat="40.530933" lon="-4.922133">
        <ele>1355.0</ele>
        <time>2018-07-29T13:34:10Z</time>
      </trkpt>
      <trkpt lat="40.530933" lon="-4.922167">
        <ele>1356.0</ele>
        <time>2018-07-29T13:34:11Z</time>
      </trkpt>
      <trkpt lat="40.530950" lon="-4.922217">
        <ele>1357.0</ele>
        <time>2018-07-29T13:34:12Z</time>
      </trkpt>
      <trkpt lat="40.530983" lon="-4.922250">
        <ele>1358.0</ele>
        <time>2018-07-29T13:34:13Z</time>
      </trkpt>
      <trkpt lat="40.531067" lon="-4.922283">
        <ele>1359.0</ele>
        <time>2018-07-29T13:34:14Z</time>
      </trkpt>
      <trkpt lat="40.531150" lon="-4.922317">
        <ele>1359.0</ele>
        <time>2018-07-29T13:34:15Z</time>
      </trkpt>
      <trkpt lat="40.531233" lon="-4.922300">
        <ele>1360.0</ele>
        <time>2018-07-29T13:34:16Z</time>
      </trkpt>
      <trkpt lat="40.531333" lon="-4.922217">
        <ele>1362.0</ele>
        <time>2018-07-29T13:34:17Z</time>
      </trkpt>
      <trkpt lat="40.531400" lon="-4.922117">
        <ele>1365.0</ele>
        <time>2018-07-29T13:34:18Z</time>
      </trkpt>
      <trkpt lat="40.531483" lon="-4.921967">
        <ele>1366.0</ele>
        <time>2018-07-29T13:34:19Z</time>
      </trkpt>
      <trkpt lat="40.531533" lon="-4.921800">
        <ele>1367.0</ele>
        <time>2018-07-29T13:34:20Z</time>
      </trkpt>
      <trkpt lat="40.531567" lon="-4.921617">
        <ele>1368.0</ele>
        <time>2018-07-29T13:34:21Z</time>
      </trkpt>
      <trkpt lat="40.531550" lon="-4.921433">
        <ele>1370.0</ele>
        <time>2018-07-29T13:34:22Z</time>
      </trkpt>
      <trkpt lat="40.531500" lon="-4.921267">
        <ele>1371.0</ele>
        <time>2018-07-29T13:34:23Z</time>
      </trkpt>
      <trkpt lat="40.531450" lon="-4.921117">
        <ele>1372.0</ele>
        <time>2018-07-29T13:34:24Z</time>
      </trkpt>
      <trkpt lat="40.531367" lon="-4.920983">
        <ele>1374.0</ele>
        <time>2018-07-29T13:34:25Z</time>
      </trkpt>
      <trkpt lat="40.531283" lon="-4.920883">
        <ele>1375.0</ele>
        <time>2018-07-29T13:34:26Z</time>
      </trkpt>
      <trkpt lat="40.531183" lon="-4.920817">
        <ele>1376.0</ele>
        <time>2018-07-29T13:34:27Z</time>
      </trkpt>
      <trkpt lat="40.531083" lon="-4.920767">
        <ele>1376.0</ele>
        <time>2018-07-29T13:34:28Z</time>
      </trkpt>
      <trkpt lat="40.530983" lon="-4.920750">
        <ele>1377.0</ele>
        <time>2018-07-29T13:34:29Z</time>
      </trkpt>
      <trkpt lat="40.530883" lon="-4.920750">
        <ele>1378.0</ele>
        <time>2018-07-29T13:34:30Z</time>
      </trkpt>
      <trkpt lat="40.530783" lon="-4.920750">
        <ele>1380.0</ele>
        <time>2018-07-29T13:34:31Z</time>
      </trkpt>
      <trkpt lat="40.530700" lon="-4.920750">
        <ele>1382.0</ele>
        <time>2018-07-29T13:34:32Z</time>
      </trkpt>
      <trkpt lat="40.530633" lon="-4.920783">
        <ele>1385.0</ele>
        <time>2018-07-29T13:34:33Z</time>
      </trkpt>
      <trkpt lat="40.530583" lon="-4.920833">
        <ele>1387.0</ele>
        <time>2018-07-29T13:34:34Z</time>
      </trkpt>
      <trkpt lat="40.530583" lon="-4.920883">
        <ele>1389.0</ele>
        <time>2018-07-29T13:34:35Z</time>
      </trkpt>
      <trkpt lat="40.530583" lon="-4.920950">
        <ele>1391.0</ele>
        <time>2018-07-29T13:34:36Z</time>
      </trkpt>
      <trkpt lat="40.530617" lon="-4.921033">
        <ele>1392.0</ele>
        <time>2018-07-29T13:34:37Z</time>
      </trkpt>
      <trkpt lat="40.530667" lon="-4.921083">
        <ele>1393.0</ele>
        <time>2018-07-29T13:34:38Z</time>
      </trkpt>
      <trkpt lat="40.530750" lon="-4.921100">
        <ele>1393.0</ele>
        <time>2018-07-29T13:34:39Z</time>
      </trkpt>
      <trkpt lat="40.530833" lon="-4.921033">
        <ele>1393.0</ele>
        <time>2018-07-29T13:34:40Z</time>
      </trkpt>
      <trkpt lat="40.530917" lon="-4.920933">
        <ele>1394.0</ele>
        <time>2018-07-29T13:34:41Z</time>
      </trkpt>
      <trkpt lat="40.530983" lon="-4.920783">
        <ele>1394.0</ele>
        <time>2018-07-29T13:34:42Z</time>
      </trkpt>
      <trkpt lat="40.531050" lon="-4.920617">
        <ele>1393.0</ele>
        <time>2018-07-29T13:34:43Z</time>
      </trkpt>
      <trkpt lat="40.531100" lon="-4.920417">
        <ele>1392.0</ele>
        <time>2018-07-29T13:34:44Z</time>
      </trkpt>
      <trkpt lat="40.531100" lon="-4.920200">
        <ele>1391.0</ele>
        <time>2018-07-29T13:34:45Z</time>
      </trkpt>
      <trkpt lat="40.531067" lon="-4.920000">
        <ele>1391.0</ele>
        <time>2018-07-29T13:34:46Z</time>
      </trkpt>
      <trkpt lat="40.530983" lon="-4.919817">
        <ele>1391.0</ele>
        <time>2018-07-29T13:34:47Z</time>
      </trkpt>
      <trkpt lat="40.530883" lon="-4.919683">
        <ele>1392.0</ele>
        <time>2018-07-29T13:34:48Z</time>
      </trkpt>
      <trkpt lat="40.530767" lon="-4.919583">
        <ele>1394.0</ele>
        <time>2018-07-29T13:34:49Z</time>
      </trkpt>
      <trkpt lat="40.530650" lon="-4.919500">
        <ele>1396.0</ele>
        <time>2018-07-29T13:34:50Z</time>
      </trkpt>
      <trkpt lat="40.530550" lon="-4.919450">
        <ele>1400.0</ele>
        <time>2018-07-29T13:34:51Z</time>
      </trkpt>
      <trkpt lat="40.530450" lon="-4.919433">
        <ele>1403.0</ele>
        <time>2018-07-29T13:34:52Z</time>
      </trkpt>
      <trkpt lat="40.530367" lon="-4.919417">
        <ele>1405.0</ele>
        <time>2018-07-29T13:34:53Z</time>
      </trkpt>
      <trkpt lat="40.530283" lon="-4.919400">
        <ele>1408.0</ele>
        <time>2018-07-29T13:34:54Z</time>
      </trkpt>
      <trkpt lat="40.530217" lon="-4.919383">
        <ele>1410.0</ele>
        <time>2018-07-29T13:34:55Z</time>
      </trkpt>
      <trkpt lat="40.530150" lon="-4.919367">
        <ele>1413.0</ele>
        <time>2018-07-29T13:34:56Z</time>
      </trkpt>
      <trkpt lat="40.530067" lon="-4.919333">
        <ele>1414.0</ele>
        <time>2018-07-29T13:34:57Z</time>
      </trkpt>
      <trkpt lat="40.529983" lon="-4.919300">
        <ele>1416.0</ele>
        <time>2018-07-29T13:34:58Z</time>
      </trkpt>
      <trkpt lat="40.529900" lon="-4.919250">
        <ele>1417.0</ele>
        <time>2018-07-29T13:34:59Z</time>
      </trkpt>
      <trkpt lat="40.529817" lon="-4.919217">
        <ele>1419.0</ele>
        <time>2018-07-29T13:35:00Z</time>
      </trkpt>
      <trkpt lat="40.529750" lon="-4.919183">
        <ele>1420.0</ele>
        <time>2018-07-29T13:35:01Z</time>
      </trkpt>
      <trkpt lat="40.529700" lon="-4.919183">
        <ele>1420.0</ele>
        <time>2018-07-29T13:35:02Z</time>
      </trkpt>
      <trkpt lat="40.529633" lon="-4.919200">
        <ele>1419.0</ele>
        <time>2018-07-29T13:35:03Z</time>
      </trkpt>
      <trkpt lat="40.529583" lon="-4.919233">
        <ele>1419.0</ele>
        <time>2018-07-29T13:35:04Z</time>
      </trkpt>
      <trkpt lat="40.529550" lon="-4.919283">
        <ele>1421.0</ele>
        <time>2018-07-29T13:35:05Z</time>
      </trkpt>
      <trkpt lat="40.529550" lon="-4.919333">
        <ele>1422.0</ele>
        <time>2018-07-29T13:35:06Z</time>
      </trkpt>
      <trkpt lat="40.529567" lon="-4.919383">
        <ele>1423.0</ele>
        <time>2018-07-29T13:35:07Z</time>
      </trkpt>
      <trkpt lat="40.529617" lon="-4.919400">
        <ele>1425.0</ele>
        <time>2018-07-29T13:35:08Z</time>
      </trkpt>
      <trkpt lat="40.529667" lon="-4.919400">
        <ele>1426.0</ele>
        <time>2018-07-29T13:35:09Z</time>
      </trkpt>
      <trkpt lat="40.529750" lon="-4.919367">
        <ele>1426.0</ele>
        <time>2018-07-29T13:35:10Z</time>
      </trkpt>
      <trkpt lat="40.529850" lon="-4.919300">
        <ele>1425.0</ele>
        <time>2018-07-29T13:35:11Z</time>
      </trkpt>
      <trkpt lat="40.529950" lon="-4.919217">
        <ele>1424.0</ele>
        <time>2018-07-29T13:35:12Z</time>
      </trkpt>
      <trkpt lat="40.530033" lon="-4.919083">
        <ele>1423.0</ele>
        <time>2018-07-29T13:35:13Z</time>
      </trkpt>
      <trkpt lat="40.530083" lon="-4.918917">
        <ele>1425.0</ele>
        <time>2018-07-29T13:35:14Z</time>
      </trkpt>
      <trkpt lat="40.530083" lon="-4.918717">
        <ele>1426.0</ele>
        <time>2018-07-29T13:35:15Z</time>
      </trkpt>
      <trkpt lat="40.530067" lon="-4.918533">
        <ele>1427.0</ele>
        <time>2018-07-29T13:35:16Z</time>
      </trkpt>
      <trkpt lat="40.530017" lon="-4.918367">
        <ele>1429.0</ele>
        <time>2018-07-29T13:35:17Z</time>
      </trkpt>
      <trkpt lat="40.529950" lon="-4.918200">
        <ele>1431.0</ele>
        <time>2018-07-29T13:35:18Z</time>
      </trkpt>
      <trkpt lat="40.529867" lon="-4.918083">
        <ele>1432.0</ele>
        <time>2018-07-29T13:35:19Z</time>
      </trkpt>
      <trkpt lat="40.529767" lon="-4.917983">
        <ele>1434.0</ele>
        <time>2018-07-29T13:35:20Z</time>
      </trkpt>
      <trkpt lat="40.529683" lon="-4.917917">
        <ele>1436.0</ele>
        <time>2018-07-29T13:35:21Z</time>
      </trkpt>
      <trkpt lat="40.529583" lon="-4.917883">
        <ele>1438.0</ele>
        <time>2018-07-29T13:35:22Z</time>
      </trkpt>
      <trkpt lat="40.529500" lon="-4.917883">
        <ele>1440.0</ele>
        <time>2018-07-29T13:35:23Z</time>
      </trkpt>
      <trkpt lat="40.529433" lon="-4.917883">
        <ele>1443.0</ele>
        <time>2018-07-29T13:35:24Z</time>
      </trkpt>
      <trkpt lat="40.529383" lon="-4.917883">
        <ele>1445.0</ele>
        <time>2018-07-29T13:35:25Z</time>
      </trkpt>
      <trkpt lat="40.529367" lon="-4.917883">
        <ele>1446.0</ele>
        <time>2018-07-29T13:35:26Z</time>
      </trkpt>
      <trkpt lat="40.529350" lon="-4.917883">
        <ele>1446.0</ele>
        <time>2018-07-29T13:35:27Z</time>
      </trkpt>
      <trkpt lat="40.529333" lon="-4.917900">
        <ele>1443.0</ele>
        <time>2018-07-29T13:35:28Z</time>
      </trkpt>
      <trkpt lat="40.529333" lon="-4.917917">
        <ele>1441.0</ele>
        <time>2018-07-29T13:35:29Z</time>
      </trkpt>
      <trkpt lat="40.529333" lon="-4.917933">
        <ele>1440.0</ele>
        <time>2018-07-29T13:35:30Z</time>
      </trkpt>
      <trkpt lat="40.529350" lon="-4.917967">
        <ele>1438.0</ele>
        <time>2018-07-29T13:35:31Z</time>
      </trkpt>
      <trkpt lat="40.529333" lon="-4.918000">
        <ele>1436.0</ele>
        <time>2018-07-29T13:35:32Z</time>
      </trkpt>
      <trkpt lat="40.529300" lon="-4.918033">
        <ele>1434.0</ele>
        <time>2018-07-29T13:35:33Z</time>
      </trkpt>
      <trkpt lat="40.529250" lon="-4.918067">
        <ele>1431.0</ele>
        <time>2018-07-29T13:35:34Z</time>
      </trkpt>
      <trkpt lat="40.529217" lon="-4.918100">
        <ele>1430.0</ele>
        <time>2018-07-29T13:35:35Z</time>
      </trkpt>
      <trkpt lat="40.529167" lon="-4.918133">
        <ele>1427.0</ele>
        <time>2018-07-29T13:35:36Z</time>
      </trkpt>
      <trkpt lat="40.529133" lon="-4.918167">
        <ele>1426.0</ele>
        <time>2018-07-29T13:35:37Z</time>
      </trkpt>
      <trkpt lat="40.529100" lon="-4.918217">
        <ele>1426.0</ele>
        <time>2018-07-29T13:35:38Z</time>
      </trkpt>
      <trkpt lat="40.529050" lon="-4.918250">
        <ele>1425.0</ele>
        <time>2018-07-29T13:35:39Z</time>
      </trkpt>
      <trkpt lat="40.529017" lon="-4.918317">
        <ele>1426.0</ele>
        <time>2018-07-29T13:35:40Z</time>
      </trkpt>
      <trkpt lat="40.529000" lon="-4.918367">
        <ele>1426.0</ele>
        <time>2018-07-29T13:35:41Z</time>
      </trkpt>
      <trkpt lat="40.528983" lon="-4.918417">
        <ele>1427.0</ele>
        <time>2018-07-29T13:35:42Z</time>
      </trkpt>
      <trkpt lat="40.528967" lon="-4.918467">
        <ele>1429.0</ele>
        <time>2018-07-29T13:35:43Z</time>
      </trkpt>
      <trkpt lat="40.528950" lon="-4.918517">
        <ele>1431.0</ele>
        <time>2018-07-29T13:35:44Z</time>
      </trkpt>
      <trkpt lat="40.528900" lon="-4.918533">
        <ele>1433.0</ele>
        <time>2018-07-29T13:35:45Z</time>
      </trkpt>
      <trkpt lat="40.528850" lon="-4.918550">
        <ele>1435.0</ele>
        <time>2018-07-29T13:35:46Z</time>
      </trkpt>
      <trkpt lat="40.528767" lon="-4.918533">
        <ele>1436.0</ele>
        <time>2018-07-29T13:35:47Z</time>
      </trkpt>
      <trkpt lat="40.528683" lon="-4.918533">
        <ele>1437.0</ele>
        <time>2018-07-29T13:35:48Z</time>
      </trkpt>
      <trkpt lat="40.528600" lon="-4.918533">
        <ele>1438.0</ele>
        <time>2018-07-29T13:35:49Z</time>
      </trkpt>
      <trkpt lat="40.528517" lon="-4.918550">
        <ele>1440.0</ele>
        <time>2018-07-29T13:35:50Z</time>
      </trkpt>
      <trkpt lat="40.528433" lon="-4.918533">
        <ele>1441.0</ele>
        <time>2018-07-29T13:35:51Z</time>
      </trkpt>
      <trkpt lat="40.528350" lon="-4.918500">
        <ele>1442.0</ele>
        <time>2018-07-29T13:35:52Z</time>
      </trkpt>
      <trkpt lat="40.528267" lon="-4.918467">
        <ele>1442.0</ele>
        <time>2018-07-29T13:35:53Z</time>
      </trkpt>
      <trkpt lat="40.528200" lon="-4.918433">
        <ele>1443.0</ele>
        <time>2018-07-29T13:35:54Z</time>
      </trkpt>
      <trkpt lat="40.528150" lon="-4.918433">
        <ele>1443.0</ele>
        <time>2018-07-29T13:35:55Z</time>
      </trkpt>
      <trkpt lat="40.528100" lon="-4.918450">
        <ele>1441.0</ele>
        <time>2018-07-29T13:35:56Z</time>
      </trkpt>
      <trkpt lat="40.528067" lon="-4.918450">
        <ele>1440.0</ele>
        <time>2018-07-29T13:35:57Z</time>
      </trkpt>
      <trkpt lat="40.528017" lon="-4.918483">
        <ele>1440.0</ele>
        <time>2018-07-29T13:35:58Z</time>
      </trkpt>
      <trkpt lat="40.528000" lon="-4.918517">
        <ele>1440.0</ele>
        <time>2018-07-29T13:35:59Z</time>
      </trkpt>
      <trkpt lat="40.528000" lon="-4.918567">
        <ele>1439.0</ele>
        <time>2018-07-29T13:36:00Z</time>
      </trkpt>
      <trkpt lat="40.528033" lon="-4.918617">
        <ele>1439.0</ele>
        <time>2018-07-29T13:36:01Z</time>
      </trkpt>
      <trkpt lat="40.528083" lon="-4.918617">
        <ele>1437.0</ele>
        <time>2018-07-29T13:36:02Z</time>
      </trkpt>
      <trkpt lat="40.528183" lon="-4.918583">
        <ele>1436.0</ele>
        <time>2018-07-29T13:36:03Z</time>
      </trkpt>
      <trkpt lat="40.528283" lon="-4.918517">
        <ele>1436.0</ele>
        <time>2018-07-29T13:36:04Z</time>
      </trkpt>
      <trkpt lat="40.528367" lon="-4.918417">
        <ele>1438.0</ele>
        <time>2018-07-29T13:36:05Z</time>
      </trkpt>
      <trkpt lat="40.528450" lon="-4.918333">
        <ele>1440.0</ele>
        <time>2018-07-29T13:36:06Z</time>
      </trkpt>
      <trkpt lat="40.528533" lon="-4.918267">
        <ele>1441.0</ele>
        <time>2018-07-29T13:36:07Z</time>
      </trkpt>
      <trkpt lat="40.528600" lon="-4.918233">
        <ele>1442.0</ele>
        <time>2018-07-29T13:36:08Z</time>
      </trkpt>
      <trkpt lat="40.528667" lon="-4.918250">
        <ele>1441.0</ele>
        <time>2018-07-29T13:36:09Z</time>
      </trkpt>
      <trkpt lat="40.528717" lon="-4.918283">
        <ele>1442.0</ele>
        <time>2018-07-29T13:36:10Z</time>
      </trkpt>
      <trkpt lat="40.528750" lon="-4.918317">
        <ele>1444.0</ele>
        <time>2018-07-29T13:36:11Z</time>
      </trkpt>
      <trkpt lat="40.528783" lon="-4.918333">
        <ele>1447.0</ele>
        <time>2018-07-29T13:36:12Z</time>
      </trkpt>
      <trkpt lat="40.528800" lon="-4.918333">
        <ele>1450.0</ele>
        <time>2018-07-29T13:36:13Z</time>
      </trkpt>
      <trkpt lat="40.528800" lon="-4.918333">
        <ele>1451.0</ele>
        <time>2018-07-29T13:36:14Z</time>
      </trkpt>
      <trkpt lat="40.528817" lon="-4.918333">
        <ele>1451.0</ele>
        <time>2018-07-29T13:36:15Z</time>
      </trkpt>
      <trkpt lat="40.528817" lon="-4.918350">
        <ele>1451.0</ele>
        <time>2018-07-29T13:36:16Z</time>
      </trkpt>
      <trkpt lat="40.528833" lon="-4.918367">
        <ele>1450.0</ele>
        <time>2018-07-29T13:36:17Z</time>
      </trkpt>
      <trkpt lat="40.528850" lon="-4.918400">
        <ele>1451.0</ele>
        <time>2018-07-29T13:36:18Z</time>
      </trkpt>
      <trkpt lat="40.528867" lon="-4.918417">
        <ele>1451.0</ele>
        <time>2018-07-29T13:36:19Z</time>
      </trkpt>
      <trkpt lat="40.528883" lon="-4.918433">
        <ele>1453.0</ele>
        <time>2018-07-29T13:36:20Z</time>
      </trkpt>
      <trkpt lat="40.528900" lon="-4.918450">
        <ele>1454.0</ele>
        <time>2018-07-29T13:36:21Z</time>
      </trkpt>
      <trkpt lat="40.528900" lon="-4.918483">
        <ele>1455.0</ele>
        <time>2018-07-29T13:36:22Z</time>
      </trkpt>
      <trkpt lat="40.528917" lon="-4.918500">
        <ele>1455.0</ele>
        <time>2018-07-29T13:36:23Z</time>
      </trkpt>
      <trkpt lat="40.528933" lon="-4.918533">
        <ele>1455.0</ele>
        <time>2018-07-29T13:36:24Z</time>
      </trkpt>
      <trkpt lat="40.528950" lon="-4.918583">
        <ele>1456.0</ele>
        <time>2018-07-29T13:36:25Z</time>
      </trkpt>
      <trkpt lat="40.528967" lon="-4.918617">
        <ele>1457.0</ele>
        <time>2018-07-29T13:36:26Z</time>
      </trkpt>
      <trkpt lat="40.529000" lon="-4.918633">
        <ele>1460.0</ele>
        <time>2018-07-29T13:36:27Z</time>
      </trkpt>
      <trkpt lat="40.529017" lon="-4.918667">
        <ele>1462.0</ele>
        <time>2018-07-29T13:36:28Z</time>
      </trkpt>
      <trkpt lat="40.529017" lon="-4.918700">
        <ele>1464.0</ele>
        <time>2018-07-29T13:36:29Z</time>
      </trkpt>
      <trkpt lat="40.529017" lon="-4.918733">
        <ele>1466.0</ele>
        <time>2018-07-29T13:36:30Z</time>
      </trkpt>
      <trkpt lat="40.529033" lon="-4.918783">
        <ele>1467.0</ele>
        <time>2018-07-29T13:36:31Z</time>
      </trkpt>
      <trkpt lat="40.529067" lon="-4.918800">
        <ele>1469.0</ele>
        <time>2018-07-29T13:36:32Z</time>
      </trkpt>
      <trkpt lat="40.529100" lon="-4.918800">
        <ele>1470.0</ele>
        <time>2018-07-29T13:36:33Z</time>
      </trkpt>
      <trkpt lat="40.529167" lon="-4.918783">
        <ele>1471.0</ele>
        <time>2018-07-29T13:36:34Z</time>
      </trkpt>
      <trkpt lat="40.529233" lon="-4.918733">
        <ele>1472.0</ele>
        <time>2018-07-29T13:36:35Z</time>
      </trkpt>
      <trkpt lat="40.529317" lon="-4.918650">
        <ele>1474.0</ele>
        <time>2018-07-29T13:36:36Z</time>
      </trkpt>
      <trkpt lat="40.529367" lon="-4.918550">
        <ele>1475.0</ele>
        <time>2018-07-29T13:36:37Z</time>
      </trkpt>
      <trkpt lat="40.529433" lon="-4.918433">
        <ele>1476.0</ele>
        <time>2018-07-29T13:36:38Z</time>
      </trkpt>
      <trkpt lat="40.529483" lon="-4.918350">
        <ele>1476.0</ele>
        <time>2018-07-29T13:36:39Z</time>
      </trkpt>
      <trkpt lat="40.529567" lon="-4.918300">
        <ele>1476.0</ele>
        <time>2018-07-29T13:36:40Z</time>
      </trkpt>
      <trkpt lat="40.529633" lon="-4.918283">
        <ele>1475.0</ele>
        <time>2018-07-29T13:36:41Z</time>
      </trkpt>
      <trkpt lat="40.529700" lon="-4.918283">
        <ele>1475.0</ele>
        <time>2018-07-29T13:36:42Z</time>
      </trkpt>
      <trkpt lat="40.529750" lon="-4.918300">
        <ele>1476.0</ele>
        <time>2018-07-29T13:36:43Z</time>
      </trkpt>
      <trkpt lat="40.529767" lon="-4.918333">
        <ele>1478.0</ele>
        <time>2018-07-29T13:36:44Z</time>
      </trkpt>
      <trkpt lat="40.529767" lon="-4.918367">
        <ele>1478.0</ele>
        <time>2018-07-29T13:36:45Z</time>
      </trkpt>
      <trkpt lat="40.529733" lon="-4.918383">
        <ele>1478.0</ele>
        <time>2018-07-29T13:36:46Z</time>
      </trkpt>
      <trkpt lat="40.529700" lon="-4.918400">
        <ele>1478.0</ele>
        <time>2018-07-29T13:36:47Z</time>
      </trkpt>
      <trkpt lat="40.529633" lon="-4.918400">
        <ele>1477.0</ele>
        <time>2018-07-29T13:36:48Z</time>
      </trkpt>
      <trkpt lat="40.529567" lon="-4.918383">
        <ele>1477.0</ele>
        <time>2018-07-29T13:36:49Z</time>
      </trkpt>
      <trkpt lat="40.529483" lon="-4.918350">
        <ele>1476.0</ele>
        <time>2018-07-29T13:36:50Z</time>
      </trkpt>
      <trkpt lat="40.529400" lon="-4.918300">
        <ele>1476.0</ele>
        <time>2018-07-29T13:36:51Z</time>
      </trkpt>
      <trkpt lat="40.529300" lon="-4.918250">
        <ele>1476.0</ele>
        <time>2018-07-29T13:36:52Z</time>
      </trkpt>
      <trkpt lat="40.529217" lon="-4.918217">
        <ele>1476.0</ele>
        <time>2018-07-29T13:36:53Z</time>
      </trkpt>
      <trkpt lat="40.529133" lon="-4.918183">
        <ele>1476.0</ele>
        <time>2018-07-29T13:36:54Z</time>
      </trkpt>
      <trkpt lat="40.529050" lon="-4.918183">
        <ele>1476.0</ele>
        <time>2018-07-29T13:36:55Z</time>
      </trkpt>
      <trkpt lat="40.528983" lon="-4.918183">
        <ele>1477.0</ele>
        <time>2018-07-29T13:36:56Z</time>
      </trkpt>
      <trkpt lat="40.528917" lon="-4.918183">
        <ele>1477.0</ele>
        <time>2018-07-29T13:36:57Z</time>
      </trkpt>
      <trkpt lat="40.528867" lon="-4.918183">
        <ele>1478.0</ele>
        <time>2018-07-29T13:36:58Z</time>
      </trkpt>
      <trkpt lat="40.528833" lon="-4.918200">
        <ele>1476.0</ele>
        <time>2018-07-29T13:36:59Z</time>
      </trkpt>
      <trkpt lat="40.528817" lon="-4.918233">
        <ele>1475.0</ele>
        <time>2018-07-29T13:37:00Z</time>
      </trkpt>
      <trkpt lat="40.528800" lon="-4.918283">
        <ele>1474.0</ele>
        <time>2018-07-29T13:37:01Z</time>
      </trkpt>
      <trkpt lat="40.528800" lon="-4.918333">
        <ele>1474.0</ele>
        <time>2018-07-29T13:37:02Z</time>
      </trkpt>
      <trkpt lat="40.528817" lon="-4.918383">
        <ele>1474.0</ele>
        <time>2018-07-29T13:37:03Z</time>
      </trkpt>
      <trkpt lat="40.528833" lon="-4.918417">
        <ele>1475.0</ele>
        <time>2018-07-29T13:37:04Z</time>
      </trkpt>
      <trkpt lat="40.528867" lon="-4.918467">
        <ele>1475.0</ele>
        <time>2018-07-29T13:37:05Z</time>
      </trkpt>
      <trkpt lat="40.528883" lon="-4.918500">
        <ele>1474.0</ele>
        <time>2018-07-29T13:37:06Z</time>
      </trkpt>
      <trkpt lat="40.528900" lon="-4.918550">
        <ele>1472.0</ele>
        <time>2018-07-29T13:37:07Z</time>
      </trkpt>
      <trkpt lat="40.528900" lon="-4.918583">
        <ele>1472.0</ele>
        <time>2018-07-29T13:37:08Z</time>
      </trkpt>
      <trkpt lat="40.528900" lon="-4.918633">
        <ele>1472.0</ele>
        <time>2018-07-29T13:37:09Z</time>
      </trkpt>
      <trkpt lat="40.528867" lon="-4.918667">
        <ele>1474.0</ele>
        <time>2018-07-29T13:37:10Z</time>
      </trkpt>
      <trkpt lat="40.528800" lon="-4.918700">
        <ele>1475.0</ele>
        <time>2018-07-29T13:37:11Z</time>
      </trkpt>
      <trkpt lat="40.528733" lon="-4.918717">
        <ele>1475.0</ele>
        <time>2018-07-29T13:37:12Z</time>
      </trkpt>
      <trkpt lat="40.528667" lon="-4.918717">
        <ele>1476.0</ele>
        <time>2018-07-29T13:37:13Z</time>
      </trkpt>
      <trkpt lat="40.528583" lon="-4.918717">
        <ele>1476.0</ele>
        <time>2018-07-29T13:37:14Z</time>
      </trkpt>
      <trkpt lat="40.528500" lon="-4.918750">
        <ele>1477.0</ele>
        <time>2018-07-29T13:37:15Z</time>
      </trkpt>
      <trkpt lat="40.528433" lon="-4.918783">
        <ele>1478.0</ele>
        <time>2018-07-29T13:37:16Z</time>
      </trkpt>
      <trkpt lat="40.528367" lon="-4.918817">
        <ele>1479.0</ele>
        <time>2018-07-29T13:37:17Z</time>
      </trkpt>
      <trkpt lat="40.528300" lon="-4.918867">
        <ele>1480.0</ele>
        <time>2018-07-29T13:37:18Z</time>
      </trkpt>
      <trkpt lat="40.528267" lon="-4.918900">
        <ele>1481.0</ele>
        <time>2018-07-29T13:37:19Z</time>
      </trkpt>
      <trkpt lat="40.528250" lon="-4.918933">
        <ele>1482.0</ele>
        <time>2018-07-29T13:37:20Z</time>
      </trkpt>
      <trkpt lat="40.528267" lon="-4.918967">
        <ele>1483.0</ele>
        <time>2018-07-29T13:37:21Z</time>
      </trkpt>
      <trkpt lat="40.528317" lon="-4.918983">
        <ele>1483.0</ele>
        <time>2018-07-29T13:37:22Z</time>
      </trkpt>
      <trkpt lat="40.528383" lon="-4.918967">
        <ele>1484.0</ele>
        <time>2018-07-29T13:37:23Z</time>
      </trkpt>
      <trkpt lat="40.528467" lon="-4.918917">
        <ele>1486.0</ele>
        <time>2018-07-29T13:37:24Z</time>
      </trkpt>
      <trkpt lat="40.528533" lon="-4.918833">
        <ele>1488.0</ele>
        <time>2018-07-29T13:37:25Z</time>
      </trkpt>
      <trkpt lat="40.528600" lon="-4.918717">
        <ele>1490.0</ele>
        <time>2018-07-29T13:37:26Z</time>
      </trkpt>
      <trkpt lat="40.528633" lon="-4.918583">
        <ele>1491.0</ele>
        <time>2018-07-29T13:37:27Z</time>
      </trkpt>
      <trkpt lat="40.528667" lon="-4.918400">
        <ele>1491.0</ele>
        <time>2018-07-29T13:37:28Z</time>
      </trkpt>
      <trkpt lat="40.528667" lon="-4.918200">
        <ele>1490.0</ele>
        <time>2018-07-29T13:37:29Z</time>
      </trkpt>
      <trkpt lat="40.528617" lon="-4.917983">
        <ele>1490.0</ele>
        <time>2018-07-29T13:37:30Z</time>
      </trkpt>
      <trkpt lat="40.528550" lon="-4.917783">
        <ele>1491.0</ele>
        <time>2018-07-29T13:37:31Z</time>
      </trkpt>
      <trkpt lat="40.528450" lon="-4.917633">
        <ele>1495.0</ele>
        <time>2018-07-29T13:37:32Z</time>
      </trkpt>
      <trkpt lat="40.528350" lon="-4.917533">
        <ele>1498.0</ele>
        <time>2018-07-29T13:37:33Z</time>
      </trkpt>
      <trkpt lat="40.528250" lon="-4.917500">
        <ele>1500.0</ele>
        <time>2018-07-29T13:37:34Z</time>
      </trkpt>
      <trkpt lat="40.528150" lon="-4.917483">
        <ele>1502.0</ele>
        <time>2018-07-29T13:37:35Z</time>
      </trkpt>
      <trkpt lat="40.528083" lon="-4.917467">
        <ele>1503.0</ele>
        <time>2018-07-29T13:37:36Z</time>
      </trkpt>
      <trkpt lat="40.528017" lon="-4.917467">
        <ele>1503.0</ele>
        <time>2018-07-29T13:37:37Z</time>
      </trkpt>
      <trkpt lat="40.527983" lon="-4.917500">
        <ele>1502.0</ele>
        <time>2018-07-29T13:37:38Z</time>
      </trkpt>
      <trkpt lat="40.527950" lon="-4.917550">
        <ele>1500.0</ele>
        <time>2018-07-29T13:37:39Z</time>
      </trkpt>
      <trkpt lat="40.527967" lon="-4.917600">
        <ele>1499.0</ele>
        <time>2018-07-29T13:37:40Z</time>
      </trkpt>
      <trkpt lat="40.528017" lon="-4.917633">
        <ele>1499.0</ele>
        <time>2018-07-29T13:37:41Z</time>
      </trkpt>
      <trkpt lat="40.528083" lon="-4.917650">
        <ele>1499.0</ele>
        <time>2018-07-29T13:37:42Z</time>
      </trkpt>
      <trkpt lat="40.528167" lon="-4.917617">
        <ele>1500.0</ele>
        <time>2018-07-29T13:37:43Z</time>
      </trkpt>
      <trkpt lat="40.528250" lon="-4.917550">
        <ele>1502.0</ele>
        <time>2018-07-29T13:37:44Z</time>
      </trkpt>
      <trkpt lat="40.528333" lon="-4.917450">
        <ele>1505.0</ele>
        <time>2018-07-29T13:37:45Z</time>
      </trkpt>
      <trkpt lat="40.528383" lon="-4.917333">
        <ele>1507.0</ele>
        <time>2018-07-29T13:37:46Z</time>
      </trkpt>
      <trkpt lat="40.528433" lon="-4.917200">
        <ele>1508.0</ele>
        <time>2018-07-29T13:37:47Z</time>
      </trkpt>
      <trkpt lat="40.528467" lon="-4.917050">
        <ele>1507.0</ele>
        <time>2018-07-29T13:37:48Z</time>
      </trkpt>
      <trkpt lat="40.528500" lon="-4.916883">
        <ele>1505.0</ele>
        <time>2018-07-29T13:37:49Z</time>
      </trkpt>
      <trkpt lat="40.528533" lon="-4.916717">
        <ele>1503.0</ele>
        <time>2018-07-29T13:37:50Z</time>
      </trkpt>
      <trkpt lat="40.528600" lon="-4.916567">
        <ele>1501.0</ele>
        <time>2018-07-29T13:37:51Z</time>
      </trkpt>
      <trkpt lat="40.528683" lon="-4.916450">
        <ele>1498.0</ele>
        <time>2018-07-29T13:37:52Z</time>
      </trkpt>
      <trkpt lat="40.528767" lon="-4.916383">
        <ele>1497.0</ele>
        <time>2018-07-29T13:37:53Z</time>
      </trkpt>
      <trkpt lat="40.528850" lon="-4.916367">
        <ele>1496.0</ele>
        <time>2018-07-29T13:37:54Z</time>
      </trkpt>
      <trkpt lat="40.528900" lon="-4.916400">
        <ele>1496.0</ele>
        <time>2018-07-29T13:37:55Z</time>
      </trkpt>
      <trkpt lat="40.528917" lon="-4.916433">
        <ele>1497.0</ele>
        <time>2018-07-29T13:37:56Z</time>
      </trkpt>
      <trkpt lat="40.528900" lon="-4.916467">
        <ele>1498.0</ele>
        <time>2018-07-29T13:37:57Z</time>
      </trkpt>
      <trkpt lat="40.528883" lon="-4.916500">
        <ele>1498.0</ele>
        <time>2018-07-29T13:37:58Z</time>
      </trkpt>
      <trkpt lat="40.528850" lon="-4.916533">
        <ele>1499.0</ele>
        <time>2018-07-29T13:37:59Z</time>
      </trkpt>
      <trkpt lat="40.528800" lon="-4.916550">
        <ele>1498.0</ele>
        <time>2018-07-29T13:38:00Z</time>
      </trkpt>
      <trkpt lat="40.528733" lon="-4.916583">
        <ele>1498.0</ele>
        <time>2018-07-29T13:38:01Z</time>
      </trkpt>
      <trkpt lat="40.528683" lon="-4.916583">
        <ele>1498.0</ele>
        <time>2018-07-29T13:38:02Z</time>
      </trkpt>
      <trkpt lat="40.528650" lon="-4.916617">
        <ele>1497.0</ele>
        <time>2018-07-29T13:38:03Z</time>
      </trkpt>
      <trkpt lat="40.528633" lon="-4.916650">
        <ele>1496.0</ele>
        <time>2018-07-29T13:38:04Z</time>
      </trkpt>
      <trkpt lat="40.528650" lon="-4.916683">
        <ele>1493.0</ele>
        <time>2018-07-29T13:38:05Z</time>
      </trkpt>
      <trkpt lat="40.528700" lon="-4.916717">
        <ele>1492.0</ele>
        <time>2018-07-29T13:38:06Z</time>
      </trkpt>
      <trkpt lat="40.528767" lon="-4.916717">
        <ele>1491.0</ele>
        <time>2018-07-29T13:38:07Z</time>
      </trkpt>
      <trkpt lat="40.528833" lon="-4.916717">
        <ele>1492.0</ele>
        <time>2018-07-29T13:38:08Z</time>
      </trkpt>
      <trkpt lat="40.528900" lon="-4.916683">
        <ele>1494.0</ele>
        <time>2018-07-29T13:38:09Z</time>
      </trkpt>
      <trkpt lat="40.528950" lon="-4.916633">
        <ele>1494.0</ele>
        <time>2018-07-29T13:38:10Z</time>
      </trkpt>
      <trkpt lat="40.529017" lon="-4.916583">
        <ele>1493.0</ele>
        <time>2018-07-29T13:38:11Z</time>
      </trkpt>
      <trkpt lat="40.529100" lon="-4.916533">
        <ele>1493.0</ele>
        <time>2018-07-29T13:38:12Z</time>
      </trkpt>
      <trkpt lat="40.529167" lon="-4.916433">
        <ele>1492.0</ele>
        <time>2018-07-29T13:38:13Z</time>
      </trkpt>
      <trkpt lat="40.529250" lon="-4.916283">
        <ele>1492.0</ele>
        <time>2018-07-29T13:38:14Z</time>
      </trkpt>
      <trkpt lat="40.529300" lon="-4.916117">
        <ele>1493.0</ele>
        <time>2018-07-29T13:38:15Z</time>
      </trkpt>
      <trkpt lat="40.529333" lon="-4.915933">
        <ele>1495.0</ele>
        <time>2018-07-29T13:38:16Z</time>
      </trkpt>
      <trkpt lat="40.529350" lon="-4.915767">
        <ele>1497.0</ele>
        <time>2018-07-29T13:38:17Z</time>
      </trkpt>
      <trkpt lat="40.529383" lon="-4.915617">
        <ele>1499.0</ele>
        <time>2018-07-29T13:38:18Z</time>
      </trkpt>
      <trkpt lat="40.529400" lon="-4.915450">
        <ele>1500.0</ele>
        <time>2018-07-29T13:38:19Z</time>
      </trkpt>
      <trkpt lat="40.529433" lon="-4.915267">
        <ele>1501.0</ele>
        <time>2018-07-29T13:38:20Z</time>
      </trkpt>
      <trkpt lat="40.529483" lon="-4.915083">
        <ele>1502.0</ele>
        <time>2018-07-29T13:38:21Z</time>
      </trkpt>
      <trkpt lat="40.529550" lon="-4.914933">
        <ele>1506.0</ele>
        <time>2018-07-29T13:38:22Z</time>
      </trkpt>
      <trkpt lat="40.529633" lon="-4.914817">
        <ele>1509.0</ele>
        <time>2018-07-29T13:38:23Z</time>
      </trkpt>
      <trkpt lat="40.529700" lon="-4.914750">
        <ele>1512.0</ele>
        <time>2018-07-29T13:38:24Z</time>
      </trkpt>
      <trkpt lat="40.529767" lon="-4.914733">
        <ele>1514.0</ele>
        <time>2018-07-29T13:38:25Z</time>
      </trkpt>
      <trkpt lat="40.529833" lon="-4.914733">
        <ele>1516.0</ele>
        <time>2018-07-29T13:38:26Z</time>
      </trkpt>
      <trkpt lat="40.529883" lon="-4.914750">
        <ele>1519.0</ele>
        <time>2018-07-29T13:38:27Z</time>
      </trkpt>
      <trkpt lat="40.529933" lon="-4.914783">
        <ele>1520.0</ele>
        <time>2018-07-29T13:38:28Z</time>
      </trkpt>
      <trkpt lat="40.529950" lon="-4.914850">
        <ele>1521.0</ele>
        <time>2018-07-29T13:38:29Z</time>
      </trkpt>
      <trkpt lat="40.529933" lon="-4.914933">
        <ele>1522.0</ele>
        <time>2018-07-29T13:38:30Z</time>
      </trkpt>
      <trkpt lat="40.529883" lon="-4.915000">
        <ele>1525.0</ele>
        <time>2018-07-29T13:38:31Z</time>
      </trkpt>
      <trkpt lat="40.529783" lon="-4.915033">
        <ele>1528.0</ele>
        <time>2018-07-29T13:38:32Z</time>
      </trkpt>
      <trkpt lat="40.529683" lon="-4.915017">
        <ele>1531.0</ele>
        <time>2018-07-29T13:38:33Z</time>
      </trkpt>
      <trkpt lat="40.529567" lon="-4.914950">
        <ele>1534.0</ele>
        <time>2018-07-29T13:38:34Z</time>
      </trkpt>
      <trkpt lat="40.529483" lon="-4.914833">
        <ele>1535.0</ele>
        <time>2018-07-29T13:38:35Z</time>
      </trkpt>
      <trkpt lat="40.529400" lon="-4.914683">
        <ele>1536.0</ele>
        <time>2018-07-29T13:38:36Z</time>
      </trkpt>
      <trkpt lat="40.529333" lon="-4.914500">
        <ele>1537.0</ele>
        <time>2018-07-29T13:38:37Z</time>
      </trkpt>
      <trkpt lat="40.529333" lon="-4.914283">
        <ele>1538.0</ele>
        <time>2018-07-29T13:38:38Z</time>
      </trkpt>
      <trkpt lat="40.529367" lon="-4.914083">
        <ele>1540.0</ele>
        <time>2018-07-29T13:38:39Z</time>
      </trkpt>
      <trkpt lat="40.529433" lon="-4.913950">
        <ele>1543.0</ele>
        <time>2018-07-29T13:38:40Z</time>
      </trkpt>
      <trkpt lat="40.529533" lon="-4.913883">
        <ele>1545.0</ele>
        <time>2018-07-29T13:38:41Z</time>
      </trkpt>
      <trkpt lat="40.529617" lon="-4.913883">
        <ele>1546.0</ele>
        <time>2018-07-29T13:38:42Z</time>
      </trkpt>
      <trkpt lat="40.529683" lon="-4.913933">
        <ele>1547.0</ele>
        <time>2018-07-29T13:38:43Z</time>
      </trkpt>
      <trkpt lat="40.529717" lon="-4.914000">
        <ele>1550.0</ele>
        <time>2018-07-29T13:38:44Z</time>
      </trkpt>
      <trkpt lat="40.529717" lon="-4.914067">
        <ele>1553.0</ele>
        <time>2018-07-29T13:38:45Z</time>
      </trkpt>
      <trkpt lat="40.529683" lon="-4.914133">
        <ele>1556.0</ele>
        <time>2018-07-29T13:38:46Z</time>
      </trkpt>
      <trkpt lat="40.529600" lon="-4.914167">
        <ele>1559.0</ele>
        <time>2018-07-29T13:38:47Z</time>
      </trkpt>
      <trkpt lat="40.529483" lon="-4.914150">
        <ele>1562.0</ele>
        <time>2018-07-29T13:38:48Z</time>
      </trkpt>
      <trkpt lat="40.529367" lon="-4.914083">
        <ele>1563.0</ele>
        <time>2018-07-29T13:38:49Z</time>
      </trkpt>
      <trkpt lat="40.529267" lon="-4.913933">
        <ele>1563.0</ele>
        <time>2018-07-29T13:38:50Z</time>
      </trkpt>
      <trkpt lat="40.529200" lon="-4.913733">
        <ele>1564.0</ele>
        <time>2018-07-29T13:38:51Z</time>
      </trkpt>
      <trkpt lat="40.529183" lon="-4.913500">
        <ele>1566.0</ele>
        <time>2018-07-29T13:38:52Z</time>
      </trkpt>
      <trkpt lat="40.529200" lon="-4.913300">
        <ele>1569.0</ele>
        <time>2018-07-29T13:38:53Z</time>
      </trkpt>
      <trkpt lat="40.529250" lon="-4.913133">
        <ele>1573.0</ele>
        <time>2018-07-29T13:38:54Z</time>
      </trkpt>
      <trkpt lat="40.529317" lon="-4.913033">
        <ele>1575.0</ele>
        <time>2018-07-29T13:38:55Z</time>
      </trkpt>
      <trkpt lat="40.529400" lon="-4.912983">
        <ele>1577.0</ele>
        <time>2018-07-29T13:38:56Z</time>
      </trkpt>
      <trkpt lat="40.529467" lon="-4.912983">
        <ele>1579.0</ele>
        <time>2018-07-29T13:38:57Z</time>
      </trkpt>
      <trkpt lat="40.529533" lon="-4.913017">
        <ele>1580.0</ele>
        <time>2018-07-29T13:38:58Z</time>
      </trkpt>
      <trkpt lat="40.529567" lon="-4.913067">
        <ele>1583.0</ele>
        <time>2018-07-29T13:38:59Z</time>
      </trkpt>
      <trkpt lat="40.529567" lon="-4.913133">
        <ele>1587.0</ele>
        <time>2018-07-29T13:39:00Z</time>
      </trkpt>
      <trkpt lat="40.529533" lon="-4.913183">
        <ele>1590.0</ele>
        <time>2018-07-29T13:39:01Z</time>
      </trkpt>
      <trkpt lat="40.529483" lon="-4.913217">
        <ele>1594.0</ele>
        <time>2018-07-29T13:39:02Z</time>
      </trkpt>
      <trkpt lat="40.529383" lon="-4.913200">
        <ele>1596.0</ele>
        <time>2018-07-29T13:39:03Z</time>
      </trkpt>
      <trkpt lat="40.529283" lon="-4.913150">
        <ele>1596.0</ele>
        <time>2018-07-29T13:39:04Z</time>
      </trkpt>
      <trkpt lat="40.529167" lon="-4.913033">
        <ele>1595.0</ele>
        <time>2018-07-29T13:39:05Z</time>
      </trkpt>
      <trkpt lat="40.529083" lon="-4.912867">
        <ele>1594.0</ele>
        <time>2018-07-29T13:39:06Z</time>
      </trkpt>
      <trkpt lat="40.529033" lon="-4.912650">
        <ele>1594.0</ele>
        <time>2018-07-29T13:39:07Z</time>
      </trkpt>
      <trkpt lat="40.529050" lon="-4.912417">
        <ele>1594.0</ele>
        <time>2018-07-29T13:39:08Z</time>
      </trkpt>
      <trkpt lat="40.529100" lon="-4.912233">
        <ele>1597.0</ele>
        <time>2018-07-29T13:39:09Z</time>
      </trkpt>
      <trkpt lat="40.529167" lon="-4.912100">
        <ele>1600.0</ele>
        <time>2018-07-29T13:39:10Z</time>
      </trkpt>
      <trkpt lat="40.529233" lon="-4.912017">
        <ele>1603.0</ele>
        <time>2018-07-29T13:39:11Z</time>
      </trkpt>
      <trkpt lat="40.529300" lon="-4.911983">
        <ele>1606.0</ele>
        <time>2018-07-29T13:39:12Z</time>
      </trkpt>
      <trkpt lat="40.529367" lon="-4.911967">
        <ele>1607.0</ele>
        <time>2018-07-29T13:39:13Z</time>
      </trkpt>
      <trkpt lat="40.529433" lon="-4.911967">
        <ele>1608.0</ele>
        <time>2018-07-29T13:39:14Z</time>
      </trkpt>
      <trkpt lat="40.529500" lon="-4.912000">
        <ele>1609.0</ele>
        <time>2018-07-29T13:39:15Z</time>
      </trkpt>
      <trkpt lat="40.529533" lon="-4.912067">
        <ele>1610.0</ele>
        <time>2018-07-29T13:39:16Z</time>
      </trkpt>
      <trkpt lat="40.529550" lon="-4.912133">
        <ele>1615.0</ele>
        <time>2018-07-29T13:39:17Z</time>
      </trkpt>
      <trkpt lat="40.529533" lon="-4.912200">
        <ele>1621.0</ele>
        <time>2018-07-29T13:39:18Z</time>
      </trkpt>
      <trkpt lat="40.529500" lon="-4.912233">
        <ele>1626.0</ele>
        <time>2018-07-29T13:39:19Z</time>
      </trkpt>
      <trkpt lat="40.529450" lon="-4.912233">
        <ele>1628.0</ele>
        <time>2018-07-29T13:39:20Z</time>
      </trkpt>
      <trkpt lat="40.529433" lon="-4.912217">
        <ele>1629.0</ele>
        <time>2018-07-29T13:39:21Z</time>
      </trkpt>
      <trkpt lat="40.529433" lon="-4.912217">
        <ele>1628.0</ele>
        <time>2018-07-29T13:39:22Z</time>
      </trkpt>
      <trkpt lat="40.529433" lon="-4.912233">
        <ele>1627.0</ele>
        <time>2018-07-29T13:39:23Z</time>
      </trkpt>
      <trkpt lat="40.529450" lon="-4.912267">
        <ele>1626.0</ele>
        <time>2018-07-29T13:39:24Z</time>
      </trkpt>
      <trkpt lat="40.529433" lon="-4.912317">
        <ele>1625.0</ele>
        <time>2018-07-29T13:39:25Z</time>
      </trkpt>
      <trkpt lat="40.529400" lon="-4.912350">
        <ele>1626.0</ele>
        <time>2018-07-29T13:39:26Z</time>
      </trkpt>
      <trkpt lat="40.529317" lon="-4.912367">
        <ele>1626.0</ele>
        <time>2018-07-29T13:39:27Z</time>
      </trkpt>
      <trkpt lat="40.529217" lon="-4.912317">
        <ele>1624.0</ele>
        <time>2018-07-29T13:39:28Z</time>
      </trkpt>
      <trkpt lat="40.529100" lon="-4.912233">
        <ele>1623.0</ele>
        <time>2018-07-29T13:39:29Z</time>
      </trkpt>
      <trkpt lat="40.528983" lon="-4.912083">
        <ele>1623.0</ele>
        <time>2018-07-29T13:39:30Z</time>
      </trkpt>
      <trkpt lat="40.528917" lon="-4.911917">
        <ele>1623.0</ele>
        <time>2018-07-29T13:39:31Z</time>
      </trkpt>
      <trkpt lat="40.528850" lon="-4.911717">
        <ele>1624.0</ele>
        <time>2018-07-29T13:39:32Z</time>
      </trkpt>
      <trkpt lat="40.528833" lon="-4.911517">
        <ele>1625.0</ele>
        <time>2018-07-29T13:39:33Z</time>
      </trkpt>
      <trkpt lat="40.528817" lon="-4.911317">
        <ele>1626.0</ele>
        <time>2018-07-29T13:39:34Z</time>
      </trkpt>
      <trkpt lat="40.528817" lon="-4.911117">
        <ele>1627.0</ele>
        <time>2018-07-29T13:39:35Z</time>
      </trkpt>
      <trkpt lat="40.528833" lon="-4.910917">
        <ele>1628.0</ele>
        <time>2018-07-29T13:39:36Z</time>
      </trkpt>
      <trkpt lat="40.528883" lon="-4.910717">
        <ele>1628.0</ele>
        <time>2018-07-29T13:39:37Z</time>
      </trkpt>
      <trkpt lat="40.528950" lon="-4.910550">
        <ele>1628.0</ele>
        <time>2018-07-29T13:39:38Z</time>
      </trkpt>
      <trkpt lat="40.529017" lon="-4.910417">
        <ele>1629.0</ele>
        <time>2018-07-29T13:39:39Z</time>
      </trkpt>
      <trkpt lat="40.529100" lon="-4.910300">
        <ele>1630.0</ele>
        <time>2018-07-29T13:39:40Z</time>
      </trkpt>
      <trkpt lat="40.529183" lon="-4.910217">
        <ele>1632.0</ele>
        <time>2018-07-29T13:39:41Z</time>
      </trkpt>
      <trkpt lat="40.529250" lon="-4.910133">
        <ele>1635.0</ele>
        <time>2018-07-29T13:39:42Z</time>
      </trkpt>
      <trkpt lat="40.529317" lon="-4.910050">
        <ele>1637.0</ele>
        <time>2018-07-29T13:39:43Z</time>
      </trkpt>
      <trkpt lat="40.529383" lon="-4.909967">
        <ele>1639.0</ele>
        <time>2018-07-29T13:39:44Z</time>
      </trkpt>
      <trkpt lat="40.529450" lon="-4.909883">
        <ele>1640.0</ele>
        <time>2018-07-29T13:39:45Z</time>
      </trkpt>
      <trkpt lat="40.529517" lon="-4.909817">
        <ele>1641.0</ele>
        <time>2018-07-29T13:39:46Z</time>
      </trkpt>
      <trkpt lat="40.529583" lon="-4.909733">
        <ele>1641.0</ele>
        <time>2018-07-29T13:39:47Z</time>
      </trkpt>
      <trkpt lat="40.529667" lon="-4.909700">
        <ele>1641.0</ele>
        <time>2018-07-29T13:39:48Z</time>
      </trkpt>
      <trkpt lat="40.529750" lon="-4.909700">
        <ele>1642.0</ele>
        <time>2018-07-29T13:39:49Z</time>
      </trkpt>
      <trkpt lat="40.529800" lon="-4.909733">
        <ele>1645.0</ele>
        <time>2018-07-29T13:39:50Z</time>
      </trkpt>
      <trkpt lat="40.529817" lon="-4.909783">
        <ele>1649.0</ele>
        <time>2018-07-29T13:39:51Z</time>
      </trkpt>
      <trkpt lat="40.529800" lon="-4.909817">
        <ele>1652.0</ele>
        <time>2018-07-29T13:39:52Z</time>
      </trkpt>
      <trkpt lat="40.529783" lon="-4.909850">
        <ele>1654.0</ele>
        <time>2018-07-29T13:39:53Z</time>
      </trkpt>
      <trkpt lat="40.529750" lon="-4.909883">
        <ele>1656.0</ele>
        <time>2018-07-29T13:39:54Z</time>
      </trkpt>
      <trkpt lat="40.529683" lon="-4.909900">
        <ele>1657.0</ele>
        <time>2018-07-29T13:39:55Z</time>
      </trkpt>
      <trkpt lat="40.529600" lon="-4.909900">
        <ele>1657.0</ele>
        <time>2018-07-29T13:39:56Z</time>
      </trkpt>
      <trkpt lat="40.529483" lon="-4.909867">
        <ele>1657.0</ele>
        <time>2018-07-29T13:39:57Z</time>
      </trkpt>
      <trkpt lat="40.529367" lon="-4.909783">
        <ele>1657.0</ele>
        <time>2018-07-29T13:39:58Z</time>
      </trkpt>
      <trkpt lat="40.529250" lon="-4.909683">
        <ele>1659.0</ele>
        <time>2018-07-29T13:39:59Z</time>
      </trkpt>
      <trkpt lat="40.529167" lon="-4.909533">
        <ele>1660.0</ele>
        <time>2018-07-29T13:40:00Z</time>
      </trkpt>
      <trkpt lat="40.529117" lon="-4.909350">
        <ele>1661.0</ele>
        <time>2018-07-29T13:40:01Z</time>
      </trkpt>
      <trkpt lat="40.529100" lon="-4.909133">
        <ele>1660.0</ele>
        <time>2018-07-29T13:40:02Z</time>
      </trkpt>
      <trkpt lat="40.529100" lon="-4.908917">
        <ele>1660.0</ele>
        <time>2018-07-29T13:40:03Z</time>
      </trkpt>
      <trkpt lat="40.529133" lon="-4.908733">
        <ele>1659.0</ele>
        <time>2018-07-29T13:40:04Z</time>
      </trkpt>
      <trkpt lat="40.529200" lon="-4.908567">
        <ele>1660.0</ele>
        <time>2018-07-29T13:40:05Z</time>
      </trkpt>
      <trkpt lat="40.529283" lon="-4.908433">
        <ele>1661.0</ele>
        <time>2018-07-29T13:40:06Z</time>
      </trkpt>
      <trkpt lat="40.529367" lon="-4.908350">
        <ele>1662.0</ele>
        <time>2018-07-29T13:40:07Z</time>
      </trkpt>
      <trkpt lat="40.529467" lon="-4.908283">
        <ele>1665.0</ele>
        <time>2018-07-29T13:40:08Z</time>
      </trkpt>
      <trkpt lat="40.529533" lon="-4.908233">
        <ele>1668.0</ele>
        <time>2018-07-29T13:40:09Z</time>
      </trkpt>
      <trkpt lat="40.529600" lon="-4.908167">
        <ele>1669.0</ele>
        <time>2018-07-29T13:40:10Z</time>
      </trkpt>
      <trkpt lat="40.529650" lon="-4.908117">
        <ele>1669.0</ele>
        <time>2018-07-29T13:40:11Z</time>
      </trkpt>
      <trkpt lat="40.529700" lon="-4.908067">
        <ele>1668.0</ele>
        <time>2018-07-29T13:40:12Z</time>
      </trkpt>
      <trkpt lat="40.529750" lon="-4.908067">
        <ele>1666.0</ele>
        <time>2018-07-29T13:40:13Z</time>
      </trkpt>
      <trkpt lat="40.529800" lon="-4.908083">
        <ele>1663.0</ele>
        <time>2018-07-29T13:40:14Z</time>
      </trkpt>
      <trkpt lat="40.529817" lon="-4.908133">
        <ele>1659.0</ele>
        <time>2018-07-29T13:40:15Z</time>
      </trkpt>
      <trkpt lat="40.529817" lon="-4.908217">
        <ele>1655.0</ele>
        <time>2018-07-29T13:40:16Z</time>
      </trkpt>
      <trkpt lat="40.529750" lon="-4.908300">
        <ele>1653.0</ele>
        <time>2018-07-29T13:40:17Z</time>
      </trkpt>
      <trkpt lat="40.529667" lon="-4.908350">
        <ele>1653.0</ele>
        <time>2018-07-29T13:40:18Z</time>
      </trkpt>
      <trkpt lat="40.529550" lon="-4.908350">
        <ele>1654.0</ele>
        <time>2018-07-29T13:40:19Z</time>
      </trkpt>
      <trkpt lat="40.529433" lon="-4.908317">
        <ele>1655.0</ele>
        <time>2018-07-29T13:40:20Z</time>
      </trkpt>
      <trkpt lat="40.529333" lon="-4.908267">
        <ele>1656.0</ele>
        <time>2018-07-29T13:40:21Z</time>
      </trkpt>
      <trkpt lat="40.529250" lon="-4.908217">
        <ele>1656.0</ele>
        <time>2018-07-29T13:40:22Z</time>
      </trkpt>
      <trkpt lat="40.529150" lon="-4.908183">
        <ele>1654.0</ele>
        <time>2018-07-29T13:40:23Z</time>
      </trkpt>
      <trkpt lat="40.529050" lon="-4.908150">
        <ele>1652.0</ele>
        <time>2018-07-29T13:40:24Z</time>
      </trkpt>
      <trkpt lat="40.528950" lon="-4.908083">
        <ele>1649.0</ele>
        <time>2018-07-29T13:40:25Z</time>
      </trkpt>
      <trkpt lat="40.528833" lon="-4.908000">
        <ele>1648.0</ele>
        <time>2018-07-29T13:40:26Z</time>
      </trkpt>
      <trkpt lat="40.528717" lon="-4.907867">
        <ele>1647.0</ele>
        <time>2018-07-29T13:40:27Z</time>
      </trkpt>
      <trkpt lat="40.528617" lon="-4.907700">
        <ele>1647.0</ele>
        <time>2018-07-29T13:40:28Z</time>
      </trkpt>
      <trkpt lat="40.528533" lon="-4.907517">
        <ele>1648.0</ele>
        <time>2018-07-29T13:40:29Z</time>
      </trkpt>
      <trkpt lat="40.528483" lon="-4.907333">
        <ele>1648.0</ele>
        <time>2018-07-29T13:40:30Z</time>
      </trkpt>
      <trkpt lat="40.528467" lon="-4.907117">
        <ele>1648.0</ele>
        <time>2018-07-29T13:40:31Z</time>
      </trkpt>
      <trkpt lat="40.528450" lon="-4.906917">
        <ele>1648.0</ele>
        <time>2018-07-29T13:40:32Z</time>
      </trkpt>
      <trkpt lat="40.528467" lon="-4.906700">
        <ele>1649.0</ele>
        <time>2018-07-29T13:40:33Z</time>
      </trkpt>
      <trkpt lat="40.528467" lon="-4.906483">
        <ele>1650.0</ele>
        <time>2018-07-29T13:40:34Z</time>
      </trkpt>
      <trkpt lat="40.528450" lon="-4.906283">
        <ele>1652.0</ele>
        <time>2018-07-29T13:40:35Z</time>
      </trkpt>
      <trkpt lat="40.528433" lon="-4.906083">
        <ele>1653.0</ele>
        <time>2018-07-29T13:40:36Z</time>
      </trkpt>
      <trkpt lat="40.528400" lon="-4.905883">
        <ele>1654.0</ele>
        <time>2018-07-29T13:40:37Z</time>
      </trkpt>
      <trkpt lat="40.528367" lon="-4.905683">
        <ele>1653.0</ele>
        <time>2018-07-29T13:40:38Z</time>
      </trkpt>
      <trkpt lat="40.528367" lon="-4.905483">
        <ele>1654.0</ele>
        <time>2018-07-29T13:40:39Z</time>
      </trkpt>
      <trkpt lat="40.528367" lon="-4.905300">
        <ele>1654.0</ele>
        <time>2018-07-29T13:40:40Z</time>
      </trkpt>
      <trkpt lat="40.528400" lon="-4.905150">
        <ele>1653.0</ele>
        <time>2018-07-29T13:40:41Z</time>
      </trkpt>
      <trkpt lat="40.528450" lon="-4.905017">
        <ele>1652.0</ele>
        <time>2018-07-29T13:40:42Z</time>
      </trkpt>
      <trkpt lat="40.528500" lon="-4.904917">
        <ele>1651.0</ele>
        <time>2018-07-29T13:40:43Z</time>
      </trkpt>
      <trkpt lat="40.528550" lon="-4.904783">
        <ele>1650.0</ele>
        <time>2018-07-29T13:40:44Z</time>
      </trkpt>
      <trkpt lat="40.528567" lon="-4.904650">
        <ele>1648.0</ele>
        <time>2018-07-29T13:40:45Z</time>
      </trkpt>
      <trkpt lat="40.528600" lon="-4.904483">
        <ele>1645.0</ele>
        <time>2018-07-29T13:40:46Z</time>
      </trkpt>
      <trkpt lat="40.528617" lon="-4.904317">
        <ele>1643.0</ele>
        <time>2018-07-29T13:40:47Z</time>
      </trkpt>
      <trkpt lat="40.528633" lon="-4.904150">
        <ele>1642.0</ele>
        <time>2018-07-29T13:40:48Z</time>
      </trkpt>
      <trkpt lat="40.528633" lon="-4.903983">
        <ele>1640.0</ele>
        <time>2018-07-29T13:40:49Z</time>
      </trkpt>
      <trkpt lat="40.528600" lon="-4.903800">
        <ele>1639.0</ele>
        <time>2018-07-29T13:40:50Z</time>
      </trkpt>
      <trkpt lat="40.528550" lon="-4.903617">
        <ele>1637.0</ele>
        <time>2018-07-29T13:40:51Z</time>
      </trkpt>
      <trkpt lat="40.528500" lon="-4.903433">
        <ele>1635.0</ele>
        <time>2018-07-29T13:40:52Z</time>
      </trkpt>
      <trkpt lat="40.528450" lon="-4.903250">
        <ele>1634.0</ele>
        <time>2018-07-29T13:40:53Z</time>
      </trkpt>
      <trkpt lat="40.528400" lon="-4.903067">
        <ele>1632.0</ele>
        <time>2018-07-29T13:40:54Z</time>
      </trkpt>
      <trkpt lat="40.528367" lon="-4.902883">
        <ele>1630.0</ele>
        <time>2018-07-29T13:40:55Z</time>
      </trkpt>
      <trkpt lat="40.528333" lon="-4.902683">
        <ele>1628.0</ele>
        <time>2018-07-29T13:40:56Z</time>
      </trkpt>
      <trkpt lat="40.528333" lon="-4.902483">
        <ele>1626.0</ele>
        <time>2018-07-29T13:40:57Z</time>
      </trkpt>
      <trkpt lat="40.528350" lon="-4.902283">
        <ele>1625.0</ele>
        <time>2018-07-29T13:40:58Z</time>
      </trkpt>
      <trkpt lat="40.528383" lon="-4.902117">
        <ele>1625.0</ele>
        <time>2018-07-29T13:40:59Z</time>
      </trkpt>
      <trkpt lat="40.528400" lon="-4.901950">
        <ele>1627.0</ele>
        <time>2018-07-29T13:41:00Z</time>
      </trkpt>
      <trkpt lat="40.528400" lon="-4.901783">
        <ele>1627.0</ele>
        <time>2018-07-29T13:41:01Z</time>
      </trkpt>
      <trkpt lat="40.528417" lon="-4.901633">
        <ele>1627.0</ele>
        <time>2018-07-29T13:41:02Z</time>
      </trkpt>
      <trkpt lat="40.528417" lon="-4.901467">
        <ele>1626.0</ele>
        <time>2018-07-29T13:41:03Z</time>
      </trkpt>
      <trkpt lat="40.528433" lon="-4.901283">
        <ele>1626.0</ele>
        <time>2018-07-29T13:41:04Z</time>
      </trkpt>
      <trkpt lat="40.528433" lon="-4.901100">
        <ele>1626.0</ele>
        <time>2018-07-29T13:41:05Z</time>
      </trkpt>
      <trkpt lat="40.528400" lon="-4.900900">
        <ele>1626.0</ele>
        <time>2018-07-29T13:41:06Z</time>
      </trkpt>
      <trkpt lat="40.528350" lon="-4.900717">
        <ele>1625.0</ele>
        <time>2018-07-29T13:41:07Z</time>
      </trkpt>
      <trkpt lat="40.528267" lon="-4.900533">
        <ele>1624.0</ele>
        <time>2018-07-29T13:41:08Z</time>
      </trkpt>
      <trkpt lat="40.528183" lon="-4.900383">
        <ele>1624.0</ele>
        <time>2018-07-29T13:41:09Z</time>
      </trkpt>
      <trkpt lat="40.528083" lon="-4.900233">
        <ele>1623.0</ele>
        <time>2018-07-29T13:41:10Z</time>
      </trkpt>
      <trkpt lat="40.528000" lon="-4.900083">
        <ele>1623.0</ele>
        <time>2018-07-29T13:41:11Z</time>
      </trkpt>
      <trkpt lat="40.527917" lon="-4.899917">
        <ele>1622.0</ele>
        <time>2018-07-29T13:41:12Z</time>
      </trkpt>
      <trkpt lat="40.527867" lon="-4.899750">
        <ele>1620.0</ele>
        <time>2018-07-29T13:41:13Z</time>
      </trkpt>
      <trkpt lat="40.527817" lon="-4.899567">
        <ele>1619.0</ele>
        <time>2018-07-29T13:41:14Z</time>
      </trkpt>
      <trkpt lat="40.527800" lon="-4.899383">
        <ele>1616.0</ele>
        <time>2018-07-29T13:41:15Z</time>
      </trkpt>
      <trkpt lat="40.527767" lon="-4.899217">
        <ele>1614.0</ele>
        <time>2018-07-29T13:41:16Z</time>
      </trkpt>
      <trkpt lat="40.527767" lon="-4.899050">
        <ele>1611.0</ele>
        <time>2018-07-29T13:41:17Z</time>
      </trkpt>
      <trkpt lat="40.527767" lon="-4.898867">
        <ele>1608.0</ele>
        <time>2018-07-29T13:41:18Z</time>
      </trkpt>
      <trkpt lat="40.527783" lon="-4.898700">
        <ele>1604.0</ele>
        <time>2018-07-29T13:41:19Z</time>
      </trkpt>
      <trkpt lat="40.527833" lon="-4.898533">
        <ele>1600.0</ele>
        <time>2018-07-29T13:41:20Z</time>
      </trkpt>
      <trkpt lat="40.527867" lon="-4.898367">
        <ele>1596.0</ele>
        <time>2018-07-29T13:41:21Z</time>
      </trkpt>
      <trkpt lat="40.527917" lon="-4.898200">
        <ele>1595.0</ele>
        <time>2018-07-29T13:41:22Z</time>
      </trkpt>
      <trkpt lat="40.527967" lon="-4.898050">
        <ele>1594.0</ele>
        <time>2018-07-29T13:41:23Z</time>
      </trkpt>
      <trkpt lat="40.528000" lon="-4.897917">
        <ele>1592.0</ele>
        <time>2018-07-29T13:41:24Z</time>
      </trkpt>
      <trkpt lat="40.528050" lon="-4.897767">
        <ele>1589.0</ele>
        <time>2018-07-29T13:41:25Z</time>
      </trkpt>
      <trkpt lat="40.528100" lon="-4.897633">
        <ele>1586.0</ele>
        <time>2018-07-29T13:41:26Z</time>
      </trkpt>
      <trkpt lat="40.528167" lon="-4.897500">
        <ele>1582.0</ele>
        <time>2018-07-29T13:41:27Z</time>
      </trkpt>
      <trkpt lat="40.528217" lon="-4.897350">
        <ele>1579.0</ele>
        <time>2018-07-29T13:41:28Z</time>
      </trkpt>
      <trkpt lat="40.528267" lon="-4.897217">
        <ele>1577.0</ele>
        <time>2018-07-29T13:41:29Z</time>
      </trkpt>
      <trkpt lat="40.528333" lon="-4.897100">
        <ele>1576.0</ele>
        <time>2018-07-29T13:41:30Z</time>
      </trkpt>
      <trkpt lat="40.528367" lon="-4.896983">
        <ele>1577.0</ele>
        <time>2018-07-29T13:41:31Z</time>
      </trkpt>
      <trkpt lat="40.528400" lon="-4.896883">
        <ele>1577.0</ele>
        <time>2018-07-29T13:41:32Z</time>
      </trkpt>
      <trkpt lat="40.528433" lon="-4.896783">
        <ele>1576.0</ele>
        <time>2018-07-29T13:41:33Z</time>
      </trkpt>
      <trkpt lat="40.528467" lon="-4.896700">
        <ele>1574.0</ele>
        <time>2018-07-29T13:41:34Z</time>
      </trkpt>
      <trkpt lat="40.528517" lon="-4.896600">
        <ele>1571.0</ele>
        <time>2018-07-29T13:41:35Z</time>
      </trkpt>
      <trkpt lat="40.528567" lon="-4.896500">
        <ele>1568.0</ele>
        <time>2018-07-29T13:41:36Z</time>
      </trkpt>
      <trkpt lat="40.528617" lon="-4.896400">
        <ele>1565.0</ele>
        <time>2018-07-29T13:41:37Z</time>
      </trkpt>
      <trkpt lat="40.528667" lon="-4.896283">
        <ele>1564.0</ele>
        <time>2018-07-29T13:41:38Z</time>
      </trkpt>
      <trkpt lat="40.528717" lon="-4.896167">
        <ele>1563.0</ele>
        <time>2018-07-29T13:41:39Z</time>
      </trkpt>
      <trkpt lat="40.528767" lon="-4.896067">
        <ele>1562.0</ele>
        <time>2018-07-29T13:41:40Z</time>
      </trkpt>
      <trkpt lat="40.528800" lon="-4.895933">
        <ele>1560.0</ele>
        <time>2018-07-29T13:41:41Z</time>
      </trkpt>
      <trkpt lat="40.528850" lon="-4.895800">
        <ele>1558.0</ele>
        <time>2018-07-29T13:41:42Z</time>
      </trkpt>
      <trkpt lat="40.528917" lon="-4.895683">
        <ele>1556.0</ele>
        <time>2018-07-29T13:41:43Z</time>
      </trkpt>
      <trkpt lat="40.528983" lon="-4.895567">
        <ele>1556.0</ele>
        <time>2018-07-29T13:41:44Z</time>
      </trkpt>
      <trkpt lat="40.529067" lon="-4.895433">
        <ele>1559.0</ele>
        <time>2018-07-29T13:41:45Z</time>
      </trkpt>
      <trkpt lat="40.529133" lon="-4.895317">
        <ele>1564.0</ele>
        <time>2018-07-29T13:41:46Z</time>
      </trkpt>
      <trkpt lat="40.529183" lon="-4.895200">
        <ele>1569.0</ele>
        <time>2018-07-29T13:41:47Z</time>
      </trkpt>
      <trkpt lat="40.529233" lon="-4.895067">
        <ele>1573.0</ele>
        <time>2018-07-29T13:41:48Z</time>
      </trkpt>
      <trkpt lat="40.529283" lon="-4.894950">
        <ele>1576.0</ele>
        <time>2018-07-29T13:41:49Z</time>
      </trkpt>
      <trkpt lat="40.529333" lon="-4.894800">
        <ele>1578.0</ele>
        <time>2018-07-29T13:41:50Z</time>
      </trkpt>
      <trkpt lat="40.529383" lon="-4.894650">
        <ele>1581.0</ele>
        <time>2018-07-29T13:41:51Z</time>
      </trkpt>
      <trkpt lat="40.529433" lon="-4.894500">
        <ele>1584.0</ele>
        <time>2018-07-29T13:41:52Z</time>
      </trkpt>
      <trkpt lat="40.529483" lon="-4.894367">
        <ele>1589.0</ele>
        <time>2018-07-29T13:41:53Z</time>
      </trkpt>
      <trkpt lat="40.529533" lon="-4.894283">
        <ele>1594.0</ele>
        <time>2018-07-29T13:41:54Z</time>
      </trkpt>
      <trkpt lat="40.529600" lon="-4.894233">
        <ele>1597.0</ele>
        <time>2018-07-29T13:41:55Z</time>
      </trkpt>
      <trkpt lat="40.529650" lon="-4.894233">
        <ele>1600.0</ele>
        <time>2018-07-29T13:41:56Z</time>
      </trkpt>
      <trkpt lat="40.529683" lon="-4.894250">
        <ele>1601.0</ele>
        <time>2018-07-29T13:41:57Z</time>
      </trkpt>
      <trkpt lat="40.529683" lon="-4.894317">
        <ele>1602.0</ele>
        <time>2018-07-29T13:41:58Z</time>
      </trkpt>
      <trkpt lat="40.529650" lon="-4.894400">
        <ele>1604.0</ele>
        <time>2018-07-29T13:41:59Z</time>
      </trkpt>
      <trkpt lat="40.529567" lon="-4.894450">
        <ele>1606.0</ele>
        <time>2018-07-29T13:42:00Z</time>
      </trkpt>
      <trkpt lat="40.529467" lon="-4.894467">
        <ele>1607.0</ele>
        <time>2018-07-29T13:42:01Z</time>
      </trkpt>
      <trkpt lat="40.529333" lon="-4.894450">
        <ele>1607.0</ele>
        <time>2018-07-29T13:42:02Z</time>
      </trkpt>
      <trkpt lat="40.529200" lon="-4.894350">
        <ele>1607.0</ele>
        <time>2018-07-29T13:42:03Z</time>
      </trkpt>
      <trkpt lat="40.529067" lon="-4.894200">
        <ele>1607.0</ele>
        <time>2018-07-29T13:42:04Z</time>
      </trkpt>
      <trkpt lat="40.528967" lon="-4.894017">
        <ele>1608.0</ele>
        <time>2018-07-29T13:42:05Z</time>
      </trkpt>
      <trkpt lat="40.528917" lon="-4.893833">
        <ele>1611.0</ele>
        <time>2018-07-29T13:42:06Z</time>
      </trkpt>
      <trkpt lat="40.528883" lon="-4.893633">
        <ele>1613.0</ele>
        <time>2018-07-29T13:42:07Z</time>
      </trkpt>
      <trkpt lat="40.528867" lon="-4.893450">
        <ele>1616.0</ele>
        <time>2018-07-29T13:42:08Z</time>
      </trkpt>
      <trkpt lat="40.528883" lon="-4.893250">
        <ele>1618.0</ele>
        <time>2018-07-29T13:42:09Z</time>
      </trkpt>
      <trkpt lat="40.528917" lon="-4.893067">
        <ele>1621.0</ele>
        <time>2018-07-29T13:42:10Z</time>
      </trkpt>
      <trkpt lat="40.528950" lon="-4.892900">
        <ele>1624.0</ele>
        <time>2018-07-29T13:42:11Z</time>
      </trkpt>
      <trkpt lat="40.528983" lon="-4.892733">
        <ele>1628.0</ele>
        <time>2018-07-29T13:42:12Z</time>
      </trkpt>
      <trkpt lat="40.529000" lon="-4.892600">
        <ele>1632.0</ele>
        <time>2018-07-29T13:42:13Z</time>
      </trkpt>
      <trkpt lat="40.529033" lon="-4.892450">
        <ele>1634.0</ele>
        <time>2018-07-29T13:42:14Z</time>
      </trkpt>
      <trkpt lat="40.529067" lon="-4.892317">
        <ele>1635.0</ele>
        <time>2018-07-29T13:42:15Z</time>
      </trkpt>
      <trkpt lat="40.529117" lon="-4.892183">
        <ele>1636.0</ele>
        <time>2018-07-29T13:42:16Z</time>
      </trkpt>
      <trkpt lat="40.529183" lon="-4.892067">
        <ele>1635.0</ele>
        <time>2018-07-29T13:42:17Z</time>
      </trkpt>
      <trkpt lat="40.529283" lon="-4.891967">
        <ele>1636.0</ele>
        <time>2018-07-29T13:42:18Z</time>
      </trkpt>
      <trkpt lat="40.529400" lon="-4.891933">
        <ele>1638.0</ele>
        <time>2018-07-29T13:42:19Z</time>
      </trkpt>
      <trkpt lat="40.529500" lon="-4.891900">
        <ele>1642.0</ele>
        <time>2018-07-29T13:42:20Z</time>
      </trkpt>
      <trkpt lat="40.529567" lon="-4.891900">
        <ele>1648.0</ele>
        <time>2018-07-29T13:42:21Z</time>
      </trkpt>
      <trkpt lat="40.529617" lon="-4.891917">
        <ele>1652.0</ele>
        <time>2018-07-29T13:42:22Z</time>
      </trkpt>
      <trkpt lat="40.529650" lon="-4.891933">
        <ele>1655.0</ele>
        <time>2018-07-29T13:42:23Z</time>
      </trkpt>
      <trkpt lat="40.529650" lon="-4.891967">
        <ele>1656.0</ele>
        <time>2018-07-29T13:42:24Z</time>
      </trkpt>
      <trkpt lat="40.529633" lon="-4.892000">
        <ele>1656.0</ele>
        <time>2018-07-29T13:42:25Z</time>
      </trkpt>
      <trkpt lat="40.529600" lon="-4.892033">
        <ele>1655.0</ele>
        <time>2018-07-29T13:42:26Z</time>
      </trkpt>
      <trkpt lat="40.529533" lon="-4.892067">
        <ele>1654.0</ele>
        <time>2018-07-29T13:42:27Z</time>
      </trkpt>
      <trkpt lat="40.529417" lon="-4.892083">
        <ele>1653.0</ele>
        <time>2018-07-29T13:42:28Z</time>
      </trkpt>
      <trkpt lat="40.529283" lon="-4.892050">
        <ele>1653.0</ele>
        <time>2018-07-29T13:42:29Z</time>
      </trkpt>
      <trkpt lat="40.529133" lon="-4.891983">
        <ele>1654.0</ele>
        <time>2018-07-29T13:42:30Z</time>
      </trkpt>
      <trkpt lat="40.528983" lon="-4.891850">
        <ele>1655.0</ele>
        <time>2018-07-29T13:42:31Z</time>
      </trkpt>
      <trkpt lat="40.528867" lon="-4.891683">
        <ele>1657.0</ele>
        <time>2018-07-29T13:42:32Z</time>
      </trkpt>
      <trkpt lat="40.528783" lon="-4.891467">
        <ele>1660.0</ele>
        <time>2018-07-29T13:42:33Z</time>
      </trkpt>
      <trkpt lat="40.528733" lon="-4.891250">
        <ele>1662.0</ele>
        <time>2018-07-29T13:42:34Z</time>
      </trkpt>
      <trkpt lat="40.528700" lon="-4.891033">
        <ele>1665.0</ele>
        <time>2018-07-29T13:42:35Z</time>
      </trkpt>
      <trkpt lat="40.528667" lon="-4.890817">
        <ele>1669.0</ele>
        <time>2018-07-29T13:42:36Z</time>
      </trkpt>
      <trkpt lat="40.528617" lon="-4.890633">
        <ele>1673.0</ele>
        <time>2018-07-29T13:42:37Z</time>
      </trkpt>
      <trkpt lat="40.528583" lon="-4.890433">
        <ele>1676.0</ele>
        <time>2018-07-29T13:42:38Z</time>
      </trkpt>
      <trkpt lat="40.528533" lon="-4.890250">
        <ele>1678.0</ele>
        <time>2018-07-29T13:42:39Z</time>
      </trkpt>
      <trkpt lat="40.528500" lon="-4.890067">
        <ele>1681.0</ele>
        <time>2018-07-29T13:42:40Z</time>
      </trkpt>
      <trkpt lat="40.528450" lon="-4.889900">
        <ele>1682.0</ele>
        <time>2018-07-29T13:42:41Z</time>
      </trkpt>
      <trkpt lat="40.528400" lon="-4.889717">
        <ele>1684.0</ele>
        <time>2018-07-29T13:42:42Z</time>
      </trkpt>
      <trkpt lat="40.528350" lon="-4.889533">
        <ele>1687.0</ele>
        <time>2018-07-29T13:42:43Z</time>
      </trkpt>
      <trkpt lat="40.528300" lon="-4.889350">
        <ele>1690.0</ele>
        <time>2018-07-29T13:42:44Z</time>
      </trkpt>
      <trkpt lat="40.528250" lon="-4.889167">
        <ele>1693.0</ele>
        <time>2018-07-29T13:42:45Z</time>
      </trkpt>
      <trkpt lat="40.528217" lon="-4.888967">
        <ele>1697.0</ele>
        <time>2018-07-29T13:42:46Z</time>
      </trkpt>
      <trkpt lat="40.528183" lon="-4.888783">
        <ele>1700.0</ele>
        <time>2018-07-29T13:42:47Z</time>
      </trkpt>
      <trkpt lat="40.528150" lon="-4.888583">
        <ele>1704.0</ele>
        <time>2018-07-29T13:42:48Z</time>
      </trkpt>
      <trkpt lat="40.528100" lon="-4.888383">
        <ele>1708.0</ele>
        <time>2018-07-29T13:42:49Z</time>
      </trkpt>
      <trkpt lat="40.528067" lon="-4.888200">
        <ele>1711.0</ele>
        <time>2018-07-29T13:42:50Z</time>
      </trkpt>
      <trkpt lat="40.528017" lon="-4.888017">
        <ele>1715.0</ele>
        <time>2018-07-29T13:42:51Z</time>
      </trkpt>
      <trkpt lat="40.528000" lon="-4.887817">
        <ele>1718.0</ele>
        <time>2018-07-29T13:42:52Z</time>
      </trkpt>
      <trkpt lat="40.527983" lon="-4.887617">
        <ele>1721.0</ele>
        <time>2018-07-29T13:42:53Z</time>
      </trkpt>
      <trkpt lat="40.527983" lon="-4.887433">
        <ele>1724.0</ele>
        <time>2018-07-29T13:42:54Z</time>
      </trkpt>
      <trkpt lat="40.528000" lon="-4.887233">
        <ele>1727.0</ele>
        <time>2018-07-29T13:42:55Z</time>
      </trkpt>
      <trkpt lat="40.528033" lon="-4.887067">
        <ele>1729.0</ele>
        <time>2018-07-29T13:42:56Z</time>
      </trkpt>
      <trkpt lat="40.528100" lon="-4.886900">
        <ele>1732.0</ele>
        <time>2018-07-29T13:42:57Z</time>
      </trkpt>
      <trkpt lat="40.528150" lon="-4.886767">
        <ele>1735.0</ele>
        <time>2018-07-29T13:42:58Z</time>
      </trkpt>
      <trkpt lat="40.528217" lon="-4.886683">
        <ele>1738.0</ele>
        <time>2018-07-29T13:42:59Z</time>
      </trkpt>
      <trkpt lat="40.528283" lon="-4.886633">
        <ele>1741.0</ele>
        <time>2018-07-29T13:43:00Z</time>
      </trkpt>
      <trkpt lat="40.528333" lon="-4.886633">
        <ele>1743.0</ele>
        <time>2018-07-29T13:43:01Z</time>
      </trkpt>
      <trkpt lat="40.528350" lon="-4.886667">
        <ele>1746.0</ele>
        <time>2018-07-29T13:43:02Z</time>
      </trkpt>
      <trkpt lat="40.528333" lon="-4.886717">
        <ele>1750.0</ele>
        <time>2018-07-29T13:43:03Z</time>
      </trkpt>
      <trkpt lat="40.528267" lon="-4.886750">
        <ele>1752.0</ele>
        <time>2018-07-29T13:43:04Z</time>
      </trkpt>
      <trkpt lat="40.528167" lon="-4.886767">
        <ele>1755.0</ele>
        <time>2018-07-29T13:43:05Z</time>
      </trkpt>
      <trkpt lat="40.528050" lon="-4.886750">
        <ele>1758.0</ele>
        <time>2018-07-29T13:43:06Z</time>
      </trkpt>
      <trkpt lat="40.527900" lon="-4.886683">
        <ele>1762.0</ele>
        <time>2018-07-29T13:43:07Z</time>
      </trkpt>
      <trkpt lat="40.527767" lon="-4.886583">
        <ele>1766.0</ele>
        <time>2018-07-29T13:43:08Z</time>
      </trkpt>
      <trkpt lat="40.527650" lon="-4.886433">
        <ele>1770.0</ele>
        <time>2018-07-29T13:43:09Z</time>
      </trkpt>
      <trkpt lat="40.527583" lon="-4.886250">
        <ele>1774.0</ele>
        <time>2018-07-29T13:43:10Z</time>
      </trkpt>
      <trkpt lat="40.527550" lon="-4.886067">
        <ele>1777.0</ele>
        <time>2018-07-29T13:43:11Z</time>
      </trkpt>
      <trkpt lat="40.527550" lon="-4.885883">
        <ele>1780.0</ele>
        <time>2018-07-29T13:43:12Z</time>
      </trkpt>
      <trkpt lat="40.527600" lon="-4.885733">
        <ele>1781.0</ele>
        <time>2018-07-29T13:43:13Z</time>
      </trkpt>
      <trkpt lat="40.527667" lon="-4.885617">
        <ele>1782.0</ele>
        <time>2018-07-29T13:43:14Z</time>
      </trkpt>
      <trkpt lat="40.527733" lon="-4.885567">
        <ele>1784.0</ele>
        <time>2018-07-29T13:43:15Z</time>
      </trkpt>
      <trkpt lat="40.527800" lon="-4.885567">
        <ele>1786.0</ele>
        <time>2018-07-29T13:43:16Z</time>
      </trkpt>
      <trkpt lat="40.527833" lon="-4.885600">
        <ele>1789.0</ele>
        <time>2018-07-29T13:43:17Z</time>
      </trkpt>
      <trkpt lat="40.527833" lon="-4.885650">
        <ele>1793.0</ele>
        <time>2018-07-29T13:43:18Z</time>
      </trkpt>
      <trkpt lat="40.527783" lon="-4.885700">
        <ele>1796.0</ele>
        <time>2018-07-29T13:43:19Z</time>
      </trkpt>
      <trkpt lat="40.527717" lon="-4.885733">
        <ele>1800.0</ele>
        <time>2018-07-29T13:43:20Z</time>
      </trkpt>
      <trkpt lat="40.527617" lon="-4.885750">
        <ele>1803.0</ele>
        <time>2018-07-29T13:43:21Z</time>
      </trkpt>
      <trkpt lat="40.527517" lon="-4.885750">
        <ele>1806.0</ele>
        <time>2018-07-29T13:43:22Z</time>
      </trkpt>
      <trkpt lat="40.527417" lon="-4.885733">
        <ele>1808.0</ele>
        <time>2018-07-29T13:43:23Z</time>
      </trkpt>
      <trkpt lat="40.527283" lon="-4.885700">
        <ele>1810.0</ele>
        <time>2018-07-29T13:43:24Z</time>
      </trkpt>
      <trkpt lat="40.527167" lon="-4.885617">
        <ele>1813.0</ele>
        <time>2018-07-29T13:43:25Z</time>
      </trkpt>
      <trkpt lat="40.527033" lon="-4.885483">
        <ele>1815.0</ele>
        <time>2018-07-29T13:43:26Z</time>
      </trkpt>
      <trkpt lat="40.526900" lon="-4.885333">
        <ele>1818.0</ele>
        <time>2018-07-29T13:43:27Z</time>
      </trkpt>
      <trkpt lat="40.526800" lon="-4.885167">
        <ele>1823.0</ele>
        <time>2018-07-29T13:43:28Z</time>
      </trkpt>
      <trkpt lat="40.526750" lon="-4.885017">
        <ele>1828.0</ele>
        <time>2018-07-29T13:43:29Z</time>
      </trkpt>
      <trkpt lat="40.526717" lon="-4.884850">
        <ele>1831.0</ele>
        <time>2018-07-29T13:43:30Z</time>
      </trkpt>
      <trkpt lat="40.526700" lon="-4.884683">
        <ele>1833.0</ele>
        <time>2018-07-29T13:43:31Z</time>
      </trkpt>
      <trkpt lat="40.526700" lon="-4.884500">
        <ele>1836.0</ele>
        <time>2018-07-29T13:43:32Z</time>
      </trkpt>
      <trkpt lat="40.526733" lon="-4.884350">
        <ele>1838.0</ele>
        <time>2018-07-29T13:43:33Z</time>
      </trkpt>
      <trkpt lat="40.526767" lon="-4.884200">
        <ele>1840.0</ele>
        <time>2018-07-29T13:43:34Z</time>
      </trkpt>
      <trkpt lat="40.526833" lon="-4.884100">
        <ele>1843.0</ele>
        <time>2018-07-29T13:43:35Z</time>
      </trkpt>
      <trkpt lat="40.526900" lon="-4.884017">
        <ele>1844.0</ele>
        <time>2018-07-29T13:43:36Z</time>
      </trkpt>
      <trkpt lat="40.526950" lon="-4.884000">
        <ele>1846.0</ele>
        <time>2018-07-29T13:43:37Z</time>
      </trkpt>
      <trkpt lat="40.526983" lon="-4.884017">
        <ele>1848.0</ele>
        <time>2018-07-29T13:43:38Z</time>
      </trkpt>
      <trkpt lat="40.526967" lon="-4.884083">
        <ele>1849.0</ele>
        <time>2018-07-29T13:43:39Z</time>
      </trkpt>
      <trkpt lat="40.526917" lon="-4.884167">
        <ele>1853.0</ele>
        <time>2018-07-29T13:43:40Z</time>
      </trkpt>
      <trkpt lat="40.526833" lon="-4.884200">
        <ele>1857.0</ele>
        <time>2018-07-29T13:43:41Z</time>
      </trkpt>
      <trkpt lat="40.526717" lon="-4.884183">
        <ele>1862.0</ele>
        <time>2018-07-29T13:43:42Z</time>
      </trkpt>
      <trkpt lat="40.526600" lon="-4.884100">
        <ele>1865.0</ele>
        <time>2018-07-29T13:43:43Z</time>
      </trkpt>
      <trkpt lat="40.526483" lon="-4.884000">
        <ele>1868.0</ele>
        <time>2018-07-29T13:43:44Z</time>
      </trkpt>
      <trkpt lat="40.526350" lon="-4.883900">
        <ele>1871.0</ele>
        <time>2018-07-29T13:43:45Z</time>
      </trkpt>
      <trkpt lat="40.526217" lon="-4.883783">
        <ele>1875.0</ele>
        <time>2018-07-29T13:43:46Z</time>
      </trkpt>
      <trkpt lat="40.526100" lon="-4.883650">
        <ele>1879.0</ele>
        <time>2018-07-29T13:43:47Z</time>
      </trkpt>
      <trkpt lat="40.526000" lon="-4.883500">
        <ele>1884.0</ele>
        <time>2018-07-29T13:43:48Z</time>
      </trkpt>
      <trkpt lat="40.525900" lon="-4.883317">
        <ele>1889.0</ele>
        <time>2018-07-29T13:43:49Z</time>
      </trkpt>
      <trkpt lat="40.525833" lon="-4.883150">
        <ele>1893.0</ele>
        <time>2018-07-29T13:43:50Z</time>
      </trkpt>
      <trkpt lat="40.525783" lon="-4.882983">
        <ele>1897.0</ele>
        <time>2018-07-29T13:43:51Z</time>
      </trkpt>
      <trkpt lat="40.525750" lon="-4.882833">
        <ele>1900.0</ele>
        <time>2018-07-29T13:43:52Z</time>
      </trkpt>
      <trkpt lat="40.525733" lon="-4.882667">
        <ele>1902.0</ele>
        <time>2018-07-29T13:43:53Z</time>
      </trkpt>
      <trkpt lat="40.525750" lon="-4.882517">
        <ele>1903.0</ele>
        <time>2018-07-29T13:43:54Z</time>
      </trkpt>
      <trkpt lat="40.525800" lon="-4.882367">
        <ele>1905.0</ele>
        <time>2018-07-29T13:43:55Z</time>
      </trkpt>
      <trkpt lat="40.525850" lon="-4.882250">
        <ele>1907.0</ele>
        <time>2018-07-29T13:43:56Z</time>
      </trkpt>
      <trkpt lat="40.525917" lon="-4.882167">
        <ele>1910.0</ele>
        <time>2018-07-29T13:43:57Z</time>
      </trkpt>
      <trkpt lat="40.525967" lon="-4.882117">
        <ele>1913.0</ele>
        <time>2018-07-29T13:43:58Z</time>
      </trkpt>
      <trkpt lat="40.526017" lon="-4.882100">
        <ele>1915.0</ele>
        <time>2018-07-29T13:43:59Z</time>
      </trkpt>
      <trkpt lat="40.526033" lon="-4.882117">
        <ele>1916.0</ele>
        <time>2018-07-29T13:44:00Z</time>
      </trkpt>
      <trkpt lat="40.526033" lon="-4.882167">
        <ele>1918.0</ele>
        <time>2018-07-29T13:44:01Z</time>
      </trkpt>
      <trkpt lat="40.526017" lon="-4.882217">
        <ele>1921.0</ele>
        <time>2018-07-29T13:44:02Z</time>
      </trkpt>
      <trkpt lat="40.525967" lon="-4.882267">
        <ele>1924.0</ele>
        <time>2018-07-29T13:44:03Z</time>
      </trkpt>
      <trkpt lat="40.525883" lon="-4.882300">
        <ele>1928.0</ele>
        <time>2018-07-29T13:44:04Z</time>
      </trkpt>
      <trkpt lat="40.525783" lon="-4.882317">
        <ele>1932.0</ele>
        <time>2018-07-29T13:44:05Z</time>
      </trkpt>
      <trkpt lat="40.525667" lon="-4.882300">
        <ele>1936.0</ele>
        <time>2018-07-29T13:44:06Z</time>
      </trkpt>
      <trkpt lat="40.525550" lon="-4.882233">
        <ele>1938.0</ele>
        <time>2018-07-29T13:44:07Z</time>
      </trkpt>
      <trkpt lat="40.525400" lon="-4.882167">
        <ele>1941.0</ele>
        <time>2018-07-29T13:44:08Z</time>
      </trkpt>
      <trkpt lat="40.525267" lon="-4.882050">
        <ele>1944.0</ele>
        <time>2018-07-29T13:44:09Z</time>
      </trkpt>
      <trkpt lat="40.525150" lon="-4.881900">
        <ele>1949.0</ele>
        <time>2018-07-29T13:44:10Z</time>
      </trkpt>
      <trkpt lat="40.525067" lon="-4.881717">
        <ele>1952.0</ele>
        <time>2018-07-29T13:44:11Z</time>
      </trkpt>
      <trkpt lat="40.525017" lon="-4.881533">
        <ele>1955.0</ele>
        <time>2018-07-29T13:44:12Z</time>
      </trkpt>
      <trkpt lat="40.525017" lon="-4.881350">
        <ele>1957.0</ele>
        <time>2018-07-29T13:44:13Z</time>
      </trkpt>
      <trkpt lat="40.525017" lon="-4.881183">
        <ele>1959.0</ele>
        <time>2018-07-29T13:44:14Z</time>
      </trkpt>
      <trkpt lat="40.525033" lon="-4.881017">
        <ele>1961.0</ele>
        <time>2018-07-29T13:44:15Z</time>
      </trkpt>
      <trkpt lat="40.525067" lon="-4.880850">
        <ele>1964.0</ele>
        <time>2018-07-29T13:44:16Z</time>
      </trkpt>
      <trkpt lat="40.525117" lon="-4.880717">
        <ele>1966.0</ele>
        <time>2018-07-29T13:44:17Z</time>
      </trkpt>
      <trkpt lat="40.525167" lon="-4.880600">
        <ele>1967.0</ele>
        <time>2018-07-29T13:44:18Z</time>
      </trkpt>
      <trkpt lat="40.525250" lon="-4.880533">
        <ele>1968.0</ele>
        <time>2018-07-29T13:44:19Z</time>
      </trkpt>
      <trkpt lat="40.525317" lon="-4.880483">
        <ele>1970.0</ele>
        <time>2018-07-29T13:44:20Z</time>
      </trkpt>
      <trkpt lat="40.525367" lon="-4.880467">
        <ele>1972.0</ele>
        <time>2018-07-29T13:44:21Z</time>
      </trkpt>
      <trkpt lat="40.525400" lon="-4.880467">
        <ele>1974.0</ele>
        <time>2018-07-29T13:44:22Z</time>
      </trkpt>
      <trkpt lat="40.525417" lon="-4.880500">
        <ele>1975.0</ele>
        <time>2018-07-29T13:44:23Z</time>
      </trkpt>
      <trkpt lat="40.525400" lon="-4.880550">
        <ele>1977.0</ele>
        <time>2018-07-29T13:44:24Z</time>
      </trkpt>
      <trkpt lat="40.525367" lon="-4.880600">
        <ele>1979.0</ele>
        <time>2018-07-29T13:44:25Z</time>
      </trkpt>
      <trkpt lat="40.525300" lon="-4.880650">
        <ele>1982.0</ele>
        <time>2018-07-29T13:44:26Z</time>
      </trkpt>
      <trkpt lat="40.525217" lon="-4.880700">
        <ele>1985.0</ele>
        <time>2018-07-29T13:44:27Z</time>
      </trkpt>
      <trkpt lat="40.525117" lon="-4.880717">
        <ele>1988.0</ele>
        <time>2018-07-29T13:44:28Z</time>
      </trkpt>
      <trkpt lat="40.524983" lon="-4.880700">
        <ele>1992.0</ele>
        <time>2018-07-29T13:44:29Z</time>
      </trkpt>
      <trkpt lat="40.524867" lon="-4.880650">
        <ele>1996.0</ele>
        <time>2018-07-29T13:44:30Z</time>
      </trkpt>
      <trkpt lat="40.524750" lon="-4.880600">
        <ele>1999.0</ele>
        <time>2018-07-29T13:44:31Z</time>
      </trkpt>
      <trkpt lat="40.524633" lon="-4.880517">
        <ele>2002.0</ele>
        <time>2018-07-29T13:44:32Z</time>
      </trkpt>
      <trkpt lat="40.524533" lon="-4.880417">
        <ele>2003.0</ele>
        <time>2018-07-29T13:44:33Z</time>
      </trkpt>
      <trkpt lat="40.524417" lon="-4.880283">
        <ele>2004.0</ele>
        <time>2018-07-29T13:44:34Z</time>
      </trkpt>
      <trkpt lat="40.524300" lon="-4.880117">
        <ele>2006.0</ele>
        <time>2018-07-29T13:44:35Z</time>
      </trkpt>
      <trkpt lat="40.524217" lon="-4.879933">
        <ele>2008.0</ele>
        <time>2018-07-29T13:44:36Z</time>
      </trkpt>
      <trkpt lat="40.524150" lon="-4.879750">
        <ele>2011.0</ele>
        <time>2018-07-29T13:44:37Z</time>
      </trkpt>
      <trkpt lat="40.524083" lon="-4.879567">
        <ele>2013.0</ele>
        <time>2018-07-29T13:44:38Z</time>
      </trkpt>
      <trkpt lat="40.524033" lon="-4.879383">
        <ele>2015.0</ele>
        <time>2018-07-29T13:44:39Z</time>
      </trkpt>
      <trkpt lat="40.524000" lon="-4.879217">
        <ele>2017.0</ele>
        <time>2018-07-29T13:44:40Z</time>
      </trkpt>
      <trkpt lat="40.523983" lon="-4.879033">
        <ele>2018.0</ele>
        <time>2018-07-29T13:44:41Z</time>
      </trkpt>
      <trkpt lat="40.524000" lon="-4.878883">
        <ele>2019.0</ele>
        <time>2018-07-29T13:44:42Z</time>
      </trkpt>
      <trkpt lat="40.524033" lon="-4.878717">
        <ele>2020.0</ele>
        <time>2018-07-29T13:44:43Z</time>
      </trkpt>
      <trkpt lat="40.524067" lon="-4.878600">
        <ele>2021.0</ele>
        <time>2018-07-29T13:44:44Z</time>
      </trkpt>
      <trkpt lat="40.524133" lon="-4.878483">
        <ele>2022.0</ele>
        <time>2018-07-29T13:44:45Z</time>
      </trkpt>
      <trkpt lat="40.524200" lon="-4.878400">
        <ele>2023.0</ele>
        <time>2018-07-29T13:44:46Z</time>
      </trkpt>
      <trkpt lat="40.524267" lon="-4.878350">
        <ele>2025.0</ele>
        <time>2018-07-29T13:44:47Z</time>
      </trkpt>
      <trkpt lat="40.524317" lon="-4.878317">
        <ele>2027.0</ele>
        <time>2018-07-29T13:44:48Z</time>
      </trkpt>
      <trkpt lat="40.524367" lon="-4.878283">
        <ele>2029.0</ele>
        <time>2018-07-29T13:44:49Z</time>
      </trkpt>
      <trkpt lat="40.524417" lon="-4.878283">
        <ele>2030.0</ele>
        <time>2018-07-29T13:44:50Z</time>
      </trkpt>
      <trkpt lat="40.524433" lon="-4.878283">
        <ele>2032.0</ele>
        <time>2018-07-29T13:44:51Z</time>
      </trkpt>
      <trkpt lat="40.524450" lon="-4.878317">
        <ele>2033.0</ele>
        <time>2018-07-29T13:44:52Z</time>
      </trkpt>
      <trkpt lat="40.524450" lon="-4.878350">
        <ele>2033.0</ele>
        <time>2018-07-29T13:44:53Z</time>
      </trkpt>
      <trkpt lat="40.524433" lon="-4.878400">
        <ele>2034.0</ele>
        <time>2018-07-29T13:44:54Z</time>
      </trkpt>
      <trkpt lat="40.524400" lon="-4.878450">
        <ele>2034.0</ele>
        <time>2018-07-29T13:44:55Z</time>
      </trkpt>
      <trkpt lat="40.524333" lon="-4.878500">
        <ele>2036.0</ele>
        <time>2018-07-29T13:44:56Z</time>
      </trkpt>
      <trkpt lat="40.524267" lon="-4.878567">
        <ele>2039.0</ele>
        <time>2018-07-29T13:44:57Z</time>
      </trkpt>
      <trkpt lat="40.524183" lon="-4.878617">
        <ele>2042.0</ele>
        <time>2018-07-29T13:44:58Z</time>
      </trkpt>
      <trkpt lat="40.524100" lon="-4.878650">
        <ele>2044.0</ele>
        <time>2018-07-29T13:44:59Z</time>
      </trkpt>
      <trkpt lat="40.524000" lon="-4.878650">
        <ele>2047.0</ele>
        <time>2018-07-29T13:45:00Z</time>
      </trkpt>
      <trkpt lat="40.523917" lon="-4.878650">
        <ele>2049.0</ele>
        <time>2018-07-29T13:45:01Z</time>
      </trkpt>
      <trkpt lat="40.523817" lon="-4.878617">
        <ele>2050.0</ele>
        <time>2018-07-29T13:45:02Z</time>
      </trkpt>
      <trkpt lat="40.523683" lon="-4.878583">
        <ele>2050.0</ele>
        <time>2018-07-29T13:45:03Z</time>
      </trkpt>
      <trkpt lat="40.523550" lon="-4.878517">
        <ele>2050.0</ele>
        <time>2018-07-29T13:45:04Z</time>
      </trkpt>
      <trkpt lat="40.523400" lon="-4.878433">
        <ele>2050.0</ele>
        <time>2018-07-29T13:45:05Z</time>
      </trkpt>
      <trkpt lat="40.523267" lon="-4.878300">
        <ele>2051.0</ele>
        <time>2018-07-29T13:45:06Z</time>
      </trkpt>
      <trkpt lat="40.523133" lon="-4.878150">
        <ele>2052.0</ele>
        <time>2018-07-29T13:45:07Z</time>
      </trkpt>
      <trkpt lat="40.523033" lon="-4.877983">
        <ele>2054.0</ele>
        <time>2018-07-29T13:45:08Z</time>
      </trkpt>
      <trkpt lat="40.522950" lon="-4.877817">
        <ele>2057.0</ele>
        <time>2018-07-29T13:45:09Z</time>
      </trkpt>
      <trkpt lat="40.522867" lon="-4.877650">
        <ele>2060.0</ele>
        <time>2018-07-29T13:45:10Z</time>
      </trkpt>
      <trkpt lat="40.522817" lon="-4.877500">
        <ele>2061.0</ele>
        <time>2018-07-29T13:45:11Z</time>
      </trkpt>
      <trkpt lat="40.522767" lon="-4.877333">
        <ele>2062.0</ele>
        <time>2018-07-29T13:45:12Z</time>
      </trkpt>
      <trkpt lat="40.522733" lon="-4.877150">
        <ele>2063.0</ele>
        <time>2018-07-29T13:45:13Z</time>
      </trkpt>
      <trkpt lat="40.522717" lon="-4.876983">
        <ele>2063.0</ele>
        <time>2018-07-29T13:45:14Z</time>
      </trkpt>
      <trkpt lat="40.522717" lon="-4.876817">
        <ele>2063.0</ele>
        <time>2018-07-29T13:45:15Z</time>
      </trkpt>
      <trkpt lat="40.522750" lon="-4.876667">
        <ele>2063.0</ele>
        <time>2018-07-29T13:45:16Z</time>
      </trkpt>
      <trkpt lat="40.522767" lon="-4.876517">
        <ele>2063.0</ele>
        <time>2018-07-29T13:45:17Z</time>
      </trkpt>
      <trkpt lat="40.522800" lon="-4.876400">
        <ele>2062.0</ele>
        <time>2018-07-29T13:45:18Z</time>
      </trkpt>
      <trkpt lat="40.522850" lon="-4.876283">
        <ele>2062.0</ele>
        <time>2018-07-29T13:45:19Z</time>
      </trkpt>
      <trkpt lat="40.522917" lon="-4.876183">
        <ele>2062.0</ele>
        <time>2018-07-29T13:45:20Z</time>
      </trkpt>
      <trkpt lat="40.522967" lon="-4.876100">
        <ele>2062.0</ele>
        <time>2018-07-29T13:45:21Z</time>
      </trkpt>
      <trkpt lat="40.523033" lon="-4.876033">
        <ele>2063.0</ele>
        <time>2018-07-29T13:45:22Z</time>
      </trkpt>
      <trkpt lat="40.523100" lon="-4.875967">
        <ele>2064.0</ele>
        <time>2018-07-29T13:45:23Z</time>
      </trkpt>
      <trkpt lat="40.523150" lon="-4.875900">
        <ele>2066.0</ele>
        <time>2018-07-29T13:45:24Z</time>
      </trkpt>
      <trkpt lat="40.523200" lon="-4.875850">
        <ele>2068.0</ele>
        <time>2018-07-29T13:45:25Z</time>
      </trkpt>
      <trkpt lat="40.523233" lon="-4.875800">
        <ele>2070.0</ele>
        <time>2018-07-29T13:45:26Z</time>
      </trkpt>
      <trkpt lat="40.523267" lon="-4.875783">
        <ele>2072.0</ele>
        <time>2018-07-29T13:45:27Z</time>
      </trkpt>
      <trkpt lat="40.523283" lon="-4.875783">
        <ele>2074.0</ele>
        <time>2018-07-29T13:45:28Z</time>
      </trkpt>
      <trkpt lat="40.523283" lon="-4.875783">
        <ele>2076.0</ele>
        <time>2018-07-29T13:45:29Z</time>
      </trkpt>
      <trkpt lat="40.523283" lon="-4.875817">
        <ele>2079.0</ele>
        <time>2018-07-29T13:45:30Z</time>
      </trkpt>
      <trkpt lat="40.523250" lon="-4.875833">
        <ele>2082.0</ele>
        <time>2018-07-29T13:45:31Z</time>
      </trkpt>
      <trkpt lat="40.523200" lon="-4.875867">
        <ele>2083.0</ele>
        <time>2018-07-29T13:45:32Z</time>
      </trkpt>
      <trkpt lat="40.523133" lon="-4.875900">
        <ele>2086.0</ele>
        <time>2018-07-29T13:45:33Z</time>
      </trkpt>
      <trkpt lat="40.523050" lon="-4.875917">
        <ele>2090.0</ele>
        <time>2018-07-29T13:45:34Z</time>
      </trkpt>
      <trkpt lat="40.522933" lon="-4.875900">
        <ele>2092.0</ele>
        <time>2018-07-29T13:45:35Z</time>
      </trkpt>
      <trkpt lat="40.522800" lon="-4.875850">
        <ele>2094.0</ele>
        <time>2018-07-29T13:45:36Z</time>
      </trkpt>
      <trkpt lat="40.522683" lon="-4.875767">
        <ele>2095.0</ele>
        <time>2018-07-29T13:45:37Z</time>
      </trkpt>
      <trkpt lat="40.522550" lon="-4.875650">
        <ele>2096.0</ele>
        <time>2018-07-29T13:45:38Z</time>
      </trkpt>
      <trkpt lat="40.522450" lon="-4.875517">
        <ele>2098.0</ele>
        <time>2018-07-29T13:45:39Z</time>
      </trkpt>
      <trkpt lat="40.522350" lon="-4.875350">
        <ele>2099.0</ele>
        <time>2018-07-29T13:45:40Z</time>
      </trkpt>
      <trkpt lat="40.522283" lon="-4.875167">
        <ele>2101.0</ele>
        <time>2018-07-29T13:45:41Z</time>
      </trkpt>
      <trkpt lat="40.522250" lon="-4.874967">
        <ele>2101.0</ele>
        <time>2018-07-29T13:45:42Z</time>
      </trkpt>
      <trkpt lat="40.522267" lon="-4.874800">
        <ele>2101.0</ele>
        <time>2018-07-29T13:45:43Z</time>
      </trkpt>
      <trkpt lat="40.522283" lon="-4.874650">
        <ele>2102.0</ele>
        <time>2018-07-29T13:45:44Z</time>
      </trkpt>
      <trkpt lat="40.522333" lon="-4.874517">
        <ele>2102.0</ele>
        <time>2018-07-29T13:45:45Z</time>
      </trkpt>
      <trkpt lat="40.522383" lon="-4.874400">
        <ele>2102.0</ele>
        <time>2018-07-29T13:45:46Z</time>
      </trkpt>
      <trkpt lat="40.522433" lon="-4.874300">
        <ele>2103.0</ele>
        <time>2018-07-29T13:45:47Z</time>
      </trkpt>
      <trkpt lat="40.522500" lon="-4.874233">
        <ele>2105.0</ele>
        <time>2018-07-29T13:45:48Z</time>
      </trkpt>
      <trkpt lat="40.522550" lon="-4.874200">
        <ele>2107.0</ele>
        <time>2018-07-29T13:45:49Z</time>
      </trkpt>
      <trkpt lat="40.522600" lon="-4.874200">
        <ele>2109.0</ele>
        <time>2018-07-29T13:45:50Z</time>
      </trkpt>
      <trkpt lat="40.522617" lon="-4.874200">
        <ele>2112.0</ele>
        <time>2018-07-29T13:45:51Z</time>
      </trkpt>
      <trkpt lat="40.522617" lon="-4.874233">
        <ele>2113.0</ele>
        <time>2018-07-29T13:45:52Z</time>
      </trkpt>
      <trkpt lat="40.522600" lon="-4.874300">
        <ele>2114.0</ele>
        <time>2018-07-29T13:45:53Z</time>
      </trkpt>
      <trkpt lat="40.522550" lon="-4.874367">
        <ele>2114.0</ele>
        <time>2018-07-29T13:45:54Z</time>
      </trkpt>
      <trkpt lat="40.522483" lon="-4.874450">
        <ele>2116.0</ele>
        <time>2018-07-29T13:45:55Z</time>
      </trkpt>
      <trkpt lat="40.522400" lon="-4.874500">
        <ele>2119.0</ele>
        <time>2018-07-29T13:45:56Z</time>
      </trkpt>
      <trkpt lat="40.522317" lon="-4.874550">
        <ele>2121.0</ele>
        <time>2018-07-29T13:45:57Z</time>
      </trkpt>
      <trkpt lat="40.522217" lon="-4.874583">
        <ele>2123.0</ele>
        <time>2018-07-29T13:45:58Z</time>
      </trkpt>
      <trkpt lat="40.522117" lon="-4.874617">
        <ele>2123.0</ele>
        <time>2018-07-29T13:45:59Z</time>
      </trkpt>
      <trkpt lat="40.521983" lon="-4.874650">
        <ele>2123.0</ele>
        <time>2018-07-29T13:46:00Z</time>
      </trkpt>
      <trkpt lat="40.521850" lon="-4.874667">
        <ele>2125.0</ele>
        <time>2018-07-29T13:46:01Z</time>
      </trkpt>
      <trkpt lat="40.521700" lon="-4.874667">
        <ele>2128.0</ele>
        <time>2018-07-29T13:46:02Z</time>
      </trkpt>
      <trkpt lat="40.521550" lon="-4.874667">
        <ele>2133.0</ele>
        <time>2018-07-29T13:46:03Z</time>
      </trkpt>
      <trkpt lat="40.521417" lon="-4.874633">
        <ele>2137.0</ele>
        <time>2018-07-29T13:46:04Z</time>
      </trkpt>
      <trkpt lat="40.521283" lon="-4.874600">
        <ele>2140.0</ele>
        <time>2018-07-29T13:46:05Z</time>
      </trkpt>
      <trkpt lat="40.521150" lon="-4.874567">
        <ele>2143.0</ele>
        <time>2018-07-29T13:46:06Z</time>
      </trkpt>
      <trkpt lat="40.521017" lon="-4.874517">
        <ele>2145.0</ele>
        <time>2018-07-29T13:46:07Z</time>
      </trkpt>
      <trkpt lat="40.520883" lon="-4.874467">
        <ele>2146.0</ele>
        <time>2018-07-29T13:46:08Z</time>
      </trkpt>
      <trkpt lat="40.520750" lon="-4.874383">
        <ele>2148.0</ele>
        <time>2018-07-29T13:46:09Z</time>
      </trkpt>
      <trkpt lat="40.520617" lon="-4.874267">
        <ele>2149.0</ele>
        <time>2018-07-29T13:46:10Z</time>
      </trkpt>
      <trkpt lat="40.520517" lon="-4.874133">
        <ele>2150.0</ele>
        <time>2018-07-29T13:46:11Z</time>
      </trkpt>
      <trkpt lat="40.520417" lon="-4.873983">
        <ele>2150.0</ele>
        <time>2018-07-29T13:46:12Z</time>
      </trkpt>
      <trkpt lat="40.520333" lon="-4.873817">
        <ele>2151.0</ele>
        <time>2018-07-29T13:46:13Z</time>
      </trkpt>
      <trkpt lat="40.520283" lon="-4.873650">
        <ele>2150.0</ele>
        <time>2018-07-29T13:46:14Z</time>
      </trkpt>
      <trkpt lat="40.520267" lon="-4.873483">
        <ele>2150.0</ele>
        <time>2018-07-29T13:46:15Z</time>
      </trkpt>
      <trkpt lat="40.520250" lon="-4.873317">
        <ele>2149.0</ele>
        <time>2018-07-29T13:46:16Z</time>
      </trkpt>
      <trkpt lat="40.520267" lon="-4.873167">
        <ele>2149.0</ele>
        <time>2018-07-29T13:46:17Z</time>
      </trkpt>
      <trkpt lat="40.520283" lon="-4.873033">
        <ele>2148.0</ele>
        <time>2018-07-29T13:46:18Z</time>
      </trkpt>
      <trkpt lat="40.520317" lon="-4.872917">
        <ele>2148.0</ele>
        <time>2018-07-29T13:46:19Z</time>
      </trkpt>
      <trkpt lat="40.520367" lon="-4.872817">
        <ele>2147.0</ele>
        <time>2018-07-29T13:46:20Z</time>
      </trkpt>
      <trkpt lat="40.520433" lon="-4.872750">
        <ele>2146.0</ele>
        <time>2018-07-29T13:46:21Z</time>
      </trkpt>
      <trkpt lat="40.520483" lon="-4.872717">
        <ele>2145.0</ele>
        <time>2018-07-29T13:46:22Z</time>
      </trkpt>
      <trkpt lat="40.520550" lon="-4.872733">
        <ele>2144.0</ele>
        <time>2018-07-29T13:46:23Z</time>
      </trkpt>
      <trkpt lat="40.520600" lon="-4.872767">
        <ele>2144.0</ele>
        <time>2018-07-29T13:46:24Z</time>
      </trkpt>
      <trkpt lat="40.520633" lon="-4.872833">
        <ele>2144.0</ele>
        <time>2018-07-29T13:46:25Z</time>
      </trkpt>
      <trkpt lat="40.520667" lon="-4.872917">
        <ele>2147.0</ele>
        <time>2018-07-29T13:46:26Z</time>
      </trkpt>
      <trkpt lat="40.520667" lon="-4.872983">
        <ele>2151.0</ele>
        <time>2018-07-29T13:46:27Z</time>
      </trkpt>
      <trkpt lat="40.520650" lon="-4.873017">
        <ele>2154.0</ele>
        <time>2018-07-29T13:46:28Z</time>
      </trkpt>
      <trkpt lat="40.520650" lon="-4.873067">
        <ele>2157.0</ele>
        <time>2018-07-29T13:46:29Z</time>
      </trkpt>
      <trkpt lat="40.520633" lon="-4.873100">
        <ele>2158.0</ele>
        <time>2018-07-29T13:46:30Z</time>
      </trkpt>
      <trkpt lat="40.520617" lon="-4.873183">
        <ele>2158.0</ele>
        <time>2018-07-29T13:46:31Z</time>
      </trkpt>
      <trkpt lat="40.520583" lon="-4.873250">
        <ele>2160.0</ele>
        <time>2018-07-29T13:46:32Z</time>
      </trkpt>
      <trkpt lat="40.520533" lon="-4.873333">
        <ele>2162.0</ele>
        <time>2018-07-29T13:46:33Z</time>
      </trkpt>
      <trkpt lat="40.520483" lon="-4.873400">
        <ele>2165.0</ele>
        <time>2018-07-29T13:46:34Z</time>
      </trkpt>
      <trkpt lat="40.520417" lon="-4.873450">
        <ele>2169.0</ele>
        <time>2018-07-29T13:46:35Z</time>
      </trkpt>
      <trkpt lat="40.520317" lon="-4.873517">
        <ele>2172.0</ele>
        <time>2018-07-29T13:46:36Z</time>
      </trkpt>
      <trkpt lat="40.520233" lon="-4.873550">
        <ele>2175.0</ele>
        <time>2018-07-29T13:46:37Z</time>
      </trkpt>
      <trkpt lat="40.520117" lon="-4.873583">
        <ele>2178.0</ele>
        <time>2018-07-29T13:46:38Z</time>
      </trkpt>
      <trkpt lat="40.520000" lon="-4.873600">
        <ele>2182.0</ele>
        <time>2018-07-29T13:46:39Z</time>
      </trkpt>
      <trkpt lat="40.519867" lon="-4.873600">
        <ele>2184.0</ele>
        <time>2018-07-29T13:46:40Z</time>
      </trkpt>
      <trkpt lat="40.519733" lon="-4.873567">
        <ele>2186.0</ele>
        <time>2018-07-29T13:46:41Z</time>
      </trkpt>
      <trkpt lat="40.519600" lon="-4.873500">
        <ele>2188.0</ele>
        <time>2018-07-29T13:46:42Z</time>
      </trkpt>
      <trkpt lat="40.519483" lon="-4.873417">
        <ele>2190.0</ele>
        <time>2018-07-29T13:46:43Z</time>
      </trkpt>
      <trkpt lat="40.519367" lon="-4.873300">
        <ele>2192.0</ele>
        <time>2018-07-29T13:46:44Z</time>
      </trkpt>
      <trkpt lat="40.519267" lon="-4.873150">
        <ele>2194.0</ele>
        <time>2018-07-29T13:46:45Z</time>
      </trkpt>
      <trkpt lat="40.519200" lon="-4.873000">
        <ele>2196.0</ele>
        <time>2018-07-29T13:46:46Z</time>
      </trkpt>
      <trkpt lat="40.519150" lon="-4.872850">
        <ele>2197.0</ele>
        <time>2018-07-29T13:46:47Z</time>
      </trkpt>
      <trkpt lat="40.519117" lon="-4.872683">
        <ele>2197.0</ele>
        <time>2018-07-29T13:46:48Z</time>
      </trkpt>
      <trkpt lat="40.519133" lon="-4.872533">
        <ele>2197.0</ele>
        <time>2018-07-29T13:46:49Z</time>
      </trkpt>
      <trkpt lat="40.519150" lon="-4.872400">
        <ele>2196.0</ele>
        <time>2018-07-29T13:46:50Z</time>
      </trkpt>
      <trkpt lat="40.519200" lon="-4.872267">
        <ele>2196.0</ele>
        <time>2018-07-29T13:46:51Z</time>
      </trkpt>
      <trkpt lat="40.519250" lon="-4.872150">
        <ele>2197.0</ele>
        <time>2018-07-29T13:46:52Z</time>
      </trkpt>
      <trkpt lat="40.519300" lon="-4.872067">
        <ele>2199.0</ele>
        <time>2018-07-29T13:46:53Z</time>
      </trkpt>
      <trkpt lat="40.519350" lon="-4.871983">
        <ele>2202.0</ele>
        <time>2018-07-29T13:46:54Z</time>
      </trkpt>
      <trkpt lat="40.519383" lon="-4.871933">
        <ele>2204.0</ele>
        <time>2018-07-29T13:46:55Z</time>
      </trkpt>
      <trkpt lat="40.519433" lon="-4.871883">
        <ele>2205.0</ele>
        <time>2018-07-29T13:46:56Z</time>
      </trkpt>
      <trkpt lat="40.519483" lon="-4.871867">
        <ele>2206.0</ele>
        <time>2018-07-29T13:46:57Z</time>
      </trkpt>
      <trkpt lat="40.519517" lon="-4.871867">
        <ele>2207.0</ele>
        <time>2018-07-29T13:46:58Z</time>
      </trkpt>
      <trkpt lat="40.519567" lon="-4.871867">
        <ele>2209.0</ele>
        <time>2018-07-29T13:46:59Z</time>
      </trkpt>
      <trkpt lat="40.519600" lon="-4.871883">
        <ele>2210.0</ele>
        <time>2018-07-29T13:47:00Z</time>
      </trkpt>
      <trkpt lat="40.519633" lon="-4.871917">
        <ele>2211.0</ele>
        <time>2018-07-29T13:47:01Z</time>
      </trkpt>
      <trkpt lat="40.519650" lon="-4.871950">
        <ele>2212.0</ele>
        <time>2018-07-29T13:47:02Z</time>
      </trkpt>
      <trkpt lat="40.519683" lon="-4.871983">
        <ele>2213.0</ele>
        <time>2018-07-29T13:47:03Z</time>
      </trkpt>
      <trkpt lat="40.519717" lon="-4.872033">
        <ele>2215.0</ele>
        <time>2018-07-29T13:47:04Z</time>
      </trkpt>
      <trkpt lat="40.519750" lon="-4.872083">
        <ele>2217.0</ele>
        <time>2018-07-29T13:47:05Z</time>
      </trkpt>
      <trkpt lat="40.519767" lon="-4.872133">
        <ele>2220.0</ele>
        <time>2018-07-29T13:47:06Z</time>
      </trkpt>
      <trkpt lat="40.519783" lon="-4.872200">
        <ele>2223.0</ele>
        <time>2018-07-29T13:47:07Z</time>
      </trkpt>
      <trkpt lat="40.519800" lon="-4.872267">
        <ele>2227.0</ele>
        <time>2018-07-29T13:47:08Z</time>
      </trkpt>
      <trkpt lat="40.519800" lon="-4.872333">
        <ele>2231.0</ele>
        <time>2018-07-29T13:47:09Z</time>
      </trkpt>
      <trkpt lat="40.519800" lon="-4.872400">
        <ele>2234.0</ele>
        <time>2018-07-29T13:47:10Z</time>
      </trkpt>
      <trkpt lat="40.519783" lon="-4.872483">
        <ele>2238.0</ele>
        <time>2018-07-29T13:47:11Z</time>
      </trkpt>
      <trkpt lat="40.519733" lon="-4.872567">
        <ele>2243.0</ele>
        <time>2018-07-29T13:47:12Z</time>
      </trkpt>
      <trkpt lat="40.519667" lon="-4.872633">
        <ele>2247.0</ele>
        <time>2018-07-29T13:47:13Z</time>
      </trkpt>
      <trkpt lat="40.519583" lon="-4.872683">
        <ele>2252.0</ele>
        <time>2018-07-29T13:47:14Z</time>
      </trkpt>
      <trkpt lat="40.519483" lon="-4.872733">
        <ele>2258.0</ele>
        <time>2018-07-29T13:47:15Z</time>
      </trkpt>
      <trkpt lat="40.519383" lon="-4.872750">
        <ele>2263.0</ele>
        <time>2018-07-29T13:47:16Z</time>
      </trkpt>
      <trkpt lat="40.519267" lon="-4.872750">
        <ele>2268.0</ele>
        <time>2018-07-29T13:47:17Z</time>
      </trkpt>
      <trkpt lat="40.519150" lon="-4.872733">
        <ele>2271.0</ele>
        <time>2018-07-29T13:47:18Z</time>
      </trkpt>
      <trkpt lat="40.519033" lon="-4.872683">
        <ele>2275.0</ele>
        <time>2018-07-29T13:47:19Z</time>
      </trkpt>
      <trkpt lat="40.518917" lon="-4.872617">
        <ele>2278.0</ele>
        <time>2018-07-29T13:47:20Z</time>
      </trkpt>
      <trkpt lat="40.518783" lon="-4.872517">
        <ele>2281.0</ele>
        <time>2018-07-29T13:47:21Z</time>
      </trkpt>
      <trkpt lat="40.518667" lon="-4.872383">
        <ele>2284.0</ele>
        <time>2018-07-29T13:47:22Z</time>
      </trkpt>
      <trkpt lat="40.518583" lon="-4.872233">
        <ele>2289.0</ele>
        <time>2018-07-29T13:47:23Z</time>
      </trkpt>
      <trkpt lat="40.518517" lon="-4.872067">
        <ele>2294.0</ele>
        <time>2018-07-29T13:47:24Z</time>
      </trkpt>
      <trkpt lat="40.518483" lon="-4.871917">
        <ele>2297.0</ele>
        <time>2018-07-29T13:47:25Z</time>
      </trkpt>
      <trkpt lat="40.518467" lon="-4.871767">
        <ele>2301.0</ele>
        <time>2018-07-29T13:47:26Z</time>
      </trkpt>
      <trkpt lat="40.518467" lon="-4.871633">
        <ele>2303.0</ele>
        <time>2018-07-29T13:47:27Z</time>
      </trkpt>
      <trkpt lat="40.518483" lon="-4.871517">
        <ele>2305.0</ele>
        <time>2018-07-29T13:47:28Z</time>
      </trkpt>
      <trkpt lat="40.518500" lon="-4.871400">
        <ele>2306.0</ele>
        <time>2018-07-29T13:47:29Z</time>
      </trkpt>
      <trkpt lat="40.518550" lon="-4.871300">
        <ele>2306.0</ele>
        <time>2018-07-29T13:47:30Z</time>
      </trkpt>
      <trkpt lat="40.518600" lon="-4.871217">
        <ele>2307.0</ele>
        <time>2018-07-29T13:47:31Z</time>
      </trkpt>
      <trkpt lat="40.518667" lon="-4.871183">
        <ele>2307.0</ele>
        <time>2018-07-29T13:47:32Z</time>
      </trkpt>
      <trkpt lat="40.518750" lon="-4.871167">
        <ele>2308.0</ele>
        <time>2018-07-29T13:47:33Z</time>
      </trkpt>
      <trkpt lat="40.518817" lon="-4.871150">
        <ele>2310.0</ele>
        <time>2018-07-29T13:47:34Z</time>
      </trkpt>
      <trkpt lat="40.518883" lon="-4.871150">
        <ele>2314.0</ele>
        <time>2018-07-29T13:47:35Z</time>
      </trkpt>
      <trkpt lat="40.518950" lon="-4.871133">
        <ele>2318.0</ele>
        <time>2018-07-29T13:47:36Z</time>
      </trkpt>
      <trkpt lat="40.519033" lon="-4.871100">
        <ele>2322.0</ele>
        <time>2018-07-29T13:47:37Z</time>
      </trkpt>
      <trkpt lat="40.519117" lon="-4.871067">
        <ele>2326.0</ele>
        <time>2018-07-29T13:47:38Z</time>
      </trkpt>
      <trkpt lat="40.519183" lon="-4.871067">
        <ele>2331.0</ele>
        <time>2018-07-29T13:47:39Z</time>
      </trkpt>
      <trkpt lat="40.519233" lon="-4.871100">
        <ele>2335.0</ele>
        <time>2018-07-29T13:47:40Z</time>
      </trkpt>
      <trkpt lat="40.519283" lon="-4.871150">
        <ele>2340.0</ele>
        <time>2018-07-29T13:47:41Z</time>
      </trkpt>
      <trkpt lat="40.519300" lon="-4.871200">
        <ele>2344.0</ele>
        <time>2018-07-29T13:47:42Z</time>
      </trkpt>
      <trkpt lat="40.519300" lon="-4.871283">
        <ele>2348.0</ele>
        <time>2018-07-29T13:47:43Z</time>
      </trkpt>
      <trkpt lat="40.519283" lon="-4.871383">
        <ele>2352.0</ele>
        <time>2018-07-29T13:47:44Z</time>
      </trkpt>
      <trkpt lat="40.519233" lon="-4.871450">
        <ele>2356.0</ele>
        <time>2018-07-29T13:47:45Z</time>
      </trkpt>
      <trkpt lat="40.519167" lon="-4.871517">
        <ele>2361.0</ele>
        <time>2018-07-29T13:47:46Z</time>
      </trkpt>
      <trkpt lat="40.519100" lon="-4.871567">
        <ele>2365.0</ele>
        <time>2018-07-29T13:47:47Z</time>
      </trkpt>
      <trkpt lat="40.519017" lon="-4.871617">
        <ele>2368.0</ele>
        <time>2018-07-29T13:47:48Z</time>
      </trkpt>
      <trkpt lat="40.518900" lon="-4.871650">
        <ele>2371.0</ele>
        <time>2018-07-29T13:47:49Z</time>
      </trkpt>
      <trkpt lat="40.518783" lon="-4.871650">
        <ele>2374.0</ele>
        <time>2018-07-29T13:47:50Z</time>
      </trkpt>
      <trkpt lat="40.518667" lon="-4.871617">
        <ele>2378.0</ele>
        <time>2018-07-29T13:47:51Z</time>
      </trkpt>
      <trkpt lat="40.518533" lon="-4.871550">
        <ele>2381.0</ele>
        <time>2018-07-29T13:47:52Z</time>
      </trkpt>
      <trkpt lat="40.518433" lon="-4.871450">
        <ele>2384.0</ele>
        <time>2018-07-29T13:47:53Z</time>
      </trkpt>
      <trkpt lat="40.518333" lon="-4.871350">
        <ele>2388.0</ele>
        <time>2018-07-29T13:47:54Z</time>
      </trkpt>
      <trkpt lat="40.518250" lon="-4.871217">
        <ele>2391.0</ele>
        <time>2018-07-29T13:47:55Z</time>
      </trkpt>
      <trkpt lat="40.518183" lon="-4.871083">
        <ele>2394.0</ele>
        <time>2018-07-29T13:47:56Z</time>
      </trkpt>
      <trkpt lat="40.518133" lon="-4.870950">
        <ele>2397.0</ele>
        <time>2018-07-29T13:47:57Z</time>
      </trkpt>
      <trkpt lat="40.518083" lon="-4.870817">
        <ele>2400.0</ele>
        <time>2018-07-29T13:47:58Z</time>
      </trkpt>
      <trkpt lat="40.518050" lon="-4.870683">
        <ele>2404.0</ele>
        <time>2018-07-29T13:47:59Z</time>
      </trkpt>
      <trkpt lat="40.518050" lon="-4.870550">
        <ele>2408.0</ele>
        <time>2018-07-29T13:48:00Z</time>
      </trkpt>
      <trkpt lat="40.518067" lon="-4.870433">
        <ele>2411.0</ele>
        <time>2018-07-29T13:48:01Z</time>
      </trkpt>
      <trkpt lat="40.518100" lon="-4.870350">
        <ele>2414.0</ele>
        <time>2018-07-29T13:48:02Z</time>
      </trkpt>
      <trkpt lat="40.518167" lon="-4.870267">
        <ele>2417.0</ele>
        <time>2018-07-29T13:48:03Z</time>
      </trkpt>
      <trkpt lat="40.518233" lon="-4.870200">
        <ele>2419.0</ele>
        <time>2018-07-29T13:48:04Z</time>
      </trkpt>
      <trkpt lat="40.518317" lon="-4.870183">
        <ele>2421.0</ele>
        <time>2018-07-29T13:48:05Z</time>
      </trkpt>
      <trkpt lat="40.518417" lon="-4.870167">
        <ele>2424.0</ele>
        <time>2018-07-29T13:48:06Z</time>
      </trkpt>
      <trkpt lat="40.518500" lon="-4.870200">
        <ele>2430.0</ele>
        <time>2018-07-29T13:48:07Z</time>
      </trkpt>
      <trkpt lat="40.518567" lon="-4.870233">
        <ele>2436.0</ele>
        <time>2018-07-29T13:48:08Z</time>
      </trkpt>
      <trkpt lat="40.518600" lon="-4.870267">
        <ele>2440.0</ele>
        <time>2018-07-29T13:48:09Z</time>
      </trkpt>
      <trkpt lat="40.518633" lon="-4.870317">
        <ele>2443.0</ele>
        <time>2018-07-29T13:48:10Z</time>
      </trkpt>
      <trkpt lat="40.518650" lon="-4.870383">
        <ele>2445.0</ele>
        <time>2018-07-29T13:48:11Z</time>
      </trkpt>
      <trkpt lat="40.518683" lon="-4.870483">
        <ele>2445.0</ele>
        <time>2018-07-29T13:48:12Z</time>
      </trkpt>
      <trkpt lat="40.518683" lon="-4.870600">
        <ele>2447.0</ele>
        <time>2018-07-29T13:48:13Z</time>
      </trkpt>
      <trkpt lat="40.518667" lon="-4.870717">
        <ele>2450.0</ele>
        <time>2018-07-29T13:48:14Z</time>
      </trkpt>
      <trkpt lat="40.518617" lon="-4.870800">
        <ele>2453.0</ele>
        <time>2018-07-29T13:48:15Z</time>
      </trkpt>
      <trkpt lat="40.518533" lon="-4.870867">
        <ele>2455.0</ele>
        <time>2018-07-29T13:48:16Z</time>
      </trkpt>
      <trkpt lat="40.518433" lon="-4.870883">
        <ele>2456.0</ele>
        <time>2018-07-29T13:48:17Z</time>
      </trkpt>
      <trkpt lat="40.518333" lon="-4.870867">
        <ele>2458.0</ele>
        <time>2018-07-29T13:48:18Z</time>
      </trkpt>
      <trkpt lat="40.518217" lon="-4.870833">
        <ele>2459.0</ele>
        <time>2018-07-29T13:48:19Z</time>
      </trkpt>
      <trkpt lat="40.518133" lon="-4.870750">
        <ele>2460.0</ele>
        <time>2018-07-29T13:48:20Z</time>
      </trkpt>
      <trkpt lat="40.518067" lon="-4.870633">
        <ele>2462.0</ele>
        <time>2018-07-29T13:48:21Z</time>
      </trkpt>
      <trkpt lat="40.518000" lon="-4.870517">
        <ele>2463.0</ele>
        <time>2018-07-29T13:48:22Z</time>
      </trkpt>
      <trkpt lat="40.517950" lon="-4.870383">
        <ele>2466.0</ele>
        <time>2018-07-29T13:48:23Z</time>
      </trkpt>
      <trkpt lat="40.517917" lon="-4.870250">
        <ele>2468.0</ele>
        <time>2018-07-29T13:48:24Z</time>
      </trkpt>
      <trkpt lat="40.517883" lon="-4.870117">
        <ele>2470.0</ele>
        <time>2018-07-29T13:48:25Z</time>
      </trkpt>
      <trkpt lat="40.517883" lon="-4.869983">
        <ele>2472.0</ele>
        <time>2018-07-29T13:48:26Z</time>
      </trkpt>
      <trkpt lat="40.517900" lon="-4.869833">
        <ele>2474.0</ele>
        <time>2018-07-29T13:48:27Z</time>
      </trkpt>
      <trkpt lat="40.517950" lon="-4.869700">
        <ele>2476.0</ele>
        <time>2018-07-29T13:48:28Z</time>
      </trkpt>
      <trkpt lat="40.518017" lon="-4.869600">
        <ele>2479.0</ele>
        <time>2018-07-29T13:48:29Z</time>
      </trkpt>
      <trkpt lat="40.518100" lon="-4.869533">
        <ele>2482.0</ele>
        <time>2018-07-29T13:48:30Z</time>
      </trkpt>
      <trkpt lat="40.518200" lon="-4.869500">
        <ele>2486.0</ele>
        <time>2018-07-29T13:48:31Z</time>
      </trkpt>
      <trkpt lat="40.518267" lon="-4.869500">
        <ele>2491.0</ele>
        <time>2018-07-29T13:48:32Z</time>
      </trkpt>
      <trkpt lat="40.518317" lon="-4.869533">
        <ele>2494.0</ele>
        <time>2018-07-29T13:48:33Z</time>
      </trkpt>
      <trkpt lat="40.518350" lon="-4.869583">
        <ele>2496.0</ele>
        <time>2018-07-29T13:48:34Z</time>
      </trkpt>
      <trkpt lat="40.518367" lon="-4.869667">
        <ele>2498.0</ele>
        <time>2018-07-29T13:48:35Z</time>
      </trkpt>
      <trkpt lat="40.518350" lon="-4.869750">
        <ele>2498.0</ele>
        <time>2018-07-29T13:48:36Z</time>
      </trkpt>
      <trkpt lat="40.518317" lon="-4.869850">
        <ele>2499.0</ele>
        <time>2018-07-29T13:48:37Z</time>
      </trkpt>
      <trkpt lat="40.518267" lon="-4.869933">
        <ele>2501.0</ele>
        <time>2018-07-29T13:48:38Z</time>
      </trkpt>
      <trkpt lat="40.518200" lon="-4.869983">
        <ele>2502.0</ele>
        <time>2018-07-29T13:48:39Z</time>
      </trkpt>
      <trkpt lat="40.518100" lon="-4.870033">
        <ele>2503.0</ele>
        <time>2018-07-29T13:48:40Z</time>
      </trkpt>
      <trkpt lat="40.518000" lon="-4.870033">
        <ele>2503.0</ele>
        <time>2018-07-29T13:48:41Z</time>
      </trkpt>
      <trkpt lat="40.517900" lon="-4.870000">
        <ele>2504.0</ele>
        <time>2018-07-29T13:48:42Z</time>
      </trkpt>
      <trkpt lat="40.517783" lon="-4.869933">
        <ele>2506.0</ele>
        <time>2018-07-29T13:48:43Z</time>
      </trkpt>
      <trkpt lat="40.517700" lon="-4.869833">
        <ele>2508.0</ele>
        <time>2018-07-29T13:48:44Z</time>
      </trkpt>
      <trkpt lat="40.517617" lon="-4.869717">
        <ele>2512.0</ele>
        <time>2018-07-29T13:48:45Z</time>
      </trkpt>
      <trkpt lat="40.517567" lon="-4.869600">
        <ele>2514.0</ele>
        <time>2018-07-29T13:48:46Z</time>
      </trkpt>
      <trkpt lat="40.517533" lon="-4.869467">
        <ele>2516.0</ele>
        <time>2018-07-29T13:48:47Z</time>
      </trkpt>
      <trkpt lat="40.517533" lon="-4.869333">
        <ele>2518.0</ele>
        <time>2018-07-29T13:48:48Z</time>
      </trkpt>
      <trkpt lat="40.517533" lon="-4.869183">
        <ele>2519.0</ele>
        <time>2018-07-29T13:48:49Z</time>
      </trkpt>
      <trkpt lat="40.517567" lon="-4.869050">
        <ele>2519.0</ele>
        <time>2018-07-29T13:48:50Z</time>
      </trkpt>
      <trkpt lat="40.517617" lon="-4.868933">
        <ele>2520.0</ele>
        <time>2018-07-29T13:48:51Z</time>
      </trkpt>
      <trkpt lat="40.517683" lon="-4.868850">
        <ele>2521.0</ele>
        <time>2018-07-29T13:48:52Z</time>
      </trkpt>
      <trkpt lat="40.517767" lon="-4.868767">
        <ele>2522.0</ele>
        <time>2018-07-29T13:48:53Z</time>
      </trkpt>
      <trkpt lat="40.517833" lon="-4.868717">
        <ele>2524.0</ele>
        <time>2018-07-29T13:48:54Z</time>
      </trkpt>
      <trkpt lat="40.517883" lon="-4.868683">
        <ele>2526.0</ele>
        <time>2018-07-29T13:48:55Z</time>
      </trkpt>
      <trkpt lat="40.517933" lon="-4.868683">
        <ele>2528.0</ele>
        <time>2018-07-29T13:48:56Z</time>
      </trkpt>
      <trkpt lat="40.517950" lon="-4.868700">
        <ele>2529.0</ele>
        <time>2018-07-29T13:48:57Z</time>
      </trkpt>
      <trkpt lat="40.517967" lon="-4.868767">
        <ele>2528.0</ele>
        <time>2018-07-29T13:48:58Z</time>
      </trkpt>
      <trkpt lat="40.517950" lon="-4.868833">
        <ele>2528.0</ele>
        <time>2018-07-29T13:48:59Z</time>
      </trkpt>
      <trkpt lat="40.517933" lon="-4.868933">
        <ele>2528.0</ele>
        <time>2018-07-29T13:49:00Z</time>
      </trkpt>
      <trkpt lat="40.517883" lon="-4.869017">
        <ele>2529.0</ele>
        <time>2018-07-29T13:49:01Z</time>
      </trkpt>
      <trkpt lat="40.517800" lon="-4.869083">
        <ele>2531.0</ele>
        <time>2018-07-29T13:49:02Z</time>
      </trkpt>
      <trkpt lat="40.517717" lon="-4.869117">
        <ele>2531.0</ele>
        <time>2018-07-29T13:49:03Z</time>
      </trkpt>
      <trkpt lat="40.517600" lon="-4.869133">
        <ele>2532.0</ele>
        <time>2018-07-29T13:49:04Z</time>
      </trkpt>
      <trkpt lat="40.517483" lon="-4.869133">
        <ele>2531.0</ele>
        <time>2018-07-29T13:49:05Z</time>
      </trkpt>
      <trkpt lat="40.517350" lon="-4.869117">
        <ele>2530.0</ele>
        <time>2018-07-29T13:49:06Z</time>
      </trkpt>
      <trkpt lat="40.517217" lon="-4.869067">
        <ele>2531.0</ele>
        <time>2018-07-29T13:49:07Z</time>
      </trkpt>
      <trkpt lat="40.517083" lon="-4.869000">
        <ele>2531.0</ele>
        <time>2018-07-29T13:49:08Z</time>
      </trkpt>
      <trkpt lat="40.516950" lon="-4.868900">
        <ele>2533.0</ele>
        <time>2018-07-29T13:49:09Z</time>
      </trkpt>
      <trkpt lat="40.516833" lon="-4.868783">
        <ele>2536.0</ele>
        <time>2018-07-29T13:49:10Z</time>
      </trkpt>
      <trkpt lat="40.516717" lon="-4.868683">
        <ele>2539.0</ele>
        <time>2018-07-29T13:49:11Z</time>
      </trkpt>
      <trkpt lat="40.516617" lon="-4.868567">
        <ele>2542.0</ele>
        <time>2018-07-29T13:49:12Z</time>
      </trkpt>
      <trkpt lat="40.516517" lon="-4.868417">
        <ele>2545.0</ele>
        <time>2018-07-29T13:49:13Z</time>
      </trkpt>
      <trkpt lat="40.516433" lon="-4.868283">
        <ele>2548.0</ele>
        <time>2018-07-29T13:49:14Z</time>
      </trkpt>
      <trkpt lat="40.516367" lon="-4.868133">
        <ele>2551.0</ele>
        <time>2018-07-29T13:49:15Z</time>
      </trkpt>
      <trkpt lat="40.516300" lon="-4.867983">
        <ele>2554.0</ele>
        <time>2018-07-29T13:49:16Z</time>
      </trkpt>
      <trkpt lat="40.516233" lon="-4.867833">
        <ele>2556.0</ele>
        <time>2018-07-29T13:49:17Z</time>
      </trkpt>
      <trkpt lat="40.516200" lon="-4.867683">
        <ele>2559.0</ele>
        <time>2018-07-29T13:49:18Z</time>
      </trkpt>
      <trkpt lat="40.516167" lon="-4.867533">
        <ele>2563.0</ele>
        <time>2018-07-29T13:49:19Z</time>
      </trkpt>
      <trkpt lat="40.516167" lon="-4.867383">
        <ele>2567.0</ele>
        <time>2018-07-29T13:49:20Z</time>
      </trkpt>
      <trkpt lat="40.516183" lon="-4.867267">
        <ele>2570.0</ele>
        <time>2018-07-29T13:49:21Z</time>
      </trkpt>
      <trkpt lat="40.516200" lon="-4.867150">
        <ele>2572.0</ele>
        <time>2018-07-29T13:49:22Z</time>
      </trkpt>
      <trkpt lat="40.516233" lon="-4.867050">
        <ele>2573.0</ele>
        <time>2018-07-29T13:49:23Z</time>
      </trkpt>
      <trkpt lat="40.516267" lon="-4.866917">
        <ele>2575.0</ele>
        <time>2018-07-29T13:49:24Z</time>
      </trkpt>
      <trkpt lat="40.516317" lon="-4.866783">
        <ele>2576.0</ele>
        <time>2018-07-29T13:49:25Z</time>
      </trkpt>
      <trkpt lat="40.516367" lon="-4.866667">
        <ele>2579.0</ele>
        <time>2018-07-29T13:49:26Z</time>
      </trkpt>
      <trkpt lat="40.516417" lon="-4.866583">
        <ele>2582.0</ele>
        <time>2018-07-29T13:49:27Z</time>
      </trkpt>
      <trkpt lat="40.516467" lon="-4.866517">
        <ele>2586.0</ele>
        <time>2018-07-29T13:49:28Z</time>
      </trkpt>
      <trkpt lat="40.516533" lon="-4.866483">
        <ele>2588.0</ele>
        <time>2018-07-29T13:49:29Z</time>
      </trkpt>
      <trkpt lat="40.516583" lon="-4.866500">
        <ele>2588.0</ele>
        <time>2018-07-29T13:49:30Z</time>
      </trkpt>
      <trkpt lat="40.516633" lon="-4.866567">
        <ele>2589.0</ele>
        <time>2018-07-29T13:49:31Z</time>
      </trkpt>
      <trkpt lat="40.516667" lon="-4.866633">
        <ele>2590.0</ele>
        <time>2018-07-29T13:49:32Z</time>
      </trkpt>
      <trkpt lat="40.516667" lon="-4.866717">
        <ele>2591.0</ele>
        <time>2018-07-29T13:49:33Z</time>
      </trkpt>
      <trkpt lat="40.516650" lon="-4.866800">
        <ele>2593.0</ele>
        <time>2018-07-29T13:49:34Z</time>
      </trkpt>
      <trkpt lat="40.516583" lon="-4.866883">
        <ele>2593.0</ele>
        <time>2018-07-29T13:49:35Z</time>
      </trkpt>
      <trkpt lat="40.516500" lon="-4.866950">
        <ele>2594.0</ele>
        <time>2018-07-29T13:49:36Z</time>
      </trkpt>
      <trkpt lat="40.516400" lon="-4.867000">
        <ele>2595.0</ele>
        <time>2018-07-29T13:49:37Z</time>
      </trkpt>
      <trkpt lat="40.516267" lon="-4.867017">
        <ele>2596.0</ele>
        <time>2018-07-29T13:49:38Z</time>
      </trkpt>
      <trkpt lat="40.516133" lon="-4.866983">
        <ele>2597.0</ele>
        <time>2018-07-29T13:49:39Z</time>
      </trkpt>
      <trkpt lat="40.516000" lon="-4.866917">
        <ele>2600.0</ele>
        <time>2018-07-29T13:49:40Z</time>
      </trkpt>
      <trkpt lat="40.515900" lon="-4.866817">
        <ele>2603.0</ele>
        <time>2018-07-29T13:49:41Z</time>
      </trkpt>
      <trkpt lat="40.515817" lon="-4.866700">
        <ele>2606.0</ele>
        <time>2018-07-29T13:49:42Z</time>
      </trkpt>
      <trkpt lat="40.515750" lon="-4.866567">
        <ele>2610.0</ele>
        <time>2018-07-29T13:49:43Z</time>
      </trkpt>
      <trkpt lat="40.515700" lon="-4.866450">
        <ele>2613.0</ele>
        <time>2018-07-29T13:49:44Z</time>
      </trkpt>
      <trkpt lat="40.515683" lon="-4.866333">
        <ele>2614.0</ele>
        <time>2018-07-29T13:49:45Z</time>
      </trkpt>
      <trkpt lat="40.515667" lon="-4.866200">
        <ele>2615.0</ele>
        <time>2018-07-29T13:49:46Z</time>
      </trkpt>
      <trkpt lat="40.515667" lon="-4.866067">
        <ele>2615.0</ele>
        <time>2018-07-29T13:49:47Z</time>
      </trkpt>
      <trkpt lat="40.515683" lon="-4.865917">
        <ele>2615.0</ele>
        <time>2018-07-29T13:49:48Z</time>
      </trkpt>
      <trkpt lat="40.515717" lon="-4.865767">
        <ele>2617.0</ele>
        <time>2018-07-29T13:49:49Z</time>
      </trkpt>
      <trkpt lat="40.515750" lon="-4.865633">
        <ele>2620.0</ele>
        <time>2018-07-29T13:49:50Z</time>
      </trkpt>
      <trkpt lat="40.515800" lon="-4.865517">
        <ele>2623.0</ele>
        <time>2018-07-29T13:49:51Z</time>
      </trkpt>
      <trkpt lat="40.515850" lon="-4.865417">
        <ele>2626.0</ele>
        <time>2018-07-29T13:49:52Z</time>
      </trkpt>
      <trkpt lat="40.515917" lon="-4.865333">
        <ele>2629.0</ele>
        <time>2018-07-29T13:49:53Z</time>
      </trkpt>
      <trkpt lat="40.515967" lon="-4.865233">
        <ele>2630.0</ele>
        <time>2018-07-29T13:49:54Z</time>
      </trkpt>
      <trkpt lat="40.516017" lon="-4.865167">
        <ele>2630.0</ele>
        <time>2018-07-29T13:49:55Z</time>
      </trkpt>
      <trkpt lat="40.516067" lon="-4.865100">
        <ele>2630.0</ele>
        <time>2018-07-29T13:49:56Z</time>
      </trkpt>
      <trkpt lat="40.516133" lon="-4.865033">
        <ele>2629.0</ele>
        <time>2018-07-29T13:49:57Z</time>
      </trkpt>
      <trkpt lat="40.516217" lon="-4.864983">
        <ele>2629.0</ele>
        <time>2018-07-29T13:49:58Z</time>
      </trkpt>
      <trkpt lat="40.516300" lon="-4.864917">
        <ele>2630.0</ele>
        <time>2018-07-29T13:49:59Z</time>
      </trkpt>
      <trkpt lat="40.516367" lon="-4.864850">
        <ele>2631.0</ele>
        <time>2018-07-29T13:50:00Z</time>
      </trkpt>
      <trkpt lat="40.516433" lon="-4.864800">
        <ele>2633.0</ele>
        <time>2018-07-29T13:50:01Z</time>
      </trkpt>
      <trkpt lat="40.516500" lon="-4.864733">
        <ele>2634.0</ele>
        <time>2018-07-29T13:50:02Z</time>
      </trkpt>
      <trkpt lat="40.516550" lon="-4.864683">
        <ele>2635.0</ele>
        <time>2018-07-29T13:50:03Z</time>
      </trkpt>
      <trkpt lat="40.516617" lon="-4.864617">
        <ele>2635.0</ele>
        <time>2018-07-29T13:50:04Z</time>
      </trkpt>
      <trkpt lat="40.516700" lon="-4.864550">
        <ele>2635.0</ele>
        <time>2018-07-29T13:50:05Z</time>
      </trkpt>
      <trkpt lat="40.516783" lon="-4.864483">
        <ele>2636.0</ele>
        <time>2018-07-29T13:50:06Z</time>
      </trkpt>
      <trkpt lat="40.516867" lon="-4.864417">
        <ele>2638.0</ele>
        <time>2018-07-29T13:50:07Z</time>
      </trkpt>
      <trkpt lat="40.516933" lon="-4.864367">
        <ele>2640.0</ele>
        <time>2018-07-29T13:50:08Z</time>
      </trkpt>
      <trkpt lat="40.517000" lon="-4.864317">
        <ele>2642.0</ele>
        <time>2018-07-29T13:50:09Z</time>
      </trkpt>
      <trkpt lat="40.517067" lon="-4.864267">
        <ele>2643.0</ele>
        <time>2018-07-29T13:50:10Z</time>
      </trkpt>
      <trkpt lat="40.517133" lon="-4.864233">
        <ele>2643.0</ele>
        <time>2018-07-29T13:50:11Z</time>
      </trkpt>
      <trkpt lat="40.517200" lon="-4.864183">
        <ele>2643.0</ele>
        <time>2018-07-29T13:50:12Z</time>
      </trkpt>
      <trkpt lat="40.517283" lon="-4.864133">
        <ele>2642.0</ele>
        <time>2018-07-29T13:50:13Z</time>
      </trkpt>
      <trkpt lat="40.517367" lon="-4.864083">
        <ele>2643.0</ele>
        <time>2018-07-29T13:50:14Z</time>
      </trkpt>
      <trkpt lat="40.517433" lon="-4.864017">
        <ele>2643.0</ele>
        <time>2018-07-29T13:50:15Z</time>
      </trkpt>
      <trkpt lat="40.517500" lon="-4.863950">
        <ele>2644.0</ele>
        <time>2018-07-29T13:50:16Z</time>
      </trkpt>
      <trkpt lat="40.517567" lon="-4.863883">
        <ele>2644.0</ele>
        <time>2018-07-29T13:50:17Z</time>
      </trkpt>
      <trkpt lat="40.517633" lon="-4.863800">
        <ele>2643.0</ele>
        <time>2018-07-29T13:50:18Z</time>
      </trkpt>
      <trkpt lat="40.517683" lon="-4.863733">
        <ele>2644.0</ele>
        <time>2018-07-29T13:50:19Z</time>
      </trkpt>
      <trkpt lat="40.517750" lon="-4.863667">
        <ele>2644.0</ele>
        <time>2018-07-29T13:50:20Z</time>
      </trkpt>
      <trkpt lat="40.517817" lon="-4.863600">
        <ele>2644.0</ele>
        <time>2018-07-29T13:50:21Z</time>
      </trkpt>
      <trkpt lat="40.517867" lon="-4.863500">
        <ele>2644.0</ele>
        <time>2018-07-29T13:50:22Z</time>
      </trkpt>
      <trkpt lat="40.517933" lon="-4.863400">
        <ele>2643.0</ele>
        <time>2018-07-29T13:50:23Z</time>
      </trkpt>
      <trkpt lat="40.517983" lon="-4.863300">
        <ele>2642.0</ele>
        <time>2018-07-29T13:50:24Z</time>
      </trkpt>
      <trkpt lat="40.518050" lon="-4.863200">
        <ele>2642.0</ele>
        <time>2018-07-29T13:50:25Z</time>
      </trkpt>
      <trkpt lat="40.518117" lon="-4.863117">
        <ele>2643.0</ele>
        <time>2018-07-29T13:50:26Z</time>
      </trkpt>
      <trkpt lat="40.518183" lon="-4.863017">
        <ele>2643.0</ele>
        <time>2018-07-29T13:50:27Z</time>
      </trkpt>
      <trkpt lat="40.518233" lon="-4.862917">
        <ele>2644.0</ele>
        <time>2018-07-29T13:50:28Z</time>
      </trkpt>
      <trkpt lat="40.518283" lon="-4.862833">
        <ele>2644.0</ele>
        <time>2018-07-29T13:50:29Z</time>
      </trkpt>
      <trkpt lat="40.518333" lon="-4.862733">
        <ele>2642.0</ele>
        <time>2018-07-29T13:50:30Z</time>
      </trkpt>
      <trkpt lat="40.518400" lon="-4.862633">
        <ele>2641.0</ele>
        <time>2018-07-29T13:50:31Z</time>
      </trkpt>
      <trkpt lat="40.518467" lon="-4.862533">
        <ele>2639.0</ele>
        <time>2018-07-29T13:50:32Z</time>
      </trkpt>
      <trkpt lat="40.518533" lon="-4.862433">
        <ele>2638.0</ele>
        <time>2018-07-29T13:50:33Z</time>
      </trkpt>
      <trkpt lat="40.518617" lon="-4.862350">
        <ele>2638.0</ele>
        <time>2018-07-29T13:50:34Z</time>
      </trkpt>
      <trkpt lat="40.518683" lon="-4.862250">
        <ele>2638.0</ele>
        <time>2018-07-29T13:50:35Z</time>
      </trkpt>
      <trkpt lat="40.518750" lon="-4.862150">
        <ele>2638.0</ele>
        <time>2018-07-29T13:50:36Z</time>
      </trkpt>
      <trkpt lat="40.518800" lon="-4.862050">
        <ele>2638.0</ele>
        <time>2018-07-29T13:50:37Z</time>
      </trkpt>
      <trkpt lat="40.518867" lon="-4.861950">
        <ele>2638.0</ele>
        <time>2018-07-29T13:50:38Z</time>
      </trkpt>
      <trkpt lat="40.518933" lon="-4.861850">
        <ele>2639.0</ele>
        <time>2018-07-29T13:50:39Z</time>
      </trkpt>
      <trkpt lat="40.518983" lon="-4.861767">
        <ele>2639.0</ele>
        <time>2018-07-29T13:50:40Z</time>
      </trkpt>
      <trkpt lat="40.519033" lon="-4.861667">
        <ele>2638.0</ele>
        <time>2018-07-29T13:50:41Z</time>
      </trkpt>
      <trkpt lat="40.519083" lon="-4.861583">
        <ele>2637.0</ele>
        <time>2018-07-29T13:50:42Z</time>
      </trkpt>
      <trkpt lat="40.519150" lon="-4.861500">
        <ele>2636.0</ele>
        <time>2018-07-29T13:50:43Z</time>
      </trkpt>
      <trkpt lat="40.519200" lon="-4.861417">
        <ele>2635.0</ele>
        <time>2018-07-29T13:50:44Z</time>
      </trkpt>
      <trkpt lat="40.519267" lon="-4.861350">
        <ele>2633.0</ele>
        <time>2018-07-29T13:50:45Z</time>
      </trkpt>
      <trkpt lat="40.519333" lon="-4.861283">
        <ele>2632.0</ele>
        <time>2018-07-29T13:50:46Z</time>
      </trkpt>
      <trkpt lat="40.519383" lon="-4.861200">
        <ele>2630.0</ele>
        <time>2018-07-29T13:50:47Z</time>
      </trkpt>
      <trkpt lat="40.519450" lon="-4.861150">
        <ele>2628.0</ele>
        <time>2018-07-29T13:50:48Z</time>
      </trkpt>
      <trkpt lat="40.519517" lon="-4.861083">
        <ele>2626.0</ele>
        <time>2018-07-29T13:50:49Z</time>
      </trkpt>
      <trkpt lat="40.519583" lon="-4.861017">
        <ele>2624.0</ele>
        <time>2018-07-29T13:50:50Z</time>
      </trkpt>
      <trkpt lat="40.519650" lon="-4.860933">
        <ele>2621.0</ele>
        <time>2018-07-29T13:50:51Z</time>
      </trkpt>
      <trkpt lat="40.519717" lon="-4.860867">
        <ele>2619.0</ele>
        <time>2018-07-29T13:50:52Z</time>
      </trkpt>
      <trkpt lat="40.519783" lon="-4.860800">
        <ele>2617.0</ele>
        <time>2018-07-29T13:50:53Z</time>
      </trkpt>
      <trkpt lat="40.519850" lon="-4.860717">
        <ele>2616.0</ele>
        <time>2018-07-29T13:50:54Z</time>
      </trkpt>
      <trkpt lat="40.519900" lon="-4.860633">
        <ele>2616.0</ele>
        <time>2018-07-29T13:50:55Z</time>
      </trkpt>
      <trkpt lat="40.519933" lon="-4.860533">
        <ele>2615.0</ele>
        <time>2018-07-29T13:50:56Z</time>
      </trkpt>
      <trkpt lat="40.519950" lon="-4.860433">
        <ele>2613.0</ele>
        <time>2018-07-29T13:50:57Z</time>
      </trkpt>
      <trkpt lat="40.519983" lon="-4.860350">
        <ele>2610.0</ele>
        <time>2018-07-29T13:50:58Z</time>
      </trkpt>
      <trkpt lat="40.520033" lon="-4.860267">
        <ele>2606.0</ele>
        <time>2018-07-29T13:50:59Z</time>
      </trkpt>
      <trkpt lat="40.520100" lon="-4.860200">
        <ele>2603.0</ele>
        <time>2018-07-29T13:51:00Z</time>
      </trkpt>
      <trkpt lat="40.520183" lon="-4.860100">
        <ele>2600.0</ele>
        <time>2018-07-29T13:51:01Z</time>
      </trkpt>
      <trkpt lat="40.520267" lon="-4.860000">
        <ele>2600.0</ele>
        <time>2018-07-29T13:51:02Z</time>
      </trkpt>
      <trkpt lat="40.520350" lon="-4.859900">
        <ele>2601.0</ele>
        <time>2018-07-29T13:51:03Z</time>
      </trkpt>
      <trkpt lat="40.520417" lon="-4.859800">
        <ele>2603.0</ele>
        <time>2018-07-29T13:51:04Z</time>
      </trkpt>
      <trkpt lat="40.520483" lon="-4.859717">
        <ele>2604.0</ele>
        <time>2018-07-29T13:51:05Z</time>
      </trkpt>
      <trkpt lat="40.520550" lon="-4.859650">
        <ele>2605.0</ele>
        <time>2018-07-29T13:51:06Z</time>
      </trkpt>
      <trkpt lat="40.520600" lon="-4.859583">
        <ele>2605.0</ele>
        <time>2018-07-29T13:51:07Z</time>
      </trkpt>
      <trkpt lat="40.520667" lon="-4.859500">
        <ele>2604.0</ele>
        <time>2018-07-29T13:51:08Z</time>
      </trkpt>
      <trkpt lat="40.520733" lon="-4.859417">
        <ele>2603.0</ele>
        <time>2018-07-29T13:51:09Z</time>
      </trkpt>
      <trkpt lat="40.520800" lon="-4.859333">
        <ele>2603.0</ele>
        <time>2018-07-29T13:51:10Z</time>
      </trkpt>
      <trkpt lat="40.520867" lon="-4.859250">
        <ele>2603.0</ele>
        <time>2018-07-29T13:51:11Z</time>
      </trkpt>
      <trkpt lat="40.520950" lon="-4.859167">
        <ele>2604.0</ele>
        <time>2018-07-29T13:51:12Z</time>
      </trkpt>
      <trkpt lat="40.521017" lon="-4.859100">
        <ele>2605.0</ele>
        <time>2018-07-29T13:51:13Z</time>
      </trkpt>
      <trkpt lat="40.521083" lon="-4.859033">
        <ele>2605.0</ele>
        <time>2018-07-29T13:51:14Z</time>
      </trkpt>
      <trkpt lat="40.521150" lon="-4.858950">
        <ele>2605.0</ele>
        <time>2018-07-29T13:51:15Z</time>
      </trkpt>
      <trkpt lat="40.521217" lon="-4.858867">
        <ele>2605.0</ele>
        <time>2018-07-29T13:51:16Z</time>
      </trkpt>
      <trkpt lat="40.521283" lon="-4.858800">
        <ele>2605.0</ele>
        <time>2018-07-29T13:51:17Z</time>
      </trkpt>
      <trkpt lat="40.521367" lon="-4.858733">
        <ele>2604.0</ele>
        <time>2018-07-29T13:51:18Z</time>
      </trkpt>
      <trkpt lat="40.521450" lon="-4.858700">
        <ele>2604.0</ele>
        <time>2018-07-29T13:51:19Z</time>
      </trkpt>
      <trkpt lat="40.521533" lon="-4.858667">
        <ele>2604.0</ele>
        <time>2018-07-29T13:51:20Z</time>
      </trkpt>
      <trkpt lat="40.521617" lon="-4.858650">
        <ele>2605.0</ele>
        <time>2018-07-29T13:51:21Z</time>
      </trkpt>
      <trkpt lat="40.521700" lon="-4.858633">
        <ele>2605.0</ele>
        <time>2018-07-29T13:51:22Z</time>
      </trkpt>
      <trkpt lat="40.521783" lon="-4.858600">
        <ele>2604.0</ele>
        <time>2018-07-29T13:51:23Z</time>
      </trkpt>
      <trkpt lat="40.521850" lon="-4.858583">
        <ele>2604.0</ele>
        <time>2018-07-29T13:51:24Z</time>
      </trkpt>
      <trkpt lat="40.521933" lon="-4.858533">
        <ele>2604.0</ele>
        <time>2018-07-29T13:51:25Z</time>
      </trkpt>
      <trkpt lat="40.522017" lon="-4.858483">
        <ele>2603.0</ele>
        <time>2018-07-29T13:51:26Z</time>
      </trkpt>
      <trkpt lat="40.522100" lon="-4.858433">
        <ele>2603.0</ele>
        <time>2018-07-29T13:51:27Z</time>
      </trkpt>
      <trkpt lat="40.522183" lon="-4.858383">
        <ele>2602.0</ele>
        <time>2018-07-29T13:51:28Z</time>
      </trkpt>
      <trkpt lat="40.522267" lon="-4.858350">
        <ele>2601.0</ele>
        <time>2018-07-29T13:51:29Z</time>
      </trkpt>
      <trkpt lat="40.522350" lon="-4.858300">
        <ele>2600.0</ele>
        <time>2018-07-29T13:51:30Z</time>
      </trkpt>
      <trkpt lat="40.522433" lon="-4.858250">
        <ele>2599.0</ele>
        <time>2018-07-29T13:51:31Z</time>
      </trkpt>
      <trkpt lat="40.522517" lon="-4.858200">
        <ele>2598.0</ele>
        <time>2018-07-29T13:51:32Z</time>
      </trkpt>
      <trkpt lat="40.522600" lon="-4.858150">
        <ele>2598.0</ele>
        <time>2018-07-29T13:51:33Z</time>
      </trkpt>
      <trkpt lat="40.522683" lon="-4.858100">
        <ele>2598.0</ele>
        <time>2018-07-29T13:51:34Z</time>
      </trkpt>
      <trkpt lat="40.522783" lon="-4.858067">
        <ele>2598.0</ele>
        <time>2018-07-29T13:51:35Z</time>
      </trkpt>
      <trkpt lat="40.522867" lon="-4.858017">
        <ele>2598.0</ele>
        <time>2018-07-29T13:51:36Z</time>
      </trkpt>
      <trkpt lat="40.522950" lon="-4.857983">
        <ele>2599.0</ele>
        <time>2018-07-29T13:51:37Z</time>
      </trkpt>
      <trkpt lat="40.523033" lon="-4.857933">
        <ele>2600.0</ele>
        <time>2018-07-29T13:51:38Z</time>
      </trkpt>
      <trkpt lat="40.523133" lon="-4.857900">
        <ele>2600.0</ele>
        <time>2018-07-29T13:51:39Z</time>
      </trkpt>
      <trkpt lat="40.523217" lon="-4.857867">
        <ele>2601.0</ele>
        <time>2018-07-29T13:51:40Z</time>
      </trkpt>
      <trkpt lat="40.523317" lon="-4.857817">
        <ele>2601.0</ele>
        <time>2018-07-29T13:51:41Z</time>
      </trkpt>
      <trkpt lat="40.523417" lon="-4.857767">
        <ele>2601.0</ele>
        <time>2018-07-29T13:51:42Z</time>
      </trkpt>
      <trkpt lat="40.523517" lon="-4.857717">
        <ele>2602.0</ele>
        <time>2018-07-29T13:51:43Z</time>
      </trkpt>
      <trkpt lat="40.523617" lon="-4.857633">
        <ele>2604.0</ele>
        <time>2018-07-29T13:51:44Z</time>
      </trkpt>
      <trkpt lat="40.523717" lon="-4.857583">
        <ele>2606.0</ele>
        <time>2018-07-29T13:51:45Z</time>
      </trkpt>
      <trkpt lat="40.523817" lon="-4.857517">
        <ele>2609.0</ele>
        <time>2018-07-29T13:51:46Z</time>
      </trkpt>
      <trkpt lat="40.523883" lon="-4.857467">
        <ele>2612.0</ele>
        <time>2018-07-29T13:51:47Z</time>
      </trkpt>
      <trkpt lat="40.523950" lon="-4.857400">
        <ele>2616.0</ele>
        <time>2018-07-29T13:51:48Z</time>
      </trkpt>
      <trkpt lat="40.523983" lon="-4.857333">
        <ele>2619.0</ele>
        <time>2018-07-29T13:51:49Z</time>
      </trkpt>
      <trkpt lat="40.524033" lon="-4.857250">
        <ele>2621.0</ele>
        <time>2018-07-29T13:51:50Z</time>
      </trkpt>
      <trkpt lat="40.524083" lon="-4.857167">
        <ele>2623.0</ele>
        <time>2018-07-29T13:51:51Z</time>
      </trkpt>
      <trkpt lat="40.524150" lon="-4.857083">
        <ele>2624.0</ele>
        <time>2018-07-29T13:51:52Z</time>
      </trkpt>
      <trkpt lat="40.524217" lon="-4.856983">
        <ele>2627.0</ele>
        <time>2018-07-29T13:51:53Z</time>
      </trkpt>
      <trkpt lat="40.524283" lon="-4.856900">
        <ele>2629.0</ele>
        <time>2018-07-29T13:51:54Z</time>
      </trkpt>
      <trkpt lat="40.524350" lon="-4.856817">
        <ele>2630.0</ele>
        <time>2018-07-29T13:51:55Z</time>
      </trkpt>
      <trkpt lat="40.524433" lon="-4.856733">
        <ele>2631.0</ele>
        <time>2018-07-29T13:51:56Z</time>
      </trkpt>
      <trkpt lat="40.524500" lon="-4.856633">
        <ele>2628.0</ele>
        <time>2018-07-29T13:51:57Z</time>
      </trkpt>
      <trkpt lat="40.524583" lon="-4.856550">
        <ele>2624.0</ele>
        <time>2018-07-29T13:51:58Z</time>
      </trkpt>
      <trkpt lat="40.524667" lon="-4.856467">
        <ele>2621.0</ele>
        <time>2018-07-29T13:51:59Z</time>
      </trkpt>
      <trkpt lat="40.524750" lon="-4.856383">
        <ele>2618.0</ele>
        <time>2018-07-29T13:52:00Z</time>
      </trkpt>
      <trkpt lat="40.524833" lon="-4.856317">
        <ele>2615.0</ele>
        <time>2018-07-29T13:52:01Z</time>
      </trkpt>
      <trkpt lat="40.524917" lon="-4.856250">
        <ele>2612.0</ele>
        <time>2018-07-29T13:52:02Z</time>
      </trkpt>
      <trkpt lat="40.525000" lon="-4.856150">
        <ele>2609.0</ele>
        <time>2018-07-29T13:52:03Z</time>
      </trkpt>
      <trkpt lat="40.525083" lon="-4.856050">
        <ele>2607.0</ele>
        <time>2018-07-29T13:52:04Z</time>
      </trkpt>
      <trkpt lat="40.525167" lon="-4.855917">
        <ele>2604.0</ele>
        <time>2018-07-29T13:52:05Z</time>
      </trkpt>
      <trkpt lat="40.525233" lon="-4.855800">
        <ele>2602.0</ele>
        <time>2018-07-29T13:52:06Z</time>
      </trkpt>
      <trkpt lat="40.525317" lon="-4.855683">
        <ele>2599.0</ele>
        <time>2018-07-29T13:52:07Z</time>
      </trkpt>
      <trkpt lat="40.525400" lon="-4.855600">
        <ele>2595.0</ele>
        <time>2018-07-29T13:52:08Z</time>
      </trkpt>
      <trkpt lat="40.525483" lon="-4.855517">
        <ele>2592.0</ele>
        <time>2018-07-29T13:52:09Z</time>
      </trkpt>
      <trkpt lat="40.525567" lon="-4.855450">
        <ele>2589.0</ele>
        <time>2018-07-29T13:52:10Z</time>
      </trkpt>
      <trkpt lat="40.525650" lon="-4.855367">
        <ele>2586.0</ele>
        <time>2018-07-29T13:52:11Z</time>
      </trkpt>
      <trkpt lat="40.525717" lon="-4.855300">
        <ele>2583.0</ele>
        <time>2018-07-29T13:52:12Z</time>
      </trkpt>
      <trkpt lat="40.525800" lon="-4.855233">
        <ele>2580.0</ele>
        <time>2018-07-29T13:52:13Z</time>
      </trkpt>
      <trkpt lat="40.525900" lon="-4.855183">
        <ele>2577.0</ele>
        <time>2018-07-29T13:52:14Z</time>
      </trkpt>
      <trkpt lat="40.525983" lon="-4.855117">
        <ele>2573.0</ele>
        <time>2018-07-29T13:52:15Z</time>
      </trkpt>
      <trkpt lat="40.526083" lon="-4.855067">
        <ele>2569.0</ele>
        <time>2018-07-29T13:52:16Z</time>
      </trkpt>
      <trkpt lat="40.526167" lon="-4.855017">
        <ele>2566.0</ele>
        <time>2018-07-29T13:52:17Z</time>
      </trkpt>
      <trkpt lat="40.526267" lon="-4.854950">
        <ele>2564.0</ele>
        <time>2018-07-29T13:52:18Z</time>
      </trkpt>
      <trkpt lat="40.526350" lon="-4.854867">
        <ele>2561.0</ele>
        <time>2018-07-29T13:52:19Z</time>
      </trkpt>
      <trkpt lat="40.526433" lon="-4.854783">
        <ele>2558.0</ele>
        <time>2018-07-29T13:52:20Z</time>
      </trkpt>
      <trkpt lat="40.526517" lon="-4.854683">
        <ele>2555.0</ele>
        <time>2018-07-29T13:52:21Z</time>
      </trkpt>
      <trkpt lat="40.526600" lon="-4.854583">
        <ele>2552.0</ele>
        <time>2018-07-29T13:52:22Z</time>
      </trkpt>
      <trkpt lat="40.526683" lon="-4.854483">
        <ele>2549.0</ele>
        <time>2018-07-29T13:52:23Z</time>
      </trkpt>
      <trkpt lat="40.526767" lon="-4.854383">
        <ele>2546.0</ele>
        <time>2018-07-29T13:52:24Z</time>
      </trkpt>
      <trkpt lat="40.526867" lon="-4.854283">
        <ele>2543.0</ele>
        <time>2018-07-29T13:52:25Z</time>
      </trkpt>
      <trkpt lat="40.526950" lon="-4.854167">
        <ele>2540.0</ele>
        <time>2018-07-29T13:52:26Z</time>
      </trkpt>
      <trkpt lat="40.527050" lon="-4.854067">
        <ele>2537.0</ele>
        <time>2018-07-29T13:52:27Z</time>
      </trkpt>
      <trkpt lat="40.527150" lon="-4.853983">
        <ele>2535.0</ele>
        <time>2018-07-29T13:52:28Z</time>
      </trkpt>
      <trkpt lat="40.527250" lon="-4.853900">
        <ele>2533.0</ele>
        <time>2018-07-29T13:52:29Z</time>
      </trkpt>
      <trkpt lat="40.527333" lon="-4.853817">
        <ele>2531.0</ele>
        <time>2018-07-29T13:52:30Z</time>
      </trkpt>
      <trkpt lat="40.527417" lon="-4.853717">
        <ele>2529.0</ele>
        <time>2018-07-29T13:52:31Z</time>
      </trkpt>
      <trkpt lat="40.527517" lon="-4.853617">
        <ele>2525.0</ele>
        <time>2018-07-29T13:52:32Z</time>
      </trkpt>
      <trkpt lat="40.527600" lon="-4.853517">
        <ele>2522.0</ele>
        <time>2018-07-29T13:52:33Z</time>
      </trkpt>
      <trkpt lat="40.527717" lon="-4.853417">
        <ele>2519.0</ele>
        <time>2018-07-29T13:52:34Z</time>
      </trkpt>
      <trkpt lat="40.527817" lon="-4.853317">
        <ele>2517.0</ele>
        <time>2018-07-29T13:52:35Z</time>
      </trkpt>
      <trkpt lat="40.527917" lon="-4.853217">
        <ele>2514.0</ele>
        <time>2018-07-29T13:52:36Z</time>
      </trkpt>
      <trkpt lat="40.528017" lon="-4.853133">
        <ele>2512.0</ele>
        <time>2018-07-29T13:52:37Z</time>
      </trkpt>
      <trkpt lat="40.528117" lon="-4.853050">
        <ele>2509.0</ele>
        <time>2018-07-29T13:52:38Z</time>
      </trkpt>
      <trkpt lat="40.528217" lon="-4.852967">
        <ele>2507.0</ele>
        <time>2018-07-29T13:52:39Z</time>
      </trkpt>
      <trkpt lat="40.528317" lon="-4.852900">
        <ele>2504.0</ele>
        <time>2018-07-29T13:52:40Z</time>
      </trkpt>
      <trkpt lat="40.528417" lon="-4.852817">
        <ele>2502.0</ele>
        <time>2018-07-29T13:52:41Z</time>
      </trkpt>
      <trkpt lat="40.528517" lon="-4.852750">
        <ele>2500.0</ele>
        <time>2018-07-29T13:52:42Z</time>
      </trkpt>
      <trkpt lat="40.528633" lon="-4.852700">
        <ele>2497.0</ele>
        <time>2018-07-29T13:52:43Z</time>
      </trkpt>
      <trkpt lat="40.528733" lon="-4.852650">
        <ele>2494.0</ele>
        <time>2018-07-29T13:52:44Z</time>
      </trkpt>
      <trkpt lat="40.528833" lon="-4.852600">
        <ele>2491.0</ele>
        <time>2018-07-29T13:52:45Z</time>
      </trkpt>
      <trkpt lat="40.528950" lon="-4.852533">
        <ele>2487.0</ele>
        <time>2018-07-29T13:52:46Z</time>
      </trkpt>
      <trkpt lat="40.529067" lon="-4.852483">
        <ele>2484.0</ele>
        <time>2018-07-29T13:52:47Z</time>
      </trkpt>
      <trkpt lat="40.529200" lon="-4.852400">
        <ele>2486.0</ele>
        <time>2018-07-29T13:52:48Z</time>
      </trkpt>
      <trkpt lat="40.529300" lon="-4.852350">
        <ele>2492.0</ele>
        <time>2018-07-29T13:52:49Z</time>
      </trkpt>
      <trkpt lat="40.529367" lon="-4.852283">
        <ele>2495.0</ele>
        <time>2018-07-29T13:52:50Z</time>
      </trkpt>
      <trkpt lat="40.529417" lon="-4.852233">
        <ele>2496.0</ele>
        <time>2018-07-29T13:52:51Z</time>
      </trkpt>
      <trkpt lat="40.529450" lon="-4.852183">
        <ele>2495.0</ele>
        <time>2018-07-29T13:52:52Z</time>
      </trkpt>
      <trkpt lat="40.529500" lon="-4.852133">
        <ele>2492.0</ele>
        <time>2018-07-29T13:52:53Z</time>
      </trkpt>
      <trkpt lat="40.529583" lon="-4.852100">
        <ele>2488.0</ele>
        <time>2018-07-29T13:52:54Z</time>
      </trkpt>
      <trkpt lat="40.529683" lon="-4.852067">
        <ele>2485.0</ele>
        <time>2018-07-29T13:52:55Z</time>
      </trkpt>
      <trkpt lat="40.529783" lon="-4.852000">
        <ele>2483.0</ele>
        <time>2018-07-29T13:52:56Z</time>
      </trkpt>
      <trkpt lat="40.529883" lon="-4.851917">
        <ele>2482.0</ele>
        <time>2018-07-29T13:52:57Z</time>
      </trkpt>
      <trkpt lat="40.529967" lon="-4.851817">
        <ele>2482.0</ele>
        <time>2018-07-29T13:52:58Z</time>
      </trkpt>
      <trkpt lat="40.530050" lon="-4.851717">
        <ele>2482.0</ele>
        <time>2018-07-29T13:52:59Z</time>
      </trkpt>
      <trkpt lat="40.530117" lon="-4.851633">
        <ele>2481.0</ele>
        <time>2018-07-29T13:53:00Z</time>
      </trkpt>
      <trkpt lat="40.530200" lon="-4.851533">
        <ele>2479.0</ele>
        <time>2018-07-29T13:53:01Z</time>
      </trkpt>
      <trkpt lat="40.530283" lon="-4.851417">
        <ele>2478.0</ele>
        <time>2018-07-29T13:53:02Z</time>
      </trkpt>
      <trkpt lat="40.530350" lon="-4.851300">
        <ele>2476.0</ele>
        <time>2018-07-29T13:53:03Z</time>
      </trkpt>
      <trkpt lat="40.530417" lon="-4.851183">
        <ele>2474.0</ele>
        <time>2018-07-29T13:53:04Z</time>
      </trkpt>
      <trkpt lat="40.530500" lon="-4.851100">
        <ele>2472.0</ele>
        <time>2018-07-29T13:53:05Z</time>
      </trkpt>
      <trkpt lat="40.530583" lon="-4.851017">
        <ele>2470.0</ele>
        <time>2018-07-29T13:53:06Z</time>
      </trkpt>
      <trkpt lat="40.530683" lon="-4.850950">
        <ele>2469.0</ele>
        <time>2018-07-29T13:53:07Z</time>
      </trkpt>
      <trkpt lat="40.530783" lon="-4.850867">
        <ele>2468.0</ele>
        <time>2018-07-29T13:53:08Z</time>
      </trkpt>
      <trkpt lat="40.530867" lon="-4.850783">
        <ele>2467.0</ele>
        <time>2018-07-29T13:53:09Z</time>
      </trkpt>
      <trkpt lat="40.530933" lon="-4.850683">
        <ele>2465.0</ele>
        <time>2018-07-29T13:53:10Z</time>
      </trkpt>
      <trkpt lat="40.531017" lon="-4.850583">
        <ele>2462.0</ele>
        <time>2018-07-29T13:53:11Z</time>
      </trkpt>
      <trkpt lat="40.531100" lon="-4.850467">
        <ele>2459.0</ele>
        <time>2018-07-29T13:53:12Z</time>
      </trkpt>
      <trkpt lat="40.531200" lon="-4.850367">
        <ele>2455.0</ele>
        <time>2018-07-29T13:53:13Z</time>
      </trkpt>
      <trkpt lat="40.531317" lon="-4.850267">
        <ele>2453.0</ele>
        <time>2018-07-29T13:53:14Z</time>
      </trkpt>
      <trkpt lat="40.531417" lon="-4.850183">
        <ele>2452.0</ele>
        <time>2018-07-29T13:53:15Z</time>
      </trkpt>
      <trkpt lat="40.531517" lon="-4.850117">
        <ele>2451.0</ele>
        <time>2018-07-29T13:53:16Z</time>
      </trkpt>
      <trkpt lat="40.531617" lon="-4.850033">
        <ele>2450.0</ele>
        <time>2018-07-29T13:53:17Z</time>
      </trkpt>
      <trkpt lat="40.531700" lon="-4.849933">
        <ele>2448.0</ele>
        <time>2018-07-29T13:53:18Z</time>
      </trkpt>
      <trkpt lat="40.531800" lon="-4.849817">
        <ele>2446.0</ele>
        <time>2018-07-29T13:53:19Z</time>
      </trkpt>
      <trkpt lat="40.531900" lon="-4.849700">
        <ele>2443.0</ele>
        <time>2018-07-29T13:53:20Z</time>
      </trkpt>
      <trkpt lat="40.532000" lon="-4.849600">
        <ele>2440.0</ele>
        <time>2018-07-29T13:53:21Z</time>
      </trkpt>
      <trkpt lat="40.532100" lon="-4.849483">
        <ele>2436.0</ele>
        <time>2018-07-29T13:53:22Z</time>
      </trkpt>
      <trkpt lat="40.532217" lon="-4.849367">
        <ele>2432.0</ele>
        <time>2018-07-29T13:53:23Z</time>
      </trkpt>
      <trkpt lat="40.532333" lon="-4.849250">
        <ele>2429.0</ele>
        <time>2018-07-29T13:53:24Z</time>
      </trkpt>
      <trkpt lat="40.532433" lon="-4.849133">
        <ele>2427.0</ele>
        <time>2018-07-29T13:53:25Z</time>
      </trkpt>
      <trkpt lat="40.532533" lon="-4.849033">
        <ele>2425.0</ele>
        <time>2018-07-29T13:53:26Z</time>
      </trkpt>
      <trkpt lat="40.532633" lon="-4.848950">
        <ele>2422.0</ele>
        <time>2018-07-29T13:53:27Z</time>
      </trkpt>
      <trkpt lat="40.532733" lon="-4.848867">
        <ele>2420.0</ele>
        <time>2018-07-29T13:53:28Z</time>
      </trkpt>
      <trkpt lat="40.532833" lon="-4.848767">
        <ele>2417.0</ele>
        <time>2018-07-29T13:53:29Z</time>
      </trkpt>
      <trkpt lat="40.532933" lon="-4.848667">
        <ele>2415.0</ele>
        <time>2018-07-29T13:53:30Z</time>
      </trkpt>
      <trkpt lat="40.533033" lon="-4.848583">
        <ele>2412.0</ele>
        <time>2018-07-29T13:53:31Z</time>
      </trkpt>
      <trkpt lat="40.533117" lon="-4.848483">
        <ele>2409.0</ele>
        <time>2018-07-29T13:53:32Z</time>
      </trkpt>
      <trkpt lat="40.533217" lon="-4.848383">
        <ele>2406.0</ele>
        <time>2018-07-29T13:53:33Z</time>
      </trkpt>
      <trkpt lat="40.533317" lon="-4.848283">
        <ele>2402.0</ele>
        <time>2018-07-29T13:53:34Z</time>
      </trkpt>
      <trkpt lat="40.533417" lon="-4.848200">
        <ele>2398.0</ele>
        <time>2018-07-29T13:53:35Z</time>
      </trkpt>
      <trkpt lat="40.533533" lon="-4.848150">
        <ele>2396.0</ele>
        <time>2018-07-29T13:53:36Z</time>
      </trkpt>
      <trkpt lat="40.533633" lon="-4.848117">
        <ele>2394.0</ele>
        <time>2018-07-29T13:53:37Z</time>
      </trkpt>
      <trkpt lat="40.533733" lon="-4.848050">
        <ele>2393.0</ele>
        <time>2018-07-29T13:53:38Z</time>
      </trkpt>
      <trkpt lat="40.533817" lon="-4.847967">
        <ele>2390.0</ele>
        <time>2018-07-29T13:53:39Z</time>
      </trkpt>
      <trkpt lat="40.533900" lon="-4.847867">
        <ele>2387.0</ele>
        <time>2018-07-29T13:53:40Z</time>
      </trkpt>
      <trkpt lat="40.534000" lon="-4.847767">
        <ele>2384.0</ele>
        <time>2018-07-29T13:53:41Z</time>
      </trkpt>
      <trkpt lat="40.534100" lon="-4.847683">
        <ele>2381.0</ele>
        <time>2018-07-29T13:53:42Z</time>
      </trkpt>
      <trkpt lat="40.534200" lon="-4.847600">
        <ele>2381.0</ele>
        <time>2018-07-29T13:53:43Z</time>
      </trkpt>
      <trkpt lat="40.534300" lon="-4.847533">
        <ele>2380.0</ele>
        <time>2018-07-29T13:53:44Z</time>
      </trkpt>
      <trkpt lat="40.534367" lon="-4.847433">
        <ele>2379.0</ele>
        <time>2018-07-29T13:53:45Z</time>
      </trkpt>
      <trkpt lat="40.534450" lon="-4.847333">
        <ele>2376.0</ele>
        <time>2018-07-29T13:53:46Z</time>
      </trkpt>
      <trkpt lat="40.534533" lon="-4.847233">
        <ele>2373.0</ele>
        <time>2018-07-29T13:53:47Z</time>
      </trkpt>
      <trkpt lat="40.534617" lon="-4.847133">
        <ele>2370.0</ele>
        <time>2018-07-29T13:53:48Z</time>
      </trkpt>
      <trkpt lat="40.534700" lon="-4.847050">
        <ele>2368.0</ele>
        <time>2018-07-29T13:53:49Z</time>
      </trkpt>
      <trkpt lat="40.534800" lon="-4.846950">
        <ele>2365.0</ele>
        <time>2018-07-29T13:53:50Z</time>
      </trkpt>
      <trkpt lat="40.534883" lon="-4.846850">
        <ele>2363.0</ele>
        <time>2018-07-29T13:53:51Z</time>
      </trkpt>
      <trkpt lat="40.534983" lon="-4.846767">
        <ele>2362.0</ele>
        <time>2018-07-29T13:53:52Z</time>
      </trkpt>
      <trkpt lat="40.535067" lon="-4.846667">
        <ele>2360.0</ele>
        <time>2018-07-29T13:53:53Z</time>
      </trkpt>
      <trkpt lat="40.535150" lon="-4.846567">
        <ele>2358.0</ele>
        <time>2018-07-29T13:53:54Z</time>
      </trkpt>
      <trkpt lat="40.535250" lon="-4.846483">
        <ele>2356.0</ele>
        <time>2018-07-29T13:53:55Z</time>
      </trkpt>
      <trkpt lat="40.535333" lon="-4.846400">
        <ele>2353.0</ele>
        <time>2018-07-29T13:53:56Z</time>
      </trkpt>
      <trkpt lat="40.535433" lon="-4.846300">
        <ele>2351.0</ele>
        <time>2018-07-29T13:53:57Z</time>
      </trkpt>
      <trkpt lat="40.535517" lon="-4.846217">
        <ele>2348.0</ele>
        <time>2018-07-29T13:53:58Z</time>
      </trkpt>
      <trkpt lat="40.535617" lon="-4.846133">
        <ele>2345.0</ele>
        <time>2018-07-29T13:53:59Z</time>
      </trkpt>
      <trkpt lat="40.535717" lon="-4.846050">
        <ele>2342.0</ele>
        <time>2018-07-29T13:54:00Z</time>
      </trkpt>
      <trkpt lat="40.535817" lon="-4.845967">
        <ele>2339.0</ele>
        <time>2018-07-29T13:54:01Z</time>
      </trkpt>
      <trkpt lat="40.535917" lon="-4.845900">
        <ele>2336.0</ele>
        <time>2018-07-29T13:54:02Z</time>
      </trkpt>
      <trkpt lat="40.536017" lon="-4.845817">
        <ele>2333.0</ele>
        <time>2018-07-29T13:54:03Z</time>
      </trkpt>
      <trkpt lat="40.536117" lon="-4.845733">
        <ele>2330.0</ele>
        <time>2018-07-29T13:54:04Z</time>
      </trkpt>
      <trkpt lat="40.536200" lon="-4.845650">
        <ele>2327.0</ele>
        <time>2018-07-29T13:54:05Z</time>
      </trkpt>
      <trkpt lat="40.536300" lon="-4.845567">
        <ele>2323.0</ele>
        <time>2018-07-29T13:54:06Z</time>
      </trkpt>
      <trkpt lat="40.536383" lon="-4.845467">
        <ele>2320.0</ele>
        <time>2018-07-29T13:54:07Z</time>
      </trkpt>
      <trkpt lat="40.536467" lon="-4.845350">
        <ele>2317.0</ele>
        <time>2018-07-29T13:54:08Z</time>
      </trkpt>
      <trkpt lat="40.536567" lon="-4.845250">
        <ele>2315.0</ele>
        <time>2018-07-29T13:54:09Z</time>
      </trkpt>
      <trkpt lat="40.536633" lon="-4.845150">
        <ele>2314.0</ele>
        <time>2018-07-29T13:54:10Z</time>
      </trkpt>
      <trkpt lat="40.536717" lon="-4.845067">
        <ele>2313.0</ele>
        <time>2018-07-29T13:54:11Z</time>
      </trkpt>
      <trkpt lat="40.536783" lon="-4.844983">
        <ele>2311.0</ele>
        <time>2018-07-29T13:54:12Z</time>
      </trkpt>
      <trkpt lat="40.536833" lon="-4.844883">
        <ele>2309.0</ele>
        <time>2018-07-29T13:54:13Z</time>
      </trkpt>
      <trkpt lat="40.536900" lon="-4.844783">
        <ele>2306.0</ele>
        <time>2018-07-29T13:54:14Z</time>
      </trkpt>
      <trkpt lat="40.536983" lon="-4.844683">
        <ele>2303.0</ele>
        <time>2018-07-29T13:54:15Z</time>
      </trkpt>
      <trkpt lat="40.537050" lon="-4.844600">
        <ele>2300.0</ele>
        <time>2018-07-29T13:54:16Z</time>
      </trkpt>
      <trkpt lat="40.537150" lon="-4.844500">
        <ele>2297.0</ele>
        <time>2018-07-29T13:54:17Z</time>
      </trkpt>
      <trkpt lat="40.537233" lon="-4.844400">
        <ele>2294.0</ele>
        <time>2018-07-29T13:54:18Z</time>
      </trkpt>
      <trkpt lat="40.537317" lon="-4.844317">
        <ele>2292.0</ele>
        <time>2018-07-29T13:54:19Z</time>
      </trkpt>
      <trkpt lat="40.537383" lon="-4.844217">
        <ele>2290.0</ele>
        <time>2018-07-29T13:54:20Z</time>
      </trkpt>
      <trkpt lat="40.537467" lon="-4.844133">
        <ele>2287.0</ele>
        <time>2018-07-29T13:54:21Z</time>
      </trkpt>
      <trkpt lat="40.537550" lon="-4.844033">
        <ele>2284.0</ele>
        <time>2018-07-29T13:54:22Z</time>
      </trkpt>
      <trkpt lat="40.537633" lon="-4.843950">
        <ele>2281.0</ele>
        <time>2018-07-29T13:54:23Z</time>
      </trkpt>
      <trkpt lat="40.537717" lon="-4.843850">
        <ele>2278.0</ele>
        <time>2018-07-29T13:54:24Z</time>
      </trkpt>
      <trkpt lat="40.537800" lon="-4.843750">
        <ele>2275.0</ele>
        <time>2018-07-29T13:54:25Z</time>
      </trkpt>
      <trkpt lat="40.537883" lon="-4.843667">
        <ele>2273.0</ele>
        <time>2018-07-29T13:54:26Z</time>
      </trkpt>
      <trkpt lat="40.537967" lon="-4.843583">
        <ele>2271.0</ele>
        <time>2018-07-29T13:54:27Z</time>
      </trkpt>
      <trkpt lat="40.538050" lon="-4.843517">
        <ele>2267.0</ele>
        <time>2018-07-29T13:54:28Z</time>
      </trkpt>
      <trkpt lat="40.538133" lon="-4.843433">
        <ele>2263.0</ele>
        <time>2018-07-29T13:54:29Z</time>
      </trkpt>
      <trkpt lat="40.538233" lon="-4.843333">
        <ele>2259.0</ele>
        <time>2018-07-29T13:54:30Z</time>
      </trkpt>
      <trkpt lat="40.538333" lon="-4.843233">
        <ele>2255.0</ele>
        <time>2018-07-29T13:54:31Z</time>
      </trkpt>
      <trkpt lat="40.538417" lon="-4.843133">
        <ele>2252.0</ele>
        <time>2018-07-29T13:54:32Z</time>
      </trkpt>
      <trkpt lat="40.538517" lon="-4.843033">
        <ele>2250.0</ele>
        <time>2018-07-29T13:54:33Z</time>
      </trkpt>
      <trkpt lat="40.538600" lon="-4.842950">
        <ele>2248.0</ele>
        <time>2018-07-29T13:54:34Z</time>
      </trkpt>
      <trkpt lat="40.538700" lon="-4.842850">
        <ele>2245.0</ele>
        <time>2018-07-29T13:54:35Z</time>
      </trkpt>
      <trkpt lat="40.538783" lon="-4.842767">
        <ele>2241.0</ele>
        <time>2018-07-29T13:54:36Z</time>
      </trkpt>
      <trkpt lat="40.538883" lon="-4.842667">
        <ele>2238.0</ele>
        <time>2018-07-29T13:54:37Z</time>
      </trkpt>
      <trkpt lat="40.538983" lon="-4.842567">
        <ele>2235.0</ele>
        <time>2018-07-29T13:54:38Z</time>
      </trkpt>
      <trkpt lat="40.539100" lon="-4.842483">
        <ele>2233.0</ele>
        <time>2018-07-29T13:54:39Z</time>
      </trkpt>
      <trkpt lat="40.539200" lon="-4.842383">
        <ele>2231.0</ele>
        <time>2018-07-29T13:54:40Z</time>
      </trkpt>
      <trkpt lat="40.539283" lon="-4.842300">
        <ele>2229.0</ele>
        <time>2018-07-29T13:54:41Z</time>
      </trkpt>
      <trkpt lat="40.539367" lon="-4.842200">
        <ele>2226.0</ele>
        <time>2018-07-29T13:54:42Z</time>
      </trkpt>
      <trkpt lat="40.539467" lon="-4.842117">
        <ele>2223.0</ele>
        <time>2018-07-29T13:54:43Z</time>
      </trkpt>
      <trkpt lat="40.539550" lon="-4.842033">
        <ele>2220.0</ele>
        <time>2018-07-29T13:54:44Z</time>
      </trkpt>
      <trkpt lat="40.539650" lon="-4.841950">
        <ele>2217.0</ele>
        <time>2018-07-29T13:54:45Z</time>
      </trkpt>
      <trkpt lat="40.539733" lon="-4.841867">
        <ele>2214.0</ele>
        <time>2018-07-29T13:54:46Z</time>
      </trkpt>
      <trkpt lat="40.539833" lon="-4.841767">
        <ele>2211.0</ele>
        <time>2018-07-29T13:54:47Z</time>
      </trkpt>
      <trkpt lat="40.539933" lon="-4.841683">
        <ele>2208.0</ele>
        <time>2018-07-29T13:54:48Z</time>
      </trkpt>
      <trkpt lat="40.540017" lon="-4.841583">
        <ele>2205.0</ele>
        <time>2018-07-29T13:54:49Z</time>
      </trkpt>
      <trkpt lat="40.540117" lon="-4.841483">
        <ele>2202.0</ele>
        <time>2018-07-29T13:54:50Z</time>
      </trkpt>
      <trkpt lat="40.540217" lon="-4.841383">
        <ele>2199.0</ele>
        <time>2018-07-29T13:54:51Z</time>
      </trkpt>
      <trkpt lat="40.540317" lon="-4.841283">
        <ele>2197.0</ele>
        <time>2018-07-29T13:54:52Z</time>
      </trkpt>
      <trkpt lat="40.540417" lon="-4.841200">
        <ele>2194.0</ele>
        <time>2018-07-29T13:54:53Z</time>
      </trkpt>
      <trkpt lat="40.540517" lon="-4.841117">
        <ele>2190.0</ele>
        <time>2018-07-29T13:54:54Z</time>
      </trkpt>
      <trkpt lat="40.540583" lon="-4.841033">
        <ele>2186.0</ele>
        <time>2018-07-29T13:54:55Z</time>
      </trkpt>
      <trkpt lat="40.540650" lon="-4.840950">
        <ele>2181.0</ele>
        <time>2018-07-29T13:54:56Z</time>
      </trkpt>
      <trkpt lat="40.540733" lon="-4.840867">
        <ele>2176.0</ele>
        <time>2018-07-29T13:54:57Z</time>
      </trkpt>
      <trkpt lat="40.540817" lon="-4.840783">
        <ele>2170.0</ele>
        <time>2018-07-29T13:54:58Z</time>
      </trkpt>
      <trkpt lat="40.540917" lon="-4.840700">
        <ele>2165.0</ele>
        <time>2018-07-29T13:54:59Z</time>
      </trkpt>
      <trkpt lat="40.541017" lon="-4.840617">
        <ele>2160.0</ele>
        <time>2018-07-29T13:55:00Z</time>
      </trkpt>
      <trkpt lat="40.541133" lon="-4.840533">
        <ele>2156.0</ele>
        <time>2018-07-29T13:55:01Z</time>
      </trkpt>
      <trkpt lat="40.541250" lon="-4.840450">
        <ele>2154.0</ele>
        <time>2018-07-29T13:55:02Z</time>
      </trkpt>
      <trkpt lat="40.541350" lon="-4.840383">
        <ele>2153.0</ele>
        <time>2018-07-29T13:55:03Z</time>
      </trkpt>
      <trkpt lat="40.541433" lon="-4.840317">
        <ele>2152.0</ele>
        <time>2018-07-29T13:55:04Z</time>
      </trkpt>
      <trkpt lat="40.541517" lon="-4.840250">
        <ele>2150.0</ele>
        <time>2018-07-29T13:55:05Z</time>
      </trkpt>
      <trkpt lat="40.541617" lon="-4.840183">
        <ele>2147.0</ele>
        <time>2018-07-29T13:55:06Z</time>
      </trkpt>
      <trkpt lat="40.541700" lon="-4.840083">
        <ele>2143.0</ele>
        <time>2018-07-29T13:55:07Z</time>
      </trkpt>
      <trkpt lat="40.541783" lon="-4.839983">
        <ele>2138.0</ele>
        <time>2018-07-29T13:55:08Z</time>
      </trkpt>
      <trkpt lat="40.541883" lon="-4.839883">
        <ele>2133.0</ele>
        <time>2018-07-29T13:55:09Z</time>
      </trkpt>
      <trkpt lat="40.542000" lon="-4.839783">
        <ele>2128.0</ele>
        <time>2018-07-29T13:55:10Z</time>
      </trkpt>
      <trkpt lat="40.542117" lon="-4.839683">
        <ele>2125.0</ele>
        <time>2018-07-29T13:55:11Z</time>
      </trkpt>
      <trkpt lat="40.542217" lon="-4.839583">
        <ele>2122.0</ele>
        <time>2018-07-29T13:55:12Z</time>
      </trkpt>
      <trkpt lat="40.542317" lon="-4.839483">
        <ele>2120.0</ele>
        <time>2018-07-29T13:55:13Z</time>
      </trkpt>
      <trkpt lat="40.542400" lon="-4.839367">
        <ele>2118.0</ele>
        <time>2018-07-29T13:55:14Z</time>
      </trkpt>
      <trkpt lat="40.542500" lon="-4.839267">
        <ele>2116.0</ele>
        <time>2018-07-29T13:55:15Z</time>
      </trkpt>
      <trkpt lat="40.542583" lon="-4.839167">
        <ele>2115.0</ele>
        <time>2018-07-29T13:55:16Z</time>
      </trkpt>
      <trkpt lat="40.542683" lon="-4.839067">
        <ele>2114.0</ele>
        <time>2018-07-29T13:55:17Z</time>
      </trkpt>
      <trkpt lat="40.542783" lon="-4.838983">
        <ele>2114.0</ele>
        <time>2018-07-29T13:55:18Z</time>
      </trkpt>
      <trkpt lat="40.542883" lon="-4.838883">
        <ele>2113.0</ele>
        <time>2018-07-29T13:55:19Z</time>
      </trkpt>
      <trkpt lat="40.542967" lon="-4.838783">
        <ele>2112.0</ele>
        <time>2018-07-29T13:55:20Z</time>
      </trkpt>
      <trkpt lat="40.543067" lon="-4.838683">
        <ele>2111.0</ele>
        <time>2018-07-29T13:55:21Z</time>
      </trkpt>
      <trkpt lat="40.543150" lon="-4.838583">
        <ele>2111.0</ele>
        <time>2018-07-29T13:55:22Z</time>
      </trkpt>
      <trkpt lat="40.543233" lon="-4.838483">
        <ele>2111.0</ele>
        <time>2018-07-29T13:55:23Z</time>
      </trkpt>
      <trkpt lat="40.543317" lon="-4.838383">
        <ele>2110.0</ele>
        <time>2018-07-29T13:55:24Z</time>
      </trkpt>
      <trkpt lat="40.543400" lon="-4.838283">
        <ele>2109.0</ele>
        <time>2018-07-29T13:55:25Z</time>
      </trkpt>
      <trkpt lat="40.543500" lon="-4.838183">
        <ele>2108.0</ele>
        <time>2018-07-29T13:55:26Z</time>
      </trkpt>
      <trkpt lat="40.543583" lon="-4.838067">
        <ele>2107.0</ele>
        <time>2018-07-29T13:55:27Z</time>
      </trkpt>
      <trkpt lat="40.543667" lon="-4.837967">
        <ele>2106.0</ele>
        <time>2018-07-29T13:55:28Z</time>
      </trkpt>
      <trkpt lat="40.543733" lon="-4.837850">
        <ele>2106.0</ele>
        <time>2018-07-29T13:55:29Z</time>
      </trkpt>
      <trkpt lat="40.543817" lon="-4.837750">
        <ele>2105.0</ele>
        <time>2018-07-29T13:55:30Z</time>
      </trkpt>
      <trkpt lat="40.543900" lon="-4.837633">
        <ele>2105.0</ele>
        <time>2018-07-29T13:55:31Z</time>
      </trkpt>
      <trkpt lat="40.543983" lon="-4.837533">
        <ele>2105.0</ele>
        <time>2018-07-29T13:55:32Z</time>
      </trkpt>
      <trkpt lat="40.544067" lon="-4.837433">
        <ele>2104.0</ele>
        <time>2018-07-29T13:55:33Z</time>
      </trkpt>
      <trkpt lat="40.544150" lon="-4.837333">
        <ele>2104.0</ele>
        <time>2018-07-29T13:55:34Z</time>
      </trkpt>
      <trkpt lat="40.544233" lon="-4.837217">
        <ele>2104.0</ele>
        <time>2018-07-29T13:55:35Z</time>
      </trkpt>
      <trkpt lat="40.544317" lon="-4.837100">
        <ele>2103.0</ele>
        <time>2018-07-29T13:55:36Z</time>
      </trkpt>
      <trkpt lat="40.544383" lon="-4.836983">
        <ele>2103.0</ele>
        <time>2018-07-29T13:55:37Z</time>
      </trkpt>
      <trkpt lat="40.544467" lon="-4.836867">
        <ele>2104.0</ele>
        <time>2018-07-29T13:55:38Z</time>
      </trkpt>
      <trkpt lat="40.544550" lon="-4.836733">
        <ele>2102.0</ele>
        <time>2018-07-29T13:55:39Z</time>
      </trkpt>
      <trkpt lat="40.544617" lon="-4.836617">
        <ele>2103.0</ele>
        <time>2018-07-29T13:55:40Z</time>
      </trkpt>
      <trkpt lat="40.544683" lon="-4.836500">
        <ele>2103.0</ele>
        <time>2018-07-29T13:55:41Z</time>
      </trkpt>
      <trkpt lat="40.544750" lon="-4.836367">
        <ele>2103.0</ele>
        <time>2018-07-29T13:55:42Z</time>
      </trkpt>
      <trkpt lat="40.544800" lon="-4.836250">
        <ele>2102.0</ele>
        <time>2018-07-29T13:55:43Z</time>
      </trkpt>
      <trkpt lat="40.544867" lon="-4.836117">
        <ele>2102.0</ele>
        <time>2018-07-29T13:55:44Z</time>
      </trkpt>
      <trkpt lat="40.544933" lon="-4.835983">
        <ele>2102.0</ele>
        <time>2018-07-29T13:55:45Z</time>
      </trkpt>
      <trkpt lat="40.545000" lon="-4.835867">
        <ele>2101.0</ele>
        <time>2018-07-29T13:55:46Z</time>
      </trkpt>
      <trkpt lat="40.545050" lon="-4.835733">
        <ele>2099.0</ele>
        <time>2018-07-29T13:55:47Z</time>
      </trkpt>
      <trkpt lat="40.545117" lon="-4.835617">
        <ele>2098.0</ele>
        <time>2018-07-29T13:55:48Z</time>
      </trkpt>
      <trkpt lat="40.545183" lon="-4.835500">
        <ele>2095.0</ele>
        <time>2018-07-29T13:55:49Z</time>
      </trkpt>
      <trkpt lat="40.545267" lon="-4.835400">
        <ele>2093.0</ele>
        <time>2018-07-29T13:55:50Z</time>
      </trkpt>
      <trkpt lat="40.545350" lon="-4.835267">
        <ele>2091.0</ele>
        <time>2018-07-29T13:55:51Z</time>
      </trkpt>
      <trkpt lat="40.545433" lon="-4.835150">
        <ele>2089.0</ele>
        <time>2018-07-29T13:55:52Z</time>
      </trkpt>
      <trkpt lat="40.545517" lon="-4.835033">
        <ele>2088.0</ele>
        <time>2018-07-29T13:55:53Z</time>
      </trkpt>
      <trkpt lat="40.545583" lon="-4.834917">
        <ele>2087.0</ele>
        <time>2018-07-29T13:55:54Z</time>
      </trkpt>
      <trkpt lat="40.545650" lon="-4.834833">
        <ele>2086.0</ele>
        <time>2018-07-29T13:55:55Z</time>
      </trkpt>
      <trkpt lat="40.545717" lon="-4.834733">
        <ele>2083.0</ele>
        <time>2018-07-29T13:55:56Z</time>
      </trkpt>
      <trkpt lat="40.545800" lon="-4.834650">
        <ele>2081.0</ele>
        <time>2018-07-29T13:55:57Z</time>
      </trkpt>
      <trkpt lat="40.545867" lon="-4.834567">
        <ele>2079.0</ele>
        <time>2018-07-29T13:55:58Z</time>
      </trkpt>
      <trkpt lat="40.545950" lon="-4.834483">
        <ele>2079.0</ele>
        <time>2018-07-29T13:55:59Z</time>
      </trkpt>
      <trkpt lat="40.546033" lon="-4.834400">
        <ele>2077.0</ele>
        <time>2018-07-29T13:56:00Z</time>
      </trkpt>
      <trkpt lat="40.546100" lon="-4.834333">
        <ele>2076.0</ele>
        <time>2018-07-29T13:56:01Z</time>
      </trkpt>
      <trkpt lat="40.546183" lon="-4.834250">
        <ele>2075.0</ele>
        <time>2018-07-29T13:56:02Z</time>
      </trkpt>
      <trkpt lat="40.546267" lon="-4.834183">
        <ele>2076.0</ele>
        <time>2018-07-29T13:56:03Z</time>
      </trkpt>
      <trkpt lat="40.546367" lon="-4.834117">
        <ele>2076.0</ele>
        <time>2018-07-29T13:56:04Z</time>
      </trkpt>
      <trkpt lat="40.546450" lon="-4.834067">
        <ele>2079.0</ele>
        <time>2018-07-29T13:56:05Z</time>
      </trkpt>
      <trkpt lat="40.546517" lon="-4.834017">
        <ele>2081.0</ele>
        <time>2018-07-29T13:56:06Z</time>
      </trkpt>
      <trkpt lat="40.546583" lon="-4.833950">
        <ele>2083.0</ele>
        <time>2018-07-29T13:56:07Z</time>
      </trkpt>
      <trkpt lat="40.546633" lon="-4.833883">
        <ele>2083.0</ele>
        <time>2018-07-29T13:56:08Z</time>
      </trkpt>
      <trkpt lat="40.546683" lon="-4.833833">
        <ele>2084.0</ele>
        <time>2018-07-29T13:56:09Z</time>
      </trkpt>
      <trkpt lat="40.546750" lon="-4.833783">
        <ele>2084.0</ele>
        <time>2018-07-29T13:56:10Z</time>
      </trkpt>
      <trkpt lat="40.546817" lon="-4.833733">
        <ele>2084.0</ele>
        <time>2018-07-29T13:56:11Z</time>
      </trkpt>
      <trkpt lat="40.546883" lon="-4.833667">
        <ele>2086.0</ele>
        <time>2018-07-29T13:56:12Z</time>
      </trkpt>
      <trkpt lat="40.546933" lon="-4.833617">
        <ele>2087.0</ele>
        <time>2018-07-29T13:56:13Z</time>
      </trkpt>
      <trkpt lat="40.547000" lon="-4.833550">
        <ele>2089.0</ele>
        <time>2018-07-29T13:56:14Z</time>
      </trkpt>
      <trkpt lat="40.547050" lon="-4.833500">
        <ele>2091.0</ele>
        <time>2018-07-29T13:56:15Z</time>
      </trkpt>
      <trkpt lat="40.547100" lon="-4.833433">
        <ele>2093.0</ele>
        <time>2018-07-29T13:56:16Z</time>
      </trkpt>
      <trkpt lat="40.547167" lon="-4.833383">
        <ele>2095.0</ele>
        <time>2018-07-29T13:56:17Z</time>
      </trkpt>
      <trkpt lat="40.547217" lon="-4.833333">
        <ele>2098.0</ele>
        <time>2018-07-29T13:56:18Z</time>
      </trkpt>
      <trkpt lat="40.547267" lon="-4.833283">
        <ele>2100.0</ele>
        <time>2018-07-29T13:56:19Z</time>
      </trkpt>
      <trkpt lat="40.547333" lon="-4.833233">
        <ele>2102.0</ele>
        <time>2018-07-29T13:56:20Z</time>
      </trkpt>
      <trkpt lat="40.547383" lon="-4.833183">
        <ele>2104.0</ele>
        <time>2018-07-29T13:56:21Z</time>
      </trkpt>
      <trkpt lat="40.547433" lon="-4.833150">
        <ele>2106.0</ele>
        <time>2018-07-29T13:56:22Z</time>
      </trkpt>
      <trkpt lat="40.547483" lon="-4.833117">
        <ele>2107.0</ele>
        <time>2018-07-29T13:56:23Z</time>
      </trkpt>
      <trkpt lat="40.547550" lon="-4.833067">
        <ele>2108.0</ele>
        <time>2018-07-29T13:56:24Z</time>
      </trkpt>
      <trkpt lat="40.547633" lon="-4.833017">
        <ele>2109.0</ele>
        <time>2018-07-29T13:56:25Z</time>
      </trkpt>
      <trkpt lat="40.547700" lon="-4.832950">
        <ele>2110.0</ele>
        <time>2018-07-29T13:56:26Z</time>
      </trkpt>
      <trkpt lat="40.547767" lon="-4.832867">
        <ele>2111.0</ele>
        <time>2018-07-29T13:56:27Z</time>
      </trkpt>
      <trkpt lat="40.547833" lon="-4.832783">
        <ele>2112.0</ele>
        <time>2018-07-29T13:56:28Z</time>
      </trkpt>
      <trkpt lat="40.547900" lon="-4.832700">
        <ele>2114.0</ele>
        <time>2018-07-29T13:56:29Z</time>
      </trkpt>
      <trkpt lat="40.547967" lon="-4.832633">
        <ele>2115.0</ele>
        <time>2018-07-29T13:56:30Z</time>
      </trkpt>
      <trkpt lat="40.548017" lon="-4.832550">
        <ele>2117.0</ele>
        <time>2018-07-29T13:56:31Z</time>
      </trkpt>
      <trkpt lat="40.548083" lon="-4.832500">
        <ele>2117.0</ele>
        <time>2018-07-29T13:56:32Z</time>
      </trkpt>
      <trkpt lat="40.548150" lon="-4.832417">
        <ele>2117.0</ele>
        <time>2018-07-29T13:56:33Z</time>
      </trkpt>
      <trkpt lat="40.548217" lon="-4.832350">
        <ele>2117.0</ele>
        <time>2018-07-29T13:56:34Z</time>
      </trkpt>
      <trkpt lat="40.548283" lon="-4.832267">
        <ele>2117.0</ele>
        <time>2018-07-29T13:56:35Z</time>
      </trkpt>
      <trkpt lat="40.548350" lon="-4.832200">
        <ele>2117.0</ele>
        <time>2018-07-29T13:56:36Z</time>
      </trkpt>
      <trkpt lat="40.548400" lon="-4.832117">
        <ele>2118.0</ele>
        <time>2018-07-29T13:56:37Z</time>
      </trkpt>
      <trkpt lat="40.548467" lon="-4.832033">
        <ele>2118.0</ele>
        <time>2018-07-29T13:56:38Z</time>
      </trkpt>
      <trkpt lat="40.548533" lon="-4.831933">
        <ele>2118.0</ele>
        <time>2018-07-29T13:56:39Z</time>
      </trkpt>
      <trkpt lat="40.548617" lon="-4.831833">
        <ele>2118.0</ele>
        <time>2018-07-29T13:56:40Z</time>
      </trkpt>
      <trkpt lat="40.548683" lon="-4.831750">
        <ele>2118.0</ele>
        <time>2018-07-29T13:56:41Z</time>
      </trkpt>
      <trkpt lat="40.548750" lon="-4.831667">
        <ele>2117.0</ele>
        <time>2018-07-29T13:56:42Z</time>
      </trkpt>
      <trkpt lat="40.548817" lon="-4.831583">
        <ele>2117.0</ele>
        <time>2018-07-29T13:56:43Z</time>
      </trkpt>
      <trkpt lat="40.548900" lon="-4.831500">
        <ele>2117.0</ele>
        <time>2018-07-29T13:56:44Z</time>
      </trkpt>
      <trkpt lat="40.548967" lon="-4.831417">
        <ele>2117.0</ele>
        <time>2018-07-29T13:56:45Z</time>
      </trkpt>
      <trkpt lat="40.549050" lon="-4.831317">
        <ele>2117.0</ele>
        <time>2018-07-29T13:56:46Z</time>
      </trkpt>
      <trkpt lat="40.549117" lon="-4.831200">
        <ele>2118.0</ele>
        <time>2018-07-29T13:56:47Z</time>
      </trkpt>
      <trkpt lat="40.549183" lon="-4.831100">
        <ele>2118.0</ele>
        <time>2018-07-29T13:56:48Z</time>
      </trkpt>
      <trkpt lat="40.549250" lon="-4.831000">
        <ele>2119.0</ele>
        <time>2018-07-29T13:56:49Z</time>
      </trkpt>
      <trkpt lat="40.549317" lon="-4.830917">
        <ele>2119.0</ele>
        <time>2018-07-29T13:56:50Z</time>
      </trkpt>
      <trkpt lat="40.549383" lon="-4.830817">
        <ele>2119.0</ele>
        <time>2018-07-29T13:56:51Z</time>
      </trkpt>
      <trkpt lat="40.549450" lon="-4.830733">
        <ele>2118.0</ele>
        <time>2018-07-29T13:56:52Z</time>
      </trkpt>
      <trkpt lat="40.549517" lon="-4.830650">
        <ele>2117.0</ele>
        <time>2018-07-29T13:56:53Z</time>
      </trkpt>
      <trkpt lat="40.549600" lon="-4.830567">
        <ele>2116.0</ele>
        <time>2018-07-29T13:56:54Z</time>
      </trkpt>
      <trkpt lat="40.549683" lon="-4.830483">
        <ele>2116.0</ele>
        <time>2018-07-29T13:56:55Z</time>
      </trkpt>
      <trkpt lat="40.549767" lon="-4.830400">
        <ele>2117.0</ele>
        <time>2018-07-29T13:56:56Z</time>
      </trkpt>
      <trkpt lat="40.549833" lon="-4.830317">
        <ele>2120.0</ele>
        <time>2018-07-29T13:56:57Z</time>
      </trkpt>
      <trkpt lat="40.549883" lon="-4.830250">
        <ele>2122.0</ele>
        <time>2018-07-29T13:56:58Z</time>
      </trkpt>
      <trkpt lat="40.549933" lon="-4.830150">
        <ele>2124.0</ele>
        <time>2018-07-29T13:56:59Z</time>
      </trkpt>
      <trkpt lat="40.549950" lon="-4.830067">
        <ele>2125.0</ele>
        <time>2018-07-29T13:57:00Z</time>
      </trkpt>
      <trkpt lat="40.550000" lon="-4.829967">
        <ele>2124.0</ele>
        <time>2018-07-29T13:57:01Z</time>
      </trkpt>
      <trkpt lat="40.550033" lon="-4.829867">
        <ele>2123.0</ele>
        <time>2018-07-29T13:57:02Z</time>
      </trkpt>
      <trkpt lat="40.550083" lon="-4.829783">
        <ele>2122.0</ele>
        <time>2018-07-29T13:57:03Z</time>
      </trkpt>
      <trkpt lat="40.550150" lon="-4.829683">
        <ele>2121.0</ele>
        <time>2018-07-29T13:57:04Z</time>
      </trkpt>
      <trkpt lat="40.550217" lon="-4.829583">
        <ele>2121.0</ele>
        <time>2018-07-29T13:57:05Z</time>
      </trkpt>
      <trkpt lat="40.550300" lon="-4.829467">
        <ele>2122.0</ele>
        <time>2018-07-29T13:57:06Z</time>
      </trkpt>
      <trkpt lat="40.550367" lon="-4.829367">
        <ele>2123.0</ele>
        <time>2018-07-29T13:57:07Z</time>
      </trkpt>
      <trkpt lat="40.550433" lon="-4.829267">
        <ele>2125.0</ele>
        <time>2018-07-29T13:57:08Z</time>
      </trkpt>
      <trkpt lat="40.550483" lon="-4.829167">
        <ele>2126.0</ele>
        <time>2018-07-29T13:57:09Z</time>
      </trkpt>
      <trkpt lat="40.550550" lon="-4.829067">
        <ele>2127.0</ele>
        <time>2018-07-29T13:57:10Z</time>
      </trkpt>
      <trkpt lat="40.550600" lon="-4.828983">
        <ele>2126.0</ele>
        <time>2018-07-29T13:57:11Z</time>
      </trkpt>
      <trkpt lat="40.550667" lon="-4.828883">
        <ele>2126.0</ele>
        <time>2018-07-29T13:57:12Z</time>
      </trkpt>
      <trkpt lat="40.550733" lon="-4.828817">
        <ele>2125.0</ele>
        <time>2018-07-29T13:57:13Z</time>
      </trkpt>
      <trkpt lat="40.550800" lon="-4.828750">
        <ele>2124.0</ele>
        <time>2018-07-29T13:57:14Z</time>
      </trkpt>
      <trkpt lat="40.550867" lon="-4.828683">
        <ele>2123.0</ele>
        <time>2018-07-29T13:57:15Z</time>
      </trkpt>
      <trkpt lat="40.550950" lon="-4.828617">
        <ele>2122.0</ele>
        <time>2018-07-29T13:57:16Z</time>
      </trkpt>
      <trkpt lat="40.551017" lon="-4.828550">
        <ele>2120.0</ele>
        <time>2018-07-29T13:57:17Z</time>
      </trkpt>
      <trkpt lat="40.551100" lon="-4.828483">
        <ele>2119.0</ele>
        <time>2018-07-29T13:57:18Z</time>
      </trkpt>
      <trkpt lat="40.551167" lon="-4.828417">
        <ele>2117.0</ele>
        <time>2018-07-29T13:57:19Z</time>
      </trkpt>
      <trkpt lat="40.551250" lon="-4.828350">
        <ele>2116.0</ele>
        <time>2018-07-29T13:57:20Z</time>
      </trkpt>
      <trkpt lat="40.551317" lon="-4.828283">
        <ele>2115.0</ele>
        <time>2018-07-29T13:57:21Z</time>
      </trkpt>
      <trkpt lat="40.551383" lon="-4.828217">
        <ele>2114.0</ele>
        <time>2018-07-29T13:57:22Z</time>
      </trkpt>
      <trkpt lat="40.551450" lon="-4.828167">
        <ele>2113.0</ele>
        <time>2018-07-29T13:57:23Z</time>
      </trkpt>
      <trkpt lat="40.551517" lon="-4.828100">
        <ele>2111.0</ele>
        <time>2018-07-29T13:57:24Z</time>
      </trkpt>
      <trkpt lat="40.551583" lon="-4.828067">
        <ele>2108.0</ele>
        <time>2018-07-29T13:57:25Z</time>
      </trkpt>
      <trkpt lat="40.551650" lon="-4.828017">
        <ele>2105.0</ele>
        <time>2018-07-29T13:57:26Z</time>
      </trkpt>
      <trkpt lat="40.551717" lon="-4.827967">
        <ele>2103.0</ele>
        <time>2018-07-29T13:57:27Z</time>
      </trkpt>
      <trkpt lat="40.551800" lon="-4.827900">
        <ele>2100.0</ele>
        <time>2018-07-29T13:57:28Z</time>
      </trkpt>
      <trkpt lat="40.551867" lon="-4.827850">
        <ele>2097.0</ele>
        <time>2018-07-29T13:57:29Z</time>
      </trkpt>
      <trkpt lat="40.551933" lon="-4.827783">
        <ele>2094.0</ele>
        <time>2018-07-29T13:57:30Z</time>
      </trkpt>
      <trkpt lat="40.552017" lon="-4.827717">
        <ele>2091.0</ele>
        <time>2018-07-29T13:57:31Z</time>
      </trkpt>
      <trkpt lat="40.552117" lon="-4.827667">
        <ele>2089.0</ele>
        <time>2018-07-29T13:57:32Z</time>
      </trkpt>
      <trkpt lat="40.552200" lon="-4.827617">
        <ele>2088.0</ele>
        <time>2018-07-29T13:57:33Z</time>
      </trkpt>
      <trkpt lat="40.552283" lon="-4.827583">
        <ele>2088.0</ele>
        <time>2018-07-29T13:57:34Z</time>
      </trkpt>
      <trkpt lat="40.552350" lon="-4.827517">
        <ele>2088.0</ele>
        <time>2018-07-29T13:57:35Z</time>
      </trkpt>
      <trkpt lat="40.552417" lon="-4.827450">
        <ele>2086.0</ele>
        <time>2018-07-29T13:57:36Z</time>
      </trkpt>
      <trkpt lat="40.552483" lon="-4.827383">
        <ele>2084.0</ele>
        <time>2018-07-29T13:57:37Z</time>
      </trkpt>
      <trkpt lat="40.552550" lon="-4.827283">
        <ele>2080.0</ele>
        <time>2018-07-29T13:57:38Z</time>
      </trkpt>
      <trkpt lat="40.552617" lon="-4.827200">
        <ele>2077.0</ele>
        <time>2018-07-29T13:57:39Z</time>
      </trkpt>
      <trkpt lat="40.552700" lon="-4.827117">
        <ele>2073.0</ele>
        <time>2018-07-29T13:57:40Z</time>
      </trkpt>
      <trkpt lat="40.552800" lon="-4.827033">
        <ele>2070.0</ele>
        <time>2018-07-29T13:57:41Z</time>
      </trkpt>
      <trkpt lat="40.552883" lon="-4.826950">
        <ele>2069.0</ele>
        <time>2018-07-29T13:57:42Z</time>
      </trkpt>
      <trkpt lat="40.552950" lon="-4.826883">
        <ele>2068.0</ele>
        <time>2018-07-29T13:57:43Z</time>
      </trkpt>
      <trkpt lat="40.553017" lon="-4.826817">
        <ele>2066.0</ele>
        <time>2018-07-29T13:57:44Z</time>
      </trkpt>
      <trkpt lat="40.553083" lon="-4.826750">
        <ele>2064.0</ele>
        <time>2018-07-29T13:57:45Z</time>
      </trkpt>
      <trkpt lat="40.553150" lon="-4.826667">
        <ele>2060.0</ele>
        <time>2018-07-29T13:57:46Z</time>
      </trkpt>
      <trkpt lat="40.553217" lon="-4.826583">
        <ele>2056.0</ele>
        <time>2018-07-29T13:57:47Z</time>
      </trkpt>
      <trkpt lat="40.553300" lon="-4.826500">
        <ele>2052.0</ele>
        <time>2018-07-29T13:57:48Z</time>
      </trkpt>
      <trkpt lat="40.553383" lon="-4.826417">
        <ele>2048.0</ele>
        <time>2018-07-29T13:57:49Z</time>
      </trkpt>
      <trkpt lat="40.553467" lon="-4.826367">
        <ele>2045.0</ele>
        <time>2018-07-29T13:57:50Z</time>
      </trkpt>
      <trkpt lat="40.553533" lon="-4.826317">
        <ele>2042.0</ele>
        <time>2018-07-29T13:57:51Z</time>
      </trkpt>
      <trkpt lat="40.553617" lon="-4.826283">
        <ele>2040.0</ele>
        <time>2018-07-29T13:57:52Z</time>
      </trkpt>
      <trkpt lat="40.553683" lon="-4.826250">
        <ele>2037.0</ele>
        <time>2018-07-29T13:57:53Z</time>
      </trkpt>
      <trkpt lat="40.553750" lon="-4.826200">
        <ele>2034.0</ele>
        <time>2018-07-29T13:57:54Z</time>
      </trkpt>
      <trkpt lat="40.553817" lon="-4.826150">
        <ele>2030.0</ele>
        <time>2018-07-29T13:57:55Z</time>
      </trkpt>
      <trkpt lat="40.553900" lon="-4.826100">
        <ele>2026.0</ele>
        <time>2018-07-29T13:57:56Z</time>
      </trkpt>
      <trkpt lat="40.553967" lon="-4.826050">
        <ele>2022.0</ele>
        <time>2018-07-29T13:57:57Z</time>
      </trkpt>
      <trkpt lat="40.554033" lon="-4.825983">
        <ele>2018.0</ele>
        <time>2018-07-29T13:57:58Z</time>
      </trkpt>
      <trkpt lat="40.554117" lon="-4.825917">
        <ele>2014.0</ele>
        <time>2018-07-29T13:57:59Z</time>
      </trkpt>
      <trkpt lat="40.554183" lon="-4.825850">
        <ele>2010.0</ele>
        <time>2018-07-29T13:58:00Z</time>
      </trkpt>
      <trkpt lat="40.554267" lon="-4.825783">
        <ele>2006.0</ele>
        <time>2018-07-29T13:58:01Z</time>
      </trkpt>
      <trkpt lat="40.554350" lon="-4.825700">
        <ele>2002.0</ele>
        <time>2018-07-29T13:58:02Z</time>
      </trkpt>
      <trkpt lat="40.554433" lon="-4.825633">
        <ele>1997.0</ele>
        <time>2018-07-29T13:58:03Z</time>
      </trkpt>
      <trkpt lat="40.554517" lon="-4.825533">
        <ele>1993.0</ele>
        <time>2018-07-29T13:58:04Z</time>
      </trkpt>
      <trkpt lat="40.554600" lon="-4.825450">
        <ele>1989.0</ele>
        <time>2018-07-29T13:58:05Z</time>
      </trkpt>
      <trkpt lat="40.554683" lon="-4.825350">
        <ele>1986.0</ele>
        <time>2018-07-29T13:58:06Z</time>
      </trkpt>
      <trkpt lat="40.554767" lon="-4.825250">
        <ele>1982.0</ele>
        <time>2018-07-29T13:58:07Z</time>
      </trkpt>
      <trkpt lat="40.554850" lon="-4.825133">
        <ele>1979.0</ele>
        <time>2018-07-29T13:58:08Z</time>
      </trkpt>
      <trkpt lat="40.554933" lon="-4.825017">
        <ele>1975.0</ele>
        <time>2018-07-29T13:58:09Z</time>
      </trkpt>
      <trkpt lat="40.555017" lon="-4.824900">
        <ele>1972.0</ele>
        <time>2018-07-29T13:58:10Z</time>
      </trkpt>
      <trkpt lat="40.555100" lon="-4.824783">
        <ele>1969.0</ele>
        <time>2018-07-29T13:58:11Z</time>
      </trkpt>
      <trkpt lat="40.555167" lon="-4.824683">
        <ele>1967.0</ele>
        <time>2018-07-29T13:58:12Z</time>
      </trkpt>
      <trkpt lat="40.555250" lon="-4.824583">
        <ele>1964.0</ele>
        <time>2018-07-29T13:58:13Z</time>
      </trkpt>
      <trkpt lat="40.555317" lon="-4.824500">
        <ele>1961.0</ele>
        <time>2018-07-29T13:58:14Z</time>
      </trkpt>
      <trkpt lat="40.555383" lon="-4.824400">
        <ele>1956.0</ele>
        <time>2018-07-29T13:58:15Z</time>
      </trkpt>
      <trkpt lat="40.555467" lon="-4.824300">
        <ele>1951.0</ele>
        <time>2018-07-29T13:58:16Z</time>
      </trkpt>
      <trkpt lat="40.555550" lon="-4.824217">
        <ele>1946.0</ele>
        <time>2018-07-29T13:58:17Z</time>
      </trkpt>
      <trkpt lat="40.555633" lon="-4.824133">
        <ele>1942.0</ele>
        <time>2018-07-29T13:58:18Z</time>
      </trkpt>
      <trkpt lat="40.555717" lon="-4.824033">
        <ele>1938.0</ele>
        <time>2018-07-29T13:58:19Z</time>
      </trkpt>
      <trkpt lat="40.555800" lon="-4.823950">
        <ele>1934.0</ele>
        <time>2018-07-29T13:58:20Z</time>
      </trkpt>
      <trkpt lat="40.555883" lon="-4.823850">
        <ele>1930.0</ele>
        <time>2018-07-29T13:58:21Z</time>
      </trkpt>
      <trkpt lat="40.555967" lon="-4.823767">
        <ele>1926.0</ele>
        <time>2018-07-29T13:58:22Z</time>
      </trkpt>
      <trkpt lat="40.556050" lon="-4.823683">
        <ele>1923.0</ele>
        <time>2018-07-29T13:58:23Z</time>
      </trkpt>
      <trkpt lat="40.556133" lon="-4.823600">
        <ele>1919.0</ele>
        <time>2018-07-29T13:58:24Z</time>
      </trkpt>
      <trkpt lat="40.556233" lon="-4.823533">
        <ele>1915.0</ele>
        <time>2018-07-29T13:58:25Z</time>
      </trkpt>
      <trkpt lat="40.556317" lon="-4.823450">
        <ele>1911.0</ele>
        <time>2018-07-29T13:58:26Z</time>
      </trkpt>
      <trkpt lat="40.556417" lon="-4.823383">
        <ele>1907.0</ele>
        <time>2018-07-29T13:58:27Z</time>
      </trkpt>
      <trkpt lat="40.556517" lon="-4.823317">
        <ele>1904.0</ele>
        <time>2018-07-29T13:58:28Z</time>
      </trkpt>
      <trkpt lat="40.556617" lon="-4.823233">
        <ele>1901.0</ele>
        <time>2018-07-29T13:58:29Z</time>
      </trkpt>
      <trkpt lat="40.556700" lon="-4.823150">
        <ele>1898.0</ele>
        <time>2018-07-29T13:58:30Z</time>
      </trkpt>
      <trkpt lat="40.556783" lon="-4.823067">
        <ele>1894.0</ele>
        <time>2018-07-29T13:58:31Z</time>
      </trkpt>
      <trkpt lat="40.556883" lon="-4.822983">
        <ele>1890.0</ele>
        <time>2018-07-29T13:58:32Z</time>
      </trkpt>
      <trkpt lat="40.556967" lon="-4.822900">
        <ele>1886.0</ele>
        <time>2018-07-29T13:58:33Z</time>
      </trkpt>
      <trkpt lat="40.557067" lon="-4.822800">
        <ele>1882.0</ele>
        <time>2018-07-29T13:58:34Z</time>
      </trkpt>
      <trkpt lat="40.557150" lon="-4.822700">
        <ele>1878.0</ele>
        <time>2018-07-29T13:58:35Z</time>
      </trkpt>
      <trkpt lat="40.557233" lon="-4.822600">
        <ele>1874.0</ele>
        <time>2018-07-29T13:58:36Z</time>
      </trkpt>
      <trkpt lat="40.557333" lon="-4.822500">
        <ele>1870.0</ele>
        <time>2018-07-29T13:58:37Z</time>
      </trkpt>
      <trkpt lat="40.557417" lon="-4.822400">
        <ele>1866.0</ele>
        <time>2018-07-29T13:58:38Z</time>
      </trkpt>
      <trkpt lat="40.557517" lon="-4.822300">
        <ele>1862.0</ele>
        <time>2018-07-29T13:58:39Z</time>
      </trkpt>
      <trkpt lat="40.557600" lon="-4.822217">
        <ele>1860.0</ele>
        <time>2018-07-29T13:58:40Z</time>
      </trkpt>
      <trkpt lat="40.557683" lon="-4.822133">
        <ele>1857.0</ele>
        <time>2018-07-29T13:58:41Z</time>
      </trkpt>
      <trkpt lat="40.557767" lon="-4.822050">
        <ele>1854.0</ele>
        <time>2018-07-29T13:58:42Z</time>
      </trkpt>
      <trkpt lat="40.557833" lon="-4.821967">
        <ele>1850.0</ele>
        <time>2018-07-29T13:58:43Z</time>
      </trkpt>
      <trkpt lat="40.557917" lon="-4.821883">
        <ele>1845.0</ele>
        <time>2018-07-29T13:58:44Z</time>
      </trkpt>
      <trkpt lat="40.558000" lon="-4.821783">
        <ele>1840.0</ele>
        <time>2018-07-29T13:58:45Z</time>
      </trkpt>
      <trkpt lat="40.558083" lon="-4.821667">
        <ele>1836.0</ele>
        <time>2018-07-29T13:58:46Z</time>
      </trkpt>
      <trkpt lat="40.558167" lon="-4.821567">
        <ele>1834.0</ele>
        <time>2018-07-29T13:58:47Z</time>
      </trkpt>
      <trkpt lat="40.558250" lon="-4.821467">
        <ele>1831.0</ele>
        <time>2018-07-29T13:58:48Z</time>
      </trkpt>
      <trkpt lat="40.558317" lon="-4.821367">
        <ele>1829.0</ele>
        <time>2018-07-29T13:58:49Z</time>
      </trkpt>
      <trkpt lat="40.558400" lon="-4.821267">
        <ele>1826.0</ele>
        <time>2018-07-29T13:58:50Z</time>
      </trkpt>
      <trkpt lat="40.558467" lon="-4.821167">
        <ele>1823.0</ele>
        <time>2018-07-29T13:58:51Z</time>
      </trkpt>
      <trkpt lat="40.558517" lon="-4.821067">
        <ele>1819.0</ele>
        <time>2018-07-29T13:58:52Z</time>
      </trkpt>
      <trkpt lat="40.558583" lon="-4.820950">
        <ele>1815.0</ele>
        <time>2018-07-29T13:58:53Z</time>
      </trkpt>
      <trkpt lat="40.558650" lon="-4.820850">
        <ele>1811.0</ele>
        <time>2018-07-29T13:58:54Z</time>
      </trkpt>
      <trkpt lat="40.558733" lon="-4.820750">
        <ele>1806.0</ele>
        <time>2018-07-29T13:58:55Z</time>
      </trkpt>
      <trkpt lat="40.558817" lon="-4.820650">
        <ele>1801.0</ele>
        <time>2018-07-29T13:58:56Z</time>
      </trkpt>
      <trkpt lat="40.558900" lon="-4.820533">
        <ele>1797.0</ele>
        <time>2018-07-29T13:58:57Z</time>
      </trkpt>
      <trkpt lat="40.558983" lon="-4.820433">
        <ele>1793.0</ele>
        <time>2018-07-29T13:58:58Z</time>
      </trkpt>
      <trkpt lat="40.559067" lon="-4.820333">
        <ele>1790.0</ele>
        <time>2018-07-29T13:58:59Z</time>
      </trkpt>
      <trkpt lat="40.559167" lon="-4.820267">
        <ele>1786.0</ele>
        <time>2018-07-29T13:59:00Z</time>
      </trkpt>
      <trkpt lat="40.559250" lon="-4.820183">
        <ele>1783.0</ele>
        <time>2018-07-29T13:59:01Z</time>
      </trkpt>
      <trkpt lat="40.559350" lon="-4.820100">
        <ele>1779.0</ele>
        <time>2018-07-29T13:59:02Z</time>
      </trkpt>
      <trkpt lat="40.559433" lon="-4.820000">
        <ele>1775.0</ele>
        <time>2018-07-29T13:59:03Z</time>
      </trkpt>
      <trkpt lat="40.559517" lon="-4.819900">
        <ele>1772.0</ele>
        <time>2018-07-29T13:59:04Z</time>
      </trkpt>
      <trkpt lat="40.559600" lon="-4.819817">
        <ele>1769.0</ele>
        <time>2018-07-29T13:59:05Z</time>
      </trkpt>
      <trkpt lat="40.559700" lon="-4.819717">
        <ele>1766.0</ele>
        <time>2018-07-29T13:59:06Z</time>
      </trkpt>
      <trkpt lat="40.559767" lon="-4.819617">
        <ele>1763.0</ele>
        <time>2018-07-29T13:59:07Z</time>
      </trkpt>
      <trkpt lat="40.559850" lon="-4.819517">
        <ele>1760.0</ele>
        <time>2018-07-29T13:59:08Z</time>
      </trkpt>
      <trkpt lat="40.559917" lon="-4.819400">
        <ele>1757.0</ele>
        <time>2018-07-29T13:59:09Z</time>
      </trkpt>
      <trkpt lat="40.559983" lon="-4.819283">
        <ele>1753.0</ele>
        <time>2018-07-29T13:59:10Z</time>
      </trkpt>
      <trkpt lat="40.560067" lon="-4.819167">
        <ele>1749.0</ele>
        <time>2018-07-29T13:59:11Z</time>
      </trkpt>
      <trkpt lat="40.560133" lon="-4.819050">
        <ele>1746.0</ele>
        <time>2018-07-29T13:59:12Z</time>
      </trkpt>
      <trkpt lat="40.560217" lon="-4.818933">
        <ele>1742.0</ele>
        <time>2018-07-29T13:59:13Z</time>
      </trkpt>
      <trkpt lat="40.560283" lon="-4.818817">
        <ele>1739.0</ele>
        <time>2018-07-29T13:59:14Z</time>
      </trkpt>
      <trkpt lat="40.560350" lon="-4.818700">
        <ele>1736.0</ele>
        <time>2018-07-29T13:59:15Z</time>
      </trkpt>
      <trkpt lat="40.560433" lon="-4.818600">
        <ele>1732.0</ele>
        <time>2018-07-29T13:59:16Z</time>
      </trkpt>
      <trkpt lat="40.560500" lon="-4.818500">
        <ele>1729.0</ele>
        <time>2018-07-29T13:59:17Z</time>
      </trkpt>
      <trkpt lat="40.560600" lon="-4.818417">
        <ele>1725.0</ele>
        <time>2018-07-29T13:59:18Z</time>
      </trkpt>
      <trkpt lat="40.560683" lon="-4.818333">
        <ele>1721.0</ele>
        <time>2018-07-29T13:59:19Z</time>
      </trkpt>
      <trkpt lat="40.560767" lon="-4.818267">
        <ele>1718.0</ele>
        <time>2018-07-29T13:59:20Z</time>
      </trkpt>
      <trkpt lat="40.560867" lon="-4.818200">
        <ele>1715.0</ele>
        <time>2018-07-29T13:59:21Z</time>
      </trkpt>
      <trkpt lat="40.560933" lon="-4.818167">
        <ele>1713.0</ele>
        <time>2018-07-29T13:59:22Z</time>
      </trkpt>
      <trkpt lat="40.561000" lon="-4.818117">
        <ele>1711.0</ele>
        <time>2018-07-29T13:59:23Z</time>
      </trkpt>
      <trkpt lat="40.561083" lon="-4.818067">
        <ele>1708.0</ele>
        <time>2018-07-29T13:59:24Z</time>
      </trkpt>
      <trkpt lat="40.561150" lon="-4.818000">
        <ele>1705.0</ele>
        <time>2018-07-29T13:59:25Z</time>
      </trkpt>
      <trkpt lat="40.561233" lon="-4.817917">
        <ele>1701.0</ele>
        <time>2018-07-29T13:59:26Z</time>
      </trkpt>
      <trkpt lat="40.561317" lon="-4.817817">
        <ele>1697.0</ele>
        <time>2018-07-29T13:59:27Z</time>
      </trkpt>
      <trkpt lat="40.561400" lon="-4.817717">
        <ele>1694.0</ele>
        <time>2018-07-29T13:59:28Z</time>
      </trkpt>
      <trkpt lat="40.561467" lon="-4.817600">
        <ele>1691.0</ele>
        <time>2018-07-29T13:59:29Z</time>
      </trkpt>
      <trkpt lat="40.561550" lon="-4.817500">
        <ele>1689.0</ele>
        <time>2018-07-29T13:59:30Z</time>
      </trkpt>
      <trkpt lat="40.561633" lon="-4.817417">
        <ele>1688.0</ele>
        <time>2018-07-29T13:59:31Z</time>
      </trkpt>
      <trkpt lat="40.561700" lon="-4.817317">
        <ele>1685.0</ele>
        <time>2018-07-29T13:59:32Z</time>
      </trkpt>
      <trkpt lat="40.561767" lon="-4.817217">
        <ele>1682.0</ele>
        <time>2018-07-29T13:59:33Z</time>
      </trkpt>
      <trkpt lat="40.561850" lon="-4.817117">
        <ele>1678.0</ele>
        <time>2018-07-29T13:59:34Z</time>
      </trkpt>
      <trkpt lat="40.561933" lon="-4.817017">
        <ele>1674.0</ele>
        <time>2018-07-29T13:59:35Z</time>
      </trkpt>
      <trkpt lat="40.562017" lon="-4.816917">
        <ele>1672.0</ele>
        <time>2018-07-29T13:59:36Z</time>
      </trkpt>
      <trkpt lat="40.562100" lon="-4.816833">
        <ele>1671.0</ele>
        <time>2018-07-29T13:59:37Z</time>
      </trkpt>
      <trkpt lat="40.562167" lon="-4.816733">
        <ele>1670.0</ele>
        <time>2018-07-29T13:59:38Z</time>
      </trkpt>
      <trkpt lat="40.562233" lon="-4.816650">
        <ele>1669.0</ele>
        <time>2018-07-29T13:59:39Z</time>
      </trkpt>
      <trkpt lat="40.562300" lon="-4.816567">
        <ele>1668.0</ele>
        <time>2018-07-29T13:59:40Z</time>
      </trkpt>
      <trkpt lat="40.562367" lon="-4.816483">
        <ele>1666.0</ele>
        <time>2018-07-29T13:59:41Z</time>
      </trkpt>
      <trkpt lat="40.562433" lon="-4.816417">
        <ele>1663.0</ele>
        <time>2018-07-29T13:59:42Z</time>
      </trkpt>
      <trkpt lat="40.562483" lon="-4.816317">
        <ele>1659.0</ele>
        <time>2018-07-29T13:59:43Z</time>
      </trkpt>
      <trkpt lat="40.562550" lon="-4.816217">
        <ele>1656.0</ele>
        <time>2018-07-29T13:59:44Z</time>
      </trkpt>
      <trkpt lat="40.562617" lon="-4.816117">
        <ele>1654.0</ele>
        <time>2018-07-29T13:59:45Z</time>
      </trkpt>
      <trkpt lat="40.562667" lon="-4.816017">
        <ele>1651.0</ele>
        <time>2018-07-29T13:59:46Z</time>
      </trkpt>
      <trkpt lat="40.562717" lon="-4.815917">
        <ele>1648.0</ele>
        <time>2018-07-29T13:59:47Z</time>
      </trkpt>
      <trkpt lat="40.562767" lon="-4.815800">
        <ele>1645.0</ele>
        <time>2018-07-29T13:59:48Z</time>
      </trkpt>
      <trkpt lat="40.562833" lon="-4.815700">
        <ele>1642.0</ele>
        <time>2018-07-29T13:59:49Z</time>
      </trkpt>
      <trkpt lat="40.562900" lon="-4.815617">
        <ele>1639.0</ele>
        <time>2018-07-29T13:59:50Z</time>
      </trkpt>
      <trkpt lat="40.562950" lon="-4.815533">
        <ele>1637.0</ele>
        <time>2018-07-29T13:59:51Z</time>
      </trkpt>
      <trkpt lat="40.563000" lon="-4.815433">
        <ele>1634.0</ele>
        <time>2018-07-29T13:59:52Z</time>
      </trkpt>
      <trkpt lat="40.563050" lon="-4.815350">
        <ele>1632.0</ele>
        <time>2018-07-29T13:59:53Z</time>
      </trkpt>
      <trkpt lat="40.563117" lon="-4.815250">
        <ele>1629.0</ele>
        <time>2018-07-29T13:59:54Z</time>
      </trkpt>
      <trkpt lat="40.563167" lon="-4.815150">
        <ele>1627.0</ele>
        <time>2018-07-29T13:59:55Z</time>
      </trkpt>
      <trkpt lat="40.563217" lon="-4.815050">
        <ele>1625.0</ele>
        <time>2018-07-29T13:59:56Z</time>
      </trkpt>
      <trkpt lat="40.563283" lon="-4.814950">
        <ele>1624.0</ele>
        <time>2018-07-29T13:59:57Z</time>
      </trkpt>
      <trkpt lat="40.563333" lon="-4.814850">
        <ele>1622.0</ele>
        <time>2018-07-29T13:59:58Z</time>
      </trkpt>
      <trkpt lat="40.563400" lon="-4.814767">
        <ele>1620.0</ele>
        <time>2018-07-29T13:59:59Z</time>
      </trkpt>
      <trkpt lat="40.563450" lon="-4.814700">
        <ele>1619.0</ele>
        <time>2018-07-29T14:00:00Z</time>
      </trkpt>
      <trkpt lat="40.563500" lon="-4.814633">
        <ele>1616.0</ele>
        <time>2018-07-29T14:00:01Z</time>
      </trkpt>
      <trkpt lat="40.563567" lon="-4.814567">
        <ele>1614.0</ele>
        <time>2018-07-29T14:00:02Z</time>
      </trkpt>
      <trkpt lat="40.563617" lon="-4.814483">
        <ele>1611.0</ele>
        <time>2018-07-29T14:00:03Z</time>
      </trkpt>
      <trkpt lat="40.563683" lon="-4.814383">
        <ele>1608.0</ele>
        <time>2018-07-29T14:00:04Z</time>
      </trkpt>
      <trkpt lat="40.563750" lon="-4.814300">
        <ele>1605.0</ele>
        <time>2018-07-29T14:00:05Z</time>
      </trkpt>
      <trkpt lat="40.563817" lon="-4.814200">
        <ele>1603.0</ele>
        <time>2018-07-29T14:00:06Z</time>
      </trkpt>
      <trkpt lat="40.563883" lon="-4.814117">
        <ele>1601.0</ele>
        <time>2018-07-29T14:00:07Z</time>
      </trkpt>
      <trkpt lat="40.563933" lon="-4.814017">
        <ele>1599.0</ele>
        <time>2018-07-29T14:00:08Z</time>
      </trkpt>
      <trkpt lat="40.564000" lon="-4.813917">
        <ele>1598.0</ele>
        <time>2018-07-29T14:00:09Z</time>
      </trkpt>
      <trkpt lat="40.564050" lon="-4.813817">
        <ele>1596.0</ele>
        <time>2018-07-29T14:00:10Z</time>
      </trkpt>
      <trkpt lat="40.564100" lon="-4.813733">
        <ele>1595.0</ele>
        <time>2018-07-29T14:00:11Z</time>
      </trkpt>
      <trkpt lat="40.564167" lon="-4.813650">
        <ele>1593.0</ele>
        <time>2018-07-29T14:00:12Z</time>
      </trkpt>
      <trkpt lat="40.564233" lon="-4.813600">
        <ele>1591.0</ele>
        <time>2018-07-29T14:00:13Z</time>
      </trkpt>
      <trkpt lat="40.564300" lon="-4.813533">
        <ele>1589.0</ele>
        <time>2018-07-29T14:00:14Z</time>
      </trkpt>
      <trkpt lat="40.564350" lon="-4.813467">
        <ele>1587.0</ele>
        <time>2018-07-29T14:00:15Z</time>
      </trkpt>
      <trkpt lat="40.564417" lon="-4.813417">
        <ele>1584.0</ele>
        <time>2018-07-29T14:00:16Z</time>
      </trkpt>
      <trkpt lat="40.564483" lon="-4.813350">
        <ele>1582.0</ele>
        <time>2018-07-29T14:00:17Z</time>
      </trkpt>
      <trkpt lat="40.564550" lon="-4.813317">
        <ele>1580.0</ele>
        <time>2018-07-29T14:00:18Z</time>
      </trkpt>
      <trkpt lat="40.564600" lon="-4.813267">
        <ele>1578.0</ele>
        <time>2018-07-29T14:00:19Z</time>
      </trkpt>
      <trkpt lat="40.564667" lon="-4.813233">
        <ele>1576.0</ele>
        <time>2018-07-29T14:00:20Z</time>
      </trkpt>
      <trkpt lat="40.564717" lon="-4.813183">
        <ele>1573.0</ele>
        <time>2018-07-29T14:00:21Z</time>
      </trkpt>
      <trkpt lat="40.564800" lon="-4.813133">
        <ele>1571.0</ele>
        <time>2018-07-29T14:00:22Z</time>
      </trkpt>
      <trkpt lat="40.564867" lon="-4.813083">
        <ele>1569.0</ele>
        <time>2018-07-29T14:00:23Z</time>
      </trkpt>
      <trkpt lat="40.564933" lon="-4.813017">
        <ele>1569.0</ele>
        <time>2018-07-29T14:00:24Z</time>
      </trkpt>
      <trkpt lat="40.565000" lon="-4.812950">
        <ele>1568.0</ele>
        <time>2018-07-29T14:00:25Z</time>
      </trkpt>
      <trkpt lat="40.565067" lon="-4.812883">
        <ele>1568.0</ele>
        <time>2018-07-29T14:00:26Z</time>
      </trkpt>
      <trkpt lat="40.565117" lon="-4.812800">
        <ele>1566.0</ele>
        <time>2018-07-29T14:00:27Z</time>
      </trkpt>
      <trkpt lat="40.565183" lon="-4.812717">
        <ele>1564.0</ele>
        <time>2018-07-29T14:00:28Z</time>
      </trkpt>
      <trkpt lat="40.565267" lon="-4.812633">
        <ele>1562.0</ele>
        <time>2018-07-29T14:00:29Z</time>
      </trkpt>
      <trkpt lat="40.565367" lon="-4.812550">
        <ele>1561.0</ele>
        <time>2018-07-29T14:00:30Z</time>
      </trkpt>
      <trkpt lat="40.565433" lon="-4.812483">
        <ele>1561.0</ele>
        <time>2018-07-29T14:00:31Z</time>
      </trkpt>
      <trkpt lat="40.565517" lon="-4.812417">
        <ele>1562.0</ele>
        <time>2018-07-29T14:00:32Z</time>
      </trkpt>
      <trkpt lat="40.565583" lon="-4.812333">
        <ele>1562.0</ele>
        <time>2018-07-29T14:00:33Z</time>
      </trkpt>
      <trkpt lat="40.565650" lon="-4.812250">
        <ele>1562.0</ele>
        <time>2018-07-29T14:00:34Z</time>
      </trkpt>
      <trkpt lat="40.565717" lon="-4.812167">
        <ele>1560.0</ele>
        <time>2018-07-29T14:00:35Z</time>
      </trkpt>
      <trkpt lat="40.565800" lon="-4.812100">
        <ele>1560.0</ele>
        <time>2018-07-29T14:00:36Z</time>
      </trkpt>
      <trkpt lat="40.565883" lon="-4.812017">
        <ele>1559.0</ele>
        <time>2018-07-29T14:00:37Z</time>
      </trkpt>
      <trkpt lat="40.565983" lon="-4.811950">
        <ele>1559.0</ele>
        <time>2018-07-29T14:00:38Z</time>
      </trkpt>
      <trkpt lat="40.566067" lon="-4.811867">
        <ele>1560.0</ele>
        <time>2018-07-29T14:00:39Z</time>
      </trkpt>
      <trkpt lat="40.566150" lon="-4.811800">
        <ele>1560.0</ele>
        <time>2018-07-29T14:00:40Z</time>
      </trkpt>
      <trkpt lat="40.566250" lon="-4.811733">
        <ele>1560.0</ele>
        <time>2018-07-29T14:00:41Z</time>
      </trkpt>
      <trkpt lat="40.566333" lon="-4.811650">
        <ele>1561.0</ele>
        <time>2018-07-29T14:00:42Z</time>
      </trkpt>
      <trkpt lat="40.566400" lon="-4.811550">
        <ele>1561.0</ele>
        <time>2018-07-29T14:00:43Z</time>
      </trkpt>
      <trkpt lat="40.566483" lon="-4.811450">
        <ele>1561.0</ele>
        <time>2018-07-29T14:00:44Z</time>
      </trkpt>
      <trkpt lat="40.566550" lon="-4.811333">
        <ele>1561.0</ele>
        <time>2018-07-29T14:00:45Z</time>
      </trkpt>
      <trkpt lat="40.566633" lon="-4.811217">
        <ele>1560.0</ele>
        <time>2018-07-29T14:00:46Z</time>
      </trkpt>
      <trkpt lat="40.566733" lon="-4.811117">
        <ele>1560.0</ele>
        <time>2018-07-29T14:00:47Z</time>
      </trkpt>
      <trkpt lat="40.566817" lon="-4.811017">
        <ele>1560.0</ele>
        <time>2018-07-29T14:00:48Z</time>
      </trkpt>
      <trkpt lat="40.566883" lon="-4.810917">
        <ele>1559.0</ele>
        <time>2018-07-29T14:00:49Z</time>
      </trkpt>
      <trkpt lat="40.566967" lon="-4.810817">
        <ele>1559.0</ele>
        <time>2018-07-29T14:00:50Z</time>
      </trkpt>
      <trkpt lat="40.567050" lon="-4.810717">
        <ele>1558.0</ele>
        <time>2018-07-29T14:00:51Z</time>
      </trkpt>
      <trkpt lat="40.567117" lon="-4.810633">
        <ele>1556.0</ele>
        <time>2018-07-29T14:00:52Z</time>
      </trkpt>
      <trkpt lat="40.567200" lon="-4.810533">
        <ele>1555.0</ele>
        <time>2018-07-29T14:00:53Z</time>
      </trkpt>
      <trkpt lat="40.567267" lon="-4.810433">
        <ele>1553.0</ele>
        <time>2018-07-29T14:00:54Z</time>
      </trkpt>
      <trkpt lat="40.567350" lon="-4.810317">
        <ele>1551.0</ele>
        <time>2018-07-29T14:00:55Z</time>
      </trkpt>
      <trkpt lat="40.567433" lon="-4.810200">
        <ele>1549.0</ele>
        <time>2018-07-29T14:00:56Z</time>
      </trkpt>
      <trkpt lat="40.567517" lon="-4.810083">
        <ele>1547.0</ele>
        <time>2018-07-29T14:00:57Z</time>
      </trkpt>
      <trkpt lat="40.567617" lon="-4.809950">
        <ele>1546.0</ele>
        <time>2018-07-29T14:00:58Z</time>
      </trkpt>
      <trkpt lat="40.567700" lon="-4.809833">
        <ele>1545.0</ele>
        <time>2018-07-29T14:00:59Z</time>
      </trkpt>
      <trkpt lat="40.567783" lon="-4.809717">
        <ele>1545.0</ele>
        <time>2018-07-29T14:01:00Z</time>
      </trkpt>
      <trkpt lat="40.567850" lon="-4.809600">
        <ele>1543.0</ele>
        <time>2018-07-29T14:01:01Z</time>
      </trkpt>
      <trkpt lat="40.567933" lon="-4.809483">
        <ele>1541.0</ele>
        <time>2018-07-29T14:01:02Z</time>
      </trkpt>
      <trkpt lat="40.568017" lon="-4.809367">
        <ele>1539.0</ele>
        <time>2018-07-29T14:01:03Z</time>
      </trkpt>
      <trkpt lat="40.568117" lon="-4.809233">
        <ele>1537.0</ele>
        <time>2018-07-29T14:01:04Z</time>
      </trkpt>
      <trkpt lat="40.568217" lon="-4.809117">
        <ele>1536.0</ele>
        <time>2018-07-29T14:01:05Z</time>
      </trkpt>
      <trkpt lat="40.568300" lon="-4.809017">
        <ele>1537.0</ele>
        <time>2018-07-29T14:01:06Z</time>
      </trkpt>
      <trkpt lat="40.568383" lon="-4.808933">
        <ele>1537.0</ele>
        <time>2018-07-29T14:01:07Z</time>
      </trkpt>
      <trkpt lat="40.568467" lon="-4.808850">
        <ele>1536.0</ele>
        <time>2018-07-29T14:01:08Z</time>
      </trkpt>
      <trkpt lat="40.568533" lon="-4.808767">
        <ele>1535.0</ele>
        <time>2018-07-29T14:01:09Z</time>
      </trkpt>
      <trkpt lat="40.568617" lon="-4.808667">
        <ele>1532.0</ele>
        <time>2018-07-29T14:01:10Z</time>
      </trkpt>
      <trkpt lat="40.568717" lon="-4.808550">
        <ele>1530.0</ele>
        <time>2018-07-29T14:01:11Z</time>
      </trkpt>
      <trkpt lat="40.568800" lon="-4.808450">
        <ele>1528.0</ele>
        <time>2018-07-29T14:01:12Z</time>
      </trkpt>
      <trkpt lat="40.568900" lon="-4.808333">
        <ele>1527.0</ele>
        <time>2018-07-29T14:01:13Z</time>
      </trkpt>
      <trkpt lat="40.569000" lon="-4.808217">
        <ele>1526.0</ele>
        <time>2018-07-29T14:01:14Z</time>
      </trkpt>
      <trkpt lat="40.569083" lon="-4.808100">
        <ele>1525.0</ele>
        <time>2018-07-29T14:01:15Z</time>
      </trkpt>
      <trkpt lat="40.569167" lon="-4.807967">
        <ele>1524.0</ele>
        <time>2018-07-29T14:01:16Z</time>
      </trkpt>
      <trkpt lat="40.569250" lon="-4.807833">
        <ele>1521.0</ele>
        <time>2018-07-29T14:01:17Z</time>
      </trkpt>
      <trkpt lat="40.569333" lon="-4.807700">
        <ele>1519.0</ele>
        <time>2018-07-29T14:01:18Z</time>
      </trkpt>
      <trkpt lat="40.569433" lon="-4.807567">
        <ele>1516.0</ele>
        <time>2018-07-29T14:01:19Z</time>
      </trkpt>
      <trkpt lat="40.569533" lon="-4.807450">
        <ele>1514.0</ele>
        <time>2018-07-29T14:01:20Z</time>
      </trkpt>
      <trkpt lat="40.569633" lon="-4.807317">
        <ele>1512.0</ele>
        <time>2018-07-29T14:01:21Z</time>
      </trkpt>
      <trkpt lat="40.569733" lon="-4.807200">
        <ele>1512.0</ele>
        <time>2018-07-29T14:01:22Z</time>
      </trkpt>
      <trkpt lat="40.569833" lon="-4.807100">
        <ele>1511.0</ele>
        <time>2018-07-29T14:01:23Z</time>
      </trkpt>
      <trkpt lat="40.569933" lon="-4.806983">
        <ele>1511.0</ele>
        <time>2018-07-29T14:01:24Z</time>
      </trkpt>
      <trkpt lat="40.570017" lon="-4.806883">
        <ele>1511.0</ele>
        <time>2018-07-29T14:01:25Z</time>
      </trkpt>
      <trkpt lat="40.570100" lon="-4.806783">
        <ele>1510.0</ele>
        <time>2018-07-29T14:01:26Z</time>
      </trkpt>
      <trkpt lat="40.570183" lon="-4.806683">
        <ele>1509.0</ele>
        <time>2018-07-29T14:01:27Z</time>
      </trkpt>
      <trkpt lat="40.570267" lon="-4.806583">
        <ele>1507.0</ele>
        <time>2018-07-29T14:01:28Z</time>
      </trkpt>
      <trkpt lat="40.570367" lon="-4.806483">
        <ele>1505.0</ele>
        <time>2018-07-29T14:01:29Z</time>
      </trkpt>
      <trkpt lat="40.570467" lon="-4.806367">
        <ele>1503.0</ele>
        <time>2018-07-29T14:01:30Z</time>
      </trkpt>
      <trkpt lat="40.570567" lon="-4.806267">
        <ele>1502.0</ele>
        <time>2018-07-29T14:01:31Z</time>
      </trkpt>
      <trkpt lat="40.570650" lon="-4.806150">
        <ele>1501.0</ele>
        <time>2018-07-29T14:01:32Z</time>
      </trkpt>
      <trkpt lat="40.570733" lon="-4.806033">
        <ele>1501.0</ele>
        <time>2018-07-29T14:01:33Z</time>
      </trkpt>
      <trkpt lat="40.570817" lon="-4.805933">
        <ele>1501.0</ele>
        <time>2018-07-29T14:01:34Z</time>
      </trkpt>
      <trkpt lat="40.570883" lon="-4.805817">
        <ele>1501.0</ele>
        <time>2018-07-29T14:01:35Z</time>
      </trkpt>
      <trkpt lat="40.570967" lon="-4.805683">
        <ele>1500.0</ele>
        <time>2018-07-29T14:01:36Z</time>
      </trkpt>
      <trkpt lat="40.571033" lon="-4.805567">
        <ele>1499.0</ele>
        <time>2018-07-29T14:01:37Z</time>
      </trkpt>
      <trkpt lat="40.571117" lon="-4.805450">
        <ele>1498.0</ele>
        <time>2018-07-29T14:01:38Z</time>
      </trkpt>
      <trkpt lat="40.571200" lon="-4.805317">
        <ele>1498.0</ele>
        <time>2018-07-29T14:01:39Z</time>
      </trkpt>
      <trkpt lat="40.571283" lon="-4.805200">
        <ele>1498.0</ele>
        <time>2018-07-29T14:01:40Z</time>
      </trkpt>
      <trkpt lat="40.571350" lon="-4.805083">
        <ele>1498.0</ele>
        <time>2018-07-29T14:01:41Z</time>
      </trkpt>
      <trkpt lat="40.571433" lon="-4.804967">
        <ele>1499.0</ele>
        <time>2018-07-29T14:01:42Z</time>
      </trkpt>
      <trkpt lat="40.571500" lon="-4.804850">
        <ele>1499.0</ele>
        <time>2018-07-29T14:01:43Z</time>
      </trkpt>
      <trkpt lat="40.571567" lon="-4.804717">
        <ele>1499.0</ele>
        <time>2018-07-29T14:01:44Z</time>
      </trkpt>
      <trkpt lat="40.571633" lon="-4.804600">
        <ele>1498.0</ele>
        <time>2018-07-29T14:01:45Z</time>
      </trkpt>
      <trkpt lat="40.571700" lon="-4.804483">
        <ele>1497.0</ele>
        <time>2018-07-29T14:01:46Z</time>
      </trkpt>
      <trkpt lat="40.571783" lon="-4.804350">
        <ele>1497.0</ele>
        <time>2018-07-29T14:01:47Z</time>
      </trkpt>
      <trkpt lat="40.571850" lon="-4.804200">
        <ele>1496.0</ele>
        <time>2018-07-29T14:01:48Z</time>
      </trkpt>
      <trkpt lat="40.571933" lon="-4.804067">
        <ele>1496.0</ele>
        <time>2018-07-29T14:01:49Z</time>
      </trkpt>
      <trkpt lat="40.572017" lon="-4.803950">
        <ele>1495.0</ele>
        <time>2018-07-29T14:01:50Z</time>
      </trkpt>
      <trkpt lat="40.572083" lon="-4.803833">
        <ele>1495.0</ele>
        <time>2018-07-29T14:01:51Z</time>
      </trkpt>
      <trkpt lat="40.572167" lon="-4.803733">
        <ele>1494.0</ele>
        <time>2018-07-29T14:01:52Z</time>
      </trkpt>
      <trkpt lat="40.572250" lon="-4.803633">
        <ele>1492.0</ele>
        <time>2018-07-29T14:01:53Z</time>
      </trkpt>
      <trkpt lat="40.572350" lon="-4.803517">
        <ele>1491.0</ele>
        <time>2018-07-29T14:01:54Z</time>
      </trkpt>
      <trkpt lat="40.572433" lon="-4.803400">
        <ele>1490.0</ele>
        <time>2018-07-29T14:01:55Z</time>
      </trkpt>
      <trkpt lat="40.572517" lon="-4.803283">
        <ele>1491.0</ele>
        <time>2018-07-29T14:01:56Z</time>
      </trkpt>
      <trkpt lat="40.572617" lon="-4.803167">
        <ele>1492.0</ele>
        <time>2018-07-29T14:01:57Z</time>
      </trkpt>
      <trkpt lat="40.572700" lon="-4.803067">
        <ele>1493.0</ele>
        <time>2018-07-29T14:01:58Z</time>
      </trkpt>
      <trkpt lat="40.572767" lon="-4.802967">
        <ele>1494.0</ele>
        <time>2018-07-29T14:01:59Z</time>
      </trkpt>
      <trkpt lat="40.572850" lon="-4.802850">
        <ele>1494.0</ele>
        <time>2018-07-29T14:02:00Z</time>
      </trkpt>
      <trkpt lat="40.572933" lon="-4.802733">
        <ele>1494.0</ele>
        <time>2018-07-29T14:02:01Z</time>
      </trkpt>
      <trkpt lat="40.573017" lon="-4.802617">
        <ele>1495.0</ele>
        <time>2018-07-29T14:02:02Z</time>
      </trkpt>
      <trkpt lat="40.573100" lon="-4.802517">
        <ele>1495.0</ele>
        <time>2018-07-29T14:02:03Z</time>
      </trkpt>
      <trkpt lat="40.573183" lon="-4.802417">
        <ele>1496.0</ele>
        <time>2018-07-29T14:02:04Z</time>
      </trkpt>
      <trkpt lat="40.573267" lon="-4.802317">
        <ele>1497.0</ele>
        <time>2018-07-29T14:02:05Z</time>
      </trkpt>
      <trkpt lat="40.573333" lon="-4.802200">
        <ele>1498.0</ele>
        <time>2018-07-29T14:02:06Z</time>
      </trkpt>
      <trkpt lat="40.573417" lon="-4.802100">
        <ele>1499.0</ele>
        <time>2018-07-29T14:02:07Z</time>
      </trkpt>
      <trkpt lat="40.573517" lon="-4.801983">
        <ele>1501.0</ele>
        <time>2018-07-29T14:02:08Z</time>
      </trkpt>
      <trkpt lat="40.573600" lon="-4.801850">
        <ele>1504.0</ele>
        <time>2018-07-29T14:02:09Z</time>
      </trkpt>
      <trkpt lat="40.573667" lon="-4.801733">
        <ele>1507.0</ele>
        <time>2018-07-29T14:02:10Z</time>
      </trkpt>
      <trkpt lat="40.573750" lon="-4.801633">
        <ele>1511.0</ele>
        <time>2018-07-29T14:02:11Z</time>
      </trkpt>
      <trkpt lat="40.573817" lon="-4.801517">
        <ele>1513.0</ele>
        <time>2018-07-29T14:02:12Z</time>
      </trkpt>
      <trkpt lat="40.573867" lon="-4.801400">
        <ele>1512.0</ele>
        <time>2018-07-29T14:02:13Z</time>
      </trkpt>
      <trkpt lat="40.573933" lon="-4.801300">
        <ele>1510.0</ele>
        <time>2018-07-29T14:02:14Z</time>
      </trkpt>
      <trkpt lat="40.574000" lon="-4.801200">
        <ele>1507.0</ele>
        <time>2018-07-29T14:02:15Z</time>
      </trkpt>
      <trkpt lat="40.574050" lon="-4.801083">
        <ele>1503.0</ele>
        <time>2018-07-29T14:02:16Z</time>
      </trkpt>
      <trkpt lat="40.574117" lon="-4.800950">
        <ele>1499.0</ele>
        <time>2018-07-29T14:02:17Z</time>
      </trkpt>
      <trkpt lat="40.574183" lon="-4.800800">
        <ele>1495.0</ele>
        <time>2018-07-29T14:02:18Z</time>
      </trkpt>
      <trkpt lat="40.574250" lon="-4.800667">
        <ele>1492.0</ele>
        <time>2018-07-29T14:02:19Z</time>
      </trkpt>
      <trkpt lat="40.574317" lon="-4.800567">
        <ele>1489.0</ele>
        <time>2018-07-29T14:02:20Z</time>
      </trkpt>
      <trkpt lat="40.574383" lon="-4.800467">
        <ele>1486.0</ele>
        <time>2018-07-29T14:02:21Z</time>
      </trkpt>
      <trkpt lat="40.574450" lon="-4.800367">
        <ele>1482.0</ele>
        <time>2018-07-29T14:02:22Z</time>
      </trkpt>
      <trkpt lat="40.574517" lon="-4.800267">
        <ele>1477.0</ele>
        <time>2018-07-29T14:02:23Z</time>
      </trkpt>
      <trkpt lat="40.574600" lon="-4.800150">
        <ele>1472.0</ele>
        <time>2018-07-29T14:02:24Z</time>
      </trkpt>
      <trkpt lat="40.574683" lon="-4.800050">
        <ele>1467.0</ele>
        <time>2018-07-29T14:02:25Z</time>
      </trkpt>
      <trkpt lat="40.574783" lon="-4.799950">
        <ele>1462.0</ele>
        <time>2018-07-29T14:02:26Z</time>
      </trkpt>
      <trkpt lat="40.574883" lon="-4.799867">
        <ele>1459.0</ele>
        <time>2018-07-29T14:02:27Z</time>
      </trkpt>
      <trkpt lat="40.574983" lon="-4.799767">
        <ele>1457.0</ele>
        <time>2018-07-29T14:02:28Z</time>
      </trkpt>
      <trkpt lat="40.575050" lon="-4.799683">
        <ele>1455.0</ele>
        <time>2018-07-29T14:02:29Z</time>
      </trkpt>
      <trkpt lat="40.575133" lon="-4.799600">
        <ele>1452.0</ele>
        <time>2018-07-29T14:02:30Z</time>
      </trkpt>
      <trkpt lat="40.575200" lon="-4.799500">
        <ele>1448.0</ele>
        <time>2018-07-29T14:02:31Z</time>
      </trkpt>
      <trkpt lat="40.575283" lon="-4.799400">
        <ele>1443.0</ele>
        <time>2018-07-29T14:02:32Z</time>
      </trkpt>
      <trkpt lat="40.575383" lon="-4.799300">
        <ele>1439.0</ele>
        <time>2018-07-29T14:02:33Z</time>
      </trkpt>
      <trkpt lat="40.575467" lon="-4.799200">
        <ele>1435.0</ele>
        <time>2018-07-29T14:02:34Z</time>
      </trkpt>
      <trkpt lat="40.575550" lon="-4.799083">
        <ele>1432.0</ele>
        <time>2018-07-29T14:02:35Z</time>
      </trkpt>
      <trkpt lat="40.575617" lon="-4.798967">
        <ele>1429.0</ele>
        <time>2018-07-29T14:02:36Z</time>
      </trkpt>
      <trkpt lat="40.575700" lon="-4.798867">
        <ele>1426.0</ele>
        <time>2018-07-29T14:02:37Z</time>
      </trkpt>
      <trkpt lat="40.575783" lon="-4.798750">
        <ele>1423.0</ele>
        <time>2018-07-29T14:02:38Z</time>
      </trkpt>
      <trkpt lat="40.575867" lon="-4.798650">
        <ele>1420.0</ele>
        <time>2018-07-29T14:02:39Z</time>
      </trkpt>
      <trkpt lat="40.575933" lon="-4.798550">
        <ele>1417.0</ele>
        <time>2018-07-29T14:02:40Z</time>
      </trkpt>
      <trkpt lat="40.576017" lon="-4.798433">
        <ele>1414.0</ele>
        <time>2018-07-29T14:02:41Z</time>
      </trkpt>
      <trkpt lat="40.576100" lon="-4.798333">
        <ele>1411.0</ele>
        <time>2018-07-29T14:02:42Z</time>
      </trkpt>
      <trkpt lat="40.576183" lon="-4.798233">
        <ele>1408.0</ele>
        <time>2018-07-29T14:02:43Z</time>
      </trkpt>
      <trkpt lat="40.576267" lon="-4.798117">
        <ele>1405.0</ele>
        <time>2018-07-29T14:02:44Z</time>
      </trkpt>
      <trkpt lat="40.576350" lon="-4.798017">
        <ele>1403.0</ele>
        <time>2018-07-29T14:02:45Z</time>
      </trkpt>
      <trkpt lat="40.576433" lon="-4.797917">
        <ele>1401.0</ele>
        <time>2018-07-29T14:02:46Z</time>
      </trkpt>
      <trkpt lat="40.576500" lon="-4.797800">
        <ele>1398.0</ele>
        <time>2018-07-29T14:02:47Z</time>
      </trkpt>
      <trkpt lat="40.576567" lon="-4.797717">
        <ele>1396.0</ele>
        <time>2018-07-29T14:02:48Z</time>
      </trkpt>
      <trkpt lat="40.576650" lon="-4.797617">
        <ele>1392.0</ele>
        <time>2018-07-29T14:02:49Z</time>
      </trkpt>
      <trkpt lat="40.576717" lon="-4.797517">
        <ele>1388.0</ele>
        <time>2018-07-29T14:02:50Z</time>
      </trkpt>
      <trkpt lat="40.576800" lon="-4.797400">
        <ele>1384.0</ele>
        <time>2018-07-29T14:02:51Z</time>
      </trkpt>
      <trkpt lat="40.576883" lon="-4.797300">
        <ele>1381.0</ele>
        <time>2018-07-29T14:02:52Z</time>
      </trkpt>
      <trkpt lat="40.576967" lon="-4.797183">
        <ele>1378.0</ele>
        <time>2018-07-29T14:02:53Z</time>
      </trkpt>
      <trkpt lat="40.577033" lon="-4.797067">
        <ele>1375.0</ele>
        <time>2018-07-29T14:02:54Z</time>
      </trkpt>
      <trkpt lat="40.577083" lon="-4.796933">
        <ele>1371.0</ele>
        <time>2018-07-29T14:02:55Z</time>
      </trkpt>
      <trkpt lat="40.577150" lon="-4.796817">
        <ele>1367.0</ele>
        <time>2018-07-29T14:02:56Z</time>
      </trkpt>
      <trkpt lat="40.577217" lon="-4.796683">
        <ele>1363.0</ele>
        <time>2018-07-29T14:02:57Z</time>
      </trkpt>
      <trkpt lat="40.577300" lon="-4.796583">
        <ele>1360.0</ele>
        <time>2018-07-29T14:02:58Z</time>
      </trkpt>
      <trkpt lat="40.577367" lon="-4.796483">
        <ele>1359.0</ele>
        <time>2018-07-29T14:02:59Z</time>
      </trkpt>
      <trkpt lat="40.577433" lon="-4.796400">
        <ele>1359.0</ele>
        <time>2018-07-29T14:03:00Z</time>
      </trkpt>
      <trkpt lat="40.577483" lon="-4.796333">
        <ele>1358.0</ele>
        <time>2018-07-29T14:03:01Z</time>
      </trkpt>
      <trkpt lat="40.577533" lon="-4.796267">
        <ele>1355.0</ele>
        <time>2018-07-29T14:03:02Z</time>
      </trkpt>
      <trkpt lat="40.577583" lon="-4.796167">
        <ele>1352.0</ele>
        <time>2018-07-29T14:03:03Z</time>
      </trkpt>
      <trkpt lat="40.577650" lon="-4.796067">
        <ele>1349.0</ele>
        <time>2018-07-29T14:03:04Z</time>
      </trkpt>
      <trkpt lat="40.577717" lon="-4.795950">
        <ele>1348.0</ele>
        <time>2018-07-29T14:03:05Z</time>
      </trkpt>
      <trkpt lat="40.577783" lon="-4.795850">
        <ele>1348.0</ele>
        <time>2018-07-29T14:03:06Z</time>
      </trkpt>
      <trkpt lat="40.577850" lon="-4.795733">
        <ele>1349.0</ele>
        <time>2018-07-29T14:03:07Z</time>
      </trkpt>
      <trkpt lat="40.577900" lon="-4.795633">
        <ele>1349.0</ele>
        <time>2018-07-29T14:03:08Z</time>
      </trkpt>
      <trkpt lat="40.577950" lon="-4.795533">
        <ele>1349.0</ele>
        <time>2018-07-29T14:03:09Z</time>
      </trkpt>
      <trkpt lat="40.578017" lon="-4.795400">
        <ele>1349.0</ele>
        <time>2018-07-29T14:03:10Z</time>
      </trkpt>
      <trkpt lat="40.578067" lon="-4.795283">
        <ele>1349.0</ele>
        <time>2018-07-29T14:03:11Z</time>
      </trkpt>
      <trkpt lat="40.578133" lon="-4.795167">
        <ele>1350.0</ele>
        <time>2018-07-29T14:03:12Z</time>
      </trkpt>
      <trkpt lat="40.578183" lon="-4.795067">
        <ele>1351.0</ele>
        <time>2018-07-29T14:03:13Z</time>
      </trkpt>
      <trkpt lat="40.578250" lon="-4.794983">
        <ele>1353.0</ele>
        <time>2018-07-29T14:03:14Z</time>
      </trkpt>
      <trkpt lat="40.578317" lon="-4.794900">
        <ele>1355.0</ele>
        <time>2018-07-29T14:03:15Z</time>
      </trkpt>
      <trkpt lat="40.578367" lon="-4.794817">
        <ele>1357.0</ele>
        <time>2018-07-29T14:03:16Z</time>
      </trkpt>
      <trkpt lat="40.578433" lon="-4.794750">
        <ele>1359.0</ele>
        <time>2018-07-29T14:03:17Z</time>
      </trkpt>
      <trkpt lat="40.578483" lon="-4.794700">
        <ele>1361.0</ele>
        <time>2018-07-29T14:03:18Z</time>
      </trkpt>
      <trkpt lat="40.578550" lon="-4.794683">
        <ele>1362.0</ele>
        <time>2018-07-29T14:03:19Z</time>
      </trkpt>
      <trkpt lat="40.578617" lon="-4.794700">
        <ele>1363.0</ele>
        <time>2018-07-29T14:03:20Z</time>
      </trkpt>
      <trkpt lat="40.578667" lon="-4.794750">
        <ele>1365.0</ele>
        <time>2018-07-29T14:03:21Z</time>
      </trkpt>
      <trkpt lat="40.578683" lon="-4.794833">
        <ele>1367.0</ele>
        <time>2018-07-29T14:03:22Z</time>
      </trkpt>
      <trkpt lat="40.578667" lon="-4.794917">
        <ele>1370.0</ele>
        <time>2018-07-29T14:03:23Z</time>
      </trkpt>
      <trkpt lat="40.578600" lon="-4.794983">
        <ele>1371.0</ele>
        <time>2018-07-29T14:03:24Z</time>
      </trkpt>
      <trkpt lat="40.578500" lon="-4.795033">
        <ele>1372.0</ele>
        <time>2018-07-29T14:03:25Z</time>
      </trkpt>
      <trkpt lat="40.578383" lon="-4.795033">
        <ele>1372.0</ele>
        <time>2018-07-29T14:03:26Z</time>
      </trkpt>
      <trkpt lat="40.578267" lon="-4.794950">
        <ele>1372.0</ele>
        <time>2018-07-29T14:03:27Z</time>
      </trkpt>
      <trkpt lat="40.578167" lon="-4.794833">
        <ele>1372.0</ele>
        <time>2018-07-29T14:03:28Z</time>
      </trkpt>
      <trkpt lat="40.578083" lon="-4.794683">
        <ele>1372.0</ele>
        <time>2018-07-29T14:03:29Z</time>
      </trkpt>
      <trkpt lat="40.578050" lon="-4.794500">
        <ele>1373.0</ele>
        <time>2018-07-29T14:03:30Z</time>
      </trkpt>
      <trkpt lat="40.578033" lon="-4.794333">
        <ele>1374.0</ele>
        <time>2018-07-29T14:03:31Z</time>
      </trkpt>
      <trkpt lat="40.578050" lon="-4.794167">
        <ele>1375.0</ele>
        <time>2018-07-29T14:03:32Z</time>
      </trkpt>
      <trkpt lat="40.578067" lon="-4.794033">
        <ele>1377.0</ele>
        <time>2018-07-29T14:03:33Z</time>
      </trkpt>
      <trkpt lat="40.578117" lon="-4.793917">
        <ele>1378.0</ele>
        <time>2018-07-29T14:03:34Z</time>
      </trkpt>
      <trkpt lat="40.578167" lon="-4.793817">
        <ele>1380.0</ele>
        <time>2018-07-29T14:03:35Z</time>
      </trkpt>
      <trkpt lat="40.578233" lon="-4.793717">
        <ele>1381.0</ele>
        <time>2018-07-29T14:03:36Z</time>
      </trkpt>
      <trkpt lat="40.578300" lon="-4.793650">
        <ele>1383.0</ele>
        <time>2018-07-29T14:03:37Z</time>
      </trkpt>
      <trkpt lat="40.578383" lon="-4.793600">
        <ele>1386.0</ele>
        <time>2018-07-29T14:03:38Z</time>
      </trkpt>
      <trkpt lat="40.578450" lon="-4.793550">
        <ele>1388.0</ele>
        <time>2018-07-29T14:03:39Z</time>
      </trkpt>
      <trkpt lat="40.578517" lon="-4.793533">
        <ele>1391.0</ele>
        <time>2018-07-29T14:03:40Z</time>
      </trkpt>
      <trkpt lat="40.578567" lon="-4.793550">
        <ele>1391.0</ele>
        <time>2018-07-29T14:03:41Z</time>
      </trkpt>
      <trkpt lat="40.578600" lon="-4.793600">
        <ele>1391.0</ele>
        <time>2018-07-29T14:03:42Z</time>
      </trkpt>
      <trkpt lat="40.578583" lon="-4.793700">
        <ele>1389.0</ele>
        <time>2018-07-29T14:03:43Z</time>
      </trkpt>
      <trkpt lat="40.578550" lon="-4.793800">
        <ele>1390.0</ele>
        <time>2018-07-29T14:03:44Z</time>
      </trkpt>
      <trkpt lat="40.578483" lon="-4.793883">
        <ele>1392.0</ele>
        <time>2018-07-29T14:03:45Z</time>
      </trkpt>
      <trkpt lat="40.578383" lon="-4.793933">
        <ele>1395.0</ele>
        <time>2018-07-29T14:03:46Z</time>
      </trkpt>
      <trkpt lat="40.578283" lon="-4.793900">
        <ele>1398.0</ele>
        <time>2018-07-29T14:03:47Z</time>
      </trkpt>
      <trkpt lat="40.578183" lon="-4.793833">
        <ele>1400.0</ele>
        <time>2018-07-29T14:03:48Z</time>
      </trkpt>
      <trkpt lat="40.578100" lon="-4.793717">
        <ele>1400.0</ele>
        <time>2018-07-29T14:03:49Z</time>
      </trkpt>
      <trkpt lat="40.578017" lon="-4.793550">
        <ele>1401.0</ele>
        <time>2018-07-29T14:03:50Z</time>
      </trkpt>
      <trkpt lat="40.577967" lon="-4.793383">
        <ele>1402.0</ele>
        <time>2018-07-29T14:03:51Z</time>
      </trkpt>
      <trkpt lat="40.577967" lon="-4.793200">
        <ele>1404.0</ele>
        <time>2018-07-29T14:03:52Z</time>
      </trkpt>
      <trkpt lat="40.577983" lon="-4.793033">
        <ele>1406.0</ele>
        <time>2018-07-29T14:03:53Z</time>
      </trkpt>
      <trkpt lat="40.578033" lon="-4.792900">
        <ele>1408.0</ele>
        <time>2018-07-29T14:03:54Z</time>
      </trkpt>
      <trkpt lat="40.578083" lon="-4.792800">
        <ele>1411.0</ele>
        <time>2018-07-29T14:03:55Z</time>
      </trkpt>
      <trkpt lat="40.578133" lon="-4.792733">
        <ele>1413.0</ele>
        <time>2018-07-29T14:03:56Z</time>
      </trkpt>
      <trkpt lat="40.578200" lon="-4.792650">
        <ele>1413.0</ele>
        <time>2018-07-29T14:03:57Z</time>
      </trkpt>
      <trkpt lat="40.578267" lon="-4.792600">
        <ele>1413.0</ele>
        <time>2018-07-29T14:03:58Z</time>
      </trkpt>
      <trkpt lat="40.578350" lon="-4.792583">
        <ele>1412.0</ele>
        <time>2018-07-29T14:03:59Z</time>
      </trkpt>
      <trkpt lat="40.578433" lon="-4.792617">
        <ele>1412.0</ele>
        <time>2018-07-29T14:04:00Z</time>
      </trkpt>
      <trkpt lat="40.578483" lon="-4.792683">
        <ele>1412.0</ele>
        <time>2018-07-29T14:04:01Z</time>
      </trkpt>
      <trkpt lat="40.578483" lon="-4.792767">
        <ele>1411.0</ele>
        <time>2018-07-29T14:04:02Z</time>
      </trkpt>
      <trkpt lat="40.578467" lon="-4.792850">
        <ele>1411.0</ele>
        <time>2018-07-29T14:04:03Z</time>
      </trkpt>
      <trkpt lat="40.578417" lon="-4.792917">
        <ele>1412.0</ele>
        <time>2018-07-29T14:04:04Z</time>
      </trkpt>
      <trkpt lat="40.578333" lon="-4.792950">
        <ele>1413.0</ele>
        <time>2018-07-29T14:04:05Z</time>
      </trkpt>
      <trkpt lat="40.578233" lon="-4.792950">
        <ele>1413.0</ele>
        <time>2018-07-29T14:04:06Z</time>
      </trkpt>
      <trkpt lat="40.578133" lon="-4.792900">
        <ele>1413.0</ele>
        <time>2018-07-29T14:04:07Z</time>
      </trkpt>
      <trkpt lat="40.578017" lon="-4.792800">
        <ele>1413.0</ele>
        <time>2018-07-29T14:04:08Z</time>
      </trkpt>
      <trkpt lat="40.577933" lon="-4.792667">
        <ele>1414.0</ele>
        <time>2018-07-29T14:04:09Z</time>
      </trkpt>
      <trkpt lat="40.577867" lon="-4.792500">
        <ele>1416.0</ele>
        <time>2018-07-29T14:04:10Z</time>
      </trkpt>
      <trkpt lat="40.577833" lon="-4.792317">
        <ele>1418.0</ele>
        <time>2018-07-29T14:04:11Z</time>
      </trkpt>
      <trkpt lat="40.577833" lon="-4.792150">
        <ele>1419.0</ele>
        <time>2018-07-29T14:04:12Z</time>
      </trkpt>
      <trkpt lat="40.577850" lon="-4.792000">
        <ele>1421.0</ele>
        <time>2018-07-29T14:04:13Z</time>
      </trkpt>
      <trkpt lat="40.577850" lon="-4.791833">
        <ele>1423.0</ele>
        <time>2018-07-29T14:04:14Z</time>
      </trkpt>
      <trkpt lat="40.577850" lon="-4.791683">
        <ele>1424.0</ele>
        <time>2018-07-29T14:04:15Z</time>
      </trkpt>
      <trkpt lat="40.577850" lon="-4.791517">
        <ele>1424.0</ele>
        <time>2018-07-29T14:04:16Z</time>
      </trkpt>
      <trkpt lat="40.577850" lon="-4.791367">
        <ele>1424.0</ele>
        <time>2018-07-29T14:04:17Z</time>
      </trkpt>
      <trkpt lat="40.577850" lon="-4.791200">
        <ele>1424.0</ele>
        <time>2018-07-29T14:04:18Z</time>
      </trkpt>
      <trkpt lat="40.577867" lon="-4.791033">
        <ele>1424.0</ele>
        <time>2018-07-29T14:04:19Z</time>
      </trkpt>
      <trkpt lat="40.577883" lon="-4.790867">
        <ele>1424.0</ele>
        <time>2018-07-29T14:04:20Z</time>
      </trkpt>
      <trkpt lat="40.577933" lon="-4.790733">
        <ele>1423.0</ele>
        <time>2018-07-29T14:04:21Z</time>
      </trkpt>
      <trkpt lat="40.578000" lon="-4.790633">
        <ele>1421.0</ele>
        <time>2018-07-29T14:04:22Z</time>
      </trkpt>
      <trkpt lat="40.578083" lon="-4.790567">
        <ele>1418.0</ele>
        <time>2018-07-29T14:04:23Z</time>
      </trkpt>
      <trkpt lat="40.578150" lon="-4.790500">
        <ele>1414.0</ele>
        <time>2018-07-29T14:04:24Z</time>
      </trkpt>
      <trkpt lat="40.578233" lon="-4.790400">
        <ele>1411.0</ele>
        <time>2018-07-29T14:04:25Z</time>
      </trkpt>
      <trkpt lat="40.578317" lon="-4.790267">
        <ele>1407.0</ele>
        <time>2018-07-29T14:04:26Z</time>
      </trkpt>
      <trkpt lat="40.578400" lon="-4.790117">
        <ele>1404.0</ele>
        <time>2018-07-29T14:04:27Z</time>
      </trkpt>
      <trkpt lat="40.578483" lon="-4.789967">
        <ele>1402.0</ele>
        <time>2018-07-29T14:04:28Z</time>
      </trkpt>
      <trkpt lat="40.578550" lon="-4.789817">
        <ele>1401.0</ele>
        <time>2018-07-29T14:04:29Z</time>
      </trkpt>
      <trkpt lat="40.578633" lon="-4.789700">
        <ele>1400.0</ele>
        <time>2018-07-29T14:04:30Z</time>
      </trkpt>
      <trkpt lat="40.578700" lon="-4.789567">
        <ele>1399.0</ele>
        <time>2018-07-29T14:04:31Z</time>
      </trkpt>
      <trkpt lat="40.578767" lon="-4.789467">
        <ele>1397.0</ele>
        <time>2018-07-29T14:04:32Z</time>
      </trkpt>
      <trkpt lat="40.578833" lon="-4.789350">
        <ele>1394.0</ele>
        <time>2018-07-29T14:04:33Z</time>
      </trkpt>
      <trkpt lat="40.578917" lon="-4.789250">
        <ele>1391.0</ele>
        <time>2018-07-29T14:04:34Z</time>
      </trkpt>
      <trkpt lat="40.579000" lon="-4.789150">
        <ele>1388.0</ele>
        <time>2018-07-29T14:04:35Z</time>
      </trkpt>
      <trkpt lat="40.579067" lon="-4.789067">
        <ele>1386.0</ele>
        <time>2018-07-29T14:04:36Z</time>
      </trkpt>
      <trkpt lat="40.579150" lon="-4.788983">
        <ele>1383.0</ele>
        <time>2018-07-29T14:04:37Z</time>
      </trkpt>
      <trkpt lat="40.579217" lon="-4.788883">
        <ele>1381.0</ele>
        <time>2018-07-29T14:04:38Z</time>
      </trkpt>
      <trkpt lat="40.579300" lon="-4.788783">
        <ele>1377.0</ele>
        <time>2018-07-29T14:04:39Z</time>
      </trkpt>
      <trkpt lat="40.579367" lon="-4.788683">
        <ele>1374.0</ele>
        <time>2018-07-29T14:04:40Z</time>
      </trkpt>
      <trkpt lat="40.579450" lon="-4.788600">
        <ele>1371.0</ele>
        <time>2018-07-29T14:04:41Z</time>
      </trkpt>
      <trkpt lat="40.579533" lon="-4.788533">
        <ele>1369.0</ele>
        <time>2018-07-29T14:04:42Z</time>
      </trkpt>
      <trkpt lat="40.579600" lon="-4.788467">
        <ele>1367.0</ele>
        <time>2018-07-29T14:04:43Z</time>
      </trkpt>
      <trkpt lat="40.579683" lon="-4.788383">
        <ele>1365.0</ele>
        <time>2018-07-29T14:04:44Z</time>
      </trkpt>
      <trkpt lat="40.579767" lon="-4.788317">
        <ele>1362.0</ele>
        <time>2018-07-29T14:04:45Z</time>
      </trkpt>
      <trkpt lat="40.579833" lon="-4.788267">
        <ele>1360.0</ele>
        <time>2018-07-29T14:04:46Z</time>
      </trkpt>
      <trkpt lat="40.579917" lon="-4.788200">
        <ele>1357.0</ele>
        <time>2018-07-29T14:04:47Z</time>
      </trkpt>
      <trkpt lat="40.580000" lon="-4.788117">
        <ele>1354.0</ele>
        <time>2018-07-29T14:04:48Z</time>
      </trkpt>
      <trkpt lat="40.580083" lon="-4.788033">
        <ele>1351.0</ele>
        <time>2018-07-29T14:04:49Z</time>
      </trkpt>
      <trkpt lat="40.580167" lon="-4.787933">
        <ele>1349.0</ele>
        <time>2018-07-29T14:04:50Z</time>
      </trkpt>
      <trkpt lat="40.580233" lon="-4.787817">
        <ele>1346.0</ele>
        <time>2018-07-29T14:04:51Z</time>
      </trkpt>
      <trkpt lat="40.580317" lon="-4.787717">
        <ele>1344.0</ele>
        <time>2018-07-29T14:04:52Z</time>
      </trkpt>
      <trkpt lat="40.580383" lon="-4.787617">
        <ele>1342.0</ele>
        <time>2018-07-29T14:04:53Z</time>
      </trkpt>
      <trkpt lat="40.580467" lon="-4.787517">
        <ele>1340.0</ele>
        <time>2018-07-29T14:04:54Z</time>
      </trkpt>
      <trkpt lat="40.580550" lon="-4.787417">
        <ele>1338.0</ele>
        <time>2018-07-29T14:04:55Z</time>
      </trkpt>
      <trkpt lat="40.580633" lon="-4.787350">
        <ele>1336.0</ele>
        <time>2018-07-29T14:04:56Z</time>
      </trkpt>
      <trkpt lat="40.580733" lon="-4.787317">
        <ele>1334.0</ele>
        <time>2018-07-29T14:04:57Z</time>
      </trkpt>
      <trkpt lat="40.580817" lon="-4.787283">
        <ele>1333.0</ele>
        <time>2018-07-29T14:04:58Z</time>
      </trkpt>
      <trkpt lat="40.580883" lon="-4.787233">
        <ele>1332.0</ele>
        <time>2018-07-29T14:04:59Z</time>
      </trkpt>
      <trkpt lat="40.580950" lon="-4.787183">
        <ele>1329.0</ele>
        <time>2018-07-29T14:05:00Z</time>
      </trkpt>
      <trkpt lat="40.581033" lon="-4.787117">
        <ele>1327.0</ele>
        <time>2018-07-29T14:05:01Z</time>
      </trkpt>
      <trkpt lat="40.581133" lon="-4.787050">
        <ele>1325.0</ele>
        <time>2018-07-29T14:05:02Z</time>
      </trkpt>
      <trkpt lat="40.581217" lon="-4.786983">
        <ele>1323.0</ele>
        <time>2018-07-29T14:05:03Z</time>
      </trkpt>
      <trkpt lat="40.581300" lon="-4.786900">
        <ele>1322.0</ele>
        <time>2018-07-29T14:05:04Z</time>
      </trkpt>
      <trkpt lat="40.581383" lon="-4.786833">
        <ele>1320.0</ele>
        <time>2018-07-29T14:05:05Z</time>
      </trkpt>
      <trkpt lat="40.581467" lon="-4.786750">
        <ele>1317.0</ele>
        <time>2018-07-29T14:05:06Z</time>
      </trkpt>
      <trkpt lat="40.581550" lon="-4.786667">
        <ele>1314.0</ele>
        <time>2018-07-29T14:05:07Z</time>
      </trkpt>
      <trkpt lat="40.581650" lon="-4.786567">
        <ele>1312.0</ele>
        <time>2018-07-29T14:05:08Z</time>
      </trkpt>
      <trkpt lat="40.581750" lon="-4.786483">
        <ele>1310.0</ele>
        <time>2018-07-29T14:05:09Z</time>
      </trkpt>
      <trkpt lat="40.581833" lon="-4.786383">
        <ele>1308.0</ele>
        <time>2018-07-29T14:05:10Z</time>
      </trkpt>
      <trkpt lat="40.581933" lon="-4.786300">
        <ele>1307.0</ele>
        <time>2018-07-29T14:05:11Z</time>
      </trkpt>
      <trkpt lat="40.582017" lon="-4.786233">
        <ele>1305.0</ele>
        <time>2018-07-29T14:05:12Z</time>
      </trkpt>
      <trkpt lat="40.582117" lon="-4.786150">
        <ele>1304.0</ele>
        <time>2018-07-29T14:05:13Z</time>
      </trkpt>
      <trkpt lat="40.582183" lon="-4.786050">
        <ele>1303.0</ele>
        <time>2018-07-29T14:05:14Z</time>
      </trkpt>
      <trkpt lat="40.582283" lon="-4.785967">
        <ele>1302.0</ele>
        <time>2018-07-29T14:05:15Z</time>
      </trkpt>
      <trkpt lat="40.582367" lon="-4.785883">
        <ele>1300.0</ele>
        <time>2018-07-29T14:05:16Z</time>
      </trkpt>
      <trkpt lat="40.582450" lon="-4.785800">
        <ele>1298.0</ele>
        <time>2018-07-29T14:05:17Z</time>
      </trkpt>
      <trkpt lat="40.582550" lon="-4.785700">
        <ele>1297.0</ele>
        <time>2018-07-29T14:05:18Z</time>
      </trkpt>
      <trkpt lat="40.582633" lon="-4.785600">
        <ele>1297.0</ele>
        <time>2018-07-29T14:05:19Z</time>
      </trkpt>
      <trkpt lat="40.582717" lon="-4.785500">
        <ele>1297.0</ele>
        <time>2018-07-29T14:05:20Z</time>
      </trkpt>
      <trkpt lat="40.582783" lon="-4.785400">
        <ele>1296.0</ele>
        <time>2018-07-29T14:05:21Z</time>
      </trkpt>
      <trkpt lat="40.582850" lon="-4.785300">
        <ele>1293.0</ele>
        <time>2018-07-29T14:05:22Z</time>
      </trkpt>
      <trkpt lat="40.582933" lon="-4.785200">
        <ele>1290.0</ele>
        <time>2018-07-29T14:05:23Z</time>
      </trkpt>
      <trkpt lat="40.583033" lon="-4.785117">
        <ele>1287.0</ele>
        <time>2018-07-29T14:05:24Z</time>
      </trkpt>
      <trkpt lat="40.583133" lon="-4.785017">
        <ele>1285.0</ele>
        <time>2018-07-29T14:05:25Z</time>
      </trkpt>
      <trkpt lat="40.583233" lon="-4.784917">
        <ele>1284.0</ele>
        <time>2018-07-29T14:05:26Z</time>
      </trkpt>
      <trkpt lat="40.583333" lon="-4.784817">
        <ele>1283.0</ele>
        <time>2018-07-29T14:05:27Z</time>
      </trkpt>
      <trkpt lat="40.583400" lon="-4.784717">
        <ele>1282.0</ele>
        <time>2018-07-29T14:05:28Z</time>
      </trkpt>
      <trkpt lat="40.583483" lon="-4.784600">
        <ele>1281.0</ele>
        <time>2018-07-29T14:05:29Z</time>
      </trkpt>
      <trkpt lat="40.583567" lon="-4.784500">
        <ele>1279.0</ele>
        <time>2018-07-29T14:05:30Z</time>
      </trkpt>
      <trkpt lat="40.583667" lon="-4.784400">
        <ele>1279.0</ele>
        <time>2018-07-29T14:05:31Z</time>
      </trkpt>
      <trkpt lat="40.583733" lon="-4.784300">
        <ele>1278.0</ele>
        <time>2018-07-29T14:05:32Z</time>
      </trkpt>
      <trkpt lat="40.583800" lon="-4.784200">
        <ele>1278.0</ele>
        <time>2018-07-29T14:05:33Z</time>
      </trkpt>
      <trkpt lat="40.583867" lon="-4.784117">
        <ele>1276.0</ele>
        <time>2018-07-29T14:05:34Z</time>
      </trkpt>
      <trkpt lat="40.583933" lon="-4.784017">
        <ele>1275.0</ele>
        <time>2018-07-29T14:05:35Z</time>
      </trkpt>
      <trkpt lat="40.584017" lon="-4.783917">
        <ele>1275.0</ele>
        <time>2018-07-29T14:05:36Z</time>
      </trkpt>
      <trkpt lat="40.584100" lon="-4.783817">
        <ele>1277.0</ele>
        <time>2018-07-29T14:05:37Z</time>
      </trkpt>
      <trkpt lat="40.584183" lon="-4.783733">
        <ele>1279.0</ele>
        <time>2018-07-29T14:05:38Z</time>
      </trkpt>
      <trkpt lat="40.584250" lon="-4.783650">
        <ele>1281.0</ele>
        <time>2018-07-29T14:05:39Z</time>
      </trkpt>
      <trkpt lat="40.584317" lon="-4.783567">
        <ele>1281.0</ele>
        <time>2018-07-29T14:05:40Z</time>
      </trkpt>
      <trkpt lat="40.584383" lon="-4.783500">
        <ele>1281.0</ele>
        <time>2018-07-29T14:05:41Z</time>
      </trkpt>
      <trkpt lat="40.584450" lon="-4.783417">
        <ele>1282.0</ele>
        <time>2018-07-29T14:05:42Z</time>
      </trkpt>
      <trkpt lat="40.584517" lon="-4.783367">
        <ele>1282.0</ele>
        <time>2018-07-29T14:05:43Z</time>
      </trkpt>
      <trkpt lat="40.584567" lon="-4.783350">
        <ele>1284.0</ele>
        <time>2018-07-29T14:05:44Z</time>
      </trkpt>
      <trkpt lat="40.584633" lon="-4.783367">
        <ele>1286.0</ele>
        <time>2018-07-29T14:05:45Z</time>
      </trkpt>
      <trkpt lat="40.584683" lon="-4.783383">
        <ele>1288.0</ele>
        <time>2018-07-29T14:05:46Z</time>
      </trkpt>
      <trkpt lat="40.584717" lon="-4.783433">
        <ele>1289.0</ele>
        <time>2018-07-29T14:05:47Z</time>
      </trkpt>
      <trkpt lat="40.584750" lon="-4.783517">
        <ele>1289.0</ele>
        <time>2018-07-29T14:05:48Z</time>
      </trkpt>
      <trkpt lat="40.584733" lon="-4.783633">
        <ele>1289.0</ele>
        <time>2018-07-29T14:05:49Z</time>
      </trkpt>
      <trkpt lat="40.584700" lon="-4.783733">
        <ele>1290.0</ele>
        <time>2018-07-29T14:05:50Z</time>
      </trkpt>
      <trkpt lat="40.584600" lon="-4.783800">
        <ele>1292.0</ele>
        <time>2018-07-29T14:05:51Z</time>
      </trkpt>
      <trkpt lat="40.584500" lon="-4.783783">
        <ele>1294.0</ele>
        <time>2018-07-29T14:05:52Z</time>
      </trkpt>
      <trkpt lat="40.584417" lon="-4.783700">
        <ele>1296.0</ele>
        <time>2018-07-29T14:05:53Z</time>
      </trkpt>
      <trkpt lat="40.584350" lon="-4.783583">
        <ele>1298.0</ele>
        <time>2018-07-29T14:05:54Z</time>
      </trkpt>
      <trkpt lat="40.584317" lon="-4.783417">
        <ele>1299.0</ele>
        <time>2018-07-29T14:05:55Z</time>
      </trkpt>
      <trkpt lat="40.584300" lon="-4.783250">
        <ele>1299.0</ele>
        <time>2018-07-29T14:05:56Z</time>
      </trkpt>
      <trkpt lat="40.584333" lon="-4.783083">
        <ele>1300.0</ele>
        <time>2018-07-29T14:05:57Z</time>
      </trkpt>
      <trkpt lat="40.584383" lon="-4.782933">
        <ele>1302.0</ele>
        <time>2018-07-29T14:05:58Z</time>
      </trkpt>
      <trkpt lat="40.584433" lon="-4.782800">
        <ele>1305.0</ele>
        <time>2018-07-29T14:05:59Z</time>
      </trkpt>
      <trkpt lat="40.584500" lon="-4.782700">
        <ele>1307.0</ele>
        <time>2018-07-29T14:06:00Z</time>
      </trkpt>
      <trkpt lat="40.584567" lon="-4.782633">
        <ele>1308.0</ele>
        <time>2018-07-29T14:06:01Z</time>
      </trkpt>
      <trkpt lat="40.584667" lon="-4.782617">
        <ele>1309.0</ele>
        <time>2018-07-29T14:06:02Z</time>
      </trkpt>
      <trkpt lat="40.584767" lon="-4.782650">
        <ele>1310.0</ele>
        <time>2018-07-29T14:06:03Z</time>
      </trkpt>
      <trkpt lat="40.584833" lon="-4.782733">
        <ele>1311.0</ele>
        <time>2018-07-29T14:06:04Z</time>
      </trkpt>
      <trkpt lat="40.584867" lon="-4.782833">
        <ele>1312.0</ele>
        <time>2018-07-29T14:06:05Z</time>
      </trkpt>
      <trkpt lat="40.584850" lon="-4.782950">
        <ele>1313.0</ele>
        <time>2018-07-29T14:06:06Z</time>
      </trkpt>
      <trkpt lat="40.584817" lon="-4.783067">
        <ele>1314.0</ele>
        <time>2018-07-29T14:06:07Z</time>
      </trkpt>
      <trkpt lat="40.584733" lon="-4.783133">
        <ele>1317.0</ele>
        <time>2018-07-29T14:06:08Z</time>
      </trkpt>
      <trkpt lat="40.584633" lon="-4.783150">
        <ele>1320.0</ele>
        <time>2018-07-29T14:06:09Z</time>
      </trkpt>
      <trkpt lat="40.584550" lon="-4.783083">
        <ele>1320.0</ele>
        <time>2018-07-29T14:06:10Z</time>
      </trkpt>
      <trkpt lat="40.584483" lon="-4.782950">
        <ele>1321.0</ele>
        <time>2018-07-29T14:06:11Z</time>
      </trkpt>
      <trkpt lat="40.584467" lon="-4.782783">
        <ele>1321.0</ele>
        <time>2018-07-29T14:06:12Z</time>
      </trkpt>
      <trkpt lat="40.584500" lon="-4.782617">
        <ele>1321.0</ele>
        <time>2018-07-29T14:06:13Z</time>
      </trkpt>
      <trkpt lat="40.584567" lon="-4.782467">
        <ele>1324.0</ele>
        <time>2018-07-29T14:06:14Z</time>
      </trkpt>
      <trkpt lat="40.584633" lon="-4.782367">
        <ele>1329.0</ele>
        <time>2018-07-29T14:06:15Z</time>
      </trkpt>
      <trkpt lat="40.584700" lon="-4.782300">
        <ele>1333.0</ele>
        <time>2018-07-29T14:06:16Z</time>
      </trkpt>
      <trkpt lat="40.584767" lon="-4.782250">
        <ele>1335.0</ele>
        <time>2018-07-29T14:06:17Z</time>
      </trkpt>
      <trkpt lat="40.584850" lon="-4.782217">
        <ele>1336.0</ele>
        <time>2018-07-29T14:06:18Z</time>
      </trkpt>
      <trkpt lat="40.584950" lon="-4.782183">
        <ele>1337.0</ele>
        <time>2018-07-29T14:06:19Z</time>
      </trkpt>
      <trkpt lat="40.585033" lon="-4.782183">
        <ele>1339.0</ele>
        <time>2018-07-29T14:06:20Z</time>
      </trkpt>
      <trkpt lat="40.585117" lon="-4.782217">
        <ele>1339.0</ele>
        <time>2018-07-29T14:06:21Z</time>
      </trkpt>
      <trkpt lat="40.585150" lon="-4.782283">
        <ele>1339.0</ele>
        <time>2018-07-29T14:06:22Z</time>
      </trkpt>
      <trkpt lat="40.585133" lon="-4.782383">
        <ele>1339.0</ele>
        <time>2018-07-29T14:06:23Z</time>
      </trkpt>
      <trkpt lat="40.585083" lon="-4.782467">
        <ele>1340.0</ele>
        <time>2018-07-29T14:06:24Z</time>
      </trkpt>
      <trkpt lat="40.585000" lon="-4.782483">
        <ele>1343.0</ele>
        <time>2018-07-29T14:06:25Z</time>
      </trkpt>
      <trkpt lat="40.584917" lon="-4.782433">
        <ele>1345.0</ele>
        <time>2018-07-29T14:06:26Z</time>
      </trkpt>
      <trkpt lat="40.584833" lon="-4.782350">
        <ele>1347.0</ele>
        <time>2018-07-29T14:06:27Z</time>
      </trkpt>
      <trkpt lat="40.584767" lon="-4.782217">
        <ele>1350.0</ele>
        <time>2018-07-29T14:06:28Z</time>
      </trkpt>
      <trkpt lat="40.584733" lon="-4.782067">
        <ele>1353.0</ele>
        <time>2018-07-29T14:06:29Z</time>
      </trkpt>
      <trkpt lat="40.584717" lon="-4.781917">
        <ele>1355.0</ele>
        <time>2018-07-29T14:06:30Z</time>
      </trkpt>
      <trkpt lat="40.584700" lon="-4.781767">
        <ele>1357.0</ele>
        <time>2018-07-29T14:06:31Z</time>
      </trkpt>
      <trkpt lat="40.584683" lon="-4.781617">
        <ele>1358.0</ele>
        <time>2018-07-29T14:06:32Z</time>
      </trkpt>
      <trkpt lat="40.584667" lon="-4.781450">
        <ele>1359.0</ele>
        <time>2018-07-29T14:06:33Z</time>
      </trkpt>
      <trkpt lat="40.584650" lon="-4.781283">
        <ele>1360.0</ele>
        <time>2018-07-29T14:06:34Z</time>
      </trkpt>
      <trkpt lat="40.584650" lon="-4.781150">
        <ele>1360.0</ele>
        <time>2018-07-29T14:06:35Z</time>
      </trkpt>
      <trkpt lat="40.584683" lon="-4.781033">
        <ele>1359.0</ele>
        <time>2018-07-29T14:06:36Z</time>
      </trkpt>
      <trkpt lat="40.584750" lon="-4.780933">
        <ele>1359.0</ele>
        <time>2018-07-29T14:06:37Z</time>
      </trkpt>
      <trkpt lat="40.584817" lon="-4.780850">
        <ele>1358.0</ele>
        <time>2018-07-29T14:06:38Z</time>
      </trkpt>
      <trkpt lat="40.584883" lon="-4.780750">
        <ele>1360.0</ele>
        <time>2018-07-29T14:06:39Z</time>
      </trkpt>
      <trkpt lat="40.584933" lon="-4.780650">
        <ele>1362.0</ele>
        <time>2018-07-29T14:06:40Z</time>
      </trkpt>
      <trkpt lat="40.584983" lon="-4.780550">
        <ele>1367.0</ele>
        <time>2018-07-29T14:06:41Z</time>
      </trkpt>
      <trkpt lat="40.585033" lon="-4.780483">
        <ele>1372.0</ele>
        <time>2018-07-29T14:06:42Z</time>
      </trkpt>
      <trkpt lat="40.585067" lon="-4.780450">
        <ele>1376.0</ele>
        <time>2018-07-29T14:06:43Z</time>
      </trkpt>
      <trkpt lat="40.585117" lon="-4.780450">
        <ele>1378.0</ele>
        <time>2018-07-29T14:06:44Z</time>
      </trkpt>
      <trkpt lat="40.585183" lon="-4.780450">
        <ele>1382.0</ele>
        <time>2018-07-29T14:06:45Z</time>
      </trkpt>
      <trkpt lat="40.585250" lon="-4.780433">
        <ele>1386.0</ele>
        <time>2018-07-29T14:06:46Z</time>
      </trkpt>
      <trkpt lat="40.585300" lon="-4.780400">
        <ele>1391.0</ele>
        <time>2018-07-29T14:06:47Z</time>
      </trkpt>
      <trkpt lat="40.585367" lon="-4.780367">
        <ele>1395.0</ele>
        <time>2018-07-29T14:06:48Z</time>
      </trkpt>
      <trkpt lat="40.585417" lon="-4.780350">
        <ele>1398.0</ele>
        <time>2018-07-29T14:06:49Z</time>
      </trkpt>
      <trkpt lat="40.585433" lon="-4.780383">
        <ele>1400.0</ele>
        <time>2018-07-29T14:06:50Z</time>
      </trkpt>
      <trkpt lat="40.585417" lon="-4.780433">
        <ele>1401.0</ele>
        <time>2018-07-29T14:06:51Z</time>
      </trkpt>
      <trkpt lat="40.585367" lon="-4.780483">
        <ele>1403.0</ele>
        <time>2018-07-29T14:06:52Z</time>
      </trkpt>
      <trkpt lat="40.585300" lon="-4.780517">
        <ele>1406.0</ele>
        <time>2018-07-29T14:06:53Z</time>
      </trkpt>
      <trkpt lat="40.585200" lon="-4.780467">
        <ele>1411.0</ele>
        <time>2018-07-29T14:06:54Z</time>
      </trkpt>
      <trkpt lat="40.585100" lon="-4.780367">
        <ele>1414.0</ele>
        <time>2018-07-29T14:06:55Z</time>
      </trkpt>
      <trkpt lat="40.585033" lon="-4.780200">
        <ele>1415.0</ele>
        <time>2018-07-29T14:06:56Z</time>
      </trkpt>
      <trkpt lat="40.585000" lon="-4.780000">
        <ele>1415.0</ele>
        <time>2018-07-29T14:06:57Z</time>
      </trkpt>
      <trkpt lat="40.585017" lon="-4.779767">
        <ele>1416.0</ele>
        <time>2018-07-29T14:06:58Z</time>
      </trkpt>
      <trkpt lat="40.585050" lon="-4.779567">
        <ele>1420.0</ele>
        <time>2018-07-29T14:06:59Z</time>
      </trkpt>
      <trkpt lat="40.585117" lon="-4.779400">
        <ele>1424.0</ele>
        <time>2018-07-29T14:07:00Z</time>
      </trkpt>
      <trkpt lat="40.585183" lon="-4.779283">
        <ele>1428.0</ele>
        <time>2018-07-29T14:07:01Z</time>
      </trkpt>
      <trkpt lat="40.585233" lon="-4.779217">
        <ele>1432.0</ele>
        <time>2018-07-29T14:07:02Z</time>
      </trkpt>
      <trkpt lat="40.585283" lon="-4.779183">
        <ele>1434.0</ele>
        <time>2018-07-29T14:07:03Z</time>
      </trkpt>
      <trkpt lat="40.585317" lon="-4.779183">
        <ele>1435.0</ele>
        <time>2018-07-29T14:07:04Z</time>
      </trkpt>
      <trkpt lat="40.585350" lon="-4.779217">
        <ele>1435.0</ele>
        <time>2018-07-29T14:07:05Z</time>
      </trkpt>
      <trkpt lat="40.585367" lon="-4.779267">
        <ele>1436.0</ele>
        <time>2018-07-29T14:07:06Z</time>
      </trkpt>
      <trkpt lat="40.585350" lon="-4.779333">
        <ele>1437.0</ele>
        <time>2018-07-29T14:07:07Z</time>
      </trkpt>
      <trkpt lat="40.585300" lon="-4.779400">
        <ele>1439.0</ele>
        <time>2018-07-29T14:07:08Z</time>
      </trkpt>
      <trkpt lat="40.585233" lon="-4.779433">
        <ele>1441.0</ele>
        <time>2018-07-29T14:07:09Z</time>
      </trkpt>
      <trkpt lat="40.585117" lon="-4.779417">
        <ele>1443.0</ele>
        <time>2018-07-29T14:07:10Z</time>
      </trkpt>
      <trkpt lat="40.585000" lon="-4.779333">
        <ele>1446.0</ele>
        <time>2018-07-29T14:07:11Z</time>
      </trkpt>
      <trkpt lat="40.584900" lon="-4.779233">
        <ele>1449.0</ele>
        <time>2018-07-29T14:07:12Z</time>
      </trkpt>
      <trkpt lat="40.584800" lon="-4.779083">
        <ele>1453.0</ele>
        <time>2018-07-29T14:07:13Z</time>
      </trkpt>
      <trkpt lat="40.584733" lon="-4.778900">
        <ele>1457.0</ele>
        <time>2018-07-29T14:07:14Z</time>
      </trkpt>
      <trkpt lat="40.584667" lon="-4.778717">
        <ele>1461.0</ele>
        <time>2018-07-29T14:07:15Z</time>
      </trkpt>
      <trkpt lat="40.584600" lon="-4.778517">
        <ele>1464.0</ele>
        <time>2018-07-29T14:07:16Z</time>
      </trkpt>
      <trkpt lat="40.584550" lon="-4.778317">
        <ele>1468.0</ele>
        <time>2018-07-29T14:07:17Z</time>
      </trkpt>
      <trkpt lat="40.584500" lon="-4.778117">
        <ele>1473.0</ele>
        <time>2018-07-29T14:07:18Z</time>
      </trkpt>
      <trkpt lat="40.584467" lon="-4.777933">
        <ele>1477.0</ele>
        <time>2018-07-29T14:07:19Z</time>
      </trkpt>
      <trkpt lat="40.584450" lon="-4.777783">
        <ele>1480.0</ele>
        <time>2018-07-29T14:07:20Z</time>
      </trkpt>
      <trkpt lat="40.584433" lon="-4.777633">
        <ele>1482.0</ele>
        <time>2018-07-29T14:07:21Z</time>
      </trkpt>
      <trkpt lat="40.584433" lon="-4.777483">
        <ele>1483.0</ele>
        <time>2018-07-29T14:07:22Z</time>
      </trkpt>
      <trkpt lat="40.584467" lon="-4.777350">
        <ele>1483.0</ele>
        <time>2018-07-29T14:07:23Z</time>
      </trkpt>
      <trkpt lat="40.584500" lon="-4.777250">
        <ele>1483.0</ele>
        <time>2018-07-29T14:07:24Z</time>
      </trkpt>
      <trkpt lat="40.584567" lon="-4.777183">
        <ele>1483.0</ele>
        <time>2018-07-29T14:07:25Z</time>
      </trkpt>
      <trkpt lat="40.584633" lon="-4.777167">
        <ele>1484.0</ele>
        <time>2018-07-29T14:07:26Z</time>
      </trkpt>
      <trkpt lat="40.584683" lon="-4.777167">
        <ele>1486.0</ele>
        <time>2018-07-29T14:07:27Z</time>
      </trkpt>
      <trkpt lat="40.584733" lon="-4.777200">
        <ele>1489.0</ele>
        <time>2018-07-29T14:07:28Z</time>
      </trkpt>
      <trkpt lat="40.584750" lon="-4.777267">
        <ele>1491.0</ele>
        <time>2018-07-29T14:07:29Z</time>
      </trkpt>
      <trkpt lat="40.584733" lon="-4.777333">
        <ele>1494.0</ele>
        <time>2018-07-29T14:07:30Z</time>
      </trkpt>
      <trkpt lat="40.584683" lon="-4.777417">
        <ele>1495.0</ele>
        <time>2018-07-29T14:07:31Z</time>
      </trkpt>
      <trkpt lat="40.584600" lon="-4.777467">
        <ele>1496.0</ele>
        <time>2018-07-29T14:07:32Z</time>
      </trkpt>
      <trkpt lat="40.584500" lon="-4.777467">
        <ele>1496.0</ele>
        <time>2018-07-29T14:07:33Z</time>
      </trkpt>
      <trkpt lat="40.584367" lon="-4.777417">
        <ele>1496.0</ele>
        <time>2018-07-29T14:07:34Z</time>
      </trkpt>
      <trkpt lat="40.584250" lon="-4.777333">
        <ele>1496.0</ele>
        <time>2018-07-29T14:07:35Z</time>
      </trkpt>
      <trkpt lat="40.584133" lon="-4.777200">
        <ele>1498.0</ele>
        <time>2018-07-29T14:07:36Z</time>
      </trkpt>
      <trkpt lat="40.584033" lon="-4.777050">
        <ele>1500.0</ele>
        <time>2018-07-29T14:07:37Z</time>
      </trkpt>
      <trkpt lat="40.583983" lon="-4.776900">
        <ele>1502.0</ele>
        <time>2018-07-29T14:07:38Z</time>
      </trkpt>
      <trkpt lat="40.583933" lon="-4.776750">
        <ele>1504.0</ele>
        <time>2018-07-29T14:07:39Z</time>
      </trkpt>
      <trkpt lat="40.583917" lon="-4.776600">
        <ele>1505.0</ele>
        <time>2018-07-29T14:07:40Z</time>
      </trkpt>
      <trkpt lat="40.583900" lon="-4.776467">
        <ele>1506.0</ele>
        <time>2018-07-29T14:07:41Z</time>
      </trkpt>
      <trkpt lat="40.583917" lon="-4.776333">
        <ele>1507.0</ele>
        <time>2018-07-29T14:07:42Z</time>
      </trkpt>
      <trkpt lat="40.583950" lon="-4.776200">
        <ele>1508.0</ele>
        <time>2018-07-29T14:07:43Z</time>
      </trkpt>
      <trkpt lat="40.584000" lon="-4.776100">
        <ele>1509.0</ele>
        <time>2018-07-29T14:07:44Z</time>
      </trkpt>
      <trkpt lat="40.584050" lon="-4.776017">
        <ele>1511.0</ele>
        <time>2018-07-29T14:07:45Z</time>
      </trkpt>
      <trkpt lat="40.584100" lon="-4.775933">
        <ele>1513.0</ele>
        <time>2018-07-29T14:07:46Z</time>
      </trkpt>
      <trkpt lat="40.584150" lon="-4.775883">
        <ele>1514.0</ele>
        <time>2018-07-29T14:07:47Z</time>
      </trkpt>
      <trkpt lat="40.584200" lon="-4.775817">
        <ele>1516.0</ele>
        <time>2018-07-29T14:07:48Z</time>
      </trkpt>
      <trkpt lat="40.584250" lon="-4.775767">
        <ele>1518.0</ele>
        <time>2018-07-29T14:07:49Z</time>
      </trkpt>
      <trkpt lat="40.584300" lon="-4.775700">
        <ele>1519.0</ele>
        <time>2018-07-29T14:07:50Z</time>
      </trkpt>
      <trkpt lat="40.584333" lon="-4.775650">
        <ele>1519.0</ele>
        <time>2018-07-29T14:07:51Z</time>
      </trkpt>
      <trkpt lat="40.584383" lon="-4.775583">
        <ele>1518.0</ele>
        <time>2018-07-29T14:07:52Z</time>
      </trkpt>
      <trkpt lat="40.584450" lon="-4.775550">
        <ele>1518.0</ele>
        <time>2018-07-29T14:07:53Z</time>
      </trkpt>
      <trkpt lat="40.584500" lon="-4.775500">
        <ele>1518.0</ele>
        <time>2018-07-29T14:07:54Z</time>
      </trkpt>
      <trkpt lat="40.584567" lon="-4.775467">
        <ele>1518.0</ele>
        <time>2018-07-29T14:07:55Z</time>
      </trkpt>
      <trkpt lat="40.584600" lon="-4.775417">
        <ele>1519.0</ele>
        <time>2018-07-29T14:07:56Z</time>
      </trkpt>
      <trkpt lat="40.584633" lon="-4.775367">
        <ele>1520.0</ele>
        <time>2018-07-29T14:07:57Z</time>
      </trkpt>
      <trkpt lat="40.584667" lon="-4.775333">
        <ele>1521.0</ele>
        <time>2018-07-29T14:07:58Z</time>
      </trkpt>
      <trkpt lat="40.584700" lon="-4.775283">
        <ele>1520.0</ele>
        <time>2018-07-29T14:07:59Z</time>
      </trkpt>
      <trkpt lat="40.584750" lon="-4.775250">
        <ele>1518.0</ele>
        <time>2018-07-29T14:08:00Z</time>
      </trkpt>
      <trkpt lat="40.584783" lon="-4.775183">
        <ele>1517.0</ele>
        <time>2018-07-29T14:08:01Z</time>
      </trkpt>
      <trkpt lat="40.584833" lon="-4.775117">
        <ele>1516.0</ele>
        <time>2018-07-29T14:08:02Z</time>
      </trkpt>
      <trkpt lat="40.584867" lon="-4.775067">
        <ele>1515.0</ele>
        <time>2018-07-29T14:08:03Z</time>
      </trkpt>
      <trkpt lat="40.584917" lon="-4.775017">
        <ele>1515.0</ele>
        <time>2018-07-29T14:08:04Z</time>
      </trkpt>
      <trkpt lat="40.584950" lon="-4.774983">
        <ele>1516.0</ele>
        <time>2018-07-29T14:08:05Z</time>
      </trkpt>
      <trkpt lat="40.584983" lon="-4.774933">
        <ele>1517.0</ele>
        <time>2018-07-29T14:08:06Z</time>
      </trkpt>
      <trkpt lat="40.585017" lon="-4.774883">
        <ele>1517.0</ele>
        <time>2018-07-29T14:08:07Z</time>
      </trkpt>
      <trkpt lat="40.585050" lon="-4.774833">
        <ele>1516.0</ele>
        <time>2018-07-29T14:08:08Z</time>
      </trkpt>
      <trkpt lat="40.585083" lon="-4.774800">
        <ele>1514.0</ele>
        <time>2018-07-29T14:08:09Z</time>
      </trkpt>
      <trkpt lat="40.585117" lon="-4.774767">
        <ele>1513.0</ele>
        <time>2018-07-29T14:08:10Z</time>
      </trkpt>
      <trkpt lat="40.585167" lon="-4.774733">
        <ele>1511.0</ele>
        <time>2018-07-29T14:08:11Z</time>
      </trkpt>
      <trkpt lat="40.585217" lon="-4.774717">
        <ele>1510.0</ele>
        <time>2018-07-29T14:08:12Z</time>
      </trkpt>
      <trkpt lat="40.585267" lon="-4.774683">
        <ele>1509.0</ele>
        <time>2018-07-29T14:08:13Z</time>
      </trkpt>
      <trkpt lat="40.585317" lon="-4.774650">
        <ele>1509.0</ele>
        <time>2018-07-29T14:08:14Z</time>
      </trkpt>
      <trkpt lat="40.585367" lon="-4.774633">
        <ele>1507.0</ele>
        <time>2018-07-29T14:08:15Z</time>
      </trkpt>
      <trkpt lat="40.585417" lon="-4.774617">
        <ele>1506.0</ele>
        <time>2018-07-29T14:08:16Z</time>
      </trkpt>
      <trkpt lat="40.585467" lon="-4.774617">
        <ele>1503.0</ele>
        <time>2018-07-29T14:08:17Z</time>
      </trkpt>
      <trkpt lat="40.585533" lon="-4.774600">
        <ele>1501.0</ele>
        <time>2018-07-29T14:08:18Z</time>
      </trkpt>
      <trkpt lat="40.585617" lon="-4.774583">
        <ele>1500.0</ele>
        <time>2018-07-29T14:08:19Z</time>
      </trkpt>
      <trkpt lat="40.585683" lon="-4.774567">
        <ele>1500.0</ele>
        <time>2018-07-29T14:08:20Z</time>
      </trkpt>
      <trkpt lat="40.585750" lon="-4.774550">
        <ele>1501.0</ele>
        <time>2018-07-29T14:08:21Z</time>
      </trkpt>
      <trkpt lat="40.585800" lon="-4.774550">
        <ele>1502.0</ele>
        <time>2018-07-29T14:08:22Z</time>
      </trkpt>
      <trkpt lat="40.585850" lon="-4.774533">
        <ele>1503.0</ele>
        <time>2018-07-29T14:08:23Z</time>
      </trkpt>
      <trkpt lat="40.585900" lon="-4.774517">
        <ele>1502.0</ele>
        <time>2018-07-29T14:08:24Z</time>
      </trkpt>
      <trkpt lat="40.585950" lon="-4.774467">
        <ele>1500.0</ele>
        <time>2018-07-29T14:08:25Z</time>
      </trkpt>
      <trkpt lat="40.586017" lon="-4.774417">
        <ele>1497.0</ele>
        <time>2018-07-29T14:08:26Z</time>
      </trkpt>
      <trkpt lat="40.586083" lon="-4.774367">
        <ele>1496.0</ele>
        <time>2018-07-29T14:08:27Z</time>
      </trkpt>
      <trkpt lat="40.586150" lon="-4.774300">
        <ele>1496.0</ele>
        <time>2018-07-29T14:08:28Z</time>
      </trkpt>
      <trkpt lat="40.586200" lon="-4.774233">
        <ele>1497.0</ele>
        <time>2018-07-29T14:08:29Z</time>
      </trkpt>
      <trkpt lat="40.586250" lon="-4.774167">
        <ele>1498.0</ele>
        <time>2018-07-29T14:08:30Z</time>
      </trkpt>
      <trkpt lat="40.586283" lon="-4.774100">
        <ele>1499.0</ele>
        <time>2018-07-29T14:08:31Z</time>
      </trkpt>
      <trkpt lat="40.586317" lon="-4.774050">
        <ele>1499.0</ele>
        <time>2018-07-29T14:08:32Z</time>
      </trkpt>
      <trkpt lat="40.586350" lon="-4.773983">
        <ele>1498.0</ele>
        <time>2018-07-29T14:08:33Z</time>
      </trkpt>
      <trkpt lat="40.586383" lon="-4.773900">
        <ele>1496.0</ele>
        <time>2018-07-29T14:08:34Z</time>
      </trkpt>
      <trkpt lat="40.586433" lon="-4.773833">
        <ele>1494.0</ele>
        <time>2018-07-29T14:08:35Z</time>
      </trkpt>
      <trkpt lat="40.586483" lon="-4.773767">
        <ele>1493.0</ele>
        <time>2018-07-29T14:08:36Z</time>
      </trkpt>
      <trkpt lat="40.586533" lon="-4.773700">
        <ele>1493.0</ele>
        <time>2018-07-29T14:08:37Z</time>
      </trkpt>
      <trkpt lat="40.586583" lon="-4.773650">
        <ele>1493.0</ele>
        <time>2018-07-29T14:08:38Z</time>
      </trkpt>
      <trkpt lat="40.586633" lon="-4.773600">
        <ele>1494.0</ele>
        <time>2018-07-29T14:08:39Z</time>
      </trkpt>
      <trkpt lat="40.586667" lon="-4.773550">
        <ele>1496.0</ele>
        <time>2018-07-29T14:08:40Z</time>
      </trkpt>
      <trkpt lat="40.586700" lon="-4.773500">
        <ele>1496.0</ele>
        <time>2018-07-29T14:08:41Z</time>
      </trkpt>
      <trkpt lat="40.586733" lon="-4.773450">
        <ele>1495.0</ele>
        <time>2018-07-29T14:08:42Z</time>
      </trkpt>
      <trkpt lat="40.586767" lon="-4.773417">
        <ele>1493.0</ele>
        <time>2018-07-29T14:08:43Z</time>
      </trkpt>
      <trkpt lat="40.586817" lon="-4.773367">
        <ele>1492.0</ele>
        <time>2018-07-29T14:08:44Z</time>
      </trkpt>
      <trkpt lat="40.586850" lon="-4.773333">
        <ele>1491.0</ele>
        <time>2018-07-29T14:08:45Z</time>
      </trkpt>
      <trkpt lat="40.586900" lon="-4.773283">
        <ele>1490.0</ele>
        <time>2018-07-29T14:08:46Z</time>
      </trkpt>
      <trkpt lat="40.586950" lon="-4.773250">
        <ele>1489.0</ele>
        <time>2018-07-29T14:08:47Z</time>
      </trkpt>
      <trkpt lat="40.587000" lon="-4.773217">
        <ele>1489.0</ele>
        <time>2018-07-29T14:08:48Z</time>
      </trkpt>
      <trkpt lat="40.587050" lon="-4.773200">
        <ele>1490.0</ele>
        <time>2018-07-29T14:08:49Z</time>
      </trkpt>
      <trkpt lat="40.587083" lon="-4.773167">
        <ele>1491.0</ele>
        <time>2018-07-29T14:08:50Z</time>
      </trkpt>
      <trkpt lat="40.587117" lon="-4.773150">
        <ele>1492.0</ele>
        <time>2018-07-29T14:08:51Z</time>
      </trkpt>
      <trkpt lat="40.587150" lon="-4.773117">
        <ele>1492.0</ele>
        <time>2018-07-29T14:08:52Z</time>
      </trkpt>
      <trkpt lat="40.587183" lon="-4.773083">
        <ele>1491.0</ele>
        <time>2018-07-29T14:08:53Z</time>
      </trkpt>
      <trkpt lat="40.587233" lon="-4.773050">
        <ele>1490.0</ele>
        <time>2018-07-29T14:08:54Z</time>
      </trkpt>
      <trkpt lat="40.587283" lon="-4.773050">
        <ele>1489.0</ele>
        <time>2018-07-29T14:08:55Z</time>
      </trkpt>
      <trkpt lat="40.587333" lon="-4.773033">
        <ele>1488.0</ele>
        <time>2018-07-29T14:08:56Z</time>
      </trkpt>
      <trkpt lat="40.587383" lon="-4.773017">
        <ele>1489.0</ele>
        <time>2018-07-29T14:08:57Z</time>
      </trkpt>
      <trkpt lat="40.587433" lon="-4.772967">
        <ele>1489.0</ele>
        <time>2018-07-29T14:08:58Z</time>
      </trkpt>
      <trkpt lat="40.587467" lon="-4.772900">
        <ele>1489.0</ele>
        <time>2018-07-29T14:08:59Z</time>
      </trkpt>
      <trkpt lat="40.587517" lon="-4.772817">
        <ele>1491.0</ele>
        <time>2018-07-29T14:09:00Z</time>
      </trkpt>
      <trkpt lat="40.587550" lon="-4.772767">
        <ele>1492.0</ele>
        <time>2018-07-29T14:09:01Z</time>
      </trkpt>
      <trkpt lat="40.587583" lon="-4.772733">
        <ele>1494.0</ele>
        <time>2018-07-29T14:09:02Z</time>
      </trkpt>
      <trkpt lat="40.587617" lon="-4.772683">
        <ele>1496.0</ele>
        <time>2018-07-29T14:09:03Z</time>
      </trkpt>
      <trkpt lat="40.587667" lon="-4.772650">
        <ele>1497.0</ele>
        <time>2018-07-29T14:09:04Z</time>
      </trkpt>
      <trkpt lat="40.587717" lon="-4.772600">
        <ele>1498.0</ele>
        <time>2018-07-29T14:09:05Z</time>
      </trkpt>
      <trkpt lat="40.587750" lon="-4.772567">
        <ele>1500.0</ele>
        <time>2018-07-29T14:09:06Z</time>
      </trkpt>
      <trkpt lat="40.587800" lon="-4.772517">
        <ele>1501.0</ele>
        <time>2018-07-29T14:09:07Z</time>
      </trkpt>
      <trkpt lat="40.587850" lon="-4.772467">
        <ele>1503.0</ele>
        <time>2018-07-29T14:09:08Z</time>
      </trkpt>
      <trkpt lat="40.587900" lon="-4.772417">
        <ele>1504.0</ele>
        <time>2018-07-29T14:09:09Z</time>
      </trkpt>
      <trkpt lat="40.587950" lon="-4.772367">
        <ele>1505.0</ele>
        <time>2018-07-29T14:09:10Z</time>
      </trkpt>
      <trkpt lat="40.588000" lon="-4.772283">
        <ele>1506.0</ele>
        <time>2018-07-29T14:09:11Z</time>
      </trkpt>
      <trkpt lat="40.588050" lon="-4.772200">
        <ele>1507.0</ele>
        <time>2018-07-29T14:09:12Z</time>
      </trkpt>
      <trkpt lat="40.588100" lon="-4.772117">
        <ele>1508.0</ele>
        <time>2018-07-29T14:09:13Z</time>
      </trkpt>
      <trkpt lat="40.588150" lon="-4.772050">
        <ele>1509.0</ele>
        <time>2018-07-29T14:09:14Z</time>
      </trkpt>
      <trkpt lat="40.588200" lon="-4.771967">
        <ele>1510.0</ele>
        <time>2018-07-29T14:09:15Z</time>
      </trkpt>
      <trkpt lat="40.588250" lon="-4.771883">
        <ele>1511.0</ele>
        <time>2018-07-29T14:09:16Z</time>
      </trkpt>
      <trkpt lat="40.588300" lon="-4.771800">
        <ele>1512.0</ele>
        <time>2018-07-29T14:09:17Z</time>
      </trkpt>
      <trkpt lat="40.588350" lon="-4.771717">
        <ele>1512.0</ele>
        <time>2018-07-29T14:09:18Z</time>
      </trkpt>
      <trkpt lat="40.588400" lon="-4.771650">
        <ele>1513.0</ele>
        <time>2018-07-29T14:09:19Z</time>
      </trkpt>
      <trkpt lat="40.588467" lon="-4.771583">
        <ele>1513.0</ele>
        <time>2018-07-29T14:09:20Z</time>
      </trkpt>
      <trkpt lat="40.588517" lon="-4.771517">
        <ele>1513.0</ele>
        <time>2018-07-29T14:09:21Z</time>
      </trkpt>
      <trkpt lat="40.588567" lon="-4.771450">
        <ele>1513.0</ele>
        <time>2018-07-29T14:09:22Z</time>
      </trkpt>
      <trkpt lat="40.588600" lon="-4.771400">
        <ele>1513.0</ele>
        <time>2018-07-29T14:09:23Z</time>
      </trkpt>
      <trkpt lat="40.588633" lon="-4.771333">
        <ele>1511.0</ele>
        <time>2018-07-29T14:09:24Z</time>
      </trkpt>
      <trkpt lat="40.588683" lon="-4.771283">
        <ele>1509.0</ele>
        <time>2018-07-29T14:09:25Z</time>
      </trkpt>
      <trkpt lat="40.588733" lon="-4.771250">
        <ele>1506.0</ele>
        <time>2018-07-29T14:09:26Z</time>
      </trkpt>
      <trkpt lat="40.588783" lon="-4.771200">
        <ele>1504.0</ele>
        <time>2018-07-29T14:09:27Z</time>
      </trkpt>
      <trkpt lat="40.588833" lon="-4.771150">
        <ele>1502.0</ele>
        <time>2018-07-29T14:09:28Z</time>
      </trkpt>
      <trkpt lat="40.588867" lon="-4.771100">
        <ele>1500.0</ele>
        <time>2018-07-29T14:09:29Z</time>
      </trkpt>
      <trkpt lat="40.588917" lon="-4.771050">
        <ele>1497.0</ele>
        <time>2018-07-29T14:09:30Z</time>
      </trkpt>
      <trkpt lat="40.588967" lon="-4.771017">
        <ele>1493.0</ele>
        <time>2018-07-29T14:09:31Z</time>
      </trkpt>
      <trkpt lat="40.589033" lon="-4.770983">
        <ele>1488.0</ele>
        <time>2018-07-29T14:09:32Z</time>
      </trkpt>
      <trkpt lat="40.589100" lon="-4.770967">
        <ele>1484.0</ele>
        <time>2018-07-29T14:09:33Z</time>
      </trkpt>
      <trkpt lat="40.589167" lon="-4.770950">
        <ele>1483.0</ele>
        <time>2018-07-29T14:09:34Z</time>
      </trkpt>
      <trkpt lat="40.589217" lon="-4.770933">
        <ele>1482.0</ele>
        <time>2018-07-29T14:09:35Z</time>
      </trkpt>
      <trkpt lat="40.589250" lon="-4.770900">
        <ele>1482.0</ele>
        <time>2018-07-29T14:09:36Z</time>
      </trkpt>
      <trkpt lat="40.589283" lon="-4.770867">
        <ele>1480.0</ele>
        <time>2018-07-29T14:09:37Z</time>
      </trkpt>
      <trkpt lat="40.589333" lon="-4.770833">
        <ele>1477.0</ele>
        <time>2018-07-29T14:09:38Z</time>
      </trkpt>
      <trkpt lat="40.589383" lon="-4.770800">
        <ele>1473.0</ele>
        <time>2018-07-29T14:09:39Z</time>
      </trkpt>
      <trkpt lat="40.589433" lon="-4.770800">
        <ele>1470.0</ele>
        <time>2018-07-29T14:09:40Z</time>
      </trkpt>
      <trkpt lat="40.589483" lon="-4.770783">
        <ele>1467.0</ele>
        <time>2018-07-29T14:09:41Z</time>
      </trkpt>
      <trkpt lat="40.589517" lon="-4.770767">
        <ele>1466.0</ele>
        <time>2018-07-29T14:09:42Z</time>
      </trkpt>
      <trkpt lat="40.589567" lon="-4.770733">
        <ele>1465.0</ele>
        <time>2018-07-29T14:09:43Z</time>
      </trkpt>
      <trkpt lat="40.589617" lon="-4.770700">
        <ele>1463.0</ele>
        <time>2018-07-29T14:09:44Z</time>
      </trkpt>
      <trkpt lat="40.589683" lon="-4.770650">
        <ele>1461.0</ele>
        <time>2018-07-29T14:09:45Z</time>
      </trkpt>
      <trkpt lat="40.589767" lon="-4.770617">
        <ele>1461.0</ele>
        <time>2018-07-29T14:09:46Z</time>
      </trkpt>
      <trkpt lat="40.589833" lon="-4.770583">
        <ele>1463.0</ele>
        <time>2018-07-29T14:09:47Z</time>
      </trkpt>
      <trkpt lat="40.589867" lon="-4.770550">
        <ele>1466.0</ele>
        <time>2018-07-29T14:09:48Z</time>
      </trkpt>
      <trkpt lat="40.589883" lon="-4.770550">
        <ele>1468.0</ele>
        <time>2018-07-29T14:09:49Z</time>
      </trkpt>
      <trkpt lat="40.589900" lon="-4.770550">
        <ele>1469.0</ele>
        <time>2018-07-29T14:09:50Z</time>
      </trkpt>
      <trkpt lat="40.589917" lon="-4.770550">
        <ele>1468.0</ele>
        <time>2018-07-29T14:09:51Z</time>
      </trkpt>
      <trkpt lat="40.589950" lon="-4.770550">
        <ele>1468.0</ele>
        <time>2018-07-29T14:09:52Z</time>
      </trkpt>
      <trkpt lat="40.589983" lon="-4.770533">
        <ele>1466.0</ele>
        <time>2018-07-29T14:09:53Z</time>
      </trkpt>
      <trkpt lat="40.590033" lon="-4.770533">
        <ele>1465.0</ele>
        <time>2018-07-29T14:09:54Z</time>
      </trkpt>
      <trkpt lat="40.590083" lon="-4.770533">
        <ele>1463.0</ele>
        <time>2018-07-29T14:09:55Z</time>
      </trkpt>
      <trkpt lat="40.590133" lon="-4.770533">
        <ele>1464.0</ele>
        <time>2018-07-29T14:09:56Z</time>
      </trkpt>
      <trkpt lat="40.590183" lon="-4.770533">
        <ele>1466.0</ele>
        <time>2018-07-29T14:09:57Z</time>
      </trkpt>
      <trkpt lat="40.590217" lon="-4.770533">
        <ele>1468.0</ele>
        <time>2018-07-29T14:09:58Z</time>
      </trkpt>
      <trkpt lat="40.590250" lon="-4.770517">
        <ele>1468.0</ele>
        <time>2018-07-29T14:09:59Z</time>
      </trkpt>
      <trkpt lat="40.590283" lon="-4.770483">
        <ele>1468.0</ele>
        <time>2018-07-29T14:10:00Z</time>
      </trkpt>
      <trkpt lat="40.590333" lon="-4.770467">
        <ele>1467.0</ele>
        <time>2018-07-29T14:10:01Z</time>
      </trkpt>
      <trkpt lat="40.590383" lon="-4.770450">
        <ele>1467.0</ele>
        <time>2018-07-29T14:10:02Z</time>
      </trkpt>
      <trkpt lat="40.590433" lon="-4.770433">
        <ele>1469.0</ele>
        <time>2018-07-29T14:10:03Z</time>
      </trkpt>
      <trkpt lat="40.590483" lon="-4.770417">
        <ele>1471.0</ele>
        <time>2018-07-29T14:10:04Z</time>
      </trkpt>
      <trkpt lat="40.590517" lon="-4.770383">
        <ele>1472.0</ele>
        <time>2018-07-29T14:10:05Z</time>
      </trkpt>
      <trkpt lat="40.590533" lon="-4.770333">
        <ele>1472.0</ele>
        <time>2018-07-29T14:10:06Z</time>
      </trkpt>
      <trkpt lat="40.590567" lon="-4.770283">
        <ele>1470.0</ele>
        <time>2018-07-29T14:10:07Z</time>
      </trkpt>
      <trkpt lat="40.590617" lon="-4.770250">
        <ele>1468.0</ele>
        <time>2018-07-29T14:10:08Z</time>
      </trkpt>
      <trkpt lat="40.590650" lon="-4.770217">
        <ele>1466.0</ele>
        <time>2018-07-29T14:10:09Z</time>
      </trkpt>
      <trkpt lat="40.590700" lon="-4.770183">
        <ele>1465.0</ele>
        <time>2018-07-29T14:10:10Z</time>
      </trkpt>
      <trkpt lat="40.590733" lon="-4.770133">
        <ele>1463.0</ele>
        <time>2018-07-29T14:10:11Z</time>
      </trkpt>
      <trkpt lat="40.590767" lon="-4.770100">
        <ele>1462.0</ele>
        <time>2018-07-29T14:10:12Z</time>
      </trkpt>
      <trkpt lat="40.590783" lon="-4.770067">
        <ele>1461.0</ele>
        <time>2018-07-29T14:10:13Z</time>
      </trkpt>
      <trkpt lat="40.590817" lon="-4.770033">
        <ele>1459.0</ele>
        <time>2018-07-29T14:10:14Z</time>
      </trkpt>
      <trkpt lat="40.590850" lon="-4.770033">
        <ele>1455.0</ele>
        <time>2018-07-29T14:10:15Z</time>
      </trkpt>
      <trkpt lat="40.590900" lon="-4.770033">
        <ele>1452.0</ele>
        <time>2018-07-29T14:10:16Z</time>
      </trkpt>
      <trkpt lat="40.590950" lon="-4.770017">
        <ele>1450.0</ele>
        <time>2018-07-29T14:10:17Z</time>
      </trkpt>
      <trkpt lat="40.591000" lon="-4.770000">
        <ele>1449.0</ele>
        <time>2018-07-29T14:10:18Z</time>
      </trkpt>
      <trkpt lat="40.591050" lon="-4.769967">
        <ele>1449.0</ele>
        <time>2018-07-29T14:10:19Z</time>
      </trkpt>
      <trkpt lat="40.591100" lon="-4.769950">
        <ele>1449.0</ele>
        <time>2018-07-29T14:10:20Z</time>
      </trkpt>
      <trkpt lat="40.591150" lon="-4.769933">
        <ele>1448.0</ele>
        <time>2018-07-29T14:10:21Z</time>
      </trkpt>
      <trkpt lat="40.591183" lon="-4.769900">
        <ele>1447.0</ele>
        <time>2018-07-29T14:10:22Z</time>
      </trkpt>
      <trkpt lat="40.591250" lon="-4.769867">
        <ele>1445.0</ele>
        <time>2018-07-29T14:10:23Z</time>
      </trkpt>
      <trkpt lat="40.591300" lon="-4.769833">
        <ele>1443.0</ele>
        <time>2018-07-29T14:10:24Z</time>
      </trkpt>
      <trkpt lat="40.591367" lon="-4.769800">
        <ele>1443.0</ele>
        <time>2018-07-29T14:10:25Z</time>
      </trkpt>
      <trkpt lat="40.591417" lon="-4.769767">
        <ele>1444.0</ele>
        <time>2018-07-29T14:10:26Z</time>
      </trkpt>
      <trkpt lat="40.591450" lon="-4.769750">
        <ele>1445.0</ele>
        <time>2018-07-29T14:10:27Z</time>
      </trkpt>
      <trkpt lat="40.591467" lon="-4.769717">
        <ele>1445.0</ele>
        <time>2018-07-29T14:10:28Z</time>
      </trkpt>
      <trkpt lat="40.591483" lon="-4.769700">
        <ele>1444.0</ele>
        <time>2018-07-29T14:10:29Z</time>
      </trkpt>
      <trkpt lat="40.591517" lon="-4.769667">
        <ele>1443.0</ele>
        <time>2018-07-29T14:10:30Z</time>
      </trkpt>
      <trkpt lat="40.591550" lon="-4.769650">
        <ele>1442.0</ele>
        <time>2018-07-29T14:10:31Z</time>
      </trkpt>
      <trkpt lat="40.591583" lon="-4.769633">
        <ele>1442.0</ele>
        <time>2018-07-29T14:10:32Z</time>
      </trkpt>
      <trkpt lat="40.591633" lon="-4.769617">
        <ele>1443.0</ele>
        <time>2018-07-29T14:10:33Z</time>
      </trkpt>
      <trkpt lat="40.591650" lon="-4.769600">
        <ele>1444.0</ele>
        <time>2018-07-29T14:10:34Z</time>
      </trkpt>
      <trkpt lat="40.591667" lon="-4.769567">
        <ele>1446.0</ele>
        <time>2018-07-29T14:10:35Z</time>
      </trkpt>
      <trkpt lat="40.591683" lon="-4.769550">
        <ele>1446.0</ele>
        <time>2018-07-29T14:10:36Z</time>
      </trkpt>
      <trkpt lat="40.591700" lon="-4.769550">
        <ele>1445.0</ele>
        <time>2018-07-29T14:10:37Z</time>
      </trkpt>
      <trkpt lat="40.591717" lon="-4.769550">
        <ele>1444.0</ele>
        <time>2018-07-29T14:10:38Z</time>
      </trkpt>
      <trkpt lat="40.591750" lon="-4.769533">
        <ele>1444.0</ele>
        <time>2018-07-29T14:10:39Z</time>
      </trkpt>
      <trkpt lat="40.591783" lon="-4.769500">
        <ele>1442.0</ele>
        <time>2018-07-29T14:10:40Z</time>
      </trkpt>
      <trkpt lat="40.591817" lon="-4.769467">
        <ele>1442.0</ele>
        <time>2018-07-29T14:10:41Z</time>
      </trkpt>
      <trkpt lat="40.591850" lon="-4.769433">
        <ele>1441.0</ele>
        <time>2018-07-29T14:10:42Z</time>
      </trkpt>
      <trkpt lat="40.591867" lon="-4.769400">
        <ele>1441.0</ele>
        <time>2018-07-29T14:10:43Z</time>
      </trkpt>
      <trkpt lat="40.591883" lon="-4.769383">
        <ele>1439.0</ele>
        <time>2018-07-29T14:10:44Z</time>
      </trkpt>
      <trkpt lat="40.591917" lon="-4.769350">
        <ele>1437.0</ele>
        <time>2018-07-29T14:10:45Z</time>
      </trkpt>
      <trkpt lat="40.591950" lon="-4.769317">
        <ele>1435.0</ele>
        <time>2018-07-29T14:10:46Z</time>
      </trkpt>
      <trkpt lat="40.591983" lon="-4.769300">
        <ele>1432.0</ele>
        <time>2018-07-29T14:10:47Z</time>
      </trkpt>
      <trkpt lat="40.592033" lon="-4.769267">
        <ele>1431.0</ele>
        <time>2018-07-29T14:10:48Z</time>
      </trkpt>
      <trkpt lat="40.592083" lon="-4.769250">
        <ele>1429.0</ele>
        <time>2018-07-29T14:10:49Z</time>
      </trkpt>
      <trkpt lat="40.592117" lon="-4.769217">
        <ele>1428.0</ele>
        <time>2018-07-29T14:10:50Z</time>
      </trkpt>
      <trkpt lat="40.592167" lon="-4.769183">
        <ele>1426.0</ele>
        <time>2018-07-29T14:10:51Z</time>
      </trkpt>
      <trkpt lat="40.592200" lon="-4.769167">
        <ele>1423.0</ele>
        <time>2018-07-29T14:10:52Z</time>
      </trkpt>
      <trkpt lat="40.592250" lon="-4.769117">
        <ele>1421.0</ele>
        <time>2018-07-29T14:10:53Z</time>
      </trkpt>
      <trkpt lat="40.592300" lon="-4.769100">
        <ele>1419.0</ele>
        <time>2018-07-29T14:10:54Z</time>
      </trkpt>
      <trkpt lat="40.592350" lon="-4.769067">
        <ele>1417.0</ele>
        <time>2018-07-29T14:10:55Z</time>
      </trkpt>
      <trkpt lat="40.592417" lon="-4.769033">
        <ele>1416.0</ele>
        <time>2018-07-29T14:10:56Z</time>
      </trkpt>
      <trkpt lat="40.592467" lon="-4.769017">
        <ele>1416.0</ele>
        <time>2018-07-29T14:10:57Z</time>
      </trkpt>
      <trkpt lat="40.592500" lon="-4.768967">
        <ele>1417.0</ele>
        <time>2018-07-29T14:10:58Z</time>
      </trkpt>
      <trkpt lat="40.592550" lon="-4.768917">
        <ele>1417.0</ele>
        <time>2018-07-29T14:10:59Z</time>
      </trkpt>
      <trkpt lat="40.592583" lon="-4.768850">
        <ele>1417.0</ele>
        <time>2018-07-29T14:11:00Z</time>
      </trkpt>
      <trkpt lat="40.592633" lon="-4.768783">
        <ele>1418.0</ele>
        <time>2018-07-29T14:11:01Z</time>
      </trkpt>
      <trkpt lat="40.592667" lon="-4.768717">
        <ele>1418.0</ele>
        <time>2018-07-29T14:11:02Z</time>
      </trkpt>
      <trkpt lat="40.592700" lon="-4.768683">
        <ele>1419.0</ele>
        <time>2018-07-29T14:11:03Z</time>
      </trkpt>
      <trkpt lat="40.592733" lon="-4.768633">
        <ele>1420.0</ele>
        <time>2018-07-29T14:11:04Z</time>
      </trkpt>
      <trkpt lat="40.592767" lon="-4.768583">
        <ele>1420.0</ele>
        <time>2018-07-29T14:11:05Z</time>
      </trkpt>
      <trkpt lat="40.592783" lon="-4.768533">
        <ele>1420.0</ele>
        <time>2018-07-29T14:11:06Z</time>
      </trkpt>
      <trkpt lat="40.592817" lon="-4.768483">
        <ele>1419.0</ele>
        <time>2018-07-29T14:11:07Z</time>
      </trkpt>
      <trkpt lat="40.592833" lon="-4.768450">
        <ele>1418.0</ele>
        <time>2018-07-29T14:11:08Z</time>
      </trkpt>
      <trkpt lat="40.592867" lon="-4.768400">
        <ele>1417.0</ele>
        <time>2018-07-29T14:11:09Z</time>
      </trkpt>
      <trkpt lat="40.592900" lon="-4.768367">
        <ele>1416.0</ele>
        <time>2018-07-29T14:11:10Z</time>
      </trkpt>
      <trkpt lat="40.592933" lon="-4.768317">
        <ele>1415.0</ele>
        <time>2018-07-29T14:11:11Z</time>
      </trkpt>
      <trkpt lat="40.592950" lon="-4.768283">
        <ele>1413.0</ele>
        <time>2018-07-29T14:11:12Z</time>
      </trkpt>
      <trkpt lat="40.593000" lon="-4.768250">
        <ele>1411.0</ele>
        <time>2018-07-29T14:11:13Z</time>
      </trkpt>
      <trkpt lat="40.593033" lon="-4.768217">
        <ele>1408.0</ele>
        <time>2018-07-29T14:11:14Z</time>
      </trkpt>
      <trkpt lat="40.593083" lon="-4.768183">
        <ele>1407.0</ele>
        <time>2018-07-29T14:11:15Z</time>
      </trkpt>
      <trkpt lat="40.593133" lon="-4.768150">
        <ele>1406.0</ele>
        <time>2018-07-29T14:11:16Z</time>
      </trkpt>
      <trkpt lat="40.593167" lon="-4.768117">
        <ele>1405.0</ele>
        <time>2018-07-29T14:11:17Z</time>
      </trkpt>
      <trkpt lat="40.593200" lon="-4.768083">
        <ele>1403.0</ele>
        <time>2018-07-29T14:11:18Z</time>
      </trkpt>
      <trkpt lat="40.593217" lon="-4.768050">
        <ele>1400.0</ele>
        <time>2018-07-29T14:11:19Z</time>
      </trkpt>
      <trkpt lat="40.593250" lon="-4.768017">
        <ele>1396.0</ele>
        <time>2018-07-29T14:11:20Z</time>
      </trkpt>
      <trkpt lat="40.593283" lon="-4.767983">
        <ele>1393.0</ele>
        <time>2018-07-29T14:11:21Z</time>
      </trkpt>
      <trkpt lat="40.593317" lon="-4.767950">
        <ele>1389.0</ele>
        <time>2018-07-29T14:11:22Z</time>
      </trkpt>
      <trkpt lat="40.593367" lon="-4.767900">
        <ele>1387.0</ele>
        <time>2018-07-29T14:11:23Z</time>
      </trkpt>
      <trkpt lat="40.593400" lon="-4.767867">
        <ele>1384.0</ele>
        <time>2018-07-29T14:11:24Z</time>
      </trkpt>
      <trkpt lat="40.593433" lon="-4.767833">
        <ele>1382.0</ele>
        <time>2018-07-29T14:11:25Z</time>
      </trkpt>
      <trkpt lat="40.593467" lon="-4.767817">
        <ele>1380.0</ele>
        <time>2018-07-29T14:11:26Z</time>
      </trkpt>
      <trkpt lat="40.593517" lon="-4.767800">
        <ele>1377.0</ele>
        <time>2018-07-29T14:11:27Z</time>
      </trkpt>
      <trkpt lat="40.593567" lon="-4.767767">
        <ele>1375.0</ele>
        <time>2018-07-29T14:11:28Z</time>
      </trkpt>
      <trkpt lat="40.593617" lon="-4.767750">
        <ele>1374.0</ele>
        <time>2018-07-29T14:11:29Z</time>
      </trkpt>
      <trkpt lat="40.593650" lon="-4.767733">
        <ele>1373.0</ele>
        <time>2018-07-29T14:11:30Z</time>
      </trkpt>
      <trkpt lat="40.593683" lon="-4.767717">
        <ele>1372.0</ele>
        <time>2018-07-29T14:11:31Z</time>
      </trkpt>
      <trkpt lat="40.593717" lon="-4.767683">
        <ele>1371.0</ele>
        <time>2018-07-29T14:11:32Z</time>
      </trkpt>
      <trkpt lat="40.593767" lon="-4.767650">
        <ele>1369.0</ele>
        <time>2018-07-29T14:11:33Z</time>
      </trkpt>
      <trkpt lat="40.593817" lon="-4.767617">
        <ele>1367.0</ele>
        <time>2018-07-29T14:11:34Z</time>
      </trkpt>
      <trkpt lat="40.593850" lon="-4.767583">
        <ele>1365.0</ele>
        <time>2018-07-29T14:11:35Z</time>
      </trkpt>
      <trkpt lat="40.593900" lon="-4.767567">
        <ele>1364.0</ele>
        <time>2018-07-29T14:11:36Z</time>
      </trkpt>
      <trkpt lat="40.593933" lon="-4.767550">
        <ele>1363.0</ele>
        <time>2018-07-29T14:11:37Z</time>
      </trkpt>
      <trkpt lat="40.593967" lon="-4.767533">
        <ele>1361.0</ele>
        <time>2018-07-29T14:11:38Z</time>
      </trkpt>
      <trkpt lat="40.594000" lon="-4.767500">
        <ele>1358.0</ele>
        <time>2018-07-29T14:11:39Z</time>
      </trkpt>
      <trkpt lat="40.594050" lon="-4.767467">
        <ele>1355.0</ele>
        <time>2018-07-29T14:11:40Z</time>
      </trkpt>
      <trkpt lat="40.594100" lon="-4.767433">
        <ele>1351.0</ele>
        <time>2018-07-29T14:11:41Z</time>
      </trkpt>
      <trkpt lat="40.594167" lon="-4.767383">
        <ele>1348.0</ele>
        <time>2018-07-29T14:11:42Z</time>
      </trkpt>
      <trkpt lat="40.594217" lon="-4.767350">
        <ele>1345.0</ele>
        <time>2018-07-29T14:11:43Z</time>
      </trkpt>
      <trkpt lat="40.594283" lon="-4.767317">
        <ele>1342.0</ele>
        <time>2018-07-29T14:11:44Z</time>
      </trkpt>
      <trkpt lat="40.594333" lon="-4.767300">
        <ele>1339.0</ele>
        <time>2018-07-29T14:11:45Z</time>
      </trkpt>
      <trkpt lat="40.594383" lon="-4.767283">
        <ele>1337.0</ele>
        <time>2018-07-29T14:11:46Z</time>
      </trkpt>
      <trkpt lat="40.594433" lon="-4.767250">
        <ele>1334.0</ele>
        <time>2018-07-29T14:11:47Z</time>
      </trkpt>
      <trkpt lat="40.594500" lon="-4.767217">
        <ele>1333.0</ele>
        <time>2018-07-29T14:11:48Z</time>
      </trkpt>
      <trkpt lat="40.594533" lon="-4.767200">
        <ele>1333.0</ele>
        <time>2018-07-29T14:11:49Z</time>
      </trkpt>
      <trkpt lat="40.594567" lon="-4.767167">
        <ele>1332.0</ele>
        <time>2018-07-29T14:11:50Z</time>
      </trkpt>
      <trkpt lat="40.594600" lon="-4.767150">
        <ele>1331.0</ele>
        <time>2018-07-29T14:11:51Z</time>
      </trkpt>
      <trkpt lat="40.594633" lon="-4.767133">
        <ele>1328.0</ele>
        <time>2018-07-29T14:11:52Z</time>
      </trkpt>
      <trkpt lat="40.594683" lon="-4.767100">
        <ele>1326.0</ele>
        <time>2018-07-29T14:11:53Z</time>
      </trkpt>
      <trkpt lat="40.594733" lon="-4.767050">
        <ele>1324.0</ele>
        <time>2018-07-29T14:11:54Z</time>
      </trkpt>
      <trkpt lat="40.594783" lon="-4.767017">
        <ele>1322.0</ele>
        <time>2018-07-29T14:11:55Z</time>
      </trkpt>
      <trkpt lat="40.594833" lon="-4.767000">
        <ele>1322.0</ele>
        <time>2018-07-29T14:11:56Z</time>
      </trkpt>
      <trkpt lat="40.594867" lon="-4.766983">
        <ele>1321.0</ele>
        <time>2018-07-29T14:11:57Z</time>
      </trkpt>
      <trkpt lat="40.594900" lon="-4.766967">
        <ele>1319.0</ele>
        <time>2018-07-29T14:11:58Z</time>
      </trkpt>
      <trkpt lat="40.594933" lon="-4.766933">
        <ele>1316.0</ele>
        <time>2018-07-29T14:11:59Z</time>
      </trkpt>
      <trkpt lat="40.594967" lon="-4.766917">
        <ele>1312.0</ele>
        <time>2018-07-29T14:12:00Z</time>
      </trkpt>
      <trkpt lat="40.595033" lon="-4.766900">
        <ele>1307.0</ele>
        <time>2018-07-29T14:12:01Z</time>
      </trkpt>
      <trkpt lat="40.595100" lon="-4.766900">
        <ele>1304.0</ele>
        <time>2018-07-29T14:12:02Z</time>
      </trkpt>
      <trkpt lat="40.595167" lon="-4.766900">
        <ele>1302.0</ele>
        <time>2018-07-29T14:12:03Z</time>
      </trkpt>
      <trkpt lat="40.595217" lon="-4.766917">
        <ele>1301.0</ele>
        <time>2018-07-29T14:12:04Z</time>
      </trkpt>
      <trkpt lat="40.595267" lon="-4.766917">
        <ele>1299.0</ele>
        <time>2018-07-29T14:12:05Z</time>
      </trkpt>
      <trkpt lat="40.595317" lon="-4.766917">
        <ele>1298.0</ele>
        <time>2018-07-29T14:12:06Z</time>
      </trkpt>
      <trkpt lat="40.595367" lon="-4.766900">
        <ele>1295.0</ele>
        <time>2018-07-29T14:12:07Z</time>
      </trkpt>
      <trkpt lat="40.595417" lon="-4.766883">
        <ele>1291.0</ele>
        <time>2018-07-29T14:12:08Z</time>
      </trkpt>
      <trkpt lat="40.595483" lon="-4.766867">
        <ele>1287.0</ele>
        <time>2018-07-29T14:12:09Z</time>
      </trkpt>
      <trkpt lat="40.595550" lon="-4.766850">
        <ele>1284.0</ele>
        <time>2018-07-29T14:12:10Z</time>
      </trkpt>
      <trkpt lat="40.595633" lon="-4.766833">
        <ele>1283.0</ele>
        <time>2018-07-29T14:12:11Z</time>
      </trkpt>
      <trkpt lat="40.595683" lon="-4.766800">
        <ele>1283.0</ele>
        <time>2018-07-29T14:12:12Z</time>
      </trkpt>
      <trkpt lat="40.595733" lon="-4.766767">
        <ele>1282.0</ele>
        <time>2018-07-29T14:12:13Z</time>
      </trkpt>
      <trkpt lat="40.595783" lon="-4.766717">
        <ele>1281.0</ele>
        <time>2018-07-29T14:12:14Z</time>
      </trkpt>
      <trkpt lat="40.595833" lon="-4.766667">
        <ele>1279.0</ele>
        <time>2018-07-29T14:12:15Z</time>
      </trkpt>
      <trkpt lat="40.595883" lon="-4.766633">
        <ele>1276.0</ele>
        <time>2018-07-29T14:12:16Z</time>
      </trkpt>
      <trkpt lat="40.595933" lon="-4.766600">
        <ele>1274.0</ele>
        <time>2018-07-29T14:12:17Z</time>
      </trkpt>
      <trkpt lat="40.595983" lon="-4.766550">
        <ele>1272.0</ele>
        <time>2018-07-29T14:12:18Z</time>
      </trkpt>
      <trkpt lat="40.596033" lon="-4.766500">
        <ele>1271.0</ele>
        <time>2018-07-29T14:12:19Z</time>
      </trkpt>
      <trkpt lat="40.596083" lon="-4.766450">
        <ele>1271.0</ele>
        <time>2018-07-29T14:12:20Z</time>
      </trkpt>
      <trkpt lat="40.596117" lon="-4.766417">
        <ele>1270.0</ele>
        <time>2018-07-29T14:12:21Z</time>
      </trkpt>
      <trkpt lat="40.596167" lon="-4.766400">
        <ele>1268.0</ele>
        <time>2018-07-29T14:12:22Z</time>
      </trkpt>
      <trkpt lat="40.596217" lon="-4.766367">
        <ele>1266.0</ele>
        <time>2018-07-29T14:12:23Z</time>
      </trkpt>
      <trkpt lat="40.596267" lon="-4.766333">
        <ele>1263.0</ele>
        <time>2018-07-29T14:12:24Z</time>
      </trkpt>
      <trkpt lat="40.596317" lon="-4.766300">
        <ele>1261.0</ele>
        <time>2018-07-29T14:12:25Z</time>
      </trkpt>
      <trkpt lat="40.596367" lon="-4.766267">
        <ele>1259.0</ele>
        <time>2018-07-29T14:12:26Z</time>
      </trkpt>
      <trkpt lat="40.596417" lon="-4.766233">
        <ele>1257.0</ele>
        <time>2018-07-29T14:12:27Z</time>
      </trkpt>
      <trkpt lat="40.596483" lon="-4.766200">
        <ele>1254.0</ele>
        <time>2018-07-29T14:12:28Z</time>
      </trkpt>
      <trkpt lat="40.596550" lon="-4.766150">
        <ele>1251.0</ele>
        <time>2018-07-29T14:12:29Z</time>
      </trkpt>
      <trkpt lat="40.596617" lon="-4.766117">
        <ele>1248.0</ele>
        <time>2018-07-29T14:12:30Z</time>
      </trkpt>
      <trkpt lat="40.596683" lon="-4.766067">
        <ele>1249.0</ele>
        <time>2018-07-29T14:12:31Z</time>
      </trkpt>
      <trkpt lat="40.596733" lon="-4.766017">
        <ele>1250.0</ele>
        <time>2018-07-29T14:12:32Z</time>
      </trkpt>
      <trkpt lat="40.596767" lon="-4.765967">
        <ele>1250.0</ele>
        <time>2018-07-29T14:12:33Z</time>
      </trkpt>
      <trkpt lat="40.596800" lon="-4.765933">
        <ele>1249.0</ele>
        <time>2018-07-29T14:12:34Z</time>
      </trkpt>
      <trkpt lat="40.596833" lon="-4.765900">
        <ele>1247.0</ele>
        <time>2018-07-29T14:12:35Z</time>
      </trkpt>
      <trkpt lat="40.596867" lon="-4.765883">
        <ele>1244.0</ele>
        <time>2018-07-29T14:12:36Z</time>
      </trkpt>
      <trkpt lat="40.596917" lon="-4.765867">
        <ele>1241.0</ele>
        <time>2018-07-29T14:12:37Z</time>
      </trkpt>
      <trkpt lat="40.596967" lon="-4.765850">
        <ele>1237.0</ele>
        <time>2018-07-29T14:12:38Z</time>
      </trkpt>
      <trkpt lat="40.597017" lon="-4.765833">
        <ele>1234.0</ele>
        <time>2018-07-29T14:12:39Z</time>
      </trkpt>
      <trkpt lat="40.597083" lon="-4.765817">
        <ele>1232.0</ele>
        <time>2018-07-29T14:12:40Z</time>
      </trkpt>
      <trkpt lat="40.597133" lon="-4.765800">
        <ele>1231.0</ele>
        <time>2018-07-29T14:12:41Z</time>
      </trkpt>
      <trkpt lat="40.597183" lon="-4.765783">
        <ele>1230.0</ele>
        <time>2018-07-29T14:12:42Z</time>
      </trkpt>
      <trkpt lat="40.597233" lon="-4.765767">
        <ele>1229.0</ele>
        <time>2018-07-29T14:12:43Z</time>
      </trkpt>
      <trkpt lat="40.597283" lon="-4.765750">
        <ele>1228.0</ele>
        <time>2018-07-29T14:12:44Z</time>
      </trkpt>
      <trkpt lat="40.597333" lon="-4.765717">
        <ele>1225.0</ele>
        <time>2018-07-29T14:12:45Z</time>
      </trkpt>
      <trkpt lat="40.597400" lon="-4.765667">
        <ele>1222.0</ele>
        <time>2018-07-29T14:12:46Z</time>
      </trkpt>
      <trkpt lat="40.597450" lon="-4.765633">
        <ele>1220.0</ele>
        <time>2018-07-29T14:12:47Z</time>
      </trkpt>
      <trkpt lat="40.597517" lon="-4.765600">
        <ele>1219.0</ele>
        <time>2018-07-29T14:12:48Z</time>
      </trkpt>
      <trkpt lat="40.597567" lon="-4.765567">
        <ele>1218.0</ele>
        <time>2018-07-29T14:12:49Z</time>
      </trkpt>
      <trkpt lat="40.597617" lon="-4.765517">
        <ele>1217.0</ele>
        <time>2018-07-29T14:12:50Z</time>
      </trkpt>
      <trkpt lat="40.597667" lon="-4.765467">
        <ele>1215.0</ele>
        <time>2018-07-29T14:12:51Z</time>
      </trkpt>
      <trkpt lat="40.597700" lon="-4.765417">
        <ele>1212.0</ele>
        <time>2018-07-29T14:12:52Z</time>
      </trkpt>
      <trkpt lat="40.597750" lon="-4.765367">
        <ele>1209.0</ele>
        <time>2018-07-29T14:12:53Z</time>
      </trkpt>
      <trkpt lat="40.597800" lon="-4.765317">
        <ele>1207.0</ele>
        <time>2018-07-29T14:12:54Z</time>
      </trkpt>
      <trkpt lat="40.597867" lon="-4.765283">
        <ele>1206.0</ele>
        <time>2018-07-29T14:12:55Z</time>
      </trkpt>
      <trkpt lat="40.597900" lon="-4.765267">
        <ele>1204.0</ele>
        <time>2018-07-29T14:12:56Z</time>
      </trkpt>
      <trkpt lat="40.597950" lon="-4.765233">
        <ele>1202.0</ele>
        <time>2018-07-29T14:12:57Z</time>
      </trkpt>
      <trkpt lat="40.598017" lon="-4.765200">
        <ele>1200.0</ele>
        <time>2018-07-29T14:12:58Z</time>
      </trkpt>
      <trkpt lat="40.598083" lon="-4.765167">
        <ele>1197.0</ele>
        <time>2018-07-29T14:12:59Z</time>
      </trkpt>
      <trkpt lat="40.598150" lon="-4.765100">
        <ele>1195.0</ele>
        <time>2018-07-29T14:13:00Z</time>
      </trkpt>
      <trkpt lat="40.598217" lon="-4.765050">
        <ele>1196.0</ele>
        <time>2018-07-29T14:13:01Z</time>
      </trkpt>
      <trkpt lat="40.598267" lon="-4.764983">
        <ele>1196.0</ele>
        <time>2018-07-29T14:13:02Z</time>
      </trkpt>
      <trkpt lat="40.598333" lon="-4.764933">
        <ele>1195.0</ele>
        <time>2018-07-29T14:13:03Z</time>
      </trkpt>
      <trkpt lat="40.598383" lon="-4.764883">
        <ele>1193.0</ele>
        <time>2018-07-29T14:13:04Z</time>
      </trkpt>
      <trkpt lat="40.598433" lon="-4.764817">
        <ele>1190.0</ele>
        <time>2018-07-29T14:13:05Z</time>
      </trkpt>
      <trkpt lat="40.598483" lon="-4.764750">
        <ele>1187.0</ele>
        <time>2018-07-29T14:13:06Z</time>
      </trkpt>
      <trkpt lat="40.598550" lon="-4.764700">
        <ele>1184.0</ele>
        <time>2018-07-29T14:13:07Z</time>
      </trkpt>
      <trkpt lat="40.598600" lon="-4.764633">
        <ele>1181.0</ele>
        <time>2018-07-29T14:13:08Z</time>
      </trkpt>
      <trkpt lat="40.598650" lon="-4.764600">
        <ele>1179.0</ele>
        <time>2018-07-29T14:13:09Z</time>
      </trkpt>
      <trkpt lat="40.598700" lon="-4.764550">
        <ele>1177.0</ele>
        <time>2018-07-29T14:13:10Z</time>
      </trkpt>
      <trkpt lat="40.598767" lon="-4.764500">
        <ele>1174.0</ele>
        <time>2018-07-29T14:13:11Z</time>
      </trkpt>
      <trkpt lat="40.598817" lon="-4.764450">
        <ele>1172.0</ele>
        <time>2018-07-29T14:13:12Z</time>
      </trkpt>
      <trkpt lat="40.598867" lon="-4.764417">
        <ele>1169.0</ele>
        <time>2018-07-29T14:13:13Z</time>
      </trkpt>
      <trkpt lat="40.598950" lon="-4.764383">
        <ele>1166.0</ele>
        <time>2018-07-29T14:13:14Z</time>
      </trkpt>
      <trkpt lat="40.599017" lon="-4.764350">
        <ele>1165.0</ele>
        <time>2018-07-29T14:13:15Z</time>
      </trkpt>
      <trkpt lat="40.599067" lon="-4.764300">
        <ele>1164.0</ele>
        <time>2018-07-29T14:13:16Z</time>
      </trkpt>
      <trkpt lat="40.599117" lon="-4.764250">
        <ele>1163.0</ele>
        <time>2018-07-29T14:13:17Z</time>
      </trkpt>
      <trkpt lat="40.599167" lon="-4.764200">
        <ele>1162.0</ele>
        <time>2018-07-29T14:13:18Z</time>
      </trkpt>
      <trkpt lat="40.599233" lon="-4.764150">
        <ele>1160.0</ele>
        <time>2018-07-29T14:13:19Z</time>
      </trkpt>
      <trkpt lat="40.599283" lon="-4.764100">
        <ele>1158.0</ele>
        <time>2018-07-29T14:13:20Z</time>
      </trkpt>
      <trkpt lat="40.599317" lon="-4.764050">
        <ele>1156.0</ele>
        <time>2018-07-29T14:13:21Z</time>
      </trkpt>
      <trkpt lat="40.599367" lon="-4.764017">
        <ele>1154.0</ele>
        <time>2018-07-29T14:13:22Z</time>
      </trkpt>
      <trkpt lat="40.599417" lon="-4.764000">
        <ele>1152.0</ele>
        <time>2018-07-29T14:13:23Z</time>
      </trkpt>
      <trkpt lat="40.599483" lon="-4.763967">
        <ele>1149.0</ele>
        <time>2018-07-29T14:13:24Z</time>
      </trkpt>
      <trkpt lat="40.599533" lon="-4.763933">
        <ele>1146.0</ele>
        <time>2018-07-29T14:13:25Z</time>
      </trkpt>
      <trkpt lat="40.599600" lon="-4.763917">
        <ele>1145.0</ele>
        <time>2018-07-29T14:13:26Z</time>
      </trkpt>
      <trkpt lat="40.599650" lon="-4.763900">
        <ele>1144.0</ele>
        <time>2018-07-29T14:13:27Z</time>
      </trkpt>
      <trkpt lat="40.599717" lon="-4.763883">
        <ele>1143.0</ele>
        <time>2018-07-29T14:13:28Z</time>
      </trkpt>
      <trkpt lat="40.599767" lon="-4.763850">
        <ele>1142.0</ele>
        <time>2018-07-29T14:13:29Z</time>
      </trkpt>
      <trkpt lat="40.599817" lon="-4.763817">
        <ele>1140.0</ele>
        <time>2018-07-29T14:13:30Z</time>
      </trkpt>
      <trkpt lat="40.599867" lon="-4.763767">
        <ele>1139.0</ele>
        <time>2018-07-29T14:13:31Z</time>
      </trkpt>
      <trkpt lat="40.599917" lon="-4.763733">
        <ele>1138.0</ele>
        <time>2018-07-29T14:13:32Z</time>
      </trkpt>
      <trkpt lat="40.599967" lon="-4.763683">
        <ele>1137.0</ele>
        <time>2018-07-29T14:13:33Z</time>
      </trkpt>
      <trkpt lat="40.600017" lon="-4.763650">
        <ele>1136.0</ele>
        <time>2018-07-29T14:13:34Z</time>
      </trkpt>
      <trkpt lat="40.600067" lon="-4.763600">
        <ele>1135.0</ele>
        <time>2018-07-29T14:13:35Z</time>
      </trkpt>
      <trkpt lat="40.600100" lon="-4.763550">
        <ele>1133.0</ele>
        <time>2018-07-29T14:13:36Z</time>
      </trkpt>
      <trkpt lat="40.600150" lon="-4.763500">
        <ele>1132.0</ele>
        <time>2018-07-29T14:13:37Z</time>
      </trkpt>
      <trkpt lat="40.600200" lon="-4.763450">
        <ele>1130.0</ele>
        <time>2018-07-29T14:13:38Z</time>
      </trkpt>
      <trkpt lat="40.600250" lon="-4.763417">
        <ele>1129.0</ele>
        <time>2018-07-29T14:13:39Z</time>
      </trkpt>
      <trkpt lat="40.600283" lon="-4.763400">
        <ele>1127.0</ele>
        <time>2018-07-29T14:13:40Z</time>
      </trkpt>
      <trkpt lat="40.600333" lon="-4.763367">
        <ele>1125.0</ele>
        <time>2018-07-29T14:13:41Z</time>
      </trkpt>
      <trkpt lat="40.600383" lon="-4.763383">
        <ele>1123.0</ele>
        <time>2018-07-29T14:13:42Z</time>
      </trkpt>
      <trkpt lat="40.600433" lon="-4.763417">
        <ele>1120.0</ele>
        <time>2018-07-29T14:13:43Z</time>
      </trkpt>
      <trkpt lat="40.600467" lon="-4.763483">
        <ele>1118.0</ele>
        <time>2018-07-29T14:13:44Z</time>
      </trkpt>
      <trkpt lat="40.600483" lon="-4.763567">
        <ele>1117.0</ele>
        <time>2018-07-29T14:13:45Z</time>
      </trkpt>
      <trkpt lat="40.600483" lon="-4.763667">
        <ele>1116.0</ele>
        <time>2018-07-29T14:13:46Z</time>
      </trkpt>
      <trkpt lat="40.600483" lon="-4.763750">
        <ele>1116.0</ele>
        <time>2018-07-29T14:13:47Z</time>
      </trkpt>
      <trkpt lat="40.600483" lon="-4.763833">
        <ele>1116.0</ele>
        <time>2018-07-29T14:13:48Z</time>
      </trkpt>
      <trkpt lat="40.600483" lon="-4.763900">
        <ele>1114.0</ele>
        <time>2018-07-29T14:13:49Z</time>
      </trkpt>
      <trkpt lat="40.600483" lon="-4.763967">
        <ele>1112.0</ele>
        <time>2018-07-29T14:13:50Z</time>
      </trkpt>
      <trkpt lat="40.600500" lon="-4.764050">
        <ele>1109.0</ele>
        <time>2018-07-29T14:13:51Z</time>
      </trkpt>
      <trkpt lat="40.600500" lon="-4.764150">
        <ele>1107.0</ele>
        <time>2018-07-29T14:13:52Z</time>
      </trkpt>
      <trkpt lat="40.600500" lon="-4.764233">
        <ele>1107.0</ele>
        <time>2018-07-29T14:13:53Z</time>
      </trkpt>
      <trkpt lat="40.600500" lon="-4.764283">
        <ele>1107.0</ele>
        <time>2018-07-29T14:13:54Z</time>
      </trkpt>
      <trkpt lat="40.600500" lon="-4.764333">
        <ele>1107.0</ele>
        <time>2018-07-29T14:13:55Z</time>
      </trkpt>
      <trkpt lat="40.600483" lon="-4.764350">
        <ele>1106.0</ele>
        <time>2018-07-29T14:13:56Z</time>
      </trkpt>
      <trkpt lat="40.600483" lon="-4.764350">
        <ele>1106.0</ele>
        <time>2018-07-29T14:13:57Z</time>
      </trkpt>
      <trkpt lat="40.600467" lon="-4.764367">
        <ele>1105.0</ele>
        <time>2018-07-29T14:13:58Z</time>
      </trkpt>
      <trkpt lat="40.600467" lon="-4.764367">
        <ele>1105.0</ele>
        <time>2018-07-29T14:13:59Z</time>
      </trkpt>
      <trkpt lat="40.600450" lon="-4.764367">
        <ele>1105.0</ele>
        <time>2018-07-29T14:14:00Z</time>
      </trkpt>
      <trkpt lat="40.600450" lon="-4.764367">
        <ele>1105.0</ele>
        <time>2018-07-29T14:14:01Z</time>
      </trkpt>
      <trkpt lat="40.600450" lon="-4.764367">
        <ele>1105.0</ele>
        <time>2018-07-29T14:14:02Z</time>
      </trkpt>
      <trkpt lat="40.600450" lon="-4.764367">
        <ele>1105.0</ele>
        <time>2018-07-29T14:14:03Z</time>
      </trkpt>
      <trkpt lat="40.600450" lon="-4.764367">
        <ele>1105.0</ele>
        <time>2018-07-29T14:14:04Z</time>
      </trkpt>
      <trkpt lat="40.600450" lon="-4.764367">
        <ele>1105.0</ele>
        <time>2018-07-29T14:14:05Z</time>
      </trkpt>
      <trkpt lat="40.600450" lon="-4.764367">
        <ele>1105.0</ele>
        <time>2018-07-29T14:14:06Z</time>
      </trkpt>
      <trkpt lat="40.600450" lon="-4.764367">
        <ele>1104.0</ele>
        <time>2018-07-29T14:14:07Z</time>
      </trkpt>
      <trkpt lat="40.600450" lon="-4.764367">
        <ele>1105.0</ele>
        <time>2018-07-29T14:14:08Z</time>
      </trkpt>
      <trkpt lat="40.600450" lon="-4.764367">
        <ele>1105.0</ele>
        <time>2018-07-29T14:14:09Z</time>
      </trkpt>
      <trkpt lat="40.600450" lon="-4.764367">
        <ele>1105.0</ele>
        <time>2018-07-29T14:14:10Z</time>
      </trkpt>
      <trkpt lat="40.600450" lon="-4.764367">
        <ele>1105.0</ele>
        <time>2018-07-29T14:14:11Z</time>
      </trkpt>
      <trkpt lat="40.600450" lon="-4.764367">
        <ele>1105.0</ele>
        <time>2018-07-29T14:14:12Z</time>
      </trkpt>
      <trkpt lat="40.600450" lon="-4.764367">
        <ele>1105.0</ele>
        <time>2018-07-29T14:14:13Z</time>
      </trkpt>
      <trkpt lat="40.600450" lon="-4.764367">
        <ele>1105.0</ele>
        <time>2018-07-29T14:14:14Z</time>
      </trkpt>
      <trkpt lat="40.600450" lon="-4.764367">
        <ele>1106.0</ele>
        <time>2018-07-29T14:14:15Z</time>
      </trkpt>
      <trkpt lat="40.600450" lon="-4.764367">
        <ele>1106.0</ele>
        <time>2018-07-29T14:14:16Z</time>
      </trkpt>
      <trkpt lat="40.600433" lon="-4.764367">
        <ele>1106.0</ele>
        <time>2018-07-29T14:14:17Z</time>
      </trkpt>
    </trkseg>
  </trk>
</gpx>
